<?xml version='1.0' encoding='UTF-8'?><gpx version="1.1" creator="JPX - https://github.com/jenetics/jpx" xmlns="http://www.topografix.com/GPX/1/1"><trk><trkseg><trkpt lat="42.522675" lon="14.1532548"><ele>2.0</ele><time>2026-05-02T06:13:35.151Z</time></trkpt><trkpt lat="42.5227316" lon="14.1532105"><ele>1.9999999999999998</ele><time>2026-05-02T06:13:37.152Z</time></trkpt><trkpt lat="42.5227894" lon="14.1531553"><ele>2.0</ele><time>2026-05-02T06:15:17.152Z</time></trkpt><trkpt lat="42.5228673" lon="14.1531405"><ele>2.0</ele><time>2026-05-02T06:15:20.152Z</time></trkpt><trkpt lat="42.5229093" lon="14.1530667"><ele>1.9999999999999998</ele><time>2026-05-02T06:15:24.151Z</time></trkpt><trkpt lat="42.5228449" lon="14.1530649"><ele>2.0</ele><time>2026-05-02T06:15:45.151Z</time></trkpt><trkpt lat="42.5227875" lon="14.1530194"><ele>2.0</ele><time>2026-05-02T06:15:50.15Z</time></trkpt><trkpt lat="42.5227288" lon="14.152931"><ele>1.9999999999999998</ele><time>2026-05-02T06:15:53.151Z</time></trkpt><trkpt lat="42.522655" lon="14.1528677"><ele>2.0</ele><time>2026-05-02T06:15:56.15Z</time></trkpt><trkpt lat="42.5225615" lon="14.1529356"><ele>2.0</ele><time>2026-05-02T06:15:58.15Z</time></trkpt><trkpt lat="42.522466" lon="14.1530088"><ele>2.0</ele><time>2026-05-02T06:16:00.15Z</time></trkpt><trkpt lat="42.5224041" lon="14.1530299"><ele>1.9999999999999998</ele><time>2026-05-02T06:16:02.151Z</time></trkpt><trkpt lat="42.522353" lon="14.1529799"><ele>2.0</ele><time>2026-05-02T06:16:04.15Z</time></trkpt><trkpt lat="42.5223055" lon="14.1528641"><ele>1.9999999999999998</ele><time>2026-05-02T06:16:06.15Z</time></trkpt><trkpt lat="42.5222745" lon="14.1527872"><ele>2.0</ele><time>2026-05-02T06:16:07.151Z</time></trkpt><trkpt lat="42.5222179" lon="14.1526491"><ele>2.0</ele><time>2026-05-02T06:16:09.15Z</time></trkpt><trkpt lat="42.5221725" lon="14.152563"><ele>2.0</ele><time>2026-05-02T06:16:11.151Z</time></trkpt><trkpt lat="42.5221284" lon="14.1524687"><ele>1.9999999999999998</ele><time>2026-05-02T06:16:13.15Z</time></trkpt><trkpt lat="42.5220813" lon="14.1523399"><ele>2.0</ele><time>2026-05-02T06:16:15.151Z</time></trkpt><trkpt lat="42.522024" lon="14.152203"><ele>1.6666666666666665</ele><time>2026-05-02T06:16:17.15Z</time></trkpt><trkpt lat="42.5219691" lon="14.1520769"><ele>1.3333333333333333</ele><time>2026-05-02T06:16:19.15Z</time></trkpt><trkpt lat="42.5218781" lon="14.1520007"><ele>1.0</ele><time>2026-05-02T06:16:21.15Z</time></trkpt><trkpt lat="42.5217942" lon="14.1520531"><ele>0.6666666666666666</ele><time>2026-05-02T06:16:23.15Z</time></trkpt><trkpt lat="42.5217931" lon="14.15215"><ele>0.3333333333333333</ele><time>2026-05-02T06:16:25.15Z</time></trkpt><trkpt lat="42.5218271" lon="14.1522276"><ele>0.0</ele><time>2026-05-02T06:16:27.151Z</time></trkpt><trkpt lat="42.5218752" lon="14.1523378"><ele>-0.16666666666666666</ele><time>2026-05-02T06:16:30.151Z</time></trkpt><trkpt lat="42.5219158" lon="14.1524219"><ele>-0.3333333333333333</ele><time>2026-05-02T06:16:33.151Z</time></trkpt><trkpt lat="42.5219624" lon="14.1524942"><ele>-0.5</ele><time>2026-05-02T06:17:03.151Z</time></trkpt><trkpt lat="42.5220094" lon="14.152557"><ele>-0.6666666666666666</ele><time>2026-05-02T06:17:37.15Z</time></trkpt><trkpt lat="42.5220344" lon="14.1526393"><ele>-0.8333333333333333</ele><time>2026-05-02T06:17:55.152Z</time></trkpt><trkpt lat="42.5220912" lon="14.1527421"><ele>-1.0</ele><time>2026-05-02T06:17:57.15Z</time></trkpt><trkpt lat="42.5221369" lon="14.1528426"><ele>-0.49999999999999994</ele><time>2026-05-02T06:17:59.151Z</time></trkpt><trkpt lat="42.5221835" lon="14.1529391"><ele>0.0</ele><time>2026-05-02T06:18:01.151Z</time></trkpt><trkpt lat="42.5222285" lon="14.1530383"><ele>0.5</ele><time>2026-05-02T06:18:03.151Z</time></trkpt><trkpt lat="42.5222753" lon="14.1531441"><ele>1.0</ele><time>2026-05-02T06:18:05.15Z</time></trkpt><trkpt lat="42.5223145" lon="14.1532399"><ele>1.4999999999999998</ele><time>2026-05-02T06:18:07.152Z</time></trkpt><trkpt lat="42.5223098" lon="14.1533343"><ele>2.0</ele><time>2026-05-02T06:18:09.15Z</time></trkpt><trkpt lat="42.5222252" lon="14.1534124"><ele>1.9999999999999998</ele><time>2026-05-02T06:18:11.15Z</time></trkpt><trkpt lat="42.522171" lon="14.153458"><ele>2.0</ele><time>2026-05-02T06:18:12.15Z</time></trkpt><trkpt lat="42.5221145" lon="14.1535084"><ele>2.0</ele><time>2026-05-02T06:18:13.151Z</time></trkpt><trkpt lat="42.5220571" lon="14.1535575"><ele>2.0</ele><time>2026-05-02T06:18:14.151Z</time></trkpt><trkpt lat="42.5219591" lon="14.1536068"><ele>1.9999999999999998</ele><time>2026-05-02T06:18:16.152Z</time></trkpt><trkpt lat="42.5218823" lon="14.1535512"><ele>2.0</ele><time>2026-05-02T06:18:18.151Z</time></trkpt><trkpt lat="42.5218204" lon="14.153407"><ele>1.6666666666666665</ele><time>2026-05-02T06:18:20.151Z</time></trkpt><trkpt lat="42.5217875" lon="14.1533111"><ele>1.3333333333333333</ele><time>2026-05-02T06:18:21.151Z</time></trkpt><trkpt lat="42.5217501" lon="14.1532127"><ele>1.0</ele><time>2026-05-02T06:18:22.15Z</time></trkpt><trkpt lat="42.5217125" lon="14.1531059"><ele>0.6666666666666666</ele><time>2026-05-02T06:18:23.15Z</time></trkpt><trkpt lat="42.5216713" lon="14.1529874"><ele>0.3333333333333333</ele><time>2026-05-02T06:18:24.15Z</time></trkpt><trkpt lat="42.521628" lon="14.1528607"><ele>0.0</ele><time>2026-05-02T06:18:25.152Z</time></trkpt><trkpt lat="42.5215827" lon="14.1527285"><ele>0.0</ele><time>2026-05-02T06:18:26.152Z</time></trkpt><trkpt lat="42.5215351" lon="14.1525948"><ele>0.0</ele><time>2026-05-02T06:18:27.15Z</time></trkpt><trkpt lat="42.5214849" lon="14.1524581"><ele>0.0</ele><time>2026-05-02T06:18:28.15Z</time></trkpt><trkpt lat="42.5214416" lon="14.1523259"><ele>0.0</ele><time>2026-05-02T06:18:29.152Z</time></trkpt><trkpt lat="42.5213988" lon="14.1522023"><ele>0.0</ele><time>2026-05-02T06:18:30.151Z</time></trkpt><trkpt lat="42.5213566" lon="14.1520784"><ele>0.0</ele><time>2026-05-02T06:18:31.15Z</time></trkpt><trkpt lat="42.5213157" lon="14.1519552"><ele>0.0</ele><time>2026-05-02T06:18:32.15Z</time></trkpt><trkpt lat="42.5212705" lon="14.1518234"><ele>0.0</ele><time>2026-05-02T06:18:33.152Z</time></trkpt><trkpt lat="42.5212241" lon="14.1516918"><ele>0.0</ele><time>2026-05-02T06:18:34.151Z</time></trkpt><trkpt lat="42.5211761" lon="14.1515557"><ele>0.0</ele><time>2026-05-02T06:18:35.15Z</time></trkpt><trkpt lat="42.5211319" lon="14.15142"><ele>0.5</ele><time>2026-05-02T06:18:36.151Z</time></trkpt><trkpt lat="42.5210839" lon="14.1512817"><ele>1.0</ele><time>2026-05-02T06:18:37.15Z</time></trkpt><trkpt lat="42.5210345" lon="14.1511439"><ele>1.5</ele><time>2026-05-02T06:18:38.15Z</time></trkpt><trkpt lat="42.5209845" lon="14.1510028"><ele>2.0</ele><time>2026-05-02T06:18:39.151Z</time></trkpt><trkpt lat="42.5209371" lon="14.1508584"><ele>2.0</ele><time>2026-05-02T06:18:40.151Z</time></trkpt><trkpt lat="42.5208869" lon="14.1507144"><ele>2.0</ele><time>2026-05-02T06:18:41.15Z</time></trkpt><trkpt lat="42.520837" lon="14.1505645"><ele>2.0</ele><time>2026-05-02T06:18:42.151Z</time></trkpt><trkpt lat="42.5207827" lon="14.1504113"><ele>2.0</ele><time>2026-05-02T06:18:43.15Z</time></trkpt><trkpt lat="42.5207281" lon="14.1502499"><ele>2.0</ele><time>2026-05-02T06:18:44.15Z</time></trkpt><trkpt lat="42.5206738" lon="14.1500878"><ele>2.0</ele><time>2026-05-02T06:18:45.15Z</time></trkpt><trkpt lat="42.5206179" lon="14.1499289"><ele>2.0</ele><time>2026-05-02T06:18:46.151Z</time></trkpt><trkpt lat="42.5205591" lon="14.149765"><ele>2.0</ele><time>2026-05-02T06:18:47.15Z</time></trkpt><trkpt lat="42.5205057" lon="14.1496027"><ele>2.0</ele><time>2026-05-02T06:18:48.15Z</time></trkpt><trkpt lat="42.5204468" lon="14.1494325"><ele>2.0</ele><time>2026-05-02T06:18:49.152Z</time></trkpt><trkpt lat="42.5203901" lon="14.1492644"><ele>2.0</ele><time>2026-05-02T06:18:50.15Z</time></trkpt><trkpt lat="42.5203296" lon="14.14909"><ele>2.0</ele><time>2026-05-02T06:18:51.151Z</time></trkpt><trkpt lat="42.5202681" lon="14.1489196"><ele>2.0</ele><time>2026-05-02T06:18:52.151Z</time></trkpt><trkpt lat="42.520211" lon="14.1487435"><ele>2.0</ele><time>2026-05-02T06:18:53.151Z</time></trkpt><trkpt lat="42.5201546" lon="14.148569"><ele>2.0</ele><time>2026-05-02T06:18:54.15Z</time></trkpt><trkpt lat="42.5200948" lon="14.1484088"><ele>2.0</ele><time>2026-05-02T06:18:55.15Z</time></trkpt><trkpt lat="42.5200282" lon="14.148248"><ele>1.5</ele><time>2026-05-02T06:18:56.151Z</time></trkpt><trkpt lat="42.5199507" lon="14.1480892"><ele>1.0</ele><time>2026-05-02T06:18:57.151Z</time></trkpt><trkpt lat="42.5198686" lon="14.1479331"><ele>0.5</ele><time>2026-05-02T06:18:58.151Z</time></trkpt><trkpt lat="42.5197848" lon="14.1477922"><ele>0.0</ele><time>2026-05-02T06:18:59.151Z</time></trkpt><trkpt lat="42.5197027" lon="14.1476653"><ele>0.0</ele><time>2026-05-02T06:19:00.151Z</time></trkpt><trkpt lat="42.51963" lon="14.1475444"><ele>0.0</ele><time>2026-05-02T06:19:01.151Z</time></trkpt><trkpt lat="42.5195676" lon="14.1474274"><ele>0.0</ele><time>2026-05-02T06:19:02.151Z</time></trkpt><trkpt lat="42.5195183" lon="14.1473026"><ele>0.0</ele><time>2026-05-02T06:19:03.152Z</time></trkpt><trkpt lat="42.5194905" lon="14.1471693"><ele>0.0</ele><time>2026-05-02T06:19:04.152Z</time></trkpt><trkpt lat="42.5194689" lon="14.1470445"><ele>0.6</ele><time>2026-05-02T06:19:05.15Z</time></trkpt><trkpt lat="42.5194457" lon="14.1468893"><ele>1.2</ele><time>2026-05-02T06:19:06.151Z</time></trkpt><trkpt lat="42.5194586" lon="14.1467465"><ele>1.7999999999999998</ele><time>2026-05-02T06:19:07.151Z</time></trkpt><trkpt lat="42.5194731" lon="14.1466155"><ele>2.4</ele><time>2026-05-02T06:19:08.151Z</time></trkpt><trkpt lat="42.5194897" lon="14.1464858"><ele>3.0</ele><time>2026-05-02T06:19:09.15Z</time></trkpt><trkpt lat="42.5195189" lon="14.1464045"><ele>3.0</ele><time>2026-05-02T06:19:10.15Z</time></trkpt><trkpt lat="42.5195444" lon="14.146325"><ele>3.0</ele><time>2026-05-02T06:19:11.152Z</time></trkpt><trkpt lat="42.5196001" lon="14.146198"><ele>3.0</ele><time>2026-05-02T06:19:13.151Z</time></trkpt><trkpt lat="42.5196551" lon="14.1460832"><ele>3.0</ele><time>2026-05-02T06:19:15.151Z</time></trkpt><trkpt lat="42.5196726" lon="14.145977"><ele>3.0</ele><time>2026-05-02T06:19:17.151Z</time></trkpt><trkpt lat="42.5196072" lon="14.1458807"><ele>3.0</ele><time>2026-05-02T06:19:19.151Z</time></trkpt><trkpt lat="42.5195561" lon="14.1458249"><ele>3.0</ele><time>2026-05-02T06:19:20.151Z</time></trkpt><trkpt lat="42.5194403" lon="14.1457756"><ele>3.0</ele><time>2026-05-02T06:19:21.15Z</time></trkpt><trkpt lat="42.5193238" lon="14.1456999"><ele>3.0</ele><time>2026-05-02T06:19:22.15Z</time></trkpt><trkpt lat="42.5192005" lon="14.1456174"><ele>3.0</ele><time>2026-05-02T06:19:23.15Z</time></trkpt><trkpt lat="42.519084" lon="14.1455365"><ele>3.0</ele><time>2026-05-02T06:19:24.15Z</time></trkpt><trkpt lat="42.5189538" lon="14.1454452"><ele>3.0</ele><time>2026-05-02T06:19:25.151Z</time></trkpt><trkpt lat="42.5188201" lon="14.1453501"><ele>3.0</ele><time>2026-05-02T06:19:26.152Z</time></trkpt><trkpt lat="42.5186847" lon="14.1452495"><ele>3.0</ele><time>2026-05-02T06:19:27.15Z</time></trkpt><trkpt lat="42.5185452" lon="14.145145"><ele>3.0</ele><time>2026-05-02T06:19:28.15Z</time></trkpt><trkpt lat="42.5183978" lon="14.1450401"><ele>3.0</ele><time>2026-05-02T06:19:29.15Z</time></trkpt><trkpt lat="42.5182517" lon="14.1449338"><ele>3.0</ele><time>2026-05-02T06:19:30.15Z</time></trkpt><trkpt lat="42.5181055" lon="14.1448298"><ele>3.0</ele><time>2026-05-02T06:19:31.151Z</time></trkpt><trkpt lat="42.5179597" lon="14.1447285"><ele>3.0</ele><time>2026-05-02T06:19:32.15Z</time></trkpt><trkpt lat="42.5178146" lon="14.1446291"><ele>3.0</ele><time>2026-05-02T06:19:33.15Z</time></trkpt><trkpt lat="42.5176736" lon="14.1445254"><ele>3.0</ele><time>2026-05-02T06:19:34.151Z</time></trkpt><trkpt lat="42.517527" lon="14.1444183"><ele>3.0</ele><time>2026-05-02T06:19:35.151Z</time></trkpt><trkpt lat="42.5173784" lon="14.1443127"><ele>3.0</ele><time>2026-05-02T06:19:36.151Z</time></trkpt><trkpt lat="42.5172316" lon="14.144204"><ele>3.0</ele><time>2026-05-02T06:19:37.151Z</time></trkpt><trkpt lat="42.5170852" lon="14.1440964"><ele>3.0</ele><time>2026-05-02T06:19:38.15Z</time></trkpt><trkpt lat="42.5169374" lon="14.1439881"><ele>4.0</ele><time>2026-05-02T06:19:39.151Z</time></trkpt><trkpt lat="42.5167895" lon="14.14388"><ele>5.0</ele><time>2026-05-02T06:19:40.15Z</time></trkpt><trkpt lat="42.516648" lon="14.1437763"><ele>6.0</ele><time>2026-05-02T06:19:41.151Z</time></trkpt><trkpt lat="42.5165125" lon="14.1436808"><ele>6.0</ele><time>2026-05-02T06:19:42.15Z</time></trkpt><trkpt lat="42.5163836" lon="14.1435879"><ele>6.0</ele><time>2026-05-02T06:19:43.15Z</time></trkpt><trkpt lat="42.5162569" lon="14.1434984"><ele>6.0</ele><time>2026-05-02T06:19:44.15Z</time></trkpt><trkpt lat="42.5161302" lon="14.1434104"><ele>6.0</ele><time>2026-05-02T06:19:45.15Z</time></trkpt><trkpt lat="42.5160048" lon="14.1433211"><ele>5.5</ele><time>2026-05-02T06:19:46.15Z</time></trkpt><trkpt lat="42.5158883" lon="14.1432395"><ele>5.0</ele><time>2026-05-02T06:19:47.15Z</time></trkpt><trkpt lat="42.5157694" lon="14.1431581"><ele>4.5</ele><time>2026-05-02T06:19:48.151Z</time></trkpt><trkpt lat="42.5156503" lon="14.1430746"><ele>4.0</ele><time>2026-05-02T06:19:49.151Z</time></trkpt><trkpt lat="42.5155484" lon="14.1429986"><ele>3.8000000000000003</ele><time>2026-05-02T06:19:50.151Z</time></trkpt><trkpt lat="42.5154509" lon="14.1429352"><ele>3.6000000000000005</ele><time>2026-05-02T06:19:51.151Z</time></trkpt><trkpt lat="42.5153563" lon="14.1428734"><ele>3.4</ele><time>2026-05-02T06:19:52.15Z</time></trkpt><trkpt lat="42.5152664" lon="14.1428122"><ele>3.2</ele><time>2026-05-02T06:19:53.149Z</time></trkpt><trkpt lat="42.5151815" lon="14.142752"><ele>3.0</ele><time>2026-05-02T06:19:54.15Z</time></trkpt><trkpt lat="42.5150987" lon="14.1426899"><ele>2.8333333333333335</ele><time>2026-05-02T06:19:55.149Z</time></trkpt><trkpt lat="42.5150181" lon="14.142629"><ele>2.6666666666666665</ele><time>2026-05-02T06:19:56.15Z</time></trkpt><trkpt lat="42.5149386" lon="14.1425669"><ele>2.5</ele><time>2026-05-02T06:19:57.15Z</time></trkpt><trkpt lat="42.5148656" lon="14.1425104"><ele>2.333333333333333</ele><time>2026-05-02T06:19:58.15Z</time></trkpt><trkpt lat="42.5147954" lon="14.1424606"><ele>2.1666666666666665</ele><time>2026-05-02T06:19:59.15Z</time></trkpt><trkpt lat="42.5147319" lon="14.1424105"><ele>2.0</ele><time>2026-05-02T06:20:00.15Z</time></trkpt><trkpt lat="42.5146757" lon="14.1423687"><ele>1.8</ele><time>2026-05-02T06:20:01.151Z</time></trkpt><trkpt lat="42.5145745" lon="14.1423051"><ele>1.6</ele><time>2026-05-02T06:20:03.149Z</time></trkpt><trkpt lat="42.5145167" lon="14.1422607"><ele>1.4000000000000001</ele><time>2026-05-02T06:20:04.151Z</time></trkpt><trkpt lat="42.5144487" lon="14.1422083"><ele>1.2000000000000002</ele><time>2026-05-02T06:20:05.15Z</time></trkpt><trkpt lat="42.5143719" lon="14.1421411"><ele>1.0</ele><time>2026-05-02T06:20:06.15Z</time></trkpt><trkpt lat="42.5142832" lon="14.1420685"><ele>1.5</ele><time>2026-05-02T06:20:07.15Z</time></trkpt><trkpt lat="42.5141836" lon="14.1419889"><ele>2.0</ele><time>2026-05-02T06:20:08.149Z</time></trkpt><trkpt lat="42.5140727" lon="14.1419103"><ele>2.5</ele><time>2026-05-02T06:20:09.149Z</time></trkpt><trkpt lat="42.5139497" lon="14.1418227"><ele>3.0</ele><time>2026-05-02T06:20:10.149Z</time></trkpt><trkpt lat="42.5138193" lon="14.1417318"><ele>3.75</ele><time>2026-05-02T06:20:11.151Z</time></trkpt><trkpt lat="42.5136841" lon="14.1416308"><ele>4.5</ele><time>2026-05-02T06:20:12.15Z</time></trkpt><trkpt lat="42.513553" lon="14.141538"><ele>5.25</ele><time>2026-05-02T06:20:13.149Z</time></trkpt><trkpt lat="42.5134347" lon="14.141458"><ele>6.0</ele><time>2026-05-02T06:20:14.15Z</time></trkpt><trkpt lat="42.5133221" lon="14.1413797"><ele>6.0</ele><time>2026-05-02T06:20:15.149Z</time></trkpt><trkpt lat="42.5132162" lon="14.1412976"><ele>6.0</ele><time>2026-05-02T06:20:16.149Z</time></trkpt><trkpt lat="42.5131249" lon="14.1412106"><ele>6.0</ele><time>2026-05-02T06:20:17.149Z</time></trkpt><trkpt lat="42.5130435" lon="14.1411115"><ele>6.0</ele><time>2026-05-02T06:20:18.149Z</time></trkpt><trkpt lat="42.5129706" lon="14.1409903"><ele>6.0</ele><time>2026-05-02T06:20:19.15Z</time></trkpt><trkpt lat="42.5129117" lon="14.1408502"><ele>6.0</ele><time>2026-05-02T06:20:20.15Z</time></trkpt><trkpt lat="42.5128725" lon="14.1406965"><ele>6.0</ele><time>2026-05-02T06:20:21.149Z</time></trkpt><trkpt lat="42.5128512" lon="14.140543"><ele>6.0</ele><time>2026-05-02T06:20:22.149Z</time></trkpt><trkpt lat="42.5128536" lon="14.1403859"><ele>6.0</ele><time>2026-05-02T06:20:23.149Z</time></trkpt><trkpt lat="42.5128778" lon="14.1402259"><ele>6.0</ele><time>2026-05-02T06:20:24.149Z</time></trkpt><trkpt lat="42.5129241" lon="14.1400574"><ele>6.0</ele><time>2026-05-02T06:20:25.151Z</time></trkpt><trkpt lat="42.512983" lon="14.1398864"><ele>6.0</ele><time>2026-05-02T06:20:26.149Z</time></trkpt><trkpt lat="42.5130482" lon="14.1397134"><ele>6.333333333333334</ele><time>2026-05-02T06:20:27.149Z</time></trkpt><trkpt lat="42.5131154" lon="14.1395334"><ele>6.666666666666667</ele><time>2026-05-02T06:20:28.15Z</time></trkpt><trkpt lat="42.5131866" lon="14.1393456"><ele>7.0</ele><time>2026-05-02T06:20:29.149Z</time></trkpt><trkpt lat="42.5132586" lon="14.1391572"><ele>6.5</ele><time>2026-05-02T06:20:30.149Z</time></trkpt><trkpt lat="42.5133279" lon="14.138977"><ele>6.0</ele><time>2026-05-02T06:20:31.149Z</time></trkpt><trkpt lat="42.5133936" lon="14.1388009"><ele>5.5</ele><time>2026-05-02T06:20:32.149Z</time></trkpt><trkpt lat="42.5134565" lon="14.1386358"><ele>5.0</ele><time>2026-05-02T06:20:33.15Z</time></trkpt><trkpt lat="42.513513" lon="14.1384839"><ele>5.0</ele><time>2026-05-02T06:20:34.15Z</time></trkpt><trkpt lat="42.5135654" lon="14.138345"><ele>5.0</ele><time>2026-05-02T06:20:35.15Z</time></trkpt><trkpt lat="42.5136176" lon="14.1382151"><ele>5.0</ele><time>2026-05-02T06:20:36.15Z</time></trkpt><trkpt lat="42.5136657" lon="14.138096"><ele>5.0</ele><time>2026-05-02T06:20:37.15Z</time></trkpt><trkpt lat="42.513708" lon="14.1379848"><ele>5.0</ele><time>2026-05-02T06:20:38.15Z</time></trkpt><trkpt lat="42.5137438" lon="14.137882"><ele>5.2</ele><time>2026-05-02T06:20:39.149Z</time></trkpt><trkpt lat="42.5137809" lon="14.137799"><ele>5.4</ele><time>2026-05-02T06:20:40.149Z</time></trkpt><trkpt lat="42.5138619" lon="14.1376665"><ele>5.6</ele><time>2026-05-02T06:20:42.149Z</time></trkpt><trkpt lat="42.5139127" lon="14.13753"><ele>5.8</ele><time>2026-05-02T06:20:44.15Z</time></trkpt><trkpt lat="42.5138739" lon="14.1374174"><ele>6.0</ele><time>2026-05-02T06:20:46.149Z</time></trkpt><trkpt lat="42.5137641" lon="14.137314"><ele>5.6</ele><time>2026-05-02T06:20:48.15Z</time></trkpt><trkpt lat="42.5137053" lon="14.1372408"><ele>5.199999999999999</ele><time>2026-05-02T06:20:49.151Z</time></trkpt><trkpt lat="42.5136464" lon="14.137136"><ele>4.800000000000001</ele><time>2026-05-02T06:20:50.15Z</time></trkpt><trkpt lat="42.5135915" lon="14.1370079"><ele>4.4</ele><time>2026-05-02T06:20:51.15Z</time></trkpt><trkpt lat="42.5135428" lon="14.1368635"><ele>4.0</ele><time>2026-05-02T06:20:52.149Z</time></trkpt><trkpt lat="42.5134962" lon="14.1367026"><ele>3.75</ele><time>2026-05-02T06:20:53.15Z</time></trkpt><trkpt lat="42.5134536" lon="14.1365393"><ele>3.5</ele><time>2026-05-02T06:20:54.15Z</time></trkpt><trkpt lat="42.5134134" lon="14.1363737"><ele>3.25</ele><time>2026-05-02T06:20:55.15Z</time></trkpt><trkpt lat="42.5133822" lon="14.1362164"><ele>3.0</ele><time>2026-05-02T06:20:56.151Z</time></trkpt><trkpt lat="42.513344" lon="14.1360614"><ele>3.0</ele><time>2026-05-02T06:20:57.15Z</time></trkpt><trkpt lat="42.513295" lon="14.1359028"><ele>3.0</ele><time>2026-05-02T06:20:58.15Z</time></trkpt><trkpt lat="42.5132338" lon="14.1357477"><ele>3.0</ele><time>2026-05-02T06:20:59.149Z</time></trkpt><trkpt lat="42.5131613" lon="14.1355961"><ele>3.0</ele><time>2026-05-02T06:21:00.15Z</time></trkpt><trkpt lat="42.5130802" lon="14.1354537"><ele>3.0</ele><time>2026-05-02T06:21:01.15Z</time></trkpt><trkpt lat="42.5129878" lon="14.1353216"><ele>3.0</ele><time>2026-05-02T06:21:02.15Z</time></trkpt><trkpt lat="42.512887" lon="14.1352087"><ele>3.0</ele><time>2026-05-02T06:21:03.15Z</time></trkpt><trkpt lat="42.5127791" lon="14.1351069"><ele>3.0</ele><time>2026-05-02T06:21:04.15Z</time></trkpt><trkpt lat="42.5126688" lon="14.1350135"><ele>3.0</ele><time>2026-05-02T06:21:05.15Z</time></trkpt><trkpt lat="42.5125513" lon="14.1349286"><ele>3.0</ele><time>2026-05-02T06:21:06.149Z</time></trkpt><trkpt lat="42.5124342" lon="14.1348505"><ele>3.0</ele><time>2026-05-02T06:21:07.149Z</time></trkpt><trkpt lat="42.5123137" lon="14.1347719"><ele>3.0</ele><time>2026-05-02T06:21:08.149Z</time></trkpt><trkpt lat="42.512191" lon="14.1346851"><ele>3.5</ele><time>2026-05-02T06:21:09.15Z</time></trkpt><trkpt lat="42.5120697" lon="14.134598"><ele>4.0</ele><time>2026-05-02T06:21:10.15Z</time></trkpt><trkpt lat="42.5119514" lon="14.1344989"><ele>4.5</ele><time>2026-05-02T06:21:11.15Z</time></trkpt><trkpt lat="42.5118394" lon="14.1343891"><ele>5.0</ele><time>2026-05-02T06:21:12.15Z</time></trkpt><trkpt lat="42.5117339" lon="14.1342636"><ele>5.0</ele><time>2026-05-02T06:21:13.15Z</time></trkpt><trkpt lat="42.5116462" lon="14.134122"><ele>5.0</ele><time>2026-05-02T06:21:14.15Z</time></trkpt><trkpt lat="42.511572" lon="14.1339693"><ele>5.0</ele><time>2026-05-02T06:21:15.151Z</time></trkpt><trkpt lat="42.5114992" lon="14.1338136"><ele>5.0</ele><time>2026-05-02T06:21:16.15Z</time></trkpt><trkpt lat="42.5114189" lon="14.1336556"><ele>5.0</ele><time>2026-05-02T06:21:17.149Z</time></trkpt><trkpt lat="42.5113323" lon="14.1335024"><ele>5.0</ele><time>2026-05-02T06:21:18.149Z</time></trkpt><trkpt lat="42.5112408" lon="14.1333521"><ele>5.0</ele><time>2026-05-02T06:21:19.15Z</time></trkpt><trkpt lat="42.5111431" lon="14.133201"><ele>5.0</ele><time>2026-05-02T06:21:20.15Z</time></trkpt><trkpt lat="42.5110417" lon="14.1330401"><ele>5.333333333333334</ele><time>2026-05-02T06:21:21.151Z</time></trkpt><trkpt lat="42.5109395" lon="14.132862"><ele>5.666666666666667</ele><time>2026-05-02T06:21:22.15Z</time></trkpt><trkpt lat="42.510828" lon="14.1326666"><ele>6.0</ele><time>2026-05-02T06:21:23.149Z</time></trkpt><trkpt lat="42.5107133" lon="14.1324619"><ele>6.0</ele><time>2026-05-02T06:21:24.149Z</time></trkpt><trkpt lat="42.5105958" lon="14.132245"><ele>6.0</ele><time>2026-05-02T06:21:25.149Z</time></trkpt><trkpt lat="42.5104796" lon="14.1320206"><ele>6.0</ele><time>2026-05-02T06:21:26.15Z</time></trkpt><trkpt lat="42.5103608" lon="14.1317974"><ele>6.0</ele><time>2026-05-02T06:21:27.15Z</time></trkpt><trkpt lat="42.5102469" lon="14.131578"><ele>6.0</ele><time>2026-05-02T06:21:28.15Z</time></trkpt><trkpt lat="42.5101322" lon="14.1313746"><ele>6.0</ele><time>2026-05-02T06:21:29.149Z</time></trkpt><trkpt lat="42.5100232" lon="14.1311874"><ele>5.666666666666667</ele><time>2026-05-02T06:21:30.149Z</time></trkpt><trkpt lat="42.509918" lon="14.1310205"><ele>5.333333333333334</ele><time>2026-05-02T06:21:31.149Z</time></trkpt><trkpt lat="42.5098137" lon="14.1308694"><ele>5.0</ele><time>2026-05-02T06:21:32.15Z</time></trkpt><trkpt lat="42.5097097" lon="14.1307131"><ele>5.5</ele><time>2026-05-02T06:21:33.15Z</time></trkpt><trkpt lat="42.5096081" lon="14.1305542"><ele>6.0</ele><time>2026-05-02T06:21:34.15Z</time></trkpt><trkpt lat="42.5095127" lon="14.1304131"><ele>6.5</ele><time>2026-05-02T06:21:35.149Z</time></trkpt><trkpt lat="42.509424" lon="14.1302891"><ele>7.0</ele><time>2026-05-02T06:21:36.149Z</time></trkpt><trkpt lat="42.5093478" lon="14.1301773"><ele>7.000000000000001</ele><time>2026-05-02T06:21:37.149Z</time></trkpt><trkpt lat="42.5092792" lon="14.1300771"><ele>7.0</ele><time>2026-05-02T06:21:38.149Z</time></trkpt><trkpt lat="42.5092162" lon="14.1299825"><ele>7.0</ele><time>2026-05-02T06:21:39.15Z</time></trkpt><trkpt lat="42.509158" lon="14.129894"><ele>7.0</ele><time>2026-05-02T06:21:40.149Z</time></trkpt><trkpt lat="42.5091152" lon="14.1298074"><ele>7.000000000000001</ele><time>2026-05-02T06:21:41.149Z</time></trkpt><trkpt lat="42.5090893" lon="14.129715"><ele>7.0</ele><time>2026-05-02T06:21:42.149Z</time></trkpt><trkpt lat="42.5090739" lon="14.1296182"><ele>6.833333333333334</ele><time>2026-05-02T06:21:43.149Z</time></trkpt><trkpt lat="42.5090469" lon="14.1295211"><ele>6.666666666666667</ele><time>2026-05-02T06:21:44.15Z</time></trkpt><trkpt lat="42.5090034" lon="14.1294366"><ele>6.5</ele><time>2026-05-02T06:21:45.149Z</time></trkpt><trkpt lat="42.5089375" lon="14.1293657"><ele>6.333333333333334</ele><time>2026-05-02T06:21:46.15Z</time></trkpt><trkpt lat="42.5088545" lon="14.1292977"><ele>6.166666666666667</ele><time>2026-05-02T06:21:47.15Z</time></trkpt><trkpt lat="42.5087703" lon="14.1292099"><ele>6.0</ele><time>2026-05-02T06:21:48.149Z</time></trkpt><trkpt lat="42.5086936" lon="14.1290938"><ele>6.0</ele><time>2026-05-02T06:21:49.15Z</time></trkpt><trkpt lat="42.5086108" lon="14.1289616"><ele>6.0</ele><time>2026-05-02T06:21:50.149Z</time></trkpt><trkpt lat="42.5085276" lon="14.1288189"><ele>6.0</ele><time>2026-05-02T06:21:51.15Z</time></trkpt><trkpt lat="42.50844" lon="14.1286643"><ele>6.0</ele><time>2026-05-02T06:21:52.15Z</time></trkpt><trkpt lat="42.5083436" lon="14.1284921"><ele>6.0</ele><time>2026-05-02T06:21:53.149Z</time></trkpt><trkpt lat="42.5082359" lon="14.1283056"><ele>6.0</ele><time>2026-05-02T06:21:54.15Z</time></trkpt><trkpt lat="42.5081208" lon="14.1281004"><ele>6.0</ele><time>2026-05-02T06:21:55.15Z</time></trkpt><trkpt lat="42.5079956" lon="14.1278795"><ele>6.333333333333334</ele><time>2026-05-02T06:21:56.149Z</time></trkpt><trkpt lat="42.5078736" lon="14.1276588"><ele>6.666666666666667</ele><time>2026-05-02T06:21:57.149Z</time></trkpt><trkpt lat="42.507751" lon="14.127432"><ele>7.0</ele><time>2026-05-02T06:21:58.149Z</time></trkpt><trkpt lat="42.5076254" lon="14.1272111"><ele>7.333333333333334</ele><time>2026-05-02T06:21:59.149Z</time></trkpt><trkpt lat="42.5075041" lon="14.1269914"><ele>7.666666666666666</ele><time>2026-05-02T06:22:00.15Z</time></trkpt><trkpt lat="42.5073796" lon="14.1267723"><ele>8.0</ele><time>2026-05-02T06:22:01.149Z</time></trkpt><trkpt lat="42.5072607" lon="14.1265614"><ele>7.666666666666666</ele><time>2026-05-02T06:22:02.15Z</time></trkpt><trkpt lat="42.5071368" lon="14.1263517"><ele>7.333333333333334</ele><time>2026-05-02T06:22:03.15Z</time></trkpt><trkpt lat="42.5070127" lon="14.1261438"><ele>7.0</ele><time>2026-05-02T06:22:04.149Z</time></trkpt><trkpt lat="42.5068888" lon="14.1259378"><ele>7.0</ele><time>2026-05-02T06:22:05.15Z</time></trkpt><trkpt lat="42.5067593" lon="14.1257354"><ele>7.0</ele><time>2026-05-02T06:22:06.149Z</time></trkpt><trkpt lat="42.5066282" lon="14.1255388"><ele>7.0</ele><time>2026-05-02T06:22:07.149Z</time></trkpt><trkpt lat="42.5064941" lon="14.1253463"><ele>7.333333333333334</ele><time>2026-05-02T06:22:08.149Z</time></trkpt><trkpt lat="42.5063579" lon="14.1251566"><ele>7.666666666666666</ele><time>2026-05-02T06:22:09.15Z</time></trkpt><trkpt lat="42.5062165" lon="14.1249706"><ele>8.0</ele><time>2026-05-02T06:22:10.15Z</time></trkpt><trkpt lat="42.5060693" lon="14.1247908"><ele>8.333333333333332</ele><time>2026-05-02T06:22:11.149Z</time></trkpt><trkpt lat="42.5059182" lon="14.1246136"><ele>8.666666666666666</ele><time>2026-05-02T06:22:12.149Z</time></trkpt><trkpt lat="42.5057623" lon="14.1244426"><ele>9.0</ele><time>2026-05-02T06:22:13.15Z</time></trkpt><trkpt lat="42.5056038" lon="14.1242709"><ele>9.0</ele><time>2026-05-02T06:22:14.149Z</time></trkpt><trkpt lat="42.505444" lon="14.1241013"><ele>9.0</ele><time>2026-05-02T06:22:15.149Z</time></trkpt><trkpt lat="42.5052786" lon="14.1239361"><ele>9.0</ele><time>2026-05-02T06:22:16.149Z</time></trkpt><trkpt lat="42.5051157" lon="14.1237778"><ele>8.333333333333334</ele><time>2026-05-02T06:22:17.15Z</time></trkpt><trkpt lat="42.5049513" lon="14.123624"><ele>7.666666666666667</ele><time>2026-05-02T06:22:18.149Z</time></trkpt><trkpt lat="42.5047961" lon="14.1234809"><ele>7.0</ele><time>2026-05-02T06:22:19.149Z</time></trkpt><trkpt lat="42.5046474" lon="14.1233466"><ele>8.0</ele><time>2026-05-02T06:22:20.149Z</time></trkpt><trkpt lat="42.5045077" lon="14.1232191"><ele>9.0</ele><time>2026-05-02T06:22:21.149Z</time></trkpt><trkpt lat="42.5043695" lon="14.1230884"><ele>10.0</ele><time>2026-05-02T06:22:22.149Z</time></trkpt><trkpt lat="42.5042353" lon="14.1229626"><ele>10.0</ele><time>2026-05-02T06:22:23.15Z</time></trkpt><trkpt lat="42.5041028" lon="14.1228358"><ele>10.0</ele><time>2026-05-02T06:22:24.15Z</time></trkpt><trkpt lat="42.5039692" lon="14.1227126"><ele>10.0</ele><time>2026-05-02T06:22:25.149Z</time></trkpt><trkpt lat="42.5038292" lon="14.1225887"><ele>10.0</ele><time>2026-05-02T06:22:26.149Z</time></trkpt><trkpt lat="42.5036827" lon="14.1224583"><ele>10.0</ele><time>2026-05-02T06:22:27.15Z</time></trkpt><trkpt lat="42.5035393" lon="14.12233"><ele>10.0</ele><time>2026-05-02T06:22:28.15Z</time></trkpt><trkpt lat="42.5034031" lon="14.1222032"><ele>9.75</ele><time>2026-05-02T06:22:29.15Z</time></trkpt><trkpt lat="42.5032831" lon="14.122091"><ele>9.5</ele><time>2026-05-02T06:22:30.149Z</time></trkpt><trkpt lat="42.5031772" lon="14.121997"><ele>9.25</ele><time>2026-05-02T06:22:31.15Z</time></trkpt><trkpt lat="42.5030895" lon="14.1219141"><ele>9.0</ele><time>2026-05-02T06:22:32.149Z</time></trkpt><trkpt lat="42.5030143" lon="14.1218419"><ele>9.0</ele><time>2026-05-02T06:22:33.15Z</time></trkpt><trkpt lat="42.502952" lon="14.1217796"><ele>9.0</ele><time>2026-05-02T06:22:34.149Z</time></trkpt><trkpt lat="42.5029033" lon="14.121711"><ele>9.0</ele><time>2026-05-02T06:22:35.15Z</time></trkpt><trkpt lat="42.5028633" lon="14.1216253"><ele>9.0</ele><time>2026-05-02T06:22:36.149Z</time></trkpt><trkpt lat="42.5028272" lon="14.1215231"><ele>9.0</ele><time>2026-05-02T06:22:37.149Z</time></trkpt><trkpt lat="42.5027816" lon="14.1214256"><ele>9.0</ele><time>2026-05-02T06:22:38.15Z</time></trkpt><trkpt lat="42.5027228" lon="14.1213554"><ele>8.8</ele><time>2026-05-02T06:22:39.15Z</time></trkpt><trkpt lat="42.5026472" lon="14.1213152"><ele>8.600000000000001</ele><time>2026-05-02T06:22:40.15Z</time></trkpt><trkpt lat="42.50256" lon="14.1213078"><ele>8.4</ele><time>2026-05-02T06:22:41.149Z</time></trkpt><trkpt lat="42.502461" lon="14.12131"><ele>8.200000000000001</ele><time>2026-05-02T06:22:42.149Z</time></trkpt><trkpt lat="42.5023535" lon="14.1212869"><ele>8.0</ele><time>2026-05-02T06:22:43.15Z</time></trkpt><trkpt lat="42.5022348" lon="14.1212338"><ele>8.0</ele><time>2026-05-02T06:22:44.15Z</time></trkpt><trkpt lat="42.5020936" lon="14.1211555"><ele>8.0</ele><time>2026-05-02T06:22:45.149Z</time></trkpt><trkpt lat="42.5019363" lon="14.1210691"><ele>8.0</ele><time>2026-05-02T06:22:46.15Z</time></trkpt><trkpt lat="42.5017597" lon="14.1209772"><ele>8.666666666666666</ele><time>2026-05-02T06:22:47.149Z</time></trkpt><trkpt lat="42.5015933" lon="14.1208981"><ele>9.333333333333334</ele><time>2026-05-02T06:22:48.149Z</time></trkpt><trkpt lat="42.5014386" lon="14.1208382"><ele>10.0</ele><time>2026-05-02T06:22:49.15Z</time></trkpt><trkpt lat="42.501297" lon="14.1207904"><ele>10.0</ele><time>2026-05-02T06:22:50.15Z</time></trkpt><trkpt lat="42.5011627" lon="14.1207408"><ele>10.0</ele><time>2026-05-02T06:22:51.149Z</time></trkpt><trkpt lat="42.5010295" lon="14.1206839"><ele>10.0</ele><time>2026-05-02T06:22:52.15Z</time></trkpt><trkpt lat="42.5008976" lon="14.1206166"><ele>10.0</ele><time>2026-05-02T06:22:53.15Z</time></trkpt><trkpt lat="42.5007678" lon="14.1205363"><ele>10.25</ele><time>2026-05-02T06:22:54.149Z</time></trkpt><trkpt lat="42.5006364" lon="14.1204471"><ele>10.5</ele><time>2026-05-02T06:22:55.15Z</time></trkpt><trkpt lat="42.5005037" lon="14.1203634"><ele>10.75</ele><time>2026-05-02T06:22:56.15Z</time></trkpt><trkpt lat="42.5003838" lon="14.1202857"><ele>11.0</ele><time>2026-05-02T06:22:57.15Z</time></trkpt><trkpt lat="42.5002828" lon="14.1202202"><ele>11.600000000000001</ele><time>2026-05-02T06:22:58.15Z</time></trkpt><trkpt lat="42.5001834" lon="14.1201529"><ele>12.2</ele><time>2026-05-02T06:22:59.149Z</time></trkpt><trkpt lat="42.5000889" lon="14.1200819"><ele>12.799999999999999</ele><time>2026-05-02T06:23:00.149Z</time></trkpt><trkpt lat="42.5000077" lon="14.120019"><ele>13.399999999999999</ele><time>2026-05-02T06:23:01.149Z</time></trkpt><trkpt lat="42.4999314" lon="14.1199561"><ele>14.0</ele><time>2026-05-02T06:23:02.15Z</time></trkpt><trkpt lat="42.4998599" lon="14.1199046"><ele>14.166666666666668</ele><time>2026-05-02T06:23:03.15Z</time></trkpt><trkpt lat="42.4997863" lon="14.1198631"><ele>14.333333333333334</ele><time>2026-05-02T06:23:04.15Z</time></trkpt><trkpt lat="42.4997113" lon="14.119855"><ele>14.5</ele><time>2026-05-02T06:23:05.15Z</time></trkpt><trkpt lat="42.4996433" lon="14.1198904"><ele>14.666666666666668</ele><time>2026-05-02T06:23:06.149Z</time></trkpt><trkpt lat="42.4995805" lon="14.1199587"><ele>14.833333333333334</ele><time>2026-05-02T06:23:07.15Z</time></trkpt><trkpt lat="42.4995074" lon="14.1200534"><ele>15.0</ele><time>2026-05-02T06:23:08.149Z</time></trkpt><trkpt lat="42.4994249" lon="14.1201662"><ele>15.0</ele><time>2026-05-02T06:23:09.149Z</time></trkpt><trkpt lat="42.4993424" lon="14.1202879"><ele>15.0</ele><time>2026-05-02T06:23:10.149Z</time></trkpt><trkpt lat="42.499258" lon="14.1204059"><ele>15.0</ele><time>2026-05-02T06:23:11.149Z</time></trkpt><trkpt lat="42.4991696" lon="14.1205192"><ele>15.0</ele><time>2026-05-02T06:23:12.15Z</time></trkpt><trkpt lat="42.4990796" lon="14.1206312"><ele>15.0</ele><time>2026-05-02T06:23:13.149Z</time></trkpt><trkpt lat="42.4989877" lon="14.1207451"><ele>15.0</ele><time>2026-05-02T06:23:14.15Z</time></trkpt><trkpt lat="42.4988935" lon="14.1208618"><ele>15.0</ele><time>2026-05-02T06:23:15.149Z</time></trkpt><trkpt lat="42.4988048" lon="14.1209802"><ele>15.0</ele><time>2026-05-02T06:23:16.15Z</time></trkpt><trkpt lat="42.4987176" lon="14.121097"><ele>15.25</ele><time>2026-05-02T06:23:17.149Z</time></trkpt><trkpt lat="42.4986244" lon="14.1212131"><ele>15.5</ele><time>2026-05-02T06:23:18.15Z</time></trkpt><trkpt lat="42.498531" lon="14.1213288"><ele>15.75</ele><time>2026-05-02T06:23:19.149Z</time></trkpt><trkpt lat="42.4984407" lon="14.1214316"><ele>16.0</ele><time>2026-05-02T06:23:20.149Z</time></trkpt><trkpt lat="42.4983485" lon="14.1215174"><ele>15.75</ele><time>2026-05-02T06:23:21.149Z</time></trkpt><trkpt lat="42.498252" lon="14.1215851"><ele>15.5</ele><time>2026-05-02T06:23:22.15Z</time></trkpt><trkpt lat="42.4981526" lon="14.1216544"><ele>15.25</ele><time>2026-05-02T06:23:23.151Z</time></trkpt><trkpt lat="42.4980638" lon="14.1217568"><ele>15.0</ele><time>2026-05-02T06:23:24.15Z</time></trkpt><trkpt lat="42.4979787" lon="14.1218806"><ele>15.0</ele><time>2026-05-02T06:23:25.15Z</time></trkpt><trkpt lat="42.4978926" lon="14.122012"><ele>15.0</ele><time>2026-05-02T06:23:26.149Z</time></trkpt><trkpt lat="42.4978018" lon="14.1221507"><ele>15.0</ele><time>2026-05-02T06:23:27.149Z</time></trkpt><trkpt lat="42.4977083" lon="14.1222997"><ele>15.0</ele><time>2026-05-02T06:23:28.149Z</time></trkpt><trkpt lat="42.497615" lon="14.1224473"><ele>14.75</ele><time>2026-05-02T06:23:29.15Z</time></trkpt><trkpt lat="42.4975214" lon="14.1225991"><ele>14.5</ele><time>2026-05-02T06:23:30.15Z</time></trkpt><trkpt lat="42.4974265" lon="14.1227491"><ele>14.25</ele><time>2026-05-02T06:23:31.149Z</time></trkpt><trkpt lat="42.497332" lon="14.122895"><ele>14.0</ele><time>2026-05-02T06:23:32.15Z</time></trkpt><trkpt lat="42.497236" lon="14.1230394"><ele>14.0</ele><time>2026-05-02T06:23:33.15Z</time></trkpt><trkpt lat="42.4971401" lon="14.1231876"><ele>14.0</ele><time>2026-05-02T06:23:34.15Z</time></trkpt><trkpt lat="42.4970427" lon="14.1233355"><ele>14.0</ele><time>2026-05-02T06:23:35.149Z</time></trkpt><trkpt lat="42.4969471" lon="14.1234691"><ele>14.0</ele><time>2026-05-02T06:23:36.149Z</time></trkpt><trkpt lat="42.496853" lon="14.1235886"><ele>14.5</ele><time>2026-05-02T06:23:37.149Z</time></trkpt><trkpt lat="42.4967518" lon="14.123696"><ele>15.0</ele><time>2026-05-02T06:23:38.149Z</time></trkpt><trkpt lat="42.4966467" lon="14.1237956"><ele>15.5</ele><time>2026-05-02T06:23:39.149Z</time></trkpt><trkpt lat="42.4965476" lon="14.1238941"><ele>16.0</ele><time>2026-05-02T06:23:40.149Z</time></trkpt><trkpt lat="42.4964572" lon="14.1239846"><ele>16.2</ele><time>2026-05-02T06:23:41.149Z</time></trkpt><trkpt lat="42.4963749" lon="14.1240638"><ele>16.400000000000002</ele><time>2026-05-02T06:23:42.149Z</time></trkpt><trkpt lat="42.4962971" lon="14.124142"><ele>16.6</ele><time>2026-05-02T06:23:43.15Z</time></trkpt><trkpt lat="42.4962262" lon="14.1242228"><ele>16.8</ele><time>2026-05-02T06:23:44.15Z</time></trkpt><trkpt lat="42.4961577" lon="14.1242951"><ele>17.0</ele><time>2026-05-02T06:23:45.15Z</time></trkpt><trkpt lat="42.4960873" lon="14.1243581"><ele>16.666666666666668</ele><time>2026-05-02T06:23:46.15Z</time></trkpt><trkpt lat="42.4960174" lon="14.1244001"><ele>16.333333333333336</ele><time>2026-05-02T06:23:47.15Z</time></trkpt><trkpt lat="42.4959432" lon="14.1244308"><ele>16.0</ele><time>2026-05-02T06:23:48.149Z</time></trkpt><trkpt lat="42.4958691" lon="14.1244841"><ele>15.666666666666668</ele><time>2026-05-02T06:23:49.15Z</time></trkpt><trkpt lat="42.4957947" lon="14.1245307"><ele>15.333333333333334</ele><time>2026-05-02T06:23:50.149Z</time></trkpt><trkpt lat="42.4957067" lon="14.1245406"><ele>15.0</ele><time>2026-05-02T06:23:51.149Z</time></trkpt><trkpt lat="42.4956103" lon="14.1245396"><ele>15.0</ele><time>2026-05-02T06:23:52.149Z</time></trkpt><trkpt lat="42.4955057" lon="14.1245394"><ele>15.0</ele><time>2026-05-02T06:23:53.149Z</time></trkpt><trkpt lat="42.4954025" lon="14.1245462"><ele>15.0</ele><time>2026-05-02T06:23:54.15Z</time></trkpt><trkpt lat="42.495313" lon="14.1245444"><ele>15.0</ele><time>2026-05-02T06:23:55.15Z</time></trkpt><trkpt lat="42.49523" lon="14.1245469"><ele>15.0</ele><time>2026-05-02T06:23:56.15Z</time></trkpt><trkpt lat="42.4951545" lon="14.1245529"><ele>15.285714285714286</ele><time>2026-05-02T06:23:57.15Z</time></trkpt><trkpt lat="42.4950764" lon="14.1245532"><ele>15.57142857142857</ele><time>2026-05-02T06:23:58.151Z</time></trkpt><trkpt lat="42.4949914" lon="14.124556"><ele>15.857142857142856</ele><time>2026-05-02T06:23:59.151Z</time></trkpt><trkpt lat="42.4949197" lon="14.1245594"><ele>16.142857142857142</ele><time>2026-05-02T06:24:00.15Z</time></trkpt><trkpt lat="42.4948547" lon="14.1245617"><ele>16.428571428571427</ele><time>2026-05-02T06:24:01.15Z</time></trkpt><trkpt lat="42.4947847" lon="14.1245604"><ele>16.71428571428571</ele><time>2026-05-02T06:24:02.15Z</time></trkpt><trkpt lat="42.4947066" lon="14.1245597"><ele>17.0</ele><time>2026-05-02T06:24:03.15Z</time></trkpt><trkpt lat="42.4946239" lon="14.1245588"><ele>17.166666666666668</ele><time>2026-05-02T06:24:04.15Z</time></trkpt><trkpt lat="42.4945467" lon="14.1245539"><ele>17.333333333333336</ele><time>2026-05-02T06:24:05.15Z</time></trkpt><trkpt lat="42.4944749" lon="14.1245586"><ele>17.5</ele><time>2026-05-02T06:24:06.15Z</time></trkpt><trkpt lat="42.4944073" lon="14.1246004"><ele>17.666666666666668</ele><time>2026-05-02T06:24:07.15Z</time></trkpt><trkpt lat="42.4943453" lon="14.1246649"><ele>17.833333333333332</ele><time>2026-05-02T06:24:08.15Z</time></trkpt><trkpt lat="42.4942899" lon="14.1247327"><ele>18.0</ele><time>2026-05-02T06:24:09.149Z</time></trkpt><trkpt lat="42.4942327" lon="14.1248058"><ele>18.0</ele><time>2026-05-02T06:24:10.149Z</time></trkpt><trkpt lat="42.4941723" lon="14.1248907"><ele>18.0</ele><time>2026-05-02T06:24:11.149Z</time></trkpt><trkpt lat="42.4941115" lon="14.1249831"><ele>18.0</ele><time>2026-05-02T06:24:12.149Z</time></trkpt><trkpt lat="42.4940641" lon="14.1250573"><ele>18.0</ele><time>2026-05-02T06:24:13.149Z</time></trkpt><trkpt lat="42.4940118" lon="14.1251569"><ele>18.0</ele><time>2026-05-02T06:24:15.15Z</time></trkpt><trkpt lat="42.4939636" lon="14.1252481"><ele>18.0</ele><time>2026-05-02T06:24:18.151Z</time></trkpt><trkpt lat="42.4938859" lon="14.1253131"><ele>18.0</ele><time>2026-05-02T06:24:21.149Z</time></trkpt><trkpt lat="42.4937953" lon="14.1252679"><ele>18.0</ele><time>2026-05-02T06:24:23.15Z</time></trkpt><trkpt lat="42.4937338" lon="14.1252112"><ele>18.0</ele><time>2026-05-02T06:24:24.15Z</time></trkpt><trkpt lat="42.4936593" lon="14.125152"><ele>18.0</ele><time>2026-05-02T06:24:25.15Z</time></trkpt><trkpt lat="42.4935747" lon="14.1250849"><ele>18.0</ele><time>2026-05-02T06:24:26.149Z</time></trkpt><trkpt lat="42.4934798" lon="14.1250088"><ele>18.25</ele><time>2026-05-02T06:24:27.15Z</time></trkpt><trkpt lat="42.4933798" lon="14.1249254"><ele>18.5</ele><time>2026-05-02T06:24:28.149Z</time></trkpt><trkpt lat="42.4932768" lon="14.1248405"><ele>18.75</ele><time>2026-05-02T06:24:29.149Z</time></trkpt><trkpt lat="42.4931716" lon="14.1247589"><ele>19.0</ele><time>2026-05-02T06:24:30.15Z</time></trkpt><trkpt lat="42.4930727" lon="14.1246779"><ele>19.0</ele><time>2026-05-02T06:24:31.15Z</time></trkpt><trkpt lat="42.492977" lon="14.1246006"><ele>19.0</ele><time>2026-05-02T06:24:32.15Z</time></trkpt><trkpt lat="42.4928787" lon="14.1245227"><ele>19.0</ele><time>2026-05-02T06:24:33.15Z</time></trkpt><trkpt lat="42.4927854" lon="14.1244501"><ele>19.0</ele><time>2026-05-02T06:24:34.149Z</time></trkpt><trkpt lat="42.4926939" lon="14.1243734"><ele>19.0</ele><time>2026-05-02T06:24:35.15Z</time></trkpt><trkpt lat="42.4925976" lon="14.1242927"><ele>19.0</ele><time>2026-05-02T06:24:36.15Z</time></trkpt><trkpt lat="42.4924952" lon="14.1242081"><ele>19.0</ele><time>2026-05-02T06:24:37.149Z</time></trkpt><trkpt lat="42.492391" lon="14.1241215"><ele>19.0</ele><time>2026-05-02T06:24:38.15Z</time></trkpt><trkpt lat="42.4922844" lon="14.1240267"><ele>19.0</ele><time>2026-05-02T06:24:39.15Z</time></trkpt><trkpt lat="42.4921761" lon="14.1239352"><ele>19.5</ele><time>2026-05-02T06:24:40.15Z</time></trkpt><trkpt lat="42.4920625" lon="14.1238464"><ele>20.0</ele><time>2026-05-02T06:24:41.149Z</time></trkpt><trkpt lat="42.4919552" lon="14.1237614"><ele>20.5</ele><time>2026-05-02T06:24:42.149Z</time></trkpt><trkpt lat="42.4918567" lon="14.1236803"><ele>21.0</ele><time>2026-05-02T06:24:43.149Z</time></trkpt><trkpt lat="42.4917574" lon="14.1236052"><ele>21.0</ele><time>2026-05-02T06:24:44.149Z</time></trkpt><trkpt lat="42.4916622" lon="14.1235301"><ele>21.0</ele><time>2026-05-02T06:24:45.15Z</time></trkpt><trkpt lat="42.4915676" lon="14.1234534"><ele>21.0</ele><time>2026-05-02T06:24:46.15Z</time></trkpt><trkpt lat="42.4914709" lon="14.123376"><ele>21.0</ele><time>2026-05-02T06:24:47.15Z</time></trkpt><trkpt lat="42.4913786" lon="14.1233015"><ele>21.0</ele><time>2026-05-02T06:24:48.15Z</time></trkpt><trkpt lat="42.4913016" lon="14.1232383"><ele>21.333333333333332</ele><time>2026-05-02T06:24:49.149Z</time></trkpt><trkpt lat="42.4912287" lon="14.1231827"><ele>21.666666666666668</ele><time>2026-05-02T06:24:50.149Z</time></trkpt><trkpt lat="42.4911667" lon="14.1231254"><ele>22.0</ele><time>2026-05-02T06:24:51.149Z</time></trkpt><trkpt lat="42.4911042" lon="14.1230749"><ele>22.333333333333336</ele><time>2026-05-02T06:24:52.149Z</time></trkpt><trkpt lat="42.4910444" lon="14.1230255"><ele>22.666666666666668</ele><time>2026-05-02T06:24:53.149Z</time></trkpt><trkpt lat="42.4909533" lon="14.1229486"><ele>23.0</ele><time>2026-05-02T06:24:55.15Z</time></trkpt><trkpt lat="42.4908807" lon="14.1228862"><ele>23.0</ele><time>2026-05-02T06:24:57.15Z</time></trkpt><trkpt lat="42.4908025" lon="14.1228266"><ele>23.0</ele><time>2026-05-02T06:24:59.15Z</time></trkpt><trkpt lat="42.4906923" lon="14.1227381"><ele>23.0</ele><time>2026-05-02T06:25:01.15Z</time></trkpt><trkpt lat="42.4906317" lon="14.1226871"><ele>23.0</ele><time>2026-05-02T06:25:02.149Z</time></trkpt><trkpt lat="42.4905738" lon="14.1226368"><ele>23.0</ele><time>2026-05-02T06:25:03.151Z</time></trkpt><trkpt lat="42.4904763" lon="14.1225616"><ele>23.0</ele><time>2026-05-02T06:25:05.15Z</time></trkpt><trkpt lat="42.4904073" lon="14.1225093"><ele>23.0</ele><time>2026-05-02T06:25:07.15Z</time></trkpt><trkpt lat="42.4903286" lon="14.1224675"><ele>23.0</ele><time>2026-05-02T06:25:10.149Z</time></trkpt><trkpt lat="42.490308" lon="14.1223496"><ele>23.0</ele><time>2026-05-02T06:25:13.15Z</time></trkpt><trkpt lat="42.4903751" lon="14.1222091"><ele>23.0</ele><time>2026-05-02T06:25:15.149Z</time></trkpt><trkpt lat="42.4903933" lon="14.1221088"><ele>22.799999999999997</ele><time>2026-05-02T06:25:16.15Z</time></trkpt><trkpt lat="42.4904136" lon="14.122002"><ele>22.6</ele><time>2026-05-02T06:25:17.149Z</time></trkpt><trkpt lat="42.490439" lon="14.121883"><ele>22.4</ele><time>2026-05-02T06:25:18.15Z</time></trkpt><trkpt lat="42.4904734" lon="14.1217687"><ele>22.200000000000003</ele><time>2026-05-02T06:25:19.15Z</time></trkpt><trkpt lat="42.4905258" lon="14.1216499"><ele>22.0</ele><time>2026-05-02T06:25:20.149Z</time></trkpt><trkpt lat="42.4905788" lon="14.1215243"><ele>21.400000000000002</ele><time>2026-05-02T06:25:21.149Z</time></trkpt><trkpt lat="42.4906338" lon="14.1213944"><ele>20.8</ele><time>2026-05-02T06:25:22.15Z</time></trkpt><trkpt lat="42.4906895" lon="14.1212726"><ele>20.2</ele><time>2026-05-02T06:25:23.149Z</time></trkpt><trkpt lat="42.4907488" lon="14.1211426"><ele>19.6</ele><time>2026-05-02T06:25:24.149Z</time></trkpt><trkpt lat="42.4908094" lon="14.1210058"><ele>19.0</ele><time>2026-05-02T06:25:25.15Z</time></trkpt><trkpt lat="42.4908738" lon="14.120858"><ele>19.5</ele><time>2026-05-02T06:25:26.15Z</time></trkpt><trkpt lat="42.4909382" lon="14.1207096"><ele>20.0</ele><time>2026-05-02T06:25:27.149Z</time></trkpt><trkpt lat="42.4910051" lon="14.1205658"><ele>20.5</ele><time>2026-05-02T06:25:28.149Z</time></trkpt><trkpt lat="42.4910699" lon="14.120429"><ele>21.0</ele><time>2026-05-02T06:25:29.15Z</time></trkpt><trkpt lat="42.4911309" lon="14.1202901"><ele>21.0</ele><time>2026-05-02T06:25:30.15Z</time></trkpt><trkpt lat="42.4911887" lon="14.1201648"><ele>21.0</ele><time>2026-05-02T06:25:31.15Z</time></trkpt><trkpt lat="42.4912473" lon="14.1200331"><ele>21.0</ele><time>2026-05-02T06:25:32.15Z</time></trkpt><trkpt lat="42.4913056" lon="14.1198938"><ele>21.0</ele><time>2026-05-02T06:25:33.149Z</time></trkpt><trkpt lat="42.4913663" lon="14.1197445"><ele>20.75</ele><time>2026-05-02T06:25:34.149Z</time></trkpt><trkpt lat="42.4914293" lon="14.119599"><ele>20.5</ele><time>2026-05-02T06:25:35.149Z</time></trkpt><trkpt lat="42.4914928" lon="14.119454"><ele>20.25</ele><time>2026-05-02T06:25:36.149Z</time></trkpt><trkpt lat="42.4915535" lon="14.1193116"><ele>20.0</ele><time>2026-05-02T06:25:37.15Z</time></trkpt><trkpt lat="42.4916115" lon="14.1191745"><ele>19.8</ele><time>2026-05-02T06:25:38.15Z</time></trkpt><trkpt lat="42.4916695" lon="14.1190566"><ele>19.6</ele><time>2026-05-02T06:25:39.149Z</time></trkpt><trkpt lat="42.4917287" lon="14.1189445"><ele>19.4</ele><time>2026-05-02T06:25:40.149Z</time></trkpt><trkpt lat="42.4917855" lon="14.1188417"><ele>19.2</ele><time>2026-05-02T06:25:41.149Z</time></trkpt><trkpt lat="42.4918346" lon="14.1187258"><ele>19.0</ele><time>2026-05-02T06:25:42.15Z</time></trkpt><trkpt lat="42.4918846" lon="14.1186023"><ele>19.0</ele><time>2026-05-02T06:25:43.149Z</time></trkpt><trkpt lat="42.4919391" lon="14.1184639"><ele>19.0</ele><time>2026-05-02T06:25:44.15Z</time></trkpt><trkpt lat="42.4919996" lon="14.1183172"><ele>19.0</ele><time>2026-05-02T06:25:45.151Z</time></trkpt><trkpt lat="42.4920672" lon="14.1181712"><ele>19.0</ele><time>2026-05-02T06:25:46.149Z</time></trkpt><trkpt lat="42.492133" lon="14.1180257"><ele>18.8</ele><time>2026-05-02T06:25:47.149Z</time></trkpt><trkpt lat="42.4921919" lon="14.1178916"><ele>18.599999999999998</ele><time>2026-05-02T06:25:48.15Z</time></trkpt><trkpt lat="42.4922503" lon="14.1177605"><ele>18.4</ele><time>2026-05-02T06:25:49.151Z</time></trkpt><trkpt lat="42.4923069" lon="14.1176332"><ele>18.2</ele><time>2026-05-02T06:25:50.149Z</time></trkpt><trkpt lat="42.4923605" lon="14.1175177"><ele>18.0</ele><time>2026-05-02T06:25:51.149Z</time></trkpt><trkpt lat="42.4924173" lon="14.11739"><ele>18.0</ele><time>2026-05-02T06:25:52.15Z</time></trkpt><trkpt lat="42.4924769" lon="14.1172551"><ele>18.0</ele><time>2026-05-02T06:25:53.149Z</time></trkpt><trkpt lat="42.4925397" lon="14.1171152"><ele>18.0</ele><time>2026-05-02T06:25:54.149Z</time></trkpt><trkpt lat="42.4926006" lon="14.1169723"><ele>18.0</ele><time>2026-05-02T06:25:55.149Z</time></trkpt><trkpt lat="42.4926596" lon="14.1168324"><ele>18.0</ele><time>2026-05-02T06:25:56.149Z</time></trkpt><trkpt lat="42.4927222" lon="14.1166896"><ele>18.0</ele><time>2026-05-02T06:25:57.15Z</time></trkpt><trkpt lat="42.4927887" lon="14.1165439"><ele>18.0</ele><time>2026-05-02T06:25:58.15Z</time></trkpt><trkpt lat="42.4928545" lon="14.1163884"><ele>18.0</ele><time>2026-05-02T06:25:59.149Z</time></trkpt><trkpt lat="42.4929235" lon="14.1162278"><ele>18.25</ele><time>2026-05-02T06:26:00.149Z</time></trkpt><trkpt lat="42.4929972" lon="14.1160651"><ele>18.5</ele><time>2026-05-02T06:26:01.149Z</time></trkpt><trkpt lat="42.4930719" lon="14.1159023"><ele>18.75</ele><time>2026-05-02T06:26:02.15Z</time></trkpt><trkpt lat="42.4931434" lon="14.1157375"><ele>19.0</ele><time>2026-05-02T06:26:03.149Z</time></trkpt><trkpt lat="42.4932066" lon="14.1155935"><ele>19.0</ele><time>2026-05-02T06:26:04.149Z</time></trkpt><trkpt lat="42.4932606" lon="14.1154706"><ele>19.0</ele><time>2026-05-02T06:26:05.15Z</time></trkpt><trkpt lat="42.4933086" lon="14.11536"><ele>19.0</ele><time>2026-05-02T06:26:06.15Z</time></trkpt><trkpt lat="42.4933532" lon="14.1152583"><ele>19.0</ele><time>2026-05-02T06:26:07.149Z</time></trkpt><trkpt lat="42.493398" lon="14.1151634"><ele>19.0</ele><time>2026-05-02T06:26:08.151Z</time></trkpt><trkpt lat="42.4934418" lon="14.1150646"><ele>19.0</ele><time>2026-05-02T06:26:09.149Z</time></trkpt><trkpt lat="42.4934873" lon="14.1149535"><ele>19.0</ele><time>2026-05-02T06:26:10.149Z</time></trkpt><trkpt lat="42.4935387" lon="14.1148468"><ele>19.0</ele><time>2026-05-02T06:26:11.15Z</time></trkpt><trkpt lat="42.4935924" lon="14.114733"><ele>19.0</ele><time>2026-05-02T06:26:12.149Z</time></trkpt><trkpt lat="42.493637" lon="14.1146214"><ele>19.0</ele><time>2026-05-02T06:26:13.15Z</time></trkpt><trkpt lat="42.4936747" lon="14.1145163"><ele>19.0</ele><time>2026-05-02T06:26:14.149Z</time></trkpt><trkpt lat="42.4937109" lon="14.1144196"><ele>19.0</ele><time>2026-05-02T06:26:15.149Z</time></trkpt><trkpt lat="42.4937454" lon="14.1143339"><ele>19.0</ele><time>2026-05-02T06:26:16.149Z</time></trkpt><trkpt lat="42.4937841" lon="14.1142616"><ele>19.0</ele><time>2026-05-02T06:26:17.149Z</time></trkpt><trkpt lat="42.4938784" lon="14.1141806"><ele>19.0</ele><time>2026-05-02T06:26:19.15Z</time></trkpt><trkpt lat="42.493991" lon="14.1142094"><ele>19.0</ele><time>2026-05-02T06:26:21.149Z</time></trkpt><trkpt lat="42.4940669" lon="14.1142473"><ele>19.0</ele><time>2026-05-02T06:26:22.149Z</time></trkpt><trkpt lat="42.4941607" lon="14.114283"><ele>19.0</ele><time>2026-05-02T06:26:23.149Z</time></trkpt><trkpt lat="42.494257" lon="14.1143201"><ele>19.0</ele><time>2026-05-02T06:26:24.149Z</time></trkpt><trkpt lat="42.4943446" lon="14.1143602"><ele>19.0</ele><time>2026-05-02T06:26:25.149Z</time></trkpt><trkpt lat="42.4944269" lon="14.114395"><ele>19.0</ele><time>2026-05-02T06:26:26.149Z</time></trkpt><trkpt lat="42.4944989" lon="14.1144206"><ele>19.0</ele><time>2026-05-02T06:26:27.149Z</time></trkpt><trkpt lat="42.4945963" lon="14.1144123"><ele>19.0</ele><time>2026-05-02T06:26:29.15Z</time></trkpt><trkpt lat="42.4946457" lon="14.1143038"><ele>19.0</ele><time>2026-05-02T06:26:31.149Z</time></trkpt><trkpt lat="42.4946931" lon="14.114143"><ele>19.0</ele><time>2026-05-02T06:26:33.149Z</time></trkpt><trkpt lat="42.4947122" lon="14.1139841"><ele>19.0</ele><time>2026-05-02T06:26:35.148Z</time></trkpt><trkpt lat="42.4946886" lon="14.1138569"><ele>18.8</ele><time>2026-05-02T06:26:37.149Z</time></trkpt><trkpt lat="42.4945894" lon="14.1137823"><ele>18.599999999999998</ele><time>2026-05-02T06:26:39.149Z</time></trkpt><trkpt lat="42.4945099" lon="14.1137535"><ele>18.4</ele><time>2026-05-02T06:26:40.149Z</time></trkpt><trkpt lat="42.4944104" lon="14.1137201"><ele>18.2</ele><time>2026-05-02T06:26:41.149Z</time></trkpt><trkpt lat="42.4943045" lon="14.1136853"><ele>18.0</ele><time>2026-05-02T06:26:42.148Z</time></trkpt><trkpt lat="42.4941852" lon="14.1136435"><ele>17.75</ele><time>2026-05-02T06:26:43.148Z</time></trkpt><trkpt lat="42.4940665" lon="14.1135992"><ele>17.5</ele><time>2026-05-02T06:26:44.149Z</time></trkpt><trkpt lat="42.4939447" lon="14.1135553"><ele>17.25</ele><time>2026-05-02T06:26:45.149Z</time></trkpt><trkpt lat="42.4938319" lon="14.1135096"><ele>17.0</ele><time>2026-05-02T06:26:46.148Z</time></trkpt><trkpt lat="42.4937168" lon="14.113465"><ele>17.0</ele><time>2026-05-02T06:26:47.149Z</time></trkpt><trkpt lat="42.493603" lon="14.1134178"><ele>17.0</ele><time>2026-05-02T06:26:48.148Z</time></trkpt><trkpt lat="42.4934908" lon="14.1133684"><ele>17.0</ele><time>2026-05-02T06:26:49.148Z</time></trkpt><trkpt lat="42.4933808" lon="14.1133208"><ele>17.0</ele><time>2026-05-02T06:26:50.15Z</time></trkpt><trkpt lat="42.4932678" lon="14.1132721"><ele>16.75</ele><time>2026-05-02T06:26:51.15Z</time></trkpt><trkpt lat="42.4931567" lon="14.1132253"><ele>16.5</ele><time>2026-05-02T06:26:52.149Z</time></trkpt><trkpt lat="42.493046" lon="14.1131756"><ele>16.25</ele><time>2026-05-02T06:26:53.149Z</time></trkpt><trkpt lat="42.4929349" lon="14.113131"><ele>16.0</ele><time>2026-05-02T06:26:54.149Z</time></trkpt><trkpt lat="42.4928235" lon="14.1130829"><ele>16.0</ele><time>2026-05-02T06:26:55.149Z</time></trkpt><trkpt lat="42.4927142" lon="14.1130329"><ele>16.0</ele><time>2026-05-02T06:26:56.149Z</time></trkpt><trkpt lat="42.4926039" lon="14.1129854"><ele>16.0</ele><time>2026-05-02T06:26:57.148Z</time></trkpt><trkpt lat="42.4924996" lon="14.1129457"><ele>16.0</ele><time>2026-05-02T06:26:58.148Z</time></trkpt><trkpt lat="42.4923975" lon="14.1128997"><ele>16.0</ele><time>2026-05-02T06:26:59.148Z</time></trkpt><trkpt lat="42.4922873" lon="14.1128526"><ele>16.0</ele><time>2026-05-02T06:27:00.149Z</time></trkpt><trkpt lat="42.4921728" lon="14.112801"><ele>16.0</ele><time>2026-05-02T06:27:01.149Z</time></trkpt><trkpt lat="42.492057" lon="14.1127529"><ele>16.0</ele><time>2026-05-02T06:27:02.149Z</time></trkpt><trkpt lat="42.4919351" lon="14.1127091"><ele>16.0</ele><time>2026-05-02T06:27:03.149Z</time></trkpt><trkpt lat="42.4918093" lon="14.1126592"><ele>15.75</ele><time>2026-05-02T06:27:04.15Z</time></trkpt><trkpt lat="42.4916804" lon="14.1126045"><ele>15.5</ele><time>2026-05-02T06:27:05.15Z</time></trkpt><trkpt lat="42.4915487" lon="14.1125473"><ele>15.25</ele><time>2026-05-02T06:27:06.149Z</time></trkpt><trkpt lat="42.4914175" lon="14.1124928"><ele>15.0</ele><time>2026-05-02T06:27:07.148Z</time></trkpt><trkpt lat="42.4912831" lon="14.112437"><ele>15.25</ele><time>2026-05-02T06:27:08.15Z</time></trkpt><trkpt lat="42.4911567" lon="14.1123833"><ele>15.5</ele><time>2026-05-02T06:27:09.148Z</time></trkpt><trkpt lat="42.4910299" lon="14.1123238"><ele>15.75</ele><time>2026-05-02T06:27:10.149Z</time></trkpt><trkpt lat="42.4909016" lon="14.1122652"><ele>16.0</ele><time>2026-05-02T06:27:11.149Z</time></trkpt><trkpt lat="42.4907771" lon="14.112216"><ele>16.0</ele><time>2026-05-02T06:27:12.149Z</time></trkpt><trkpt lat="42.4906558" lon="14.1121663"><ele>16.0</ele><time>2026-05-02T06:27:13.149Z</time></trkpt><trkpt lat="42.4905392" lon="14.1121149"><ele>16.0</ele><time>2026-05-02T06:27:14.149Z</time></trkpt><trkpt lat="42.4904224" lon="14.1120697"><ele>16.0</ele><time>2026-05-02T06:27:15.148Z</time></trkpt><trkpt lat="42.4903057" lon="14.1120268"><ele>16.0</ele><time>2026-05-02T06:27:16.148Z</time></trkpt><trkpt lat="42.4901875" lon="14.1119862"><ele>16.0</ele><time>2026-05-02T06:27:17.148Z</time></trkpt><trkpt lat="42.4900674" lon="14.1119434"><ele>16.0</ele><time>2026-05-02T06:27:18.149Z</time></trkpt><trkpt lat="42.4899469" lon="14.1118907"><ele>16.0</ele><time>2026-05-02T06:27:19.148Z</time></trkpt><trkpt lat="42.4898238" lon="14.1118392"><ele>16.0</ele><time>2026-05-02T06:27:20.149Z</time></trkpt><trkpt lat="42.4896998" lon="14.1117886"><ele>16.0</ele><time>2026-05-02T06:27:21.149Z</time></trkpt><trkpt lat="42.4895752" lon="14.1117384"><ele>16.0</ele><time>2026-05-02T06:27:22.148Z</time></trkpt><trkpt lat="42.4894541" lon="14.1116896"><ele>16.0</ele><time>2026-05-02T06:27:23.149Z</time></trkpt><trkpt lat="42.4893325" lon="14.1116478"><ele>15.75</ele><time>2026-05-02T06:27:24.149Z</time></trkpt><trkpt lat="42.4892159" lon="14.111609"><ele>15.5</ele><time>2026-05-02T06:27:25.148Z</time></trkpt><trkpt lat="42.4891064" lon="14.1115696"><ele>15.25</ele><time>2026-05-02T06:27:26.149Z</time></trkpt><trkpt lat="42.4889925" lon="14.1115237"><ele>15.0</ele><time>2026-05-02T06:27:27.149Z</time></trkpt><trkpt lat="42.488877" lon="14.1114822"><ele>15.0</ele><time>2026-05-02T06:27:28.149Z</time></trkpt><trkpt lat="42.4887817" lon="14.111444"><ele>15.0</ele><time>2026-05-02T06:27:29.148Z</time></trkpt><trkpt lat="42.4887089" lon="14.1114128"><ele>15.0</ele><time>2026-05-02T06:27:30.149Z</time></trkpt><trkpt lat="42.488604" lon="14.1114227"><ele>15.0</ele><time>2026-05-02T06:27:32.15Z</time></trkpt><trkpt lat="42.4885408" lon="14.1115109"><ele>15.0</ele><time>2026-05-02T06:27:34.149Z</time></trkpt><trkpt lat="42.4884862" lon="14.1116441"><ele>16.0</ele><time>2026-05-02T06:27:36.148Z</time></trkpt><trkpt lat="42.4884764" lon="14.1117795"><ele>17.0</ele><time>2026-05-02T06:27:38.149Z</time></trkpt><trkpt lat="42.4884814" lon="14.1118789"><ele>18.0</ele><time>2026-05-02T06:27:40.149Z</time></trkpt><trkpt lat="42.4884791" lon="14.1119674"><ele>19.0</ele><time>2026-05-02T06:28:21.149Z</time></trkpt><trkpt lat="42.4884243" lon="14.1120351"><ele>20.0</ele><time>2026-05-02T06:28:24.148Z</time></trkpt><trkpt lat="42.4883019" lon="14.1119811"><ele>21.0</ele><time>2026-05-02T06:28:26.149Z</time></trkpt><trkpt lat="42.4882224" lon="14.1119561"><ele>21.0</ele><time>2026-05-02T06:28:27.149Z</time></trkpt><trkpt lat="42.4881344" lon="14.1119291"><ele>21.0</ele><time>2026-05-02T06:28:28.148Z</time></trkpt><trkpt lat="42.4880413" lon="14.1119"><ele>21.0</ele><time>2026-05-02T06:28:29.148Z</time></trkpt><trkpt lat="42.4879468" lon="14.1118577"><ele>21.0</ele><time>2026-05-02T06:28:30.149Z</time></trkpt><trkpt lat="42.4878331" lon="14.1117959"><ele>21.0</ele><time>2026-05-02T06:28:31.148Z</time></trkpt><trkpt lat="42.4877113" lon="14.1117367"><ele>21.5</ele><time>2026-05-02T06:28:32.149Z</time></trkpt><trkpt lat="42.4875906" lon="14.1116664"><ele>22.0</ele><time>2026-05-02T06:28:33.149Z</time></trkpt><trkpt lat="42.4874677" lon="14.1116074"><ele>22.5</ele><time>2026-05-02T06:28:34.149Z</time></trkpt><trkpt lat="42.4873409" lon="14.1115519"><ele>23.0</ele><time>2026-05-02T06:28:35.148Z</time></trkpt><trkpt lat="42.4872115" lon="14.1114907"><ele>22.75</ele><time>2026-05-02T06:28:36.149Z</time></trkpt><trkpt lat="42.4870821" lon="14.1114317"><ele>22.5</ele><time>2026-05-02T06:28:37.148Z</time></trkpt><trkpt lat="42.4869614" lon="14.1113787"><ele>22.25</ele><time>2026-05-02T06:28:38.148Z</time></trkpt><trkpt lat="42.4868618" lon="14.1113329"><ele>22.0</ele><time>2026-05-02T06:28:39.148Z</time></trkpt><trkpt lat="42.4867729" lon="14.1112923"><ele>22.0</ele><time>2026-05-02T06:28:40.149Z</time></trkpt><trkpt lat="42.4866952" lon="14.1112569"><ele>22.0</ele><time>2026-05-02T06:28:41.148Z</time></trkpt><trkpt lat="42.4866316" lon="14.1112295"><ele>22.0</ele><time>2026-05-02T06:28:42.149Z</time></trkpt><trkpt lat="42.4865055" lon="14.1112809"><ele>22.0</ele><time>2026-05-02T06:28:44.149Z</time></trkpt><trkpt lat="42.4864287" lon="14.1113796"><ele>22.0</ele><time>2026-05-02T06:28:45.148Z</time></trkpt><trkpt lat="42.4863325" lon="14.111533"><ele>22.0</ele><time>2026-05-02T06:28:46.148Z</time></trkpt><trkpt lat="42.4862246" lon="14.1117208"><ele>22.0</ele><time>2026-05-02T06:28:47.148Z</time></trkpt><trkpt lat="42.4861089" lon="14.1119263"><ele>22.0</ele><time>2026-05-02T06:28:48.15Z</time></trkpt><trkpt lat="42.486002" lon="14.1121236"><ele>22.0</ele><time>2026-05-02T06:28:49.149Z</time></trkpt><trkpt lat="42.4858977" lon="14.1123116"><ele>22.0</ele><time>2026-05-02T06:28:50.148Z</time></trkpt><trkpt lat="42.4857998" lon="14.1124943"><ele>22.0</ele><time>2026-05-02T06:28:51.148Z</time></trkpt><trkpt lat="42.4857056" lon="14.1126693"><ele>22.5</ele><time>2026-05-02T06:28:52.149Z</time></trkpt><trkpt lat="42.4856224" lon="14.1128291"><ele>23.0</ele><time>2026-05-02T06:28:53.149Z</time></trkpt><trkpt lat="42.4855383" lon="14.1129818"><ele>23.5</ele><time>2026-05-02T06:28:54.149Z</time></trkpt><trkpt lat="42.4854576" lon="14.1131277"><ele>24.0</ele><time>2026-05-02T06:28:55.149Z</time></trkpt><trkpt lat="42.4853722" lon="14.1132744"><ele>24.0</ele><time>2026-05-02T06:28:56.148Z</time></trkpt><trkpt lat="42.4852731" lon="14.1134289"><ele>24.0</ele><time>2026-05-02T06:28:57.148Z</time></trkpt><trkpt lat="42.485169" lon="14.1135898"><ele>24.0</ele><time>2026-05-02T06:28:58.148Z</time></trkpt><trkpt lat="42.485055" lon="14.1137582"><ele>24.0</ele><time>2026-05-02T06:28:59.148Z</time></trkpt><trkpt lat="42.48494" lon="14.1139297"><ele>24.0</ele><time>2026-05-02T06:29:00.148Z</time></trkpt><trkpt lat="42.4848257" lon="14.1141015"><ele>24.0</ele><time>2026-05-02T06:29:01.148Z</time></trkpt><trkpt lat="42.4847149" lon="14.114267"><ele>23.666666666666668</ele><time>2026-05-02T06:29:02.148Z</time></trkpt><trkpt lat="42.4845987" lon="14.1144297"><ele>23.333333333333336</ele><time>2026-05-02T06:29:03.149Z</time></trkpt><trkpt lat="42.4844822" lon="14.114599"><ele>23.0</ele><time>2026-05-02T06:29:04.148Z</time></trkpt><trkpt lat="42.4843542" lon="14.1147786"><ele>24.0</ele><time>2026-05-02T06:29:05.148Z</time></trkpt><trkpt lat="42.4842211" lon="14.1149692"><ele>25.0</ele><time>2026-05-02T06:29:06.148Z</time></trkpt><trkpt lat="42.4840896" lon="14.1151621"><ele>26.0</ele><time>2026-05-02T06:29:07.148Z</time></trkpt><trkpt lat="42.4839633" lon="14.1153422"><ele>26.0</ele><time>2026-05-02T06:29:08.149Z</time></trkpt><trkpt lat="42.4838452" lon="14.1155119"><ele>26.0</ele><time>2026-05-02T06:29:09.15Z</time></trkpt><trkpt lat="42.4837357" lon="14.1156701"><ele>26.0</ele><time>2026-05-02T06:29:10.149Z</time></trkpt><trkpt lat="42.4836277" lon="14.1158245"><ele>26.5</ele><time>2026-05-02T06:29:11.149Z</time></trkpt><trkpt lat="42.4835308" lon="14.1159666"><ele>27.0</ele><time>2026-05-02T06:29:12.149Z</time></trkpt><trkpt lat="42.4834404" lon="14.1161021"><ele>27.5</ele><time>2026-05-02T06:29:13.15Z</time></trkpt><trkpt lat="42.4833561" lon="14.1162308"><ele>28.0</ele><time>2026-05-02T06:29:14.149Z</time></trkpt><trkpt lat="42.4832812" lon="14.1163311"><ele>28.0</ele><time>2026-05-02T06:29:15.149Z</time></trkpt><trkpt lat="42.4832115" lon="14.1164053"><ele>28.0</ele><time>2026-05-02T06:29:16.149Z</time></trkpt><trkpt lat="42.4831557" lon="14.1164547"><ele>28.0</ele><time>2026-05-02T06:29:17.149Z</time></trkpt><trkpt lat="42.4830986" lon="14.1165014"><ele>28.0</ele><time>2026-05-02T06:29:19.149Z</time></trkpt><trkpt lat="42.4830247" lon="14.1165083"><ele>28.0</ele><time>2026-05-02T06:29:25.148Z</time></trkpt><trkpt lat="42.4829601" lon="14.1164705"><ele>28.0</ele><time>2026-05-02T06:29:26.148Z</time></trkpt><trkpt lat="42.4828927" lon="14.1164183"><ele>28.0</ele><time>2026-05-02T06:29:27.148Z</time></trkpt><trkpt lat="42.4828087" lon="14.116356"><ele>28.25</ele><time>2026-05-02T06:29:28.148Z</time></trkpt><trkpt lat="42.4827082" lon="14.1162816"><ele>28.5</ele><time>2026-05-02T06:29:29.148Z</time></trkpt><trkpt lat="42.4825889" lon="14.1161974"><ele>28.75</ele><time>2026-05-02T06:29:30.149Z</time></trkpt><trkpt lat="42.4824589" lon="14.1161"><ele>29.0</ele><time>2026-05-02T06:29:31.148Z</time></trkpt><trkpt lat="42.4823283" lon="14.1159952"><ele>29.0</ele><time>2026-05-02T06:29:32.148Z</time></trkpt><trkpt lat="42.4822016" lon="14.1158934"><ele>29.0</ele><time>2026-05-02T06:29:33.149Z</time></trkpt><trkpt lat="42.4820837" lon="14.1158007"><ele>29.0</ele><time>2026-05-02T06:29:34.149Z</time></trkpt><trkpt lat="42.4819749" lon="14.1157092"><ele>29.0</ele><time>2026-05-02T06:29:35.148Z</time></trkpt><trkpt lat="42.4818713" lon="14.1156197"><ele>29.799999999999997</ele><time>2026-05-02T06:29:36.149Z</time></trkpt><trkpt lat="42.4817696" lon="14.1155332"><ele>30.599999999999998</ele><time>2026-05-02T06:29:37.15Z</time></trkpt><trkpt lat="42.4816696" lon="14.1154567"><ele>31.4</ele><time>2026-05-02T06:29:38.148Z</time></trkpt><trkpt lat="42.4815736" lon="14.1153828"><ele>32.199999999999996</ele><time>2026-05-02T06:29:39.148Z</time></trkpt><trkpt lat="42.4814862" lon="14.1153096"><ele>33.0</ele><time>2026-05-02T06:29:40.149Z</time></trkpt><trkpt lat="42.481398" lon="14.1152421"><ele>33.0</ele><time>2026-05-02T06:29:41.15Z</time></trkpt><trkpt lat="42.481317" lon="14.1151778"><ele>33.0</ele><time>2026-05-02T06:29:42.148Z</time></trkpt><trkpt lat="42.4812334" lon="14.1151068"><ele>33.0</ele><time>2026-05-02T06:29:43.148Z</time></trkpt><trkpt lat="42.4811479" lon="14.1150335"><ele>33.0</ele><time>2026-05-02T06:29:44.15Z</time></trkpt><trkpt lat="42.481064" lon="14.1149636"><ele>33.0</ele><time>2026-05-02T06:29:45.148Z</time></trkpt><trkpt lat="42.4809815" lon="14.1148963"><ele>32.4</ele><time>2026-05-02T06:29:46.148Z</time></trkpt><trkpt lat="42.4809013" lon="14.1148292"><ele>31.799999999999997</ele><time>2026-05-02T06:29:47.148Z</time></trkpt><trkpt lat="42.4808222" lon="14.1147655"><ele>31.2</ele><time>2026-05-02T06:29:48.149Z</time></trkpt><trkpt lat="42.4807388" lon="14.1147018"><ele>30.6</ele><time>2026-05-02T06:29:49.149Z</time></trkpt><trkpt lat="42.4806583" lon="14.1146327"><ele>30.0</ele><time>2026-05-02T06:29:50.148Z</time></trkpt><trkpt lat="42.4805775" lon="14.1145685"><ele>30.0</ele><time>2026-05-02T06:29:51.148Z</time></trkpt><trkpt lat="42.4804983" lon="14.1145019"><ele>30.0</ele><time>2026-05-02T06:29:52.149Z</time></trkpt><trkpt lat="42.4804171" lon="14.1144389"><ele>30.0</ele><time>2026-05-02T06:29:53.149Z</time></trkpt><trkpt lat="42.4803355" lon="14.1143735"><ele>30.0</ele><time>2026-05-02T06:29:54.148Z</time></trkpt><trkpt lat="42.4802542" lon="14.1143083"><ele>30.0</ele><time>2026-05-02T06:29:55.148Z</time></trkpt><trkpt lat="42.48017" lon="14.1142398"><ele>30.0</ele><time>2026-05-02T06:29:56.148Z</time></trkpt><trkpt lat="42.4800813" lon="14.1141699"><ele>30.0</ele><time>2026-05-02T06:29:57.149Z</time></trkpt><trkpt lat="42.4799946" lon="14.1141035"><ele>30.0</ele><time>2026-05-02T06:29:58.149Z</time></trkpt><trkpt lat="42.4799219" lon="14.1140432"><ele>30.0</ele><time>2026-05-02T06:29:59.148Z</time></trkpt><trkpt lat="42.4798539" lon="14.113986"><ele>30.0</ele><time>2026-05-02T06:30:00.148Z</time></trkpt><trkpt lat="42.4797883" lon="14.1139183"><ele>29.833333333333332</ele><time>2026-05-02T06:30:01.149Z</time></trkpt><trkpt lat="42.4797123" lon="14.113865"><ele>29.666666666666664</ele><time>2026-05-02T06:30:02.148Z</time></trkpt><trkpt lat="42.4796394" lon="14.1138041"><ele>29.5</ele><time>2026-05-02T06:30:03.149Z</time></trkpt><trkpt lat="42.4795718" lon="14.1137474"><ele>29.333333333333332</ele><time>2026-05-02T06:30:04.148Z</time></trkpt><trkpt lat="42.4795057" lon="14.1136997"><ele>29.166666666666664</ele><time>2026-05-02T06:30:05.149Z</time></trkpt><trkpt lat="42.4794457" lon="14.1136542"><ele>29.0</ele><time>2026-05-02T06:30:06.149Z</time></trkpt><trkpt lat="42.4793907" lon="14.113603"><ele>29.499999999999996</ele><time>2026-05-02T06:30:07.149Z</time></trkpt><trkpt lat="42.4793305" lon="14.1135456"><ele>30.0</ele><time>2026-05-02T06:30:08.148Z</time></trkpt><trkpt lat="42.4792614" lon="14.1134829"><ele>30.5</ele><time>2026-05-02T06:30:09.149Z</time></trkpt><trkpt lat="42.479189" lon="14.1134218"><ele>31.0</ele><time>2026-05-02T06:30:10.149Z</time></trkpt><trkpt lat="42.4791242" lon="14.1133646"><ele>31.499999999999996</ele><time>2026-05-02T06:30:11.148Z</time></trkpt><trkpt lat="42.4790618" lon="14.1133133"><ele>32.0</ele><time>2026-05-02T06:30:12.148Z</time></trkpt><trkpt lat="42.4789997" lon="14.1132631"><ele>32.166666666666664</ele><time>2026-05-02T06:30:13.148Z</time></trkpt><trkpt lat="42.4789388" lon="14.1132159"><ele>32.33333333333333</ele><time>2026-05-02T06:30:14.149Z</time></trkpt><trkpt lat="42.4788813" lon="14.1131696"><ele>32.5</ele><time>2026-05-02T06:30:15.148Z</time></trkpt><trkpt lat="42.4788266" lon="14.1131259"><ele>32.666666666666664</ele><time>2026-05-02T06:30:16.149Z</time></trkpt><trkpt lat="42.4787161" lon="14.1130371"><ele>32.833333333333336</ele><time>2026-05-02T06:30:18.148Z</time></trkpt><trkpt lat="42.4786581" lon="14.1129898"><ele>33.0</ele><time>2026-05-02T06:30:19.148Z</time></trkpt><trkpt lat="42.4785991" lon="14.1129466"><ele>33.0</ele><time>2026-05-02T06:30:20.148Z</time></trkpt><trkpt lat="42.4785378" lon="14.1129004"><ele>33.0</ele><time>2026-05-02T06:30:21.148Z</time></trkpt><trkpt lat="42.4784749" lon="14.1128513"><ele>33.0</ele><time>2026-05-02T06:30:22.149Z</time></trkpt><trkpt lat="42.4784129" lon="14.1127945"><ele>33.0</ele><time>2026-05-02T06:30:23.149Z</time></trkpt><trkpt lat="42.4783472" lon="14.1127385"><ele>33.0</ele><time>2026-05-02T06:30:24.148Z</time></trkpt><trkpt lat="42.4782773" lon="14.1126829"><ele>33.0</ele><time>2026-05-02T06:30:25.148Z</time></trkpt><trkpt lat="42.4781999" lon="14.1126248"><ele>33.0</ele><time>2026-05-02T06:30:26.149Z</time></trkpt><trkpt lat="42.478114" lon="14.1125613"><ele>33.0</ele><time>2026-05-02T06:30:27.149Z</time></trkpt><trkpt lat="42.4780286" lon="14.1124919"><ele>33.0</ele><time>2026-05-02T06:30:28.149Z</time></trkpt><trkpt lat="42.4779418" lon="14.1124209"><ele>33.0</ele><time>2026-05-02T06:30:29.148Z</time></trkpt><trkpt lat="42.4778591" lon="14.1123555"><ele>33.0</ele><time>2026-05-02T06:30:30.149Z</time></trkpt><trkpt lat="42.4777836" lon="14.1122919"><ele>33.333333333333336</ele><time>2026-05-02T06:30:31.149Z</time></trkpt><trkpt lat="42.4777253" lon="14.1122381"><ele>33.666666666666664</ele><time>2026-05-02T06:30:32.149Z</time></trkpt><trkpt lat="42.4776703" lon="14.1121818"><ele>34.0</ele><time>2026-05-02T06:30:33.148Z</time></trkpt><trkpt lat="42.4776049" lon="14.1121468"><ele>34.33333333333333</ele><time>2026-05-02T06:30:34.148Z</time></trkpt><trkpt lat="42.4775381" lon="14.1120871"><ele>34.666666666666664</ele><time>2026-05-02T06:30:35.148Z</time></trkpt><trkpt lat="42.4774729" lon="14.1120264"><ele>35.0</ele><time>2026-05-02T06:30:36.148Z</time></trkpt><trkpt lat="42.4773976" lon="14.1119649"><ele>35.0</ele><time>2026-05-02T06:30:37.148Z</time></trkpt><trkpt lat="42.477315" lon="14.1119053"><ele>35.0</ele><time>2026-05-02T06:30:38.148Z</time></trkpt><trkpt lat="42.477238" lon="14.1118458"><ele>35.0</ele><time>2026-05-02T06:30:39.148Z</time></trkpt><trkpt lat="42.4771598" lon="14.1117982"><ele>35.0</ele><time>2026-05-02T06:30:40.148Z</time></trkpt><trkpt lat="42.4770435" lon="14.111709"><ele>35.0</ele><time>2026-05-02T06:30:42.148Z</time></trkpt><trkpt lat="42.476946" lon="14.1116095"><ele>35.0</ele><time>2026-05-02T06:30:44.149Z</time></trkpt><trkpt lat="42.4768902" lon="14.1115622"><ele>35.0</ele><time>2026-05-02T06:30:45.148Z</time></trkpt><trkpt lat="42.4768311" lon="14.11151"><ele>35.0</ele><time>2026-05-02T06:30:46.148Z</time></trkpt><trkpt lat="42.4767754" lon="14.1114625"><ele>35.0</ele><time>2026-05-02T06:30:47.148Z</time></trkpt><trkpt lat="42.4767221" lon="14.1114137"><ele>35.0</ele><time>2026-05-02T06:30:48.148Z</time></trkpt><trkpt lat="42.4766656" lon="14.1113703"><ele>35.0</ele><time>2026-05-02T06:30:49.15Z</time></trkpt><trkpt lat="42.476609" lon="14.1113243"><ele>35.0</ele><time>2026-05-02T06:30:50.149Z</time></trkpt><trkpt lat="42.4765523" lon="14.111277"><ele>35.0</ele><time>2026-05-02T06:30:51.148Z</time></trkpt><trkpt lat="42.4764971" lon="14.1112298"><ele>35.0</ele><time>2026-05-02T06:30:52.149Z</time></trkpt><trkpt lat="42.4763962" lon="14.1111389"><ele>35.0</ele><time>2026-05-02T06:30:54.149Z</time></trkpt><trkpt lat="42.4763406" lon="14.1110762"><ele>35.0</ele><time>2026-05-02T06:30:56.149Z</time></trkpt><trkpt lat="42.4763013" lon="14.1109931"><ele>35.0</ele><time>2026-05-02T06:30:58.148Z</time></trkpt><trkpt lat="42.476289" lon="14.1108716"><ele>35.0</ele><time>2026-05-02T06:31:00.149Z</time></trkpt><trkpt lat="42.4762791" lon="14.1107293"><ele>35.4</ele><time>2026-05-02T06:31:02.149Z</time></trkpt><trkpt lat="42.4762211" lon="14.1106287"><ele>35.8</ele><time>2026-05-02T06:31:04.148Z</time></trkpt><trkpt lat="42.4760932" lon="14.1106394"><ele>36.2</ele><time>2026-05-02T06:31:06.149Z</time></trkpt><trkpt lat="42.4760155" lon="14.110673"><ele>36.6</ele><time>2026-05-02T06:31:07.148Z</time></trkpt><trkpt lat="42.4759229" lon="14.1106942"><ele>37.0</ele><time>2026-05-02T06:31:08.149Z</time></trkpt><trkpt lat="42.4758262" lon="14.1106827"><ele>37.0</ele><time>2026-05-02T06:31:09.148Z</time></trkpt><trkpt lat="42.4757292" lon="14.110636"><ele>37.0</ele><time>2026-05-02T06:31:10.148Z</time></trkpt><trkpt lat="42.4756329" lon="14.1105697"><ele>37.0</ele><time>2026-05-02T06:31:11.149Z</time></trkpt><trkpt lat="42.4755246" lon="14.1105084"><ele>37.0</ele><time>2026-05-02T06:31:12.149Z</time></trkpt><trkpt lat="42.4754017" lon="14.1104757"><ele>38.75</ele><time>2026-05-02T06:31:13.149Z</time></trkpt><trkpt lat="42.4752733" lon="14.1104726"><ele>40.5</ele><time>2026-05-02T06:31:14.15Z</time></trkpt><trkpt lat="42.47514" lon="14.1105005"><ele>42.25</ele><time>2026-05-02T06:31:15.15Z</time></trkpt><trkpt lat="42.4750028" lon="14.1105238"><ele>44.0</ele><time>2026-05-02T06:31:16.149Z</time></trkpt><trkpt lat="42.4748619" lon="14.1105316"><ele>44.0</ele><time>2026-05-02T06:31:17.148Z</time></trkpt><trkpt lat="42.4747201" lon="14.1105173"><ele>44.0</ele><time>2026-05-02T06:31:18.148Z</time></trkpt><trkpt lat="42.4745786" lon="14.1104819"><ele>44.0</ele><time>2026-05-02T06:31:19.149Z</time></trkpt><trkpt lat="42.474435" lon="14.1104329"><ele>44.0</ele><time>2026-05-02T06:31:20.148Z</time></trkpt><trkpt lat="42.4742894" lon="14.1103726"><ele>46.666666666666664</ele><time>2026-05-02T06:31:21.15Z</time></trkpt><trkpt lat="42.4741463" lon="14.1103013"><ele>49.33333333333333</ele><time>2026-05-02T06:31:22.149Z</time></trkpt><trkpt lat="42.4739981" lon="14.1102269"><ele>52.0</ele><time>2026-05-02T06:31:23.148Z</time></trkpt><trkpt lat="42.4738475" lon="14.1101539"><ele>53.33333333333333</ele><time>2026-05-02T06:31:24.148Z</time></trkpt><trkpt lat="42.4736971" lon="14.1100892"><ele>54.66666666666667</ele><time>2026-05-02T06:31:25.148Z</time></trkpt><trkpt lat="42.4735429" lon="14.1100208"><ele>56.0</ele><time>2026-05-02T06:31:26.148Z</time></trkpt><trkpt lat="42.4733848" lon="14.1099477"><ele>59.66666666666667</ele><time>2026-05-02T06:31:27.148Z</time></trkpt><trkpt lat="42.4732243" lon="14.1098717"><ele>63.33333333333333</ele><time>2026-05-02T06:31:28.149Z</time></trkpt><trkpt lat="42.4730643" lon="14.1097924"><ele>67.0</ele><time>2026-05-02T06:31:29.149Z</time></trkpt><trkpt lat="42.4729011" lon="14.1097129"><ele>67.0</ele><time>2026-05-02T06:31:30.148Z</time></trkpt><trkpt lat="42.4727374" lon="14.1096405"><ele>67.0</ele><time>2026-05-02T06:31:31.148Z</time></trkpt><trkpt lat="42.4725714" lon="14.1095754"><ele>67.0</ele><time>2026-05-02T06:31:32.15Z</time></trkpt><trkpt lat="42.472406" lon="14.109521"><ele>67.0</ele><time>2026-05-02T06:31:33.149Z</time></trkpt><trkpt lat="42.4722436" lon="14.1094739"><ele>67.0</ele><time>2026-05-02T06:31:34.149Z</time></trkpt><trkpt lat="42.4720863" lon="14.1094191"><ele>67.0</ele><time>2026-05-02T06:31:35.148Z</time></trkpt><trkpt lat="42.4719363" lon="14.1093481"><ele>65.66666666666666</ele><time>2026-05-02T06:31:36.148Z</time></trkpt><trkpt lat="42.4717934" lon="14.1092559"><ele>64.33333333333333</ele><time>2026-05-02T06:31:37.149Z</time></trkpt><trkpt lat="42.4716515" lon="14.1091413"><ele>63.0</ele><time>2026-05-02T06:31:38.148Z</time></trkpt><trkpt lat="42.4715203" lon="14.1090085"><ele>64.0</ele><time>2026-05-02T06:31:39.148Z</time></trkpt><trkpt lat="42.4713931" lon="14.1088627"><ele>65.0</ele><time>2026-05-02T06:31:40.149Z</time></trkpt><trkpt lat="42.4712702" lon="14.1087052"><ele>66.0</ele><time>2026-05-02T06:31:41.149Z</time></trkpt><trkpt lat="42.4711515" lon="14.1085401"><ele>66.0</ele><time>2026-05-02T06:31:42.148Z</time></trkpt><trkpt lat="42.4710366" lon="14.1083775"><ele>66.0</ele><time>2026-05-02T06:31:43.15Z</time></trkpt><trkpt lat="42.4709326" lon="14.1082211"><ele>66.0</ele><time>2026-05-02T06:31:44.149Z</time></trkpt><trkpt lat="42.4708379" lon="14.1080575"><ele>69.0</ele><time>2026-05-02T06:31:45.15Z</time></trkpt><trkpt lat="42.4707546" lon="14.1078885"><ele>72.0</ele><time>2026-05-02T06:31:46.148Z</time></trkpt><trkpt lat="42.4706769" lon="14.1077169"><ele>75.0</ele><time>2026-05-02T06:31:47.149Z</time></trkpt><trkpt lat="42.4706033" lon="14.1075395"><ele>78.0</ele><time>2026-05-02T06:31:48.149Z</time></trkpt><trkpt lat="42.4705396" lon="14.1073598"><ele>76.5</ele><time>2026-05-02T06:31:49.148Z</time></trkpt><trkpt lat="42.4704929" lon="14.1071774"><ele>75.0</ele><time>2026-05-02T06:31:50.148Z</time></trkpt><trkpt lat="42.4704467" lon="14.1069937"><ele>73.5</ele><time>2026-05-02T06:31:51.149Z</time></trkpt><trkpt lat="42.4703911" lon="14.1068136"><ele>72.0</ele><time>2026-05-02T06:31:52.149Z</time></trkpt><trkpt lat="42.4703226" lon="14.1066444"><ele>75.0</ele><time>2026-05-02T06:31:53.148Z</time></trkpt><trkpt lat="42.4702393" lon="14.1064822"><ele>78.0</ele><time>2026-05-02T06:31:54.148Z</time></trkpt><trkpt lat="42.4701446" lon="14.1063307"><ele>81.0</ele><time>2026-05-02T06:31:55.149Z</time></trkpt><trkpt lat="42.4700379" lon="14.1062005"><ele>84.0</ele><time>2026-05-02T06:31:56.149Z</time></trkpt><trkpt lat="42.4699226" lon="14.1060963"><ele>84.0</ele><time>2026-05-02T06:31:57.148Z</time></trkpt><trkpt lat="42.4698018" lon="14.1060098"><ele>84.0</ele><time>2026-05-02T06:31:58.15Z</time></trkpt><trkpt lat="42.4696831" lon="14.1059287"><ele>84.0</ele><time>2026-05-02T06:31:59.148Z</time></trkpt><trkpt lat="42.4695617" lon="14.1058449"><ele>84.0</ele><time>2026-05-02T06:32:00.149Z</time></trkpt><trkpt lat="42.4694387" lon="14.1057596"><ele>86.5</ele><time>2026-05-02T06:32:01.149Z</time></trkpt><trkpt lat="42.4693136" lon="14.1056737"><ele>89.0</ele><time>2026-05-02T06:32:02.148Z</time></trkpt><trkpt lat="42.4691897" lon="14.1055898"><ele>91.5</ele><time>2026-05-02T06:32:03.148Z</time></trkpt><trkpt lat="42.469077" lon="14.1055143"><ele>94.0</ele><time>2026-05-02T06:32:04.149Z</time></trkpt><trkpt lat="42.4689712" lon="14.1054355"><ele>94.0</ele><time>2026-05-02T06:32:05.149Z</time></trkpt><trkpt lat="42.4688603" lon="14.1053571"><ele>94.0</ele><time>2026-05-02T06:32:06.149Z</time></trkpt><trkpt lat="42.4687424" lon="14.1052799"><ele>94.0</ele><time>2026-05-02T06:32:07.148Z</time></trkpt><trkpt lat="42.4686182" lon="14.1052196"><ele>94.0</ele><time>2026-05-02T06:32:08.148Z</time></trkpt><trkpt lat="42.4684967" lon="14.1051768"><ele>94.4</ele><time>2026-05-02T06:32:09.148Z</time></trkpt><trkpt lat="42.4683863" lon="14.1051524"><ele>94.80000000000001</ele><time>2026-05-02T06:32:10.149Z</time></trkpt><trkpt lat="42.4682831" lon="14.105129"><ele>95.19999999999999</ele><time>2026-05-02T06:32:11.148Z</time></trkpt><trkpt lat="42.4681853" lon="14.105109"><ele>95.6</ele><time>2026-05-02T06:32:12.148Z</time></trkpt><trkpt lat="42.4680943" lon="14.1050837"><ele>96.0</ele><time>2026-05-02T06:32:13.148Z</time></trkpt><trkpt lat="42.4679996" lon="14.1050588"><ele>95.0</ele><time>2026-05-02T06:32:14.148Z</time></trkpt><trkpt lat="42.4679081" lon="14.1050281"><ele>94.0</ele><time>2026-05-02T06:32:15.148Z</time></trkpt><trkpt lat="42.4678236" lon="14.1049856"><ele>93.0</ele><time>2026-05-02T06:32:16.149Z</time></trkpt><trkpt lat="42.467743" lon="14.1049361"><ele>92.0</ele><time>2026-05-02T06:32:17.149Z</time></trkpt><trkpt lat="42.467673" lon="14.1048818"><ele>91.0</ele><time>2026-05-02T06:32:18.148Z</time></trkpt><trkpt lat="42.4676014" lon="14.1048162"><ele>90.0</ele><time>2026-05-02T06:32:19.15Z</time></trkpt><trkpt lat="42.4675309" lon="14.1047446"><ele>92.8</ele><time>2026-05-02T06:32:20.15Z</time></trkpt><trkpt lat="42.4674558" lon="14.1046706"><ele>95.6</ele><time>2026-05-02T06:32:21.148Z</time></trkpt><trkpt lat="42.4673836" lon="14.1045927"><ele>98.4</ele><time>2026-05-02T06:32:22.148Z</time></trkpt><trkpt lat="42.467313" lon="14.1045209"><ele>101.2</ele><time>2026-05-02T06:32:23.148Z</time></trkpt><trkpt lat="42.4672367" lon="14.1044529"><ele>104.0</ele><time>2026-05-02T06:32:24.149Z</time></trkpt><trkpt lat="42.4671558" lon="14.104388"><ele>103.33333333333333</ele><time>2026-05-02T06:32:25.148Z</time></trkpt><trkpt lat="42.4670792" lon="14.104326"><ele>102.66666666666666</ele><time>2026-05-02T06:32:26.148Z</time></trkpt><trkpt lat="42.4670069" lon="14.1042725"><ele>102.0</ele><time>2026-05-02T06:32:27.148Z</time></trkpt><trkpt lat="42.4669323" lon="14.1042197"><ele>101.33333333333334</ele><time>2026-05-02T06:32:28.149Z</time></trkpt><trkpt lat="42.4668542" lon="14.1041652"><ele>100.66666666666667</ele><time>2026-05-02T06:32:29.149Z</time></trkpt><trkpt lat="42.4667808" lon="14.1041138"><ele>100.0</ele><time>2026-05-02T06:32:30.148Z</time></trkpt><trkpt lat="42.4666988" lon="14.1040566"><ele>99.8</ele><time>2026-05-02T06:32:31.148Z</time></trkpt><trkpt lat="42.4666076" lon="14.1039866"><ele>99.6</ele><time>2026-05-02T06:32:32.148Z</time></trkpt><trkpt lat="42.4665126" lon="14.1039162"><ele>99.4</ele><time>2026-05-02T06:32:33.148Z</time></trkpt><trkpt lat="42.466417" lon="14.1038573"><ele>99.2</ele><time>2026-05-02T06:32:34.148Z</time></trkpt><trkpt lat="42.4663151" lon="14.1038278"><ele>99.0</ele><time>2026-05-02T06:32:35.149Z</time></trkpt><trkpt lat="42.4661886" lon="14.1038184"><ele>103.66666666666666</ele><time>2026-05-02T06:32:36.148Z</time></trkpt><trkpt lat="42.4660431" lon="14.1038242"><ele>108.33333333333333</ele><time>2026-05-02T06:32:37.149Z</time></trkpt><trkpt lat="42.4658897" lon="14.1038357"><ele>113.0</ele><time>2026-05-02T06:32:38.149Z</time></trkpt><trkpt lat="42.4657319" lon="14.1038344"><ele>113.0</ele><time>2026-05-02T06:32:39.149Z</time></trkpt><trkpt lat="42.4655827" lon="14.1038195"><ele>113.0</ele><time>2026-05-02T06:32:40.149Z</time></trkpt><trkpt lat="42.4654471" lon="14.1037837"><ele>113.0</ele><time>2026-05-02T06:32:41.149Z</time></trkpt><trkpt lat="42.4653193" lon="14.1037237"><ele>113.0</ele><time>2026-05-02T06:32:42.148Z</time></trkpt><trkpt lat="42.4651972" lon="14.1036597"><ele>114.25</ele><time>2026-05-02T06:32:43.148Z</time></trkpt><trkpt lat="42.465086" lon="14.1035842"><ele>115.5</ele><time>2026-05-02T06:32:44.148Z</time></trkpt><trkpt lat="42.464975" lon="14.1035018"><ele>116.75</ele><time>2026-05-02T06:32:45.149Z</time></trkpt><trkpt lat="42.4648747" lon="14.1033995"><ele>118.0</ele><time>2026-05-02T06:32:46.149Z</time></trkpt><trkpt lat="42.4647951" lon="14.1032828"><ele>117.4</ele><time>2026-05-02T06:32:47.149Z</time></trkpt><trkpt lat="42.4647038" lon="14.1031803"><ele>116.80000000000001</ele><time>2026-05-02T06:32:48.148Z</time></trkpt><trkpt lat="42.4646091" lon="14.1030977"><ele>116.2</ele><time>2026-05-02T06:32:49.148Z</time></trkpt><trkpt lat="42.4645203" lon="14.1030527"><ele>115.6</ele><time>2026-05-02T06:32:50.149Z</time></trkpt><trkpt lat="42.4644408" lon="14.1030577"><ele>115.0</ele><time>2026-05-02T06:32:51.148Z</time></trkpt><trkpt lat="42.4643838" lon="14.1031115"><ele>115.42857142857142</ele><time>2026-05-02T06:32:52.148Z</time></trkpt><trkpt lat="42.464377" lon="14.1031989"><ele>115.85714285714286</ele><time>2026-05-02T06:32:53.148Z</time></trkpt><trkpt lat="42.4644017" lon="14.1032781"><ele>116.28571428571428</ele><time>2026-05-02T06:32:54.148Z</time></trkpt><trkpt lat="42.4644543" lon="14.1033501"><ele>116.71428571428571</ele><time>2026-05-02T06:32:55.148Z</time></trkpt><trkpt lat="42.4645248" lon="14.1034053"><ele>117.14285714285714</ele><time>2026-05-02T06:32:56.148Z</time></trkpt><trkpt lat="42.4645973" lon="14.1034532"><ele>117.57142857142857</ele><time>2026-05-02T06:32:57.149Z</time></trkpt><trkpt lat="42.4646596" lon="14.1034951"><ele>118.0</ele><time>2026-05-02T06:32:58.148Z</time></trkpt><trkpt lat="42.4647379" lon="14.1036062"><ele>118.0</ele><time>2026-05-02T06:33:00.148Z</time></trkpt><trkpt lat="42.4647189" lon="14.1037446"><ele>118.00000000000001</ele><time>2026-05-02T06:33:02.148Z</time></trkpt><trkpt lat="42.4646052" lon="14.1038291"><ele>118.00000000000001</ele><time>2026-05-02T06:33:04.15Z</time></trkpt><trkpt lat="42.4645318" lon="14.1038661"><ele>118.0</ele><time>2026-05-02T06:33:05.149Z</time></trkpt><trkpt lat="42.4644572" lon="14.1038942"><ele>118.0</ele><time>2026-05-02T06:33:06.149Z</time></trkpt><trkpt lat="42.4643712" lon="14.1039194"><ele>118.4</ele><time>2026-05-02T06:33:07.149Z</time></trkpt><trkpt lat="42.464274" lon="14.1039495"><ele>118.80000000000001</ele><time>2026-05-02T06:33:08.149Z</time></trkpt><trkpt lat="42.4641705" lon="14.1039696"><ele>119.2</ele><time>2026-05-02T06:33:09.149Z</time></trkpt><trkpt lat="42.4640615" lon="14.1039837"><ele>119.6</ele><time>2026-05-02T06:33:10.149Z</time></trkpt><trkpt lat="42.4639513" lon="14.1039989"><ele>120.0</ele><time>2026-05-02T06:33:11.149Z</time></trkpt><trkpt lat="42.4638416" lon="14.1040176"><ele>120.8</ele><time>2026-05-02T06:33:12.149Z</time></trkpt><trkpt lat="42.4637341" lon="14.1040373"><ele>121.6</ele><time>2026-05-02T06:33:13.148Z</time></trkpt><trkpt lat="42.4636341" lon="14.104058"><ele>122.4</ele><time>2026-05-02T06:33:14.15Z</time></trkpt><trkpt lat="42.4635477" lon="14.1040837"><ele>123.2</ele><time>2026-05-02T06:33:15.149Z</time></trkpt><trkpt lat="42.463469" lon="14.1041159"><ele>124.0</ele><time>2026-05-02T06:33:16.148Z</time></trkpt><trkpt lat="42.4633955" lon="14.1041425"><ele>124.83333333333334</ele><time>2026-05-02T06:33:17.148Z</time></trkpt><trkpt lat="42.46333" lon="14.1041741"><ele>125.66666666666667</ele><time>2026-05-02T06:33:18.149Z</time></trkpt><trkpt lat="42.4632641" lon="14.104235"><ele>126.5</ele><time>2026-05-02T06:33:19.148Z</time></trkpt><trkpt lat="42.4631985" lon="14.1043106"><ele>127.33333333333334</ele><time>2026-05-02T06:33:20.148Z</time></trkpt><trkpt lat="42.4631278" lon="14.1043795"><ele>128.16666666666666</ele><time>2026-05-02T06:33:21.148Z</time></trkpt><trkpt lat="42.4630565" lon="14.104462"><ele>129.0</ele><time>2026-05-02T06:33:22.149Z</time></trkpt><trkpt lat="42.4629848" lon="14.1045457"><ele>129.33333333333334</ele><time>2026-05-02T06:33:23.148Z</time></trkpt><trkpt lat="42.4629209" lon="14.104621"><ele>129.66666666666666</ele><time>2026-05-02T06:33:24.148Z</time></trkpt><trkpt lat="42.4628612" lon="14.1046775"><ele>130.0</ele><time>2026-05-02T06:33:25.148Z</time></trkpt><trkpt lat="42.4628029" lon="14.1047255"><ele>130.33333333333331</ele><time>2026-05-02T06:33:26.148Z</time></trkpt><trkpt lat="42.4627398" lon="14.1047445"><ele>130.66666666666666</ele><time>2026-05-02T06:33:27.148Z</time></trkpt><trkpt lat="42.4626368" lon="14.104701"><ele>131.0</ele><time>2026-05-02T06:33:29.149Z</time></trkpt><trkpt lat="42.4625753" lon="14.1046719"><ele>131.0</ele><time>2026-05-02T06:33:30.148Z</time></trkpt><trkpt lat="42.4624712" lon="14.1046906"><ele>131.0</ele><time>2026-05-02T06:33:32.148Z</time></trkpt><trkpt lat="42.4624344" lon="14.1048038"><ele>131.0</ele><time>2026-05-02T06:33:34.148Z</time></trkpt><trkpt lat="42.4624455" lon="14.1048924"><ele>131.0</ele><time>2026-05-02T06:33:36.148Z</time></trkpt><trkpt lat="42.462456" lon="14.1049811"><ele>131.0</ele><time>2026-05-02T06:33:38.148Z</time></trkpt><trkpt lat="42.4624196" lon="14.1050546"><ele>131.0</ele><time>2026-05-02T06:33:40.149Z</time></trkpt><trkpt lat="42.4623541" lon="14.1051101"><ele>131.4</ele><time>2026-05-02T06:33:51.149Z</time></trkpt><trkpt lat="42.4622822" lon="14.1052032"><ele>131.8</ele><time>2026-05-02T06:33:53.148Z</time></trkpt><trkpt lat="42.4622335" lon="14.1052655"><ele>132.20000000000002</ele><time>2026-05-02T06:33:54.148Z</time></trkpt><trkpt lat="42.4621724" lon="14.1053423"><ele>132.6</ele><time>2026-05-02T06:33:55.148Z</time></trkpt><trkpt lat="42.4620908" lon="14.1054311"><ele>133.0</ele><time>2026-05-02T06:33:56.148Z</time></trkpt><trkpt lat="42.4619957" lon="14.1055303"><ele>134.5</ele><time>2026-05-02T06:33:57.149Z</time></trkpt><trkpt lat="42.4618892" lon="14.1056383"><ele>136.0</ele><time>2026-05-02T06:33:58.148Z</time></trkpt><trkpt lat="42.4617752" lon="14.1057507"><ele>137.5</ele><time>2026-05-02T06:33:59.148Z</time></trkpt><trkpt lat="42.4616537" lon="14.1058695"><ele>139.0</ele><time>2026-05-02T06:34:00.149Z</time></trkpt><trkpt lat="42.4615287" lon="14.1059974"><ele>139.0</ele><time>2026-05-02T06:34:01.148Z</time></trkpt><trkpt lat="42.4614027" lon="14.1061206"><ele>139.0</ele><time>2026-05-02T06:34:02.149Z</time></trkpt><trkpt lat="42.4612809" lon="14.1062362"><ele>139.0</ele><time>2026-05-02T06:34:03.148Z</time></trkpt><trkpt lat="42.4611517" lon="14.1063307"><ele>140.25</ele><time>2026-05-02T06:34:04.148Z</time></trkpt><trkpt lat="42.4610164" lon="14.1063989"><ele>141.5</ele><time>2026-05-02T06:34:05.148Z</time></trkpt><trkpt lat="42.4608871" lon="14.1064618"><ele>142.75</ele><time>2026-05-02T06:34:06.148Z</time></trkpt><trkpt lat="42.4607668" lon="14.1065385"><ele>144.0</ele><time>2026-05-02T06:34:07.148Z</time></trkpt><trkpt lat="42.4606594" lon="14.1066476"><ele>144.0</ele><time>2026-05-02T06:34:08.148Z</time></trkpt><trkpt lat="42.4605683" lon="14.106789"><ele>144.0</ele><time>2026-05-02T06:34:09.149Z</time></trkpt><trkpt lat="42.4604878" lon="14.1069601"><ele>144.0</ele><time>2026-05-02T06:34:10.15Z</time></trkpt><trkpt lat="42.4604186" lon="14.1071565"><ele>144.0</ele><time>2026-05-02T06:34:11.149Z</time></trkpt><trkpt lat="42.4603643" lon="14.1073827"><ele>149.33333333333334</ele><time>2026-05-02T06:34:12.148Z</time></trkpt><trkpt lat="42.4603211" lon="14.1076179"><ele>154.66666666666669</ele><time>2026-05-02T06:34:13.148Z</time></trkpt><trkpt lat="42.460281" lon="14.1078324"><ele>160.0</ele><time>2026-05-02T06:34:14.148Z</time></trkpt><trkpt lat="42.4602234" lon="14.1080291"><ele>160.0</ele><time>2026-05-02T06:34:15.149Z</time></trkpt><trkpt lat="42.4601493" lon="14.1082319"><ele>160.0</ele><time>2026-05-02T06:34:16.15Z</time></trkpt><trkpt lat="42.4600701" lon="14.1084458"><ele>160.0</ele><time>2026-05-02T06:34:17.148Z</time></trkpt><trkpt lat="42.4599909" lon="14.1086573"><ele>159.25</ele><time>2026-05-02T06:34:18.148Z</time></trkpt><trkpt lat="42.459921" lon="14.1088404"><ele>158.5</ele><time>2026-05-02T06:34:19.15Z</time></trkpt><trkpt lat="42.4598405" lon="14.1090016"><ele>157.75</ele><time>2026-05-02T06:34:20.149Z</time></trkpt><trkpt lat="42.4597397" lon="14.1091503"><ele>157.0</ele><time>2026-05-02T06:34:21.149Z</time></trkpt><trkpt lat="42.459615" lon="14.10929"><ele>159.33333333333334</ele><time>2026-05-02T06:34:22.148Z</time></trkpt><trkpt lat="42.4594804" lon="14.1094222"><ele>161.66666666666666</ele><time>2026-05-02T06:34:23.148Z</time></trkpt><trkpt lat="42.4593527" lon="14.109564"><ele>164.0</ele><time>2026-05-02T06:34:24.148Z</time></trkpt><trkpt lat="42.4592287" lon="14.1097203"><ele>164.0</ele><time>2026-05-02T06:34:25.149Z</time></trkpt><trkpt lat="42.4591068" lon="14.1098842"><ele>164.0</ele><time>2026-05-02T06:34:26.149Z</time></trkpt><trkpt lat="42.4589882" lon="14.1100591"><ele>164.0</ele><time>2026-05-02T06:34:27.149Z</time></trkpt><trkpt lat="42.458866" lon="14.1102539"><ele>163.33333333333331</ele><time>2026-05-02T06:34:28.149Z</time></trkpt><trkpt lat="42.4587486" lon="14.1104471"><ele>162.66666666666666</ele><time>2026-05-02T06:34:29.148Z</time></trkpt><trkpt lat="42.4586467" lon="14.1106148"><ele>162.0</ele><time>2026-05-02T06:34:30.149Z</time></trkpt><trkpt lat="42.4585547" lon="14.110766"><ele>162.0</ele><time>2026-05-02T06:34:31.149Z</time></trkpt><trkpt lat="42.4584663" lon="14.1109157"><ele>162.0</ele><time>2026-05-02T06:34:32.148Z</time></trkpt><trkpt lat="42.4583871" lon="14.1110498"><ele>162.0</ele><time>2026-05-02T06:34:33.148Z</time></trkpt><trkpt lat="42.4583005" lon="14.1111643"><ele>162.0</ele><time>2026-05-02T06:34:34.149Z</time></trkpt><trkpt lat="42.4582093" lon="14.111242"><ele>162.0</ele><time>2026-05-02T06:34:35.148Z</time></trkpt><trkpt lat="42.4581219" lon="14.1112541"><ele>162.0</ele><time>2026-05-02T06:34:36.149Z</time></trkpt><trkpt lat="42.4580495" lon="14.1112156"><ele>162.0</ele><time>2026-05-02T06:34:37.148Z</time></trkpt><trkpt lat="42.4579926" lon="14.1111253"><ele>162.0</ele><time>2026-05-02T06:34:38.148Z</time></trkpt><trkpt lat="42.457949" lon="14.11101"><ele>162.0</ele><time>2026-05-02T06:34:39.149Z</time></trkpt><trkpt lat="42.4579122" lon="14.1108984"><ele>162.0</ele><time>2026-05-02T06:34:40.149Z</time></trkpt><trkpt lat="42.4578661" lon="14.1108233"><ele>164.6</ele><time>2026-05-02T06:34:41.149Z</time></trkpt><trkpt lat="42.4578092" lon="14.1107802"><ele>167.2</ele><time>2026-05-02T06:34:42.149Z</time></trkpt><trkpt lat="42.4577062" lon="14.1108438"><ele>169.8</ele><time>2026-05-02T06:34:44.148Z</time></trkpt><trkpt lat="42.4577061" lon="14.1110269"><ele>172.4</ele><time>2026-05-02T06:34:46.148Z</time></trkpt><trkpt lat="42.4577411" lon="14.1111569"><ele>175.0</ele><time>2026-05-02T06:34:47.149Z</time></trkpt><trkpt lat="42.4577814" lon="14.1113106"><ele>175.0</ele><time>2026-05-02T06:34:48.148Z</time></trkpt><trkpt lat="42.4578268" lon="14.1114867"><ele>175.0</ele><time>2026-05-02T06:34:49.149Z</time></trkpt><trkpt lat="42.4578744" lon="14.1116758"><ele>175.0</ele><time>2026-05-02T06:34:50.149Z</time></trkpt><trkpt lat="42.4579201" lon="14.1118671"><ele>175.0</ele><time>2026-05-02T06:34:51.148Z</time></trkpt><trkpt lat="42.457963" lon="14.1120482"><ele>175.0</ele><time>2026-05-02T06:34:52.149Z</time></trkpt><trkpt lat="42.4580057" lon="14.1122317"><ele>175.0</ele><time>2026-05-02T06:34:53.148Z</time></trkpt><trkpt lat="42.4580431" lon="14.1124103"><ele>175.0</ele><time>2026-05-02T06:34:54.149Z</time></trkpt><trkpt lat="42.4580742" lon="14.1125833"><ele>175.0</ele><time>2026-05-02T06:34:55.148Z</time></trkpt><trkpt lat="42.458096" lon="14.1127384"><ele>175.0</ele><time>2026-05-02T06:34:56.148Z</time></trkpt><trkpt lat="42.4581031" lon="14.1128829"><ele>175.0</ele><time>2026-05-02T06:34:57.148Z</time></trkpt><trkpt lat="42.4580934" lon="14.1130355"><ele>175.0</ele><time>2026-05-02T06:34:58.149Z</time></trkpt><trkpt lat="42.4580598" lon="14.1131811"><ele>175.0</ele><time>2026-05-02T06:34:59.149Z</time></trkpt><trkpt lat="42.458008" lon="14.1133267"><ele>175.75</ele><time>2026-05-02T06:35:00.148Z</time></trkpt><trkpt lat="42.4579585" lon="14.1134784"><ele>176.5</ele><time>2026-05-02T06:35:01.149Z</time></trkpt><trkpt lat="42.457926" lon="14.1136418"><ele>177.25</ele><time>2026-05-02T06:35:02.149Z</time></trkpt><trkpt lat="42.4579125" lon="14.1138125"><ele>178.0</ele><time>2026-05-02T06:35:03.149Z</time></trkpt><trkpt lat="42.4579154" lon="14.1139894"><ele>175.5</ele><time>2026-05-02T06:35:04.148Z</time></trkpt><trkpt lat="42.4579189" lon="14.1141728"><ele>173.0</ele><time>2026-05-02T06:35:05.15Z</time></trkpt><trkpt lat="42.4579155" lon="14.1143626"><ele>170.5</ele><time>2026-05-02T06:35:06.15Z</time></trkpt><trkpt lat="42.4579023" lon="14.1145328"><ele>168.0</ele><time>2026-05-02T06:35:07.149Z</time></trkpt><trkpt lat="42.4578762" lon="14.1146947"><ele>168.0</ele><time>2026-05-02T06:35:08.149Z</time></trkpt><trkpt lat="42.4578414" lon="14.1148521"><ele>168.0</ele><time>2026-05-02T06:35:09.149Z</time></trkpt><trkpt lat="42.4578122" lon="14.1150076"><ele>168.0</ele><time>2026-05-02T06:35:10.148Z</time></trkpt><trkpt lat="42.4577988" lon="14.1151564"><ele>168.0</ele><time>2026-05-02T06:35:11.148Z</time></trkpt><trkpt lat="42.4578073" lon="14.115306"><ele>167.75</ele><time>2026-05-02T06:35:12.148Z</time></trkpt><trkpt lat="42.4578521" lon="14.1154454"><ele>167.5</ele><time>2026-05-02T06:35:13.148Z</time></trkpt><trkpt lat="42.4579306" lon="14.1155754"><ele>167.25</ele><time>2026-05-02T06:35:14.149Z</time></trkpt><trkpt lat="42.4580342" lon="14.115695"><ele>167.0</ele><time>2026-05-02T06:35:15.149Z</time></trkpt><trkpt lat="42.4581503" lon="14.1158155"><ele>167.0</ele><time>2026-05-02T06:35:16.148Z</time></trkpt><trkpt lat="42.4582693" lon="14.1159467"><ele>167.0</ele><time>2026-05-02T06:35:17.149Z</time></trkpt><trkpt lat="42.4583841" lon="14.1160777"><ele>167.0</ele><time>2026-05-02T06:35:18.149Z</time></trkpt><trkpt lat="42.4584892" lon="14.1162107"><ele>167.0</ele><time>2026-05-02T06:35:19.148Z</time></trkpt><trkpt lat="42.4586008" lon="14.1163431"><ele>167.0</ele><time>2026-05-02T06:35:20.148Z</time></trkpt><trkpt lat="42.4587139" lon="14.1164624"><ele>167.0</ele><time>2026-05-02T06:35:21.148Z</time></trkpt><trkpt lat="42.4588406" lon="14.1165842"><ele>167.0</ele><time>2026-05-02T06:35:22.149Z</time></trkpt><trkpt lat="42.4589806" lon="14.1167099"><ele>165.66666666666666</ele><time>2026-05-02T06:35:23.15Z</time></trkpt><trkpt lat="42.459122" lon="14.1168288"><ele>164.33333333333334</ele><time>2026-05-02T06:35:24.148Z</time></trkpt><trkpt lat="42.4592591" lon="14.1169465"><ele>163.0</ele><time>2026-05-02T06:35:25.148Z</time></trkpt><trkpt lat="42.4593973" lon="14.1170633"><ele>163.0</ele><time>2026-05-02T06:35:26.149Z</time></trkpt><trkpt lat="42.4595257" lon="14.1171691"><ele>163.0</ele><time>2026-05-02T06:35:27.15Z</time></trkpt><trkpt lat="42.4596465" lon="14.1172661"><ele>163.0</ele><time>2026-05-02T06:35:28.149Z</time></trkpt><trkpt lat="42.4597622" lon="14.1173641"><ele>163.0</ele><time>2026-05-02T06:35:29.149Z</time></trkpt><trkpt lat="42.4598736" lon="14.1174592"><ele>162.25</ele><time>2026-05-02T06:35:30.148Z</time></trkpt><trkpt lat="42.459982" lon="14.117549"><ele>161.5</ele><time>2026-05-02T06:35:31.149Z</time></trkpt><trkpt lat="42.4600915" lon="14.1176412"><ele>160.75</ele><time>2026-05-02T06:35:32.148Z</time></trkpt><trkpt lat="42.4601821" lon="14.1177157"><ele>160.0</ele><time>2026-05-02T06:35:33.148Z</time></trkpt><trkpt lat="42.4602782" lon="14.1178018"><ele>160.0</ele><time>2026-05-02T06:35:34.148Z</time></trkpt><trkpt lat="42.4603598" lon="14.1178974"><ele>160.0</ele><time>2026-05-02T06:35:35.149Z</time></trkpt><trkpt lat="42.4604249" lon="14.1180019"><ele>160.0</ele><time>2026-05-02T06:35:36.149Z</time></trkpt><trkpt lat="42.4604713" lon="14.1181262"><ele>160.0</ele><time>2026-05-02T06:35:37.149Z</time></trkpt><trkpt lat="42.4604915" lon="14.1182772"><ele>160.0</ele><time>2026-05-02T06:35:38.15Z</time></trkpt><trkpt lat="42.4604893" lon="14.1184426"><ele>160.0</ele><time>2026-05-02T06:35:39.148Z</time></trkpt><trkpt lat="42.4604678" lon="14.1186137"><ele>160.0</ele><time>2026-05-02T06:35:40.148Z</time></trkpt><trkpt lat="42.4604322" lon="14.1187799"><ele>160.0</ele><time>2026-05-02T06:35:41.148Z</time></trkpt><trkpt lat="42.4603889" lon="14.1189377"><ele>160.0</ele><time>2026-05-02T06:35:42.148Z</time></trkpt><trkpt lat="42.4603481" lon="14.1190754"><ele>160.0</ele><time>2026-05-02T06:35:43.148Z</time></trkpt><trkpt lat="42.4603069" lon="14.119198"><ele>160.0</ele><time>2026-05-02T06:35:44.148Z</time></trkpt><trkpt lat="42.4602596" lon="14.1193125"><ele>160.0</ele><time>2026-05-02T06:35:45.149Z</time></trkpt><trkpt lat="42.4602125" lon="14.1194195"><ele>160.0</ele><time>2026-05-02T06:35:46.149Z</time></trkpt><trkpt lat="42.4601629" lon="14.1195063"><ele>160.0</ele><time>2026-05-02T06:35:47.148Z</time></trkpt><trkpt lat="42.4601085" lon="14.1195769"><ele>160.0</ele><time>2026-05-02T06:35:48.149Z</time></trkpt><trkpt lat="42.4600386" lon="14.1196407"><ele>160.0</ele><time>2026-05-02T06:35:49.15Z</time></trkpt><trkpt lat="42.4599646" lon="14.1197086"><ele>160.0</ele><time>2026-05-02T06:35:50.149Z</time></trkpt><trkpt lat="42.4598972" lon="14.1197774"><ele>160.0</ele><time>2026-05-02T06:35:51.148Z</time></trkpt><trkpt lat="42.4598607" lon="14.1199011"><ele>160.0</ele><time>2026-05-02T06:35:52.149Z</time></trkpt><trkpt lat="42.4598124" lon="14.1200319"><ele>160.0</ele><time>2026-05-02T06:35:53.15Z</time></trkpt><trkpt lat="42.459742" lon="14.1201475"><ele>160.0</ele><time>2026-05-02T06:35:54.149Z</time></trkpt><trkpt lat="42.4596392" lon="14.1202638"><ele>160.0</ele><time>2026-05-02T06:35:55.148Z</time></trkpt><trkpt lat="42.4595204" lon="14.1203866"><ele>160.0</ele><time>2026-05-02T06:35:56.148Z</time></trkpt><trkpt lat="42.4593942" lon="14.1205192"><ele>160.0</ele><time>2026-05-02T06:35:57.148Z</time></trkpt><trkpt lat="42.4592668" lon="14.1206502"><ele>160.0</ele><time>2026-05-02T06:35:58.148Z</time></trkpt><trkpt lat="42.4591535" lon="14.1207711"><ele>160.0</ele><time>2026-05-02T06:35:59.148Z</time></trkpt><trkpt lat="42.4590604" lon="14.12087"><ele>160.0</ele><time>2026-05-02T06:36:00.148Z</time></trkpt><trkpt lat="42.4589797" lon="14.1209634"><ele>160.0</ele><time>2026-05-02T06:36:01.148Z</time></trkpt><trkpt lat="42.4589262" lon="14.1210215"><ele>160.0</ele><time>2026-05-02T06:36:02.148Z</time></trkpt><trkpt lat="42.458838" lon="14.1210198"><ele>160.2</ele><time>2026-05-02T06:36:05.149Z</time></trkpt><trkpt lat="42.4587719" lon="14.1209405"><ele>160.4</ele><time>2026-05-02T06:36:07.148Z</time></trkpt><trkpt lat="42.4586842" lon="14.1208398"><ele>160.60000000000002</ele><time>2026-05-02T06:36:09.149Z</time></trkpt><trkpt lat="42.458598" lon="14.1207506"><ele>160.8</ele><time>2026-05-02T06:36:11.149Z</time></trkpt><trkpt lat="42.4585406" lon="14.1206911"><ele>161.0</ele><time>2026-05-02T06:36:12.148Z</time></trkpt><trkpt lat="42.4584765" lon="14.1206294"><ele>159.5</ele><time>2026-05-02T06:36:13.148Z</time></trkpt><trkpt lat="42.4584168" lon="14.1205665"><ele>158.0</ele><time>2026-05-02T06:36:14.148Z</time></trkpt><trkpt lat="42.4583591" lon="14.1204966"><ele>156.5</ele><time>2026-05-02T06:36:15.148Z</time></trkpt><trkpt lat="42.4583" lon="14.1204319"><ele>155.0</ele><time>2026-05-02T06:36:16.148Z</time></trkpt><trkpt lat="42.4582409" lon="14.1203659"><ele>153.5</ele><time>2026-05-02T06:36:17.148Z</time></trkpt><trkpt lat="42.4581838" lon="14.1203038"><ele>152.0</ele><time>2026-05-02T06:36:18.148Z</time></trkpt><trkpt lat="42.4581278" lon="14.1202418"><ele>152.0</ele><time>2026-05-02T06:36:19.148Z</time></trkpt><trkpt lat="42.4580739" lon="14.1201796"><ele>152.0</ele><time>2026-05-02T06:36:20.149Z</time></trkpt><trkpt lat="42.4580179" lon="14.1201083"><ele>152.0</ele><time>2026-05-02T06:36:21.148Z</time></trkpt><trkpt lat="42.457963" lon="14.1200234"><ele>152.0</ele><time>2026-05-02T06:36:22.148Z</time></trkpt><trkpt lat="42.4579002" lon="14.1199398"><ele>152.0</ele><time>2026-05-02T06:36:23.148Z</time></trkpt><trkpt lat="42.4578345" lon="14.1198424"><ele>152.0</ele><time>2026-05-02T06:36:24.148Z</time></trkpt><trkpt lat="42.4577828" lon="14.1197466"><ele>148.0</ele><time>2026-05-02T06:36:25.15Z</time></trkpt><trkpt lat="42.4577237" lon="14.1196671"><ele>144.0</ele><time>2026-05-02T06:36:26.148Z</time></trkpt><trkpt lat="42.4576733" lon="14.1195895"><ele>140.0</ele><time>2026-05-02T06:36:27.149Z</time></trkpt><trkpt lat="42.4576244" lon="14.1195247"><ele>136.0</ele><time>2026-05-02T06:36:28.148Z</time></trkpt><trkpt lat="42.4575393" lon="14.1194185"><ele>132.0</ele><time>2026-05-02T06:36:30.148Z</time></trkpt><trkpt lat="42.4574518" lon="14.1193235"><ele>132.0</ele><time>2026-05-02T06:36:32.147Z</time></trkpt><trkpt lat="42.4573559" lon="14.1192725"><ele>132.0</ele><time>2026-05-02T06:36:34.147Z</time></trkpt><trkpt lat="42.4572497" lon="14.1192631"><ele>132.0</ele><time>2026-05-02T06:36:36.147Z</time></trkpt><trkpt lat="42.4571578" lon="14.1192533"><ele>132.0</ele><time>2026-05-02T06:36:38.148Z</time></trkpt><trkpt lat="42.4570761" lon="14.1192511"><ele>132.0</ele><time>2026-05-02T06:36:41.148Z</time></trkpt><trkpt lat="42.4570082" lon="14.1192598"><ele>130.4</ele><time>2026-05-02T06:36:46.148Z</time></trkpt><trkpt lat="42.4569405" lon="14.1192699"><ele>128.79999999999998</ele><time>2026-05-02T06:36:50.147Z</time></trkpt><trkpt lat="42.4568221" lon="14.1192719"><ele>127.2</ele><time>2026-05-02T06:36:52.147Z</time></trkpt><trkpt lat="42.4567549" lon="14.1192833"><ele>125.6</ele><time>2026-05-02T06:36:53.147Z</time></trkpt><trkpt lat="42.4566407" lon="14.1193136"><ele>124.0</ele><time>2026-05-02T06:36:55.148Z</time></trkpt><trkpt lat="42.4565358" lon="14.119324"><ele>124.0</ele><time>2026-05-02T06:36:57.147Z</time></trkpt><trkpt lat="42.4564413" lon="14.1193128"><ele>124.0</ele><time>2026-05-02T06:36:59.148Z</time></trkpt><trkpt lat="42.4563493" lon="14.1193128"><ele>124.0</ele><time>2026-05-02T06:37:01.147Z</time></trkpt><trkpt lat="42.456246" lon="14.11933"><ele>124.0</ele><time>2026-05-02T06:37:03.149Z</time></trkpt><trkpt lat="42.4561678" lon="14.1193257"><ele>124.0</ele><time>2026-05-02T06:37:10.147Z</time></trkpt><trkpt lat="42.4560854" lon="14.1193216"><ele>123.16666666666667</ele><time>2026-05-02T06:37:15.148Z</time></trkpt><trkpt lat="42.4560034" lon="14.1193166"><ele>122.33333333333334</ele><time>2026-05-02T06:37:19.148Z</time></trkpt><trkpt lat="42.4559227" lon="14.1192934"><ele>121.5</ele><time>2026-05-02T06:37:22.148Z</time></trkpt><trkpt lat="42.4558382" lon="14.1192581"><ele>120.66666666666666</ele><time>2026-05-02T06:37:25.148Z</time></trkpt><trkpt lat="42.4557574" lon="14.1192227"><ele>119.83333333333333</ele><time>2026-05-02T06:37:28.147Z</time></trkpt><trkpt lat="42.4556879" lon="14.1192049"><ele>119.0</ele><time>2026-05-02T06:37:30.148Z</time></trkpt><trkpt lat="42.4556196" lon="14.1191974"><ele>118.99999999999999</ele><time>2026-05-02T06:37:32.148Z</time></trkpt><trkpt lat="42.4555303" lon="14.1192094"><ele>119.0</ele><time>2026-05-02T06:37:35.147Z</time></trkpt><trkpt lat="42.4554323" lon="14.1192089"><ele>119.0</ele><time>2026-05-02T06:37:38.148Z</time></trkpt><trkpt lat="42.4553655" lon="14.1192058"><ele>119.0</ele><time>2026-05-02T06:37:40.148Z</time></trkpt><trkpt lat="42.4553018" lon="14.1192242"><ele>118.99999999999999</ele><time>2026-05-02T06:37:42.148Z</time></trkpt><trkpt lat="42.4552167" lon="14.1192396"><ele>119.0</ele><time>2026-05-02T06:37:45.147Z</time></trkpt><trkpt lat="42.4551418" lon="14.1192202"><ele>118.16666666666666</ele><time>2026-05-02T06:37:48.147Z</time></trkpt><trkpt lat="42.4550704" lon="14.1192056"><ele>117.33333333333333</ele><time>2026-05-02T06:37:51.148Z</time></trkpt><trkpt lat="42.4549871" lon="14.1191968"><ele>116.5</ele><time>2026-05-02T06:38:00.147Z</time></trkpt><trkpt lat="42.4548884" lon="14.1191645"><ele>115.66666666666666</ele><time>2026-05-02T06:38:03.147Z</time></trkpt><trkpt lat="42.4548237" lon="14.1191197"><ele>114.83333333333333</ele><time>2026-05-02T06:38:05.147Z</time></trkpt><trkpt lat="42.4547945" lon="14.1190083"><ele>114.0</ele><time>2026-05-02T06:38:08.148Z</time></trkpt><trkpt lat="42.454811" lon="14.1188607"><ele>114.33333333333333</ele><time>2026-05-02T06:38:10.148Z</time></trkpt><trkpt lat="42.4548235" lon="14.1187606"><ele>114.66666666666666</ele><time>2026-05-02T06:38:11.147Z</time></trkpt><trkpt lat="42.4548342" lon="14.1186577"><ele>115.0</ele><time>2026-05-02T06:38:12.147Z</time></trkpt><trkpt lat="42.4548619" lon="14.1185727"><ele>115.33333333333333</ele><time>2026-05-02T06:38:13.147Z</time></trkpt><trkpt lat="42.4548791" lon="14.1183942"><ele>115.66666666666666</ele><time>2026-05-02T06:38:15.148Z</time></trkpt><trkpt lat="42.454884" lon="14.1183052"><ele>116.0</ele><time>2026-05-02T06:38:16.148Z</time></trkpt><trkpt lat="42.4548921" lon="14.1182121"><ele>116.00000000000001</ele><time>2026-05-02T06:38:17.148Z</time></trkpt><trkpt lat="42.4549068" lon="14.1181212"><ele>116.0</ele><time>2026-05-02T06:38:18.147Z</time></trkpt><trkpt lat="42.4549269" lon="14.1180354"><ele>116.00000000000001</ele><time>2026-05-02T06:38:19.148Z</time></trkpt><trkpt lat="42.4549439" lon="14.1179466"><ele>116.00000000000001</ele><time>2026-05-02T06:38:20.147Z</time></trkpt><trkpt lat="42.4549601" lon="14.1178475"><ele>116.0</ele><time>2026-05-02T06:38:21.148Z</time></trkpt><trkpt lat="42.4549708" lon="14.1177428"><ele>116.00000000000001</ele><time>2026-05-02T06:38:22.148Z</time></trkpt><trkpt lat="42.454979" lon="14.1176373"><ele>116.00000000000001</ele><time>2026-05-02T06:38:23.148Z</time></trkpt><trkpt lat="42.4549849" lon="14.1175439"><ele>117.4</ele><time>2026-05-02T06:38:24.147Z</time></trkpt><trkpt lat="42.4549913" lon="14.1173831"><ele>118.8</ele><time>2026-05-02T06:38:26.147Z</time></trkpt><trkpt lat="42.4549857" lon="14.1172654"><ele>120.20000000000002</ele><time>2026-05-02T06:38:28.147Z</time></trkpt><trkpt lat="42.4548904" lon="14.1172086"><ele>121.60000000000001</ele><time>2026-05-02T06:38:31.147Z</time></trkpt><trkpt lat="42.4547799" lon="14.1171667"><ele>123.0</ele><time>2026-05-02T06:38:33.148Z</time></trkpt><trkpt lat="42.4547143" lon="14.1171538"><ele>123.0</ele><time>2026-05-02T06:38:34.148Z</time></trkpt><trkpt lat="42.4546442" lon="14.1171318"><ele>123.00000000000001</ele><time>2026-05-02T06:38:35.148Z</time></trkpt><trkpt lat="42.4545588" lon="14.1171129"><ele>123.00000000000001</ele><time>2026-05-02T06:38:36.147Z</time></trkpt><trkpt lat="42.4544625" lon="14.1170895"><ele>123.0</ele><time>2026-05-02T06:38:37.147Z</time></trkpt><trkpt lat="42.4543606" lon="14.1170661"><ele>123.0</ele><time>2026-05-02T06:38:38.148Z</time></trkpt><trkpt lat="42.4542486" lon="14.1170494"><ele>123.4</ele><time>2026-05-02T06:38:39.147Z</time></trkpt><trkpt lat="42.4541354" lon="14.1170282"><ele>123.80000000000001</ele><time>2026-05-02T06:38:40.148Z</time></trkpt><trkpt lat="42.4540251" lon="14.1170054"><ele>124.2</ele><time>2026-05-02T06:38:41.148Z</time></trkpt><trkpt lat="42.453926" lon="14.1169898"><ele>124.6</ele><time>2026-05-02T06:38:42.148Z</time></trkpt><trkpt lat="42.4538377" lon="14.1169749"><ele>125.0</ele><time>2026-05-02T06:38:43.148Z</time></trkpt><trkpt lat="42.4537527" lon="14.1169791"><ele>125.4</ele><time>2026-05-02T06:38:44.148Z</time></trkpt><trkpt lat="42.4536712" lon="14.1169851"><ele>125.8</ele><time>2026-05-02T06:38:45.148Z</time></trkpt><trkpt lat="42.4536016" lon="14.1170071"><ele>126.19999999999999</ele><time>2026-05-02T06:38:46.147Z</time></trkpt><trkpt lat="42.4535256" lon="14.117035"><ele>126.6</ele><time>2026-05-02T06:38:47.147Z</time></trkpt><trkpt lat="42.4534341" lon="14.1171662"><ele>127.0</ele><time>2026-05-02T06:38:48.147Z</time></trkpt><trkpt lat="42.4533464" lon="14.1172407"><ele>127.0</ele><time>2026-05-02T06:38:49.147Z</time></trkpt><trkpt lat="42.45326" lon="14.1173012"><ele>126.99999999999999</ele><time>2026-05-02T06:38:50.147Z</time></trkpt><trkpt lat="42.4531684" lon="14.1173452"><ele>126.99999999999999</ele><time>2026-05-02T06:38:51.148Z</time></trkpt><trkpt lat="42.4530771" lon="14.117374"><ele>127.0</ele><time>2026-05-02T06:38:52.149Z</time></trkpt><trkpt lat="42.4529662" lon="14.117394"><ele>127.0</ele><time>2026-05-02T06:38:53.147Z</time></trkpt><trkpt lat="42.4528631" lon="14.1174027"><ele>127.50000000000001</ele><time>2026-05-02T06:38:54.147Z</time></trkpt><trkpt lat="42.4527597" lon="14.1174004"><ele>128.0</ele><time>2026-05-02T06:38:55.148Z</time></trkpt><trkpt lat="42.4526772" lon="14.1173822"><ele>128.5</ele><time>2026-05-02T06:38:56.147Z</time></trkpt><trkpt lat="42.4525988" lon="14.1173515"><ele>129.0</ele><time>2026-05-02T06:38:57.147Z</time></trkpt><trkpt lat="42.4525674" lon="14.1172644"><ele>129.5</ele><time>2026-05-02T06:38:58.148Z</time></trkpt><trkpt lat="42.4525183" lon="14.1171602"><ele>130.0</ele><time>2026-05-02T06:38:59.149Z</time></trkpt><trkpt lat="42.4524567" lon="14.1170341"><ele>130.0</ele><time>2026-05-02T06:39:00.147Z</time></trkpt><trkpt lat="42.4523981" lon="14.1168908"><ele>130.0</ele><time>2026-05-02T06:39:01.147Z</time></trkpt><trkpt lat="42.4523463" lon="14.1167784"><ele>130.0</ele><time>2026-05-02T06:39:02.147Z</time></trkpt><trkpt lat="42.4522967" lon="14.1166783"><ele>130.0</ele><time>2026-05-02T06:39:03.147Z</time></trkpt><trkpt lat="42.4522273" lon="14.1165814"><ele>130.0</ele><time>2026-05-02T06:39:04.147Z</time></trkpt><trkpt lat="42.4521472" lon="14.1164985"><ele>131.4</ele><time>2026-05-02T06:39:05.147Z</time></trkpt><trkpt lat="42.4520809" lon="14.1164406"><ele>132.8</ele><time>2026-05-02T06:39:06.148Z</time></trkpt><trkpt lat="42.4520034" lon="14.1164031"><ele>134.2</ele><time>2026-05-02T06:39:07.147Z</time></trkpt><trkpt lat="42.4519056" lon="14.1163869"><ele>135.6</ele><time>2026-05-02T06:39:08.148Z</time></trkpt><trkpt lat="42.4517971" lon="14.1163754"><ele>137.0</ele><time>2026-05-02T06:39:09.148Z</time></trkpt><trkpt lat="42.4517118" lon="14.1163766"><ele>137.0</ele><time>2026-05-02T06:39:10.148Z</time></trkpt><trkpt lat="42.4516119" lon="14.1163889"><ele>137.0</ele><time>2026-05-02T06:39:11.147Z</time></trkpt><trkpt lat="42.4515085" lon="14.1163914"><ele>137.0</ele><time>2026-05-02T06:39:12.148Z</time></trkpt><trkpt lat="42.4514132" lon="14.1163779"><ele>137.0</ele><time>2026-05-02T06:39:13.148Z</time></trkpt><trkpt lat="42.4513268" lon="14.1163484"><ele>137.0</ele><time>2026-05-02T06:39:14.147Z</time></trkpt><trkpt lat="42.4512579" lon="14.1163106"><ele>133.2</ele><time>2026-05-02T06:39:15.147Z</time></trkpt><trkpt lat="42.451172" lon="14.1162306"><ele>129.39999999999998</ele><time>2026-05-02T06:39:17.147Z</time></trkpt><trkpt lat="42.4511064" lon="14.1161831"><ele>125.60000000000001</ele><time>2026-05-02T06:39:19.148Z</time></trkpt><trkpt lat="42.4510309" lon="14.1161982"><ele>121.80000000000001</ele><time>2026-05-02T06:39:21.147Z</time></trkpt><trkpt lat="42.4509423" lon="14.1162343"><ele>118.0</ele><time>2026-05-02T06:39:23.147Z</time></trkpt><trkpt lat="42.4508284" lon="14.1162836"><ele>118.0</ele><time>2026-05-02T06:39:25.147Z</time></trkpt><trkpt lat="42.4507149" lon="14.116353"><ele>118.0</ele><time>2026-05-02T06:39:27.149Z</time></trkpt><trkpt lat="42.4506122" lon="14.1164196"><ele>118.0</ele><time>2026-05-02T06:39:29.149Z</time></trkpt><trkpt lat="42.4505148" lon="14.116508"><ele>118.0</ele><time>2026-05-02T06:39:31.147Z</time></trkpt><trkpt lat="42.4504089" lon="14.1166134"><ele>116.16666666666667</ele><time>2026-05-02T06:39:33.147Z</time></trkpt><trkpt lat="42.4503543" lon="14.1166718"><ele>114.33333333333334</ele><time>2026-05-02T06:39:34.147Z</time></trkpt><trkpt lat="42.4502987" lon="14.1167288"><ele>112.5</ele><time>2026-05-02T06:39:35.148Z</time></trkpt><trkpt lat="42.4502442" lon="14.116785"><ele>110.66666666666666</ele><time>2026-05-02T06:39:36.148Z</time></trkpt><trkpt lat="42.4501916" lon="14.1168429"><ele>108.83333333333333</ele><time>2026-05-02T06:39:37.148Z</time></trkpt><trkpt lat="42.4500941" lon="14.1169361"><ele>107.0</ele><time>2026-05-02T06:39:39.148Z</time></trkpt><trkpt lat="42.4499859" lon="14.1170174"><ele>106.99999999999999</ele><time>2026-05-02T06:39:41.148Z</time></trkpt><trkpt lat="42.4499238" lon="14.1170672"><ele>107.0</ele><time>2026-05-02T06:39:42.148Z</time></trkpt><trkpt lat="42.4498465" lon="14.1171113"><ele>107.0</ele><time>2026-05-02T06:39:43.148Z</time></trkpt><trkpt lat="42.4497648" lon="14.1171581"><ele>107.0</ele><time>2026-05-02T06:39:44.147Z</time></trkpt><trkpt lat="42.4496773" lon="14.1171955"><ele>106.99999999999999</ele><time>2026-05-02T06:39:45.148Z</time></trkpt><trkpt lat="42.4495843" lon="14.1172232"><ele>107.0</ele><time>2026-05-02T06:39:46.148Z</time></trkpt><trkpt lat="42.4494906" lon="14.117234"><ele>105.0</ele><time>2026-05-02T06:39:47.148Z</time></trkpt><trkpt lat="42.4493929" lon="14.1172267"><ele>102.99999999999999</ele><time>2026-05-02T06:39:48.149Z</time></trkpt><trkpt lat="42.4492784" lon="14.1172027"><ele>101.0</ele><time>2026-05-02T06:39:49.148Z</time></trkpt><trkpt lat="42.4491632" lon="14.1171713"><ele>99.0</ele><time>2026-05-02T06:39:50.148Z</time></trkpt><trkpt lat="42.4490685" lon="14.1171434"><ele>97.0</ele><time>2026-05-02T06:39:51.148Z</time></trkpt><trkpt lat="42.4489895" lon="14.1171214"><ele>97.00000000000001</ele><time>2026-05-02T06:39:52.147Z</time></trkpt><trkpt lat="42.4489176" lon="14.1170997"><ele>97.0</ele><time>2026-05-02T06:39:53.147Z</time></trkpt><trkpt lat="42.4488523" lon="14.1170805"><ele>97.0</ele><time>2026-05-02T06:39:54.147Z</time></trkpt><trkpt lat="42.4487353" lon="14.1170792"><ele>97.0</ele><time>2026-05-02T06:39:56.148Z</time></trkpt><trkpt lat="42.44864" lon="14.1170741"><ele>97.00000000000001</ele><time>2026-05-02T06:39:58.148Z</time></trkpt><trkpt lat="42.4485796" lon="14.1171201"><ele>97.0</ele><time>2026-05-02T06:40:00.147Z</time></trkpt><trkpt lat="42.4485342" lon="14.1172212"><ele>96.6</ele><time>2026-05-02T06:40:02.148Z</time></trkpt><trkpt lat="42.4484805" lon="14.1173814"><ele>96.19999999999999</ele><time>2026-05-02T06:40:04.147Z</time></trkpt><trkpt lat="42.4484866" lon="14.1175031"><ele>95.8</ele><time>2026-05-02T06:40:05.149Z</time></trkpt><trkpt lat="42.4484965" lon="14.1176714"><ele>95.4</ele><time>2026-05-02T06:40:07.147Z</time></trkpt><trkpt lat="42.4485236" lon="14.1177644"><ele>95.0</ele><time>2026-05-02T06:40:08.149Z</time></trkpt><trkpt lat="42.4485461" lon="14.1178697"><ele>93.8</ele><time>2026-05-02T06:40:09.148Z</time></trkpt><trkpt lat="42.4485574" lon="14.1180028"><ele>92.6</ele><time>2026-05-02T06:40:11.148Z</time></trkpt><trkpt lat="42.4485407" lon="14.1181421"><ele>91.4</ele><time>2026-05-02T06:40:13.148Z</time></trkpt><trkpt lat="42.448541" lon="14.1182466"><ele>90.2</ele><time>2026-05-02T06:40:14.149Z</time></trkpt><trkpt lat="42.4485571" lon="14.118361"><ele>89.0</ele><time>2026-05-02T06:40:15.147Z</time></trkpt><trkpt lat="42.448568" lon="14.1184762"><ele>89.0</ele><time>2026-05-02T06:40:16.148Z</time></trkpt><trkpt lat="42.4485794" lon="14.118579"><ele>89.0</ele><time>2026-05-02T06:40:17.147Z</time></trkpt><trkpt lat="42.4485855" lon="14.1186734"><ele>89.0</ele><time>2026-05-02T06:40:18.147Z</time></trkpt><trkpt lat="42.4485947" lon="14.1187605"><ele>89.0</ele><time>2026-05-02T06:40:19.147Z</time></trkpt><trkpt lat="42.44861" lon="14.1189083"><ele>89.0</ele><time>2026-05-02T06:40:21.148Z</time></trkpt><trkpt lat="42.4486236" lon="14.1190237"><ele>89.0</ele><time>2026-05-02T06:40:23.149Z</time></trkpt><trkpt lat="42.4486347" lon="14.1191381"><ele>90.4</ele><time>2026-05-02T06:40:25.147Z</time></trkpt><trkpt lat="42.4486404" lon="14.1193076"><ele>91.80000000000001</ele><time>2026-05-02T06:40:27.147Z</time></trkpt><trkpt lat="42.4486445" lon="14.1194738"><ele>93.19999999999999</ele><time>2026-05-02T06:40:29.149Z</time></trkpt><trkpt lat="42.4486488" lon="14.1196047"><ele>94.6</ele><time>2026-05-02T06:40:31.148Z</time></trkpt><trkpt lat="42.4486557" lon="14.1197172"><ele>96.0</ele><time>2026-05-02T06:40:33.148Z</time></trkpt><trkpt lat="42.4486601" lon="14.1198316"><ele>97.66666666666667</ele><time>2026-05-02T06:40:35.147Z</time></trkpt><trkpt lat="42.4486579" lon="14.1199263"><ele>99.33333333333334</ele><time>2026-05-02T06:40:37.147Z</time></trkpt><trkpt lat="42.448661" lon="14.1200645"><ele>101.0</ele><time>2026-05-02T06:40:40.148Z</time></trkpt><trkpt lat="42.4486641" lon="14.1201672"><ele>102.66666666666667</ele><time>2026-05-02T06:40:42.148Z</time></trkpt><trkpt lat="42.4486666" lon="14.1202666"><ele>104.33333333333334</ele><time>2026-05-02T06:40:44.148Z</time></trkpt><trkpt lat="42.4486637" lon="14.1203697"><ele>106.0</ele><time>2026-05-02T06:40:46.147Z</time></trkpt><trkpt lat="42.4486654" lon="14.1204654"><ele>106.00000000000001</ele><time>2026-05-02T06:40:48.148Z</time></trkpt><trkpt lat="42.4486687" lon="14.1205575"><ele>106.0</ele><time>2026-05-02T06:40:50.148Z</time></trkpt><trkpt lat="42.4486632" lon="14.1206712"><ele>106.0</ele><time>2026-05-02T06:40:52.149Z</time></trkpt><trkpt lat="42.448656" lon="14.1208064"><ele>106.0</ele><time>2026-05-02T06:40:54.147Z</time></trkpt><trkpt lat="42.4486563" lon="14.1209661"><ele>106.00000000000001</ele><time>2026-05-02T06:40:56.148Z</time></trkpt><trkpt lat="42.448654" lon="14.1210596"><ele>106.0</ele><time>2026-05-02T06:40:57.147Z</time></trkpt><trkpt lat="42.4486579" lon="14.1211608"><ele>108.4</ele><time>2026-05-02T06:40:59.147Z</time></trkpt><trkpt lat="42.4486704" lon="14.1212766"><ele>110.8</ele><time>2026-05-02T06:41:01.148Z</time></trkpt><trkpt lat="42.4486787" lon="14.1214158"><ele>113.20000000000002</ele><time>2026-05-02T06:41:03.148Z</time></trkpt><trkpt lat="42.4486822" lon="14.1215516"><ele>115.60000000000001</ele><time>2026-05-02T06:41:05.147Z</time></trkpt><trkpt lat="42.4486845" lon="14.1217301"><ele>118.0</ele><time>2026-05-02T06:41:07.147Z</time></trkpt><trkpt lat="42.4486871" lon="14.1218356"><ele>119.60000000000001</ele><time>2026-05-02T06:41:08.147Z</time></trkpt><trkpt lat="42.4487111" lon="14.1219645"><ele>121.20000000000002</ele><time>2026-05-02T06:41:09.147Z</time></trkpt><trkpt lat="42.44872" lon="14.1220542"><ele>122.8</ele><time>2026-05-02T06:41:10.148Z</time></trkpt><trkpt lat="42.4488146" lon="14.122219"><ele>124.4</ele><time>2026-05-02T06:41:12.147Z</time></trkpt><trkpt lat="42.4488318" lon="14.1223939"><ele>126.0</ele><time>2026-05-02T06:41:14.147Z</time></trkpt><trkpt lat="42.4488861" lon="14.1224957"><ele>126.66666666666667</ele><time>2026-05-02T06:41:16.147Z</time></trkpt><trkpt lat="42.4489" lon="14.1226014"><ele>127.33333333333334</ele><time>2026-05-02T06:41:19.148Z</time></trkpt><trkpt lat="42.4488193" lon="14.1226314"><ele>128.0</ele><time>2026-05-02T06:41:22.149Z</time></trkpt><trkpt lat="42.4487138" lon="14.1225875"><ele>128.66666666666669</ele><time>2026-05-02T06:41:24.148Z</time></trkpt><trkpt lat="42.4486401" lon="14.1225586"><ele>129.33333333333334</ele><time>2026-05-02T06:41:25.148Z</time></trkpt><trkpt lat="42.4485638" lon="14.1225184"><ele>130.0</ele><time>2026-05-02T06:41:26.148Z</time></trkpt><trkpt lat="42.4484715" lon="14.1224635"><ele>130.0</ele><time>2026-05-02T06:41:27.148Z</time></trkpt><trkpt lat="42.4483668" lon="14.1223997"><ele>130.0</ele><time>2026-05-02T06:41:28.147Z</time></trkpt><trkpt lat="42.4482564" lon="14.1223309"><ele>130.0</ele><time>2026-05-02T06:41:29.148Z</time></trkpt><trkpt lat="42.4481336" lon="14.1222533"><ele>130.0</ele><time>2026-05-02T06:41:30.148Z</time></trkpt><trkpt lat="42.4480096" lon="14.1221699"><ele>131.0</ele><time>2026-05-02T06:41:31.147Z</time></trkpt><trkpt lat="42.4479038" lon="14.1220958"><ele>132.0</ele><time>2026-05-02T06:41:32.147Z</time></trkpt><trkpt lat="42.4478043" lon="14.1220293"><ele>133.0</ele><time>2026-05-02T06:41:33.148Z</time></trkpt><trkpt lat="42.4477138" lon="14.1219655"><ele>134.0</ele><time>2026-05-02T06:41:34.147Z</time></trkpt><trkpt lat="42.4476398" lon="14.1219106"><ele>135.0</ele><time>2026-05-02T06:41:35.148Z</time></trkpt><trkpt lat="42.4475658" lon="14.1218578"><ele>135.0</ele><time>2026-05-02T06:41:36.147Z</time></trkpt><trkpt lat="42.4474831" lon="14.1218145"><ele>135.0</ele><time>2026-05-02T06:41:37.148Z</time></trkpt><trkpt lat="42.4473868" lon="14.1217827"><ele>135.0</ele><time>2026-05-02T06:41:38.147Z</time></trkpt><trkpt lat="42.4472714" lon="14.1217692"><ele>135.0</ele><time>2026-05-02T06:41:39.147Z</time></trkpt><trkpt lat="42.4471506" lon="14.121751"><ele>135.0</ele><time>2026-05-02T06:41:40.149Z</time></trkpt><trkpt lat="42.447037" lon="14.1217291"><ele>134.25</ele><time>2026-05-02T06:41:41.148Z</time></trkpt><trkpt lat="42.4469251" lon="14.121716"><ele>133.5</ele><time>2026-05-02T06:41:42.147Z</time></trkpt><trkpt lat="42.4468118" lon="14.1217099"><ele>132.75</ele><time>2026-05-02T06:41:43.147Z</time></trkpt><trkpt lat="42.4466917" lon="14.1217133"><ele>132.0</ele><time>2026-05-02T06:41:44.147Z</time></trkpt><trkpt lat="42.4465699" lon="14.1217366"><ele>132.0</ele><time>2026-05-02T06:41:45.148Z</time></trkpt><trkpt lat="42.4464494" lon="14.1217728"><ele>132.0</ele><time>2026-05-02T06:41:46.148Z</time></trkpt><trkpt lat="42.4463258" lon="14.1218081"><ele>132.0</ele><time>2026-05-02T06:41:47.147Z</time></trkpt><trkpt lat="42.4462067" lon="14.1218318"><ele>132.0</ele><time>2026-05-02T06:41:48.147Z</time></trkpt><trkpt lat="42.4460927" lon="14.1218551"><ele>131.2</ele><time>2026-05-02T06:41:49.147Z</time></trkpt><trkpt lat="42.4459827" lon="14.1218826"><ele>130.39999999999998</ele><time>2026-05-02T06:41:50.147Z</time></trkpt><trkpt lat="42.4458797" lon="14.1219136"><ele>129.60000000000002</ele><time>2026-05-02T06:41:51.148Z</time></trkpt><trkpt lat="42.4457824" lon="14.1219665"><ele>128.8</ele><time>2026-05-02T06:41:52.149Z</time></trkpt><trkpt lat="42.4456806" lon="14.1220446"><ele>128.0</ele><time>2026-05-02T06:41:53.147Z</time></trkpt><trkpt lat="42.4455858" lon="14.1221506"><ele>128.0</ele><time>2026-05-02T06:41:54.147Z</time></trkpt><trkpt lat="42.4454944" lon="14.1222771"><ele>128.0</ele><time>2026-05-02T06:41:55.148Z</time></trkpt><trkpt lat="42.445394" lon="14.1224007"><ele>128.0</ele><time>2026-05-02T06:41:56.148Z</time></trkpt><trkpt lat="42.4452836" lon="14.1225061"><ele>128.0</ele><time>2026-05-02T06:41:57.148Z</time></trkpt><trkpt lat="42.4451695" lon="14.1225849"><ele>127.5</ele><time>2026-05-02T06:41:58.148Z</time></trkpt><trkpt lat="42.4450571" lon="14.1226476"><ele>127.0</ele><time>2026-05-02T06:41:59.148Z</time></trkpt><trkpt lat="42.4449506" lon="14.1227127"><ele>126.5</ele><time>2026-05-02T06:42:00.148Z</time></trkpt><trkpt lat="42.4448511" lon="14.1227768"><ele>126.0</ele><time>2026-05-02T06:42:01.148Z</time></trkpt><trkpt lat="42.4447558" lon="14.122859"><ele>126.0</ele><time>2026-05-02T06:42:02.149Z</time></trkpt><trkpt lat="42.44466" lon="14.1229723"><ele>126.0</ele><time>2026-05-02T06:42:03.147Z</time></trkpt><trkpt lat="42.4445633" lon="14.1231024"><ele>126.0</ele><time>2026-05-02T06:42:04.147Z</time></trkpt><trkpt lat="42.4444711" lon="14.1232202"><ele>126.0</ele><time>2026-05-02T06:42:05.147Z</time></trkpt><trkpt lat="42.4443822" lon="14.1233156"><ele>124.6</ele><time>2026-05-02T06:42:06.147Z</time></trkpt><trkpt lat="42.4442919" lon="14.1233906"><ele>123.19999999999999</ele><time>2026-05-02T06:42:07.148Z</time></trkpt><trkpt lat="42.4441936" lon="14.123433"><ele>121.80000000000001</ele><time>2026-05-02T06:42:08.147Z</time></trkpt><trkpt lat="42.4440898" lon="14.1234359"><ele>120.4</ele><time>2026-05-02T06:42:09.148Z</time></trkpt><trkpt lat="42.4439824" lon="14.1234259"><ele>119.0</ele><time>2026-05-02T06:42:10.147Z</time></trkpt><trkpt lat="42.4438733" lon="14.1234304"><ele>117.0</ele><time>2026-05-02T06:42:11.147Z</time></trkpt><trkpt lat="42.4437489" lon="14.1234575"><ele>115.0</ele><time>2026-05-02T06:42:12.147Z</time></trkpt><trkpt lat="42.4436177" lon="14.1234954"><ele>113.0</ele><time>2026-05-02T06:42:13.148Z</time></trkpt><trkpt lat="42.44348" lon="14.1235374"><ele>111.0</ele><time>2026-05-02T06:42:14.147Z</time></trkpt><trkpt lat="42.4433272" lon="14.1235886"><ele>111.0</ele><time>2026-05-02T06:42:15.148Z</time></trkpt><trkpt lat="42.4431635" lon="14.1236433"><ele>111.0</ele><time>2026-05-02T06:42:16.148Z</time></trkpt><trkpt lat="42.442996" lon="14.1236993"><ele>111.0</ele><time>2026-05-02T06:42:17.147Z</time></trkpt><trkpt lat="42.4428358" lon="14.1237478"><ele>109.0</ele><time>2026-05-02T06:42:18.149Z</time></trkpt><trkpt lat="42.4426647" lon="14.1237989"><ele>107.0</ele><time>2026-05-02T06:42:19.148Z</time></trkpt><trkpt lat="42.442489" lon="14.1238495"><ele>105.0</ele><time>2026-05-02T06:42:20.148Z</time></trkpt><trkpt lat="42.4423142" lon="14.1238875"><ele>105.0</ele><time>2026-05-02T06:42:21.149Z</time></trkpt><trkpt lat="42.4421591" lon="14.1239139"><ele>105.0</ele><time>2026-05-02T06:42:22.148Z</time></trkpt><trkpt lat="42.4420043" lon="14.1239182"><ele>105.0</ele><time>2026-05-02T06:42:23.147Z</time></trkpt><trkpt lat="42.4418416" lon="14.1239104"><ele>105.25</ele><time>2026-05-02T06:42:24.147Z</time></trkpt><trkpt lat="42.4416963" lon="14.1238945"><ele>105.5</ele><time>2026-05-02T06:42:25.147Z</time></trkpt><trkpt lat="42.4415597" lon="14.1238688"><ele>105.75</ele><time>2026-05-02T06:42:26.147Z</time></trkpt><trkpt lat="42.4414299" lon="14.1238286"><ele>106.0</ele><time>2026-05-02T06:42:27.148Z</time></trkpt><trkpt lat="42.4412956" lon="14.1237637"><ele>106.0</ele><time>2026-05-02T06:42:28.148Z</time></trkpt><trkpt lat="42.4411493" lon="14.1236827"><ele>106.0</ele><time>2026-05-02T06:42:29.148Z</time></trkpt><trkpt lat="42.4409961" lon="14.1235918"><ele>106.0</ele><time>2026-05-02T06:42:30.148Z</time></trkpt><trkpt lat="42.4408427" lon="14.123496"><ele>106.0</ele><time>2026-05-02T06:42:31.148Z</time></trkpt><trkpt lat="42.4406944" lon="14.1234082"><ele>106.0</ele><time>2026-05-02T06:42:32.147Z</time></trkpt><trkpt lat="42.4405416" lon="14.1233396"><ele>106.0</ele><time>2026-05-02T06:42:33.149Z</time></trkpt><trkpt lat="42.4403805" lon="14.1232876"><ele>106.33333333333334</ele><time>2026-05-02T06:42:34.148Z</time></trkpt><trkpt lat="42.4402201" lon="14.1232473"><ele>106.66666666666666</ele><time>2026-05-02T06:42:35.148Z</time></trkpt><trkpt lat="42.4400697" lon="14.1232244"><ele>107.0</ele><time>2026-05-02T06:42:36.147Z</time></trkpt><trkpt lat="42.4399203" lon="14.1232127"><ele>107.0</ele><time>2026-05-02T06:42:37.147Z</time></trkpt><trkpt lat="42.4397785" lon="14.1232181"><ele>107.0</ele><time>2026-05-02T06:42:38.148Z</time></trkpt><trkpt lat="42.4396365" lon="14.1232468"><ele>107.0</ele><time>2026-05-02T06:42:39.147Z</time></trkpt><trkpt lat="42.4394931" lon="14.1232943"><ele>107.0</ele><time>2026-05-02T06:42:40.147Z</time></trkpt><trkpt lat="42.4393275" lon="14.1233698"><ele>98.0</ele><time>2026-05-02T06:42:41.148Z</time></trkpt><trkpt lat="42.4391675" lon="14.1234299"><ele>89.0</ele><time>2026-05-02T06:42:42.148Z</time></trkpt><trkpt lat="42.4390053" lon="14.1234677"><ele>80.0</ele><time>2026-05-02T06:42:43.148Z</time></trkpt><trkpt lat="42.4388385" lon="14.1234908"><ele>76.33333333333334</ele><time>2026-05-02T06:42:44.148Z</time></trkpt><trkpt lat="42.4386682" lon="14.1235168"><ele>72.66666666666667</ele><time>2026-05-02T06:42:45.147Z</time></trkpt><trkpt lat="42.438498" lon="14.123555"><ele>69.0</ele><time>2026-05-02T06:42:46.148Z</time></trkpt><trkpt lat="42.4383225" lon="14.1236102"><ele>69.0</ele><time>2026-05-02T06:42:47.148Z</time></trkpt><trkpt lat="42.4381508" lon="14.1236628"><ele>69.0</ele><time>2026-05-02T06:42:48.149Z</time></trkpt><trkpt lat="42.4379997" lon="14.1237067"><ele>69.0</ele><time>2026-05-02T06:42:49.148Z</time></trkpt><trkpt lat="42.4378667" lon="14.1237413"><ele>68.8</ele><time>2026-05-02T06:42:50.148Z</time></trkpt><trkpt lat="42.4377545" lon="14.1237625"><ele>68.60000000000001</ele><time>2026-05-02T06:42:51.147Z</time></trkpt><trkpt lat="42.4376578" lon="14.123752"><ele>68.4</ele><time>2026-05-02T06:42:52.147Z</time></trkpt><trkpt lat="42.4375569" lon="14.1237245"><ele>68.2</ele><time>2026-05-02T06:42:53.148Z</time></trkpt><trkpt lat="42.4374364" lon="14.1236721"><ele>68.0</ele><time>2026-05-02T06:42:54.147Z</time></trkpt><trkpt lat="42.4373408" lon="14.12366"><ele>68.0</ele><time>2026-05-02T06:42:55.148Z</time></trkpt><trkpt lat="42.4372602" lon="14.1236344"><ele>68.0</ele><time>2026-05-02T06:42:56.149Z</time></trkpt><trkpt lat="42.4371858" lon="14.1235907"><ele>68.0</ele><time>2026-05-02T06:42:57.148Z</time></trkpt><trkpt lat="42.4370911" lon="14.1235265"><ele>68.0</ele><time>2026-05-02T06:42:58.148Z</time></trkpt><trkpt lat="42.4369843" lon="14.1234595"><ele>68.0</ele><time>2026-05-02T06:42:59.148Z</time></trkpt><trkpt lat="42.4368593" lon="14.1233971"><ele>64.66666666666667</ele><time>2026-05-02T06:43:00.148Z</time></trkpt><trkpt lat="42.4367204" lon="14.123336"><ele>61.33333333333333</ele><time>2026-05-02T06:43:01.148Z</time></trkpt><trkpt lat="42.4365672" lon="14.1232858"><ele>58.0</ele><time>2026-05-02T06:43:02.148Z</time></trkpt><trkpt lat="42.4364171" lon="14.1232415"><ele>59.5</ele><time>2026-05-02T06:43:03.148Z</time></trkpt><trkpt lat="42.4362624" lon="14.1231994"><ele>61.0</ele><time>2026-05-02T06:43:04.148Z</time></trkpt><trkpt lat="42.4361127" lon="14.1231575"><ele>62.5</ele><time>2026-05-02T06:43:05.149Z</time></trkpt><trkpt lat="42.4359811" lon="14.123119"><ele>64.0</ele><time>2026-05-02T06:43:06.147Z</time></trkpt><trkpt lat="42.4358631" lon="14.1230817"><ele>64.0</ele><time>2026-05-02T06:43:07.147Z</time></trkpt><trkpt lat="42.4357481" lon="14.123071"><ele>64.0</ele><time>2026-05-02T06:43:08.147Z</time></trkpt><trkpt lat="42.4356355" lon="14.1230968"><ele>64.0</ele><time>2026-05-02T06:43:09.147Z</time></trkpt><trkpt lat="42.4355263" lon="14.1231564"><ele>64.0</ele><time>2026-05-02T06:43:10.149Z</time></trkpt><trkpt lat="42.435413" lon="14.1232616"><ele>64.66666666666666</ele><time>2026-05-02T06:43:11.148Z</time></trkpt><trkpt lat="42.4352951" lon="14.1233944"><ele>65.33333333333333</ele><time>2026-05-02T06:43:12.147Z</time></trkpt><trkpt lat="42.4351705" lon="14.1235421"><ele>66.0</ele><time>2026-05-02T06:43:13.147Z</time></trkpt><trkpt lat="42.4350371" lon="14.1237013"><ele>66.0</ele><time>2026-05-02T06:43:14.148Z</time></trkpt><trkpt lat="42.4349011" lon="14.1238715"><ele>66.0</ele><time>2026-05-02T06:43:15.149Z</time></trkpt><trkpt lat="42.4347586" lon="14.124048"><ele>66.0</ele><time>2026-05-02T06:43:16.147Z</time></trkpt><trkpt lat="42.4346177" lon="14.124234"><ele>65.33333333333333</ele><time>2026-05-02T06:43:17.147Z</time></trkpt><trkpt lat="42.4344746" lon="14.1244262"><ele>64.66666666666666</ele><time>2026-05-02T06:43:18.148Z</time></trkpt><trkpt lat="42.4343342" lon="14.1246252"><ele>64.0</ele><time>2026-05-02T06:43:19.148Z</time></trkpt><trkpt lat="42.4341947" lon="14.1248159"><ele>60.33333333333333</ele><time>2026-05-02T06:43:20.147Z</time></trkpt><trkpt lat="42.434069" lon="14.1249897"><ele>56.66666666666667</ele><time>2026-05-02T06:43:21.149Z</time></trkpt><trkpt lat="42.4339632" lon="14.125129"><ele>53.0</ele><time>2026-05-02T06:43:22.149Z</time></trkpt><trkpt lat="42.4338745" lon="14.1252559"><ele>53.0</ele><time>2026-05-02T06:43:23.147Z</time></trkpt><trkpt lat="42.4338083" lon="14.1253484"><ele>53.0</ele><time>2026-05-02T06:43:24.147Z</time></trkpt><trkpt lat="42.4337568" lon="14.1254013"><ele>53.0</ele><time>2026-05-02T06:43:25.147Z</time></trkpt><trkpt lat="42.4336541" lon="14.1253836"><ele>53.0</ele><time>2026-05-02T06:43:27.148Z</time></trkpt><trkpt lat="42.4335926" lon="14.1253212"><ele>53.0</ele><time>2026-05-02T06:43:28.148Z</time></trkpt><trkpt lat="42.4334873" lon="14.1252003"><ele>54.333333333333336</ele><time>2026-05-02T06:43:30.147Z</time></trkpt><trkpt lat="42.4334269" lon="14.125164"><ele>55.66666666666667</ele><time>2026-05-02T06:43:31.147Z</time></trkpt><trkpt lat="42.4333511" lon="14.1251373"><ele>57.0</ele><time>2026-05-02T06:43:33.147Z</time></trkpt><trkpt lat="42.433273" lon="14.1252075"><ele>58.33333333333333</ele><time>2026-05-02T06:43:35.148Z</time></trkpt><trkpt lat="42.433222" lon="14.1252689"><ele>59.666666666666664</ele><time>2026-05-02T06:43:36.148Z</time></trkpt><trkpt lat="42.4331572" lon="14.1253275"><ele>61.0</ele><time>2026-05-02T06:43:37.148Z</time></trkpt><trkpt lat="42.4330699" lon="14.1253957"><ele>61.4</ele><time>2026-05-02T06:43:38.148Z</time></trkpt><trkpt lat="42.4329701" lon="14.1254716"><ele>61.8</ele><time>2026-05-02T06:43:39.147Z</time></trkpt><trkpt lat="42.4328778" lon="14.1255424"><ele>62.199999999999996</ele><time>2026-05-02T06:43:40.148Z</time></trkpt><trkpt lat="42.4327845" lon="14.1256101"><ele>62.599999999999994</ele><time>2026-05-02T06:43:41.147Z</time></trkpt><trkpt lat="42.4327049" lon="14.1256752"><ele>63.0</ele><time>2026-05-02T06:43:42.147Z</time></trkpt><trkpt lat="42.4326356" lon="14.1257512"><ele>63.0</ele><time>2026-05-02T06:43:43.148Z</time></trkpt><trkpt lat="42.4325675" lon="14.1258243"><ele>63.0</ele><time>2026-05-02T06:43:44.148Z</time></trkpt><trkpt lat="42.4324947" lon="14.1258791"><ele>63.0</ele><time>2026-05-02T06:43:45.147Z</time></trkpt><trkpt lat="42.4324221" lon="14.1259278"><ele>63.0</ele><time>2026-05-02T06:43:46.148Z</time></trkpt><trkpt lat="42.4323383" lon="14.1259918"><ele>63.0</ele><time>2026-05-02T06:43:47.147Z</time></trkpt><trkpt lat="42.4322276" lon="14.126053"><ele>64.8</ele><time>2026-05-02T06:43:48.149Z</time></trkpt><trkpt lat="42.432129" lon="14.1261067"><ele>66.6</ele><time>2026-05-02T06:43:49.147Z</time></trkpt><trkpt lat="42.4320363" lon="14.1261672"><ele>68.4</ele><time>2026-05-02T06:43:50.147Z</time></trkpt><trkpt lat="42.4319498" lon="14.1262212"><ele>70.2</ele><time>2026-05-02T06:43:51.148Z</time></trkpt><trkpt lat="42.4318632" lon="14.1262627"><ele>72.0</ele><time>2026-05-02T06:43:52.147Z</time></trkpt><trkpt lat="42.4317715" lon="14.1262819"><ele>72.0</ele><time>2026-05-02T06:43:53.148Z</time></trkpt><trkpt lat="42.4316683" lon="14.1263044"><ele>72.0</ele><time>2026-05-02T06:43:54.148Z</time></trkpt><trkpt lat="42.4315589" lon="14.1263105"><ele>72.0</ele><time>2026-05-02T06:43:55.149Z</time></trkpt><trkpt lat="42.4314514" lon="14.1263331"><ele>72.0</ele><time>2026-05-02T06:43:56.148Z</time></trkpt><trkpt lat="42.4313287" lon="14.1263637"><ele>72.0</ele><time>2026-05-02T06:43:57.147Z</time></trkpt><trkpt lat="42.4312072" lon="14.1264005"><ele>72.8</ele><time>2026-05-02T06:43:58.148Z</time></trkpt><trkpt lat="42.431088" lon="14.126447"><ele>73.6</ele><time>2026-05-02T06:43:59.149Z</time></trkpt><trkpt lat="42.4309831" lon="14.126505"><ele>74.39999999999999</ele><time>2026-05-02T06:44:00.148Z</time></trkpt><trkpt lat="42.4308943" lon="14.1265691"><ele>75.2</ele><time>2026-05-02T06:44:01.148Z</time></trkpt><trkpt lat="42.4308036" lon="14.1266463"><ele>76.0</ele><time>2026-05-02T06:44:02.147Z</time></trkpt><trkpt lat="42.4307209" lon="14.1267392"><ele>76.0</ele><time>2026-05-02T06:44:03.148Z</time></trkpt><trkpt lat="42.4306408" lon="14.1268174"><ele>76.0</ele><time>2026-05-02T06:44:04.147Z</time></trkpt><trkpt lat="42.4305594" lon="14.1268729"><ele>76.0</ele><time>2026-05-02T06:44:05.147Z</time></trkpt><trkpt lat="42.4304817" lon="14.1269072"><ele>76.0</ele><time>2026-05-02T06:44:06.147Z</time></trkpt><trkpt lat="42.4304065" lon="14.1269088"><ele>76.0</ele><time>2026-05-02T06:44:07.148Z</time></trkpt><trkpt lat="42.4303075" lon="14.1268551"><ele>77.0</ele><time>2026-05-02T06:44:09.148Z</time></trkpt><trkpt lat="42.4302384" lon="14.1267666"><ele>78.0</ele><time>2026-05-02T06:44:12.147Z</time></trkpt><trkpt lat="42.4301413" lon="14.1267444"><ele>79.0</ele><time>2026-05-02T06:44:14.148Z</time></trkpt><trkpt lat="42.4300631" lon="14.1267445"><ele>80.0</ele><time>2026-05-02T06:44:15.148Z</time></trkpt><trkpt lat="42.4299783" lon="14.126778"><ele>81.0</ele><time>2026-05-02T06:44:16.148Z</time></trkpt><trkpt lat="42.4298931" lon="14.1268271"><ele>81.0</ele><time>2026-05-02T06:44:17.147Z</time></trkpt><trkpt lat="42.4298076" lon="14.1268624"><ele>81.0</ele><time>2026-05-02T06:44:18.149Z</time></trkpt><trkpt lat="42.4297321" lon="14.1268866"><ele>81.0</ele><time>2026-05-02T06:44:19.148Z</time></trkpt><trkpt lat="42.4296573" lon="14.126895"><ele>81.0</ele><time>2026-05-02T06:44:20.148Z</time></trkpt><trkpt lat="42.4295363" lon="14.1269295"><ele>81.0</ele><time>2026-05-02T06:44:22.147Z</time></trkpt><trkpt lat="42.4294718" lon="14.1269299"><ele>81.0</ele><time>2026-05-02T06:44:23.148Z</time></trkpt><trkpt lat="42.4294066" lon="14.126921"><ele>78.66666666666667</ele><time>2026-05-02T06:44:24.147Z</time></trkpt><trkpt lat="42.4293372" lon="14.1269139"><ele>76.33333333333333</ele><time>2026-05-02T06:44:25.148Z</time></trkpt><trkpt lat="42.4292621" lon="14.1269151"><ele>74.0</ele><time>2026-05-02T06:44:26.147Z</time></trkpt><trkpt lat="42.4291892" lon="14.1269076"><ele>71.66666666666666</ele><time>2026-05-02T06:44:27.147Z</time></trkpt><trkpt lat="42.4291122" lon="14.1268899"><ele>69.33333333333333</ele><time>2026-05-02T06:44:28.147Z</time></trkpt><trkpt lat="42.4290285" lon="14.1268654"><ele>67.0</ele><time>2026-05-02T06:44:29.147Z</time></trkpt><trkpt lat="42.4289494" lon="14.1268343"><ele>67.0</ele><time>2026-05-02T06:44:30.148Z</time></trkpt><trkpt lat="42.4288718" lon="14.126798"><ele>67.0</ele><time>2026-05-02T06:44:31.147Z</time></trkpt><trkpt lat="42.4288086" lon="14.1267328"><ele>67.0</ele><time>2026-05-02T06:44:32.147Z</time></trkpt><trkpt lat="42.4287399" lon="14.1266636"><ele>67.0</ele><time>2026-05-02T06:44:33.149Z</time></trkpt><trkpt lat="42.4286794" lon="14.126582"><ele>67.0</ele><time>2026-05-02T06:44:34.148Z</time></trkpt><trkpt lat="42.4286491" lon="14.126484"><ele>67.0</ele><time>2026-05-02T06:44:35.147Z</time></trkpt><trkpt lat="42.4286156" lon="14.1264071"><ele>64.85714285714286</ele><time>2026-05-02T06:44:36.148Z</time></trkpt><trkpt lat="42.4285745" lon="14.1263306"><ele>62.71428571428571</ele><time>2026-05-02T06:44:37.148Z</time></trkpt><trkpt lat="42.4285234" lon="14.1262563"><ele>60.57142857142857</ele><time>2026-05-02T06:44:38.147Z</time></trkpt><trkpt lat="42.4284727" lon="14.1261848"><ele>58.42857142857143</ele><time>2026-05-02T06:44:39.148Z</time></trkpt><trkpt lat="42.4284055" lon="14.1261345"><ele>56.28571428571429</ele><time>2026-05-02T06:44:40.148Z</time></trkpt><trkpt lat="42.428347" lon="14.1260908"><ele>54.14285714285714</ele><time>2026-05-02T06:44:41.149Z</time></trkpt><trkpt lat="42.4282737" lon="14.1260315"><ele>52.0</ele><time>2026-05-02T06:44:42.149Z</time></trkpt><trkpt lat="42.428211" lon="14.1260154"><ele>51.99999999999999</ele><time>2026-05-02T06:44:43.148Z</time></trkpt><trkpt lat="42.4280976" lon="14.1260112"><ele>52.0</ele><time>2026-05-02T06:44:45.147Z</time></trkpt><trkpt lat="42.4279878" lon="14.1260246"><ele>52.0</ele><time>2026-05-02T06:44:47.147Z</time></trkpt><trkpt lat="42.4278991" lon="14.1260353"><ele>52.0</ele><time>2026-05-02T06:44:48.147Z</time></trkpt><trkpt lat="42.427833" lon="14.1260449"><ele>51.99999999999999</ele><time>2026-05-02T06:44:49.148Z</time></trkpt><trkpt lat="42.4277633" lon="14.1260439"><ele>52.0</ele><time>2026-05-02T06:44:50.147Z</time></trkpt><trkpt lat="42.4276786" lon="14.1260294"><ele>50.6</ele><time>2026-05-02T06:44:51.148Z</time></trkpt><trkpt lat="42.4275787" lon="14.1259566"><ele>49.2</ele><time>2026-05-02T06:44:52.147Z</time></trkpt><trkpt lat="42.4275019" lon="14.1258934"><ele>47.8</ele><time>2026-05-02T06:44:53.148Z</time></trkpt><trkpt lat="42.4274213" lon="14.1258361"><ele>46.4</ele><time>2026-05-02T06:44:54.147Z</time></trkpt><trkpt lat="42.427339" lon="14.1257949"><ele>45.0</ele><time>2026-05-02T06:44:55.147Z</time></trkpt><trkpt lat="42.4272557" lon="14.125766"><ele>45.0</ele><time>2026-05-02T06:44:56.147Z</time></trkpt><trkpt lat="42.4271845" lon="14.1257451"><ele>45.0</ele><time>2026-05-02T06:44:57.148Z</time></trkpt><trkpt lat="42.4271202" lon="14.1257271"><ele>45.0</ele><time>2026-05-02T06:44:58.148Z</time></trkpt><trkpt lat="42.4269962" lon="14.1257261"><ele>45.0</ele><time>2026-05-02T06:45:00.147Z</time></trkpt><trkpt lat="42.4269017" lon="14.1256953"><ele>45.0</ele><time>2026-05-02T06:45:02.148Z</time></trkpt><trkpt lat="42.4268445" lon="14.1256501"><ele>45.0</ele><time>2026-05-02T06:45:04.148Z</time></trkpt><trkpt lat="42.4267957" lon="14.1255927"><ele>43.2</ele><time>2026-05-02T06:45:06.147Z</time></trkpt><trkpt lat="42.4267771" lon="14.1255013"><ele>41.4</ele><time>2026-05-02T06:45:08.147Z</time></trkpt><trkpt lat="42.4268048" lon="14.1253024"><ele>39.6</ele><time>2026-05-02T06:45:10.148Z</time></trkpt><trkpt lat="42.4268295" lon="14.1251805"><ele>37.8</ele><time>2026-05-02T06:45:11.148Z</time></trkpt><trkpt lat="42.4268568" lon="14.1250397"><ele>36.0</ele><time>2026-05-02T06:45:12.148Z</time></trkpt><trkpt lat="42.4268825" lon="14.1248983"><ele>36.5</ele><time>2026-05-02T06:45:13.147Z</time></trkpt><trkpt lat="42.4269031" lon="14.1247822"><ele>37.0</ele><time>2026-05-02T06:45:14.148Z</time></trkpt><trkpt lat="42.4269177" lon="14.1246786"><ele>37.5</ele><time>2026-05-02T06:45:15.148Z</time></trkpt><trkpt lat="42.4269274" lon="14.1245369"><ele>38.0</ele><time>2026-05-02T06:45:17.147Z</time></trkpt><trkpt lat="42.4269044" lon="14.12445"><ele>38.5</ele><time>2026-05-02T06:45:19.147Z</time></trkpt><trkpt lat="42.4268457" lon="14.1243773"><ele>39.0</ele><time>2026-05-02T06:45:21.148Z</time></trkpt><trkpt lat="42.4267325" lon="14.1242833"><ele>39.0</ele><time>2026-05-02T06:45:23.147Z</time></trkpt><trkpt lat="42.4266509" lon="14.124226"><ele>39.0</ele><time>2026-05-02T06:45:24.147Z</time></trkpt><trkpt lat="42.4265781" lon="14.1241622"><ele>39.0</ele><time>2026-05-02T06:45:25.147Z</time></trkpt><trkpt lat="42.4265205" lon="14.124093"><ele>39.0</ele><time>2026-05-02T06:45:26.147Z</time></trkpt><trkpt lat="42.4264652" lon="14.1239977"><ele>39.0</ele><time>2026-05-02T06:45:27.148Z</time></trkpt><trkpt lat="42.4264145" lon="14.1238682"><ele>38.75</ele><time>2026-05-02T06:45:28.148Z</time></trkpt><trkpt lat="42.4263727" lon="14.1237215"><ele>38.5</ele><time>2026-05-02T06:45:29.148Z</time></trkpt><trkpt lat="42.4263354" lon="14.1235574"><ele>38.25</ele><time>2026-05-02T06:45:30.148Z</time></trkpt><trkpt lat="42.4263" lon="14.1233649"><ele>38.0</ele><time>2026-05-02T06:45:31.147Z</time></trkpt><trkpt lat="42.4262634" lon="14.1231494"><ele>38.0</ele><time>2026-05-02T06:45:32.148Z</time></trkpt><trkpt lat="42.4262319" lon="14.1229211"><ele>38.0</ele><time>2026-05-02T06:45:33.147Z</time></trkpt><trkpt lat="42.4262" lon="14.1226792"><ele>38.0</ele><time>2026-05-02T06:45:34.148Z</time></trkpt><trkpt lat="42.4261692" lon="14.1224266"><ele>38.33333333333333</ele><time>2026-05-02T06:45:35.147Z</time></trkpt><trkpt lat="42.4261337" lon="14.1221595"><ele>38.666666666666664</ele><time>2026-05-02T06:45:36.148Z</time></trkpt><trkpt lat="42.4260979" lon="14.1218985"><ele>39.0</ele><time>2026-05-02T06:45:37.147Z</time></trkpt><trkpt lat="42.4260677" lon="14.1216568"><ele>39.666666666666664</ele><time>2026-05-02T06:45:38.147Z</time></trkpt><trkpt lat="42.4260406" lon="14.1214239"><ele>40.33333333333333</ele><time>2026-05-02T06:45:39.148Z</time></trkpt><trkpt lat="42.4260067" lon="14.1211934"><ele>41.0</ele><time>2026-05-02T06:45:40.147Z</time></trkpt><trkpt lat="42.4259637" lon="14.1209915"><ele>41.0</ele><time>2026-05-02T06:45:41.148Z</time></trkpt><trkpt lat="42.4258946" lon="14.1207629"><ele>41.0</ele><time>2026-05-02T06:45:42.147Z</time></trkpt><trkpt lat="42.4258117" lon="14.1205583"><ele>41.0</ele><time>2026-05-02T06:45:43.148Z</time></trkpt><trkpt lat="42.4257328" lon="14.1203496"><ele>42.33333333333333</ele><time>2026-05-02T06:45:44.147Z</time></trkpt><trkpt lat="42.4256536" lon="14.1201247"><ele>43.666666666666664</ele><time>2026-05-02T06:45:45.147Z</time></trkpt><trkpt lat="42.4255808" lon="14.119911"><ele>45.0</ele><time>2026-05-02T06:45:46.147Z</time></trkpt><trkpt lat="42.4255234" lon="14.1196851"><ele>43.0</ele><time>2026-05-02T06:45:47.148Z</time></trkpt><trkpt lat="42.4254759" lon="14.1194473"><ele>41.0</ele><time>2026-05-02T06:45:48.147Z</time></trkpt><trkpt lat="42.4254355" lon="14.119201"><ele>39.0</ele><time>2026-05-02T06:45:49.148Z</time></trkpt><trkpt lat="42.4253946" lon="14.1189477"><ele>39.0</ele><time>2026-05-02T06:45:50.148Z</time></trkpt><trkpt lat="42.4253537" lon="14.1186874"><ele>39.0</ele><time>2026-05-02T06:45:51.148Z</time></trkpt><trkpt lat="42.4253004" lon="14.1184231"><ele>39.0</ele><time>2026-05-02T06:45:52.147Z</time></trkpt><trkpt lat="42.4252506" lon="14.1181549"><ele>39.333333333333336</ele><time>2026-05-02T06:45:53.147Z</time></trkpt><trkpt lat="42.4252109" lon="14.1178927"><ele>39.66666666666667</ele><time>2026-05-02T06:45:54.148Z</time></trkpt><trkpt lat="42.4251692" lon="14.1176389"><ele>40.0</ele><time>2026-05-02T06:45:55.148Z</time></trkpt><trkpt lat="42.4251367" lon="14.1173917"><ele>41.333333333333336</ele><time>2026-05-02T06:45:56.148Z</time></trkpt><trkpt lat="42.4251144" lon="14.1171448"><ele>42.666666666666664</ele><time>2026-05-02T06:45:57.148Z</time></trkpt><trkpt lat="42.4250968" lon="14.1169011"><ele>44.0</ele><time>2026-05-02T06:45:58.148Z</time></trkpt><trkpt lat="42.4250834" lon="14.1166565"><ele>44.0</ele><time>2026-05-02T06:45:59.149Z</time></trkpt><trkpt lat="42.4250652" lon="14.1164104"><ele>44.0</ele><time>2026-05-02T06:46:00.149Z</time></trkpt><trkpt lat="42.4250501" lon="14.1161585"><ele>44.0</ele><time>2026-05-02T06:46:01.147Z</time></trkpt><trkpt lat="42.4250356" lon="14.1159064"><ele>44.33333333333333</ele><time>2026-05-02T06:46:02.148Z</time></trkpt><trkpt lat="42.4250172" lon="14.1156518"><ele>44.666666666666664</ele><time>2026-05-02T06:46:03.148Z</time></trkpt><trkpt lat="42.4249994" lon="14.1153993"><ele>45.0</ele><time>2026-05-02T06:46:04.147Z</time></trkpt><trkpt lat="42.4249845" lon="14.115143"><ele>46.0</ele><time>2026-05-02T06:46:05.147Z</time></trkpt><trkpt lat="42.4249686" lon="14.1148853"><ele>47.0</ele><time>2026-05-02T06:46:06.147Z</time></trkpt><trkpt lat="42.4249511" lon="14.1146289"><ele>48.0</ele><time>2026-05-02T06:46:07.148Z</time></trkpt><trkpt lat="42.4249319" lon="14.1143749"><ele>48.0</ele><time>2026-05-02T06:46:08.148Z</time></trkpt><trkpt lat="42.4249118" lon="14.1141286"><ele>48.0</ele><time>2026-05-02T06:46:09.148Z</time></trkpt><trkpt lat="42.4248942" lon="14.113886"><ele>48.0</ele><time>2026-05-02T06:46:10.148Z</time></trkpt><trkpt lat="42.4248799" lon="14.1136413"><ele>48.66666666666667</ele><time>2026-05-02T06:46:11.148Z</time></trkpt><trkpt lat="42.424865" lon="14.1133966"><ele>49.333333333333336</ele><time>2026-05-02T06:46:12.149Z</time></trkpt><trkpt lat="42.4248526" lon="14.1131615"><ele>50.0</ele><time>2026-05-02T06:46:13.148Z</time></trkpt><trkpt lat="42.4248597" lon="14.1129366"><ele>50.5</ele><time>2026-05-02T06:46:14.147Z</time></trkpt><trkpt lat="42.4248753" lon="14.1127281"><ele>51.0</ele><time>2026-05-02T06:46:15.148Z</time></trkpt><trkpt lat="42.4249013" lon="14.1125371"><ele>51.5</ele><time>2026-05-02T06:46:16.148Z</time></trkpt><trkpt lat="42.4249399" lon="14.1123706"><ele>52.0</ele><time>2026-05-02T06:46:17.148Z</time></trkpt><trkpt lat="42.4249804" lon="14.1122064"><ele>51.2</ele><time>2026-05-02T06:46:18.148Z</time></trkpt><trkpt lat="42.4250102" lon="14.1120663"><ele>50.400000000000006</ele><time>2026-05-02T06:46:19.147Z</time></trkpt><trkpt lat="42.4250403" lon="14.1119169"><ele>49.599999999999994</ele><time>2026-05-02T06:46:20.148Z</time></trkpt><trkpt lat="42.4250767" lon="14.1117903"><ele>48.8</ele><time>2026-05-02T06:46:21.147Z</time></trkpt><trkpt lat="42.4251066" lon="14.1116786"><ele>48.0</ele><time>2026-05-02T06:46:22.147Z</time></trkpt><trkpt lat="42.4251295" lon="14.1115972"><ele>48.0</ele><time>2026-05-02T06:46:23.148Z</time></trkpt><trkpt lat="42.425165" lon="14.111499"><ele>48.0</ele><time>2026-05-02T06:46:25.147Z</time></trkpt><trkpt lat="42.4251972" lon="14.1113934"><ele>48.0</ele><time>2026-05-02T06:46:28.148Z</time></trkpt><trkpt lat="42.425133" lon="14.1114063"><ele>48.0</ele><time>2026-05-02T06:46:30.147Z</time></trkpt><trkpt lat="42.4250799" lon="14.1114599"><ele>48.0</ele><time>2026-05-02T06:46:31.147Z</time></trkpt><trkpt lat="42.4250023" lon="14.1115269"><ele>48.0</ele><time>2026-05-02T06:46:32.147Z</time></trkpt><trkpt lat="42.4249012" lon="14.1116054"><ele>48.0</ele><time>2026-05-02T06:46:33.147Z</time></trkpt><trkpt lat="42.4247885" lon="14.1116803"><ele>48.0</ele><time>2026-05-02T06:46:34.147Z</time></trkpt><trkpt lat="42.4246776" lon="14.1117459"><ele>48.0</ele><time>2026-05-02T06:46:35.148Z</time></trkpt><trkpt lat="42.424571" lon="14.1117963"><ele>48.0</ele><time>2026-05-02T06:46:36.148Z</time></trkpt><trkpt lat="42.4244563" lon="14.1118371"><ele>46.5</ele><time>2026-05-02T06:46:37.147Z</time></trkpt><trkpt lat="42.4243344" lon="14.1118594"><ele>45.0</ele><time>2026-05-02T06:46:38.147Z</time></trkpt><trkpt lat="42.42422" lon="14.1118908"><ele>43.5</ele><time>2026-05-02T06:46:39.147Z</time></trkpt><trkpt lat="42.4241182" lon="14.1119181"><ele>42.0</ele><time>2026-05-02T06:46:40.147Z</time></trkpt><trkpt lat="42.4240108" lon="14.1119568"><ele>42.0</ele><time>2026-05-02T06:46:41.148Z</time></trkpt><trkpt lat="42.4239169" lon="14.1119856"><ele>42.0</ele><time>2026-05-02T06:46:42.149Z</time></trkpt><trkpt lat="42.4238093" lon="14.1120145"><ele>42.0</ele><time>2026-05-02T06:46:43.147Z</time></trkpt><trkpt lat="42.4237014" lon="14.1120312"><ele>42.0</ele><time>2026-05-02T06:46:44.147Z</time></trkpt><trkpt lat="42.4235884" lon="14.112001"><ele>42.0</ele><time>2026-05-02T06:46:45.148Z</time></trkpt><trkpt lat="42.4234783" lon="14.1119985"><ele>41.0</ele><time>2026-05-02T06:46:46.147Z</time></trkpt><trkpt lat="42.4233824" lon="14.1119962"><ele>40.0</ele><time>2026-05-02T06:46:47.147Z</time></trkpt><trkpt lat="42.4232952" lon="14.112019"><ele>39.0</ele><time>2026-05-02T06:46:48.147Z</time></trkpt><trkpt lat="42.4232023" lon="14.112083"><ele>38.0</ele><time>2026-05-02T06:46:49.148Z</time></trkpt><trkpt lat="42.4231096" lon="14.1121904"><ele>37.0</ele><time>2026-05-02T06:46:50.148Z</time></trkpt><trkpt lat="42.4230059" lon="14.1123247"><ele>39.333333333333336</ele><time>2026-05-02T06:46:51.148Z</time></trkpt><trkpt lat="42.4228922" lon="14.112477"><ele>41.666666666666664</ele><time>2026-05-02T06:46:52.147Z</time></trkpt><trkpt lat="42.4227597" lon="14.1126372"><ele>44.0</ele><time>2026-05-02T06:46:53.149Z</time></trkpt><trkpt lat="42.4226071" lon="14.1127908"><ele>44.0</ele><time>2026-05-02T06:46:54.148Z</time></trkpt><trkpt lat="42.4224422" lon="14.112939"><ele>44.0</ele><time>2026-05-02T06:46:55.147Z</time></trkpt><trkpt lat="42.4222895" lon="14.1130812"><ele>44.0</ele><time>2026-05-02T06:46:56.147Z</time></trkpt><trkpt lat="42.4221478" lon="14.113221"><ele>45.25</ele><time>2026-05-02T06:46:57.147Z</time></trkpt><trkpt lat="42.4220247" lon="14.1133329"><ele>46.5</ele><time>2026-05-02T06:46:58.147Z</time></trkpt><trkpt lat="42.4219106" lon="14.1134168"><ele>47.75</ele><time>2026-05-02T06:46:59.148Z</time></trkpt><trkpt lat="42.4217982" lon="14.1134858"><ele>49.0</ele><time>2026-05-02T06:47:00.147Z</time></trkpt><trkpt lat="42.4216762" lon="14.1135302"><ele>49.0</ele><time>2026-05-02T06:47:01.147Z</time></trkpt><trkpt lat="42.421549" lon="14.1135755"><ele>49.0</ele><time>2026-05-02T06:47:02.147Z</time></trkpt><trkpt lat="42.4214244" lon="14.1136093"><ele>49.0</ele><time>2026-05-02T06:47:03.147Z</time></trkpt><trkpt lat="42.4212814" lon="14.1137053"><ele>49.0</ele><time>2026-05-02T06:47:04.147Z</time></trkpt><trkpt lat="42.4211438" lon="14.113794"><ele>50.0</ele><time>2026-05-02T06:47:05.147Z</time></trkpt><trkpt lat="42.4210128" lon="14.1138983"><ele>51.0</ele><time>2026-05-02T06:47:06.148Z</time></trkpt><trkpt lat="42.4208925" lon="14.1139915"><ele>52.0</ele><time>2026-05-02T06:47:07.148Z</time></trkpt><trkpt lat="42.4207732" lon="14.1140731"><ele>53.0</ele><time>2026-05-02T06:47:08.147Z</time></trkpt><trkpt lat="42.4206561" lon="14.1141606"><ele>55.5</ele><time>2026-05-02T06:47:09.147Z</time></trkpt><trkpt lat="42.420552" lon="14.1142844"><ele>58.0</ele><time>2026-05-02T06:47:10.147Z</time></trkpt><trkpt lat="42.4204649" lon="14.1144403"><ele>60.5</ele><time>2026-05-02T06:47:11.147Z</time></trkpt><trkpt lat="42.4203637" lon="14.1145877"><ele>63.0</ele><time>2026-05-02T06:47:12.148Z</time></trkpt><trkpt lat="42.420253" lon="14.1147097"><ele>63.0</ele><time>2026-05-02T06:47:13.148Z</time></trkpt><trkpt lat="42.4201177" lon="14.1147937"><ele>63.0</ele><time>2026-05-02T06:47:14.148Z</time></trkpt><trkpt lat="42.4199795" lon="14.1148645"><ele>63.0</ele><time>2026-05-02T06:47:15.148Z</time></trkpt><trkpt lat="42.4198425" lon="14.1149398"><ele>63.0</ele><time>2026-05-02T06:47:16.148Z</time></trkpt><trkpt lat="42.419706" lon="14.1150558"><ele>68.66666666666667</ele><time>2026-05-02T06:47:17.149Z</time></trkpt><trkpt lat="42.4195809" lon="14.1151862"><ele>74.33333333333334</ele><time>2026-05-02T06:47:18.148Z</time></trkpt><trkpt lat="42.4194565" lon="14.1153204"><ele>80.0</ele><time>2026-05-02T06:47:19.148Z</time></trkpt><trkpt lat="42.4193326" lon="14.1154416"><ele>80.0</ele><time>2026-05-02T06:47:20.147Z</time></trkpt><trkpt lat="42.4192076" lon="14.115553"><ele>80.0</ele><time>2026-05-02T06:47:21.147Z</time></trkpt><trkpt lat="42.4191051" lon="14.1156471"><ele>80.0</ele><time>2026-05-02T06:47:22.147Z</time></trkpt><trkpt lat="42.4190171" lon="14.1157568"><ele>80.0</ele><time>2026-05-02T06:47:23.148Z</time></trkpt><trkpt lat="42.4189479" lon="14.1158442"><ele>81.2</ele><time>2026-05-02T06:47:24.147Z</time></trkpt><trkpt lat="42.4188958" lon="14.1158978"><ele>82.4</ele><time>2026-05-02T06:47:25.147Z</time></trkpt><trkpt lat="42.4187824" lon="14.1158932"><ele>83.6</ele><time>2026-05-02T06:47:27.148Z</time></trkpt><trkpt lat="42.4187115" lon="14.1158343"><ele>84.8</ele><time>2026-05-02T06:47:28.147Z</time></trkpt><trkpt lat="42.4186232" lon="14.1157537"><ele>86.0</ele><time>2026-05-02T06:47:29.147Z</time></trkpt><trkpt lat="42.4185177" lon="14.115664"><ele>89.0</ele><time>2026-05-02T06:47:30.147Z</time></trkpt><trkpt lat="42.4183991" lon="14.1155795"><ele>92.0</ele><time>2026-05-02T06:47:31.148Z</time></trkpt><trkpt lat="42.4182628" lon="14.1154913"><ele>95.0</ele><time>2026-05-02T06:47:32.148Z</time></trkpt><trkpt lat="42.4181162" lon="14.115405"><ele>98.0</ele><time>2026-05-02T06:47:33.148Z</time></trkpt><trkpt lat="42.4179677" lon="14.1153329"><ele>100.0</ele><time>2026-05-02T06:47:34.147Z</time></trkpt><trkpt lat="42.4178236" lon="14.1152573"><ele>102.0</ele><time>2026-05-02T06:47:35.147Z</time></trkpt><trkpt lat="42.417664" lon="14.1152064"><ele>104.0</ele><time>2026-05-02T06:47:36.148Z</time></trkpt><trkpt lat="42.4175371" lon="14.1151644"><ele>106.0</ele><time>2026-05-02T06:47:37.147Z</time></trkpt><trkpt lat="42.4173792" lon="14.1151715"><ele>106.0</ele><time>2026-05-02T06:47:38.148Z</time></trkpt><trkpt lat="42.4172171" lon="14.1151488"><ele>106.0</ele><time>2026-05-02T06:47:39.147Z</time></trkpt><trkpt lat="42.4170629" lon="14.1151278"><ele>106.0</ele><time>2026-05-02T06:47:40.149Z</time></trkpt><trkpt lat="42.4169282" lon="14.1151327"><ele>107.66666666666667</ele><time>2026-05-02T06:47:41.148Z</time></trkpt><trkpt lat="42.4167864" lon="14.1151284"><ele>109.33333333333334</ele><time>2026-05-02T06:47:42.147Z</time></trkpt><trkpt lat="42.4166279" lon="14.1151512"><ele>111.0</ele><time>2026-05-02T06:47:43.148Z</time></trkpt><trkpt lat="42.4164559" lon="14.1151954"><ele>112.66666666666666</ele><time>2026-05-02T06:47:44.147Z</time></trkpt><trkpt lat="42.4163048" lon="14.1152167"><ele>114.33333333333333</ele><time>2026-05-02T06:47:45.148Z</time></trkpt><trkpt lat="42.4161413" lon="14.1152275"><ele>116.0</ele><time>2026-05-02T06:47:46.148Z</time></trkpt><trkpt lat="42.4159813" lon="14.1152304"><ele>116.0</ele><time>2026-05-02T06:47:47.147Z</time></trkpt><trkpt lat="42.4158176" lon="14.1152412"><ele>116.0</ele><time>2026-05-02T06:47:48.147Z</time></trkpt><trkpt lat="42.4156946" lon="14.1152692"><ele>116.0</ele><time>2026-05-02T06:47:49.148Z</time></trkpt><trkpt lat="42.4155731" lon="14.1153071"><ele>116.0</ele><time>2026-05-02T06:47:50.147Z</time></trkpt><trkpt lat="42.415475" lon="14.115343"><ele>115.99999999999999</ele><time>2026-05-02T06:47:51.148Z</time></trkpt><trkpt lat="42.4154015" lon="14.1153719"><ele>116.0</ele><time>2026-05-02T06:47:52.147Z</time></trkpt><trkpt lat="42.4153338" lon="14.1154139"><ele>116.0</ele><time>2026-05-02T06:47:54.147Z</time></trkpt><trkpt lat="42.415251" lon="14.1154828"><ele>116.0</ele><time>2026-05-02T06:47:56.149Z</time></trkpt><trkpt lat="42.4151895" lon="14.1155544"><ele>115.99999999999999</ele><time>2026-05-02T06:47:57.147Z</time></trkpt><trkpt lat="42.4151149" lon="14.1156482"><ele>116.0</ele><time>2026-05-02T06:47:58.148Z</time></trkpt><trkpt lat="42.4150336" lon="14.1157618"><ele>116.0</ele><time>2026-05-02T06:47:59.147Z</time></trkpt><trkpt lat="42.4149388" lon="14.1158878"><ele>116.0</ele><time>2026-05-02T06:48:00.148Z</time></trkpt><trkpt lat="42.4148296" lon="14.1160112"><ele>116.0</ele><time>2026-05-02T06:48:01.148Z</time></trkpt><trkpt lat="42.4146993" lon="14.1161346"><ele>116.0</ele><time>2026-05-02T06:48:02.149Z</time></trkpt><trkpt lat="42.4145489" lon="14.116264"><ele>114.33333333333333</ele><time>2026-05-02T06:48:03.148Z</time></trkpt><trkpt lat="42.4143892" lon="14.1163963"><ele>112.66666666666666</ele><time>2026-05-02T06:48:04.148Z</time></trkpt><trkpt lat="42.4142373" lon="14.1165054"><ele>111.0</ele><time>2026-05-02T06:48:05.149Z</time></trkpt><trkpt lat="42.4140953" lon="14.1165974"><ele>110.75</ele><time>2026-05-02T06:48:06.149Z</time></trkpt><trkpt lat="42.4139629" lon="14.116675"><ele>110.5</ele><time>2026-05-02T06:48:07.147Z</time></trkpt><trkpt lat="42.4138418" lon="14.1167506"><ele>110.25</ele><time>2026-05-02T06:48:08.148Z</time></trkpt><trkpt lat="42.4137328" lon="14.1168522"><ele>110.0</ele><time>2026-05-02T06:48:09.148Z</time></trkpt><trkpt lat="42.4136265" lon="14.1170054"><ele>109.66666666666666</ele><time>2026-05-02T06:48:10.148Z</time></trkpt><trkpt lat="42.4135168" lon="14.1171805"><ele>109.33333333333334</ele><time>2026-05-02T06:48:11.148Z</time></trkpt><trkpt lat="42.4134041" lon="14.1173675"><ele>109.0</ele><time>2026-05-02T06:48:12.147Z</time></trkpt><trkpt lat="42.4133045" lon="14.1175437"><ele>109.0</ele><time>2026-05-02T06:48:13.147Z</time></trkpt><trkpt lat="42.4132143" lon="14.1176935"><ele>109.0</ele><time>2026-05-02T06:48:14.147Z</time></trkpt><trkpt lat="42.413136" lon="14.1178249"><ele>109.0</ele><time>2026-05-02T06:48:15.148Z</time></trkpt><trkpt lat="42.4130607" lon="14.1179551"><ele>109.0</ele><time>2026-05-02T06:48:16.148Z</time></trkpt><trkpt lat="42.4129761" lon="14.1180965"><ele>108.33333333333334</ele><time>2026-05-02T06:48:17.148Z</time></trkpt><trkpt lat="42.4128782" lon="14.1182548"><ele>107.66666666666666</ele><time>2026-05-02T06:48:18.148Z</time></trkpt><trkpt lat="42.4127639" lon="14.1184091"><ele>107.0</ele><time>2026-05-02T06:48:19.148Z</time></trkpt><trkpt lat="42.4126342" lon="14.1185514"><ele>107.0</ele><time>2026-05-02T06:48:20.148Z</time></trkpt><trkpt lat="42.4124922" lon="14.1186767"><ele>107.0</ele><time>2026-05-02T06:48:21.147Z</time></trkpt><trkpt lat="42.4123356" lon="14.1187882"><ele>107.0</ele><time>2026-05-02T06:48:22.149Z</time></trkpt><trkpt lat="42.4121786" lon="14.1188965"><ele>105.33333333333333</ele><time>2026-05-02T06:48:23.149Z</time></trkpt><trkpt lat="42.4120212" lon="14.1190004"><ele>103.66666666666666</ele><time>2026-05-02T06:48:24.148Z</time></trkpt><trkpt lat="42.411854" lon="14.1191135"><ele>102.0</ele><time>2026-05-02T06:48:25.147Z</time></trkpt><trkpt lat="42.4117036" lon="14.1192078"><ele>102.0</ele><time>2026-05-02T06:48:26.148Z</time></trkpt><trkpt lat="42.411551" lon="14.1193027"><ele>102.0</ele><time>2026-05-02T06:48:27.147Z</time></trkpt><trkpt lat="42.4113999" lon="14.1193979"><ele>102.0</ele><time>2026-05-02T06:48:28.149Z</time></trkpt><trkpt lat="42.4112557" lon="14.1195031"><ele>102.25</ele><time>2026-05-02T06:48:29.148Z</time></trkpt><trkpt lat="42.4111114" lon="14.1196155"><ele>102.5</ele><time>2026-05-02T06:48:30.148Z</time></trkpt><trkpt lat="42.4109881" lon="14.1197225"><ele>102.75</ele><time>2026-05-02T06:48:31.147Z</time></trkpt><trkpt lat="42.4108837" lon="14.1198108"><ele>103.0</ele><time>2026-05-02T06:48:32.147Z</time></trkpt><trkpt lat="42.4107993" lon="14.1198888"><ele>102.0</ele><time>2026-05-02T06:48:33.148Z</time></trkpt><trkpt lat="42.4107392" lon="14.119946"><ele>101.0</ele><time>2026-05-02T06:48:34.147Z</time></trkpt><trkpt lat="42.4106427" lon="14.1200145"><ele>100.0</ele><time>2026-05-02T06:48:36.148Z</time></trkpt><trkpt lat="42.4105441" lon="14.1199969"><ele>99.0</ele><time>2026-05-02T06:48:38.148Z</time></trkpt><trkpt lat="42.4104349" lon="14.1199205"><ele>98.0</ele><time>2026-05-02T06:48:40.147Z</time></trkpt><trkpt lat="42.4103417" lon="14.1198187"><ele>97.2</ele><time>2026-05-02T06:48:42.148Z</time></trkpt><trkpt lat="42.4102735" lon="14.1196979"><ele>96.4</ele><time>2026-05-02T06:48:44.147Z</time></trkpt><trkpt lat="42.4102297" lon="14.1195651"><ele>95.60000000000001</ele><time>2026-05-02T06:48:46.148Z</time></trkpt><trkpt lat="42.4101654" lon="14.1194381"><ele>94.80000000000001</ele><time>2026-05-02T06:48:48.148Z</time></trkpt><trkpt lat="42.4101213" lon="14.1193681"><ele>94.0</ele><time>2026-05-02T06:48:49.147Z</time></trkpt><trkpt lat="42.4100785" lon="14.1192924"><ele>94.0</ele><time>2026-05-02T06:48:50.147Z</time></trkpt><trkpt lat="42.4100316" lon="14.1192093"><ele>94.0</ele><time>2026-05-02T06:48:51.148Z</time></trkpt><trkpt lat="42.4099602" lon="14.1191343"><ele>94.0</ele><time>2026-05-02T06:48:52.147Z</time></trkpt><trkpt lat="42.40989" lon="14.119061"><ele>94.0</ele><time>2026-05-02T06:48:53.148Z</time></trkpt><trkpt lat="42.4098246" lon="14.1190155"><ele>94.0</ele><time>2026-05-02T06:48:54.147Z</time></trkpt><trkpt lat="42.40975" lon="14.1189689"><ele>94.0</ele><time>2026-05-02T06:48:55.147Z</time></trkpt><trkpt lat="42.4096826" lon="14.1189186"><ele>92.0</ele><time>2026-05-02T06:48:56.147Z</time></trkpt><trkpt lat="42.4095655" lon="14.118812"><ele>90.0</ele><time>2026-05-02T06:48:58.148Z</time></trkpt><trkpt lat="42.409448" lon="14.118735"><ele>88.0</ele><time>2026-05-02T06:49:00.148Z</time></trkpt><trkpt lat="42.4093765" lon="14.1186924"><ele>86.0</ele><time>2026-05-02T06:49:01.148Z</time></trkpt><trkpt lat="42.4093046" lon="14.118648"><ele>84.0</ele><time>2026-05-02T06:49:02.147Z</time></trkpt><trkpt lat="42.4092457" lon="14.1186008"><ele>84.0</ele><time>2026-05-02T06:49:03.147Z</time></trkpt><trkpt lat="42.4091949" lon="14.1185473"><ele>84.0</ele><time>2026-05-02T06:49:04.148Z</time></trkpt><trkpt lat="42.4090949" lon="14.1184327"><ele>84.0</ele><time>2026-05-02T06:49:06.147Z</time></trkpt><trkpt lat="42.4090403" lon="14.11838"><ele>84.0</ele><time>2026-05-02T06:49:07.148Z</time></trkpt><trkpt lat="42.4089977" lon="14.1183114"><ele>84.0</ele><time>2026-05-02T06:49:08.147Z</time></trkpt><trkpt lat="42.4089585" lon="14.1182358"><ele>84.0</ele><time>2026-05-02T06:49:09.147Z</time></trkpt><trkpt lat="42.4089232" lon="14.1181533"><ele>83.0</ele><time>2026-05-02T06:49:10.148Z</time></trkpt><trkpt lat="42.4088878" lon="14.1180699"><ele>82.0</ele><time>2026-05-02T06:49:11.148Z</time></trkpt><trkpt lat="42.4088646" lon="14.1179788"><ele>81.0</ele><time>2026-05-02T06:49:12.147Z</time></trkpt><trkpt lat="42.4088277" lon="14.1178953"><ele>80.0</ele><time>2026-05-02T06:49:13.148Z</time></trkpt><trkpt lat="42.4087982" lon="14.1178102"><ele>79.0</ele><time>2026-05-02T06:49:14.147Z</time></trkpt><trkpt lat="42.4087646" lon="14.1177233"><ele>78.0</ele><time>2026-05-02T06:49:15.147Z</time></trkpt><trkpt lat="42.4087309" lon="14.1176252"><ele>77.0</ele><time>2026-05-02T06:49:16.148Z</time></trkpt><trkpt lat="42.4086959" lon="14.1175346"><ele>76.8</ele><time>2026-05-02T06:49:17.148Z</time></trkpt><trkpt lat="42.4086656" lon="14.1174469"><ele>76.6</ele><time>2026-05-02T06:49:18.148Z</time></trkpt><trkpt lat="42.4086192" lon="14.1173328"><ele>76.39999999999999</ele><time>2026-05-02T06:49:20.147Z</time></trkpt><trkpt lat="42.4085385" lon="14.1172027"><ele>76.2</ele><time>2026-05-02T06:49:22.147Z</time></trkpt><trkpt lat="42.4084187" lon="14.1171242"><ele>76.0</ele><time>2026-05-02T06:49:23.148Z</time></trkpt><trkpt lat="42.4083349" lon="14.1170393"><ele>77.0</ele><time>2026-05-02T06:49:24.147Z</time></trkpt><trkpt lat="42.4082575" lon="14.1169543"><ele>78.0</ele><time>2026-05-02T06:49:25.148Z</time></trkpt><trkpt lat="42.408182" lon="14.1168719"><ele>79.0</ele><time>2026-05-02T06:49:26.147Z</time></trkpt><trkpt lat="42.4081134" lon="14.1167888"><ele>80.0</ele><time>2026-05-02T06:49:27.148Z</time></trkpt><trkpt lat="42.4080339" lon="14.116733"><ele>81.0</ele><time>2026-05-02T06:49:28.147Z</time></trkpt><trkpt lat="42.4079502" lon="14.1166827"><ele>83.19999999999999</ele><time>2026-05-02T06:49:29.148Z</time></trkpt><trkpt lat="42.4078767" lon="14.1166367"><ele>85.39999999999999</ele><time>2026-05-02T06:49:30.147Z</time></trkpt><trkpt lat="42.4078023" lon="14.1165871"><ele>87.6</ele><time>2026-05-02T06:49:31.148Z</time></trkpt><trkpt lat="42.4077263" lon="14.1165286"><ele>89.8</ele><time>2026-05-02T06:49:32.147Z</time></trkpt><trkpt lat="42.407637" lon="14.1164637"><ele>92.0</ele><time>2026-05-02T06:49:33.147Z</time></trkpt><trkpt lat="42.4075313" lon="14.116461"><ele>92.6</ele><time>2026-05-02T06:49:34.147Z</time></trkpt><trkpt lat="42.4074471" lon="14.1164311"><ele>93.19999999999999</ele><time>2026-05-02T06:49:35.147Z</time></trkpt><trkpt lat="42.4073406" lon="14.1163768"><ele>93.8</ele><time>2026-05-02T06:49:36.146Z</time></trkpt><trkpt lat="42.4072381" lon="14.1163622"><ele>94.4</ele><time>2026-05-02T06:49:37.147Z</time></trkpt><trkpt lat="42.4071488" lon="14.1163407"><ele>95.0</ele><time>2026-05-02T06:49:38.146Z</time></trkpt><trkpt lat="42.4070684" lon="14.1163113"><ele>96.6</ele><time>2026-05-02T06:49:39.146Z</time></trkpt><trkpt lat="42.4069888" lon="14.1162754"><ele>98.2</ele><time>2026-05-02T06:49:40.147Z</time></trkpt><trkpt lat="42.4069019" lon="14.1162232"><ele>99.80000000000001</ele><time>2026-05-02T06:49:41.148Z</time></trkpt><trkpt lat="42.4068002" lon="14.1161526"><ele>101.4</ele><time>2026-05-02T06:49:42.146Z</time></trkpt><trkpt lat="42.4066904" lon="14.1160717"><ele>103.0</ele><time>2026-05-02T06:49:43.146Z</time></trkpt><trkpt lat="42.406572" lon="14.1159801"><ele>103.0</ele><time>2026-05-02T06:49:44.146Z</time></trkpt><trkpt lat="42.4064564" lon="14.1158967"><ele>103.0</ele><time>2026-05-02T06:49:45.147Z</time></trkpt><trkpt lat="42.406341" lon="14.115805"><ele>103.0</ele><time>2026-05-02T06:49:46.146Z</time></trkpt><trkpt lat="42.4062337" lon="14.1157325"><ele>103.0</ele><time>2026-05-02T06:49:47.146Z</time></trkpt><trkpt lat="42.4061391" lon="14.1156668"><ele>104.00000000000001</ele><time>2026-05-02T06:49:48.147Z</time></trkpt><trkpt lat="42.4060382" lon="14.1156051"><ele>105.0</ele><time>2026-05-02T06:49:49.146Z</time></trkpt><trkpt lat="42.4059518" lon="14.1155358"><ele>106.0</ele><time>2026-05-02T06:49:50.146Z</time></trkpt><trkpt lat="42.4058737" lon="14.115486"><ele>107.0</ele><time>2026-05-02T06:49:51.146Z</time></trkpt><trkpt lat="42.4057971" lon="14.1154569"><ele>108.00000000000001</ele><time>2026-05-02T06:49:52.146Z</time></trkpt><trkpt lat="42.4057254" lon="14.1154581"><ele>109.0</ele><time>2026-05-02T06:49:53.147Z</time></trkpt><trkpt lat="42.4056578" lon="14.1154762"><ele>109.0</ele><time>2026-05-02T06:49:54.146Z</time></trkpt><trkpt lat="42.4055906" lon="14.1154993"><ele>109.0</ele><time>2026-05-02T06:49:55.146Z</time></trkpt><trkpt lat="42.4055324" lon="14.1155449"><ele>109.0</ele><time>2026-05-02T06:49:56.147Z</time></trkpt><trkpt lat="42.4054826" lon="14.11561"><ele>109.0</ele><time>2026-05-02T06:49:57.147Z</time></trkpt><trkpt lat="42.4054424" lon="14.1156864"><ele>109.0</ele><time>2026-05-02T06:49:58.146Z</time></trkpt><trkpt lat="42.4054067" lon="14.1157707"><ele>109.0</ele><time>2026-05-02T06:49:59.146Z</time></trkpt><trkpt lat="42.4053627" lon="14.1158617"><ele>109.0</ele><time>2026-05-02T06:50:00.147Z</time></trkpt><trkpt lat="42.4053092" lon="14.1159603"><ele>107.25</ele><time>2026-05-02T06:50:01.146Z</time></trkpt><trkpt lat="42.4052347" lon="14.1160731"><ele>105.5</ele><time>2026-05-02T06:50:02.147Z</time></trkpt><trkpt lat="42.4051608" lon="14.116185"><ele>103.75</ele><time>2026-05-02T06:50:03.147Z</time></trkpt><trkpt lat="42.4050764" lon="14.1162996"><ele>102.0</ele><time>2026-05-02T06:50:04.146Z</time></trkpt><trkpt lat="42.4049874" lon="14.1164032"><ele>102.0</ele><time>2026-05-02T06:50:05.147Z</time></trkpt><trkpt lat="42.4048874" lon="14.1165255"><ele>102.0</ele><time>2026-05-02T06:50:06.146Z</time></trkpt><trkpt lat="42.404794" lon="14.1166502"><ele>102.0</ele><time>2026-05-02T06:50:07.147Z</time></trkpt><trkpt lat="42.4046857" lon="14.1167816"><ele>102.0</ele><time>2026-05-02T06:50:08.146Z</time></trkpt><trkpt lat="42.4045829" lon="14.1169095"><ele>98.0</ele><time>2026-05-02T06:50:09.148Z</time></trkpt><trkpt lat="42.4044635" lon="14.1170497"><ele>94.0</ele><time>2026-05-02T06:50:10.146Z</time></trkpt><trkpt lat="42.4043464" lon="14.1171948"><ele>90.0</ele><time>2026-05-02T06:50:11.146Z</time></trkpt><trkpt lat="42.4042326" lon="14.1173223"><ele>87.5</ele><time>2026-05-02T06:50:12.148Z</time></trkpt><trkpt lat="42.4041272" lon="14.117451"><ele>85.0</ele><time>2026-05-02T06:50:13.146Z</time></trkpt><trkpt lat="42.4068002" lon="14.1161526"><ele>89.5</ele><time>2026-05-02T06:49:42.146Z</time></trkpt><trkpt lat="42.4066904" lon="14.1160717"><ele>94.0</ele><time>2026-05-02T06:49:43.146Z</time></trkpt><trkpt lat="42.406572" lon="14.1159801"><ele>98.5</ele><time>2026-05-02T06:49:44.146Z</time></trkpt><trkpt lat="42.4064564" lon="14.1158967"><ele>103.0</ele><time>2026-05-02T06:49:45.147Z</time></trkpt><trkpt lat="42.406341" lon="14.115805"><ele>104.2</ele><time>2026-05-02T06:49:46.146Z</time></trkpt><trkpt lat="42.4062337" lon="14.1157325"><ele>105.4</ele><time>2026-05-02T06:49:47.146Z</time></trkpt><trkpt lat="42.4061391" lon="14.1156668"><ele>106.60000000000001</ele><time>2026-05-02T06:49:48.147Z</time></trkpt><trkpt lat="42.4060382" lon="14.1156051"><ele>107.80000000000001</ele><time>2026-05-02T06:49:49.146Z</time></trkpt><trkpt lat="42.4059518" lon="14.1155358"><ele>109.0</ele><time>2026-05-02T06:49:50.146Z</time></trkpt><trkpt lat="42.4058737" lon="14.115486"><ele>109.0</ele><time>2026-05-02T06:49:51.146Z</time></trkpt><trkpt lat="42.4057971" lon="14.1154569"><ele>109.0</ele><time>2026-05-02T06:49:52.146Z</time></trkpt><trkpt lat="42.4057254" lon="14.1154581"><ele>109.0</ele><time>2026-05-02T06:49:53.147Z</time></trkpt><trkpt lat="42.4056578" lon="14.1154762"><ele>109.0</ele><time>2026-05-02T06:49:54.146Z</time></trkpt><trkpt lat="42.4055906" lon="14.1154993"><ele>109.0</ele><time>2026-05-02T06:49:55.146Z</time></trkpt><trkpt lat="42.4055324" lon="14.1155449"><ele>109.0</ele><time>2026-05-02T06:49:56.147Z</time></trkpt><trkpt lat="42.4054826" lon="14.11561"><ele>109.0</ele><time>2026-05-02T06:49:57.147Z</time></trkpt><trkpt lat="42.4054424" lon="14.1156864"><ele>107.6</ele><time>2026-05-02T06:49:58.146Z</time></trkpt><trkpt lat="42.4054067" lon="14.1157707"><ele>106.2</ele><time>2026-05-02T06:49:59.146Z</time></trkpt><trkpt lat="42.4053627" lon="14.1158617"><ele>104.8</ele><time>2026-05-02T06:50:00.147Z</time></trkpt><trkpt lat="42.4053092" lon="14.1159603"><ele>103.39999999999999</ele><time>2026-05-02T06:50:01.146Z</time></trkpt><trkpt lat="42.4052347" lon="14.1160731"><ele>102.0</ele><time>2026-05-02T06:50:02.147Z</time></trkpt><trkpt lat="42.4051608" lon="14.116185"><ele>102.0</ele><time>2026-05-02T06:50:03.147Z</time></trkpt><trkpt lat="42.4050764" lon="14.1162996"><ele>102.0</ele><time>2026-05-02T06:50:04.146Z</time></trkpt><trkpt lat="42.4049874" lon="14.1164032"><ele>102.0</ele><time>2026-05-02T06:50:05.147Z</time></trkpt><trkpt lat="42.4048874" lon="14.1165255"><ele>102.0</ele><time>2026-05-02T06:50:06.146Z</time></trkpt><trkpt lat="42.404794" lon="14.1166502"><ele>100.0</ele><time>2026-05-02T06:50:07.147Z</time></trkpt><trkpt lat="42.4046857" lon="14.1167816"><ele>98.0</ele><time>2026-05-02T06:50:08.146Z</time></trkpt><trkpt lat="42.4045829" lon="14.1169095"><ele>96.0</ele><time>2026-05-02T06:50:09.148Z</time></trkpt><trkpt lat="42.4044635" lon="14.1170497"><ele>94.0</ele><time>2026-05-02T06:50:10.146Z</time></trkpt><trkpt lat="42.4043464" lon="14.1171948"><ele>93.0</ele><time>2026-05-02T06:50:11.146Z</time></trkpt><trkpt lat="42.4042326" lon="14.1173223"><ele>92.0</ele><time>2026-05-02T06:50:12.148Z</time></trkpt><trkpt lat="42.4041272" lon="14.117451"><ele>91.0</ele><time>2026-05-02T06:50:13.146Z</time></trkpt><trkpt lat="42.4040251" lon="14.1175734"><ele>90.0</ele><time>2026-05-02T06:50:14.148Z</time></trkpt><trkpt lat="42.4039291" lon="14.1176961"><ele>88.75</ele><time>2026-05-02T06:50:15.146Z</time></trkpt><trkpt lat="42.4038334" lon="14.1178178"><ele>87.5</ele><time>2026-05-02T06:50:16.147Z</time></trkpt><trkpt lat="42.4037304" lon="14.1179469"><ele>86.25</ele><time>2026-05-02T06:50:17.146Z</time></trkpt><trkpt lat="42.4036311" lon="14.1180758"><ele>85.0</ele><time>2026-05-02T06:50:18.147Z</time></trkpt><trkpt lat="42.4035309" lon="14.1181975"><ele>83.75</ele><time>2026-05-02T06:50:19.146Z</time></trkpt><trkpt lat="42.403428" lon="14.1183199"><ele>82.5</ele><time>2026-05-02T06:50:20.147Z</time></trkpt><trkpt lat="42.403322" lon="14.1184424"><ele>81.25</ele><time>2026-05-02T06:50:21.147Z</time></trkpt><trkpt lat="42.4032157" lon="14.1185734"><ele>80.0</ele><time>2026-05-02T06:50:22.146Z</time></trkpt><trkpt lat="42.4031022" lon="14.1187114"><ele>79.75</ele><time>2026-05-02T06:50:23.147Z</time></trkpt><trkpt lat="42.4029902" lon="14.11885"><ele>79.5</ele><time>2026-05-02T06:50:24.147Z</time></trkpt><trkpt lat="42.402886" lon="14.1189868"><ele>79.25</ele><time>2026-05-02T06:50:25.146Z</time></trkpt><trkpt lat="42.4027843" lon="14.1191159"><ele>79.0</ele><time>2026-05-02T06:50:26.146Z</time></trkpt><trkpt lat="42.4026794" lon="14.1192387"><ele>78.0</ele><time>2026-05-02T06:50:27.147Z</time></trkpt><trkpt lat="42.4025753" lon="14.1193539"><ele>77.0</ele><time>2026-05-02T06:50:28.146Z</time></trkpt><trkpt lat="42.4024675" lon="14.1194646"><ele>76.0</ele><time>2026-05-02T06:50:29.146Z</time></trkpt><trkpt lat="42.402351" lon="14.1195861"><ele>75.0</ele><time>2026-05-02T06:50:30.146Z</time></trkpt><trkpt lat="42.4022271" lon="14.1197004"><ele>74.33333333333333</ele><time>2026-05-02T06:50:31.146Z</time></trkpt><trkpt lat="42.4020992" lon="14.1198284"><ele>73.66666666666666</ele><time>2026-05-02T06:50:32.147Z</time></trkpt><trkpt lat="42.4019697" lon="14.1199438"><ele>73.0</ele><time>2026-05-02T06:50:33.147Z</time></trkpt><trkpt lat="42.4018141" lon="14.1200854"><ele>71.0</ele><time>2026-05-02T06:50:34.146Z</time></trkpt><trkpt lat="42.4016675" lon="14.1202106"><ele>69.0</ele><time>2026-05-02T06:50:35.146Z</time></trkpt><trkpt lat="42.401517" lon="14.1203438"><ele>67.0</ele><time>2026-05-02T06:50:36.147Z</time></trkpt><trkpt lat="42.4013652" lon="14.1204723"><ele>66.33333333333333</ele><time>2026-05-02T06:50:37.146Z</time></trkpt><trkpt lat="42.4012253" lon="14.1205963"><ele>65.66666666666667</ele><time>2026-05-02T06:50:38.148Z</time></trkpt><trkpt lat="42.4010892" lon="14.1207154"><ele>65.0</ele><time>2026-05-02T06:50:39.147Z</time></trkpt><trkpt lat="42.4009619" lon="14.1208425"><ele>64.66666666666667</ele><time>2026-05-02T06:50:40.146Z</time></trkpt><trkpt lat="42.400821" lon="14.1209822"><ele>64.33333333333333</ele><time>2026-05-02T06:50:41.146Z</time></trkpt><trkpt lat="42.4006848" lon="14.1211148"><ele>64.0</ele><time>2026-05-02T06:50:42.147Z</time></trkpt><trkpt lat="42.4005517" lon="14.1212352"><ele>63.25</ele><time>2026-05-02T06:50:43.147Z</time></trkpt><trkpt lat="42.4004219" lon="14.1213631"><ele>62.5</ele><time>2026-05-02T06:50:44.146Z</time></trkpt><trkpt lat="42.4003046" lon="14.1214516"><ele>61.75</ele><time>2026-05-02T06:50:45.147Z</time></trkpt><trkpt lat="42.400193" lon="14.1215635"><ele>61.0</ele><time>2026-05-02T06:50:46.146Z</time></trkpt><trkpt lat="42.4000881" lon="14.1216865"><ele>61.0</ele><time>2026-05-02T06:50:47.146Z</time></trkpt><trkpt lat="42.4000296" lon="14.1218514"><ele>61.0</ele><time>2026-05-02T06:50:48.146Z</time></trkpt><trkpt lat="42.3999478" lon="14.122007"><ele>61.0</ele><time>2026-05-02T06:50:49.148Z</time></trkpt><trkpt lat="42.3998766" lon="14.1222356"><ele>61.0</ele><time>2026-05-02T06:50:50.147Z</time></trkpt><trkpt lat="42.3998124" lon="14.1224088"><ele>61.0</ele><time>2026-05-02T06:50:51.146Z</time></trkpt><trkpt lat="42.3997663" lon="14.1225535"><ele>61.0</ele><time>2026-05-02T06:50:52.146Z</time></trkpt><trkpt lat="42.3997369" lon="14.1227148"><ele>61.0</ele><time>2026-05-02T06:50:53.147Z</time></trkpt><trkpt lat="42.3997348" lon="14.1228859"><ele>61.0</ele><time>2026-05-02T06:50:54.147Z</time></trkpt><trkpt lat="42.3997509" lon="14.1230546"><ele>61.0</ele><time>2026-05-02T06:50:55.148Z</time></trkpt><trkpt lat="42.399768" lon="14.1231951"><ele>61.0</ele><time>2026-05-02T06:50:56.147Z</time></trkpt><trkpt lat="42.3997615" lon="14.1233349"><ele>61.0</ele><time>2026-05-02T06:50:57.146Z</time></trkpt><trkpt lat="42.3997242" lon="14.1234915"><ele>58.666666666666664</ele><time>2026-05-02T06:50:58.146Z</time></trkpt><trkpt lat="42.3996586" lon="14.1236757"><ele>56.33333333333333</ele><time>2026-05-02T06:50:59.146Z</time></trkpt><trkpt lat="42.3995768" lon="14.1238701"><ele>54.0</ele><time>2026-05-02T06:51:00.146Z</time></trkpt><trkpt lat="42.3994894" lon="14.1240822"><ele>53.33333333333333</ele><time>2026-05-02T06:51:01.146Z</time></trkpt><trkpt lat="42.3994033" lon="14.124279"><ele>52.666666666666664</ele><time>2026-05-02T06:51:02.147Z</time></trkpt><trkpt lat="42.3993093" lon="14.1244826"><ele>52.0</ele><time>2026-05-02T06:51:03.147Z</time></trkpt><trkpt lat="42.399215" lon="14.1246841"><ele>52.0</ele><time>2026-05-02T06:51:04.147Z</time></trkpt><trkpt lat="42.3991193" lon="14.1248504"><ele>52.0</ele><time>2026-05-02T06:51:05.146Z</time></trkpt><trkpt lat="42.3990269" lon="14.1250029"><ele>52.0</ele><time>2026-05-02T06:51:06.146Z</time></trkpt><trkpt lat="42.3989374" lon="14.1251331"><ele>52.0</ele><time>2026-05-02T06:51:07.146Z</time></trkpt><trkpt lat="42.3988458" lon="14.125234"><ele>50.25</ele><time>2026-05-02T06:51:08.146Z</time></trkpt><trkpt lat="42.3987468" lon="14.1253057"><ele>48.5</ele><time>2026-05-02T06:51:09.146Z</time></trkpt><trkpt lat="42.3986338" lon="14.1253435"><ele>46.75</ele><time>2026-05-02T06:51:10.147Z</time></trkpt><trkpt lat="42.3985104" lon="14.1253452"><ele>45.0</ele><time>2026-05-02T06:51:11.146Z</time></trkpt><trkpt lat="42.3983771" lon="14.1253298"><ele>45.0</ele><time>2026-05-02T06:51:12.146Z</time></trkpt><trkpt lat="42.3982321" lon="14.125294"><ele>45.0</ele><time>2026-05-02T06:51:13.146Z</time></trkpt><trkpt lat="42.3980895" lon="14.1252707"><ele>45.0</ele><time>2026-05-02T06:51:14.146Z</time></trkpt><trkpt lat="42.3979565" lon="14.1252977"><ele>45.0</ele><time>2026-05-02T06:51:15.146Z</time></trkpt><trkpt lat="42.3978474" lon="14.1253734"><ele>45.25</ele><time>2026-05-02T06:51:16.147Z</time></trkpt><trkpt lat="42.3977566" lon="14.1254997"><ele>45.5</ele><time>2026-05-02T06:51:17.146Z</time></trkpt><trkpt lat="42.397683" lon="14.1256638"><ele>45.75</ele><time>2026-05-02T06:51:18.146Z</time></trkpt><trkpt lat="42.3976115" lon="14.1258063"><ele>46.0</ele><time>2026-05-02T06:51:19.146Z</time></trkpt><trkpt lat="42.3975354" lon="14.1259187"><ele>47.0</ele><time>2026-05-02T06:51:20.146Z</time></trkpt><trkpt lat="42.3974569" lon="14.1260475"><ele>48.0</ele><time>2026-05-02T06:51:21.146Z</time></trkpt><trkpt lat="42.3973254" lon="14.1260889"><ele>49.0</ele><time>2026-05-02T06:51:22.147Z</time></trkpt><trkpt lat="42.3971926" lon="14.1261591"><ele>50.0</ele><time>2026-05-02T06:51:23.148Z</time></trkpt><trkpt lat="42.3970349" lon="14.1262323"><ele>51.333333333333336</ele><time>2026-05-02T06:51:24.147Z</time></trkpt><trkpt lat="42.3968511" lon="14.1263216"><ele>52.66666666666667</ele><time>2026-05-02T06:51:25.147Z</time></trkpt><trkpt lat="42.3966563" lon="14.1264052"><ele>54.0</ele><time>2026-05-02T06:51:26.147Z</time></trkpt><trkpt lat="42.3964816" lon="14.1264687"><ele>54.0</ele><time>2026-05-02T06:51:27.147Z</time></trkpt><trkpt lat="42.3963112" lon="14.1265182"><ele>54.0</ele><time>2026-05-02T06:51:28.148Z</time></trkpt><trkpt lat="42.3961383" lon="14.1265537"><ele>54.0</ele><time>2026-05-02T06:51:29.147Z</time></trkpt><trkpt lat="42.3959551" lon="14.1265913"><ele>54.0</ele><time>2026-05-02T06:51:30.146Z</time></trkpt><trkpt lat="42.3957619" lon="14.1266356"><ele>54.0</ele><time>2026-05-02T06:51:31.147Z</time></trkpt><trkpt lat="42.3955568" lon="14.1266855"><ele>54.0</ele><time>2026-05-02T06:51:32.147Z</time></trkpt><trkpt lat="42.3953485" lon="14.1267302"><ele>54.0</ele><time>2026-05-02T06:51:33.146Z</time></trkpt><trkpt lat="42.395133" lon="14.1267749"><ele>54.0</ele><time>2026-05-02T06:51:34.146Z</time></trkpt><trkpt lat="42.3949208" lon="14.12682"><ele>54.0</ele><time>2026-05-02T06:51:35.147Z</time></trkpt><trkpt lat="42.3947146" lon="14.1268575"><ele>55.0</ele><time>2026-05-02T06:51:36.148Z</time></trkpt><trkpt lat="42.39451" lon="14.1268921"><ele>56.0</ele><time>2026-05-02T06:51:37.147Z</time></trkpt><trkpt lat="42.3943246" lon="14.1269287"><ele>57.0</ele><time>2026-05-02T06:51:38.147Z</time></trkpt><trkpt lat="42.3941463" lon="14.1269633"><ele>57.0</ele><time>2026-05-02T06:51:39.146Z</time></trkpt><trkpt lat="42.3939759" lon="14.1270007"><ele>57.0</ele><time>2026-05-02T06:51:40.147Z</time></trkpt><trkpt lat="42.3938059" lon="14.1270578"><ele>57.0</ele><time>2026-05-02T06:51:41.147Z</time></trkpt><trkpt lat="42.3936412" lon="14.1271543"><ele>56.33333333333333</ele><time>2026-05-02T06:51:42.147Z</time></trkpt><trkpt lat="42.3934833" lon="14.1272841"><ele>55.666666666666664</ele><time>2026-05-02T06:51:43.147Z</time></trkpt><trkpt lat="42.3933213" lon="14.1274486"><ele>55.0</ele><time>2026-05-02T06:51:44.146Z</time></trkpt><trkpt lat="42.3931603" lon="14.1276275"><ele>54.666666666666664</ele><time>2026-05-02T06:51:45.146Z</time></trkpt><trkpt lat="42.3930036" lon="14.1278098"><ele>54.33333333333333</ele><time>2026-05-02T06:51:46.147Z</time></trkpt><trkpt lat="42.3928534" lon="14.1279922"><ele>54.0</ele><time>2026-05-02T06:51:47.147Z</time></trkpt><trkpt lat="42.3927092" lon="14.1281856"><ele>54.0</ele><time>2026-05-02T06:51:48.147Z</time></trkpt><trkpt lat="42.3925662" lon="14.1283801"><ele>54.0</ele><time>2026-05-02T06:51:49.146Z</time></trkpt><trkpt lat="42.3924374" lon="14.1285611"><ele>54.0</ele><time>2026-05-02T06:51:50.147Z</time></trkpt><trkpt lat="42.3923221" lon="14.1287275"><ele>54.0</ele><time>2026-05-02T06:51:51.146Z</time></trkpt><trkpt lat="42.3922142" lon="14.1288904"><ele>54.0</ele><time>2026-05-02T06:51:52.146Z</time></trkpt><trkpt lat="42.3921148" lon="14.1290415"><ele>54.0</ele><time>2026-05-02T06:51:53.146Z</time></trkpt><trkpt lat="42.392021" lon="14.1291761"><ele>54.0</ele><time>2026-05-02T06:51:54.146Z</time></trkpt><trkpt lat="42.3919359" lon="14.1293036"><ele>54.2</ele><time>2026-05-02T06:51:55.146Z</time></trkpt><trkpt lat="42.3918533" lon="14.1294037"><ele>54.400000000000006</ele><time>2026-05-02T06:51:56.146Z</time></trkpt><trkpt lat="42.3917616" lon="14.1294748"><ele>54.6</ele><time>2026-05-02T06:51:57.146Z</time></trkpt><trkpt lat="42.3916629" lon="14.129515"><ele>54.8</ele><time>2026-05-02T06:51:58.147Z</time></trkpt><trkpt lat="42.3915546" lon="14.1295271"><ele>55.0</ele><time>2026-05-02T06:51:59.148Z</time></trkpt><trkpt lat="42.3914413" lon="14.1295052"><ele>51.75</ele><time>2026-05-02T06:52:00.146Z</time></trkpt><trkpt lat="42.3913132" lon="14.1294592"><ele>48.5</ele><time>2026-05-02T06:52:01.146Z</time></trkpt><trkpt lat="42.3911677" lon="14.1294262"><ele>45.25</ele><time>2026-05-02T06:52:02.147Z</time></trkpt><trkpt lat="42.3910008" lon="14.1294303"><ele>42.0</ele><time>2026-05-02T06:52:03.147Z</time></trkpt><trkpt lat="42.3908155" lon="14.1294678"><ele>42.0</ele><time>2026-05-02T06:52:04.147Z</time></trkpt><trkpt lat="42.3906433" lon="14.1295326"><ele>42.0</ele><time>2026-05-02T06:52:05.146Z</time></trkpt><trkpt lat="42.3904769" lon="14.1295954"><ele>42.0</ele><time>2026-05-02T06:52:06.146Z</time></trkpt><trkpt lat="42.3903233" lon="14.1296544"><ele>39.0</ele><time>2026-05-02T06:52:07.146Z</time></trkpt><trkpt lat="42.3901802" lon="14.1297156"><ele>36.0</ele><time>2026-05-02T06:52:08.146Z</time></trkpt><trkpt lat="42.3900474" lon="14.1297717"><ele>33.0</ele><time>2026-05-02T06:52:09.146Z</time></trkpt><trkpt lat="42.3899241" lon="14.1298213"><ele>30.0</ele><time>2026-05-02T06:52:10.147Z</time></trkpt><trkpt lat="42.3898122" lon="14.1298651"><ele>30.0</ele><time>2026-05-02T06:52:11.146Z</time></trkpt><trkpt lat="42.3897133" lon="14.1299064"><ele>30.0</ele><time>2026-05-02T06:52:12.146Z</time></trkpt><trkpt lat="42.3896272" lon="14.1299442"><ele>30.0</ele><time>2026-05-02T06:52:13.146Z</time></trkpt><trkpt lat="42.3895616" lon="14.1299809"><ele>30.0</ele><time>2026-05-02T06:52:14.147Z</time></trkpt><trkpt lat="42.3895008" lon="14.1300083"><ele>30.0</ele><time>2026-05-02T06:52:15.146Z</time></trkpt><trkpt lat="42.3894317" lon="14.1300447"><ele>30.0</ele><time>2026-05-02T06:52:16.146Z</time></trkpt><trkpt lat="42.3893501" lon="14.1301046"><ele>30.0</ele><time>2026-05-02T06:52:17.147Z</time></trkpt><trkpt lat="42.389254" lon="14.1301788"><ele>30.0</ele><time>2026-05-02T06:52:18.147Z</time></trkpt><trkpt lat="42.3891489" lon="14.1302583"><ele>30.0</ele><time>2026-05-02T06:52:19.147Z</time></trkpt><trkpt lat="42.3890326" lon="14.1303493"><ele>30.0</ele><time>2026-05-02T06:52:20.148Z</time></trkpt><trkpt lat="42.3889208" lon="14.1304383"><ele>30.0</ele><time>2026-05-02T06:52:21.146Z</time></trkpt><trkpt lat="42.3888195" lon="14.1305186"><ele>30.0</ele><time>2026-05-02T06:52:22.147Z</time></trkpt><trkpt lat="42.388738" lon="14.130583"><ele>30.0</ele><time>2026-05-02T06:52:23.147Z</time></trkpt><trkpt lat="42.3886645" lon="14.1306343"><ele>30.0</ele><time>2026-05-02T06:52:24.147Z</time></trkpt><trkpt lat="42.3885429" lon="14.1306769"><ele>30.0</ele><time>2026-05-02T06:52:26.147Z</time></trkpt><trkpt lat="42.3884625" lon="14.1306572"><ele>30.0</ele><time>2026-05-02T06:52:27.146Z</time></trkpt><trkpt lat="42.3883759" lon="14.1306107"><ele>30.0</ele><time>2026-05-02T06:52:28.146Z</time></trkpt><trkpt lat="42.3882955" lon="14.1305586"><ele>30.0</ele><time>2026-05-02T06:52:29.147Z</time></trkpt><trkpt lat="42.3882249" lon="14.1305191"><ele>30.0</ele><time>2026-05-02T06:52:30.147Z</time></trkpt><trkpt lat="42.388165" lon="14.1304788"><ele>30.0</ele><time>2026-05-02T06:52:31.147Z</time></trkpt><trkpt lat="42.3880604" lon="14.1304121"><ele>30.0</ele><time>2026-05-02T06:52:33.148Z</time></trkpt><trkpt lat="42.387932" lon="14.1303573"><ele>30.4</ele><time>2026-05-02T06:52:35.146Z</time></trkpt><trkpt lat="42.3878525" lon="14.1303151"><ele>30.8</ele><time>2026-05-02T06:52:36.147Z</time></trkpt><trkpt lat="42.3877651" lon="14.1302521"><ele>31.200000000000003</ele><time>2026-05-02T06:52:37.147Z</time></trkpt><trkpt lat="42.3876746" lon="14.1301698"><ele>31.6</ele><time>2026-05-02T06:52:38.147Z</time></trkpt><trkpt lat="42.3875818" lon="14.1300833"><ele>32.0</ele><time>2026-05-02T06:52:39.147Z</time></trkpt><trkpt lat="42.3874917" lon="14.1300043"><ele>32.0</ele><time>2026-05-02T06:52:40.146Z</time></trkpt><trkpt lat="42.3873973" lon="14.1299231"><ele>32.0</ele><time>2026-05-02T06:52:41.147Z</time></trkpt><trkpt lat="42.3873105" lon="14.1298458"><ele>32.0</ele><time>2026-05-02T06:52:42.147Z</time></trkpt><trkpt lat="42.3872348" lon="14.1297743"><ele>32.0</ele><time>2026-05-02T06:52:43.146Z</time></trkpt><trkpt lat="42.3871677" lon="14.1297142"><ele>32.0</ele><time>2026-05-02T06:52:44.147Z</time></trkpt><trkpt lat="42.387114" lon="14.1296668"><ele>32.2</ele><time>2026-05-02T06:52:45.147Z</time></trkpt><trkpt lat="42.387024" lon="14.1295744"><ele>32.400000000000006</ele><time>2026-05-02T06:52:47.146Z</time></trkpt><trkpt lat="42.3869542" lon="14.1295118"><ele>32.599999999999994</ele><time>2026-05-02T06:52:49.146Z</time></trkpt><trkpt lat="42.3868874" lon="14.1295416"><ele>32.8</ele><time>2026-05-02T06:52:51.147Z</time></trkpt><trkpt lat="42.386823" lon="14.1296888"><ele>33.0</ele><time>2026-05-02T06:52:53.146Z</time></trkpt><trkpt lat="42.3867808" lon="14.1297822"><ele>33.0</ele><time>2026-05-02T06:52:54.147Z</time></trkpt><trkpt lat="42.3867451" lon="14.1298604"><ele>33.0</ele><time>2026-05-02T06:52:55.146Z</time></trkpt><trkpt lat="42.3867011" lon="14.1300017"><ele>33.0</ele><time>2026-05-02T06:52:57.146Z</time></trkpt><trkpt lat="42.3867204" lon="14.1301304"><ele>33.0</ele><time>2026-05-02T06:52:59.146Z</time></trkpt><trkpt lat="42.3867534" lon="14.1302552"><ele>33.0</ele><time>2026-05-02T06:53:01.147Z</time></trkpt><trkpt lat="42.3867634" lon="14.1303741"><ele>32.8</ele><time>2026-05-02T06:53:03.147Z</time></trkpt><trkpt lat="42.3867249" lon="14.1304887"><ele>32.599999999999994</ele><time>2026-05-02T06:53:05.146Z</time></trkpt><trkpt lat="42.3866596" lon="14.1306169"><ele>32.400000000000006</ele><time>2026-05-02T06:53:07.147Z</time></trkpt><trkpt lat="42.3865789" lon="14.1306902"><ele>32.2</ele><time>2026-05-02T06:53:09.146Z</time></trkpt><trkpt lat="42.386461" lon="14.1306956"><ele>32.0</ele><time>2026-05-02T06:53:11.147Z</time></trkpt><trkpt lat="42.3863486" lon="14.1306806"><ele>31.999999999999996</ele><time>2026-05-02T06:53:13.147Z</time></trkpt><trkpt lat="42.3862501" lon="14.1307231"><ele>32.0</ele><time>2026-05-02T06:53:15.147Z</time></trkpt><trkpt lat="42.386174" lon="14.1308042"><ele>32.0</ele><time>2026-05-02T06:53:17.146Z</time></trkpt><trkpt lat="42.3861393" lon="14.1308836"><ele>32.0</ele><time>2026-05-02T06:53:18.147Z</time></trkpt><trkpt lat="42.3860938" lon="14.1309737"><ele>31.999999999999996</ele><time>2026-05-02T06:53:19.147Z</time></trkpt><trkpt lat="42.3860698" lon="14.1310629"><ele>32.0</ele><time>2026-05-02T06:53:20.147Z</time></trkpt><trkpt lat="42.3860445" lon="14.1311588"><ele>32.0</ele><time>2026-05-02T06:53:21.147Z</time></trkpt><trkpt lat="42.3859712" lon="14.1312507"><ele>32.0</ele><time>2026-05-02T06:53:23.146Z</time></trkpt><trkpt lat="42.3858887" lon="14.1312286"><ele>32.0</ele><time>2026-05-02T06:53:25.147Z</time></trkpt><trkpt lat="42.3857902" lon="14.1311007"><ele>32.0</ele><time>2026-05-02T06:53:27.147Z</time></trkpt><trkpt lat="42.3857412" lon="14.1310344"><ele>32.0</ele><time>2026-05-02T06:53:28.146Z</time></trkpt><trkpt lat="42.3856842" lon="14.1309606"><ele>32.0</ele><time>2026-05-02T06:53:29.147Z</time></trkpt><trkpt lat="42.3856127" lon="14.130884"><ele>32.0</ele><time>2026-05-02T06:53:30.147Z</time></trkpt><trkpt lat="42.3855404" lon="14.1308223"><ele>32.0</ele><time>2026-05-02T06:53:31.147Z</time></trkpt><trkpt lat="42.3854572" lon="14.130753"><ele>32.0</ele><time>2026-05-02T06:53:32.146Z</time></trkpt><trkpt lat="42.3853764" lon="14.1306782"><ele>32.0</ele><time>2026-05-02T06:53:33.147Z</time></trkpt><trkpt lat="42.3852855" lon="14.1306024"><ele>31.8</ele><time>2026-05-02T06:53:34.146Z</time></trkpt><trkpt lat="42.3851925" lon="14.1305267"><ele>31.6</ele><time>2026-05-02T06:53:35.147Z</time></trkpt><trkpt lat="42.3851007" lon="14.1304442"><ele>31.400000000000002</ele><time>2026-05-02T06:53:36.147Z</time></trkpt><trkpt lat="42.3850111" lon="14.1303634"><ele>31.200000000000003</ele><time>2026-05-02T06:53:37.146Z</time></trkpt><trkpt lat="42.3849291" lon="14.1302838"><ele>31.0</ele><time>2026-05-02T06:53:38.147Z</time></trkpt><trkpt lat="42.3848423" lon="14.1302063"><ele>31.0</ele><time>2026-05-02T06:53:39.147Z</time></trkpt><trkpt lat="42.3847505" lon="14.1301276"><ele>31.0</ele><time>2026-05-02T06:53:40.146Z</time></trkpt><trkpt lat="42.384656" lon="14.1300427"><ele>31.0</ele><time>2026-05-02T06:53:41.146Z</time></trkpt><trkpt lat="42.3845566" lon="14.1299469"><ele>31.0</ele><time>2026-05-02T06:53:42.147Z</time></trkpt><trkpt lat="42.3844579" lon="14.1298513"><ele>30.75</ele><time>2026-05-02T06:53:43.146Z</time></trkpt><trkpt lat="42.3843584" lon="14.1297521"><ele>30.5</ele><time>2026-05-02T06:53:44.146Z</time></trkpt><trkpt lat="42.384261" lon="14.12966"><ele>30.25</ele><time>2026-05-02T06:53:45.147Z</time></trkpt><trkpt lat="42.3841629" lon="14.1295698"><ele>30.0</ele><time>2026-05-02T06:53:46.147Z</time></trkpt><trkpt lat="42.3840715" lon="14.1294769"><ele>30.0</ele><time>2026-05-02T06:53:47.146Z</time></trkpt><trkpt lat="42.3839857" lon="14.1293944"><ele>30.0</ele><time>2026-05-02T06:53:48.148Z</time></trkpt><trkpt lat="42.3838959" lon="14.1293133"><ele>30.0</ele><time>2026-05-02T06:53:49.147Z</time></trkpt><trkpt lat="42.3838107" lon="14.1292387"><ele>30.0</ele><time>2026-05-02T06:53:50.147Z</time></trkpt><trkpt lat="42.3837282" lon="14.129168"><ele>30.0</ele><time>2026-05-02T06:53:51.147Z</time></trkpt><trkpt lat="42.3836507" lon="14.1290952"><ele>30.0</ele><time>2026-05-02T06:53:52.146Z</time></trkpt><trkpt lat="42.3835757" lon="14.129027"><ele>30.0</ele><time>2026-05-02T06:53:53.146Z</time></trkpt><trkpt lat="42.3835079" lon="14.1289596"><ele>30.0</ele><time>2026-05-02T06:53:54.146Z</time></trkpt><trkpt lat="42.3834476" lon="14.1288959"><ele>30.0</ele><time>2026-05-02T06:53:55.147Z</time></trkpt><trkpt lat="42.383359" lon="14.1288185"><ele>30.0</ele><time>2026-05-02T06:53:57.147Z</time></trkpt><trkpt lat="42.3832965" lon="14.128799"><ele>30.0</ele><time>2026-05-02T06:54:02.147Z</time></trkpt><trkpt lat="42.3832392" lon="14.1287425"><ele>30.0</ele><time>2026-05-02T06:54:05.147Z</time></trkpt><trkpt lat="42.383163" lon="14.1287116"><ele>30.0</ele><time>2026-05-02T06:54:07.146Z</time></trkpt><trkpt lat="42.3830821" lon="14.1287559"><ele>30.0</ele><time>2026-05-02T06:54:10.147Z</time></trkpt><trkpt lat="42.3829968" lon="14.1288275"><ele>30.0</ele><time>2026-05-02T06:54:12.146Z</time></trkpt><trkpt lat="42.3829019" lon="14.1288624"><ele>30.0</ele><time>2026-05-02T06:54:14.147Z</time></trkpt><trkpt lat="42.3828073" lon="14.1288435"><ele>30.0</ele><time>2026-05-02T06:54:16.147Z</time></trkpt><trkpt lat="42.3827042" lon="14.1287951"><ele>30.0</ele><time>2026-05-02T06:54:18.147Z</time></trkpt><trkpt lat="42.3825885" lon="14.128772"><ele>30.0</ele><time>2026-05-02T06:54:20.146Z</time></trkpt><trkpt lat="42.3825058" lon="14.1288384"><ele>30.0</ele><time>2026-05-02T06:54:22.146Z</time></trkpt><trkpt lat="42.3824703" lon="14.1289991"><ele>30.0</ele><time>2026-05-02T06:54:24.147Z</time></trkpt><trkpt lat="42.3824745" lon="14.1290965"><ele>30.0</ele><time>2026-05-02T06:54:25.146Z</time></trkpt><trkpt lat="42.3824807" lon="14.129192"><ele>30.0</ele><time>2026-05-02T06:54:26.146Z</time></trkpt><trkpt lat="42.3824781" lon="14.1292855"><ele>30.0</ele><time>2026-05-02T06:54:27.147Z</time></trkpt><trkpt lat="42.3824641" lon="14.1293798"><ele>30.0</ele><time>2026-05-02T06:54:28.147Z</time></trkpt><trkpt lat="42.3824439" lon="14.129474"><ele>30.0</ele><time>2026-05-02T06:54:29.147Z</time></trkpt><trkpt lat="42.3824178" lon="14.1296191"><ele>30.0</ele><time>2026-05-02T06:54:31.147Z</time></trkpt><trkpt lat="42.3823644" lon="14.1296864"><ele>30.0</ele><time>2026-05-02T06:54:33.147Z</time></trkpt><trkpt lat="42.3822563" lon="14.1297277"><ele>30.0</ele><time>2026-05-02T06:54:35.148Z</time></trkpt><trkpt lat="42.3821826" lon="14.12975"><ele>30.0</ele><time>2026-05-02T06:54:36.146Z</time></trkpt><trkpt lat="42.3821147" lon="14.1297701"><ele>30.0</ele><time>2026-05-02T06:54:37.146Z</time></trkpt><trkpt lat="42.3820511" lon="14.1297847"><ele>30.0</ele><time>2026-05-02T06:54:38.146Z</time></trkpt><trkpt lat="42.3819278" lon="14.1297892"><ele>30.0</ele><time>2026-05-02T06:54:40.147Z</time></trkpt><trkpt lat="42.381861" lon="14.1298177"><ele>28.6</ele><time>2026-05-02T06:54:42.147Z</time></trkpt><trkpt lat="42.3819038" lon="14.1298968"><ele>27.2</ele><time>2026-05-02T06:54:44.147Z</time></trkpt><trkpt lat="42.3819789" lon="14.1300034"><ele>25.799999999999997</ele><time>2026-05-02T06:54:46.146Z</time></trkpt><trkpt lat="42.3819674" lon="14.1301237"><ele>24.4</ele><time>2026-05-02T06:54:48.147Z</time></trkpt><trkpt lat="42.3819139" lon="14.1301744"><ele>23.0</ele><time>2026-05-02T06:54:50.146Z</time></trkpt><trkpt lat="42.3818031" lon="14.1302109"><ele>23.0</ele><time>2026-05-02T06:54:52.147Z</time></trkpt><trkpt lat="42.3817273" lon="14.1302021"><ele>23.0</ele><time>2026-05-02T06:54:54.147Z</time></trkpt><trkpt lat="42.3816707" lon="14.1301529"><ele>23.0</ele><time>2026-05-02T06:54:56.146Z</time></trkpt><trkpt lat="42.3815804" lon="14.1301167"><ele>23.0</ele><time>2026-05-02T06:54:58.146Z</time></trkpt><trkpt lat="42.3814945" lon="14.1300448"><ele>23.0</ele><time>2026-05-02T06:55:00.148Z</time></trkpt><trkpt lat="42.3813789" lon="14.129951"><ele>23.28571428571429</ele><time>2026-05-02T06:55:02.147Z</time></trkpt><trkpt lat="42.3813194" lon="14.129902"><ele>23.57142857142857</ele><time>2026-05-02T06:55:03.146Z</time></trkpt><trkpt lat="42.3812529" lon="14.1298581"><ele>23.857142857142858</ele><time>2026-05-02T06:55:04.146Z</time></trkpt><trkpt lat="42.3811958" lon="14.1298028"><ele>24.142857142857146</ele><time>2026-05-02T06:55:05.146Z</time></trkpt><trkpt lat="42.3811417" lon="14.1297521"><ele>24.42857142857143</ele><time>2026-05-02T06:55:06.147Z</time></trkpt><trkpt lat="42.3810793" lon="14.1296989"><ele>24.714285714285715</ele><time>2026-05-02T06:55:07.146Z</time></trkpt><trkpt lat="42.3810168" lon="14.1296418"><ele>25.0</ele><time>2026-05-02T06:55:08.147Z</time></trkpt><trkpt lat="42.3809564" lon="14.129587"><ele>24.857142857142858</ele><time>2026-05-02T06:55:09.147Z</time></trkpt><trkpt lat="42.3808967" lon="14.1295371"><ele>24.714285714285715</ele><time>2026-05-02T06:55:10.146Z</time></trkpt><trkpt lat="42.3808353" lon="14.1294822"><ele>24.57142857142857</ele><time>2026-05-02T06:55:11.148Z</time></trkpt><trkpt lat="42.380778" lon="14.1294356"><ele>24.42857142857143</ele><time>2026-05-02T06:55:12.146Z</time></trkpt><trkpt lat="42.3807237" lon="14.1293919"><ele>24.285714285714285</ele><time>2026-05-02T06:55:13.146Z</time></trkpt><trkpt lat="42.3806668" lon="14.1293495"><ele>24.142857142857142</ele><time>2026-05-02T06:55:14.146Z</time></trkpt><trkpt lat="42.3806073" lon="14.1293019"><ele>24.0</ele><time>2026-05-02T06:55:15.146Z</time></trkpt><trkpt lat="42.3805075" lon="14.1292245"><ele>24.0</ele><time>2026-05-02T06:55:17.146Z</time></trkpt><trkpt lat="42.3804169" lon="14.1291491"><ele>24.0</ele><time>2026-05-02T06:55:19.146Z</time></trkpt><trkpt lat="42.3803046" lon="14.1290805"><ele>24.0</ele><time>2026-05-02T06:55:21.146Z</time></trkpt><trkpt lat="42.3801923" lon="14.129"><ele>24.0</ele><time>2026-05-02T06:55:23.146Z</time></trkpt><trkpt lat="42.3801289" lon="14.1289546"><ele>24.0</ele><time>2026-05-02T06:55:24.146Z</time></trkpt><trkpt lat="42.3800655" lon="14.12891"><ele>23.833333333333332</ele><time>2026-05-02T06:55:25.146Z</time></trkpt><trkpt lat="42.3800043" lon="14.1288768"><ele>23.666666666666668</ele><time>2026-05-02T06:55:26.147Z</time></trkpt><trkpt lat="42.3799381" lon="14.1288424"><ele>23.5</ele><time>2026-05-02T06:55:27.147Z</time></trkpt><trkpt lat="42.3798628" lon="14.1288198"><ele>23.333333333333336</ele><time>2026-05-02T06:55:28.148Z</time></trkpt><trkpt lat="42.3797807" lon="14.128796"><ele>23.166666666666668</ele><time>2026-05-02T06:55:29.146Z</time></trkpt><trkpt lat="42.3796929" lon="14.1287765"><ele>23.0</ele><time>2026-05-02T06:55:30.147Z</time></trkpt><trkpt lat="42.3796081" lon="14.1287516"><ele>23.0</ele><time>2026-05-02T06:55:31.146Z</time></trkpt><trkpt lat="42.3795245" lon="14.1287267"><ele>23.0</ele><time>2026-05-02T06:55:32.146Z</time></trkpt><trkpt lat="42.3794462" lon="14.1287047"><ele>23.0</ele><time>2026-05-02T06:55:33.146Z</time></trkpt><trkpt lat="42.3793303" lon="14.12868"><ele>23.0</ele><time>2026-05-02T06:55:35.146Z</time></trkpt><trkpt lat="42.3792495" lon="14.1286747"><ele>23.0</ele><time>2026-05-02T06:55:37.147Z</time></trkpt><trkpt lat="42.3791641" lon="14.1286717"><ele>23.0</ele><time>2026-05-02T06:55:39.147Z</time></trkpt><trkpt lat="42.3790333" lon="14.1286444"><ele>23.0</ele><time>2026-05-02T06:55:41.147Z</time></trkpt><trkpt lat="42.3789524" lon="14.1286301"><ele>23.0</ele><time>2026-05-02T06:55:42.146Z</time></trkpt><trkpt lat="42.3788693" lon="14.1286118"><ele>23.0</ele><time>2026-05-02T06:55:43.147Z</time></trkpt><trkpt lat="42.3787883" lon="14.128591"><ele>23.0</ele><time>2026-05-02T06:55:44.146Z</time></trkpt><trkpt lat="42.3787066" lon="14.1285765"><ele>23.0</ele><time>2026-05-02T06:55:45.147Z</time></trkpt><trkpt lat="42.3786188" lon="14.1285619"><ele>23.0</ele><time>2026-05-02T06:55:46.146Z</time></trkpt><trkpt lat="42.3785416" lon="14.1285442"><ele>23.142857142857142</ele><time>2026-05-02T06:55:47.146Z</time></trkpt><trkpt lat="42.3784651" lon="14.1285338"><ele>23.285714285714285</ele><time>2026-05-02T06:55:48.148Z</time></trkpt><trkpt lat="42.3783884" lon="14.1285281"><ele>23.428571428571427</ele><time>2026-05-02T06:55:49.146Z</time></trkpt><trkpt lat="42.3783122" lon="14.1285148"><ele>23.57142857142857</ele><time>2026-05-02T06:55:50.147Z</time></trkpt><trkpt lat="42.3782355" lon="14.1285043"><ele>23.714285714285715</ele><time>2026-05-02T06:55:51.147Z</time></trkpt><trkpt lat="42.3781679" lon="14.1285033"><ele>23.857142857142854</ele><time>2026-05-02T06:55:52.147Z</time></trkpt><trkpt lat="42.3781023" lon="14.1285038"><ele>24.0</ele><time>2026-05-02T06:55:53.146Z</time></trkpt><trkpt lat="42.3780297" lon="14.1284985"><ele>24.6</ele><time>2026-05-02T06:55:54.147Z</time></trkpt><trkpt lat="42.3779597" lon="14.1284988"><ele>25.2</ele><time>2026-05-02T06:55:55.146Z</time></trkpt><trkpt lat="42.3778258" lon="14.1284951"><ele>25.800000000000004</ele><time>2026-05-02T06:55:57.146Z</time></trkpt><trkpt lat="42.377753" lon="14.1284996"><ele>26.400000000000002</ele><time>2026-05-02T06:55:58.146Z</time></trkpt><trkpt lat="42.3776414" lon="14.1285125"><ele>27.0</ele><time>2026-05-02T06:56:00.147Z</time></trkpt><trkpt lat="42.3775504" lon="14.1285393"><ele>27.0</ele><time>2026-05-02T06:56:02.146Z</time></trkpt><trkpt lat="42.3774536" lon="14.1285577"><ele>27.0</ele><time>2026-05-02T06:56:04.147Z</time></trkpt><trkpt lat="42.3773853" lon="14.1285504"><ele>27.0</ele><time>2026-05-02T06:56:05.146Z</time></trkpt><trkpt lat="42.3773086" lon="14.1285547"><ele>27.0</ele><time>2026-05-02T06:56:06.147Z</time></trkpt><trkpt lat="42.3772231" lon="14.1285595"><ele>27.0</ele><time>2026-05-02T06:56:07.147Z</time></trkpt><trkpt lat="42.3771301" lon="14.1285683"><ele>27.0</ele><time>2026-05-02T06:56:08.147Z</time></trkpt><trkpt lat="42.3770365" lon="14.1285798"><ele>26.5</ele><time>2026-05-02T06:56:09.147Z</time></trkpt><trkpt lat="42.3769529" lon="14.1285841"><ele>26.0</ele><time>2026-05-02T06:56:10.146Z</time></trkpt><trkpt lat="42.3768749" lon="14.1285884"><ele>25.5</ele><time>2026-05-02T06:56:11.146Z</time></trkpt><trkpt lat="42.3768004" lon="14.1285935"><ele>25.0</ele><time>2026-05-02T06:56:12.147Z</time></trkpt><trkpt lat="42.3767239" lon="14.1285945"><ele>24.5</ele><time>2026-05-02T06:56:13.146Z</time></trkpt><trkpt lat="42.3766585" lon="14.1285943"><ele>24.0</ele><time>2026-05-02T06:56:14.146Z</time></trkpt><trkpt lat="42.3765434" lon="14.128601"><ele>24.0</ele><time>2026-05-02T06:56:16.147Z</time></trkpt><trkpt lat="42.3764373" lon="14.1286222"><ele>24.0</ele><time>2026-05-02T06:56:18.147Z</time></trkpt><trkpt lat="42.37635" lon="14.1286422"><ele>24.0</ele><time>2026-05-02T06:56:20.147Z</time></trkpt><trkpt lat="42.3762691" lon="14.1286488"><ele>24.0</ele><time>2026-05-02T06:56:22.146Z</time></trkpt><trkpt lat="42.3761769" lon="14.1286019"><ele>24.0</ele><time>2026-05-02T06:56:24.146Z</time></trkpt><trkpt lat="42.3760859" lon="14.1285326"><ele>24.5</ele><time>2026-05-02T06:56:26.146Z</time></trkpt><trkpt lat="42.3760198" lon="14.1284482"><ele>25.0</ele><time>2026-05-02T06:56:28.147Z</time></trkpt><trkpt lat="42.3759574" lon="14.1283692"><ele>25.5</ele><time>2026-05-02T06:56:30.146Z</time></trkpt><trkpt lat="42.3758996" lon="14.1283074"><ele>26.0</ele><time>2026-05-02T06:56:32.147Z</time></trkpt><trkpt lat="42.375859" lon="14.1282283"><ele>26.5</ele><time>2026-05-02T06:56:34.147Z</time></trkpt><trkpt lat="42.3758649" lon="14.1281167"><ele>27.0</ele><time>2026-05-02T06:56:36.147Z</time></trkpt><trkpt lat="42.3758778" lon="14.1280016"><ele>27.166666666666668</ele><time>2026-05-02T06:56:39.147Z</time></trkpt><trkpt lat="42.3758719" lon="14.127915"><ele>27.333333333333336</ele><time>2026-05-02T06:56:42.147Z</time></trkpt><trkpt lat="42.3758962" lon="14.1278124"><ele>27.5</ele><time>2026-05-02T06:56:47.147Z</time></trkpt><trkpt lat="42.3759395" lon="14.1276289"><ele>27.666666666666668</ele><time>2026-05-02T06:56:49.146Z</time></trkpt><trkpt lat="42.3759622" lon="14.1275292"><ele>27.833333333333336</ele><time>2026-05-02T06:56:50.146Z</time></trkpt><trkpt lat="42.375995" lon="14.1274294"><ele>28.0</ele><time>2026-05-02T06:56:51.147Z</time></trkpt><trkpt lat="42.3760255" lon="14.1273206"><ele>28.0</ele><time>2026-05-02T06:56:52.146Z</time></trkpt><trkpt lat="42.3760475" lon="14.1272055"><ele>27.999999999999996</ele><time>2026-05-02T06:56:53.146Z</time></trkpt><trkpt lat="42.3760607" lon="14.1270851"><ele>27.999999999999996</ele><time>2026-05-02T06:56:54.146Z</time></trkpt><trkpt lat="42.3760881" lon="14.1269816"><ele>28.0</ele><time>2026-05-02T06:56:55.146Z</time></trkpt><trkpt lat="42.3761102" lon="14.1268863"><ele>28.0</ele><time>2026-05-02T06:56:56.146Z</time></trkpt><trkpt lat="42.3761435" lon="14.1267139"><ele>28.000000000000004</ele><time>2026-05-02T06:56:58.147Z</time></trkpt><trkpt lat="42.3761576" lon="14.1266013"><ele>28.0</ele><time>2026-05-02T06:56:59.146Z</time></trkpt><trkpt lat="42.3761796" lon="14.1265173"><ele>28.0</ele><time>2026-05-02T06:57:00.148Z</time></trkpt><trkpt lat="42.3762182" lon="14.1263777"><ele>28.0</ele><time>2026-05-02T06:57:02.146Z</time></trkpt><trkpt lat="42.3762206" lon="14.1262817"><ele>28.000000000000004</ele><time>2026-05-02T06:57:05.146Z</time></trkpt><trkpt lat="42.3761474" lon="14.1262102"><ele>28.0</ele><time>2026-05-02T06:57:08.148Z</time></trkpt><trkpt lat="42.3760814" lon="14.1261439"><ele>27.833333333333336</ele><time>2026-05-02T06:57:10.148Z</time></trkpt><trkpt lat="42.3760104" lon="14.1261302"><ele>27.666666666666668</ele><time>2026-05-02T06:57:11.147Z</time></trkpt><trkpt lat="42.3759492" lon="14.1260963"><ele>27.5</ele><time>2026-05-02T06:57:12.146Z</time></trkpt><trkpt lat="42.3758731" lon="14.1260686"><ele>27.333333333333336</ele><time>2026-05-02T06:57:13.147Z</time></trkpt><trkpt lat="42.3758099" lon="14.1260423"><ele>27.166666666666668</ele><time>2026-05-02T06:57:14.146Z</time></trkpt><trkpt lat="42.3757423" lon="14.1260148"><ele>27.0</ele><time>2026-05-02T06:57:15.146Z</time></trkpt><trkpt lat="42.3756235" lon="14.1259595"><ele>27.0</ele><time>2026-05-02T06:57:17.147Z</time></trkpt><trkpt lat="42.3755608" lon="14.125927"><ele>27.0</ele><time>2026-05-02T06:57:18.147Z</time></trkpt><trkpt lat="42.3754643" lon="14.1258704"><ele>27.0</ele><time>2026-05-02T06:57:20.147Z</time></trkpt><trkpt lat="42.3754238" lon="14.1257981"><ele>27.0</ele><time>2026-05-02T06:57:22.147Z</time></trkpt><trkpt lat="42.3754397" lon="14.1256866"><ele>27.0</ele><time>2026-05-02T06:57:24.146Z</time></trkpt><trkpt lat="42.3754647" lon="14.1255975"><ele>27.0</ele><time>2026-05-02T06:57:25.146Z</time></trkpt><trkpt lat="42.3754805" lon="14.125512"><ele>27.0</ele><time>2026-05-02T06:57:26.146Z</time></trkpt><trkpt lat="42.3754858" lon="14.1253987"><ele>27.000000000000004</ele><time>2026-05-02T06:57:27.146Z</time></trkpt><trkpt lat="42.3754778" lon="14.1252661"><ele>27.000000000000004</ele><time>2026-05-02T06:57:28.146Z</time></trkpt><trkpt lat="42.3754592" lon="14.1251134"><ele>27.0</ele><time>2026-05-02T06:57:29.146Z</time></trkpt><trkpt lat="42.3754366" lon="14.1249513"><ele>27.0</ele><time>2026-05-02T06:57:30.146Z</time></trkpt><trkpt lat="42.375423" lon="14.1248128"><ele>27.8</ele><time>2026-05-02T06:57:31.147Z</time></trkpt><trkpt lat="42.3754122" lon="14.1246857"><ele>28.6</ele><time>2026-05-02T06:57:32.147Z</time></trkpt><trkpt lat="42.3754031" lon="14.1245752"><ele>29.400000000000002</ele><time>2026-05-02T06:57:33.146Z</time></trkpt><trkpt lat="42.3754095" lon="14.1244887"><ele>30.200000000000003</ele><time>2026-05-02T06:57:34.146Z</time></trkpt><trkpt lat="42.3754773" lon="14.1243807"><ele>31.0</ele><time>2026-05-02T06:57:36.147Z</time></trkpt><trkpt lat="42.375612" lon="14.1243619"><ele>32.16666666666667</ele><time>2026-05-02T06:57:38.147Z</time></trkpt><trkpt lat="42.3756978" lon="14.1243758"><ele>33.333333333333336</ele><time>2026-05-02T06:57:39.147Z</time></trkpt><trkpt lat="42.3757908" lon="14.1243869"><ele>34.5</ele><time>2026-05-02T06:57:40.147Z</time></trkpt><trkpt lat="42.3758751" lon="14.1243926"><ele>35.666666666666664</ele><time>2026-05-02T06:57:41.146Z</time></trkpt><trkpt lat="42.3759531" lon="14.1244038"><ele>36.83333333333333</ele><time>2026-05-02T06:57:42.147Z</time></trkpt><trkpt lat="42.3760298" lon="14.1244118"><ele>38.0</ele><time>2026-05-02T06:57:43.146Z</time></trkpt><trkpt lat="42.3761074" lon="14.1244414"><ele>38.0</ele><time>2026-05-02T06:57:44.146Z</time></trkpt><trkpt lat="42.3761679" lon="14.1244803"><ele>38.0</ele><time>2026-05-02T06:57:45.147Z</time></trkpt><trkpt lat="42.3762649" lon="14.1245115"><ele>38.0</ele><time>2026-05-02T06:57:47.147Z</time></trkpt><trkpt lat="42.3763453" lon="14.124499"><ele>38.0</ele><time>2026-05-02T06:57:50.147Z</time></trkpt><trkpt lat="42.3764355" lon="14.124485"><ele>38.0</ele><time>2026-05-02T06:57:57.147Z</time></trkpt><trkpt lat="42.3765356" lon="14.1245099"><ele>38.0</ele><time>2026-05-02T06:57:59.146Z</time></trkpt><trkpt lat="42.3766244" lon="14.1244556"><ele>38.0</ele><time>2026-05-02T06:58:01.146Z</time></trkpt><trkpt lat="42.3766425" lon="14.1243141"><ele>38.0</ele><time>2026-05-02T06:58:03.146Z</time></trkpt><trkpt lat="42.376546" lon="14.1242115"><ele>38.0</ele><time>2026-05-02T06:58:05.147Z</time></trkpt><trkpt lat="42.3764563" lon="14.1241834"><ele>38.0</ele><time>2026-05-02T06:58:06.146Z</time></trkpt><trkpt lat="42.3763402" lon="14.1241437"><ele>38.0</ele><time>2026-05-02T06:58:07.147Z</time></trkpt><trkpt lat="42.3762119" lon="14.1240886"><ele>39.25</ele><time>2026-05-02T06:58:08.148Z</time></trkpt><trkpt lat="42.3760806" lon="14.1240397"><ele>40.5</ele><time>2026-05-02T06:58:09.147Z</time></trkpt><trkpt lat="42.375949" lon="14.1240009"><ele>41.75</ele><time>2026-05-02T06:58:10.147Z</time></trkpt><trkpt lat="42.3758118" lon="14.1239451"><ele>43.0</ele><time>2026-05-02T06:58:11.146Z</time></trkpt><trkpt lat="42.3756674" lon="14.123868"><ele>43.0</ele><time>2026-05-02T06:58:12.147Z</time></trkpt><trkpt lat="42.3755224" lon="14.1237739"><ele>43.0</ele><time>2026-05-02T06:58:13.147Z</time></trkpt><trkpt lat="42.3753902" lon="14.1236742"><ele>43.0</ele><time>2026-05-02T06:58:14.148Z</time></trkpt><trkpt lat="42.3752649" lon="14.1235849"><ele>42.0</ele><time>2026-05-02T06:58:15.147Z</time></trkpt><trkpt lat="42.3751435" lon="14.1234967"><ele>41.0</ele><time>2026-05-02T06:58:16.147Z</time></trkpt><trkpt lat="42.3750284" lon="14.1234117"><ele>40.0</ele><time>2026-05-02T06:58:17.146Z</time></trkpt><trkpt lat="42.3749279" lon="14.1233277"><ele>39.0</ele><time>2026-05-02T06:58:18.146Z</time></trkpt><trkpt lat="42.3748386" lon="14.1232501"><ele>39.333333333333336</ele><time>2026-05-02T06:58:19.146Z</time></trkpt><trkpt lat="42.3747626" lon="14.1231795"><ele>39.666666666666664</ele><time>2026-05-02T06:58:20.147Z</time></trkpt><trkpt lat="42.3746886" lon="14.1231178"><ele>40.0</ele><time>2026-05-02T06:58:21.146Z</time></trkpt><trkpt lat="42.3746339" lon="14.123075"><ele>40.33333333333333</ele><time>2026-05-02T06:58:22.146Z</time></trkpt><trkpt lat="42.3745588" lon="14.1230121"><ele>40.666666666666664</ele><time>2026-05-02T06:58:24.146Z</time></trkpt><trkpt lat="42.3744956" lon="14.1229674"><ele>41.0</ele><time>2026-05-02T06:58:49.147Z</time></trkpt><trkpt lat="42.3744342" lon="14.1229144"><ele>41.0</ele><time>2026-05-02T06:58:50.146Z</time></trkpt><trkpt lat="42.3743751" lon="14.122862"><ele>41.0</ele><time>2026-05-02T06:58:51.146Z</time></trkpt><trkpt lat="42.3743119" lon="14.1228011"><ele>41.0</ele><time>2026-05-02T06:58:52.147Z</time></trkpt><trkpt lat="42.3742449" lon="14.1227055"><ele>41.0</ele><time>2026-05-02T06:58:54.148Z</time></trkpt><trkpt lat="42.3741972" lon="14.1226303"><ele>41.0</ele><time>2026-05-02T06:58:57.147Z</time></trkpt><trkpt lat="42.3741133" lon="14.122582"><ele>41.0</ele><time>2026-05-02T06:59:03.146Z</time></trkpt><trkpt lat="42.3740498" lon="14.1225632"><ele>41.0</ele><time>2026-05-02T06:59:04.146Z</time></trkpt><trkpt lat="42.3739779" lon="14.1225351"><ele>41.0</ele><time>2026-05-02T06:59:05.146Z</time></trkpt><trkpt lat="42.3738971" lon="14.1224858"><ele>41.0</ele><time>2026-05-02T06:59:06.146Z</time></trkpt><trkpt lat="42.3738034" lon="14.1224246"><ele>41.0</ele><time>2026-05-02T06:59:07.146Z</time></trkpt><trkpt lat="42.3736993" lon="14.1223533"><ele>41.0</ele><time>2026-05-02T06:59:08.147Z</time></trkpt><trkpt lat="42.373581" lon="14.1222686"><ele>41.0</ele><time>2026-05-02T06:59:09.147Z</time></trkpt><trkpt lat="42.37346" lon="14.1221774"><ele>41.0</ele><time>2026-05-02T06:59:10.148Z</time></trkpt><trkpt lat="42.3733368" lon="14.1220824"><ele>41.0</ele><time>2026-05-02T06:59:11.147Z</time></trkpt><trkpt lat="42.3731968" lon="14.121971"><ele>41.0</ele><time>2026-05-02T06:59:12.147Z</time></trkpt><trkpt lat="42.3730673" lon="14.1218656"><ele>41.666666666666664</ele><time>2026-05-02T06:59:13.146Z</time></trkpt><trkpt lat="42.3729185" lon="14.1217463"><ele>42.333333333333336</ele><time>2026-05-02T06:59:14.146Z</time></trkpt><trkpt lat="42.3727772" lon="14.1216322"><ele>43.0</ele><time>2026-05-02T06:59:15.146Z</time></trkpt><trkpt lat="42.3726464" lon="14.121525"><ele>43.0</ele><time>2026-05-02T06:59:16.146Z</time></trkpt><trkpt lat="42.3725162" lon="14.1214218"><ele>43.0</ele><time>2026-05-02T06:59:17.148Z</time></trkpt><trkpt lat="42.3723887" lon="14.1213194"><ele>43.0</ele><time>2026-05-02T06:59:18.147Z</time></trkpt><trkpt lat="42.3722518" lon="14.1212182"><ele>39.66666666666667</ele><time>2026-05-02T06:59:19.148Z</time></trkpt><trkpt lat="42.3720847" lon="14.121109"><ele>36.333333333333336</ele><time>2026-05-02T06:59:20.146Z</time></trkpt><trkpt lat="42.3718929" lon="14.1210055"><ele>33.0</ele><time>2026-05-02T06:59:21.146Z</time></trkpt><trkpt lat="42.3717137" lon="14.1209179"><ele>33.0</ele><time>2026-05-02T06:59:22.146Z</time></trkpt><trkpt lat="42.3715237" lon="14.1208297"><ele>33.0</ele><time>2026-05-02T06:59:23.146Z</time></trkpt><trkpt lat="42.3713434" lon="14.1207497"><ele>33.0</ele><time>2026-05-02T06:59:24.147Z</time></trkpt><trkpt lat="42.3711612" lon="14.1206695"><ele>34.333333333333336</ele><time>2026-05-02T06:59:25.147Z</time></trkpt><trkpt lat="42.3709619" lon="14.1206031"><ele>35.66666666666667</ele><time>2026-05-02T06:59:26.146Z</time></trkpt><trkpt lat="42.3707506" lon="14.120549"><ele>37.0</ele><time>2026-05-02T06:59:27.146Z</time></trkpt><trkpt lat="42.3705086" lon="14.1205081"><ele>37.0</ele><time>2026-05-02T06:59:28.147Z</time></trkpt><trkpt lat="42.3702755" lon="14.1204774"><ele>37.0</ele><time>2026-05-02T06:59:29.146Z</time></trkpt><trkpt lat="42.3700514" lon="14.1204437"><ele>37.0</ele><time>2026-05-02T06:59:30.147Z</time></trkpt><trkpt lat="42.3698341" lon="14.1204091"><ele>37.0</ele><time>2026-05-02T06:59:31.146Z</time></trkpt><trkpt lat="42.3696219" lon="14.1203795"><ele>37.0</ele><time>2026-05-02T06:59:32.146Z</time></trkpt><trkpt lat="42.3694196" lon="14.1203521"><ele>37.0</ele><time>2026-05-02T06:59:33.146Z</time></trkpt><trkpt lat="42.36921" lon="14.1203251"><ele>37.0</ele><time>2026-05-02T06:59:34.146Z</time></trkpt><trkpt lat="42.3690053" lon="14.1202969"><ele>37.0</ele><time>2026-05-02T06:59:35.146Z</time></trkpt><trkpt lat="42.3688066" lon="14.120268"><ele>34.333333333333336</ele><time>2026-05-02T06:59:36.146Z</time></trkpt><trkpt lat="42.3686141" lon="14.1202336"><ele>31.666666666666664</ele><time>2026-05-02T06:59:37.147Z</time></trkpt><trkpt lat="42.3684502" lon="14.1201848"><ele>29.0</ele><time>2026-05-02T06:59:38.148Z</time></trkpt><trkpt lat="42.3682695" lon="14.1201038"><ele>29.0</ele><time>2026-05-02T06:59:39.147Z</time></trkpt><trkpt lat="42.3680772" lon="14.119996"><ele>29.0</ele><time>2026-05-02T06:59:40.146Z</time></trkpt><trkpt lat="42.3678692" lon="14.1198711"><ele>29.0</ele><time>2026-05-02T06:59:41.147Z</time></trkpt><trkpt lat="42.3676549" lon="14.1197345"><ele>28.5</ele><time>2026-05-02T06:59:42.148Z</time></trkpt><trkpt lat="42.367426" lon="14.1195805"><ele>28.0</ele><time>2026-05-02T06:59:43.146Z</time></trkpt><trkpt lat="42.3672093" lon="14.1194264"><ele>27.5</ele><time>2026-05-02T06:59:44.146Z</time></trkpt><trkpt lat="42.3670046" lon="14.1192774"><ele>27.0</ele><time>2026-05-02T06:59:45.147Z</time></trkpt><trkpt lat="42.3667824" lon="14.1191158"><ele>27.333333333333336</ele><time>2026-05-02T06:59:46.146Z</time></trkpt><trkpt lat="42.3665786" lon="14.1189689"><ele>27.666666666666668</ele><time>2026-05-02T06:59:47.146Z</time></trkpt><trkpt lat="42.3663853" lon="14.1188328"><ele>28.0</ele><time>2026-05-02T06:59:48.146Z</time></trkpt><trkpt lat="42.3661976" lon="14.1187032"><ele>28.0</ele><time>2026-05-02T06:59:49.148Z</time></trkpt><trkpt lat="42.3660159" lon="14.1185781"><ele>28.0</ele><time>2026-05-02T06:59:50.146Z</time></trkpt><trkpt lat="42.3658234" lon="14.1184455"><ele>28.0</ele><time>2026-05-02T06:59:51.146Z</time></trkpt><trkpt lat="42.3656261" lon="14.1183118"><ele>30.0</ele><time>2026-05-02T06:59:52.147Z</time></trkpt><trkpt lat="42.36542" lon="14.1181737"><ele>32.0</ele><time>2026-05-02T06:59:53.147Z</time></trkpt><trkpt lat="42.3652217" lon="14.1180384"><ele>32.0</ele><time>2026-05-02T06:59:54.148Z</time></trkpt><trkpt lat="42.3650238" lon="14.1179013"><ele>32.0</ele><time>2026-05-02T06:59:55.148Z</time></trkpt><trkpt lat="42.3648365" lon="14.1177747"><ele>32.0</ele><time>2026-05-02T06:59:56.146Z</time></trkpt><trkpt lat="42.3646476" lon="14.1176557"><ele>32.33333333333333</ele><time>2026-05-02T06:59:57.146Z</time></trkpt><trkpt lat="42.36446" lon="14.1175577"><ele>32.666666666666664</ele><time>2026-05-02T06:59:58.147Z</time></trkpt><trkpt lat="42.3642597" lon="14.1174881"><ele>33.0</ele><time>2026-05-02T06:59:59.147Z</time></trkpt><trkpt lat="42.3640535" lon="14.1174505"><ele>32.333333333333336</ele><time>2026-05-02T07:00:00.147Z</time></trkpt><trkpt lat="42.363849" lon="14.1174357"><ele>31.666666666666668</ele><time>2026-05-02T07:00:01.147Z</time></trkpt><trkpt lat="42.3636199" lon="14.1174311"><ele>31.0</ele><time>2026-05-02T07:00:02.147Z</time></trkpt><trkpt lat="42.3634051" lon="14.1174292"><ele>31.0</ele><time>2026-05-02T07:00:03.147Z</time></trkpt><trkpt lat="42.3632063" lon="14.1174238"><ele>31.0</ele><time>2026-05-02T07:00:04.147Z</time></trkpt><trkpt lat="42.3630138" lon="14.1174118"><ele>31.0</ele><time>2026-05-02T07:00:05.146Z</time></trkpt><trkpt lat="42.3628356" lon="14.1173867"><ele>35.66666666666667</ele><time>2026-05-02T07:00:06.147Z</time></trkpt><trkpt lat="42.3626534" lon="14.1173427"><ele>40.333333333333336</ele><time>2026-05-02T07:00:07.147Z</time></trkpt><trkpt lat="42.362478" lon="14.1172816"><ele>45.0</ele><time>2026-05-02T07:00:08.146Z</time></trkpt><trkpt lat="42.3622948" lon="14.1172043"><ele>42.0</ele><time>2026-05-02T07:00:09.148Z</time></trkpt><trkpt lat="42.3621116" lon="14.1171219"><ele>39.0</ele><time>2026-05-02T07:00:10.146Z</time></trkpt><trkpt lat="42.3619194" lon="14.1170334"><ele>36.0</ele><time>2026-05-02T07:00:11.146Z</time></trkpt><trkpt lat="42.3617312" lon="14.1169484"><ele>36.0</ele><time>2026-05-02T07:00:12.146Z</time></trkpt><trkpt lat="42.361533" lon="14.1168625"><ele>36.0</ele><time>2026-05-02T07:00:13.146Z</time></trkpt><trkpt lat="42.3613314" lon="14.1167739"><ele>36.0</ele><time>2026-05-02T07:00:14.148Z</time></trkpt><trkpt lat="42.361139" lon="14.1166874"><ele>34.0</ele><time>2026-05-02T07:00:15.147Z</time></trkpt><trkpt lat="42.3609459" lon="14.1166001"><ele>32.0</ele><time>2026-05-02T07:00:16.146Z</time></trkpt><trkpt lat="42.3607621" lon="14.1165145"><ele>30.0</ele><time>2026-05-02T07:00:17.146Z</time></trkpt><trkpt lat="42.3605635" lon="14.1164227"><ele>32.333333333333336</ele><time>2026-05-02T07:00:18.147Z</time></trkpt><trkpt lat="42.3603672" lon="14.116334"><ele>34.66666666666667</ele><time>2026-05-02T07:00:19.147Z</time></trkpt><trkpt lat="42.3601637" lon="14.1162441"><ele>37.0</ele><time>2026-05-02T07:00:20.147Z</time></trkpt><trkpt lat="42.3599654" lon="14.1161562"><ele>37.0</ele><time>2026-05-02T07:00:21.147Z</time></trkpt><trkpt lat="42.3597625" lon="14.1160664"><ele>37.0</ele><time>2026-05-02T07:00:22.147Z</time></trkpt><trkpt lat="42.3595675" lon="14.1159825"><ele>37.0</ele><time>2026-05-02T07:00:23.146Z</time></trkpt><trkpt lat="42.3593688" lon="14.1158997"><ele>36.66666666666667</ele><time>2026-05-02T07:00:24.146Z</time></trkpt><trkpt lat="42.3591689" lon="14.115817"><ele>36.333333333333336</ele><time>2026-05-02T07:00:25.146Z</time></trkpt><trkpt lat="42.3589889" lon="14.1157419"><ele>36.0</ele><time>2026-05-02T07:00:26.146Z</time></trkpt><trkpt lat="42.3588009" lon="14.1156661"><ele>37.666666666666664</ele><time>2026-05-02T07:00:27.146Z</time></trkpt><trkpt lat="42.3586069" lon="14.1155877"><ele>39.33333333333333</ele><time>2026-05-02T07:00:28.146Z</time></trkpt><trkpt lat="42.358425" lon="14.1155161"><ele>41.0</ele><time>2026-05-02T07:00:29.146Z</time></trkpt><trkpt lat="42.3582381" lon="14.1154407"><ele>41.0</ele><time>2026-05-02T07:00:30.146Z</time></trkpt><trkpt lat="42.3580548" lon="14.1153651"><ele>41.0</ele><time>2026-05-02T07:00:31.146Z</time></trkpt><trkpt lat="42.3578636" lon="14.1152895"><ele>41.0</ele><time>2026-05-02T07:00:32.147Z</time></trkpt><trkpt lat="42.3576814" lon="14.1152211"><ele>41.0</ele><time>2026-05-02T07:00:33.146Z</time></trkpt><trkpt lat="42.3574871" lon="14.1151458"><ele>41.0</ele><time>2026-05-02T07:00:34.146Z</time></trkpt><trkpt lat="42.3572969" lon="14.1150691"><ele>41.0</ele><time>2026-05-02T07:00:35.147Z</time></trkpt><trkpt lat="42.3571049" lon="14.1149878"><ele>40.33333333333333</ele><time>2026-05-02T07:00:36.146Z</time></trkpt><trkpt lat="42.3569292" lon="14.1149152"><ele>39.666666666666664</ele><time>2026-05-02T07:00:37.146Z</time></trkpt><trkpt lat="42.3567462" lon="14.1148418"><ele>39.0</ele><time>2026-05-02T07:00:38.146Z</time></trkpt><trkpt lat="42.3565633" lon="14.1147677"><ele>41.666666666666664</ele><time>2026-05-02T07:00:39.148Z</time></trkpt><trkpt lat="42.3563707" lon="14.1146885"><ele>44.33333333333333</ele><time>2026-05-02T07:00:40.147Z</time></trkpt><trkpt lat="42.3561725" lon="14.1146081"><ele>47.0</ele><time>2026-05-02T07:00:41.146Z</time></trkpt><trkpt lat="42.3559894" lon="14.1145338"><ele>47.0</ele><time>2026-05-02T07:00:42.146Z</time></trkpt><trkpt lat="42.3558053" lon="14.1144612"><ele>47.0</ele><time>2026-05-02T07:00:43.146Z</time></trkpt><trkpt lat="42.3556143" lon="14.1143865"><ele>47.0</ele><time>2026-05-02T07:00:44.146Z</time></trkpt><trkpt lat="42.3554296" lon="14.1143136"><ele>43.666666666666664</ele><time>2026-05-02T07:00:45.148Z</time></trkpt><trkpt lat="42.3552342" lon="14.1142377"><ele>40.333333333333336</ele><time>2026-05-02T07:00:46.146Z</time></trkpt><trkpt lat="42.3550409" lon="14.114162"><ele>37.0</ele><time>2026-05-02T07:00:47.147Z</time></trkpt><trkpt lat="42.3548475" lon="14.1140845"><ele>36.66666666666667</ele><time>2026-05-02T07:00:48.146Z</time></trkpt><trkpt lat="42.3546713" lon="14.114013"><ele>36.333333333333336</ele><time>2026-05-02T07:00:49.146Z</time></trkpt><trkpt lat="42.3544718" lon="14.113931"><ele>36.0</ele><time>2026-05-02T07:00:50.146Z</time></trkpt><trkpt lat="42.3542857" lon="14.1138538"><ele>36.0</ele><time>2026-05-02T07:00:51.147Z</time></trkpt><trkpt lat="42.3540939" lon="14.1137754"><ele>36.0</ele><time>2026-05-02T07:00:52.146Z</time></trkpt><trkpt lat="42.3539004" lon="14.1136983"><ele>36.0</ele><time>2026-05-02T07:00:53.146Z</time></trkpt><trkpt lat="42.3537033" lon="14.1136216"><ele>35.666666666666664</ele><time>2026-05-02T07:00:54.146Z</time></trkpt><trkpt lat="42.3535057" lon="14.1135452"><ele>35.33333333333333</ele><time>2026-05-02T07:00:55.146Z</time></trkpt><trkpt lat="42.3533085" lon="14.1134682"><ele>35.0</ele><time>2026-05-02T07:00:56.147Z</time></trkpt><trkpt lat="42.3531147" lon="14.1133876"><ele>35.0</ele><time>2026-05-02T07:00:57.148Z</time></trkpt><trkpt lat="42.3529216" lon="14.1133076"><ele>35.0</ele><time>2026-05-02T07:00:58.147Z</time></trkpt><trkpt lat="42.3527312" lon="14.1132279"><ele>35.0</ele><time>2026-05-02T07:00:59.147Z</time></trkpt><trkpt lat="42.3525418" lon="14.1131485"><ele>35.0</ele><time>2026-05-02T07:01:00.148Z</time></trkpt><trkpt lat="42.3523544" lon="14.1130743"><ele>35.0</ele><time>2026-05-02T07:01:01.146Z</time></trkpt><trkpt lat="42.3521668" lon="14.1130028"><ele>35.0</ele><time>2026-05-02T07:01:02.146Z</time></trkpt><trkpt lat="42.351982" lon="14.1129297"><ele>36.666666666666664</ele><time>2026-05-02T07:01:03.146Z</time></trkpt><trkpt lat="42.3517974" lon="14.1128516"><ele>38.333333333333336</ele><time>2026-05-02T07:01:04.146Z</time></trkpt><trkpt lat="42.3516267" lon="14.1127794"><ele>40.0</ele><time>2026-05-02T07:01:05.146Z</time></trkpt><trkpt lat="42.3514315" lon="14.1126985"><ele>41.333333333333336</ele><time>2026-05-02T07:01:06.148Z</time></trkpt><trkpt lat="42.351246" lon="14.1126246"><ele>42.666666666666664</ele><time>2026-05-02T07:01:07.147Z</time></trkpt><trkpt lat="42.3510602" lon="14.112558"><ele>44.0</ele><time>2026-05-02T07:01:08.147Z</time></trkpt><trkpt lat="42.3508775" lon="14.1125071"><ele>44.0</ele><time>2026-05-02T07:01:09.147Z</time></trkpt><trkpt lat="42.3507075" lon="14.1124742"><ele>44.0</ele><time>2026-05-02T07:01:10.147Z</time></trkpt><trkpt lat="42.3505487" lon="14.1124502"><ele>44.0</ele><time>2026-05-02T07:01:11.147Z</time></trkpt><trkpt lat="42.3504133" lon="14.1124269"><ele>45.0</ele><time>2026-05-02T07:01:12.146Z</time></trkpt><trkpt lat="42.3503042" lon="14.1124049"><ele>46.0</ele><time>2026-05-02T07:01:13.146Z</time></trkpt><trkpt lat="42.350216" lon="14.1123837"><ele>47.0</ele><time>2026-05-02T07:01:14.147Z</time></trkpt><trkpt lat="42.3501519" lon="14.1123675"><ele>48.0</ele><time>2026-05-02T07:01:15.147Z</time></trkpt><trkpt lat="42.3500256" lon="14.1123542"><ele>49.0</ele><time>2026-05-02T07:01:17.146Z</time></trkpt><trkpt lat="42.3499555" lon="14.1123721"><ele>48.166666666666664</ele><time>2026-05-02T07:01:18.148Z</time></trkpt><trkpt lat="42.3498915" lon="14.1124261"><ele>47.33333333333333</ele><time>2026-05-02T07:01:19.147Z</time></trkpt><trkpt lat="42.3498436" lon="14.1124967"><ele>46.5</ele><time>2026-05-02T07:01:20.147Z</time></trkpt><trkpt lat="42.3497738" lon="14.112606"><ele>45.666666666666664</ele><time>2026-05-02T07:01:22.147Z</time></trkpt><trkpt lat="42.3496902" lon="14.1126467"><ele>44.83333333333333</ele><time>2026-05-02T07:01:24.146Z</time></trkpt><trkpt lat="42.3496113" lon="14.1127409"><ele>44.0</ele><time>2026-05-02T07:01:26.147Z</time></trkpt><trkpt lat="42.3495335" lon="14.1127365"><ele>43.800000000000004</ele><time>2026-05-02T07:01:28.147Z</time></trkpt><trkpt lat="42.3494422" lon="14.1125598"><ele>43.6</ele><time>2026-05-02T07:01:30.148Z</time></trkpt><trkpt lat="42.3493993" lon="14.1124649"><ele>43.4</ele><time>2026-05-02T07:01:31.146Z</time></trkpt><trkpt lat="42.3493374" lon="14.1123936"><ele>43.2</ele><time>2026-05-02T07:01:32.147Z</time></trkpt><trkpt lat="42.3492551" lon="14.1123255"><ele>43.0</ele><time>2026-05-02T07:01:33.147Z</time></trkpt><trkpt lat="42.3491649" lon="14.1122654"><ele>43.0</ele><time>2026-05-02T07:01:34.146Z</time></trkpt><trkpt lat="42.3490944" lon="14.1122106"><ele>43.0</ele><time>2026-05-02T07:01:35.146Z</time></trkpt><trkpt lat="42.3490198" lon="14.1120944"><ele>43.0</ele><time>2026-05-02T07:01:37.147Z</time></trkpt><trkpt lat="42.3490048" lon="14.1119935"><ele>43.0</ele><time>2026-05-02T07:01:38.148Z</time></trkpt><trkpt lat="42.3489898" lon="14.111856"><ele>43.0</ele><time>2026-05-02T07:01:39.146Z</time></trkpt><trkpt lat="42.3489737" lon="14.111716"><ele>43.0</ele><time>2026-05-02T07:01:40.147Z</time></trkpt><trkpt lat="42.3489623" lon="14.1115832"><ele>43.0</ele><time>2026-05-02T07:01:41.147Z</time></trkpt><trkpt lat="42.348952" lon="14.1114566"><ele>43.0</ele><time>2026-05-02T07:01:42.147Z</time></trkpt><trkpt lat="42.3489361" lon="14.1113149"><ele>43.0</ele><time>2026-05-02T07:01:43.147Z</time></trkpt><trkpt lat="42.34891" lon="14.1111697"><ele>43.0</ele><time>2026-05-02T07:01:44.146Z</time></trkpt><trkpt lat="42.3488959" lon="14.1110427"><ele>43.00000000000001</ele><time>2026-05-02T07:01:45.148Z</time></trkpt><trkpt lat="42.3488906" lon="14.1109396"><ele>43.0</ele><time>2026-05-02T07:01:46.147Z</time></trkpt><trkpt lat="42.3488929" lon="14.1108379"><ele>43.0</ele><time>2026-05-02T07:01:47.147Z</time></trkpt><trkpt lat="42.3488824" lon="14.1107392"><ele>43.0</ele><time>2026-05-02T07:01:48.147Z</time></trkpt><trkpt lat="42.3489023" lon="14.1106439"><ele>43.0</ele><time>2026-05-02T07:01:49.147Z</time></trkpt><trkpt lat="42.3488951" lon="14.1105572"><ele>43.00000000000001</ele><time>2026-05-02T07:01:50.146Z</time></trkpt><trkpt lat="42.3488735" lon="14.1104582"><ele>43.0</ele><time>2026-05-02T07:01:51.146Z</time></trkpt><trkpt lat="42.3488595" lon="14.1103218"><ele>42.599999999999994</ele><time>2026-05-02T07:01:52.146Z</time></trkpt><trkpt lat="42.3488493" lon="14.1101957"><ele>42.199999999999996</ele><time>2026-05-02T07:01:53.146Z</time></trkpt><trkpt lat="42.3488236" lon="14.1101003"><ele>41.8</ele><time>2026-05-02T07:01:54.147Z</time></trkpt><trkpt lat="42.3487437" lon="14.1099786"><ele>41.4</ele><time>2026-05-02T07:01:56.146Z</time></trkpt><trkpt lat="42.348667" lon="14.1099121"><ele>41.0</ele><time>2026-05-02T07:01:57.147Z</time></trkpt><trkpt lat="42.3486008" lon="14.1098589"><ele>42.0</ele><time>2026-05-02T07:01:58.147Z</time></trkpt><trkpt lat="42.3485384" lon="14.1098123"><ele>43.0</ele><time>2026-05-02T07:02:00.147Z</time></trkpt><trkpt lat="42.3484675" lon="14.1097722"><ele>44.0</ele><time>2026-05-02T07:02:06.147Z</time></trkpt><trkpt lat="42.3484017" lon="14.1097276"><ele>45.0</ele><time>2026-05-02T07:02:10.146Z</time></trkpt><trkpt lat="42.3483438" lon="14.1096556"><ele>46.0</ele><time>2026-05-02T07:02:12.146Z</time></trkpt><trkpt lat="42.3482475" lon="14.1095146"><ele>47.0</ele><time>2026-05-02T07:02:14.146Z</time></trkpt><trkpt lat="42.3481841" lon="14.1094078"><ele>47.0</ele><time>2026-05-02T07:02:15.147Z</time></trkpt><trkpt lat="42.348123" lon="14.1093023"><ele>47.0</ele><time>2026-05-02T07:02:16.147Z</time></trkpt><trkpt lat="42.3480631" lon="14.1092"><ele>47.0</ele><time>2026-05-02T07:02:17.146Z</time></trkpt><trkpt lat="42.3480025" lon="14.1091174"><ele>47.0</ele><time>2026-05-02T07:02:18.146Z</time></trkpt><trkpt lat="42.3479609" lon="14.1090282"><ele>47.0</ele><time>2026-05-02T07:02:19.146Z</time></trkpt><trkpt lat="42.3479153" lon="14.108926"><ele>47.0</ele><time>2026-05-02T07:02:20.147Z</time></trkpt><trkpt lat="42.3478756" lon="14.1088243"><ele>46.25</ele><time>2026-05-02T07:02:21.146Z</time></trkpt><trkpt lat="42.3478222" lon="14.1086944"><ele>45.5</ele><time>2026-05-02T07:02:22.146Z</time></trkpt><trkpt lat="42.3477598" lon="14.1085735"><ele>44.75</ele><time>2026-05-02T07:02:23.147Z</time></trkpt><trkpt lat="42.3476951" lon="14.1084433"><ele>44.0</ele><time>2026-05-02T07:02:24.146Z</time></trkpt><trkpt lat="42.3476243" lon="14.1083073"><ele>44.400000000000006</ele><time>2026-05-02T07:02:25.146Z</time></trkpt><trkpt lat="42.347562" lon="14.1081875"><ele>44.8</ele><time>2026-05-02T07:02:26.147Z</time></trkpt><trkpt lat="42.3475067" lon="14.108079"><ele>45.2</ele><time>2026-05-02T07:02:27.146Z</time></trkpt><trkpt lat="42.347465" lon="14.1079777"><ele>45.599999999999994</ele><time>2026-05-02T07:02:28.146Z</time></trkpt><trkpt lat="42.3474376" lon="14.1078679"><ele>46.0</ele><time>2026-05-02T07:02:29.146Z</time></trkpt><trkpt lat="42.3474146" lon="14.1077365"><ele>46.0</ele><time>2026-05-02T07:02:30.146Z</time></trkpt><trkpt lat="42.3473741" lon="14.1075909"><ele>46.0</ele><time>2026-05-02T07:02:31.148Z</time></trkpt><trkpt lat="42.3473247" lon="14.10744"><ele>46.0</ele><time>2026-05-02T07:02:32.147Z</time></trkpt><trkpt lat="42.3472781" lon="14.1072883"><ele>46.0</ele><time>2026-05-02T07:02:33.147Z</time></trkpt><trkpt lat="42.3472336" lon="14.1071587"><ele>46.0</ele><time>2026-05-02T07:02:34.146Z</time></trkpt><trkpt lat="42.3472008" lon="14.1070594"><ele>46.0</ele><time>2026-05-02T07:02:35.146Z</time></trkpt><trkpt lat="42.3471781" lon="14.1069753"><ele>46.0</ele><time>2026-05-02T07:02:36.147Z</time></trkpt><trkpt lat="42.3472052" lon="14.1067906"><ele>46.0</ele><time>2026-05-02T07:02:38.147Z</time></trkpt><trkpt lat="42.3472394" lon="14.1066727"><ele>46.0</ele><time>2026-05-02T07:02:39.146Z</time></trkpt><trkpt lat="42.3472774" lon="14.1065603"><ele>46.0</ele><time>2026-05-02T07:02:40.146Z</time></trkpt><trkpt lat="42.347306" lon="14.1064623"><ele>46.0</ele><time>2026-05-02T07:02:41.146Z</time></trkpt><trkpt lat="42.3473362" lon="14.1063329"><ele>46.0</ele><time>2026-05-02T07:02:42.146Z</time></trkpt><trkpt lat="42.3473761" lon="14.1062299"><ele>46.0</ele><time>2026-05-02T07:02:43.147Z</time></trkpt><trkpt lat="42.3474099" lon="14.1061174"><ele>46.0</ele><time>2026-05-02T07:02:44.147Z</time></trkpt><trkpt lat="42.3474352" lon="14.105995"><ele>46.0</ele><time>2026-05-02T07:02:45.147Z</time></trkpt><trkpt lat="42.3474577" lon="14.105889"><ele>46.0</ele><time>2026-05-02T07:02:46.147Z</time></trkpt><trkpt lat="42.3474973" lon="14.1058119"><ele>46.0</ele><time>2026-05-02T07:02:47.147Z</time></trkpt><trkpt lat="42.3475623" lon="14.1057236"><ele>46.0</ele><time>2026-05-02T07:02:48.147Z</time></trkpt><trkpt lat="42.3476224" lon="14.105622"><ele>46.0</ele><time>2026-05-02T07:02:49.148Z</time></trkpt><trkpt lat="42.3476838" lon="14.105493"><ele>46.0</ele><time>2026-05-02T07:02:50.147Z</time></trkpt><trkpt lat="42.3477568" lon="14.1053592"><ele>45.8</ele><time>2026-05-02T07:02:51.147Z</time></trkpt><trkpt lat="42.3478258" lon="14.1052394"><ele>45.599999999999994</ele><time>2026-05-02T07:02:52.146Z</time></trkpt><trkpt lat="42.3478923" lon="14.1051206"><ele>45.4</ele><time>2026-05-02T07:02:53.146Z</time></trkpt><trkpt lat="42.3479582" lon="14.1049969"><ele>45.2</ele><time>2026-05-02T07:02:54.146Z</time></trkpt><trkpt lat="42.3480223" lon="14.1048931"><ele>45.0</ele><time>2026-05-02T07:02:55.146Z</time></trkpt><trkpt lat="42.3480939" lon="14.1047956"><ele>46.2</ele><time>2026-05-02T07:02:56.146Z</time></trkpt><trkpt lat="42.3481586" lon="14.1047039"><ele>47.4</ele><time>2026-05-02T07:02:57.146Z</time></trkpt><trkpt lat="42.3482155" lon="14.1045883"><ele>48.599999999999994</ele><time>2026-05-02T07:02:58.146Z</time></trkpt><trkpt lat="42.3482686" lon="14.1044711"><ele>49.8</ele><time>2026-05-02T07:02:59.147Z</time></trkpt><trkpt lat="42.3483002" lon="14.1043409"><ele>51.0</ele><time>2026-05-02T07:03:00.146Z</time></trkpt><trkpt lat="42.3483348" lon="14.1042025"><ele>50.0</ele><time>2026-05-02T07:03:01.146Z</time></trkpt><trkpt lat="42.3483757" lon="14.1040647"><ele>49.0</ele><time>2026-05-02T07:03:02.147Z</time></trkpt><trkpt lat="42.348414" lon="14.1039271"><ele>48.0</ele><time>2026-05-02T07:03:03.146Z</time></trkpt><trkpt lat="42.3484437" lon="14.1037741"><ele>47.0</ele><time>2026-05-02T07:03:04.146Z</time></trkpt><trkpt lat="42.3484717" lon="14.1035982"><ele>47.0</ele><time>2026-05-02T07:03:05.146Z</time></trkpt><trkpt lat="42.3484942" lon="14.1034123"><ele>47.0</ele><time>2026-05-02T07:03:06.146Z</time></trkpt><trkpt lat="42.3485104" lon="14.1032151"><ele>47.0</ele><time>2026-05-02T07:03:07.146Z</time></trkpt><trkpt lat="42.3485278" lon="14.1030128"><ele>47.0</ele><time>2026-05-02T07:03:08.147Z</time></trkpt><trkpt lat="42.3485406" lon="14.1028264"><ele>47.25</ele><time>2026-05-02T07:03:09.147Z</time></trkpt><trkpt lat="42.3485594" lon="14.1026517"><ele>47.5</ele><time>2026-05-02T07:03:10.146Z</time></trkpt><trkpt lat="42.3485903" lon="14.1024727"><ele>47.75</ele><time>2026-05-02T07:03:11.146Z</time></trkpt><trkpt lat="42.3486145" lon="14.1022854"><ele>48.0</ele><time>2026-05-02T07:03:12.146Z</time></trkpt><trkpt lat="42.3486455" lon="14.1021058"><ele>48.0</ele><time>2026-05-02T07:03:13.147Z</time></trkpt><trkpt lat="42.3486828" lon="14.1019219"><ele>48.0</ele><time>2026-05-02T07:03:14.146Z</time></trkpt><trkpt lat="42.3487099" lon="14.1017506"><ele>48.0</ele><time>2026-05-02T07:03:15.146Z</time></trkpt><trkpt lat="42.3487507" lon="14.1015944"><ele>48.0</ele><time>2026-05-02T07:03:16.146Z</time></trkpt><trkpt lat="42.348782" lon="14.1014523"><ele>48.4</ele><time>2026-05-02T07:03:17.146Z</time></trkpt><trkpt lat="42.3488163" lon="14.1013365"><ele>48.8</ele><time>2026-05-02T07:03:18.146Z</time></trkpt><trkpt lat="42.3488467" lon="14.1012413"><ele>49.2</ele><time>2026-05-02T07:03:19.147Z</time></trkpt><trkpt lat="42.3489034" lon="14.1011144"><ele>49.6</ele><time>2026-05-02T07:03:21.147Z</time></trkpt><trkpt lat="42.3490224" lon="14.1010176"><ele>50.0</ele><time>2026-05-02T07:03:23.146Z</time></trkpt><trkpt lat="42.3490799" lon="14.1009438"><ele>50.4</ele><time>2026-05-02T07:03:24.146Z</time></trkpt><trkpt lat="42.3491092" lon="14.1008506"><ele>50.8</ele><time>2026-05-02T07:03:25.147Z</time></trkpt><trkpt lat="42.3491682" lon="14.1007168"><ele>51.2</ele><time>2026-05-02T07:03:27.146Z</time></trkpt><trkpt lat="42.3492292" lon="14.10062"><ele>51.6</ele><time>2026-05-02T07:03:29.147Z</time></trkpt><trkpt lat="42.3493072" lon="14.1005012"><ele>52.0</ele><time>2026-05-02T07:03:31.148Z</time></trkpt><trkpt lat="42.3493494" lon="14.100413"><ele>52.0</ele><time>2026-05-02T07:03:32.147Z</time></trkpt><trkpt lat="42.3493902" lon="14.1003061"><ele>52.0</ele><time>2026-05-02T07:03:33.146Z</time></trkpt><trkpt lat="42.3494321" lon="14.1001782"><ele>52.0</ele><time>2026-05-02T07:03:34.146Z</time></trkpt><trkpt lat="42.3494639" lon="14.1000792"><ele>52.0</ele><time>2026-05-02T07:03:35.146Z</time></trkpt><trkpt lat="42.3494983" lon="14.0999836"><ele>52.0</ele><time>2026-05-02T07:03:36.147Z</time></trkpt><trkpt lat="42.3495299" lon="14.099834"><ele>51.2</ele><time>2026-05-02T07:03:38.146Z</time></trkpt><trkpt lat="42.3495347" lon="14.0996887"><ele>50.400000000000006</ele><time>2026-05-02T07:03:40.147Z</time></trkpt><trkpt lat="42.3495304" lon="14.0995975"><ele>49.599999999999994</ele><time>2026-05-02T07:03:41.147Z</time></trkpt><trkpt lat="42.3494787" lon="14.0994336"><ele>48.8</ele><time>2026-05-02T07:03:43.147Z</time></trkpt><trkpt lat="42.3494491" lon="14.0993425"><ele>48.0</ele><time>2026-05-02T07:03:44.146Z</time></trkpt><trkpt lat="42.3494254" lon="14.0991912"><ele>48.5</ele><time>2026-05-02T07:03:46.146Z</time></trkpt><trkpt lat="42.34942" lon="14.0990426"><ele>49.0</ele><time>2026-05-02T07:03:48.146Z</time></trkpt><trkpt lat="42.3494595" lon="14.098867"><ele>49.5</ele><time>2026-05-02T07:03:50.146Z</time></trkpt><trkpt lat="42.3494965" lon="14.0987477"><ele>50.0</ele><time>2026-05-02T07:03:51.146Z</time></trkpt><trkpt lat="42.3495376" lon="14.0985968"><ele>50.0</ele><time>2026-05-02T07:03:52.146Z</time></trkpt><trkpt lat="42.3495763" lon="14.0984213"><ele>50.0</ele><time>2026-05-02T07:03:53.146Z</time></trkpt><trkpt lat="42.3496047" lon="14.0982562"><ele>50.0</ele><time>2026-05-02T07:03:54.147Z</time></trkpt><trkpt lat="42.3496385" lon="14.0980921"><ele>50.0</ele><time>2026-05-02T07:03:55.146Z</time></trkpt><trkpt lat="42.3496765" lon="14.0979309"><ele>50.25</ele><time>2026-05-02T07:03:56.147Z</time></trkpt><trkpt lat="42.3497197" lon="14.0977736"><ele>50.5</ele><time>2026-05-02T07:03:57.146Z</time></trkpt><trkpt lat="42.3497658" lon="14.0976197"><ele>50.75</ele><time>2026-05-02T07:03:58.146Z</time></trkpt><trkpt lat="42.3498033" lon="14.0974777"><ele>51.0</ele><time>2026-05-02T07:03:59.147Z</time></trkpt><trkpt lat="42.3498415" lon="14.0973183"><ele>51.0</ele><time>2026-05-02T07:04:00.147Z</time></trkpt><trkpt lat="42.3498793" lon="14.0971427"><ele>51.0</ele><time>2026-05-02T07:04:01.147Z</time></trkpt><trkpt lat="42.3499067" lon="14.0969467"><ele>51.0</ele><time>2026-05-02T07:04:02.146Z</time></trkpt><trkpt lat="42.3499267" lon="14.0967436"><ele>51.0</ele><time>2026-05-02T07:04:03.146Z</time></trkpt><trkpt lat="42.3499459" lon="14.0965402"><ele>51.33333333333333</ele><time>2026-05-02T07:04:04.147Z</time></trkpt><trkpt lat="42.3499612" lon="14.0963254"><ele>51.666666666666664</ele><time>2026-05-02T07:04:05.147Z</time></trkpt><trkpt lat="42.3499752" lon="14.0960961"><ele>52.0</ele><time>2026-05-02T07:04:06.146Z</time></trkpt><trkpt lat="42.3499907" lon="14.0958703"><ele>52.0</ele><time>2026-05-02T07:04:07.146Z</time></trkpt><trkpt lat="42.3500057" lon="14.0956674"><ele>52.0</ele><time>2026-05-02T07:04:08.146Z</time></trkpt><trkpt lat="42.3500176" lon="14.0954836"><ele>52.0</ele><time>2026-05-02T07:04:09.147Z</time></trkpt><trkpt lat="42.3500291" lon="14.0953027"><ele>52.0</ele><time>2026-05-02T07:04:10.146Z</time></trkpt><trkpt lat="42.3500243" lon="14.0951136"><ele>52.0</ele><time>2026-05-02T07:04:11.147Z</time></trkpt><trkpt lat="42.3500077" lon="14.0949024"><ele>52.0</ele><time>2026-05-02T07:04:12.146Z</time></trkpt><trkpt lat="42.3499822" lon="14.0946965"><ele>52.0</ele><time>2026-05-02T07:04:13.147Z</time></trkpt><trkpt lat="42.349953" lon="14.0945092"><ele>52.0</ele><time>2026-05-02T07:04:14.147Z</time></trkpt><trkpt lat="42.3499141" lon="14.0943101"><ele>52.0</ele><time>2026-05-02T07:04:15.147Z</time></trkpt><trkpt lat="42.3498736" lon="14.0941236"><ele>52.0</ele><time>2026-05-02T07:04:16.146Z</time></trkpt><trkpt lat="42.3498409" lon="14.0939606"><ele>52.0</ele><time>2026-05-02T07:04:17.146Z</time></trkpt><trkpt lat="42.3498118" lon="14.0938047"><ele>51.8</ele><time>2026-05-02T07:04:18.146Z</time></trkpt><trkpt lat="42.3497814" lon="14.0936695"><ele>51.6</ele><time>2026-05-02T07:04:19.146Z</time></trkpt><trkpt lat="42.3497368" lon="14.0935659"><ele>51.4</ele><time>2026-05-02T07:04:20.146Z</time></trkpt><trkpt lat="42.3496847" lon="14.0934656"><ele>51.199999999999996</ele><time>2026-05-02T07:04:21.147Z</time></trkpt><trkpt lat="42.3496408" lon="14.0933925"><ele>51.0</ele><time>2026-05-02T07:04:22.147Z</time></trkpt><trkpt lat="42.3496258" lon="14.0932175"><ele>52.0</ele><time>2026-05-02T07:04:24.146Z</time></trkpt><trkpt lat="42.3496268" lon="14.093102"><ele>53.0</ele><time>2026-05-02T07:04:25.146Z</time></trkpt><trkpt lat="42.3496112" lon="14.0929831"><ele>53.99999999999999</ele><time>2026-05-02T07:04:26.146Z</time></trkpt><trkpt lat="42.3495775" lon="14.0928569"><ele>55.0</ele><time>2026-05-02T07:04:27.145Z</time></trkpt><trkpt lat="42.3495306" lon="14.0927256"><ele>56.0</ele><time>2026-05-02T07:04:28.145Z</time></trkpt><trkpt lat="42.3494627" lon="14.0926173"><ele>56.0</ele><time>2026-05-02T07:04:29.146Z</time></trkpt><trkpt lat="42.3494002" lon="14.0925153"><ele>55.99999999999999</ele><time>2026-05-02T07:04:30.146Z</time></trkpt><trkpt lat="42.3493544" lon="14.0924121"><ele>55.99999999999999</ele><time>2026-05-02T07:04:31.145Z</time></trkpt><trkpt lat="42.3493242" lon="14.0922914"><ele>56.0</ele><time>2026-05-02T07:04:32.145Z</time></trkpt><trkpt lat="42.349291" lon="14.0921426"><ele>56.0</ele><time>2026-05-02T07:04:33.146Z</time></trkpt><trkpt lat="42.3492481" lon="14.0919625"><ele>56.25</ele><time>2026-05-02T07:04:34.145Z</time></trkpt><trkpt lat="42.3492044" lon="14.0917826"><ele>56.5</ele><time>2026-05-02T07:04:35.146Z</time></trkpt><trkpt lat="42.3491722" lon="14.0916155"><ele>56.75</ele><time>2026-05-02T07:04:36.146Z</time></trkpt><trkpt lat="42.3491462" lon="14.0914443"><ele>57.0</ele><time>2026-05-02T07:04:37.146Z</time></trkpt><trkpt lat="42.3491295" lon="14.0912663"><ele>57.0</ele><time>2026-05-02T07:04:38.146Z</time></trkpt><trkpt lat="42.3491084" lon="14.0910969"><ele>57.0</ele><time>2026-05-02T07:04:39.145Z</time></trkpt><trkpt lat="42.3491057" lon="14.0909508"><ele>57.0</ele><time>2026-05-02T07:04:40.145Z</time></trkpt><trkpt lat="42.3490818" lon="14.0907958"><ele>57.0</ele><time>2026-05-02T07:04:41.145Z</time></trkpt><trkpt lat="42.3490435" lon="14.0906197"><ele>56.66666666666667</ele><time>2026-05-02T07:04:42.145Z</time></trkpt><trkpt lat="42.3490059" lon="14.0904203"><ele>56.333333333333336</ele><time>2026-05-02T07:04:43.145Z</time></trkpt><trkpt lat="42.3489707" lon="14.0902066"><ele>56.0</ele><time>2026-05-02T07:04:44.146Z</time></trkpt><trkpt lat="42.3489378" lon="14.0899941"><ele>56.25</ele><time>2026-05-02T07:04:45.146Z</time></trkpt><trkpt lat="42.3489102" lon="14.0897784"><ele>56.5</ele><time>2026-05-02T07:04:46.145Z</time></trkpt><trkpt lat="42.3488876" lon="14.0895872"><ele>56.75</ele><time>2026-05-02T07:04:47.145Z</time></trkpt><trkpt lat="42.3488631" lon="14.0894148"><ele>57.0</ele><time>2026-05-02T07:04:48.145Z</time></trkpt><trkpt lat="42.3488355" lon="14.0892558"><ele>59.0</ele><time>2026-05-02T07:04:49.145Z</time></trkpt><trkpt lat="42.3488048" lon="14.0890766"><ele>61.0</ele><time>2026-05-02T07:04:50.146Z</time></trkpt><trkpt lat="42.3487894" lon="14.0888888"><ele>63.0</ele><time>2026-05-02T07:04:51.146Z</time></trkpt><trkpt lat="42.3487869" lon="14.0886931"><ele>65.0</ele><time>2026-05-02T07:04:52.147Z</time></trkpt><trkpt lat="42.348781" lon="14.0884929"><ele>65.0</ele><time>2026-05-02T07:04:53.146Z</time></trkpt><trkpt lat="42.348769" lon="14.0883127"><ele>65.0</ele><time>2026-05-02T07:04:54.147Z</time></trkpt><trkpt lat="42.3487612" lon="14.0881555"><ele>65.0</ele><time>2026-05-02T07:04:55.146Z</time></trkpt><trkpt lat="42.3487421" lon="14.0880238"><ele>65.0</ele><time>2026-05-02T07:04:56.145Z</time></trkpt><trkpt lat="42.3487077" lon="14.0878864"><ele>64.6</ele><time>2026-05-02T07:04:57.145Z</time></trkpt><trkpt lat="42.3486778" lon="14.0877696"><ele>64.2</ele><time>2026-05-02T07:04:58.145Z</time></trkpt><trkpt lat="42.3486609" lon="14.0876351"><ele>63.8</ele><time>2026-05-02T07:04:59.146Z</time></trkpt><trkpt lat="42.3486338" lon="14.0874965"><ele>63.4</ele><time>2026-05-02T07:05:00.146Z</time></trkpt><trkpt lat="42.3486403" lon="14.0873497"><ele>63.0</ele><time>2026-05-02T07:05:01.146Z</time></trkpt><trkpt lat="42.3486085" lon="14.0872388"><ele>63.0</ele><time>2026-05-02T07:05:02.146Z</time></trkpt><trkpt lat="42.3485639" lon="14.0871261"><ele>63.0</ele><time>2026-05-02T07:05:03.146Z</time></trkpt><trkpt lat="42.3484819" lon="14.0870388"><ele>63.0</ele><time>2026-05-02T07:05:04.147Z</time></trkpt><trkpt lat="42.3483973" lon="14.0869477"><ele>63.0</ele><time>2026-05-02T07:05:05.145Z</time></trkpt><trkpt lat="42.3483373" lon="14.086885"><ele>63.0</ele><time>2026-05-02T07:05:06.146Z</time></trkpt><trkpt lat="42.3482457" lon="14.0867955"><ele>63.0</ele><time>2026-05-02T07:05:08.145Z</time></trkpt><trkpt lat="42.3481828" lon="14.0867194"><ele>63.0</ele><time>2026-05-02T07:05:10.146Z</time></trkpt><trkpt lat="42.3481511" lon="14.0866072"><ele>63.0</ele><time>2026-05-02T07:05:12.145Z</time></trkpt><trkpt lat="42.348127" lon="14.086497"><ele>63.0</ele><time>2026-05-02T07:05:13.145Z</time></trkpt><trkpt lat="42.3481072" lon="14.0864153"><ele>63.0</ele><time>2026-05-02T07:05:14.145Z</time></trkpt><trkpt lat="42.3480846" lon="14.0862304"><ele>63.0</ele><time>2026-05-02T07:05:16.146Z</time></trkpt><trkpt lat="42.3480799" lon="14.0861283"><ele>63.0</ele><time>2026-05-02T07:05:17.146Z</time></trkpt><trkpt lat="42.3480598" lon="14.0859614"><ele>63.0</ele><time>2026-05-02T07:05:19.145Z</time></trkpt><trkpt lat="42.3480217" lon="14.0857816"><ele>63.0</ele><time>2026-05-02T07:05:21.145Z</time></trkpt><trkpt lat="42.3479907" lon="14.0856716"><ele>63.0</ele><time>2026-05-02T07:05:22.145Z</time></trkpt><trkpt lat="42.3479837" lon="14.0855275"><ele>63.833333333333336</ele><time>2026-05-02T07:05:23.145Z</time></trkpt><trkpt lat="42.3479684" lon="14.0854172"><ele>64.66666666666667</ele><time>2026-05-02T07:05:24.146Z</time></trkpt><trkpt lat="42.3479372" lon="14.0853102"><ele>65.5</ele><time>2026-05-02T07:05:25.146Z</time></trkpt><trkpt lat="42.3478848" lon="14.0852012"><ele>66.33333333333334</ele><time>2026-05-02T07:05:26.147Z</time></trkpt><trkpt lat="42.3478459" lon="14.0851055"><ele>67.16666666666667</ele><time>2026-05-02T07:05:27.145Z</time></trkpt><trkpt lat="42.3478063" lon="14.0849958"><ele>68.0</ele><time>2026-05-02T07:05:28.146Z</time></trkpt><trkpt lat="42.3478025" lon="14.0848315"><ele>68.0</ele><time>2026-05-02T07:05:29.145Z</time></trkpt><trkpt lat="42.3477741" lon="14.0846999"><ele>68.0</ele><time>2026-05-02T07:05:30.145Z</time></trkpt><trkpt lat="42.3477553" lon="14.0846043"><ele>68.0</ele><time>2026-05-02T07:05:31.145Z</time></trkpt><trkpt lat="42.3477142" lon="14.0844628"><ele>68.0</ele><time>2026-05-02T07:05:32.145Z</time></trkpt><trkpt lat="42.3476722" lon="14.0843156"><ele>68.0</ele><time>2026-05-02T07:05:33.145Z</time></trkpt><trkpt lat="42.347637" lon="14.0841949"><ele>67.83333333333334</ele><time>2026-05-02T07:05:34.146Z</time></trkpt><trkpt lat="42.3476202" lon="14.0840741"><ele>67.66666666666667</ele><time>2026-05-02T07:05:35.146Z</time></trkpt><trkpt lat="42.3476001" lon="14.0839368"><ele>67.5</ele><time>2026-05-02T07:05:36.147Z</time></trkpt><trkpt lat="42.347591" lon="14.0838139"><ele>67.33333333333333</ele><time>2026-05-02T07:05:37.146Z</time></trkpt><trkpt lat="42.347591" lon="14.0837165"><ele>67.16666666666666</ele><time>2026-05-02T07:05:38.146Z</time></trkpt><trkpt lat="42.3475811" lon="14.0836023"><ele>67.0</ele><time>2026-05-02T07:05:39.146Z</time></trkpt><trkpt lat="42.3475804" lon="14.083479"><ele>67.0</ele><time>2026-05-02T07:05:40.147Z</time></trkpt><trkpt lat="42.3475898" lon="14.0833232"><ele>67.0</ele><time>2026-05-02T07:05:41.146Z</time></trkpt><trkpt lat="42.3476163" lon="14.0831986"><ele>67.0</ele><time>2026-05-02T07:05:42.145Z</time></trkpt><trkpt lat="42.3476443" lon="14.0830791"><ele>67.0</ele><time>2026-05-02T07:05:43.146Z</time></trkpt><trkpt lat="42.3476856" lon="14.0829896"><ele>67.0</ele><time>2026-05-02T07:05:44.147Z</time></trkpt><trkpt lat="42.3477467" lon="14.0829168"><ele>67.25</ele><time>2026-05-02T07:05:45.146Z</time></trkpt><trkpt lat="42.3478345" lon="14.0828221"><ele>67.5</ele><time>2026-05-02T07:05:46.146Z</time></trkpt><trkpt lat="42.3479098" lon="14.0827319"><ele>67.75</ele><time>2026-05-02T07:05:47.145Z</time></trkpt><trkpt lat="42.347977" lon="14.0826168"><ele>68.0</ele><time>2026-05-02T07:05:48.146Z</time></trkpt><trkpt lat="42.3480456" lon="14.0824677"><ele>67.4</ele><time>2026-05-02T07:05:49.147Z</time></trkpt><trkpt lat="42.3481073" lon="14.0823117"><ele>66.8</ele><time>2026-05-02T07:05:50.146Z</time></trkpt><trkpt lat="42.3481592" lon="14.0822085"><ele>66.2</ele><time>2026-05-02T07:05:51.145Z</time></trkpt><trkpt lat="42.3482067" lon="14.0821154"><ele>65.6</ele><time>2026-05-02T07:05:52.145Z</time></trkpt><trkpt lat="42.3482446" lon="14.0820348"><ele>65.0</ele><time>2026-05-02T07:05:53.146Z</time></trkpt><trkpt lat="42.3482778" lon="14.0819443"><ele>65.0</ele><time>2026-05-02T07:05:54.146Z</time></trkpt><trkpt lat="42.3483118" lon="14.0818289"><ele>65.0</ele><time>2026-05-02T07:05:55.145Z</time></trkpt><trkpt lat="42.3483335" lon="14.0817184"><ele>65.0</ele><time>2026-05-02T07:05:56.145Z</time></trkpt><trkpt lat="42.3483521" lon="14.0816295"><ele>65.0</ele><time>2026-05-02T07:05:57.147Z</time></trkpt><trkpt lat="42.3483665" lon="14.0815281"><ele>65.0</ele><time>2026-05-02T07:05:59.146Z</time></trkpt><trkpt lat="42.3484087" lon="14.0814636"><ele>65.0</ele><time>2026-05-02T07:06:09.145Z</time></trkpt><trkpt lat="42.3483979" lon="14.0815507"><ele>65.0</ele><time>2026-05-02T07:06:12.145Z</time></trkpt><trkpt lat="42.3483437" lon="14.0816367"><ele>65.0</ele><time>2026-05-02T07:06:14.145Z</time></trkpt><trkpt lat="42.3483311" lon="14.0817679"><ele>65.0</ele><time>2026-05-02T07:06:16.146Z</time></trkpt><trkpt lat="42.3483123" lon="14.081869"><ele>65.0</ele><time>2026-05-02T07:06:18.146Z</time></trkpt><trkpt lat="42.3483772" lon="14.0819413"><ele>65.0</ele><time>2026-05-02T07:06:32.146Z</time></trkpt><trkpt lat="42.3484504" lon="14.0819897"><ele>65.0</ele><time>2026-05-02T07:06:34.147Z</time></trkpt><trkpt lat="42.3485139" lon="14.0819867"><ele>65.0</ele><time>2026-05-02T07:06:36.145Z</time></trkpt><trkpt lat="42.3485549" lon="14.0818597"><ele>65.0</ele><time>2026-05-02T07:06:38.146Z</time></trkpt><trkpt lat="42.3485851" lon="14.0817431"><ele>65.0</ele><time>2026-05-02T07:06:40.146Z</time></trkpt><trkpt lat="42.3486074" lon="14.0816047"><ele>65.0</ele><time>2026-05-02T07:06:42.145Z</time></trkpt><trkpt lat="42.3486587" lon="14.0815438"><ele>65.0</ele><time>2026-05-02T07:06:43.146Z</time></trkpt><trkpt lat="42.3487248" lon="14.0814811"><ele>65.0</ele><time>2026-05-02T07:06:44.146Z</time></trkpt><trkpt lat="42.3488075" lon="14.0814159"><ele>65.33333333333334</ele><time>2026-05-02T07:06:45.145Z</time></trkpt><trkpt lat="42.3488792" lon="14.0813605"><ele>65.66666666666667</ele><time>2026-05-02T07:06:46.146Z</time></trkpt><trkpt lat="42.3489565" lon="14.0813077"><ele>66.0</ele><time>2026-05-02T07:06:47.146Z</time></trkpt><trkpt lat="42.3490247" lon="14.0812597"><ele>66.33333333333333</ele><time>2026-05-02T07:06:48.146Z</time></trkpt><trkpt lat="42.3490922" lon="14.0812361"><ele>66.66666666666666</ele><time>2026-05-02T07:06:49.147Z</time></trkpt><trkpt lat="42.3491644" lon="14.0812303"><ele>67.0</ele><time>2026-05-02T07:06:50.146Z</time></trkpt><trkpt lat="42.349235" lon="14.0812373"><ele>67.0</ele><time>2026-05-02T07:06:51.145Z</time></trkpt><trkpt lat="42.349313" lon="14.0812604"><ele>67.0</ele><time>2026-05-02T07:06:52.146Z</time></trkpt><trkpt lat="42.349393" lon="14.0812826"><ele>67.0</ele><time>2026-05-02T07:06:53.145Z</time></trkpt><trkpt lat="42.3494589" lon="14.0812966"><ele>67.0</ele><time>2026-05-02T07:06:54.146Z</time></trkpt><trkpt lat="42.3495674" lon="14.0812712"><ele>67.0</ele><time>2026-05-02T07:06:56.145Z</time></trkpt><trkpt lat="42.3496513" lon="14.081175"><ele>67.0</ele><time>2026-05-02T07:06:58.146Z</time></trkpt><trkpt lat="42.3496725" lon="14.0810452"><ele>67.0</ele><time>2026-05-02T07:07:00.146Z</time></trkpt><trkpt lat="42.3496319" lon="14.0809094"><ele>67.0</ele><time>2026-05-02T07:07:02.146Z</time></trkpt><trkpt lat="42.3495852" lon="14.0807833"><ele>67.0</ele><time>2026-05-02T07:07:04.145Z</time></trkpt><trkpt lat="42.3495443" lon="14.0806794"><ele>67.0</ele><time>2026-05-02T07:07:06.145Z</time></trkpt><trkpt lat="42.349571" lon="14.0805645"><ele>67.0</ele><time>2026-05-02T07:07:08.145Z</time></trkpt><trkpt lat="42.3496836" lon="14.0804309"><ele>66.6</ele><time>2026-05-02T07:07:10.147Z</time></trkpt><trkpt lat="42.349759" lon="14.0803388"><ele>66.2</ele><time>2026-05-02T07:07:11.145Z</time></trkpt><trkpt lat="42.3498375" lon="14.0802581"><ele>65.8</ele><time>2026-05-02T07:07:12.146Z</time></trkpt><trkpt lat="42.3499282" lon="14.0801761"><ele>65.4</ele><time>2026-05-02T07:07:13.145Z</time></trkpt><trkpt lat="42.3500216" lon="14.0800977"><ele>65.0</ele><time>2026-05-02T07:07:14.145Z</time></trkpt><trkpt lat="42.3501037" lon="14.0800271"><ele>65.0</ele><time>2026-05-02T07:07:15.146Z</time></trkpt><trkpt lat="42.3501728" lon="14.0799413"><ele>65.0</ele><time>2026-05-02T07:07:16.145Z</time></trkpt><trkpt lat="42.3502392" lon="14.0798267"><ele>65.0</ele><time>2026-05-02T07:07:17.145Z</time></trkpt><trkpt lat="42.3502954" lon="14.0796932"><ele>65.0</ele><time>2026-05-02T07:07:18.145Z</time></trkpt><trkpt lat="42.3503408" lon="14.0795431"><ele>65.0</ele><time>2026-05-02T07:07:19.145Z</time></trkpt><trkpt lat="42.3503754" lon="14.0793724"><ele>65.25</ele><time>2026-05-02T07:07:20.145Z</time></trkpt><trkpt lat="42.3504048" lon="14.0792196"><ele>65.5</ele><time>2026-05-02T07:07:21.145Z</time></trkpt><trkpt lat="42.3504359" lon="14.0790768"><ele>65.75</ele><time>2026-05-02T07:07:22.145Z</time></trkpt><trkpt lat="42.3504725" lon="14.0789276"><ele>66.0</ele><time>2026-05-02T07:07:23.145Z</time></trkpt><trkpt lat="42.3505145" lon="14.0787936"><ele>66.2</ele><time>2026-05-02T07:07:24.146Z</time></trkpt><trkpt lat="42.3505502" lon="14.0786782"><ele>66.39999999999999</ele><time>2026-05-02T07:07:25.146Z</time></trkpt><trkpt lat="42.350566" lon="14.0785684"><ele>66.6</ele><time>2026-05-02T07:07:26.147Z</time></trkpt><trkpt lat="42.3505806" lon="14.0784611"><ele>66.8</ele><time>2026-05-02T07:07:27.146Z</time></trkpt><trkpt lat="42.3505561" lon="14.0783167"><ele>67.0</ele><time>2026-05-02T07:07:28.146Z</time></trkpt><trkpt lat="42.3505334" lon="14.0781808"><ele>67.0</ele><time>2026-05-02T07:07:29.147Z</time></trkpt><trkpt lat="42.3505071" lon="14.0780396"><ele>67.0</ele><time>2026-05-02T07:07:30.146Z</time></trkpt><trkpt lat="42.3504937" lon="14.0779118"><ele>67.0</ele><time>2026-05-02T07:07:31.146Z</time></trkpt><trkpt lat="42.350472" lon="14.0777707"><ele>67.0</ele><time>2026-05-02T07:07:32.147Z</time></trkpt><trkpt lat="42.3504489" lon="14.0776298"><ele>67.0</ele><time>2026-05-02T07:07:33.146Z</time></trkpt><trkpt lat="42.35044" lon="14.0774788"><ele>67.25</ele><time>2026-05-02T07:07:34.147Z</time></trkpt><trkpt lat="42.3504402" lon="14.0773113"><ele>67.5</ele><time>2026-05-02T07:07:35.146Z</time></trkpt><trkpt lat="42.3504416" lon="14.0771257"><ele>67.75</ele><time>2026-05-02T07:07:36.146Z</time></trkpt><trkpt lat="42.3504428" lon="14.0769568"><ele>68.0</ele><time>2026-05-02T07:07:37.146Z</time></trkpt><trkpt lat="42.3504388" lon="14.0768033"><ele>68.0</ele><time>2026-05-02T07:07:38.147Z</time></trkpt><trkpt lat="42.3504356" lon="14.0766669"><ele>68.0</ele><time>2026-05-02T07:07:39.146Z</time></trkpt><trkpt lat="42.3504579" lon="14.0765268"><ele>68.0</ele><time>2026-05-02T07:07:40.146Z</time></trkpt><trkpt lat="42.3504878" lon="14.0764075"><ele>68.0</ele><time>2026-05-02T07:07:41.146Z</time></trkpt><trkpt lat="42.3505033" lon="14.0762854"><ele>68.0</ele><time>2026-05-02T07:07:42.146Z</time></trkpt><trkpt lat="42.3504932" lon="14.0761812"><ele>68.4</ele><time>2026-05-02T07:07:43.146Z</time></trkpt><trkpt lat="42.3504531" lon="14.0760263"><ele>68.8</ele><time>2026-05-02T07:07:44.145Z</time></trkpt><trkpt lat="42.3504283" lon="14.0758579"><ele>69.2</ele><time>2026-05-02T07:07:45.147Z</time></trkpt><trkpt lat="42.3504221" lon="14.07573"><ele>69.6</ele><time>2026-05-02T07:07:46.146Z</time></trkpt><trkpt lat="42.3504159" lon="14.0756176"><ele>70.0</ele><time>2026-05-02T07:07:47.145Z</time></trkpt><trkpt lat="42.3504121" lon="14.0755252"><ele>70.2</ele><time>2026-05-02T07:07:48.147Z</time></trkpt><trkpt lat="42.3504519" lon="14.0754196"><ele>70.4</ele><time>2026-05-02T07:07:50.146Z</time></trkpt><trkpt lat="42.3505094" lon="14.0753815"><ele>70.6</ele><time>2026-05-02T07:07:51.145Z</time></trkpt><trkpt lat="42.3505871" lon="14.0753479"><ele>70.8</ele><time>2026-05-02T07:07:52.145Z</time></trkpt><trkpt lat="42.350685" lon="14.0753134"><ele>71.0</ele><time>2026-05-02T07:07:53.145Z</time></trkpt><trkpt lat="42.3508117" lon="14.0752797"><ele>71.0</ele><time>2026-05-02T07:07:54.145Z</time></trkpt><trkpt lat="42.3509614" lon="14.0752351"><ele>71.0</ele><time>2026-05-02T07:07:55.146Z</time></trkpt><trkpt lat="42.3511165" lon="14.0751822"><ele>71.0</ele><time>2026-05-02T07:07:56.146Z</time></trkpt><trkpt lat="42.351238" lon="14.0751406"><ele>71.0</ele><time>2026-05-02T07:07:57.146Z</time></trkpt><trkpt lat="42.3513449" lon="14.0751046"><ele>71.5</ele><time>2026-05-02T07:07:58.145Z</time></trkpt><trkpt lat="42.3514502" lon="14.0750764"><ele>72.0</ele><time>2026-05-02T07:07:59.145Z</time></trkpt><trkpt lat="42.3515709" lon="14.0750645"><ele>72.5</ele><time>2026-05-02T07:08:00.145Z</time></trkpt><trkpt lat="42.3517075" lon="14.0750691"><ele>73.0</ele><time>2026-05-02T07:08:01.145Z</time></trkpt><trkpt lat="42.3518591" lon="14.0750884"><ele>73.0</ele><time>2026-05-02T07:08:02.146Z</time></trkpt><trkpt lat="42.3520255" lon="14.0751114"><ele>73.0</ele><time>2026-05-02T07:08:03.145Z</time></trkpt><trkpt lat="42.3522047" lon="14.0751378"><ele>73.0</ele><time>2026-05-02T07:08:04.146Z</time></trkpt><trkpt lat="42.3523846" lon="14.0751657"><ele>74.33333333333333</ele><time>2026-05-02T07:08:05.145Z</time></trkpt><trkpt lat="42.3525759" lon="14.075194"><ele>75.66666666666667</ele><time>2026-05-02T07:08:06.145Z</time></trkpt><trkpt lat="42.3527479" lon="14.0752225"><ele>77.0</ele><time>2026-05-02T07:08:07.145Z</time></trkpt><trkpt lat="42.3528926" lon="14.0752586"><ele>77.0</ele><time>2026-05-02T07:08:08.145Z</time></trkpt><trkpt lat="42.353021" lon="14.0752985"><ele>77.0</ele><time>2026-05-02T07:08:09.146Z</time></trkpt><trkpt lat="42.3531472" lon="14.0753405"><ele>77.0</ele><time>2026-05-02T07:08:10.145Z</time></trkpt><trkpt lat="42.3532761" lon="14.0753633"><ele>77.0</ele><time>2026-05-02T07:08:11.145Z</time></trkpt><trkpt lat="42.3534208" lon="14.0753523"><ele>81.66666666666667</ele><time>2026-05-02T07:08:12.147Z</time></trkpt><trkpt lat="42.3535854" lon="14.0753234"><ele>86.33333333333333</ele><time>2026-05-02T07:08:13.145Z</time></trkpt><trkpt lat="42.353759" lon="14.0752828"><ele>91.0</ele><time>2026-05-02T07:08:14.145Z</time></trkpt><trkpt lat="42.3539327" lon="14.0752442"><ele>93.0</ele><time>2026-05-02T07:08:15.145Z</time></trkpt><trkpt lat="42.3540893" lon="14.0752083"><ele>95.0</ele><time>2026-05-02T07:08:16.145Z</time></trkpt><trkpt lat="42.3542526" lon="14.0751673"><ele>97.0</ele><time>2026-05-02T07:08:17.145Z</time></trkpt><trkpt lat="42.3544049" lon="14.0751234"><ele>97.0</ele><time>2026-05-02T07:08:18.145Z</time></trkpt><trkpt lat="42.3545705" lon="14.0750818"><ele>97.0</ele><time>2026-05-02T07:08:19.145Z</time></trkpt><trkpt lat="42.3547195" lon="14.0750403"><ele>97.0</ele><time>2026-05-02T07:08:20.147Z</time></trkpt><trkpt lat="42.3548705" lon="14.0750058"><ele>101.33333333333334</ele><time>2026-05-02T07:08:21.145Z</time></trkpt><trkpt lat="42.3550301" lon="14.0749765"><ele>105.66666666666666</ele><time>2026-05-02T07:08:22.145Z</time></trkpt><trkpt lat="42.3551913" lon="14.0749482"><ele>110.0</ele><time>2026-05-02T07:08:23.145Z</time></trkpt><trkpt lat="42.3553589" lon="14.074928"><ele>110.75</ele><time>2026-05-02T07:08:24.145Z</time></trkpt><trkpt lat="42.3555219" lon="14.0749063"><ele>111.5</ele><time>2026-05-02T07:08:25.145Z</time></trkpt><trkpt lat="42.3556665" lon="14.0748811"><ele>112.25</ele><time>2026-05-02T07:08:26.147Z</time></trkpt><trkpt lat="42.3557939" lon="14.0748639"><ele>113.0</ele><time>2026-05-02T07:08:27.146Z</time></trkpt><trkpt lat="42.3559241" lon="14.0748635"><ele>115.33333333333333</ele><time>2026-05-02T07:08:28.147Z</time></trkpt><trkpt lat="42.3560674" lon="14.0748659"><ele>117.66666666666666</ele><time>2026-05-02T07:08:29.147Z</time></trkpt><trkpt lat="42.3562224" lon="14.0748785"><ele>120.0</ele><time>2026-05-02T07:08:30.146Z</time></trkpt><trkpt lat="42.3563873" lon="14.0749021"><ele>121.0</ele><time>2026-05-02T07:08:31.146Z</time></trkpt><trkpt lat="42.3565469" lon="14.0749298"><ele>122.0</ele><time>2026-05-02T07:08:32.145Z</time></trkpt><trkpt lat="42.3566985" lon="14.0749531"><ele>123.0</ele><time>2026-05-02T07:08:33.145Z</time></trkpt><trkpt lat="42.3568479" lon="14.0749783"><ele>123.0</ele><time>2026-05-02T07:08:34.147Z</time></trkpt><trkpt lat="42.3569906" lon="14.075008"><ele>123.0</ele><time>2026-05-02T07:08:35.146Z</time></trkpt><trkpt lat="42.3571475" lon="14.0750409"><ele>123.0</ele><time>2026-05-02T07:08:36.145Z</time></trkpt><trkpt lat="42.3573085" lon="14.0750769"><ele>122.66666666666666</ele><time>2026-05-02T07:08:37.146Z</time></trkpt><trkpt lat="42.357459" lon="14.0751089"><ele>122.33333333333333</ele><time>2026-05-02T07:08:38.145Z</time></trkpt><trkpt lat="42.3576039" lon="14.0751409"><ele>122.0</ele><time>2026-05-02T07:08:39.145Z</time></trkpt><trkpt lat="42.3577517" lon="14.0751806"><ele>122.0</ele><time>2026-05-02T07:08:40.145Z</time></trkpt><trkpt lat="42.3579101" lon="14.0752333"><ele>122.0</ele><time>2026-05-02T07:08:41.145Z</time></trkpt><trkpt lat="42.3580598" lon="14.0752905"><ele>122.0</ele><time>2026-05-02T07:08:42.145Z</time></trkpt><trkpt lat="42.3582125" lon="14.0753461"><ele>121.8</ele><time>2026-05-02T07:08:43.147Z</time></trkpt><trkpt lat="42.3583449" lon="14.0753965"><ele>121.6</ele><time>2026-05-02T07:08:44.146Z</time></trkpt><trkpt lat="42.3584652" lon="14.0754418"><ele>121.39999999999999</ele><time>2026-05-02T07:08:45.146Z</time></trkpt><trkpt lat="42.3585583" lon="14.0754818"><ele>121.19999999999999</ele><time>2026-05-02T07:08:46.147Z</time></trkpt><trkpt lat="42.3586229" lon="14.0755076"><ele>121.0</ele><time>2026-05-02T07:08:47.146Z</time></trkpt><trkpt lat="42.358734" lon="14.0755377"><ele>121.0</ele><time>2026-05-02T07:08:49.146Z</time></trkpt><trkpt lat="42.3588079" lon="14.0755232"><ele>121.0</ele><time>2026-05-02T07:08:50.146Z</time></trkpt><trkpt lat="42.3588927" lon="14.0754755"><ele>121.0</ele><time>2026-05-02T07:08:51.145Z</time></trkpt><trkpt lat="42.3589943" lon="14.0754022"><ele>121.0</ele><time>2026-05-02T07:08:52.145Z</time></trkpt><trkpt lat="42.3591132" lon="14.0753204"><ele>121.0</ele><time>2026-05-02T07:08:53.145Z</time></trkpt><trkpt lat="42.3592473" lon="14.0752315"><ele>122.0</ele><time>2026-05-02T07:08:54.145Z</time></trkpt><trkpt lat="42.3593855" lon="14.0751318"><ele>123.0</ele><time>2026-05-02T07:08:55.145Z</time></trkpt><trkpt lat="42.3595221" lon="14.0750338"><ele>124.0</ele><time>2026-05-02T07:08:56.145Z</time></trkpt><trkpt lat="42.3596604" lon="14.0749338"><ele>125.0</ele><time>2026-05-02T07:08:57.145Z</time></trkpt><trkpt lat="42.359781" lon="14.0748448"><ele>126.0</ele><time>2026-05-02T07:08:58.147Z</time></trkpt><trkpt lat="42.3598944" lon="14.074766"><ele>127.0</ele><time>2026-05-02T07:08:59.145Z</time></trkpt><trkpt lat="42.3600051" lon="14.0746877"><ele>128.0</ele><time>2026-05-02T07:09:00.147Z</time></trkpt><trkpt lat="42.3601102" lon="14.0746106"><ele>128.0</ele><time>2026-05-02T07:09:01.146Z</time></trkpt><trkpt lat="42.3602116" lon="14.0745378"><ele>128.0</ele><time>2026-05-02T07:09:02.145Z</time></trkpt><trkpt lat="42.3603241" lon="14.0744642"><ele>128.0</ele><time>2026-05-02T07:09:03.145Z</time></trkpt><trkpt lat="42.3604407" lon="14.0743898"><ele>128.0</ele><time>2026-05-02T07:09:04.146Z</time></trkpt><trkpt lat="42.3605556" lon="14.0743161"><ele>128.75</ele><time>2026-05-02T07:09:05.147Z</time></trkpt><trkpt lat="42.3606711" lon="14.0742385"><ele>129.5</ele><time>2026-05-02T07:09:06.145Z</time></trkpt><trkpt lat="42.3607851" lon="14.0741594"><ele>130.25</ele><time>2026-05-02T07:09:07.145Z</time></trkpt><trkpt lat="42.3608886" lon="14.0740874"><ele>131.0</ele><time>2026-05-02T07:09:08.147Z</time></trkpt><trkpt lat="42.3609874" lon="14.0740213"><ele>131.6</ele><time>2026-05-02T07:09:09.145Z</time></trkpt><trkpt lat="42.3610771" lon="14.0739601"><ele>132.2</ele><time>2026-05-02T07:09:10.145Z</time></trkpt><trkpt lat="42.3611637" lon="14.073899"><ele>132.8</ele><time>2026-05-02T07:09:11.146Z</time></trkpt><trkpt lat="42.3612646" lon="14.0738296"><ele>133.4</ele><time>2026-05-02T07:09:12.146Z</time></trkpt><trkpt lat="42.3613686" lon="14.0737482"><ele>134.0</ele><time>2026-05-02T07:09:13.145Z</time></trkpt><trkpt lat="42.3614582" lon="14.0736737"><ele>134.5</ele><time>2026-05-02T07:09:14.145Z</time></trkpt><trkpt lat="42.3615364" lon="14.0736143"><ele>135.0</ele><time>2026-05-02T07:09:15.145Z</time></trkpt><trkpt lat="42.3615974" lon="14.0735741"><ele>135.5</ele><time>2026-05-02T07:09:16.145Z</time></trkpt><trkpt lat="42.3616865" lon="14.0735223"><ele>136.0</ele><time>2026-05-02T07:09:18.146Z</time></trkpt><trkpt lat="42.3617457" lon="14.0734651"><ele>136.5</ele><time>2026-05-02T07:09:21.145Z</time></trkpt><trkpt lat="42.3617274" lon="14.0733533"><ele>137.0</ele><time>2026-05-02T07:09:23.145Z</time></trkpt><trkpt lat="42.3616432" lon="14.0732243"><ele>137.0</ele><time>2026-05-02T07:09:25.146Z</time></trkpt><trkpt lat="42.3615805" lon="14.0731312"><ele>137.0</ele><time>2026-05-02T07:09:26.145Z</time></trkpt><trkpt lat="42.3615107" lon="14.0730264"><ele>137.0</ele><time>2026-05-02T07:09:27.146Z</time></trkpt><trkpt lat="42.361434" lon="14.0729104"><ele>137.0</ele><time>2026-05-02T07:09:28.146Z</time></trkpt><trkpt lat="42.3613494" lon="14.0727863"><ele>137.0</ele><time>2026-05-02T07:09:29.145Z</time></trkpt><trkpt lat="42.3612532" lon="14.0726511"><ele>135.66666666666666</ele><time>2026-05-02T07:09:30.145Z</time></trkpt><trkpt lat="42.3611524" lon="14.0725013"><ele>134.33333333333334</ele><time>2026-05-02T07:09:31.146Z</time></trkpt><trkpt lat="42.3610438" lon="14.0723431"><ele>133.0</ele><time>2026-05-02T07:09:32.146Z</time></trkpt><trkpt lat="42.3609366" lon="14.072181"><ele>133.0</ele><time>2026-05-02T07:09:33.147Z</time></trkpt><trkpt lat="42.3608408" lon="14.0720253"><ele>133.0</ele><time>2026-05-02T07:09:34.145Z</time></trkpt><trkpt lat="42.3607605" lon="14.0718791"><ele>133.0</ele><time>2026-05-02T07:09:35.146Z</time></trkpt><trkpt lat="42.3606944" lon="14.0717317"><ele>133.0</ele><time>2026-05-02T07:09:36.145Z</time></trkpt><trkpt lat="42.3606411" lon="14.0715768"><ele>133.0</ele><time>2026-05-02T07:09:37.146Z</time></trkpt><trkpt lat="42.3605983" lon="14.0714291"><ele>133.0</ele><time>2026-05-02T07:09:38.146Z</time></trkpt><trkpt lat="42.3605612" lon="14.0712806"><ele>133.0</ele><time>2026-05-02T07:09:39.145Z</time></trkpt><trkpt lat="42.3605248" lon="14.0711128"><ele>133.0</ele><time>2026-05-02T07:09:40.146Z</time></trkpt><trkpt lat="42.3604871" lon="14.0709361"><ele>133.66666666666669</ele><time>2026-05-02T07:09:41.146Z</time></trkpt><trkpt lat="42.3604423" lon="14.0707521"><ele>134.33333333333334</ele><time>2026-05-02T07:09:42.146Z</time></trkpt><trkpt lat="42.3603942" lon="14.0705514"><ele>135.0</ele><time>2026-05-02T07:09:43.146Z</time></trkpt><trkpt lat="42.3603508" lon="14.070336"><ele>135.0</ele><time>2026-05-02T07:09:44.145Z</time></trkpt><trkpt lat="42.3603121" lon="14.0701317"><ele>135.0</ele><time>2026-05-02T07:09:45.145Z</time></trkpt><trkpt lat="42.3602757" lon="14.0699451"><ele>135.0</ele><time>2026-05-02T07:09:46.146Z</time></trkpt><trkpt lat="42.3602462" lon="14.0697561"><ele>135.0</ele><time>2026-05-02T07:09:47.147Z</time></trkpt><trkpt lat="42.3602256" lon="14.0695722"><ele>135.75</ele><time>2026-05-02T07:09:48.146Z</time></trkpt><trkpt lat="42.3602123" lon="14.0693882"><ele>136.5</ele><time>2026-05-02T07:09:49.146Z</time></trkpt><trkpt lat="42.3602137" lon="14.0692039"><ele>137.25</ele><time>2026-05-02T07:09:50.146Z</time></trkpt><trkpt lat="42.3602372" lon="14.0690185"><ele>138.0</ele><time>2026-05-02T07:09:51.147Z</time></trkpt><trkpt lat="42.360269" lon="14.0688567"><ele>138.33333333333334</ele><time>2026-05-02T07:09:52.147Z</time></trkpt><trkpt lat="42.3603052" lon="14.0687289"><ele>138.66666666666666</ele><time>2026-05-02T07:09:53.145Z</time></trkpt><trkpt lat="42.3603521" lon="14.0686194"><ele>139.0</ele><time>2026-05-02T07:09:54.145Z</time></trkpt><trkpt lat="42.3604019" lon="14.0685243"><ele>139.33333333333331</ele><time>2026-05-02T07:09:55.145Z</time></trkpt><trkpt lat="42.3604492" lon="14.0684485"><ele>139.66666666666666</ele><time>2026-05-02T07:09:56.146Z</time></trkpt><trkpt lat="42.3604928" lon="14.0683815"><ele>140.0</ele><time>2026-05-02T07:09:57.146Z</time></trkpt><trkpt lat="42.360576" lon="14.0682618"><ele>140.0</ele><time>2026-05-02T07:09:59.145Z</time></trkpt><trkpt lat="42.3606181" lon="14.0681858"><ele>140.0</ele><time>2026-05-02T07:10:00.146Z</time></trkpt><trkpt lat="42.3606539" lon="14.0680957"><ele>140.0</ele><time>2026-05-02T07:10:01.145Z</time></trkpt><trkpt lat="42.3606832" lon="14.0679864"><ele>140.0</ele><time>2026-05-02T07:10:02.145Z</time></trkpt><trkpt lat="42.3607059" lon="14.0678634"><ele>140.0</ele><time>2026-05-02T07:10:03.145Z</time></trkpt><trkpt lat="42.3607127" lon="14.0677475"><ele>140.0</ele><time>2026-05-02T07:10:04.146Z</time></trkpt><trkpt lat="42.360702" lon="14.0676411"><ele>140.0</ele><time>2026-05-02T07:10:05.146Z</time></trkpt><trkpt lat="42.3606732" lon="14.0675391"><ele>140.0</ele><time>2026-05-02T07:10:06.145Z</time></trkpt><trkpt lat="42.3606379" lon="14.0674396"><ele>140.0</ele><time>2026-05-02T07:10:07.146Z</time></trkpt><trkpt lat="42.3605905" lon="14.0673491"><ele>140.0</ele><time>2026-05-02T07:10:08.147Z</time></trkpt><trkpt lat="42.3605506" lon="14.0672643"><ele>140.0</ele><time>2026-05-02T07:10:09.145Z</time></trkpt><trkpt lat="42.3605105" lon="14.0671857"><ele>140.0</ele><time>2026-05-02T07:10:10.146Z</time></trkpt><trkpt lat="42.3604715" lon="14.0671111"><ele>138.2</ele><time>2026-05-02T07:10:11.146Z</time></trkpt><trkpt lat="42.3604125" lon="14.0669729"><ele>136.4</ele><time>2026-05-02T07:10:13.145Z</time></trkpt><trkpt lat="42.3603855" lon="14.0668323"><ele>134.6</ele><time>2026-05-02T07:10:15.146Z</time></trkpt><trkpt lat="42.3603577" lon="14.0667185"><ele>132.8</ele><time>2026-05-02T07:10:17.146Z</time></trkpt><trkpt lat="42.3602824" lon="14.0666375"><ele>131.0</ele><time>2026-05-02T07:10:19.145Z</time></trkpt><trkpt lat="42.3602086" lon="14.0665964"><ele>131.0</ele><time>2026-05-02T07:10:20.145Z</time></trkpt><trkpt lat="42.3601156" lon="14.0665463"><ele>131.0</ele><time>2026-05-02T07:10:21.145Z</time></trkpt><trkpt lat="42.3600152" lon="14.0664623"><ele>131.0</ele><time>2026-05-02T07:10:22.145Z</time></trkpt><trkpt lat="42.3599217" lon="14.0663456"><ele>131.0</ele><time>2026-05-02T07:10:23.145Z</time></trkpt><trkpt lat="42.3598321" lon="14.0662029"><ele>131.0</ele><time>2026-05-02T07:10:24.145Z</time></trkpt><trkpt lat="42.3597432" lon="14.0660407"><ele>131.0</ele><time>2026-05-02T07:10:25.146Z</time></trkpt><trkpt lat="42.3596553" lon="14.0658575"><ele>131.0</ele><time>2026-05-02T07:10:26.146Z</time></trkpt><trkpt lat="42.3595699" lon="14.065685"><ele>128.66666666666666</ele><time>2026-05-02T07:10:27.146Z</time></trkpt><trkpt lat="42.3594826" lon="14.0655217"><ele>126.33333333333334</ele><time>2026-05-02T07:10:28.147Z</time></trkpt><trkpt lat="42.3593812" lon="14.065367"><ele>124.0</ele><time>2026-05-02T07:10:29.145Z</time></trkpt><trkpt lat="42.3592597" lon="14.0652261"><ele>124.0</ele><time>2026-05-02T07:10:30.145Z</time></trkpt><trkpt lat="42.3591335" lon="14.0650983"><ele>124.0</ele><time>2026-05-02T07:10:31.145Z</time></trkpt><trkpt lat="42.359023" lon="14.0649603"><ele>124.0</ele><time>2026-05-02T07:10:32.146Z</time></trkpt><trkpt lat="42.358921" lon="14.0648044"><ele>123.0</ele><time>2026-05-02T07:10:33.145Z</time></trkpt><trkpt lat="42.3588219" lon="14.0646344"><ele>122.0</ele><time>2026-05-02T07:10:34.145Z</time></trkpt><trkpt lat="42.358735" lon="14.0644709"><ele>121.0</ele><time>2026-05-02T07:10:35.146Z</time></trkpt><trkpt lat="42.3586534" lon="14.0643223"><ele>120.0</ele><time>2026-05-02T07:10:36.146Z</time></trkpt><trkpt lat="42.3585678" lon="14.0641851"><ele>117.25</ele><time>2026-05-02T07:10:37.145Z</time></trkpt><trkpt lat="42.3584692" lon="14.0640765"><ele>114.5</ele><time>2026-05-02T07:10:38.145Z</time></trkpt><trkpt lat="42.3583567" lon="14.0640096"><ele>111.75</ele><time>2026-05-02T07:10:39.146Z</time></trkpt><trkpt lat="42.3582284" lon="14.0639774"><ele>109.0</ele><time>2026-05-02T07:10:40.145Z</time></trkpt><trkpt lat="42.3580902" lon="14.0639789"><ele>108.0</ele><time>2026-05-02T07:10:41.145Z</time></trkpt><trkpt lat="42.3579645" lon="14.063996"><ele>107.0</ele><time>2026-05-02T07:10:42.145Z</time></trkpt><trkpt lat="42.3578438" lon="14.0639972"><ele>106.0</ele><time>2026-05-02T07:10:43.146Z</time></trkpt><trkpt lat="42.3577221" lon="14.0639715"><ele>105.0</ele><time>2026-05-02T07:10:44.145Z</time></trkpt><trkpt lat="42.3576053" lon="14.0639036"><ele>105.0</ele><time>2026-05-02T07:10:45.145Z</time></trkpt><trkpt lat="42.3574781" lon="14.0638128"><ele>105.0</ele><time>2026-05-02T07:10:46.145Z</time></trkpt><trkpt lat="42.35733" lon="14.0637234"><ele>105.0</ele><time>2026-05-02T07:10:47.145Z</time></trkpt><trkpt lat="42.3571823" lon="14.0636537"><ele>103.75</ele><time>2026-05-02T07:10:48.146Z</time></trkpt><trkpt lat="42.3570405" lon="14.0636005"><ele>102.5</ele><time>2026-05-02T07:10:49.145Z</time></trkpt><trkpt lat="42.3568983" lon="14.0635703"><ele>101.25</ele><time>2026-05-02T07:10:50.146Z</time></trkpt><trkpt lat="42.3567514" lon="14.0635586"><ele>100.0</ele><time>2026-05-02T07:10:51.145Z</time></trkpt><trkpt lat="42.356604" lon="14.0636028"><ele>100.0</ele><time>2026-05-02T07:10:52.146Z</time></trkpt><trkpt lat="42.3564541" lon="14.0636554"><ele>100.0</ele><time>2026-05-02T07:10:53.146Z</time></trkpt><trkpt lat="42.3563251" lon="14.0637231"><ele>100.0</ele><time>2026-05-02T07:10:54.147Z</time></trkpt><trkpt lat="42.356207" lon="14.0637961"><ele>100.0</ele><time>2026-05-02T07:10:55.145Z</time></trkpt><trkpt lat="42.3560952" lon="14.0638432"><ele>98.0</ele><time>2026-05-02T07:10:56.146Z</time></trkpt><trkpt lat="42.3559786" lon="14.0638632"><ele>96.0</ele><time>2026-05-02T07:10:57.145Z</time></trkpt><trkpt lat="42.3558639" lon="14.0638439"><ele>94.0</ele><time>2026-05-02T07:10:58.146Z</time></trkpt><trkpt lat="42.3557656" lon="14.0637751"><ele>92.0</ele><time>2026-05-02T07:10:59.145Z</time></trkpt><trkpt lat="42.3556842" lon="14.0636603"><ele>92.0</ele><time>2026-05-02T07:11:00.145Z</time></trkpt><trkpt lat="42.3556214" lon="14.0635136"><ele>92.0</ele><time>2026-05-02T07:11:01.145Z</time></trkpt><trkpt lat="42.3555686" lon="14.0633319"><ele>92.0</ele><time>2026-05-02T07:11:02.146Z</time></trkpt><trkpt lat="42.3555122" lon="14.0631367"><ele>92.0</ele><time>2026-05-02T07:11:03.145Z</time></trkpt><trkpt lat="42.355442" lon="14.0629482"><ele>91.33333333333334</ele><time>2026-05-02T07:11:04.145Z</time></trkpt><trkpt lat="42.3553535" lon="14.0627556"><ele>90.66666666666667</ele><time>2026-05-02T07:11:05.146Z</time></trkpt><trkpt lat="42.3552487" lon="14.0625662"><ele>90.0</ele><time>2026-05-02T07:11:06.145Z</time></trkpt><trkpt lat="42.3551279" lon="14.0623728"><ele>90.0</ele><time>2026-05-02T07:11:07.146Z</time></trkpt><trkpt lat="42.3550079" lon="14.0621876"><ele>90.0</ele><time>2026-05-02T07:11:08.146Z</time></trkpt><trkpt lat="42.3548845" lon="14.0620035"><ele>90.0</ele><time>2026-05-02T07:11:09.146Z</time></trkpt><trkpt lat="42.3547738" lon="14.0618367"><ele>89.0</ele><time>2026-05-02T07:11:10.146Z</time></trkpt><trkpt lat="42.3546724" lon="14.0616727"><ele>88.0</ele><time>2026-05-02T07:11:11.145Z</time></trkpt><trkpt lat="42.3545796" lon="14.0615103"><ele>87.0</ele><time>2026-05-02T07:11:12.146Z</time></trkpt><trkpt lat="42.354483" lon="14.0613447"><ele>89.33333333333333</ele><time>2026-05-02T07:11:13.145Z</time></trkpt><trkpt lat="42.3543815" lon="14.0611701"><ele>91.66666666666666</ele><time>2026-05-02T07:11:14.146Z</time></trkpt><trkpt lat="42.3542795" lon="14.0609928"><ele>94.0</ele><time>2026-05-02T07:11:15.145Z</time></trkpt><trkpt lat="42.3541724" lon="14.0608093"><ele>93.33333333333333</ele><time>2026-05-02T07:11:16.146Z</time></trkpt><trkpt lat="42.3540658" lon="14.0606246"><ele>92.66666666666667</ele><time>2026-05-02T07:11:17.145Z</time></trkpt><trkpt lat="42.3539536" lon="14.0604342"><ele>92.0</ele><time>2026-05-02T07:11:18.145Z</time></trkpt><trkpt lat="42.3538385" lon="14.06024"><ele>92.0</ele><time>2026-05-02T07:11:19.145Z</time></trkpt><trkpt lat="42.3537265" lon="14.060042"><ele>92.0</ele><time>2026-05-02T07:11:20.145Z</time></trkpt><trkpt lat="42.3536246" lon="14.059847"><ele>92.0</ele><time>2026-05-02T07:11:21.146Z</time></trkpt><trkpt lat="42.3535453" lon="14.0596478"><ele>92.33333333333334</ele><time>2026-05-02T07:11:22.146Z</time></trkpt><trkpt lat="42.3534883" lon="14.059438"><ele>92.66666666666667</ele><time>2026-05-02T07:11:23.146Z</time></trkpt><trkpt lat="42.353454" lon="14.0592036"><ele>93.0</ele><time>2026-05-02T07:11:24.145Z</time></trkpt><trkpt lat="42.3534289" lon="14.0589587"><ele>93.0</ele><time>2026-05-02T07:11:25.146Z</time></trkpt><trkpt lat="42.3534012" lon="14.0587009"><ele>93.0</ele><time>2026-05-02T07:11:26.145Z</time></trkpt><trkpt lat="42.3533751" lon="14.0584309"><ele>93.0</ele><time>2026-05-02T07:11:27.146Z</time></trkpt><trkpt lat="42.3533476" lon="14.058146"><ele>92.66666666666667</ele><time>2026-05-02T07:11:28.145Z</time></trkpt><trkpt lat="42.3533175" lon="14.0578614"><ele>92.33333333333334</ele><time>2026-05-02T07:11:29.146Z</time></trkpt><trkpt lat="42.3532897" lon="14.0575847"><ele>92.0</ele><time>2026-05-02T07:11:30.145Z</time></trkpt><trkpt lat="42.353255" lon="14.0573124"><ele>91.33333333333334</ele><time>2026-05-02T07:11:31.145Z</time></trkpt><trkpt lat="42.353226" lon="14.057035"><ele>90.66666666666667</ele><time>2026-05-02T07:11:32.145Z</time></trkpt><trkpt lat="42.3531993" lon="14.0567483"><ele>90.0</ele><time>2026-05-02T07:11:33.146Z</time></trkpt><trkpt lat="42.3531714" lon="14.0564873"><ele>89.66666666666667</ele><time>2026-05-02T07:11:34.147Z</time></trkpt><trkpt lat="42.3531476" lon="14.0562218"><ele>89.33333333333334</ele><time>2026-05-02T07:11:35.147Z</time></trkpt><trkpt lat="42.3531254" lon="14.0559347"><ele>89.0</ele><time>2026-05-02T07:11:36.147Z</time></trkpt><trkpt lat="42.3530951" lon="14.0556805"><ele>89.66666666666667</ele><time>2026-05-02T07:11:37.146Z</time></trkpt><trkpt lat="42.3530643" lon="14.0554197"><ele>90.33333333333333</ele><time>2026-05-02T07:11:38.146Z</time></trkpt><trkpt lat="42.3530398" lon="14.0551634"><ele>91.0</ele><time>2026-05-02T07:11:39.146Z</time></trkpt><trkpt lat="42.3530333" lon="14.0549303"><ele>91.33333333333333</ele><time>2026-05-02T07:11:40.146Z</time></trkpt><trkpt lat="42.3530365" lon="14.0546812"><ele>91.66666666666667</ele><time>2026-05-02T07:11:41.146Z</time></trkpt><trkpt lat="42.3530592" lon="14.0544393"><ele>92.0</ele><time>2026-05-02T07:11:42.146Z</time></trkpt><trkpt lat="42.3530989" lon="14.0541916"><ele>95.33333333333334</ele><time>2026-05-02T07:11:43.145Z</time></trkpt><trkpt lat="42.3531456" lon="14.0539557"><ele>98.66666666666667</ele><time>2026-05-02T07:11:44.146Z</time></trkpt><trkpt lat="42.3531787" lon="14.0537359"><ele>102.0</ele><time>2026-05-02T07:11:45.147Z</time></trkpt><trkpt lat="42.3531744" lon="14.0535331"><ele>102.0</ele><time>2026-05-02T07:11:46.147Z</time></trkpt><trkpt lat="42.3531376" lon="14.0533414"><ele>102.0</ele><time>2026-05-02T07:11:47.146Z</time></trkpt><trkpt lat="42.3530708" lon="14.0531608"><ele>102.0</ele><time>2026-05-02T07:11:48.146Z</time></trkpt><trkpt lat="42.3529922" lon="14.0529973"><ele>102.0</ele><time>2026-05-02T07:11:49.145Z</time></trkpt><trkpt lat="42.3529324" lon="14.052826"><ele>102.0</ele><time>2026-05-02T07:11:50.145Z</time></trkpt><trkpt lat="42.3528958" lon="14.052633"><ele>102.0</ele><time>2026-05-02T07:11:51.145Z</time></trkpt><trkpt lat="42.3528866" lon="14.052431"><ele>102.0</ele><time>2026-05-02T07:11:52.145Z</time></trkpt><trkpt lat="42.3529022" lon="14.0522329"><ele>102.0</ele><time>2026-05-02T07:11:53.146Z</time></trkpt><trkpt lat="42.3529473" lon="14.0520417"><ele>103.66666666666666</ele><time>2026-05-02T07:11:54.146Z</time></trkpt><trkpt lat="42.3529973" lon="14.0518525"><ele>105.33333333333333</ele><time>2026-05-02T07:11:55.146Z</time></trkpt><trkpt lat="42.3530424" lon="14.0516577"><ele>107.0</ele><time>2026-05-02T07:11:56.146Z</time></trkpt><trkpt lat="42.3530749" lon="14.0514431"><ele>108.33333333333333</ele><time>2026-05-02T07:11:57.145Z</time></trkpt><trkpt lat="42.3530928" lon="14.051215"><ele>109.66666666666666</ele><time>2026-05-02T07:11:58.145Z</time></trkpt><trkpt lat="42.3531116" lon="14.0509785"><ele>111.0</ele><time>2026-05-02T07:11:59.145Z</time></trkpt><trkpt lat="42.3531434" lon="14.0507473"><ele>111.66666666666666</ele><time>2026-05-02T07:12:00.145Z</time></trkpt><trkpt lat="42.3531831" lon="14.0505129"><ele>112.33333333333333</ele><time>2026-05-02T07:12:01.146Z</time></trkpt><trkpt lat="42.3532186" lon="14.0502746"><ele>113.0</ele><time>2026-05-02T07:12:02.145Z</time></trkpt><trkpt lat="42.3532207" lon="14.0500415"><ele>114.66666666666666</ele><time>2026-05-02T07:12:03.145Z</time></trkpt><trkpt lat="42.3532008" lon="14.0498001"><ele>116.33333333333334</ele><time>2026-05-02T07:12:04.145Z</time></trkpt><trkpt lat="42.3531595" lon="14.0495711"><ele>118.0</ele><time>2026-05-02T07:12:05.146Z</time></trkpt><trkpt lat="42.3531114" lon="14.0493492"><ele>118.33333333333334</ele><time>2026-05-02T07:12:06.145Z</time></trkpt><trkpt lat="42.3531164" lon="14.0491098"><ele>118.66666666666666</ele><time>2026-05-02T07:12:07.146Z</time></trkpt><trkpt lat="42.3531105" lon="14.0488858"><ele>119.0</ele><time>2026-05-02T07:12:08.146Z</time></trkpt><trkpt lat="42.3530939" lon="14.0486707"><ele>119.0</ele><time>2026-05-02T07:12:09.146Z</time></trkpt><trkpt lat="42.3530559" lon="14.0484524"><ele>119.0</ele><time>2026-05-02T07:12:10.145Z</time></trkpt><trkpt lat="42.3530049" lon="14.0482843"><ele>119.0</ele><time>2026-05-02T07:12:11.146Z</time></trkpt><trkpt lat="42.3529595" lon="14.048088"><ele>119.0</ele><time>2026-05-02T07:12:12.145Z</time></trkpt><trkpt lat="42.3529736" lon="14.0479365"><ele>119.0</ele><time>2026-05-02T07:12:13.145Z</time></trkpt><trkpt lat="42.3529694" lon="14.0477501"><ele>119.0</ele><time>2026-05-02T07:12:14.145Z</time></trkpt><trkpt lat="42.3530633" lon="14.0476129"><ele>119.0</ele><time>2026-05-02T07:12:15.147Z</time></trkpt><trkpt lat="42.3531115" lon="14.0474706"><ele>119.0</ele><time>2026-05-02T07:12:16.146Z</time></trkpt><trkpt lat="42.3532389" lon="14.047258"><ele>119.0</ele><time>2026-05-02T07:12:17.146Z</time></trkpt><trkpt lat="42.3533214" lon="14.0470537"><ele>119.0</ele><time>2026-05-02T07:12:18.147Z</time></trkpt><trkpt lat="42.3534168" lon="14.046841"><ele>118.0</ele><time>2026-05-02T07:12:19.145Z</time></trkpt><trkpt lat="42.3534725" lon="14.0465695"><ele>117.0</ele><time>2026-05-02T07:12:20.145Z</time></trkpt><trkpt lat="42.3535351" lon="14.0463253"><ele>116.0</ele><time>2026-05-02T07:12:21.146Z</time></trkpt><trkpt lat="42.353581" lon="14.0460692"><ele>116.0</ele><time>2026-05-02T07:12:22.145Z</time></trkpt><trkpt lat="42.353612" lon="14.0458195"><ele>116.0</ele><time>2026-05-02T07:12:23.145Z</time></trkpt><trkpt lat="42.3536333" lon="14.0455775"><ele>116.0</ele><time>2026-05-02T07:12:24.145Z</time></trkpt><trkpt lat="42.3536435" lon="14.0453448"><ele>117.33333333333333</ele><time>2026-05-02T07:12:25.146Z</time></trkpt><trkpt lat="42.3536379" lon="14.0451106"><ele>118.66666666666666</ele><time>2026-05-02T07:12:26.145Z</time></trkpt><trkpt lat="42.3536241" lon="14.0448729"><ele>120.0</ele><time>2026-05-02T07:12:27.146Z</time></trkpt><trkpt lat="42.3536054" lon="14.0446371"><ele>121.66666666666666</ele><time>2026-05-02T07:12:28.145Z</time></trkpt><trkpt lat="42.3536076" lon="14.0444028"><ele>123.33333333333333</ele><time>2026-05-02T07:12:29.145Z</time></trkpt><trkpt lat="42.3536349" lon="14.0441751"><ele>125.0</ele><time>2026-05-02T07:12:30.146Z</time></trkpt><trkpt lat="42.3536837" lon="14.0439441"><ele>126.33333333333333</ele><time>2026-05-02T07:12:31.146Z</time></trkpt><trkpt lat="42.3537429" lon="14.0437081"><ele>127.66666666666666</ele><time>2026-05-02T07:12:32.146Z</time></trkpt><trkpt lat="42.353808" lon="14.0434678"><ele>129.0</ele><time>2026-05-02T07:12:33.147Z</time></trkpt><trkpt lat="42.3538841" lon="14.0432173"><ele>130.0</ele><time>2026-05-02T07:12:34.146Z</time></trkpt><trkpt lat="42.3539311" lon="14.04296"><ele>131.0</ele><time>2026-05-02T07:12:35.146Z</time></trkpt><trkpt lat="42.353985" lon="14.0427053"><ele>132.0</ele><time>2026-05-02T07:12:36.146Z</time></trkpt><trkpt lat="42.354029" lon="14.0424506"><ele>132.0</ele><time>2026-05-02T07:12:37.146Z</time></trkpt><trkpt lat="42.3540664" lon="14.0422067"><ele>132.0</ele><time>2026-05-02T07:12:38.146Z</time></trkpt><trkpt lat="42.3541043" lon="14.0419661"><ele>132.0</ele><time>2026-05-02T07:12:39.145Z</time></trkpt><trkpt lat="42.354143" lon="14.0417277"><ele>133.0</ele><time>2026-05-02T07:12:40.146Z</time></trkpt><trkpt lat="42.3541821" lon="14.0414885"><ele>134.0</ele><time>2026-05-02T07:12:41.145Z</time></trkpt><trkpt lat="42.3542169" lon="14.0412909"><ele>135.0</ele><time>2026-05-02T07:12:42.145Z</time></trkpt><trkpt lat="42.3542476" lon="14.0410955"><ele>135.0</ele><time>2026-05-02T07:12:43.145Z</time></trkpt><trkpt lat="42.354278" lon="14.0409045"><ele>135.0</ele><time>2026-05-02T07:12:44.145Z</time></trkpt><trkpt lat="42.3543136" lon="14.0407018"><ele>135.0</ele><time>2026-05-02T07:12:45.145Z</time></trkpt><trkpt lat="42.3543512" lon="14.0404907"><ele>136.25</ele><time>2026-05-02T07:12:46.145Z</time></trkpt><trkpt lat="42.3543848" lon="14.0402984"><ele>137.5</ele><time>2026-05-02T07:12:47.146Z</time></trkpt><trkpt lat="42.3544144" lon="14.0401234"><ele>138.75</ele><time>2026-05-02T07:12:48.145Z</time></trkpt><trkpt lat="42.3544411" lon="14.0399556"><ele>140.0</ele><time>2026-05-02T07:12:49.145Z</time></trkpt><trkpt lat="42.3544663" lon="14.0398044"><ele>140.2</ele><time>2026-05-02T07:12:50.146Z</time></trkpt><trkpt lat="42.3544909" lon="14.0396631"><ele>140.4</ele><time>2026-05-02T07:12:51.146Z</time></trkpt><trkpt lat="42.3545108" lon="14.039526"><ele>140.6</ele><time>2026-05-02T07:12:52.145Z</time></trkpt><trkpt lat="42.3545306" lon="14.0393929"><ele>140.8</ele><time>2026-05-02T07:12:53.147Z</time></trkpt><trkpt lat="42.3545524" lon="14.0392526"><ele>141.0</ele><time>2026-05-02T07:12:54.146Z</time></trkpt><trkpt lat="42.354571" lon="14.0391179"><ele>140.25</ele><time>2026-05-02T07:12:55.146Z</time></trkpt><trkpt lat="42.3545907" lon="14.0389685"><ele>139.5</ele><time>2026-05-02T07:12:56.146Z</time></trkpt><trkpt lat="42.3546207" lon="14.0387991"><ele>138.75</ele><time>2026-05-02T07:12:57.145Z</time></trkpt><trkpt lat="42.3546495" lon="14.0386146"><ele>138.0</ele><time>2026-05-02T07:12:58.146Z</time></trkpt><trkpt lat="42.3546803" lon="14.0384189"><ele>136.0</ele><time>2026-05-02T07:12:59.145Z</time></trkpt><trkpt lat="42.3547133" lon="14.0382098"><ele>134.0</ele><time>2026-05-02T07:13:00.145Z</time></trkpt><trkpt lat="42.3547489" lon="14.0379943"><ele>132.0</ele><time>2026-05-02T07:13:01.145Z</time></trkpt><trkpt lat="42.3547826" lon="14.0377808"><ele>132.0</ele><time>2026-05-02T07:13:02.145Z</time></trkpt><trkpt lat="42.3548129" lon="14.0375812"><ele>132.0</ele><time>2026-05-02T07:13:03.145Z</time></trkpt><trkpt lat="42.3548404" lon="14.0373929"><ele>132.0</ele><time>2026-05-02T07:13:04.145Z</time></trkpt><trkpt lat="42.3548617" lon="14.0372108"><ele>132.0</ele><time>2026-05-02T07:13:05.146Z</time></trkpt><trkpt lat="42.354877" lon="14.037035"><ele>132.25</ele><time>2026-05-02T07:13:06.145Z</time></trkpt><trkpt lat="42.3548908" lon="14.036857"><ele>132.5</ele><time>2026-05-02T07:13:07.145Z</time></trkpt><trkpt lat="42.3548926" lon="14.0366584"><ele>132.75</ele><time>2026-05-02T07:13:08.145Z</time></trkpt><trkpt lat="42.3548946" lon="14.0364699"><ele>133.0</ele><time>2026-05-02T07:13:09.146Z</time></trkpt><trkpt lat="42.3548892" lon="14.03623"><ele>133.33333333333334</ele><time>2026-05-02T07:13:10.145Z</time></trkpt><trkpt lat="42.3548853" lon="14.0360022"><ele>133.66666666666666</ele><time>2026-05-02T07:13:11.145Z</time></trkpt><trkpt lat="42.354883" lon="14.0357755"><ele>134.0</ele><time>2026-05-02T07:13:12.145Z</time></trkpt><trkpt lat="42.3548789" lon="14.0355057"><ele>135.0</ele><time>2026-05-02T07:13:13.146Z</time></trkpt><trkpt lat="42.3548728" lon="14.035254"><ele>136.0</ele><time>2026-05-02T07:13:14.147Z</time></trkpt><trkpt lat="42.3548635" lon="14.0349769"><ele>137.0</ele><time>2026-05-02T07:13:15.146Z</time></trkpt><trkpt lat="42.3548591" lon="14.0346941"><ele>137.33333333333331</ele><time>2026-05-02T07:13:16.145Z</time></trkpt><trkpt lat="42.3548625" lon="14.0344128"><ele>137.66666666666666</ele><time>2026-05-02T07:13:17.145Z</time></trkpt><trkpt lat="42.3548652" lon="14.0341303"><ele>138.0</ele><time>2026-05-02T07:13:18.145Z</time></trkpt><trkpt lat="42.3548649" lon="14.0338654"><ele>138.0</ele><time>2026-05-02T07:13:19.146Z</time></trkpt><trkpt lat="42.3548632" lon="14.0336083"><ele>138.0</ele><time>2026-05-02T07:13:20.145Z</time></trkpt><trkpt lat="42.3548623" lon="14.0333473"><ele>138.0</ele><time>2026-05-02T07:13:21.146Z</time></trkpt><trkpt lat="42.3548577" lon="14.0330948"><ele>138.33333333333334</ele><time>2026-05-02T07:13:22.147Z</time></trkpt><trkpt lat="42.3548611" lon="14.032844"><ele>138.66666666666669</ele><time>2026-05-02T07:13:23.145Z</time></trkpt><trkpt lat="42.3548577" lon="14.0325912"><ele>139.0</ele><time>2026-05-02T07:13:24.145Z</time></trkpt><trkpt lat="42.3548556" lon="14.0323464"><ele>139.0</ele><time>2026-05-02T07:13:25.146Z</time></trkpt><trkpt lat="42.354851" lon="14.0321074"><ele>139.0</ele><time>2026-05-02T07:13:26.146Z</time></trkpt><trkpt lat="42.3548488" lon="14.0318611"><ele>139.0</ele><time>2026-05-02T07:13:27.146Z</time></trkpt><trkpt lat="42.3548466" lon="14.0316138"><ele>139.0</ele><time>2026-05-02T07:13:28.146Z</time></trkpt><trkpt lat="42.3548431" lon="14.0313682"><ele>139.0</ele><time>2026-05-02T07:13:29.145Z</time></trkpt><trkpt lat="42.3548388" lon="14.0311213"><ele>139.0</ele><time>2026-05-02T07:13:30.145Z</time></trkpt><trkpt lat="42.3548335" lon="14.0308777"><ele>139.66666666666669</ele><time>2026-05-02T07:13:31.145Z</time></trkpt><trkpt lat="42.35483" lon="14.0306324"><ele>140.33333333333334</ele><time>2026-05-02T07:13:32.146Z</time></trkpt><trkpt lat="42.3548296" lon="14.0303888"><ele>141.0</ele><time>2026-05-02T07:13:33.145Z</time></trkpt><trkpt lat="42.3548263" lon="14.0301431"><ele>142.33333333333334</ele><time>2026-05-02T07:13:34.145Z</time></trkpt><trkpt lat="42.3548246" lon="14.029892"><ele>143.66666666666669</ele><time>2026-05-02T07:13:35.146Z</time></trkpt><trkpt lat="42.3548224" lon="14.0296395"><ele>145.0</ele><time>2026-05-02T07:13:36.145Z</time></trkpt><trkpt lat="42.3548172" lon="14.0293862"><ele>144.66666666666669</ele><time>2026-05-02T07:13:37.147Z</time></trkpt><trkpt lat="42.3548145" lon="14.0291279"><ele>144.33333333333334</ele><time>2026-05-02T07:13:38.146Z</time></trkpt><trkpt lat="42.3548135" lon="14.0288725"><ele>144.0</ele><time>2026-05-02T07:13:39.145Z</time></trkpt><trkpt lat="42.3548103" lon="14.0286112"><ele>144.0</ele><time>2026-05-02T07:13:40.145Z</time></trkpt><trkpt lat="42.3548053" lon="14.0283593"><ele>144.0</ele><time>2026-05-02T07:13:41.145Z</time></trkpt><trkpt lat="42.3548015" lon="14.0281124"><ele>144.0</ele><time>2026-05-02T07:13:42.145Z</time></trkpt><trkpt lat="42.3547989" lon="14.0278631"><ele>144.33333333333334</ele><time>2026-05-02T07:13:43.145Z</time></trkpt><trkpt lat="42.3547961" lon="14.0276167"><ele>144.66666666666669</ele><time>2026-05-02T07:13:44.146Z</time></trkpt><trkpt lat="42.3547943" lon="14.0273736"><ele>145.0</ele><time>2026-05-02T07:13:45.146Z</time></trkpt><trkpt lat="42.3547916" lon="14.0271276"><ele>145.66666666666669</ele><time>2026-05-02T07:13:46.146Z</time></trkpt><trkpt lat="42.3547886" lon="14.0268856"><ele>146.33333333333334</ele><time>2026-05-02T07:13:47.145Z</time></trkpt><trkpt lat="42.354789" lon="14.0266436"><ele>147.0</ele><time>2026-05-02T07:13:48.145Z</time></trkpt><trkpt lat="42.3547873" lon="14.0264049"><ele>147.0</ele><time>2026-05-02T07:13:49.146Z</time></trkpt><trkpt lat="42.3547862" lon="14.0261616"><ele>147.0</ele><time>2026-05-02T07:13:50.145Z</time></trkpt><trkpt lat="42.3547862" lon="14.0259144"><ele>147.0</ele><time>2026-05-02T07:13:51.145Z</time></trkpt><trkpt lat="42.3547836" lon="14.0256663"><ele>147.66666666666666</ele><time>2026-05-02T07:13:52.146Z</time></trkpt><trkpt lat="42.3547826" lon="14.0254195"><ele>148.33333333333331</ele><time>2026-05-02T07:13:53.146Z</time></trkpt><trkpt lat="42.3547893" lon="14.0251703"><ele>149.0</ele><time>2026-05-02T07:13:54.146Z</time></trkpt><trkpt lat="42.3547936" lon="14.0249184"><ele>149.33333333333331</ele><time>2026-05-02T07:13:55.147Z</time></trkpt><trkpt lat="42.3548127" lon="14.024698"><ele>149.66666666666666</ele><time>2026-05-02T07:13:56.145Z</time></trkpt><trkpt lat="42.3548274" lon="14.0244874"><ele>150.0</ele><time>2026-05-02T07:13:57.147Z</time></trkpt><trkpt lat="42.3548396" lon="14.0242961"><ele>150.4</ele><time>2026-05-02T07:13:58.146Z</time></trkpt><trkpt lat="42.3548519" lon="14.0241254"><ele>150.8</ele><time>2026-05-02T07:13:59.145Z</time></trkpt><trkpt lat="42.3548622" lon="14.0239796"><ele>151.2</ele><time>2026-05-02T07:14:00.145Z</time></trkpt><trkpt lat="42.3548719" lon="14.0238681"><ele>151.6</ele><time>2026-05-02T07:14:01.145Z</time></trkpt><trkpt lat="42.354885" lon="14.0237327"><ele>152.0</ele><time>2026-05-02T07:14:03.146Z</time></trkpt><trkpt lat="42.354891" lon="14.0236454"><ele>152.0</ele><time>2026-05-02T07:14:06.146Z</time></trkpt><trkpt lat="42.3548324" lon="14.0235835"><ele>152.0</ele><time>2026-05-02T07:14:10.145Z</time></trkpt><trkpt lat="42.3547581" lon="14.023689"><ele>152.0</ele><time>2026-05-02T07:14:12.146Z</time></trkpt><trkpt lat="42.3547097" lon="14.0237458"><ele>152.0</ele><time>2026-05-02T07:14:13.146Z</time></trkpt><trkpt lat="42.3546346" lon="14.023828"><ele>152.0</ele><time>2026-05-02T07:14:14.147Z</time></trkpt><trkpt lat="42.3545476" lon="14.0239145"><ele>152.5</ele><time>2026-05-02T07:14:15.146Z</time></trkpt><trkpt lat="42.3544557" lon="14.024019"><ele>153.0</ele><time>2026-05-02T07:14:16.146Z</time></trkpt><trkpt lat="42.3543637" lon="14.0241057"><ele>153.5</ele><time>2026-05-02T07:14:17.145Z</time></trkpt><trkpt lat="42.3542742" lon="14.0242289"><ele>154.0</ele><time>2026-05-02T07:14:18.146Z</time></trkpt><trkpt lat="42.3541894" lon="14.0243455"><ele>154.0</ele><time>2026-05-02T07:14:19.145Z</time></trkpt><trkpt lat="42.354119" lon="14.0244112"><ele>154.0</ele><time>2026-05-02T07:14:20.147Z</time></trkpt><trkpt lat="42.3540568" lon="14.0244914"><ele>154.0</ele><time>2026-05-02T07:14:21.145Z</time></trkpt><trkpt lat="42.3539971" lon="14.0245537"><ele>154.0</ele><time>2026-05-02T07:14:22.146Z</time></trkpt><trkpt lat="42.3539354" lon="14.024608"><ele>154.0</ele><time>2026-05-02T07:14:24.146Z</time></trkpt><trkpt lat="42.353993" lon="14.0245503"><ele>154.0</ele><time>2026-05-02T07:14:32.146Z</time></trkpt><trkpt lat="42.354046" lon="14.0244851"><ele>154.0</ele><time>2026-05-02T07:14:33.146Z</time></trkpt><trkpt lat="42.3540957" lon="14.0243885"><ele>154.0</ele><time>2026-05-02T07:14:35.146Z</time></trkpt><trkpt lat="42.3540012" lon="14.0242993"><ele>154.0</ele><time>2026-05-02T07:14:38.146Z</time></trkpt><trkpt lat="42.3539186" lon="14.0242473"><ele>154.0</ele><time>2026-05-02T07:14:39.146Z</time></trkpt><trkpt lat="42.3538305" lon="14.0241864"><ele>154.0</ele><time>2026-05-02T07:14:40.146Z</time></trkpt><trkpt lat="42.3537354" lon="14.0241328"><ele>155.0</ele><time>2026-05-02T07:14:41.145Z</time></trkpt><trkpt lat="42.3536474" lon="14.0240757"><ele>156.0</ele><time>2026-05-02T07:14:42.146Z</time></trkpt><trkpt lat="42.3535246" lon="14.0240928"><ele>157.0</ele><time>2026-05-02T07:14:43.145Z</time></trkpt><trkpt lat="42.3533978" lon="14.0240772"><ele>158.0</ele><time>2026-05-02T07:14:44.145Z</time></trkpt><trkpt lat="42.3532492" lon="14.0240512"><ele>158.0</ele><time>2026-05-02T07:14:45.147Z</time></trkpt><trkpt lat="42.353082" lon="14.0240191"><ele>158.0</ele><time>2026-05-02T07:14:46.146Z</time></trkpt><trkpt lat="42.3529045" lon="14.0239771"><ele>158.0</ele><time>2026-05-02T07:14:47.147Z</time></trkpt><trkpt lat="42.3527319" lon="14.0239462"><ele>160.0</ele><time>2026-05-02T07:14:48.145Z</time></trkpt><trkpt lat="42.3525756" lon="14.0239214"><ele>162.0</ele><time>2026-05-02T07:14:49.146Z</time></trkpt><trkpt lat="42.352445" lon="14.0238986"><ele>164.0</ele><time>2026-05-02T07:14:50.145Z</time></trkpt><trkpt lat="42.3523274" lon="14.0238826"><ele>166.0</ele><time>2026-05-02T07:14:51.145Z</time></trkpt><trkpt lat="42.3522081" lon="14.0238669"><ele>167.75</ele><time>2026-05-02T07:14:52.145Z</time></trkpt><trkpt lat="42.352098" lon="14.0238854"><ele>169.5</ele><time>2026-05-02T07:14:53.145Z</time></trkpt><trkpt lat="42.351979" lon="14.0239073"><ele>171.25</ele><time>2026-05-02T07:14:54.145Z</time></trkpt><trkpt lat="42.3518464" lon="14.0239598"><ele>173.0</ele><time>2026-05-02T07:14:55.146Z</time></trkpt><trkpt lat="42.3517237" lon="14.0239998"><ele>173.0</ele><time>2026-05-02T07:14:56.145Z</time></trkpt><trkpt lat="42.3516245" lon="14.0240441"><ele>173.0</ele><time>2026-05-02T07:14:57.146Z</time></trkpt><trkpt lat="42.35151" lon="14.0240723"><ele>173.0</ele><time>2026-05-02T07:14:58.146Z</time></trkpt><trkpt lat="42.3514209" lon="14.0240549"><ele>173.0</ele><time>2026-05-02T07:14:59.146Z</time></trkpt><trkpt lat="42.3513465" lon="14.0240222"><ele>173.0</ele><time>2026-05-02T07:15:00.145Z</time></trkpt><trkpt lat="42.351285" lon="14.0239649"><ele>174.60000000000002</ele><time>2026-05-02T07:15:01.147Z</time></trkpt><trkpt lat="42.3512324" lon="14.0238703"><ele>176.20000000000002</ele><time>2026-05-02T07:15:02.146Z</time></trkpt><trkpt lat="42.3511957" lon="14.0237469"><ele>177.8</ele><time>2026-05-02T07:15:03.146Z</time></trkpt><trkpt lat="42.3511484" lon="14.0235983"><ele>179.4</ele><time>2026-05-02T07:15:04.146Z</time></trkpt><trkpt lat="42.3510982" lon="14.0234438"><ele>181.0</ele><time>2026-05-02T07:15:05.147Z</time></trkpt><trkpt lat="42.3510464" lon="14.0233213"><ele>182.25</ele><time>2026-05-02T07:15:06.145Z</time></trkpt><trkpt lat="42.3509739" lon="14.0232068"><ele>183.5</ele><time>2026-05-02T07:15:07.145Z</time></trkpt><trkpt lat="42.3508785" lon="14.0230915"><ele>184.75</ele><time>2026-05-02T07:15:08.145Z</time></trkpt><trkpt lat="42.3507756" lon="14.0229575"><ele>186.0</ele><time>2026-05-02T07:15:09.145Z</time></trkpt><trkpt lat="42.3506683" lon="14.0228147"><ele>186.0</ele><time>2026-05-02T07:15:10.145Z</time></trkpt><trkpt lat="42.350577" lon="14.0226714"><ele>186.0</ele><time>2026-05-02T07:15:11.145Z</time></trkpt><trkpt lat="42.3504987" lon="14.0225445"><ele>186.0</ele><time>2026-05-02T07:15:12.147Z</time></trkpt><trkpt lat="42.3504253" lon="14.0224382"><ele>186.0</ele><time>2026-05-02T07:15:13.145Z</time></trkpt><trkpt lat="42.3503509" lon="14.0223467"><ele>186.5</ele><time>2026-05-02T07:15:14.146Z</time></trkpt><trkpt lat="42.3502741" lon="14.0222804"><ele>187.0</ele><time>2026-05-02T07:15:15.146Z</time></trkpt><trkpt lat="42.3501941" lon="14.022256"><ele>187.5</ele><time>2026-05-02T07:15:16.145Z</time></trkpt><trkpt lat="42.3501145" lon="14.0222471"><ele>188.0</ele><time>2026-05-02T07:15:17.145Z</time></trkpt><trkpt lat="42.3500507" lon="14.0223145"><ele>188.5</ele><time>2026-05-02T07:15:18.146Z</time></trkpt><trkpt lat="42.349973" lon="14.0224063"><ele>189.0</ele><time>2026-05-02T07:15:19.146Z</time></trkpt><trkpt lat="42.3498669" lon="14.0225015"><ele>189.0</ele><time>2026-05-02T07:15:20.146Z</time></trkpt><trkpt lat="42.3497438" lon="14.0226154"><ele>189.0</ele><time>2026-05-02T07:15:21.146Z</time></trkpt><trkpt lat="42.3496116" lon="14.0227365"><ele>189.0</ele><time>2026-05-02T07:15:22.145Z</time></trkpt><trkpt lat="42.3494725" lon="14.0228621"><ele>189.25</ele><time>2026-05-02T07:15:23.145Z</time></trkpt><trkpt lat="42.3493387" lon="14.0229844"><ele>189.5</ele><time>2026-05-02T07:15:24.145Z</time></trkpt><trkpt lat="42.3492214" lon="14.0230978"><ele>189.75</ele><time>2026-05-02T07:15:25.145Z</time></trkpt><trkpt lat="42.3491175" lon="14.0232041"><ele>190.0</ele><time>2026-05-02T07:15:26.146Z</time></trkpt><trkpt lat="42.3490289" lon="14.0232849"><ele>189.8</ele><time>2026-05-02T07:15:27.145Z</time></trkpt><trkpt lat="42.3489604" lon="14.0233258"><ele>189.6</ele><time>2026-05-02T07:15:28.145Z</time></trkpt><trkpt lat="42.3488502" lon="14.0233017"><ele>189.39999999999998</ele><time>2026-05-02T07:15:30.145Z</time></trkpt><trkpt lat="42.3487962" lon="14.0232092"><ele>189.2</ele><time>2026-05-02T07:15:31.147Z</time></trkpt><trkpt lat="42.3487302" lon="14.0230947"><ele>189.0</ele><time>2026-05-02T07:15:32.146Z</time></trkpt><trkpt lat="42.3486656" lon="14.0229661"><ele>190.5</ele><time>2026-05-02T07:15:33.146Z</time></trkpt><trkpt lat="42.348605" lon="14.0228304"><ele>192.0</ele><time>2026-05-02T07:15:34.147Z</time></trkpt><trkpt lat="42.3485399" lon="14.0226763"><ele>193.5</ele><time>2026-05-02T07:15:35.146Z</time></trkpt><trkpt lat="42.3484639" lon="14.022525"><ele>195.0</ele><time>2026-05-02T07:15:36.146Z</time></trkpt><trkpt lat="42.3483776" lon="14.0223861"><ele>195.0</ele><time>2026-05-02T07:15:37.146Z</time></trkpt><trkpt lat="42.3482759" lon="14.0222364"><ele>195.0</ele><time>2026-05-02T07:15:38.145Z</time></trkpt><trkpt lat="42.3481657" lon="14.0220775"><ele>195.0</ele><time>2026-05-02T07:15:39.146Z</time></trkpt><trkpt lat="42.3480541" lon="14.0219193"><ele>195.25</ele><time>2026-05-02T07:15:40.146Z</time></trkpt><trkpt lat="42.3479468" lon="14.0217693"><ele>195.5</ele><time>2026-05-02T07:15:41.145Z</time></trkpt><trkpt lat="42.3478475" lon="14.0216318"><ele>195.75</ele><time>2026-05-02T07:15:42.145Z</time></trkpt><trkpt lat="42.3477574" lon="14.0215018"><ele>196.0</ele><time>2026-05-02T07:15:43.146Z</time></trkpt><trkpt lat="42.3476657" lon="14.0213817"><ele>196.0</ele><time>2026-05-02T07:15:44.145Z</time></trkpt><trkpt lat="42.3475733" lon="14.0212488"><ele>196.0</ele><time>2026-05-02T07:15:45.145Z</time></trkpt><trkpt lat="42.347473" lon="14.0211086"><ele>196.0</ele><time>2026-05-02T07:15:46.145Z</time></trkpt><trkpt lat="42.3473744" lon="14.0209577"><ele>196.0</ele><time>2026-05-02T07:15:47.146Z</time></trkpt><trkpt lat="42.3472804" lon="14.0207932"><ele>196.5</ele><time>2026-05-02T07:15:48.145Z</time></trkpt><trkpt lat="42.3471873" lon="14.0206301"><ele>197.0</ele><time>2026-05-02T07:15:49.145Z</time></trkpt><trkpt lat="42.3471036" lon="14.0204729"><ele>197.5</ele><time>2026-05-02T07:15:50.145Z</time></trkpt><trkpt lat="42.3470188" lon="14.0203152"><ele>198.0</ele><time>2026-05-02T07:15:51.146Z</time></trkpt><trkpt lat="42.3469258" lon="14.0201533"><ele>198.0</ele><time>2026-05-02T07:15:52.146Z</time></trkpt><trkpt lat="42.3468365" lon="14.0199845"><ele>198.0</ele><time>2026-05-02T07:15:53.146Z</time></trkpt><trkpt lat="42.3467589" lon="14.0198371"><ele>198.0</ele><time>2026-05-02T07:15:54.145Z</time></trkpt><trkpt lat="42.3466909" lon="14.0196926"><ele>198.0</ele><time>2026-05-02T07:15:55.145Z</time></trkpt><trkpt lat="42.3466217" lon="14.0195304"><ele>197.75</ele><time>2026-05-02T07:15:56.145Z</time></trkpt><trkpt lat="42.3465505" lon="14.0193622"><ele>197.5</ele><time>2026-05-02T07:15:57.146Z</time></trkpt><trkpt lat="42.3464814" lon="14.0192035"><ele>197.25</ele><time>2026-05-02T07:15:58.146Z</time></trkpt><trkpt lat="42.3464121" lon="14.0190485"><ele>197.0</ele><time>2026-05-02T07:15:59.145Z</time></trkpt><trkpt lat="42.3463349" lon="14.0188805"><ele>198.33333333333334</ele><time>2026-05-02T07:16:00.145Z</time></trkpt><trkpt lat="42.3462574" lon="14.0187089"><ele>199.66666666666669</ele><time>2026-05-02T07:16:01.146Z</time></trkpt><trkpt lat="42.3461722" lon="14.0185262"><ele>201.0</ele><time>2026-05-02T07:16:02.145Z</time></trkpt><trkpt lat="42.3460793" lon="14.018343"><ele>201.66666666666669</ele><time>2026-05-02T07:16:03.146Z</time></trkpt><trkpt lat="42.3459787" lon="14.018156"><ele>202.33333333333334</ele><time>2026-05-02T07:16:04.146Z</time></trkpt><trkpt lat="42.3458823" lon="14.0179772"><ele>203.0</ele><time>2026-05-02T07:16:05.146Z</time></trkpt><trkpt lat="42.3457904" lon="14.0177939"><ele>203.0</ele><time>2026-05-02T07:16:06.146Z</time></trkpt><trkpt lat="42.3456958" lon="14.0176026"><ele>203.0</ele><time>2026-05-02T07:16:07.145Z</time></trkpt><trkpt lat="42.3455962" lon="14.0174271"><ele>203.0</ele><time>2026-05-02T07:16:08.145Z</time></trkpt><trkpt lat="42.3455006" lon="14.0172479"><ele>203.66666666666669</ele><time>2026-05-02T07:16:09.145Z</time></trkpt><trkpt lat="42.3453996" lon="14.0170646"><ele>204.33333333333331</ele><time>2026-05-02T07:16:10.145Z</time></trkpt><trkpt lat="42.3453024" lon="14.0168662"><ele>205.0</ele><time>2026-05-02T07:16:11.146Z</time></trkpt><trkpt lat="42.3452155" lon="14.0166811"><ele>205.5</ele><time>2026-05-02T07:16:12.146Z</time></trkpt><trkpt lat="42.3451419" lon="14.0165019"><ele>206.0</ele><time>2026-05-02T07:16:13.146Z</time></trkpt><trkpt lat="42.345079" lon="14.0163183"><ele>206.5</ele><time>2026-05-02T07:16:14.145Z</time></trkpt><trkpt lat="42.3450364" lon="14.0161266"><ele>207.0</ele><time>2026-05-02T07:16:15.145Z</time></trkpt><trkpt lat="42.3450045" lon="14.0159653"><ele>207.0</ele><time>2026-05-02T07:16:16.145Z</time></trkpt><trkpt lat="42.3449821" lon="14.015841"><ele>207.0</ele><time>2026-05-02T07:16:17.145Z</time></trkpt><trkpt lat="42.3449641" lon="14.0157419"><ele>207.0</ele><time>2026-05-02T07:16:18.146Z</time></trkpt><trkpt lat="42.3449467" lon="14.0156525"><ele>207.0</ele><time>2026-05-02T07:16:19.145Z</time></trkpt><trkpt lat="42.3449279" lon="14.0155116"><ele>207.0</ele><time>2026-05-02T07:16:21.147Z</time></trkpt><trkpt lat="42.344916" lon="14.0154084"><ele>207.0</ele><time>2026-05-02T07:16:23.145Z</time></trkpt><trkpt lat="42.3448923" lon="14.0155131"><ele>207.0</ele><time>2026-05-02T07:16:29.146Z</time></trkpt><trkpt lat="42.3449164" lon="14.0155964"><ele>207.0</ele><time>2026-05-02T07:16:30.145Z</time></trkpt><trkpt lat="42.3449425" lon="14.0157128"><ele>207.0</ele><time>2026-05-02T07:16:31.145Z</time></trkpt><trkpt lat="42.3449687" lon="14.0158365"><ele>207.0</ele><time>2026-05-02T07:16:32.145Z</time></trkpt><trkpt lat="42.344995" lon="14.0159447"><ele>207.0</ele><time>2026-05-02T07:16:33.146Z</time></trkpt><trkpt lat="42.3450099" lon="14.0160293"><ele>207.0</ele><time>2026-05-02T07:16:34.145Z</time></trkpt><trkpt lat="42.3449985" lon="14.0161166"><ele>207.0</ele><time>2026-05-02T07:16:36.145Z</time></trkpt><trkpt lat="42.3449302" lon="14.0161595"><ele>207.0</ele><time>2026-05-02T07:16:38.145Z</time></trkpt><trkpt lat="42.3448555" lon="14.0161727"><ele>207.0</ele><time>2026-05-02T07:16:39.146Z</time></trkpt><trkpt lat="42.3447676" lon="14.0161863"><ele>207.0</ele><time>2026-05-02T07:16:40.146Z</time></trkpt><trkpt lat="42.3446668" lon="14.0162061"><ele>207.0</ele><time>2026-05-02T07:16:41.145Z</time></trkpt><trkpt lat="42.3445539" lon="14.0162301"><ele>207.0</ele><time>2026-05-02T07:16:42.146Z</time></trkpt><trkpt lat="42.3444383" lon="14.0162546"><ele>207.0</ele><time>2026-05-02T07:16:43.146Z</time></trkpt><trkpt lat="42.3443187" lon="14.0162834"><ele>207.0</ele><time>2026-05-02T07:16:44.147Z</time></trkpt><trkpt lat="42.344202" lon="14.0163254"><ele>207.0</ele><time>2026-05-02T07:16:45.146Z</time></trkpt><trkpt lat="42.344116" lon="14.0163373"><ele>207.0</ele><time>2026-05-02T07:16:46.145Z</time></trkpt><trkpt lat="42.3440355" lon="14.0163489"><ele>207.0</ele><time>2026-05-02T07:16:47.145Z</time></trkpt><trkpt lat="42.3439564" lon="14.0163626"><ele>207.0</ele><time>2026-05-02T07:16:48.146Z</time></trkpt><trkpt lat="42.3438675" lon="14.0163668"><ele>207.0</ele><time>2026-05-02T07:16:49.146Z</time></trkpt><trkpt lat="42.343774" lon="14.0163501"><ele>207.0</ele><time>2026-05-02T07:16:50.145Z</time></trkpt><trkpt lat="42.3436861" lon="14.0163322"><ele>207.0</ele><time>2026-05-02T07:16:51.146Z</time></trkpt><trkpt lat="42.3435921" lon="14.016314"><ele>207.0</ele><time>2026-05-02T07:16:52.145Z</time></trkpt><trkpt lat="42.343491" lon="14.0162886"><ele>206.39999999999998</ele><time>2026-05-02T07:16:53.145Z</time></trkpt><trkpt lat="42.3433864" lon="14.0162572"><ele>205.79999999999998</ele><time>2026-05-02T07:16:54.145Z</time></trkpt><trkpt lat="42.3432778" lon="14.0162192"><ele>205.2</ele><time>2026-05-02T07:16:55.146Z</time></trkpt><trkpt lat="42.3431697" lon="14.0161836"><ele>204.6</ele><time>2026-05-02T07:16:56.145Z</time></trkpt><trkpt lat="42.3430667" lon="14.016153"><ele>204.0</ele><time>2026-05-02T07:16:57.145Z</time></trkpt><trkpt lat="42.3429834" lon="14.0161254"><ele>202.16666666666666</ele><time>2026-05-02T07:16:58.145Z</time></trkpt><trkpt lat="42.3429083" lon="14.0161021"><ele>200.33333333333331</ele><time>2026-05-02T07:16:59.145Z</time></trkpt><trkpt lat="42.3428411" lon="14.016091"><ele>198.5</ele><time>2026-05-02T07:17:00.145Z</time></trkpt><trkpt lat="42.3427774" lon="14.0161113"><ele>196.66666666666666</ele><time>2026-05-02T07:17:01.146Z</time></trkpt><trkpt lat="42.3427279" lon="14.0161716"><ele>194.83333333333331</ele><time>2026-05-02T07:17:02.147Z</time></trkpt><trkpt lat="42.3426858" lon="14.0162745"><ele>193.0</ele><time>2026-05-02T07:17:03.147Z</time></trkpt><trkpt lat="42.3426405" lon="14.0164033"><ele>193.0</ele><time>2026-05-02T07:17:04.145Z</time></trkpt><trkpt lat="42.3425935" lon="14.0165477"><ele>193.0</ele><time>2026-05-02T07:17:05.145Z</time></trkpt><trkpt lat="42.3425515" lon="14.0166773"><ele>193.0</ele><time>2026-05-02T07:17:06.145Z</time></trkpt><trkpt lat="42.3425253" lon="14.0167844"><ele>193.0</ele><time>2026-05-02T07:17:07.146Z</time></trkpt><trkpt lat="42.3425065" lon="14.0169158"><ele>193.0</ele><time>2026-05-02T07:17:09.145Z</time></trkpt><trkpt lat="42.3424548" lon="14.0169908"><ele>192.66666666666666</ele><time>2026-05-02T07:17:11.145Z</time></trkpt><trkpt lat="42.3423597" lon="14.0170459"><ele>192.33333333333331</ele><time>2026-05-02T07:17:13.145Z</time></trkpt><trkpt lat="42.3422776" lon="14.0170924"><ele>192.0</ele><time>2026-05-02T07:17:15.146Z</time></trkpt><trkpt lat="42.3422095" lon="14.0170501"><ele>191.66666666666666</ele><time>2026-05-02T07:17:18.145Z</time></trkpt><trkpt lat="42.3421287" lon="14.0169807"><ele>191.33333333333331</ele><time>2026-05-02T07:17:20.146Z</time></trkpt><trkpt lat="42.3420612" lon="14.0169352"><ele>191.0</ele><time>2026-05-02T07:17:21.145Z</time></trkpt><trkpt lat="42.3419923" lon="14.0168784"><ele>188.8</ele><time>2026-05-02T07:17:22.145Z</time></trkpt><trkpt lat="42.3419172" lon="14.016817"><ele>186.60000000000002</ele><time>2026-05-02T07:17:23.146Z</time></trkpt><trkpt lat="42.3418413" lon="14.0167525"><ele>184.4</ele><time>2026-05-02T07:17:24.145Z</time></trkpt><trkpt lat="42.3417572" lon="14.0166857"><ele>182.2</ele><time>2026-05-02T07:17:25.145Z</time></trkpt><trkpt lat="42.3416676" lon="14.0166161"><ele>180.0</ele><time>2026-05-02T07:17:26.146Z</time></trkpt><trkpt lat="42.3415767" lon="14.0165433"><ele>179.6</ele><time>2026-05-02T07:17:27.145Z</time></trkpt><trkpt lat="42.3414811" lon="14.0164715"><ele>179.2</ele><time>2026-05-02T07:17:28.145Z</time></trkpt><trkpt lat="42.341387" lon="14.0163947"><ele>178.8</ele><time>2026-05-02T07:17:29.146Z</time></trkpt><trkpt lat="42.3412926" lon="14.0163219"><ele>178.4</ele><time>2026-05-02T07:17:30.144Z</time></trkpt><trkpt lat="42.3412027" lon="14.0162515"><ele>178.0</ele><time>2026-05-02T07:17:31.145Z</time></trkpt><trkpt lat="42.341114" lon="14.016178"><ele>178.33333333333334</ele><time>2026-05-02T07:17:32.146Z</time></trkpt><trkpt lat="42.3410481" lon="14.0161126"><ele>178.66666666666669</ele><time>2026-05-02T07:17:33.145Z</time></trkpt><trkpt lat="42.3409921" lon="14.0160418"><ele>179.0</ele><time>2026-05-02T07:17:34.145Z</time></trkpt><trkpt lat="42.3409413" lon="14.0159639"><ele>179.33333333333334</ele><time>2026-05-02T07:17:35.144Z</time></trkpt><trkpt lat="42.3408893" lon="14.0158823"><ele>179.66666666666666</ele><time>2026-05-02T07:17:36.144Z</time></trkpt><trkpt lat="42.3408335" lon="14.0157895"><ele>180.0</ele><time>2026-05-02T07:17:37.145Z</time></trkpt><trkpt lat="42.3407784" lon="14.0156885"><ele>180.0</ele><time>2026-05-02T07:17:38.144Z</time></trkpt><trkpt lat="42.3407328" lon="14.0155845"><ele>180.0</ele><time>2026-05-02T07:17:39.144Z</time></trkpt><trkpt lat="42.3406919" lon="14.0154868"><ele>180.0</ele><time>2026-05-02T07:17:40.145Z</time></trkpt><trkpt lat="42.3406534" lon="14.0153947"><ele>180.0</ele><time>2026-05-02T07:17:41.144Z</time></trkpt><trkpt lat="42.3406126" lon="14.0153051"><ele>180.0</ele><time>2026-05-02T07:17:42.145Z</time></trkpt><trkpt lat="42.3405611" lon="14.0152387"><ele>180.0</ele><time>2026-05-02T07:17:43.144Z</time></trkpt><trkpt lat="42.3404999" lon="14.0152032"><ele>180.8</ele><time>2026-05-02T07:17:44.144Z</time></trkpt><trkpt lat="42.3403722" lon="14.0152115"><ele>181.6</ele><time>2026-05-02T07:17:46.145Z</time></trkpt><trkpt lat="42.340307" lon="14.0152468"><ele>182.39999999999998</ele><time>2026-05-02T07:17:47.144Z</time></trkpt><trkpt lat="42.3402222" lon="14.0153038"><ele>183.2</ele><time>2026-05-02T07:17:48.144Z</time></trkpt><trkpt lat="42.3401408" lon="14.0153548"><ele>184.0</ele><time>2026-05-02T07:17:49.145Z</time></trkpt><trkpt lat="42.3400715" lon="14.0154088"><ele>184.0</ele><time>2026-05-02T07:17:50.146Z</time></trkpt><trkpt lat="42.3400096" lon="14.0154629"><ele>184.0</ele><time>2026-05-02T07:17:51.145Z</time></trkpt><trkpt lat="42.3399508" lon="14.0155153"><ele>184.0</ele><time>2026-05-02T07:17:52.144Z</time></trkpt><trkpt lat="42.3398881" lon="14.01557"><ele>184.0</ele><time>2026-05-02T07:17:53.144Z</time></trkpt><trkpt lat="42.3398265" lon="14.0156245"><ele>184.0</ele><time>2026-05-02T07:17:54.144Z</time></trkpt><trkpt lat="42.339765" lon="14.0156656"><ele>184.0</ele><time>2026-05-02T07:17:55.145Z</time></trkpt><trkpt lat="42.3396913" lon="14.0156679"><ele>184.0</ele><time>2026-05-02T07:17:56.145Z</time></trkpt><trkpt lat="42.3396248" lon="14.0156135"><ele>183.16666666666669</ele><time>2026-05-02T07:17:57.145Z</time></trkpt><trkpt lat="42.3395406" lon="14.0155801"><ele>182.33333333333334</ele><time>2026-05-02T07:17:58.145Z</time></trkpt><trkpt lat="42.3394643" lon="14.0155238"><ele>181.5</ele><time>2026-05-02T07:17:59.144Z</time></trkpt><trkpt lat="42.339396" lon="14.0154695"><ele>180.66666666666666</ele><time>2026-05-02T07:18:00.145Z</time></trkpt><trkpt lat="42.3393329" lon="14.0154211"><ele>179.83333333333331</ele><time>2026-05-02T07:18:01.144Z</time></trkpt><trkpt lat="42.3392999" lon="14.0153228"><ele>179.0</ele><time>2026-05-02T07:18:02.144Z</time></trkpt><trkpt lat="42.3392643" lon="14.0152267"><ele>179.0</ele><time>2026-05-02T07:18:03.144Z</time></trkpt><trkpt lat="42.3392211" lon="14.0151042"><ele>179.0</ele><time>2026-05-02T07:18:04.145Z</time></trkpt><trkpt lat="42.3391705" lon="14.0149726"><ele>179.0</ele><time>2026-05-02T07:18:05.145Z</time></trkpt><trkpt lat="42.3391003" lon="14.014811"><ele>179.0</ele><time>2026-05-02T07:18:06.145Z</time></trkpt><trkpt lat="42.3390461" lon="14.0146597"><ele>178.25</ele><time>2026-05-02T07:18:07.145Z</time></trkpt><trkpt lat="42.3389892" lon="14.0145287"><ele>177.5</ele><time>2026-05-02T07:18:08.145Z</time></trkpt><trkpt lat="42.3389365" lon="14.014394"><ele>176.75</ele><time>2026-05-02T07:18:09.144Z</time></trkpt><trkpt lat="42.3388814" lon="14.014261"><ele>176.0</ele><time>2026-05-02T07:18:10.145Z</time></trkpt><trkpt lat="42.3388252" lon="14.0141252"><ele>178.0</ele><time>2026-05-02T07:18:11.144Z</time></trkpt><trkpt lat="42.3387667" lon="14.0139869"><ele>180.0</ele><time>2026-05-02T07:18:12.144Z</time></trkpt><trkpt lat="42.3387163" lon="14.0138516"><ele>182.0</ele><time>2026-05-02T07:18:13.144Z</time></trkpt><trkpt lat="42.3386625" lon="14.0137071"><ele>184.0</ele><time>2026-05-02T07:18:14.144Z</time></trkpt><trkpt lat="42.3385996" lon="14.013525"><ele>184.0</ele><time>2026-05-02T07:18:15.144Z</time></trkpt><trkpt lat="42.3385443" lon="14.0133587"><ele>184.0</ele><time>2026-05-02T07:18:16.144Z</time></trkpt><trkpt lat="42.3384872" lon="14.0132049"><ele>184.0</ele><time>2026-05-02T07:18:17.145Z</time></trkpt><trkpt lat="42.3384435" lon="14.0130629"><ele>184.0</ele><time>2026-05-02T07:18:18.145Z</time></trkpt><trkpt lat="42.3383974" lon="14.0129387"><ele>185.39999999999998</ele><time>2026-05-02T07:18:19.145Z</time></trkpt><trkpt lat="42.3383689" lon="14.0128485"><ele>186.8</ele><time>2026-05-02T07:18:20.144Z</time></trkpt><trkpt lat="42.3383874" lon="14.012738"><ele>188.2</ele><time>2026-05-02T07:18:22.145Z</time></trkpt><trkpt lat="42.3384894" lon="14.0126486"><ele>189.60000000000002</ele><time>2026-05-02T07:18:24.144Z</time></trkpt><trkpt lat="42.338566" lon="14.0125998"><ele>191.0</ele><time>2026-05-02T07:18:25.146Z</time></trkpt><trkpt lat="42.3386605" lon="14.0125417"><ele>192.16666666666666</ele><time>2026-05-02T07:18:26.144Z</time></trkpt><trkpt lat="42.3387608" lon="14.0124792"><ele>193.33333333333331</ele><time>2026-05-02T07:18:27.145Z</time></trkpt><trkpt lat="42.3388362" lon="14.012426"><ele>194.5</ele><time>2026-05-02T07:18:28.146Z</time></trkpt><trkpt lat="42.3388874" lon="14.0123713"><ele>195.66666666666666</ele><time>2026-05-02T07:18:29.144Z</time></trkpt><trkpt lat="42.3389524" lon="14.0122778"><ele>196.83333333333334</ele><time>2026-05-02T07:18:31.144Z</time></trkpt><trkpt lat="42.3390006" lon="14.0121701"><ele>198.0</ele><time>2026-05-02T07:18:33.145Z</time></trkpt><trkpt lat="42.3389962" lon="14.0120158"><ele>198.83333333333334</ele><time>2026-05-02T07:18:35.145Z</time></trkpt><trkpt lat="42.338985" lon="14.0118905"><ele>199.66666666666669</ele><time>2026-05-02T07:18:37.144Z</time></trkpt><trkpt lat="42.3389825" lon="14.0120053"><ele>200.5</ele><time>2026-05-02T07:18:45.146Z</time></trkpt><trkpt lat="42.3389906" lon="14.0121326"><ele>201.33333333333334</ele><time>2026-05-02T07:18:47.144Z</time></trkpt><trkpt lat="42.3389765" lon="14.0122646"><ele>202.16666666666669</ele><time>2026-05-02T07:18:49.144Z</time></trkpt><trkpt lat="42.3389953" lon="14.0123575"><ele>203.0</ele><time>2026-05-02T07:18:51.144Z</time></trkpt><trkpt lat="42.3390787" lon="14.0124312"><ele>203.00000000000003</ele><time>2026-05-02T07:18:55.145Z</time></trkpt><trkpt lat="42.3391669" lon="14.0124828"><ele>203.0</ele><time>2026-05-02T07:18:57.145Z</time></trkpt><trkpt lat="42.3392413" lon="14.0125154"><ele>203.0</ele><time>2026-05-02T07:18:59.144Z</time></trkpt><trkpt lat="42.3393018" lon="14.0125432"><ele>203.0</ele><time>2026-05-02T07:19:01.144Z</time></trkpt><trkpt lat="42.3392432" lon="14.0124897"><ele>203.00000000000003</ele><time>2026-05-02T07:19:07.145Z</time></trkpt><trkpt lat="42.3391346" lon="14.0124519"><ele>203.0</ele><time>2026-05-02T07:19:09.144Z</time></trkpt><trkpt lat="42.3390404" lon="14.0123853"><ele>203.0</ele><time>2026-05-02T07:19:11.145Z</time></trkpt><trkpt lat="42.3389784" lon="14.0123245"><ele>203.0</ele><time>2026-05-02T07:19:17.145Z</time></trkpt><trkpt lat="42.3388942" lon="14.0123122"><ele>203.0</ele><time>2026-05-02T07:19:19.144Z</time></trkpt><trkpt lat="42.3387652" lon="14.0123309"><ele>203.0</ele><time>2026-05-02T07:19:21.144Z</time></trkpt><trkpt lat="42.3386945" lon="14.0123099"><ele>203.0</ele><time>2026-05-02T07:19:22.144Z</time></trkpt><trkpt lat="42.3386114" lon="14.0122645"><ele>202.0</ele><time>2026-05-02T07:19:23.145Z</time></trkpt><trkpt lat="42.3385206" lon="14.012208"><ele>201.0</ele><time>2026-05-02T07:19:24.144Z</time></trkpt><trkpt lat="42.3384274" lon="14.0121616"><ele>200.0</ele><time>2026-05-02T07:19:25.144Z</time></trkpt><trkpt lat="42.3383301" lon="14.0121258"><ele>199.0</ele><time>2026-05-02T07:19:26.144Z</time></trkpt><trkpt lat="42.3382281" lon="14.0120924"><ele>198.0</ele><time>2026-05-02T07:19:27.144Z</time></trkpt><trkpt lat="42.3381212" lon="14.0120555"><ele>195.5</ele><time>2026-05-02T07:19:28.144Z</time></trkpt><trkpt lat="42.3380059" lon="14.0120117"><ele>193.0</ele><time>2026-05-02T07:19:29.144Z</time></trkpt><trkpt lat="42.3378915" lon="14.0119496"><ele>190.5</ele><time>2026-05-02T07:19:30.144Z</time></trkpt><trkpt lat="42.3377838" lon="14.0118725"><ele>188.0</ele><time>2026-05-02T07:19:31.146Z</time></trkpt><trkpt lat="42.337674" lon="14.011791"><ele>188.0</ele><time>2026-05-02T07:19:32.145Z</time></trkpt><trkpt lat="42.3375707" lon="14.011701"><ele>188.0</ele><time>2026-05-02T07:19:33.145Z</time></trkpt><trkpt lat="42.3374768" lon="14.0116024"><ele>188.0</ele><time>2026-05-02T07:19:34.144Z</time></trkpt><trkpt lat="42.3373976" lon="14.0114934"><ele>188.0</ele><time>2026-05-02T07:19:35.144Z</time></trkpt><trkpt lat="42.337329" lon="14.0113797"><ele>189.4</ele><time>2026-05-02T07:19:36.146Z</time></trkpt><trkpt lat="42.3372661" lon="14.0112564"><ele>190.8</ele><time>2026-05-02T07:19:37.144Z</time></trkpt><trkpt lat="42.337197" lon="14.0111394"><ele>192.2</ele><time>2026-05-02T07:19:38.144Z</time></trkpt><trkpt lat="42.3371309" lon="14.0110379"><ele>193.6</ele><time>2026-05-02T07:19:39.145Z</time></trkpt><trkpt lat="42.3370647" lon="14.0109582"><ele>195.0</ele><time>2026-05-02T07:19:40.144Z</time></trkpt><trkpt lat="42.3369784" lon="14.0109252"><ele>192.2</ele><time>2026-05-02T07:19:41.145Z</time></trkpt><trkpt lat="42.3368837" lon="14.01094"><ele>189.4</ele><time>2026-05-02T07:19:42.144Z</time></trkpt><trkpt lat="42.3367857" lon="14.010982"><ele>186.60000000000002</ele><time>2026-05-02T07:19:43.144Z</time></trkpt><trkpt lat="42.3366835" lon="14.0110351"><ele>183.8</ele><time>2026-05-02T07:19:44.145Z</time></trkpt><trkpt lat="42.3365803" lon="14.0110957"><ele>181.0</ele><time>2026-05-02T07:19:45.145Z</time></trkpt><trkpt lat="42.3364891" lon="14.0111658"><ele>181.0</ele><time>2026-05-02T07:19:46.145Z</time></trkpt><trkpt lat="42.3364102" lon="14.0112688"><ele>181.0</ele><time>2026-05-02T07:19:47.144Z</time></trkpt><trkpt lat="42.3363453" lon="14.0114123"><ele>181.0</ele><time>2026-05-02T07:19:48.144Z</time></trkpt><trkpt lat="42.3362756" lon="14.0115904"><ele>181.0</ele><time>2026-05-02T07:19:49.144Z</time></trkpt><trkpt lat="42.3361945" lon="14.0117918"><ele>185.33333333333334</ele><time>2026-05-02T07:19:50.145Z</time></trkpt><trkpt lat="42.3361149" lon="14.0119914"><ele>189.66666666666669</ele><time>2026-05-02T07:19:51.145Z</time></trkpt><trkpt lat="42.3360575" lon="14.0121747"><ele>194.0</ele><time>2026-05-02T07:19:52.145Z</time></trkpt><trkpt lat="42.3360284" lon="14.0123665"><ele>195.66666666666669</ele><time>2026-05-02T07:19:53.145Z</time></trkpt><trkpt lat="42.3360298" lon="14.0125622"><ele>197.33333333333331</ele><time>2026-05-02T07:19:54.145Z</time></trkpt><trkpt lat="42.3360393" lon="14.0127803"><ele>199.0</ele><time>2026-05-02T07:19:55.144Z</time></trkpt><trkpt lat="42.3360453" lon="14.0130166"><ele>199.0</ele><time>2026-05-02T07:19:56.144Z</time></trkpt><trkpt lat="42.3360556" lon="14.0132719"><ele>199.0</ele><time>2026-05-02T07:19:57.145Z</time></trkpt><trkpt lat="42.3360639" lon="14.0135083"><ele>199.0</ele><time>2026-05-02T07:19:58.144Z</time></trkpt><trkpt lat="42.3360687" lon="14.0137161"><ele>200.33333333333331</ele><time>2026-05-02T07:19:59.144Z</time></trkpt><trkpt lat="42.3360705" lon="14.0139474"><ele>201.66666666666669</ele><time>2026-05-02T07:20:00.146Z</time></trkpt><trkpt lat="42.3360722" lon="14.0141809"><ele>203.0</ele><time>2026-05-02T07:20:01.144Z</time></trkpt><trkpt lat="42.3360716" lon="14.0143827"><ele>203.25</ele><time>2026-05-02T07:20:02.146Z</time></trkpt><trkpt lat="42.3360839" lon="14.0145686"><ele>203.5</ele><time>2026-05-02T07:20:03.145Z</time></trkpt><trkpt lat="42.3361269" lon="14.0147411"><ele>203.75</ele><time>2026-05-02T07:20:04.146Z</time></trkpt><trkpt lat="42.3361735" lon="14.0148813"><ele>204.0</ele><time>2026-05-02T07:20:05.145Z</time></trkpt><trkpt lat="42.3361927" lon="14.0150014"><ele>204.0</ele><time>2026-05-02T07:20:06.144Z</time></trkpt><trkpt lat="42.3361722" lon="14.0150892"><ele>204.0</ele><time>2026-05-02T07:20:07.144Z</time></trkpt><trkpt lat="42.3360634" lon="14.0151297"><ele>204.0</ele><time>2026-05-02T07:20:09.145Z</time></trkpt><trkpt lat="42.3359958" lon="14.015086"><ele>204.0</ele><time>2026-05-02T07:20:10.144Z</time></trkpt><trkpt lat="42.3359254" lon="14.0150255"><ele>204.0</ele><time>2026-05-02T07:20:11.145Z</time></trkpt><trkpt lat="42.3358519" lon="14.0149551"><ele>204.0</ele><time>2026-05-02T07:20:12.145Z</time></trkpt><trkpt lat="42.3357911" lon="14.0148792"><ele>204.0</ele><time>2026-05-02T07:20:13.144Z</time></trkpt><trkpt lat="42.3357478" lon="14.0147995"><ele>204.0</ele><time>2026-05-02T07:20:14.144Z</time></trkpt><trkpt lat="42.3356876" lon="14.01467"><ele>204.0</ele><time>2026-05-02T07:20:16.144Z</time></trkpt><trkpt lat="42.335571" lon="14.0145839"><ele>204.0</ele><time>2026-05-02T07:20:18.144Z</time></trkpt><trkpt lat="42.3354721" lon="14.0145813"><ele>204.0</ele><time>2026-05-02T07:20:19.144Z</time></trkpt><trkpt lat="42.3353606" lon="14.0145854"><ele>204.75</ele><time>2026-05-02T07:20:20.144Z</time></trkpt><trkpt lat="42.335223" lon="14.0145697"><ele>205.5</ele><time>2026-05-02T07:20:21.144Z</time></trkpt><trkpt lat="42.3350701" lon="14.0145498"><ele>206.25</ele><time>2026-05-02T07:20:22.144Z</time></trkpt><trkpt lat="42.3349169" lon="14.0145331"><ele>207.0</ele><time>2026-05-02T07:20:23.145Z</time></trkpt><trkpt lat="42.3347573" lon="14.0145107"><ele>204.66666666666669</ele><time>2026-05-02T07:20:24.144Z</time></trkpt><trkpt lat="42.3345743" lon="14.014484"><ele>202.33333333333334</ele><time>2026-05-02T07:20:25.146Z</time></trkpt><trkpt lat="42.3343882" lon="14.0144597"><ele>200.0</ele><time>2026-05-02T07:20:26.144Z</time></trkpt><trkpt lat="42.334197" lon="14.014435"><ele>200.0</ele><time>2026-05-02T07:20:27.145Z</time></trkpt><trkpt lat="42.3340117" lon="14.0144088"><ele>200.0</ele><time>2026-05-02T07:20:28.145Z</time></trkpt><trkpt lat="42.3338271" lon="14.0143833"><ele>200.0</ele><time>2026-05-02T07:20:29.144Z</time></trkpt><trkpt lat="42.3336452" lon="14.014359"><ele>198.66666666666669</ele><time>2026-05-02T07:20:30.144Z</time></trkpt><trkpt lat="42.3334636" lon="14.0143359"><ele>197.33333333333331</ele><time>2026-05-02T07:20:31.144Z</time></trkpt><trkpt lat="42.3332814" lon="14.0143099"><ele>196.0</ele><time>2026-05-02T07:20:32.145Z</time></trkpt><trkpt lat="42.3330975" lon="14.0142834"><ele>195.0</ele><time>2026-05-02T07:20:33.144Z</time></trkpt><trkpt lat="42.3329215" lon="14.0142606"><ele>194.0</ele><time>2026-05-02T07:20:34.145Z</time></trkpt><trkpt lat="42.3327493" lon="14.0142387"><ele>193.0</ele><time>2026-05-02T07:20:35.144Z</time></trkpt><trkpt lat="42.3325809" lon="14.0142139"><ele>193.0</ele><time>2026-05-02T07:20:36.144Z</time></trkpt><trkpt lat="42.3324156" lon="14.0141954"><ele>193.0</ele><time>2026-05-02T07:20:37.145Z</time></trkpt><trkpt lat="42.3322547" lon="14.0141913"><ele>193.0</ele><time>2026-05-02T07:20:38.144Z</time></trkpt><trkpt lat="42.3320944" lon="14.0142132"><ele>190.0</ele><time>2026-05-02T07:20:39.145Z</time></trkpt><trkpt lat="42.3319324" lon="14.014273"><ele>187.0</ele><time>2026-05-02T07:20:40.145Z</time></trkpt><trkpt lat="42.3317731" lon="14.0143689"><ele>184.0</ele><time>2026-05-02T07:20:41.144Z</time></trkpt><trkpt lat="42.3316317" lon="14.0144797"><ele>184.0</ele><time>2026-05-02T07:20:42.144Z</time></trkpt><trkpt lat="42.3314922" lon="14.0145817"><ele>184.0</ele><time>2026-05-02T07:20:43.144Z</time></trkpt><trkpt lat="42.3313722" lon="14.0146736"><ele>184.0</ele><time>2026-05-02T07:20:44.144Z</time></trkpt><trkpt lat="42.3312679" lon="14.0147541"><ele>184.0</ele><time>2026-05-02T07:20:45.145Z</time></trkpt><trkpt lat="42.3311759" lon="14.0148244"><ele>182.83333333333334</ele><time>2026-05-02T07:20:46.144Z</time></trkpt><trkpt lat="42.3310917" lon="14.0148815"><ele>181.66666666666669</ele><time>2026-05-02T07:20:47.145Z</time></trkpt><trkpt lat="42.3310142" lon="14.0149303"><ele>180.5</ele><time>2026-05-02T07:20:48.145Z</time></trkpt><trkpt lat="42.3309418" lon="14.0149697"><ele>179.33333333333334</ele><time>2026-05-02T07:20:49.144Z</time></trkpt><trkpt lat="42.3308792" lon="14.0149924"><ele>178.16666666666666</ele><time>2026-05-02T07:20:50.146Z</time></trkpt><trkpt lat="42.3307753" lon="14.015021"><ele>177.0</ele><time>2026-05-02T07:20:52.144Z</time></trkpt><trkpt lat="42.3306902" lon="14.0150403"><ele>177.0</ele><time>2026-05-02T07:20:54.145Z</time></trkpt><trkpt lat="42.3306347" lon="14.0150995"><ele>177.0</ele><time>2026-05-02T07:20:57.145Z</time></trkpt><trkpt lat="42.3306649" lon="14.0151834"><ele>177.0</ele><time>2026-05-02T07:21:03.144Z</time></trkpt><trkpt lat="42.3307257" lon="14.0151424"><ele>177.0</ele><time>2026-05-02T07:21:15.145Z</time></trkpt><trkpt lat="42.3307011" lon="14.0150448"><ele>177.0</ele><time>2026-05-02T07:21:35.145Z</time></trkpt><trkpt lat="42.3306489" lon="14.0151151"><ele>177.0</ele><time>2026-05-02T07:21:53.144Z</time></trkpt><trkpt lat="42.3307382" lon="14.0151067"><ele>177.0</ele><time>2026-05-02T07:21:56.144Z</time></trkpt><trkpt lat="42.3308438" lon="14.0150438"><ele>177.0</ele><time>2026-05-02T07:21:58.144Z</time></trkpt><trkpt lat="42.3309294" lon="14.0150132"><ele>177.0</ele><time>2026-05-02T07:21:59.144Z</time></trkpt><trkpt lat="42.3310211" lon="14.0149621"><ele>177.0</ele><time>2026-05-02T07:22:00.144Z</time></trkpt><trkpt lat="42.3311211" lon="14.0148942"><ele>177.0</ele><time>2026-05-02T07:22:01.144Z</time></trkpt><trkpt lat="42.3312254" lon="14.0148185"><ele>177.0</ele><time>2026-05-02T07:22:02.145Z</time></trkpt><trkpt lat="42.3313245" lon="14.014739"><ele>178.75</ele><time>2026-05-02T07:22:03.145Z</time></trkpt><trkpt lat="42.3314267" lon="14.0146573"><ele>180.5</ele><time>2026-05-02T07:22:04.145Z</time></trkpt><trkpt lat="42.3315318" lon="14.0145804"><ele>182.25</ele><time>2026-05-02T07:22:05.145Z</time></trkpt><trkpt lat="42.3316424" lon="14.0145014"><ele>184.0</ele><time>2026-05-02T07:22:06.145Z</time></trkpt><trkpt lat="42.3317567" lon="14.0144207"><ele>184.0</ele><time>2026-05-02T07:22:07.145Z</time></trkpt><trkpt lat="42.3318746" lon="14.014346"><ele>184.0</ele><time>2026-05-02T07:22:08.145Z</time></trkpt><trkpt lat="42.3319988" lon="14.0142825"><ele>184.0</ele><time>2026-05-02T07:22:09.145Z</time></trkpt><trkpt lat="42.3321251" lon="14.0142459"><ele>184.0</ele><time>2026-05-02T07:22:10.145Z</time></trkpt><trkpt lat="42.3322514" lon="14.0142332"><ele>186.25</ele><time>2026-05-02T07:22:11.144Z</time></trkpt><trkpt lat="42.332377" lon="14.0142335"><ele>188.5</ele><time>2026-05-02T07:22:12.145Z</time></trkpt><trkpt lat="42.3325069" lon="14.0142407"><ele>190.75</ele><time>2026-05-02T07:22:13.145Z</time></trkpt><trkpt lat="42.33264" lon="14.0142567"><ele>193.0</ele><time>2026-05-02T07:22:14.145Z</time></trkpt><trkpt lat="42.3327765" lon="14.014276"><ele>193.0</ele><time>2026-05-02T07:22:15.145Z</time></trkpt><trkpt lat="42.332922" lon="14.0142949"><ele>193.0</ele><time>2026-05-02T07:22:16.144Z</time></trkpt><trkpt lat="42.333067" lon="14.0143109"><ele>193.0</ele><time>2026-05-02T07:22:17.144Z</time></trkpt><trkpt lat="42.3332034" lon="14.0143252"><ele>193.0</ele><time>2026-05-02T07:22:18.144Z</time></trkpt><trkpt lat="42.3333246" lon="14.0143478"><ele>193.49999999999997</ele><time>2026-05-02T07:22:19.146Z</time></trkpt><trkpt lat="42.3334204" lon="14.0143647"><ele>194.0</ele><time>2026-05-02T07:22:20.144Z</time></trkpt><trkpt lat="42.3334914" lon="14.0143784"><ele>194.5</ele><time>2026-05-02T07:22:21.145Z</time></trkpt><trkpt lat="42.333558" lon="14.0143619"><ele>195.0</ele><time>2026-05-02T07:22:23.144Z</time></trkpt><trkpt lat="42.3335094" lon="14.0142855"><ele>195.49999999999997</ele><time>2026-05-02T07:22:27.145Z</time></trkpt><trkpt lat="42.3334112" lon="14.0142727"><ele>196.0</ele><time>2026-05-02T07:22:29.144Z</time></trkpt><trkpt lat="42.3333213" lon="14.0142625"><ele>196.0</ele><time>2026-05-02T07:22:30.144Z</time></trkpt><trkpt lat="42.3332131" lon="14.014243"><ele>196.0</ele><time>2026-05-02T07:22:31.145Z</time></trkpt><trkpt lat="42.3330721" lon="14.0142171"><ele>196.0</ele><time>2026-05-02T07:22:32.145Z</time></trkpt><trkpt lat="42.3329269" lon="14.0141911"><ele>196.0</ele><time>2026-05-02T07:22:33.145Z</time></trkpt><trkpt lat="42.3328016" lon="14.0141688"><ele>194.4</ele><time>2026-05-02T07:22:34.145Z</time></trkpt><trkpt lat="42.3327052" lon="14.0141515"><ele>192.8</ele><time>2026-05-02T07:22:35.146Z</time></trkpt><trkpt lat="42.3326296" lon="14.0141333"><ele>191.20000000000002</ele><time>2026-05-02T07:22:36.144Z</time></trkpt><trkpt lat="42.3325197" lon="14.0140289"><ele>189.60000000000002</ele><time>2026-05-02T07:22:38.144Z</time></trkpt><trkpt lat="42.332441" lon="14.013912"><ele>188.0</ele><time>2026-05-02T07:22:39.144Z</time></trkpt><trkpt lat="42.3323616" lon="14.0137738"><ele>188.0</ele><time>2026-05-02T07:22:40.144Z</time></trkpt><trkpt lat="42.3322912" lon="14.0136535"><ele>188.0</ele><time>2026-05-02T07:22:41.145Z</time></trkpt><trkpt lat="42.3322147" lon="14.0135487"><ele>188.0</ele><time>2026-05-02T07:22:42.145Z</time></trkpt><trkpt lat="42.3321258" lon="14.0134341"><ele>188.0</ele><time>2026-05-02T07:22:43.146Z</time></trkpt><trkpt lat="42.33203" lon="14.0133129"><ele>186.5</ele><time>2026-05-02T07:22:44.144Z</time></trkpt><trkpt lat="42.3319369" lon="14.0131815"><ele>185.0</ele><time>2026-05-02T07:22:45.144Z</time></trkpt><trkpt lat="42.3318408" lon="14.0130518"><ele>183.5</ele><time>2026-05-02T07:22:46.145Z</time></trkpt><trkpt lat="42.3317332" lon="14.0129271"><ele>182.0</ele><time>2026-05-02T07:22:47.145Z</time></trkpt><trkpt lat="42.3316228" lon="14.0128088"><ele>182.0</ele><time>2026-05-02T07:22:48.144Z</time></trkpt><trkpt lat="42.3315034" lon="14.0126932"><ele>182.0</ele><time>2026-05-02T07:22:49.144Z</time></trkpt><trkpt lat="42.3313758" lon="14.0125787"><ele>182.0</ele><time>2026-05-02T07:22:50.145Z</time></trkpt><trkpt lat="42.3312468" lon="14.0124665"><ele>180.25</ele><time>2026-05-02T07:22:51.145Z</time></trkpt><trkpt lat="42.3311257" lon="14.0123626"><ele>178.5</ele><time>2026-05-02T07:22:52.145Z</time></trkpt><trkpt lat="42.3310236" lon="14.0122568"><ele>176.75</ele><time>2026-05-02T07:22:53.144Z</time></trkpt><trkpt lat="42.3309174" lon="14.0121452"><ele>175.0</ele><time>2026-05-02T07:22:54.146Z</time></trkpt><trkpt lat="42.3308186" lon="14.0120374"><ele>175.0</ele><time>2026-05-02T07:22:55.145Z</time></trkpt><trkpt lat="42.3307241" lon="14.0119202"><ele>175.0</ele><time>2026-05-02T07:22:56.144Z</time></trkpt><trkpt lat="42.330614" lon="14.0118017"><ele>175.0</ele><time>2026-05-02T07:22:57.145Z</time></trkpt><trkpt lat="42.3305001" lon="14.0116869"><ele>175.0</ele><time>2026-05-02T07:22:58.144Z</time></trkpt><trkpt lat="42.3303973" lon="14.011565"><ele>172.25</ele><time>2026-05-02T07:22:59.145Z</time></trkpt><trkpt lat="42.3302904" lon="14.0114359"><ele>169.5</ele><time>2026-05-02T07:23:00.145Z</time></trkpt><trkpt lat="42.3301928" lon="14.0113155"><ele>166.75</ele><time>2026-05-02T07:23:01.146Z</time></trkpt><trkpt lat="42.3301128" lon="14.0112147"><ele>164.0</ele><time>2026-05-02T07:23:02.144Z</time></trkpt><trkpt lat="42.330041" lon="14.0111115"><ele>164.0</ele><time>2026-05-02T07:23:03.144Z</time></trkpt><trkpt lat="42.3299734" lon="14.010999"><ele>164.0</ele><time>2026-05-02T07:23:04.145Z</time></trkpt><trkpt lat="42.3299021" lon="14.0108847"><ele>164.0</ele><time>2026-05-02T07:23:05.144Z</time></trkpt><trkpt lat="42.3298271" lon="14.010768"><ele>164.0</ele><time>2026-05-02T07:23:06.145Z</time></trkpt><trkpt lat="42.3297447" lon="14.0106763"><ele>164.0</ele><time>2026-05-02T07:23:07.144Z</time></trkpt><trkpt lat="42.3296386" lon="14.0105918"><ele>161.5</ele><time>2026-05-02T07:23:08.144Z</time></trkpt><trkpt lat="42.3295229" lon="14.0105043"><ele>159.0</ele><time>2026-05-02T07:23:09.145Z</time></trkpt><trkpt lat="42.329413" lon="14.0104209"><ele>156.5</ele><time>2026-05-02T07:23:10.144Z</time></trkpt><trkpt lat="42.3293069" lon="14.0103437"><ele>154.0</ele><time>2026-05-02T07:23:11.144Z</time></trkpt><trkpt lat="42.3291995" lon="14.0102663"><ele>154.0</ele><time>2026-05-02T07:23:12.144Z</time></trkpt><trkpt lat="42.3290788" lon="14.0101775"><ele>154.0</ele><time>2026-05-02T07:23:13.144Z</time></trkpt><trkpt lat="42.3289607" lon="14.010088"><ele>154.0</ele><time>2026-05-02T07:23:14.145Z</time></trkpt><trkpt lat="42.3288409" lon="14.010003"><ele>154.0</ele><time>2026-05-02T07:23:15.145Z</time></trkpt><trkpt lat="42.3287319" lon="14.0099213"><ele>152.5</ele><time>2026-05-02T07:23:16.144Z</time></trkpt><trkpt lat="42.3286268" lon="14.0098383"><ele>151.0</ele><time>2026-05-02T07:23:17.144Z</time></trkpt><trkpt lat="42.3285263" lon="14.0097571"><ele>149.5</ele><time>2026-05-02T07:23:18.144Z</time></trkpt><trkpt lat="42.3284083" lon="14.0096951"><ele>148.0</ele><time>2026-05-02T07:23:19.144Z</time></trkpt><trkpt lat="42.3282795" lon="14.0096642"><ele>148.0</ele><time>2026-05-02T07:23:20.145Z</time></trkpt><trkpt lat="42.3281599" lon="14.0096481"><ele>148.0</ele><time>2026-05-02T07:23:21.145Z</time></trkpt><trkpt lat="42.328051" lon="14.0096463"><ele>148.0</ele><time>2026-05-02T07:23:22.144Z</time></trkpt><trkpt lat="42.3279594" lon="14.0096463"><ele>148.0</ele><time>2026-05-02T07:23:23.144Z</time></trkpt><trkpt lat="42.3278823" lon="14.0096428"><ele>148.0</ele><time>2026-05-02T07:23:24.144Z</time></trkpt><trkpt lat="42.3277767" lon="14.009618"><ele>148.20000000000002</ele><time>2026-05-02T07:23:26.144Z</time></trkpt><trkpt lat="42.3277206" lon="14.009564"><ele>148.4</ele><time>2026-05-02T07:23:28.145Z</time></trkpt><trkpt lat="42.3276953" lon="14.0094687"><ele>148.60000000000002</ele><time>2026-05-02T07:23:30.144Z</time></trkpt><trkpt lat="42.3276652" lon="14.0092874"><ele>148.8</ele><time>2026-05-02T07:23:32.145Z</time></trkpt><trkpt lat="42.3276419" lon="14.0091777"><ele>149.0</ele><time>2026-05-02T07:23:33.144Z</time></trkpt><trkpt lat="42.327613" lon="14.0090576"><ele>149.0</ele><time>2026-05-02T07:23:34.145Z</time></trkpt><trkpt lat="42.3275857" lon="14.0089446"><ele>149.0</ele><time>2026-05-02T07:23:35.146Z</time></trkpt><trkpt lat="42.3275534" lon="14.0088395"><ele>149.0</ele><time>2026-05-02T07:23:36.145Z</time></trkpt><trkpt lat="42.3275237" lon="14.0087314"><ele>149.0</ele><time>2026-05-02T07:23:37.145Z</time></trkpt><trkpt lat="42.3274984" lon="14.0086333"><ele>149.0</ele><time>2026-05-02T07:23:38.145Z</time></trkpt><trkpt lat="42.327479" lon="14.0085384"><ele>149.0</ele><time>2026-05-02T07:23:39.144Z</time></trkpt><trkpt lat="42.327463" lon="14.0083875"><ele>150.6</ele><time>2026-05-02T07:23:41.145Z</time></trkpt><trkpt lat="42.3274812" lon="14.008248"><ele>152.2</ele><time>2026-05-02T07:23:43.144Z</time></trkpt><trkpt lat="42.3275453" lon="14.0080935"><ele>153.79999999999998</ele><time>2026-05-02T07:23:45.145Z</time></trkpt><trkpt lat="42.3275909" lon="14.0079997"><ele>155.4</ele><time>2026-05-02T07:23:46.144Z</time></trkpt><trkpt lat="42.3276472" lon="14.0079006"><ele>157.0</ele><time>2026-05-02T07:23:47.145Z</time></trkpt><trkpt lat="42.3277139" lon="14.0078045"><ele>157.0</ele><time>2026-05-02T07:23:48.144Z</time></trkpt><trkpt lat="42.3277894" lon="14.0077132"><ele>157.0</ele><time>2026-05-02T07:23:49.144Z</time></trkpt><trkpt lat="42.3278621" lon="14.0076382"><ele>157.0</ele><time>2026-05-02T07:23:50.145Z</time></trkpt><trkpt lat="42.3279402" lon="14.0075562"><ele>157.0</ele><time>2026-05-02T07:23:51.145Z</time></trkpt><trkpt lat="42.3280128" lon="14.0074656"><ele>157.0</ele><time>2026-05-02T07:23:52.145Z</time></trkpt><trkpt lat="42.3280833" lon="14.0073778"><ele>158.6</ele><time>2026-05-02T07:23:53.145Z</time></trkpt><trkpt lat="42.3281468" lon="14.0072986"><ele>160.2</ele><time>2026-05-02T07:23:54.144Z</time></trkpt><trkpt lat="42.3282212" lon="14.007226"><ele>161.8</ele><time>2026-05-02T07:23:55.144Z</time></trkpt><trkpt lat="42.3283183" lon="14.0071606"><ele>163.4</ele><time>2026-05-02T07:23:56.145Z</time></trkpt><trkpt lat="42.328443" lon="14.0070874"><ele>165.0</ele><time>2026-05-02T07:23:57.145Z</time></trkpt><trkpt lat="42.3285484" lon="14.0070221"><ele>165.0</ele><time>2026-05-02T07:23:58.144Z</time></trkpt><trkpt lat="42.328646" lon="14.0069694"><ele>165.0</ele><time>2026-05-02T07:23:59.144Z</time></trkpt><trkpt lat="42.3287379" lon="14.0069192"><ele>165.0</ele><time>2026-05-02T07:24:00.144Z</time></trkpt><trkpt lat="42.3288216" lon="14.0068744"><ele>165.0</ele><time>2026-05-02T07:24:01.144Z</time></trkpt><trkpt lat="42.3289017" lon="14.0068324"><ele>165.0</ele><time>2026-05-02T07:24:02.144Z</time></trkpt><trkpt lat="42.3289739" lon="14.0067948"><ele>165.33333333333334</ele><time>2026-05-02T07:24:03.145Z</time></trkpt><trkpt lat="42.3290326" lon="14.0067585"><ele>165.66666666666666</ele><time>2026-05-02T07:24:04.145Z</time></trkpt><trkpt lat="42.3290924" lon="14.0067185"><ele>166.0</ele><time>2026-05-02T07:24:05.145Z</time></trkpt><trkpt lat="42.3291497" lon="14.0066733"><ele>166.33333333333331</ele><time>2026-05-02T07:24:06.145Z</time></trkpt><trkpt lat="42.3292318" lon="14.0065929"><ele>166.66666666666666</ele><time>2026-05-02T07:24:08.145Z</time></trkpt><trkpt lat="42.32929" lon="14.0065043"><ele>167.0</ele><time>2026-05-02T07:24:10.145Z</time></trkpt><trkpt lat="42.3293293" lon="14.0064205"><ele>167.0</ele><time>2026-05-02T07:24:12.144Z</time></trkpt><trkpt lat="42.3293876" lon="14.0063302"><ele>167.0</ele><time>2026-05-02T07:24:14.145Z</time></trkpt><trkpt lat="42.3294966" lon="14.0062719"><ele>167.0</ele><time>2026-05-02T07:24:16.144Z</time></trkpt><trkpt lat="42.3295617" lon="14.00624"><ele>167.0</ele><time>2026-05-02T07:24:17.145Z</time></trkpt><trkpt lat="42.3296213" lon="14.0062064"><ele>167.0</ele><time>2026-05-02T07:24:18.144Z</time></trkpt><trkpt lat="42.3297233" lon="14.0061552"><ele>167.0</ele><time>2026-05-02T07:24:20.144Z</time></trkpt><trkpt lat="42.3298389" lon="14.0060955"><ele>169.16666666666666</ele><time>2026-05-02T07:24:22.144Z</time></trkpt><trkpt lat="42.3298999" lon="14.0060665"><ele>171.33333333333331</ele><time>2026-05-02T07:24:23.144Z</time></trkpt><trkpt lat="42.3299634" lon="14.0060449"><ele>173.5</ele><time>2026-05-02T07:24:24.145Z</time></trkpt><trkpt lat="42.3300777" lon="14.0059732"><ele>175.66666666666666</ele><time>2026-05-02T07:24:26.144Z</time></trkpt><trkpt lat="42.3301387" lon="14.0059478"><ele>177.83333333333334</ele><time>2026-05-02T07:24:27.145Z</time></trkpt><trkpt lat="42.3301999" lon="14.0059124"><ele>180.0</ele><time>2026-05-02T07:24:28.144Z</time></trkpt><trkpt lat="42.3302571" lon="14.0058749"><ele>180.0</ele><time>2026-05-02T07:24:29.145Z</time></trkpt><trkpt lat="42.3303214" lon="14.0058475"><ele>180.0</ele><time>2026-05-02T07:24:30.145Z</time></trkpt><trkpt lat="42.3303761" lon="14.0058016"><ele>180.0</ele><time>2026-05-02T07:24:31.144Z</time></trkpt><trkpt lat="42.3304263" lon="14.0057464"><ele>180.0</ele><time>2026-05-02T07:24:32.144Z</time></trkpt><trkpt lat="42.3305223" lon="14.0056473"><ele>180.0</ele><time>2026-05-02T07:24:34.146Z</time></trkpt><trkpt lat="42.3306122" lon="14.0055299"><ele>180.0</ele><time>2026-05-02T07:24:36.145Z</time></trkpt><trkpt lat="42.3306596" lon="14.0054689"><ele>183.83333333333334</ele><time>2026-05-02T07:24:37.144Z</time></trkpt><trkpt lat="42.330714" lon="14.005403"><ele>187.66666666666669</ele><time>2026-05-02T07:24:38.145Z</time></trkpt><trkpt lat="42.3307684" lon="14.0053359"><ele>191.5</ele><time>2026-05-02T07:24:39.144Z</time></trkpt><trkpt lat="42.3308291" lon="14.0052689"><ele>195.33333333333334</ele><time>2026-05-02T07:24:40.145Z</time></trkpt><trkpt lat="42.3308888" lon="14.0052009"><ele>199.16666666666669</ele><time>2026-05-02T07:24:41.145Z</time></trkpt><trkpt lat="42.3309487" lon="14.0051315"><ele>203.0</ele><time>2026-05-02T07:24:42.146Z</time></trkpt><trkpt lat="42.3310022" lon="14.0050659"><ele>203.0</ele><time>2026-05-02T07:24:43.144Z</time></trkpt><trkpt lat="42.3310498" lon="14.0049977"><ele>203.0</ele><time>2026-05-02T07:24:44.144Z</time></trkpt><trkpt lat="42.3310894" lon="14.004921"><ele>203.0</ele><time>2026-05-02T07:24:45.146Z</time></trkpt><trkpt lat="42.3311196" lon="14.0048381"><ele>203.0</ele><time>2026-05-02T07:24:46.144Z</time></trkpt><trkpt lat="42.3311475" lon="14.0047505"><ele>203.0</ele><time>2026-05-02T07:24:47.144Z</time></trkpt><trkpt lat="42.3311694" lon="14.0046564"><ele>203.0</ele><time>2026-05-02T07:24:48.144Z</time></trkpt><trkpt lat="42.3311842" lon="14.0045573"><ele>203.0</ele><time>2026-05-02T07:24:49.145Z</time></trkpt><trkpt lat="42.3311925" lon="14.0044582"><ele>204.4</ele><time>2026-05-02T07:24:50.145Z</time></trkpt><trkpt lat="42.3311798" lon="14.0042909"><ele>205.8</ele><time>2026-05-02T07:24:52.145Z</time></trkpt><trkpt lat="42.3311593" lon="14.0041345"><ele>207.2</ele><time>2026-05-02T07:24:54.146Z</time></trkpt><trkpt lat="42.3311169" lon="14.0040111"><ele>208.6</ele><time>2026-05-02T07:24:56.144Z</time></trkpt><trkpt lat="42.3310798" lon="14.0039098"><ele>210.0</ele><time>2026-05-02T07:24:58.145Z</time></trkpt><trkpt lat="42.3310158" lon="14.0039362"><ele>210.85714285714286</ele><time>2026-05-02T07:25:01.145Z</time></trkpt><trkpt lat="42.3309628" lon="14.00404"><ele>211.71428571428572</ele><time>2026-05-02T07:25:03.145Z</time></trkpt><trkpt lat="42.330903" lon="14.0040923"><ele>212.57142857142856</ele><time>2026-05-02T07:25:05.144Z</time></trkpt><trkpt lat="42.3308441" lon="14.0041369"><ele>213.42857142857144</ele><time>2026-05-02T07:25:07.145Z</time></trkpt><trkpt lat="42.3307778" lon="14.0041187"><ele>214.28571428571428</ele><time>2026-05-02T07:25:50.144Z</time></trkpt><trkpt lat="42.3307136" lon="14.0041143"><ele>215.14285714285714</ele><time>2026-05-02T07:25:52.145Z</time></trkpt><trkpt lat="42.3306352" lon="14.0040982"><ele>216.0</ele><time>2026-05-02T07:25:54.144Z</time></trkpt><trkpt lat="42.3305507" lon="14.0040859"><ele>212.66666666666666</ele><time>2026-05-02T07:25:56.145Z</time></trkpt><trkpt lat="42.3304739" lon="14.0040864"><ele>209.33333333333331</ele><time>2026-05-02T07:25:58.144Z</time></trkpt><trkpt lat="42.3303965" lon="14.0041049"><ele>206.0</ele><time>2026-05-02T07:26:00.146Z</time></trkpt><trkpt lat="42.3303271" lon="14.004141"><ele>202.66666666666666</ele><time>2026-05-02T07:26:02.144Z</time></trkpt><trkpt lat="42.3302606" lon="14.0041802"><ele>199.33333333333331</ele><time>2026-05-02T07:26:04.145Z</time></trkpt><trkpt lat="42.3301946" lon="14.0042239"><ele>196.0</ele><time>2026-05-02T07:26:06.146Z</time></trkpt><trkpt lat="42.3301117" lon="14.0042786"><ele>194.8</ele><time>2026-05-02T07:26:08.144Z</time></trkpt><trkpt lat="42.3300148" lon="14.0043373"><ele>193.60000000000002</ele><time>2026-05-02T07:26:10.144Z</time></trkpt><trkpt lat="42.3299153" lon="14.004401"><ele>192.4</ele><time>2026-05-02T07:26:12.145Z</time></trkpt><trkpt lat="42.3298205" lon="14.0044575"><ele>191.2</ele><time>2026-05-02T07:26:14.144Z</time></trkpt><trkpt lat="42.329722" lon="14.0045004"><ele>190.0</ele><time>2026-05-02T07:26:16.146Z</time></trkpt><trkpt lat="42.3296317" lon="14.0045313"><ele>186.2</ele><time>2026-05-02T07:26:18.144Z</time></trkpt><trkpt lat="42.3295431" lon="14.0045449"><ele>182.4</ele><time>2026-05-02T07:26:20.145Z</time></trkpt><trkpt lat="42.3294297" lon="14.0045473"><ele>178.60000000000002</ele><time>2026-05-02T07:26:22.145Z</time></trkpt><trkpt lat="42.3293214" lon="14.0045149"><ele>174.8</ele><time>2026-05-02T07:26:24.144Z</time></trkpt><trkpt lat="42.3292288" lon="14.0044695"><ele>171.0</ele><time>2026-05-02T07:26:26.144Z</time></trkpt><trkpt lat="42.3291376" lon="14.0044136"><ele>171.0</ele><time>2026-05-02T07:26:28.144Z</time></trkpt><trkpt lat="42.3290395" lon="14.0043517"><ele>171.0</ele><time>2026-05-02T07:26:30.144Z</time></trkpt><trkpt lat="42.3289442" lon="14.0042883"><ele>171.0</ele><time>2026-05-02T07:26:32.144Z</time></trkpt><trkpt lat="42.3288481" lon="14.0042313"><ele>171.0</ele><time>2026-05-02T07:26:34.146Z</time></trkpt><trkpt lat="42.3287589" lon="14.0041744"><ele>171.0</ele><time>2026-05-02T07:26:36.145Z</time></trkpt><trkpt lat="42.3286556" lon="14.0041056"><ele>169.5</ele><time>2026-05-02T07:26:38.145Z</time></trkpt><trkpt lat="42.3285764" lon="14.004004"><ele>168.0</ele><time>2026-05-02T07:26:40.144Z</time></trkpt><trkpt lat="42.3285247" lon="14.003872"><ele>166.5</ele><time>2026-05-02T07:26:42.144Z</time></trkpt><trkpt lat="42.328493" lon="14.0037806"><ele>165.0</ele><time>2026-05-02T07:26:43.146Z</time></trkpt><trkpt lat="42.3284561" lon="14.0036917"><ele>163.5</ele><time>2026-05-02T07:26:44.145Z</time></trkpt><trkpt lat="42.3284172" lon="14.0036039"><ele>162.0</ele><time>2026-05-02T07:26:45.144Z</time></trkpt><trkpt lat="42.328375" lon="14.0035294"><ele>162.0</ele><time>2026-05-02T07:26:46.145Z</time></trkpt><trkpt lat="42.3283116" lon="14.003414"><ele>162.0</ele><time>2026-05-02T07:26:48.144Z</time></trkpt><trkpt lat="42.3282528" lon="14.0033038"><ele>162.0</ele><time>2026-05-02T07:27:05.144Z</time></trkpt><trkpt lat="42.3281979" lon="14.0032281"><ele>162.0</ele><time>2026-05-02T07:27:07.145Z</time></trkpt><trkpt lat="42.3281466" lon="14.0031516"><ele>162.0</ele><time>2026-05-02T07:27:09.145Z</time></trkpt><trkpt lat="42.3281023" lon="14.003084"><ele>162.0</ele><time>2026-05-02T07:27:11.145Z</time></trkpt><trkpt lat="42.3280389" lon="14.0030019"><ele>162.0</ele><time>2026-05-02T07:27:13.144Z</time></trkpt><trkpt lat="42.3279487" lon="14.0028692"><ele>162.0</ele><time>2026-05-02T07:27:15.145Z</time></trkpt><trkpt lat="42.3278987" lon="14.0027935"><ele>162.0</ele><time>2026-05-02T07:27:16.145Z</time></trkpt><trkpt lat="42.3278523" lon="14.0027159"><ele>162.0</ele><time>2026-05-02T07:27:17.144Z</time></trkpt><trkpt lat="42.3278019" lon="14.0026358"><ele>162.0</ele><time>2026-05-02T07:27:18.144Z</time></trkpt><trkpt lat="42.3277513" lon="14.002549"><ele>162.0</ele><time>2026-05-02T07:27:19.144Z</time></trkpt><trkpt lat="42.327701" lon="14.002472"><ele>162.0</ele><time>2026-05-02T07:27:20.145Z</time></trkpt><trkpt lat="42.3276494" lon="14.0023953"><ele>162.0</ele><time>2026-05-02T07:27:21.145Z</time></trkpt><trkpt lat="42.3275929" lon="14.0023139"><ele>162.0</ele><time>2026-05-02T07:27:22.145Z</time></trkpt><trkpt lat="42.3275451" lon="14.0022372"><ele>162.0</ele><time>2026-05-02T07:27:23.145Z</time></trkpt><trkpt lat="42.3275008" lon="14.0021661"><ele>162.0</ele><time>2026-05-02T07:27:24.144Z</time></trkpt><trkpt lat="42.327459" lon="14.0020969"><ele>162.0</ele><time>2026-05-02T07:27:25.144Z</time></trkpt><trkpt lat="42.3274222" lon="14.0020239"><ele>162.0</ele><time>2026-05-02T07:27:26.145Z</time></trkpt><trkpt lat="42.3273825" lon="14.0019358"><ele>162.0</ele><time>2026-05-02T07:27:27.144Z</time></trkpt><trkpt lat="42.3273511" lon="14.0018335"><ele>162.0</ele><time>2026-05-02T07:27:28.144Z</time></trkpt><trkpt lat="42.3273325" lon="14.0017258"><ele>162.0</ele><time>2026-05-02T07:27:29.145Z</time></trkpt><trkpt lat="42.3273203" lon="14.0016115"><ele>162.0</ele><time>2026-05-02T07:27:30.144Z</time></trkpt><trkpt lat="42.3273158" lon="14.0014913"><ele>162.0</ele><time>2026-05-02T07:27:31.144Z</time></trkpt><trkpt lat="42.3273089" lon="14.0013633"><ele>162.0</ele><time>2026-05-02T07:27:32.145Z</time></trkpt><trkpt lat="42.3273021" lon="14.0012366"><ele>162.5</ele><time>2026-05-02T07:27:33.144Z</time></trkpt><trkpt lat="42.3272985" lon="14.0011341"><ele>163.0</ele><time>2026-05-02T07:27:34.144Z</time></trkpt><trkpt lat="42.3272978" lon="14.000985"><ele>163.5</ele><time>2026-05-02T07:27:36.145Z</time></trkpt><trkpt lat="42.3272974" lon="14.0008983"><ele>164.0</ele><time>2026-05-02T07:27:38.144Z</time></trkpt><trkpt lat="42.3272591" lon="14.0007896"><ele>164.5</ele><time>2026-05-02T07:28:00.144Z</time></trkpt><trkpt lat="42.3271693" lon="14.0007748"><ele>165.0</ele><time>2026-05-02T07:28:02.145Z</time></trkpt><trkpt lat="42.3270924" lon="14.0007528"><ele>163.6</ele><time>2026-05-02T07:28:03.144Z</time></trkpt><trkpt lat="42.3270038" lon="14.0007248"><ele>162.2</ele><time>2026-05-02T07:28:04.145Z</time></trkpt><trkpt lat="42.3269017" lon="14.000695"><ele>160.8</ele><time>2026-05-02T07:28:05.145Z</time></trkpt><trkpt lat="42.3267993" lon="14.0006633"><ele>159.4</ele><time>2026-05-02T07:28:06.144Z</time></trkpt><trkpt lat="42.3266993" lon="14.0006246"><ele>158.0</ele><time>2026-05-02T07:28:07.144Z</time></trkpt><trkpt lat="42.3266072" lon="14.0005701"><ele>158.0</ele><time>2026-05-02T07:28:08.145Z</time></trkpt><trkpt lat="42.3265166" lon="14.0005033"><ele>158.0</ele><time>2026-05-02T07:28:09.145Z</time></trkpt><trkpt lat="42.3264146" lon="14.0004193"><ele>158.0</ele><time>2026-05-02T07:28:10.144Z</time></trkpt><trkpt lat="42.3263071" lon="14.0003249"><ele>158.0</ele><time>2026-05-02T07:28:11.143Z</time></trkpt><trkpt lat="42.3261957" lon="14.0002394"><ele>155.75</ele><time>2026-05-02T07:28:12.143Z</time></trkpt><trkpt lat="42.3260906" lon="14.0001663"><ele>153.5</ele><time>2026-05-02T07:28:13.144Z</time></trkpt><trkpt lat="42.3259896" lon="14.0000944"><ele>151.25</ele><time>2026-05-02T07:28:14.144Z</time></trkpt><trkpt lat="42.3258977" lon="14.0000154"><ele>149.0</ele><time>2026-05-02T07:28:15.143Z</time></trkpt><trkpt lat="42.3258157" lon="13.9999165"><ele>149.0</ele><time>2026-05-02T07:28:16.143Z</time></trkpt><trkpt lat="42.3257362" lon="13.9998158"><ele>149.0</ele><time>2026-05-02T07:28:17.144Z</time></trkpt><trkpt lat="42.325654" lon="13.9997026"><ele>149.0</ele><time>2026-05-02T07:28:18.143Z</time></trkpt><trkpt lat="42.3255697" lon="13.9995928"><ele>149.0</ele><time>2026-05-02T07:28:19.143Z</time></trkpt><trkpt lat="42.325473" lon="13.9994948"><ele>148.0</ele><time>2026-05-02T07:28:20.143Z</time></trkpt><trkpt lat="42.3253639" lon="13.9994027"><ele>147.0</ele><time>2026-05-02T07:28:21.144Z</time></trkpt><trkpt lat="42.3252633" lon="13.9993238"><ele>146.0</ele><time>2026-05-02T07:28:22.143Z</time></trkpt><trkpt lat="42.3251723" lon="13.9992652"><ele>145.0</ele><time>2026-05-02T07:28:23.144Z</time></trkpt><trkpt lat="42.3250955" lon="13.9992254"><ele>144.0</ele><time>2026-05-02T07:28:24.143Z</time></trkpt><trkpt lat="42.3249979" lon="13.9991882"><ele>144.0</ele><time>2026-05-02T07:28:26.143Z</time></trkpt><trkpt lat="42.3249172" lon="13.9992375"><ele>144.0</ele><time>2026-05-02T07:28:28.143Z</time></trkpt><trkpt lat="42.3248451" lon="13.9993172"><ele>144.0</ele><time>2026-05-02T07:28:30.145Z</time></trkpt><trkpt lat="42.3247881" lon="13.9993764"><ele>144.0</ele><time>2026-05-02T07:28:31.143Z</time></trkpt><trkpt lat="42.3247222" lon="13.9994453"><ele>144.0</ele><time>2026-05-02T07:28:32.144Z</time></trkpt><trkpt lat="42.3246498" lon="13.9995127"><ele>144.0</ele><time>2026-05-02T07:28:33.143Z</time></trkpt><trkpt lat="42.3245678" lon="13.9995973"><ele>144.25</ele><time>2026-05-02T07:28:34.144Z</time></trkpt><trkpt lat="42.3244804" lon="13.999681"><ele>144.5</ele><time>2026-05-02T07:28:35.144Z</time></trkpt><trkpt lat="42.3243937" lon="13.9997379"><ele>144.75</ele><time>2026-05-02T07:28:36.143Z</time></trkpt><trkpt lat="42.3242904" lon="13.9997899"><ele>145.0</ele><time>2026-05-02T07:28:37.143Z</time></trkpt><trkpt lat="42.3241617" lon="13.9998518"><ele>145.0</ele><time>2026-05-02T07:28:38.143Z</time></trkpt><trkpt lat="42.3240202" lon="13.9999262"><ele>145.0</ele><time>2026-05-02T07:28:39.145Z</time></trkpt><trkpt lat="42.3238884" lon="13.9999971"><ele>145.0</ele><time>2026-05-02T07:28:40.144Z</time></trkpt><trkpt lat="42.3237576" lon="14.0000654"><ele>145.0</ele><time>2026-05-02T07:28:41.144Z</time></trkpt><trkpt lat="42.3236481" lon="14.0001341"><ele>145.0</ele><time>2026-05-02T07:28:42.144Z</time></trkpt><trkpt lat="42.323556" lon="14.0001936"><ele>145.0</ele><time>2026-05-02T07:28:43.144Z</time></trkpt><trkpt lat="42.3234922" lon="14.0002391"><ele>145.0</ele><time>2026-05-02T07:28:44.144Z</time></trkpt><trkpt lat="42.3234167" lon="14.0002976"><ele>145.0</ele><time>2026-05-02T07:28:45.144Z</time></trkpt><trkpt lat="42.3233253" lon="14.0003669"><ele>145.0</ele><time>2026-05-02T07:28:46.143Z</time></trkpt><trkpt lat="42.3232549" lon="14.0004196"><ele>145.0</ele><time>2026-05-02T07:28:47.143Z</time></trkpt><trkpt lat="42.3231967" lon="14.0004666"><ele>145.0</ele><time>2026-05-02T07:28:48.143Z</time></trkpt><trkpt lat="42.3231049" lon="14.0005336"><ele>145.0</ele><time>2026-05-02T07:28:50.143Z</time></trkpt><trkpt lat="42.3230389" lon="14.0005255"><ele>145.0</ele><time>2026-05-02T07:28:52.144Z</time></trkpt><trkpt lat="42.3229686" lon="14.0003884"><ele>145.0</ele><time>2026-05-02T07:28:54.143Z</time></trkpt><trkpt lat="42.3229383" lon="14.0002728"><ele>145.0</ele><time>2026-05-02T07:28:55.144Z</time></trkpt><trkpt lat="42.322905" lon="14.0001566"><ele>142.5</ele><time>2026-05-02T07:28:56.143Z</time></trkpt><trkpt lat="42.3228611" lon="14.0000175"><ele>140.0</ele><time>2026-05-02T07:28:57.143Z</time></trkpt><trkpt lat="42.3227992" lon="13.9998359"><ele>137.5</ele><time>2026-05-02T07:28:58.143Z</time></trkpt><trkpt lat="42.3227299" lon="13.9996304"><ele>135.0</ele><time>2026-05-02T07:28:59.144Z</time></trkpt><trkpt lat="42.3226485" lon="13.9993985"><ele>136.33333333333334</ele><time>2026-05-02T07:29:00.143Z</time></trkpt><trkpt lat="42.3225644" lon="13.9991481"><ele>137.66666666666669</ele><time>2026-05-02T07:29:01.143Z</time></trkpt><trkpt lat="42.3224796" lon="13.9988788"><ele>139.0</ele><time>2026-05-02T07:29:02.144Z</time></trkpt><trkpt lat="42.3223934" lon="13.9986169"><ele>139.0</ele><time>2026-05-02T07:29:03.144Z</time></trkpt><trkpt lat="42.3223063" lon="13.998353"><ele>139.0</ele><time>2026-05-02T07:29:04.144Z</time></trkpt><trkpt lat="42.3222207" lon="13.9980785"><ele>139.0</ele><time>2026-05-02T07:29:05.143Z</time></trkpt><trkpt lat="42.3221402" lon="13.9978007"><ele>136.5</ele><time>2026-05-02T07:29:06.144Z</time></trkpt><trkpt lat="42.3220562" lon="13.9975201"><ele>134.0</ele><time>2026-05-02T07:29:07.143Z</time></trkpt><trkpt lat="42.3219647" lon="13.9972339"><ele>134.0</ele><time>2026-05-02T07:29:08.143Z</time></trkpt><trkpt lat="42.3218754" lon="13.9969457"><ele>134.0</ele><time>2026-05-02T07:29:09.143Z</time></trkpt><trkpt lat="42.3217863" lon="13.9966595"><ele>133.5</ele><time>2026-05-02T07:29:10.144Z</time></trkpt><trkpt lat="42.3216981" lon="13.9963666"><ele>133.0</ele><time>2026-05-02T07:29:11.144Z</time></trkpt><trkpt lat="42.3216046" lon="13.9960797"><ele>133.5</ele><time>2026-05-02T07:29:12.143Z</time></trkpt><trkpt lat="42.3215096" lon="13.9957977"><ele>134.0</ele><time>2026-05-02T07:29:13.143Z</time></trkpt><trkpt lat="42.3214163" lon="13.9955197"><ele>133.66666666666666</ele><time>2026-05-02T07:29:14.143Z</time></trkpt><trkpt lat="42.3213211" lon="13.9952449"><ele>133.33333333333334</ele><time>2026-05-02T07:29:15.143Z</time></trkpt><trkpt lat="42.321225" lon="13.9949741"><ele>133.0</ele><time>2026-05-02T07:29:16.143Z</time></trkpt><trkpt lat="42.3211317" lon="13.9947148"><ele>133.0</ele><time>2026-05-02T07:29:17.143Z</time></trkpt><trkpt lat="42.3210309" lon="13.9944635"><ele>133.0</ele><time>2026-05-02T07:29:18.144Z</time></trkpt><trkpt lat="42.32094" lon="13.9942392"><ele>133.0</ele><time>2026-05-02T07:29:19.143Z</time></trkpt><trkpt lat="42.3208547" lon="13.9940474"><ele>133.25</ele><time>2026-05-02T07:29:20.143Z</time></trkpt><trkpt lat="42.3207755" lon="13.9938801"><ele>133.5</ele><time>2026-05-02T07:29:21.144Z</time></trkpt><trkpt lat="42.3207089" lon="13.9937469"><ele>133.75</ele><time>2026-05-02T07:29:22.145Z</time></trkpt><trkpt lat="42.3206557" lon="13.9936504"><ele>134.0</ele><time>2026-05-02T07:29:23.143Z</time></trkpt><trkpt lat="42.3205711" lon="13.9935824"><ele>135.0</ele><time>2026-05-02T07:29:25.143Z</time></trkpt><trkpt lat="42.3204975" lon="13.9936629"><ele>136.0</ele><time>2026-05-02T07:29:27.144Z</time></trkpt><trkpt lat="42.3204246" lon="13.9937255"><ele>137.0</ele><time>2026-05-02T07:29:29.143Z</time></trkpt><trkpt lat="42.3203202" lon="13.9938177"><ele>138.0</ele><time>2026-05-02T07:29:31.143Z</time></trkpt><trkpt lat="42.3202515" lon="13.9938801"><ele>139.0</ele><time>2026-05-02T07:29:32.144Z</time></trkpt><trkpt lat="42.3201765" lon="13.9939665"><ele>139.0</ele><time>2026-05-02T07:29:33.144Z</time></trkpt><trkpt lat="42.3201095" lon="13.9940605"><ele>139.0</ele><time>2026-05-02T07:29:34.144Z</time></trkpt><trkpt lat="42.3200502" lon="13.994167"><ele>139.0</ele><time>2026-05-02T07:29:35.145Z</time></trkpt><trkpt lat="42.3199715" lon="13.9943021"><ele>139.0</ele><time>2026-05-02T07:29:36.143Z</time></trkpt><trkpt lat="42.3198791" lon="13.9944509"><ele>138.75</ele><time>2026-05-02T07:29:37.144Z</time></trkpt><trkpt lat="42.3197929" lon="13.9945889"><ele>138.5</ele><time>2026-05-02T07:29:38.144Z</time></trkpt><trkpt lat="42.3197019" lon="13.9947322"><ele>138.25</ele><time>2026-05-02T07:29:39.145Z</time></trkpt><trkpt lat="42.3196046" lon="13.9948849"><ele>138.0</ele><time>2026-05-02T07:29:40.144Z</time></trkpt><trkpt lat="42.3195073" lon="13.9950605"><ele>139.0</ele><time>2026-05-02T07:29:41.144Z</time></trkpt><trkpt lat="42.3194155" lon="13.9952459"><ele>140.0</ele><time>2026-05-02T07:29:42.145Z</time></trkpt><trkpt lat="42.3193306" lon="13.9954272"><ele>141.0</ele><time>2026-05-02T07:29:43.144Z</time></trkpt><trkpt lat="42.3192454" lon="13.9956085"><ele>141.0</ele><time>2026-05-02T07:29:44.143Z</time></trkpt><trkpt lat="42.3191537" lon="13.9958102"><ele>141.0</ele><time>2026-05-02T07:29:45.143Z</time></trkpt><trkpt lat="42.3190552" lon="13.996027"><ele>141.0</ele><time>2026-05-02T07:29:46.143Z</time></trkpt><trkpt lat="42.318956" lon="13.9962545"><ele>143.33333333333334</ele><time>2026-05-02T07:29:47.144Z</time></trkpt><trkpt lat="42.3188653" lon="13.9964478"><ele>145.66666666666669</ele><time>2026-05-02T07:29:48.145Z</time></trkpt><trkpt lat="42.3187875" lon="13.996617"><ele>148.0</ele><time>2026-05-02T07:29:49.143Z</time></trkpt><trkpt lat="42.3187192" lon="13.996777"><ele>148.0</ele><time>2026-05-02T07:29:50.145Z</time></trkpt><trkpt lat="42.3186707" lon="13.9969493"><ele>148.0</ele><time>2026-05-02T07:29:51.143Z</time></trkpt><trkpt lat="42.3186357" lon="13.9971504"><ele>148.0</ele><time>2026-05-02T07:29:52.143Z</time></trkpt><trkpt lat="42.3186076" lon="13.9973653"><ele>147.66666666666669</ele><time>2026-05-02T07:29:53.143Z</time></trkpt><trkpt lat="42.3185783" lon="13.9975886"><ele>147.33333333333334</ele><time>2026-05-02T07:29:54.143Z</time></trkpt><trkpt lat="42.3185513" lon="13.9978034"><ele>147.0</ele><time>2026-05-02T07:29:55.143Z</time></trkpt><trkpt lat="42.3185273" lon="13.9980208"><ele>147.0</ele><time>2026-05-02T07:29:56.143Z</time></trkpt><trkpt lat="42.3185034" lon="13.9982387"><ele>147.0</ele><time>2026-05-02T07:29:57.144Z</time></trkpt><trkpt lat="42.3184809" lon="13.9984416"><ele>147.0</ele><time>2026-05-02T07:29:58.144Z</time></trkpt><trkpt lat="42.3184589" lon="13.9986685"><ele>146.33333333333334</ele><time>2026-05-02T07:29:59.145Z</time></trkpt><trkpt lat="42.3184427" lon="13.9989276"><ele>145.66666666666669</ele><time>2026-05-02T07:30:00.143Z</time></trkpt><trkpt lat="42.3184261" lon="13.999207"><ele>145.0</ele><time>2026-05-02T07:30:01.144Z</time></trkpt><trkpt lat="42.3184097" lon="13.9994751"><ele>143.0</ele><time>2026-05-02T07:30:02.144Z</time></trkpt><trkpt lat="42.3183952" lon="13.9997305"><ele>141.0</ele><time>2026-05-02T07:30:03.144Z</time></trkpt><trkpt lat="42.3183809" lon="13.9999903"><ele>139.0</ele><time>2026-05-02T07:30:04.144Z</time></trkpt><trkpt lat="42.3183706" lon="14.0002295"><ele>139.0</ele><time>2026-05-02T07:30:05.143Z</time></trkpt><trkpt lat="42.3183543" lon="14.0004535"><ele>139.0</ele><time>2026-05-02T07:30:06.143Z</time></trkpt><trkpt lat="42.3183424" lon="14.0006637"><ele>139.0</ele><time>2026-05-02T07:30:07.143Z</time></trkpt><trkpt lat="42.3183306" lon="14.00086"><ele>138.0</ele><time>2026-05-02T07:30:08.144Z</time></trkpt><trkpt lat="42.3183154" lon="14.0010437"><ele>137.0</ele><time>2026-05-02T07:30:09.144Z</time></trkpt><trkpt lat="42.3182938" lon="14.0012079"><ele>136.0</ele><time>2026-05-02T07:30:10.144Z</time></trkpt><trkpt lat="42.3182651" lon="14.0013528"><ele>135.0</ele><time>2026-05-02T07:30:11.145Z</time></trkpt><trkpt lat="42.3182329" lon="14.0014671"><ele>135.0</ele><time>2026-05-02T07:30:12.144Z</time></trkpt><trkpt lat="42.3182152" lon="14.0015499"><ele>135.0</ele><time>2026-05-02T07:30:13.144Z</time></trkpt><trkpt lat="42.3181969" lon="14.0017151"><ele>135.0</ele><time>2026-05-02T07:30:15.145Z</time></trkpt><trkpt lat="42.3182104" lon="14.0018182"><ele>135.0</ele><time>2026-05-02T07:30:16.145Z</time></trkpt><trkpt lat="42.3182405" lon="14.0019591"><ele>135.0</ele><time>2026-05-02T07:30:17.144Z</time></trkpt><trkpt lat="42.3182789" lon="14.0021327"><ele>133.66666666666666</ele><time>2026-05-02T07:30:18.143Z</time></trkpt><trkpt lat="42.318321" lon="14.0023446"><ele>132.33333333333331</ele><time>2026-05-02T07:30:19.144Z</time></trkpt><trkpt lat="42.3183549" lon="14.0025615"><ele>131.0</ele><time>2026-05-02T07:30:20.143Z</time></trkpt><trkpt lat="42.3183829" lon="14.0027849"><ele>129.25</ele><time>2026-05-02T07:30:21.144Z</time></trkpt><trkpt lat="42.3183958" lon="14.002999"><ele>127.5</ele><time>2026-05-02T07:30:22.145Z</time></trkpt><trkpt lat="42.31841" lon="14.0032011"><ele>125.75</ele><time>2026-05-02T07:30:23.144Z</time></trkpt><trkpt lat="42.3184137" lon="14.0033845"><ele>124.0</ele><time>2026-05-02T07:30:24.143Z</time></trkpt><trkpt lat="42.3184023" lon="14.0035536"><ele>123.0</ele><time>2026-05-02T07:30:25.143Z</time></trkpt><trkpt lat="42.318379" lon="14.0037078"><ele>122.0</ele><time>2026-05-02T07:30:26.144Z</time></trkpt><trkpt lat="42.3183402" lon="14.0038655"><ele>121.0</ele><time>2026-05-02T07:30:27.144Z</time></trkpt><trkpt lat="42.3182824" lon="14.0040405"><ele>120.0</ele><time>2026-05-02T07:30:28.145Z</time></trkpt><trkpt lat="42.3182132" lon="14.0042309"><ele>119.0</ele><time>2026-05-02T07:30:29.144Z</time></trkpt><trkpt lat="42.3181496" lon="14.0044288"><ele>118.0</ele><time>2026-05-02T07:30:30.144Z</time></trkpt><trkpt lat="42.3180533" lon="14.0046866"><ele>117.0</ele><time>2026-05-02T07:30:31.144Z</time></trkpt><trkpt lat="42.3179721" lon="14.0049058"><ele>117.0</ele><time>2026-05-02T07:30:32.143Z</time></trkpt><trkpt lat="42.3179029" lon="14.0051172"><ele>117.0</ele><time>2026-05-02T07:30:33.143Z</time></trkpt><trkpt lat="42.3178378" lon="14.0053124"><ele>117.0</ele><time>2026-05-02T07:30:34.143Z</time></trkpt><trkpt lat="42.3177811" lon="14.0054818"><ele>117.0</ele><time>2026-05-02T07:30:35.143Z</time></trkpt><trkpt lat="42.3177155" lon="14.0056716"><ele>117.0</ele><time>2026-05-02T07:30:36.144Z</time></trkpt><trkpt lat="42.3176452" lon="14.005863"><ele>117.0</ele><time>2026-05-02T07:30:37.144Z</time></trkpt><trkpt lat="42.3175734" lon="14.0060341"><ele>118.0</ele><time>2026-05-02T07:30:38.143Z</time></trkpt><trkpt lat="42.3175174" lon="14.0062206"><ele>119.0</ele><time>2026-05-02T07:30:39.144Z</time></trkpt><trkpt lat="42.3174594" lon="14.0064331"><ele>120.0</ele><time>2026-05-02T07:30:40.144Z</time></trkpt><trkpt lat="42.3173969" lon="14.0066289"><ele>120.0</ele><time>2026-05-02T07:30:41.143Z</time></trkpt><trkpt lat="42.3173354" lon="14.0068151"><ele>120.0</ele><time>2026-05-02T07:30:42.143Z</time></trkpt><trkpt lat="42.3172795" lon="14.0069762"><ele>120.0</ele><time>2026-05-02T07:30:43.143Z</time></trkpt><trkpt lat="42.3172389" lon="14.0071021"><ele>120.0</ele><time>2026-05-02T07:30:44.143Z</time></trkpt><trkpt lat="42.3172053" lon="14.0071902"><ele>120.0</ele><time>2026-05-02T07:30:45.143Z</time></trkpt><trkpt lat="42.3171624" lon="14.0072985"><ele>120.0</ele><time>2026-05-02T07:30:47.143Z</time></trkpt><trkpt lat="42.3171382" lon="14.007391"><ele>120.0</ele><time>2026-05-02T07:30:49.143Z</time></trkpt><trkpt lat="42.3171255" lon="14.0074846"><ele>120.0</ele><time>2026-05-02T07:30:50.143Z</time></trkpt><trkpt lat="42.3171061" lon="14.0075802"><ele>120.0</ele><time>2026-05-02T07:30:51.143Z</time></trkpt><trkpt lat="42.3170685" lon="14.0077033"><ele>120.0</ele><time>2026-05-02T07:30:52.143Z</time></trkpt><trkpt lat="42.3170051" lon="14.0078333"><ele>120.0</ele><time>2026-05-02T07:30:53.144Z</time></trkpt><trkpt lat="42.3169264" lon="14.0079563"><ele>120.0</ele><time>2026-05-02T07:30:54.144Z</time></trkpt><trkpt lat="42.3168255" lon="14.0080708"><ele>120.0</ele><time>2026-05-02T07:30:55.143Z</time></trkpt><trkpt lat="42.3167008" lon="14.0081969"><ele>120.0</ele><time>2026-05-02T07:30:56.144Z</time></trkpt><trkpt lat="42.3165884" lon="14.0083154"><ele>118.6</ele><time>2026-05-02T07:30:57.144Z</time></trkpt><trkpt lat="42.3164888" lon="14.0084197"><ele>117.2</ele><time>2026-05-02T07:30:58.143Z</time></trkpt><trkpt lat="42.3164001" lon="14.0085122"><ele>115.80000000000001</ele><time>2026-05-02T07:30:59.144Z</time></trkpt><trkpt lat="42.3163278" lon="14.0085945"><ele>114.4</ele><time>2026-05-02T07:31:00.144Z</time></trkpt><trkpt lat="42.3162735" lon="14.0086657"><ele>113.0</ele><time>2026-05-02T07:31:01.144Z</time></trkpt><trkpt lat="42.3162266" lon="14.0087323"><ele>112.60000000000001</ele><time>2026-05-02T07:31:02.144Z</time></trkpt><trkpt lat="42.3161685" lon="14.0088007"><ele>112.20000000000002</ele><time>2026-05-02T07:31:03.143Z</time></trkpt><trkpt lat="42.3160891" lon="14.0088605"><ele>111.8</ele><time>2026-05-02T07:31:04.143Z</time></trkpt><trkpt lat="42.3159763" lon="14.0089332"><ele>111.4</ele><time>2026-05-02T07:31:05.143Z</time></trkpt><trkpt lat="42.3158432" lon="14.0090345"><ele>111.0</ele><time>2026-05-02T07:31:06.144Z</time></trkpt><trkpt lat="42.3156907" lon="14.0091669"><ele>109.66666666666666</ele><time>2026-05-02T07:31:07.144Z</time></trkpt><trkpt lat="42.3155362" lon="14.0093025"><ele>108.33333333333333</ele><time>2026-05-02T07:31:08.144Z</time></trkpt><trkpt lat="42.3153719" lon="14.0094404"><ele>107.0</ele><time>2026-05-02T07:31:09.143Z</time></trkpt><trkpt lat="42.3151964" lon="14.0095739"><ele>107.0</ele><time>2026-05-02T07:31:10.144Z</time></trkpt><trkpt lat="42.3150156" lon="14.0097112"><ele>107.0</ele><time>2026-05-02T07:31:11.143Z</time></trkpt><trkpt lat="42.3148232" lon="14.0098607"><ele>107.0</ele><time>2026-05-02T07:31:12.144Z</time></trkpt><trkpt lat="42.3146253" lon="14.0100214"><ele>105.5</ele><time>2026-05-02T07:31:13.144Z</time></trkpt><trkpt lat="42.3144199" lon="14.0101894"><ele>104.0</ele><time>2026-05-02T07:31:14.144Z</time></trkpt><trkpt lat="42.3142243" lon="14.0103497"><ele>104.0</ele><time>2026-05-02T07:31:15.144Z</time></trkpt><trkpt lat="42.3140375" lon="14.010497"><ele>104.0</ele><time>2026-05-02T07:31:16.145Z</time></trkpt><trkpt lat="42.313863" lon="14.0106378"><ele>104.0</ele><time>2026-05-02T07:31:17.144Z</time></trkpt><trkpt lat="42.3137015" lon="14.0107649"><ele>103.33333333333333</ele><time>2026-05-02T07:31:18.144Z</time></trkpt><trkpt lat="42.3135444" lon="14.0108801"><ele>102.66666666666666</ele><time>2026-05-02T07:31:19.144Z</time></trkpt><trkpt lat="42.3133812" lon="14.0109632"><ele>102.0</ele><time>2026-05-02T07:31:20.143Z</time></trkpt><trkpt lat="42.3131909" lon="14.0110296"><ele>102.0</ele><time>2026-05-02T07:31:21.144Z</time></trkpt><trkpt lat="42.3129901" lon="14.0110783"><ele>102.0</ele><time>2026-05-02T07:31:22.144Z</time></trkpt><trkpt lat="42.3127756" lon="14.0111247"><ele>102.0</ele><time>2026-05-02T07:31:23.143Z</time></trkpt><trkpt lat="42.3125582" lon="14.011155"><ele>102.0</ele><time>2026-05-02T07:31:24.144Z</time></trkpt><trkpt lat="42.3123355" lon="14.0111646"><ele>102.0</ele><time>2026-05-02T07:31:25.144Z</time></trkpt><trkpt lat="42.3121014" lon="14.0111564"><ele>102.5</ele><time>2026-05-02T07:31:26.144Z</time></trkpt><trkpt lat="42.3118556" lon="14.0111246"><ele>103.0</ele><time>2026-05-02T07:31:27.143Z</time></trkpt><trkpt lat="42.3116058" lon="14.0110782"><ele>102.0</ele><time>2026-05-02T07:31:28.143Z</time></trkpt><trkpt lat="42.3113542" lon="14.0110268"><ele>101.0</ele><time>2026-05-02T07:31:29.143Z</time></trkpt><trkpt lat="42.311103" lon="14.0109806"><ele>101.0</ele><time>2026-05-02T07:31:30.143Z</time></trkpt><trkpt lat="42.3108544" lon="14.0109324"><ele>101.0</ele><time>2026-05-02T07:31:31.144Z</time></trkpt><trkpt lat="42.3106074" lon="14.0108868"><ele>101.0</ele><time>2026-05-02T07:31:32.143Z</time></trkpt><trkpt lat="42.3103637" lon="14.0108387"><ele>101.0</ele><time>2026-05-02T07:31:33.143Z</time></trkpt><trkpt lat="42.310121" lon="14.0107901"><ele>101.5</ele><time>2026-05-02T07:31:34.143Z</time></trkpt><trkpt lat="42.3098847" lon="14.0107461"><ele>102.0</ele><time>2026-05-02T07:31:35.143Z</time></trkpt><trkpt lat="42.3096402" lon="14.0107007"><ele>102.5</ele><time>2026-05-02T07:31:36.144Z</time></trkpt><trkpt lat="42.3093942" lon="14.0106553"><ele>103.0</ele><time>2026-05-02T07:31:37.143Z</time></trkpt><trkpt lat="42.3091461" lon="14.0106077"><ele>103.0</ele><time>2026-05-02T07:31:38.143Z</time></trkpt><trkpt lat="42.3089171" lon="14.0105592"><ele>103.0</ele><time>2026-05-02T07:31:39.144Z</time></trkpt><trkpt lat="42.3087154" lon="14.0105207"><ele>103.0</ele><time>2026-05-02T07:31:40.143Z</time></trkpt><trkpt lat="42.3085446" lon="14.0104967"><ele>105.33333333333334</ele><time>2026-05-02T07:31:41.143Z</time></trkpt><trkpt lat="42.3083926" lon="14.010512"><ele>107.66666666666666</ele><time>2026-05-02T07:31:42.143Z</time></trkpt><trkpt lat="42.3082537" lon="14.0105779"><ele>110.0</ele><time>2026-05-02T07:31:43.143Z</time></trkpt><trkpt lat="42.3081175" lon="14.0106929"><ele>111.33333333333333</ele><time>2026-05-02T07:31:44.143Z</time></trkpt><trkpt lat="42.307987" lon="14.0108117"><ele>112.66666666666666</ele><time>2026-05-02T07:31:45.143Z</time></trkpt><trkpt lat="42.3078584" lon="14.0109261"><ele>114.0</ele><time>2026-05-02T07:31:46.144Z</time></trkpt><trkpt lat="42.3077288" lon="14.0110161"><ele>114.0</ele><time>2026-05-02T07:31:47.143Z</time></trkpt><trkpt lat="42.3075814" lon="14.011065"><ele>114.0</ele><time>2026-05-02T07:31:48.144Z</time></trkpt><trkpt lat="42.3074417" lon="14.0109997"><ele>114.0</ele><time>2026-05-02T07:31:49.144Z</time></trkpt><trkpt lat="42.3072719" lon="14.010804"><ele>116.75</ele><time>2026-05-02T07:31:50.144Z</time></trkpt><trkpt lat="42.3071353" lon="14.0107198"><ele>119.5</ele><time>2026-05-02T07:31:51.143Z</time></trkpt><trkpt lat="42.3070097" lon="14.0106148"><ele>122.25</ele><time>2026-05-02T07:31:52.145Z</time></trkpt><trkpt lat="42.3069155" lon="14.0104617"><ele>125.0</ele><time>2026-05-02T07:31:53.143Z</time></trkpt><trkpt lat="42.3068403" lon="14.0102666"><ele>125.0</ele><time>2026-05-02T07:31:54.143Z</time></trkpt><trkpt lat="42.3067722" lon="14.0100533"><ele>125.0</ele><time>2026-05-02T07:31:55.143Z</time></trkpt><trkpt lat="42.3067078" lon="14.0098118"><ele>125.0</ele><time>2026-05-02T07:31:56.144Z</time></trkpt><trkpt lat="42.3066353" lon="14.0095431"><ele>126.5</ele><time>2026-05-02T07:31:57.144Z</time></trkpt><trkpt lat="42.3065622" lon="14.0092587"><ele>128.0</ele><time>2026-05-02T07:31:58.143Z</time></trkpt><trkpt lat="42.3064818" lon="14.0089498"><ele>136.0</ele><time>2026-05-02T07:31:59.143Z</time></trkpt><trkpt lat="42.3063965" lon="14.0086234"><ele>144.0</ele><time>2026-05-02T07:32:00.145Z</time></trkpt><trkpt lat="42.3063123" lon="14.0082921"><ele>145.0</ele><time>2026-05-02T07:32:01.145Z</time></trkpt><trkpt lat="42.3062343" lon="14.0079874"><ele>146.0</ele><time>2026-05-02T07:32:02.144Z</time></trkpt><trkpt lat="42.3061576" lon="14.007697"><ele>147.0</ele><time>2026-05-02T07:32:03.143Z</time></trkpt><trkpt lat="42.3060768" lon="14.007418"><ele>148.0</ele><time>2026-05-02T07:32:04.144Z</time></trkpt><trkpt lat="42.3059836" lon="14.0071389"><ele>149.0</ele><time>2026-05-02T07:32:05.144Z</time></trkpt><trkpt lat="42.3058792" lon="14.0068609"><ele>148.5</ele><time>2026-05-02T07:32:06.143Z</time></trkpt><trkpt lat="42.3057692" lon="14.0065852"><ele>148.0</ele><time>2026-05-02T07:32:07.144Z</time></trkpt><trkpt lat="42.305623" lon="14.0063285"><ele>155.5</ele><time>2026-05-02T07:32:08.143Z</time></trkpt><trkpt lat="42.3054792" lon="14.0060767"><ele>163.0</ele><time>2026-05-02T07:32:09.143Z</time></trkpt><trkpt lat="42.3053337" lon="14.0058257"><ele>163.0</ele><time>2026-05-02T07:32:10.143Z</time></trkpt><trkpt lat="42.3052004" lon="14.0055724"><ele>163.0</ele><time>2026-05-02T07:32:11.144Z</time></trkpt><trkpt lat="42.3050759" lon="14.0053115"><ele>163.0</ele><time>2026-05-02T07:32:12.144Z</time></trkpt><trkpt lat="42.3049688" lon="14.005057"><ele>163.0</ele><time>2026-05-02T07:32:13.144Z</time></trkpt><trkpt lat="42.3048672" lon="14.0048231"><ele>163.0</ele><time>2026-05-02T07:32:14.143Z</time></trkpt><trkpt lat="42.3047695" lon="14.0045935"><ele>164.75</ele><time>2026-05-02T07:32:15.143Z</time></trkpt><trkpt lat="42.3046867" lon="14.0044229"><ele>166.5</ele><time>2026-05-02T07:32:16.144Z</time></trkpt><trkpt lat="42.3046044" lon="14.004247"><ele>168.25</ele><time>2026-05-02T07:32:17.143Z</time></trkpt><trkpt lat="42.304521" lon="14.0040884"><ele>170.0</ele><time>2026-05-02T07:32:18.144Z</time></trkpt><trkpt lat="42.304441" lon="14.0039815"><ele>170.0</ele><time>2026-05-02T07:32:19.143Z</time></trkpt><trkpt lat="42.304358" lon="14.0039027"><ele>170.0</ele><time>2026-05-02T07:32:20.144Z</time></trkpt><trkpt lat="42.3042469" lon="14.0038522"><ele>170.0</ele><time>2026-05-02T07:32:21.143Z</time></trkpt><trkpt lat="42.304109" lon="14.0038013"><ele>170.0</ele><time>2026-05-02T07:32:22.144Z</time></trkpt><trkpt lat="42.3039521" lon="14.0037348"><ele>168.66666666666666</ele><time>2026-05-02T07:32:23.143Z</time></trkpt><trkpt lat="42.3037867" lon="14.0036461"><ele>167.33333333333334</ele><time>2026-05-02T07:32:24.144Z</time></trkpt><trkpt lat="42.3036021" lon="14.0035287"><ele>166.0</ele><time>2026-05-02T07:32:25.144Z</time></trkpt><trkpt lat="42.3034233" lon="14.0034022"><ele>167.0</ele><time>2026-05-02T07:32:26.144Z</time></trkpt><trkpt lat="42.3032421" lon="14.0032905"><ele>168.0</ele><time>2026-05-02T07:32:27.144Z</time></trkpt><trkpt lat="42.3030655" lon="14.0032074"><ele>169.0</ele><time>2026-05-02T07:32:28.144Z</time></trkpt><trkpt lat="42.3028723" lon="14.0031432"><ele>169.0</ele><time>2026-05-02T07:32:29.144Z</time></trkpt><trkpt lat="42.3026624" lon="14.0030976"><ele>169.0</ele><time>2026-05-02T07:32:30.144Z</time></trkpt><trkpt lat="42.3024648" lon="14.0030817"><ele>169.0</ele><time>2026-05-02T07:32:31.144Z</time></trkpt><trkpt lat="42.3022798" lon="14.0030766"><ele>165.66666666666669</ele><time>2026-05-02T07:32:32.144Z</time></trkpt><trkpt lat="42.302106" lon="14.0030594"><ele>162.33333333333334</ele><time>2026-05-02T07:32:33.143Z</time></trkpt><trkpt lat="42.3019536" lon="14.0030305"><ele>159.0</ele><time>2026-05-02T07:32:34.143Z</time></trkpt><trkpt lat="42.3018202" lon="14.0029706"><ele>159.0</ele><time>2026-05-02T07:32:35.143Z</time></trkpt><trkpt lat="42.3016985" lon="14.0028847"><ele>159.0</ele><time>2026-05-02T07:32:36.144Z</time></trkpt><trkpt lat="42.3016079" lon="14.0027923"><ele>159.0</ele><time>2026-05-02T07:32:37.143Z</time></trkpt><trkpt lat="42.3015309" lon="14.0027201"><ele>159.0</ele><time>2026-05-02T07:32:38.143Z</time></trkpt><trkpt lat="42.3014635" lon="14.0026135"><ele>159.0</ele><time>2026-05-02T07:32:40.143Z</time></trkpt><trkpt lat="42.3014363" lon="14.0025159"><ele>158.2</ele><time>2026-05-02T07:32:42.143Z</time></trkpt><trkpt lat="42.3014016" lon="14.0023325"><ele>157.4</ele><time>2026-05-02T07:32:44.144Z</time></trkpt><trkpt lat="42.3013841" lon="14.0022201"><ele>156.6</ele><time>2026-05-02T07:32:45.143Z</time></trkpt><trkpt lat="42.3013689" lon="14.0020962"><ele>155.8</ele><time>2026-05-02T07:32:46.144Z</time></trkpt><trkpt lat="42.3013506" lon="14.0019614"><ele>155.0</ele><time>2026-05-02T07:32:47.144Z</time></trkpt><trkpt lat="42.3013182" lon="14.0018214"><ele>155.0</ele><time>2026-05-02T07:32:48.143Z</time></trkpt><trkpt lat="42.3012786" lon="14.0016875"><ele>155.0</ele><time>2026-05-02T07:32:49.143Z</time></trkpt><trkpt lat="42.3012302" lon="14.0015484"><ele>155.0</ele><time>2026-05-02T07:32:50.143Z</time></trkpt><trkpt lat="42.301178" lon="14.0013965"><ele>155.0</ele><time>2026-05-02T07:32:51.144Z</time></trkpt><trkpt lat="42.3011208" lon="14.0012445"><ele>156.2</ele><time>2026-05-02T07:32:52.144Z</time></trkpt><trkpt lat="42.3010623" lon="14.0011089"><ele>157.4</ele><time>2026-05-02T07:32:53.144Z</time></trkpt><trkpt lat="42.3010054" lon="14.0009823"><ele>158.60000000000002</ele><time>2026-05-02T07:32:54.143Z</time></trkpt><trkpt lat="42.3009534" lon="14.0008637"><ele>159.8</ele><time>2026-05-02T07:32:55.144Z</time></trkpt><trkpt lat="42.3009025" lon="14.000746"><ele>161.0</ele><time>2026-05-02T07:32:56.143Z</time></trkpt><trkpt lat="42.3008492" lon="14.0006406"><ele>160.4</ele><time>2026-05-02T07:32:57.144Z</time></trkpt><trkpt lat="42.3007966" lon="14.0005475"><ele>159.8</ele><time>2026-05-02T07:32:58.144Z</time></trkpt><trkpt lat="42.3007323" lon="14.000466"><ele>159.20000000000002</ele><time>2026-05-02T07:32:59.144Z</time></trkpt><trkpt lat="42.3006712" lon="14.0003877"><ele>158.60000000000002</ele><time>2026-05-02T07:33:00.143Z</time></trkpt><trkpt lat="42.3006022" lon="14.0002994"><ele>158.0</ele><time>2026-05-02T07:33:01.144Z</time></trkpt><trkpt lat="42.3005174" lon="14.0001943"><ele>158.0</ele><time>2026-05-02T07:33:02.144Z</time></trkpt><trkpt lat="42.3004292" lon="14.0000777"><ele>158.0</ele><time>2026-05-02T07:33:03.145Z</time></trkpt><trkpt lat="42.3003419" lon="13.9999443"><ele>158.0</ele><time>2026-05-02T07:33:04.144Z</time></trkpt><trkpt lat="42.3002683" lon="13.9998007"><ele>158.0</ele><time>2026-05-02T07:33:05.143Z</time></trkpt><trkpt lat="42.300206" lon="13.9996641"><ele>158.0</ele><time>2026-05-02T07:33:06.144Z</time></trkpt><trkpt lat="42.3001477" lon="13.999528"><ele>158.0</ele><time>2026-05-02T07:33:07.145Z</time></trkpt><trkpt lat="42.3000823" lon="13.9993758"><ele>158.0</ele><time>2026-05-02T07:33:08.144Z</time></trkpt><trkpt lat="42.3000037" lon="13.9992236"><ele>158.0</ele><time>2026-05-02T07:33:09.144Z</time></trkpt><trkpt lat="42.2999263" lon="13.9990805"><ele>158.5</ele><time>2026-05-02T07:33:10.144Z</time></trkpt><trkpt lat="42.2998517" lon="13.998936"><ele>159.0</ele><time>2026-05-02T07:33:11.143Z</time></trkpt><trkpt lat="42.2997735" lon="13.99878"><ele>159.5</ele><time>2026-05-02T07:33:12.144Z</time></trkpt><trkpt lat="42.2996967" lon="13.9986257"><ele>160.0</ele><time>2026-05-02T07:33:13.145Z</time></trkpt><trkpt lat="42.2996186" lon="13.9984756"><ele>159.5</ele><time>2026-05-02T07:33:14.145Z</time></trkpt><trkpt lat="42.2995386" lon="13.9983323"><ele>159.0</ele><time>2026-05-02T07:33:15.144Z</time></trkpt><trkpt lat="42.2994608" lon="13.9981966"><ele>158.5</ele><time>2026-05-02T07:33:16.144Z</time></trkpt><trkpt lat="42.2993912" lon="13.9980695"><ele>158.0</ele><time>2026-05-02T07:33:17.144Z</time></trkpt><trkpt lat="42.2993301" lon="13.9979527"><ele>158.0</ele><time>2026-05-02T07:33:18.144Z</time></trkpt><trkpt lat="42.2992762" lon="13.9978359"><ele>158.0</ele><time>2026-05-02T07:33:19.143Z</time></trkpt><trkpt lat="42.2992343" lon="13.9977045"><ele>158.0</ele><time>2026-05-02T07:33:20.144Z</time></trkpt><trkpt lat="42.2992019" lon="13.9975478"><ele>158.0</ele><time>2026-05-02T07:33:21.144Z</time></trkpt><trkpt lat="42.2991777" lon="13.9973859"><ele>158.0</ele><time>2026-05-02T07:33:22.144Z</time></trkpt><trkpt lat="42.2991623" lon="13.9972296"><ele>158.0</ele><time>2026-05-02T07:33:23.143Z</time></trkpt><trkpt lat="42.2991587" lon="13.9970498"><ele>158.0</ele><time>2026-05-02T07:33:24.144Z</time></trkpt><trkpt lat="42.299155" lon="13.9968634"><ele>158.0</ele><time>2026-05-02T07:33:25.143Z</time></trkpt><trkpt lat="42.299137" lon="13.996689"><ele>157.5</ele><time>2026-05-02T07:33:26.144Z</time></trkpt><trkpt lat="42.2990837" lon="13.9965311"><ele>157.0</ele><time>2026-05-02T07:33:27.144Z</time></trkpt><trkpt lat="42.2990245" lon="13.9963719"><ele>156.5</ele><time>2026-05-02T07:33:28.144Z</time></trkpt><trkpt lat="42.2988875" lon="13.9962534"><ele>156.0</ele><time>2026-05-02T07:33:29.143Z</time></trkpt><trkpt lat="42.2987858" lon="13.9961055"><ele>154.5</ele><time>2026-05-02T07:33:30.144Z</time></trkpt><trkpt lat="42.2987048" lon="13.9959754"><ele>153.0</ele><time>2026-05-02T07:33:31.143Z</time></trkpt><trkpt lat="42.2986402" lon="13.9958243"><ele>151.5</ele><time>2026-05-02T07:33:32.143Z</time></trkpt><trkpt lat="42.2985931" lon="13.9956996"><ele>150.0</ele><time>2026-05-02T07:33:33.143Z</time></trkpt><trkpt lat="42.2985458" lon="13.9955913"><ele>150.0</ele><time>2026-05-02T07:33:34.144Z</time></trkpt><trkpt lat="42.2984802" lon="13.9954602"><ele>150.0</ele><time>2026-05-02T07:33:35.143Z</time></trkpt><trkpt lat="42.298408" lon="13.9953172"><ele>150.0</ele><time>2026-05-02T07:33:36.143Z</time></trkpt><trkpt lat="42.2983211" lon="13.9951536"><ele>150.0</ele><time>2026-05-02T07:33:37.143Z</time></trkpt><trkpt lat="42.2982375" lon="13.9949961"><ele>151.25</ele><time>2026-05-02T07:33:38.143Z</time></trkpt><trkpt lat="42.2981543" lon="13.9948489"><ele>152.5</ele><time>2026-05-02T07:33:39.143Z</time></trkpt><trkpt lat="42.2980511" lon="13.9946872"><ele>153.75</ele><time>2026-05-02T07:33:40.145Z</time></trkpt><trkpt lat="42.2979619" lon="13.9945402"><ele>155.0</ele><time>2026-05-02T07:33:41.144Z</time></trkpt><trkpt lat="42.2978831" lon="13.9943693"><ele>150.33333333333331</ele><time>2026-05-02T07:33:42.144Z</time></trkpt><trkpt lat="42.2978001" lon="13.994171"><ele>145.66666666666666</ele><time>2026-05-02T07:33:43.144Z</time></trkpt><trkpt lat="42.2977182" lon="13.9939691"><ele>141.0</ele><time>2026-05-02T07:33:44.143Z</time></trkpt><trkpt lat="42.2976282" lon="13.9937731"><ele>141.0</ele><time>2026-05-02T07:33:45.144Z</time></trkpt><trkpt lat="42.2975291" lon="13.9935757"><ele>141.0</ele><time>2026-05-02T07:33:46.145Z</time></trkpt><trkpt lat="42.2974386" lon="13.9933995"><ele>141.0</ele><time>2026-05-02T07:33:47.143Z</time></trkpt><trkpt lat="42.2973512" lon="13.993227"><ele>142.75</ele><time>2026-05-02T07:33:48.145Z</time></trkpt><trkpt lat="42.2972716" lon="13.9930664"><ele>144.5</ele><time>2026-05-02T07:33:49.145Z</time></trkpt><trkpt lat="42.2971986" lon="13.9929167"><ele>146.25</ele><time>2026-05-02T07:33:50.144Z</time></trkpt><trkpt lat="42.2971304" lon="13.9927759"><ele>148.0</ele><time>2026-05-02T07:33:51.144Z</time></trkpt><trkpt lat="42.2970549" lon="13.9926252"><ele>144.33333333333334</ele><time>2026-05-02T07:33:52.144Z</time></trkpt><trkpt lat="42.29698" lon="13.9924669"><ele>140.66666666666666</ele><time>2026-05-02T07:33:53.143Z</time></trkpt><trkpt lat="42.2969125" lon="13.9922787"><ele>137.0</ele><time>2026-05-02T07:33:54.143Z</time></trkpt><trkpt lat="42.2968515" lon="13.9920686"><ele>137.0</ele><time>2026-05-02T07:33:55.143Z</time></trkpt><trkpt lat="42.2967907" lon="13.9918522"><ele>137.0</ele><time>2026-05-02T07:33:56.143Z</time></trkpt><trkpt lat="42.2967383" lon="13.9916428"><ele>137.0</ele><time>2026-05-02T07:33:57.144Z</time></trkpt><trkpt lat="42.2966981" lon="13.9914301"><ele>137.33333333333331</ele><time>2026-05-02T07:33:58.144Z</time></trkpt><trkpt lat="42.2966728" lon="13.9911938"><ele>137.66666666666666</ele><time>2026-05-02T07:33:59.144Z</time></trkpt><trkpt lat="42.2966564" lon="13.9909609"><ele>138.0</ele><time>2026-05-02T07:34:00.143Z</time></trkpt><trkpt lat="42.2966459" lon="13.9907655"><ele>138.0</ele><time>2026-05-02T07:34:01.143Z</time></trkpt><trkpt lat="42.2966365" lon="13.9905829"><ele>138.0</ele><time>2026-05-02T07:34:02.144Z</time></trkpt><trkpt lat="42.2966091" lon="13.9904216"><ele>138.0</ele><time>2026-05-02T07:34:03.143Z</time></trkpt><trkpt lat="42.2965595" lon="13.9902658"><ele>138.0</ele><time>2026-05-02T07:34:04.143Z</time></trkpt><trkpt lat="42.2964848" lon="13.9901268"><ele>136.20000000000002</ele><time>2026-05-02T07:34:05.144Z</time></trkpt><trkpt lat="42.296402" lon="13.9900217"><ele>134.4</ele><time>2026-05-02T07:34:06.143Z</time></trkpt><trkpt lat="42.2963093" lon="13.9899464"><ele>132.60000000000002</ele><time>2026-05-02T07:34:07.145Z</time></trkpt><trkpt lat="42.2961991" lon="13.9899046"><ele>130.8</ele><time>2026-05-02T07:34:08.144Z</time></trkpt><trkpt lat="42.2960896" lon="13.9898652"><ele>129.0</ele><time>2026-05-02T07:34:09.144Z</time></trkpt><trkpt lat="42.2959927" lon="13.9898199"><ele>128.75</ele><time>2026-05-02T07:34:10.144Z</time></trkpt><trkpt lat="42.2959036" lon="13.9897641"><ele>128.5</ele><time>2026-05-02T07:34:11.144Z</time></trkpt><trkpt lat="42.2958111" lon="13.9896964"><ele>128.25</ele><time>2026-05-02T07:34:12.144Z</time></trkpt><trkpt lat="42.2957001" lon="13.9896065"><ele>128.0</ele><time>2026-05-02T07:34:13.144Z</time></trkpt><trkpt lat="42.2955648" lon="13.9895052"><ele>127.60000000000001</ele><time>2026-05-02T07:34:14.143Z</time></trkpt><trkpt lat="42.2954448" lon="13.9894223"><ele>127.20000000000002</ele><time>2026-05-02T07:34:15.143Z</time></trkpt><trkpt lat="42.2953528" lon="13.9893625"><ele>126.8</ele><time>2026-05-02T07:34:16.144Z</time></trkpt><trkpt lat="42.2952937" lon="13.9893171"><ele>126.4</ele><time>2026-05-02T07:34:17.144Z</time></trkpt><trkpt lat="42.2952381" lon="13.9892671"><ele>126.0</ele><time>2026-05-02T07:34:19.143Z</time></trkpt><trkpt lat="42.2952444" lon="13.9891404"><ele>126.8</ele><time>2026-05-02T07:34:22.144Z</time></trkpt><trkpt lat="42.2952823" lon="13.9890656"><ele>127.6</ele><time>2026-05-02T07:34:23.144Z</time></trkpt><trkpt lat="42.2953299" lon="13.988966"><ele>128.4</ele><time>2026-05-02T07:34:24.144Z</time></trkpt><trkpt lat="42.2953911" lon="13.9888383"><ele>129.2</ele><time>2026-05-02T07:34:25.143Z</time></trkpt><trkpt lat="42.2954603" lon="13.988683"><ele>130.0</ele><time>2026-05-02T07:34:26.145Z</time></trkpt><trkpt lat="42.2955283" lon="13.9885218"><ele>130.0</ele><time>2026-05-02T07:34:27.143Z</time></trkpt><trkpt lat="42.2955816" lon="13.9884005"><ele>130.0</ele><time>2026-05-02T07:34:28.144Z</time></trkpt><trkpt lat="42.2956275" lon="13.9883046"><ele>130.0</ele><time>2026-05-02T07:34:29.145Z</time></trkpt><trkpt lat="42.2956688" lon="13.9882187"><ele>130.0</ele><time>2026-05-02T07:34:30.143Z</time></trkpt><trkpt lat="42.2957062" lon="13.988148"><ele>130.0</ele><time>2026-05-02T07:34:31.143Z</time></trkpt><trkpt lat="42.2957633" lon="13.9880311"><ele>130.0</ele><time>2026-05-02T07:34:33.144Z</time></trkpt><trkpt lat="42.2956946" lon="13.9880589"><ele>130.0</ele><time>2026-05-02T07:34:38.144Z</time></trkpt><trkpt lat="42.295632" lon="13.9882183"><ele>130.0</ele><time>2026-05-02T07:34:40.143Z</time></trkpt><trkpt lat="42.2955824" lon="13.9883426"><ele>130.0</ele><time>2026-05-02T07:34:41.143Z</time></trkpt><trkpt lat="42.2955184" lon="13.9884803"><ele>130.0</ele><time>2026-05-02T07:34:42.143Z</time></trkpt><trkpt lat="42.2954453" lon="13.9886415"><ele>130.0</ele><time>2026-05-02T07:34:43.143Z</time></trkpt><trkpt lat="42.2953749" lon="13.9888053"><ele>130.0</ele><time>2026-05-02T07:34:44.143Z</time></trkpt><trkpt lat="42.2953061" lon="13.9889552"><ele>130.0</ele><time>2026-05-02T07:34:45.143Z</time></trkpt><trkpt lat="42.2952485" lon="13.9890819"><ele>130.0</ele><time>2026-05-02T07:34:46.143Z</time></trkpt><trkpt lat="42.2952068" lon="13.9891754"><ele>130.0</ele><time>2026-05-02T07:34:47.144Z</time></trkpt><trkpt lat="42.2951716" lon="13.9892481"><ele>130.0</ele><time>2026-05-02T07:34:48.143Z</time></trkpt><trkpt lat="42.2950742" lon="13.9893389"><ele>130.0</ele><time>2026-05-02T07:34:50.144Z</time></trkpt><trkpt lat="42.2949946" lon="13.9892962"><ele>130.0</ele><time>2026-05-02T07:34:52.145Z</time></trkpt><trkpt lat="42.2949645" lon="13.9892208"><ele>130.0</ele><time>2026-05-02T07:34:53.144Z</time></trkpt><trkpt lat="42.2949489" lon="13.9891207"><ele>130.0</ele><time>2026-05-02T07:34:54.144Z</time></trkpt><trkpt lat="42.2949372" lon="13.9889957"><ele>130.0</ele><time>2026-05-02T07:34:55.143Z</time></trkpt><trkpt lat="42.2949067" lon="13.9888472"><ele>130.0</ele><time>2026-05-02T07:34:56.144Z</time></trkpt><trkpt lat="42.2948613" lon="13.9886818"><ele>130.0</ele><time>2026-05-02T07:34:57.143Z</time></trkpt><trkpt lat="42.2948121" lon="13.988503"><ele>130.0</ele><time>2026-05-02T07:34:58.144Z</time></trkpt><trkpt lat="42.2947679" lon="13.9883145"><ele>131.0</ele><time>2026-05-02T07:34:59.144Z</time></trkpt><trkpt lat="42.2947121" lon="13.9881155"><ele>132.0</ele><time>2026-05-02T07:35:00.144Z</time></trkpt><trkpt lat="42.2946474" lon="13.9878908"><ele>133.0</ele><time>2026-05-02T07:35:01.143Z</time></trkpt><trkpt lat="42.2945835" lon="13.9876514"><ele>133.5</ele><time>2026-05-02T07:35:02.143Z</time></trkpt><trkpt lat="42.2945193" lon="13.9874178"><ele>134.0</ele><time>2026-05-02T07:35:03.143Z</time></trkpt><trkpt lat="42.2944677" lon="13.9872402"><ele>134.5</ele><time>2026-05-02T07:35:04.143Z</time></trkpt><trkpt lat="42.2944224" lon="13.9870841"><ele>135.0</ele><time>2026-05-02T07:35:05.144Z</time></trkpt><trkpt lat="42.2943912" lon="13.9869527"><ele>135.0</ele><time>2026-05-02T07:35:06.143Z</time></trkpt><trkpt lat="42.2943942" lon="13.9868299"><ele>135.0</ele><time>2026-05-02T07:35:07.143Z</time></trkpt><trkpt lat="42.2944199" lon="13.9867503"><ele>135.0</ele><time>2026-05-02T07:35:08.143Z</time></trkpt><trkpt lat="42.2944587" lon="13.98668"><ele>135.0</ele><time>2026-05-02T07:35:10.144Z</time></trkpt><trkpt lat="42.2943858" lon="13.9866096"><ele>135.0</ele><time>2026-05-02T07:35:13.143Z</time></trkpt><trkpt lat="42.2943309" lon="13.9864741"><ele>135.0</ele><time>2026-05-02T07:35:15.144Z</time></trkpt><trkpt lat="42.2942865" lon="13.9863456"><ele>136.0</ele><time>2026-05-02T07:35:16.144Z</time></trkpt><trkpt lat="42.2942349" lon="13.9861887"><ele>137.0</ele><time>2026-05-02T07:35:17.144Z</time></trkpt><trkpt lat="42.2941795" lon="13.9859927"><ele>138.0</ele><time>2026-05-02T07:35:18.144Z</time></trkpt><trkpt lat="42.2941206" lon="13.9857696"><ele>139.0</ele><time>2026-05-02T07:35:19.143Z</time></trkpt><trkpt lat="42.2940669" lon="13.9855732"><ele>140.0</ele><time>2026-05-02T07:35:20.143Z</time></trkpt><trkpt lat="42.2940127" lon="13.9853845"><ele>141.0</ele><time>2026-05-02T07:35:21.143Z</time></trkpt><trkpt lat="42.2939569" lon="13.9851976"><ele>142.5</ele><time>2026-05-02T07:35:22.143Z</time></trkpt><trkpt lat="42.293909" lon="13.9850251"><ele>144.0</ele><time>2026-05-02T07:35:23.143Z</time></trkpt><trkpt lat="42.2938621" lon="13.9848696"><ele>145.5</ele><time>2026-05-02T07:35:24.143Z</time></trkpt><trkpt lat="42.2938065" lon="13.9847305"><ele>147.0</ele><time>2026-05-02T07:35:25.144Z</time></trkpt><trkpt lat="42.2937324" lon="13.9845813"><ele>147.25</ele><time>2026-05-02T07:35:26.143Z</time></trkpt><trkpt lat="42.2936447" lon="13.9844324"><ele>147.5</ele><time>2026-05-02T07:35:27.143Z</time></trkpt><trkpt lat="42.2935531" lon="13.9842816"><ele>147.75</ele><time>2026-05-02T07:35:28.144Z</time></trkpt><trkpt lat="42.2934753" lon="13.9841585"><ele>148.0</ele><time>2026-05-02T07:35:29.143Z</time></trkpt><trkpt lat="42.2933913" lon="13.9840558"><ele>148.5</ele><time>2026-05-02T07:35:30.144Z</time></trkpt><trkpt lat="42.293299" lon="13.9839508"><ele>149.0</ele><time>2026-05-02T07:35:31.144Z</time></trkpt><trkpt lat="42.2932016" lon="13.9838762"><ele>149.5</ele><time>2026-05-02T07:35:32.143Z</time></trkpt><trkpt lat="42.2931076" lon="13.9837864"><ele>150.0</ele><time>2026-05-02T07:35:33.143Z</time></trkpt><trkpt lat="42.2930175" lon="13.983682"><ele>152.5</ele><time>2026-05-02T07:35:34.144Z</time></trkpt><trkpt lat="42.292937" lon="13.9835564"><ele>155.0</ele><time>2026-05-02T07:35:35.143Z</time></trkpt><trkpt lat="42.2928563" lon="13.9834067"><ele>157.5</ele><time>2026-05-02T07:35:36.143Z</time></trkpt><trkpt lat="42.2927877" lon="13.9832714"><ele>160.0</ele><time>2026-05-02T07:35:37.143Z</time></trkpt><trkpt lat="42.2927212" lon="13.9831287"><ele>160.0</ele><time>2026-05-02T07:35:38.144Z</time></trkpt><trkpt lat="42.2926464" lon="13.9829922"><ele>160.0</ele><time>2026-05-02T07:35:39.143Z</time></trkpt><trkpt lat="42.2925697" lon="13.9828497"><ele>160.0</ele><time>2026-05-02T07:35:40.143Z</time></trkpt><trkpt lat="42.2924879" lon="13.982701"><ele>160.0</ele><time>2026-05-02T07:35:41.144Z</time></trkpt><trkpt lat="42.2923996" lon="13.9825455"><ele>159.0</ele><time>2026-05-02T07:35:42.145Z</time></trkpt><trkpt lat="42.2923163" lon="13.9824022"><ele>158.0</ele><time>2026-05-02T07:35:43.143Z</time></trkpt><trkpt lat="42.292237" lon="13.9822665"><ele>157.0</ele><time>2026-05-02T07:35:44.143Z</time></trkpt><trkpt lat="42.2921587" lon="13.9821395"><ele>156.0</ele><time>2026-05-02T07:35:45.145Z</time></trkpt><trkpt lat="42.2920873" lon="13.9820249"><ele>158.2</ele><time>2026-05-02T07:35:46.143Z</time></trkpt><trkpt lat="42.2920106" lon="13.9819159"><ele>160.39999999999998</ele><time>2026-05-02T07:35:47.143Z</time></trkpt><trkpt lat="42.2919451" lon="13.9818175"><ele>162.6</ele><time>2026-05-02T07:35:48.144Z</time></trkpt><trkpt lat="42.2918909" lon="13.9817275"><ele>164.79999999999998</ele><time>2026-05-02T07:35:49.144Z</time></trkpt><trkpt lat="42.2918399" lon="13.9816592"><ele>167.0</ele><time>2026-05-02T07:35:50.145Z</time></trkpt><trkpt lat="42.2917605" lon="13.9815272"><ele>167.0</ele><time>2026-05-02T07:35:52.144Z</time></trkpt><trkpt lat="42.2916689" lon="13.9813982"><ele>167.0</ele><time>2026-05-02T07:35:54.144Z</time></trkpt><trkpt lat="42.2916139" lon="13.9813176"><ele>167.0</ele><time>2026-05-02T07:35:55.143Z</time></trkpt><trkpt lat="42.2915583" lon="13.9812394"><ele>167.0</ele><time>2026-05-02T07:35:56.145Z</time></trkpt><trkpt lat="42.2915052" lon="13.9811801"><ele>167.0</ele><time>2026-05-02T07:35:57.144Z</time></trkpt><trkpt lat="42.2913995" lon="13.9811196"><ele>168.5</ele><time>2026-05-02T07:35:59.144Z</time></trkpt><trkpt lat="42.2913011" lon="13.9811084"><ele>170.0</ele><time>2026-05-02T07:36:01.143Z</time></trkpt><trkpt lat="42.291205" lon="13.9811092"><ele>171.5</ele><time>2026-05-02T07:36:03.144Z</time></trkpt><trkpt lat="42.291116" lon="13.9810936"><ele>173.0</ele><time>2026-05-02T07:36:05.143Z</time></trkpt><trkpt lat="42.2910576" lon="13.9810499"><ele>174.5</ele><time>2026-05-02T07:36:13.144Z</time></trkpt><trkpt lat="42.2909933" lon="13.9810161"><ele>176.0</ele><time>2026-05-02T07:36:15.143Z</time></trkpt><trkpt lat="42.2909322" lon="13.9809317"><ele>174.83333333333331</ele><time>2026-05-02T07:36:17.144Z</time></trkpt><trkpt lat="42.2908987" lon="13.9807776"><ele>173.66666666666666</ele><time>2026-05-02T07:36:19.144Z</time></trkpt><trkpt lat="42.2908855" lon="13.9806779"><ele>172.5</ele><time>2026-05-02T07:36:20.144Z</time></trkpt><trkpt lat="42.2908812" lon="13.9805802"><ele>171.33333333333334</ele><time>2026-05-02T07:36:21.144Z</time></trkpt><trkpt lat="42.2908834" lon="13.9804872"><ele>170.16666666666669</ele><time>2026-05-02T07:36:22.144Z</time></trkpt><trkpt lat="42.2908791" lon="13.9803951"><ele>169.0</ele><time>2026-05-02T07:36:23.145Z</time></trkpt><trkpt lat="42.2908666" lon="13.9803028"><ele>169.0</ele><time>2026-05-02T07:36:24.144Z</time></trkpt><trkpt lat="42.2908458" lon="13.9802016"><ele>169.0</ele><time>2026-05-02T07:36:25.145Z</time></trkpt><trkpt lat="42.2908167" lon="13.9800967"><ele>169.0</ele><time>2026-05-02T07:36:26.144Z</time></trkpt><trkpt lat="42.2907726" lon="13.9799925"><ele>169.0</ele><time>2026-05-02T07:36:27.143Z</time></trkpt><trkpt lat="42.2907154" lon="13.9798885"><ele>169.0</ele><time>2026-05-02T07:36:28.143Z</time></trkpt><trkpt lat="42.2906602" lon="13.9798007"><ele>169.0</ele><time>2026-05-02T07:36:29.143Z</time></trkpt><trkpt lat="42.2906025" lon="13.9797359"><ele>171.66666666666669</ele><time>2026-05-02T07:36:30.144Z</time></trkpt><trkpt lat="42.2905458" lon="13.9796841"><ele>174.33333333333334</ele><time>2026-05-02T07:36:31.144Z</time></trkpt><trkpt lat="42.2904951" lon="13.9796223"><ele>177.0</ele><time>2026-05-02T07:36:32.144Z</time></trkpt><trkpt lat="42.2904054" lon="13.9795737"><ele>179.66666666666666</ele><time>2026-05-02T07:36:33.144Z</time></trkpt><trkpt lat="42.290337" lon="13.9795327"><ele>182.33333333333331</ele><time>2026-05-02T07:36:34.144Z</time></trkpt><trkpt lat="42.2903091" lon="13.9793833"><ele>185.0</ele><time>2026-05-02T07:36:36.144Z</time></trkpt><trkpt lat="42.2903069" lon="13.9792909"><ele>185.0</ele><time>2026-05-02T07:36:37.144Z</time></trkpt><trkpt lat="42.2903309" lon="13.9791422"><ele>185.0</ele><time>2026-05-02T07:36:39.143Z</time></trkpt><trkpt lat="42.2903744" lon="13.9789885"><ele>185.0</ele><time>2026-05-02T07:36:41.143Z</time></trkpt><trkpt lat="42.2904202" lon="13.9788431"><ele>185.0</ele><time>2026-05-02T07:36:43.144Z</time></trkpt><trkpt lat="42.2904187" lon="13.9787002"><ele>185.0</ele><time>2026-05-02T07:36:45.143Z</time></trkpt><trkpt lat="42.2903407" lon="13.9786073"><ele>185.0</ele><time>2026-05-02T07:36:47.143Z</time></trkpt><trkpt lat="42.2902041" lon="13.9786261"><ele>185.0</ele><time>2026-05-02T07:36:49.143Z</time></trkpt><trkpt lat="42.2901317" lon="13.9787176"><ele>185.0</ele><time>2026-05-02T07:36:50.144Z</time></trkpt><trkpt lat="42.2900403" lon="13.9787734"><ele>185.0</ele><time>2026-05-02T07:36:51.144Z</time></trkpt><trkpt lat="42.2899474" lon="13.9788242"><ele>185.0</ele><time>2026-05-02T07:36:52.144Z</time></trkpt><trkpt lat="42.2898549" lon="13.9788662"><ele>185.0</ele><time>2026-05-02T07:36:53.143Z</time></trkpt><trkpt lat="42.2897626" lon="13.9788971"><ele>185.0</ele><time>2026-05-02T07:36:54.145Z</time></trkpt><trkpt lat="42.2896923" lon="13.9788906"><ele>185.0</ele><time>2026-05-02T07:36:55.144Z</time></trkpt><trkpt lat="42.2895918" lon="13.9787822"><ele>185.0</ele><time>2026-05-02T07:36:57.143Z</time></trkpt><trkpt lat="42.2895556" lon="13.9786892"><ele>187.16666666666666</ele><time>2026-05-02T07:36:58.143Z</time></trkpt><trkpt lat="42.2895301" lon="13.978586"><ele>189.33333333333331</ele><time>2026-05-02T07:36:59.143Z</time></trkpt><trkpt lat="42.2895127" lon="13.9784746"><ele>191.5</ele><time>2026-05-02T07:37:00.143Z</time></trkpt><trkpt lat="42.2894981" lon="13.9783641"><ele>193.66666666666666</ele><time>2026-05-02T07:37:01.144Z</time></trkpt><trkpt lat="42.2894843" lon="13.9782365"><ele>195.83333333333334</ele><time>2026-05-02T07:37:02.143Z</time></trkpt><trkpt lat="42.2894736" lon="13.978118"><ele>198.0</ele><time>2026-05-02T07:37:03.143Z</time></trkpt><trkpt lat="42.2894325" lon="13.9780218"><ele>198.5</ele><time>2026-05-02T07:37:04.143Z</time></trkpt><trkpt lat="42.2893938" lon="13.9779226"><ele>199.0</ele><time>2026-05-02T07:37:05.143Z</time></trkpt><trkpt lat="42.2892948" lon="13.9778732"><ele>199.5</ele><time>2026-05-02T07:37:07.145Z</time></trkpt><trkpt lat="42.2892258" lon="13.9778745"><ele>200.0</ele><time>2026-05-02T07:37:08.144Z</time></trkpt><trkpt lat="42.2891511" lon="13.9778775"><ele>200.5</ele><time>2026-05-02T07:37:09.145Z</time></trkpt><trkpt lat="42.2890629" lon="13.9779498"><ele>201.0</ele><time>2026-05-02T07:37:10.143Z</time></trkpt><trkpt lat="42.2889686" lon="13.9780091"><ele>203.16666666666666</ele><time>2026-05-02T07:37:11.144Z</time></trkpt><trkpt lat="42.2889016" lon="13.9780756"><ele>205.33333333333331</ele><time>2026-05-02T07:37:12.143Z</time></trkpt><trkpt lat="42.2888398" lon="13.9781599"><ele>207.5</ele><time>2026-05-02T07:37:13.144Z</time></trkpt><trkpt lat="42.2887801" lon="13.9782625"><ele>209.66666666666666</ele><time>2026-05-02T07:37:14.143Z</time></trkpt><trkpt lat="42.288755" lon="13.9783688"><ele>211.83333333333331</ele><time>2026-05-02T07:37:15.144Z</time></trkpt><trkpt lat="42.2887183" lon="13.9784709"><ele>214.0</ele><time>2026-05-02T07:37:16.143Z</time></trkpt><trkpt lat="42.288659" lon="13.9785834"><ele>214.0</ele><time>2026-05-02T07:37:17.143Z</time></trkpt><trkpt lat="42.2885933" lon="13.9787021"><ele>213.99999999999997</ele><time>2026-05-02T07:37:18.143Z</time></trkpt><trkpt lat="42.2885366" lon="13.9788192"><ele>213.99999999999997</ele><time>2026-05-02T07:37:19.143Z</time></trkpt><trkpt lat="42.2884795" lon="13.9789166"><ele>214.0</ele><time>2026-05-02T07:37:20.143Z</time></trkpt><trkpt lat="42.2884466" lon="13.9790104"><ele>214.0</ele><time>2026-05-02T07:37:21.143Z</time></trkpt><trkpt lat="42.2884318" lon="13.9791052"><ele>214.79999999999998</ele><time>2026-05-02T07:37:22.145Z</time></trkpt><trkpt lat="42.2884143" lon="13.9791977"><ele>215.59999999999997</ele><time>2026-05-02T07:37:23.143Z</time></trkpt><trkpt lat="42.2883982" lon="13.9792969"><ele>216.4</ele><time>2026-05-02T07:37:24.143Z</time></trkpt><trkpt lat="42.2883948" lon="13.9794422"><ele>217.2</ele><time>2026-05-02T07:37:25.144Z</time></trkpt><trkpt lat="42.2883836" lon="13.9795875"><ele>218.0</ele><time>2026-05-02T07:37:26.143Z</time></trkpt><trkpt lat="42.2883687" lon="13.9797384"><ele>218.00000000000003</ele><time>2026-05-02T07:37:27.144Z</time></trkpt><trkpt lat="42.2883595" lon="13.9798707"><ele>218.0</ele><time>2026-05-02T07:37:28.144Z</time></trkpt><trkpt lat="42.2883491" lon="13.9799952"><ele>218.0</ele><time>2026-05-02T07:37:29.144Z</time></trkpt><trkpt lat="42.2883542" lon="13.9801129"><ele>218.0</ele><time>2026-05-02T07:37:30.143Z</time></trkpt><trkpt lat="42.2883812" lon="13.9802243"><ele>218.00000000000003</ele><time>2026-05-02T07:37:31.143Z</time></trkpt><trkpt lat="42.2884214" lon="13.9803235"><ele>218.0</ele><time>2026-05-02T07:37:32.144Z</time></trkpt><trkpt lat="42.2884627" lon="13.9804244"><ele>218.42857142857144</ele><time>2026-05-02T07:37:33.143Z</time></trkpt><trkpt lat="42.2884922" lon="13.9805212"><ele>218.85714285714286</ele><time>2026-05-02T07:37:34.143Z</time></trkpt><trkpt lat="42.2884977" lon="13.980617"><ele>219.28571428571428</ele><time>2026-05-02T07:37:35.143Z</time></trkpt><trkpt lat="42.2884775" lon="13.9807111"><ele>219.71428571428572</ele><time>2026-05-02T07:37:36.144Z</time></trkpt><trkpt lat="42.2884375" lon="13.9807804"><ele>220.14285714285714</ele><time>2026-05-02T07:37:37.144Z</time></trkpt><trkpt lat="42.2883758" lon="13.9808238"><ele>220.57142857142858</ele><time>2026-05-02T07:37:38.144Z</time></trkpt><trkpt lat="42.2883083" lon="13.9808308"><ele>221.0</ele><time>2026-05-02T07:37:39.143Z</time></trkpt><trkpt lat="42.2882458" lon="13.9807966"><ele>221.00000000000003</ele><time>2026-05-02T07:37:40.144Z</time></trkpt><trkpt lat="42.2881785" lon="13.980762"><ele>221.0</ele><time>2026-05-02T07:37:41.144Z</time></trkpt><trkpt lat="42.2881376" lon="13.9806709"><ele>221.0</ele><time>2026-05-02T07:37:42.143Z</time></trkpt><trkpt lat="42.2880896" lon="13.9805767"><ele>221.0</ele><time>2026-05-02T07:37:43.144Z</time></trkpt><trkpt lat="42.2879948" lon="13.9805476"><ele>221.00000000000003</ele><time>2026-05-02T07:37:45.144Z</time></trkpt><trkpt lat="42.287934" lon="13.9806395"><ele>221.0</ele><time>2026-05-02T07:37:47.143Z</time></trkpt><trkpt lat="42.2879275" lon="13.9807267"><ele>225.00000000000003</ele><time>2026-05-02T07:37:48.144Z</time></trkpt><trkpt lat="42.2879411" lon="13.9808308"><ele>229.0</ele><time>2026-05-02T07:37:49.143Z</time></trkpt><trkpt lat="42.2879585" lon="13.980957"><ele>233.0</ele><time>2026-05-02T07:37:50.144Z</time></trkpt><trkpt lat="42.2879756" lon="13.9810915"><ele>237.0</ele><time>2026-05-02T07:37:51.143Z</time></trkpt><trkpt lat="42.2879943" lon="13.981212"><ele>241.00000000000003</ele><time>2026-05-02T07:37:52.143Z</time></trkpt><trkpt lat="42.2880053" lon="13.9813182"><ele>245.0</ele><time>2026-05-02T07:37:53.143Z</time></trkpt><trkpt lat="42.2879713" lon="13.9814505"><ele>246.33333333333334</ele><time>2026-05-02T07:37:55.144Z</time></trkpt><trkpt lat="42.2878666" lon="13.9814494"><ele>247.66666666666669</ele><time>2026-05-02T07:37:57.143Z</time></trkpt><trkpt lat="42.2878293" lon="13.9813753"><ele>249.0</ele><time>2026-05-02T07:37:58.143Z</time></trkpt><trkpt lat="42.2877972" lon="13.9812893"><ele>250.33333333333331</ele><time>2026-05-02T07:37:59.144Z</time></trkpt><trkpt lat="42.2877571" lon="13.9812082"><ele>251.66666666666666</ele><time>2026-05-02T07:38:00.143Z</time></trkpt><trkpt lat="42.2876783" lon="13.9811048"><ele>253.0</ele><time>2026-05-02T07:38:02.144Z</time></trkpt><trkpt lat="42.2875714" lon="13.9810869"><ele>253.0</ele><time>2026-05-02T07:38:03.143Z</time></trkpt><trkpt lat="42.2874672" lon="13.9810487"><ele>253.0</ele><time>2026-05-02T07:38:04.143Z</time></trkpt><trkpt lat="42.2873408" lon="13.9810046"><ele>253.0</ele><time>2026-05-02T07:38:05.143Z</time></trkpt><trkpt lat="42.287232" lon="13.9809652"><ele>253.0</ele><time>2026-05-02T07:38:06.143Z</time></trkpt><trkpt lat="42.2871393" lon="13.9809259"><ele>253.0</ele><time>2026-05-02T07:38:07.143Z</time></trkpt><trkpt lat="42.2870663" lon="13.9808784"><ele>253.8</ele><time>2026-05-02T07:38:08.144Z</time></trkpt><trkpt lat="42.2870171" lon="13.9808116"><ele>254.60000000000002</ele><time>2026-05-02T07:38:09.143Z</time></trkpt><trkpt lat="42.2869762" lon="13.9806483"><ele>255.39999999999998</ele><time>2026-05-02T07:38:11.143Z</time></trkpt><trkpt lat="42.2869744" lon="13.9805203"><ele>256.2</ele><time>2026-05-02T07:38:12.143Z</time></trkpt><trkpt lat="42.2869849" lon="13.9803689"><ele>257.0</ele><time>2026-05-02T07:38:13.143Z</time></trkpt><trkpt lat="42.2869948" lon="13.9802261"><ele>257.0</ele><time>2026-05-02T07:38:14.145Z</time></trkpt><trkpt lat="42.2869928" lon="13.9800855"><ele>257.0</ele><time>2026-05-02T07:38:15.143Z</time></trkpt><trkpt lat="42.2869794" lon="13.9799527"><ele>257.0</ele><time>2026-05-02T07:38:16.143Z</time></trkpt><trkpt lat="42.2869571" lon="13.9798401"><ele>257.0</ele><time>2026-05-02T07:38:17.145Z</time></trkpt><trkpt lat="42.2869176" lon="13.9797245"><ele>257.0</ele><time>2026-05-02T07:38:18.144Z</time></trkpt><trkpt lat="42.286879" lon="13.9796139"><ele>257.25</ele><time>2026-05-02T07:38:19.143Z</time></trkpt><trkpt lat="42.2868596" lon="13.9794969"><ele>257.5</ele><time>2026-05-02T07:38:20.143Z</time></trkpt><trkpt lat="42.2868487" lon="13.9793423"><ele>257.75</ele><time>2026-05-02T07:38:21.144Z</time></trkpt><trkpt lat="42.2868372" lon="13.979171"><ele>258.0</ele><time>2026-05-02T07:38:22.143Z</time></trkpt><trkpt lat="42.2868177" lon="13.9789907"><ele>257.8</ele><time>2026-05-02T07:38:23.143Z</time></trkpt><trkpt lat="42.2868045" lon="13.9788265"><ele>257.6</ele><time>2026-05-02T07:38:24.144Z</time></trkpt><trkpt lat="42.2867607" lon="13.9786983"><ele>257.4</ele><time>2026-05-02T07:38:25.144Z</time></trkpt><trkpt lat="42.2867239" lon="13.9785622"><ele>257.2</ele><time>2026-05-02T07:38:26.144Z</time></trkpt><trkpt lat="42.2866719" lon="13.978428"><ele>257.0</ele><time>2026-05-02T07:38:27.144Z</time></trkpt><trkpt lat="42.2866032" lon="13.9783092"><ele>257.0</ele><time>2026-05-02T07:38:28.144Z</time></trkpt><trkpt lat="42.2865237" lon="13.9781987"><ele>257.0</ele><time>2026-05-02T07:38:29.144Z</time></trkpt><trkpt lat="42.2864321" lon="13.9780949"><ele>257.0</ele><time>2026-05-02T07:38:30.143Z</time></trkpt><trkpt lat="42.2863366" lon="13.9779873"><ele>257.0</ele><time>2026-05-02T07:38:31.143Z</time></trkpt><trkpt lat="42.2862524" lon="13.9778843"><ele>258.75</ele><time>2026-05-02T07:38:32.143Z</time></trkpt><trkpt lat="42.2861692" lon="13.9777647"><ele>260.5</ele><time>2026-05-02T07:38:33.144Z</time></trkpt><trkpt lat="42.2860915" lon="13.9776185"><ele>262.25</ele><time>2026-05-02T07:38:34.143Z</time></trkpt><trkpt lat="42.2860308" lon="13.9774801"><ele>264.0</ele><time>2026-05-02T07:38:35.143Z</time></trkpt><trkpt lat="42.2859563" lon="13.9773609"><ele>264.0</ele><time>2026-05-02T07:38:36.143Z</time></trkpt><trkpt lat="42.2858688" lon="13.9772472"><ele>264.0</ele><time>2026-05-02T07:38:37.145Z</time></trkpt><trkpt lat="42.2857779" lon="13.9771309"><ele>264.0</ele><time>2026-05-02T07:38:38.143Z</time></trkpt><trkpt lat="42.2856696" lon="13.977059"><ele>264.0</ele><time>2026-05-02T07:38:39.144Z</time></trkpt><trkpt lat="42.2855786" lon="13.9769862"><ele>265.0</ele><time>2026-05-02T07:38:40.144Z</time></trkpt><trkpt lat="42.2854802" lon="13.9769045"><ele>266.0</ele><time>2026-05-02T07:38:41.143Z</time></trkpt><trkpt lat="42.2854257" lon="13.9768136"><ele>267.0</ele><time>2026-05-02T07:38:42.143Z</time></trkpt><trkpt lat="42.2853784" lon="13.9767242"><ele>268.0</ele><time>2026-05-02T07:38:43.145Z</time></trkpt><trkpt lat="42.2853714" lon="13.9765433"><ele>269.0</ele><time>2026-05-02T07:38:45.143Z</time></trkpt><trkpt lat="42.2853909" lon="13.9764054"><ele>269.0</ele><time>2026-05-02T07:38:46.144Z</time></trkpt><trkpt lat="42.2854164" lon="13.97624"><ele>269.0</ele><time>2026-05-02T07:38:47.144Z</time></trkpt><trkpt lat="42.2854285" lon="13.9760898"><ele>269.0</ele><time>2026-05-02T07:38:48.145Z</time></trkpt><trkpt lat="42.2854342" lon="13.9759384"><ele>269.0</ele><time>2026-05-02T07:38:49.143Z</time></trkpt><trkpt lat="42.2854227" lon="13.9757765"><ele>270.25</ele><time>2026-05-02T07:38:50.145Z</time></trkpt><trkpt lat="42.2853986" lon="13.9756005"><ele>271.5</ele><time>2026-05-02T07:38:51.144Z</time></trkpt><trkpt lat="42.2853763" lon="13.9754365"><ele>272.75</ele><time>2026-05-02T07:38:52.143Z</time></trkpt><trkpt lat="42.2853555" lon="13.9752703"><ele>274.0</ele><time>2026-05-02T07:38:53.145Z</time></trkpt><trkpt lat="42.2853176" lon="13.9751099"><ele>274.5</ele><time>2026-05-02T07:38:54.143Z</time></trkpt><trkpt lat="42.2852669" lon="13.9749521"><ele>275.0</ele><time>2026-05-02T07:38:55.143Z</time></trkpt><trkpt lat="42.285198" lon="13.9747823"><ele>275.5</ele><time>2026-05-02T07:38:56.144Z</time></trkpt><trkpt lat="42.2851242" lon="13.9746003"><ele>276.0</ele><time>2026-05-02T07:38:57.145Z</time></trkpt><trkpt lat="42.2850405" lon="13.9744415"><ele>276.0</ele><time>2026-05-02T07:38:58.144Z</time></trkpt><trkpt lat="42.2849639" lon="13.9742742"><ele>276.0</ele><time>2026-05-02T07:38:59.144Z</time></trkpt><trkpt lat="42.284894" lon="13.9741196"><ele>276.0</ele><time>2026-05-02T07:39:00.144Z</time></trkpt><trkpt lat="42.2848314" lon="13.9739864"><ele>276.0</ele><time>2026-05-02T07:39:01.144Z</time></trkpt><trkpt lat="42.2847836" lon="13.9738667"><ele>278.0</ele><time>2026-05-02T07:39:02.144Z</time></trkpt><trkpt lat="42.2847403" lon="13.9737616"><ele>280.0</ele><time>2026-05-02T07:39:03.143Z</time></trkpt><trkpt lat="42.2847056" lon="13.973664"><ele>282.0</ele><time>2026-05-02T07:39:04.143Z</time></trkpt><trkpt lat="42.2846711" lon="13.9735727"><ele>284.0</ele><time>2026-05-02T07:39:05.143Z</time></trkpt><trkpt lat="42.284635" lon="13.9734871"><ele>286.0</ele><time>2026-05-02T07:39:06.145Z</time></trkpt><trkpt lat="42.2845837" lon="13.9733814"><ele>288.0</ele><time>2026-05-02T07:39:07.143Z</time></trkpt><trkpt lat="42.2845246" lon="13.9732707"><ele>288.5</ele><time>2026-05-02T07:39:08.143Z</time></trkpt><trkpt lat="42.2844612" lon="13.9731847"><ele>289.0</ele><time>2026-05-02T07:39:09.143Z</time></trkpt><trkpt lat="42.2843908" lon="13.973107"><ele>289.5</ele><time>2026-05-02T07:39:10.143Z</time></trkpt><trkpt lat="42.2843125" lon="13.9730358"><ele>290.0</ele><time>2026-05-02T07:39:11.143Z</time></trkpt><trkpt lat="42.2842349" lon="13.9729778"><ele>290.5</ele><time>2026-05-02T07:39:12.144Z</time></trkpt><trkpt lat="42.2841614" lon="13.972928"><ele>291.0</ele><time>2026-05-02T07:39:13.144Z</time></trkpt><trkpt lat="42.2840824" lon="13.972875"><ele>291.0</ele><time>2026-05-02T07:39:14.144Z</time></trkpt><trkpt lat="42.2839945" lon="13.9728146"><ele>291.0</ele><time>2026-05-02T07:39:15.143Z</time></trkpt><trkpt lat="42.283881" lon="13.9727475"><ele>291.0</ele><time>2026-05-02T07:39:16.143Z</time></trkpt><trkpt lat="42.2837461" lon="13.9726913"><ele>291.0</ele><time>2026-05-02T07:39:17.143Z</time></trkpt><trkpt lat="42.2836137" lon="13.9726252"><ele>291.40000000000003</ele><time>2026-05-02T07:39:18.143Z</time></trkpt><trkpt lat="42.2835008" lon="13.9725605"><ele>291.8</ele><time>2026-05-02T07:39:19.144Z</time></trkpt><trkpt lat="42.283384" lon="13.9725391"><ele>292.20000000000005</ele><time>2026-05-02T07:39:20.144Z</time></trkpt><trkpt lat="42.2832774" lon="13.9725314"><ele>292.6</ele><time>2026-05-02T07:39:21.143Z</time></trkpt><trkpt lat="42.2831934" lon="13.9724942"><ele>293.0</ele><time>2026-05-02T07:39:22.143Z</time></trkpt><trkpt lat="42.2831276" lon="13.9724285"><ele>294.33333333333337</ele><time>2026-05-02T07:39:23.144Z</time></trkpt><trkpt lat="42.2830716" lon="13.9723348"><ele>295.6666666666667</ele><time>2026-05-02T07:39:24.144Z</time></trkpt><trkpt lat="42.2830096" lon="13.9722306"><ele>297.0</ele><time>2026-05-02T07:39:25.143Z</time></trkpt><trkpt lat="42.28296" lon="13.9721454"><ele>298.3333333333333</ele><time>2026-05-02T07:39:26.143Z</time></trkpt><trkpt lat="42.2829228" lon="13.9720763"><ele>299.66666666666663</ele><time>2026-05-02T07:39:27.143Z</time></trkpt><trkpt lat="42.2829224" lon="13.9719576"><ele>301.0</ele><time>2026-05-02T07:39:29.144Z</time></trkpt><trkpt lat="42.2829933" lon="13.9717992"><ele>301.25</ele><time>2026-05-02T07:39:31.144Z</time></trkpt><trkpt lat="42.2830494" lon="13.9716767"><ele>301.5</ele><time>2026-05-02T07:39:32.143Z</time></trkpt><trkpt lat="42.2830934" lon="13.9715454"><ele>301.75</ele><time>2026-05-02T07:39:33.144Z</time></trkpt><trkpt lat="42.2831337" lon="13.9713971"><ele>302.0</ele><time>2026-05-02T07:39:34.143Z</time></trkpt><trkpt lat="42.2831888" lon="13.9712457"><ele>299.25</ele><time>2026-05-02T07:39:35.145Z</time></trkpt><trkpt lat="42.283259" lon="13.9711205"><ele>296.5</ele><time>2026-05-02T07:39:36.143Z</time></trkpt><trkpt lat="42.2833296" lon="13.9709998"><ele>293.75</ele><time>2026-05-02T07:39:37.143Z</time></trkpt><trkpt lat="42.2834271" lon="13.9709239"><ele>291.0</ele><time>2026-05-02T07:39:38.143Z</time></trkpt><trkpt lat="42.2835102" lon="13.9708189"><ele>290.8</ele><time>2026-05-02T07:39:39.143Z</time></trkpt><trkpt lat="42.2835899" lon="13.9707174"><ele>290.6</ele><time>2026-05-02T07:39:40.143Z</time></trkpt><trkpt lat="42.2836696" lon="13.970629"><ele>290.4</ele><time>2026-05-02T07:39:41.142Z</time></trkpt><trkpt lat="42.2837547" lon="13.9705708"><ele>290.2</ele><time>2026-05-02T07:39:42.142Z</time></trkpt><trkpt lat="42.2838527" lon="13.9705465"><ele>290.0</ele><time>2026-05-02T07:39:43.142Z</time></trkpt><trkpt lat="42.2839745" lon="13.970539"><ele>289.25</ele><time>2026-05-02T07:39:44.142Z</time></trkpt><trkpt lat="42.2841062" lon="13.970535"><ele>288.5</ele><time>2026-05-02T07:39:45.142Z</time></trkpt><trkpt lat="42.2842425" lon="13.970525"><ele>287.75</ele><time>2026-05-02T07:39:46.143Z</time></trkpt><trkpt lat="42.2843771" lon="13.9705063"><ele>287.0</ele><time>2026-05-02T07:39:47.143Z</time></trkpt><trkpt lat="42.2845137" lon="13.9704832"><ele>287.0</ele><time>2026-05-02T07:39:48.143Z</time></trkpt><trkpt lat="42.2846833" lon="13.9704231"><ele>287.0</ele><time>2026-05-02T07:39:49.143Z</time></trkpt><trkpt lat="42.2848453" lon="13.9703654"><ele>287.0</ele><time>2026-05-02T07:39:50.143Z</time></trkpt><trkpt lat="42.2849793" lon="13.9703183"><ele>287.1666666666667</ele><time>2026-05-02T07:39:51.142Z</time></trkpt><trkpt lat="42.2850824" lon="13.9702797"><ele>287.33333333333337</ele><time>2026-05-02T07:39:52.142Z</time></trkpt><trkpt lat="42.2851788" lon="13.9702387"><ele>287.5</ele><time>2026-05-02T07:39:53.143Z</time></trkpt><trkpt lat="42.2852427" lon="13.9701941"><ele>287.6666666666667</ele><time>2026-05-02T07:39:54.142Z</time></trkpt><trkpt lat="42.2852971" lon="13.9701352"><ele>287.8333333333333</ele><time>2026-05-02T07:39:55.143Z</time></trkpt><trkpt lat="42.2853512" lon="13.9700447"><ele>288.0</ele><time>2026-05-02T07:39:56.142Z</time></trkpt><trkpt lat="42.2854176" lon="13.9699207"><ele>288.0</ele><time>2026-05-02T07:39:57.144Z</time></trkpt><trkpt lat="42.2854912" lon="13.9697681"><ele>288.0</ele><time>2026-05-02T07:39:58.143Z</time></trkpt><trkpt lat="42.2855686" lon="13.9695759"><ele>288.0</ele><time>2026-05-02T07:39:59.143Z</time></trkpt><trkpt lat="42.2856416" lon="13.9694001"><ele>288.0</ele><time>2026-05-02T07:40:00.142Z</time></trkpt><trkpt lat="42.2857055" lon="13.9692418"><ele>289.6</ele><time>2026-05-02T07:40:01.142Z</time></trkpt><trkpt lat="42.2857528" lon="13.9691042"><ele>291.20000000000005</ele><time>2026-05-02T07:40:02.143Z</time></trkpt><trkpt lat="42.2857912" lon="13.9689846"><ele>292.8</ele><time>2026-05-02T07:40:03.142Z</time></trkpt><trkpt lat="42.2858308" lon="13.9688721"><ele>294.40000000000003</ele><time>2026-05-02T07:40:04.142Z</time></trkpt><trkpt lat="42.285874" lon="13.9687736"><ele>296.0</ele><time>2026-05-02T07:40:05.142Z</time></trkpt><trkpt lat="42.2859391" lon="13.9686727"><ele>296.0</ele><time>2026-05-02T07:40:06.142Z</time></trkpt><trkpt lat="42.2860221" lon="13.9685658"><ele>296.0</ele><time>2026-05-02T07:40:07.143Z</time></trkpt><trkpt lat="42.2861052" lon="13.9684564"><ele>296.0</ele><time>2026-05-02T07:40:08.142Z</time></trkpt><trkpt lat="42.2861837" lon="13.9683343"><ele>296.0</ele><time>2026-05-02T07:40:09.142Z</time></trkpt><trkpt lat="42.286263" lon="13.9682076"><ele>297.5</ele><time>2026-05-02T07:40:10.142Z</time></trkpt><trkpt lat="42.286349" lon="13.9680599"><ele>299.0</ele><time>2026-05-02T07:40:11.142Z</time></trkpt><trkpt lat="42.2864208" lon="13.9679198"><ele>300.5</ele><time>2026-05-02T07:40:12.143Z</time></trkpt><trkpt lat="42.2864875" lon="13.9677897"><ele>302.0</ele><time>2026-05-02T07:40:13.142Z</time></trkpt><trkpt lat="42.2865556" lon="13.9676593"><ele>300.5</ele><time>2026-05-02T07:40:14.142Z</time></trkpt><trkpt lat="42.2866329" lon="13.9675197"><ele>299.0</ele><time>2026-05-02T07:40:15.143Z</time></trkpt><trkpt lat="42.286712" lon="13.9673948"><ele>297.5</ele><time>2026-05-02T07:40:16.144Z</time></trkpt><trkpt lat="42.2867904" lon="13.9672902"><ele>296.0</ele><time>2026-05-02T07:40:17.143Z</time></trkpt><trkpt lat="42.2868598" lon="13.9671828"><ele>296.0</ele><time>2026-05-02T07:40:18.143Z</time></trkpt><trkpt lat="42.2869134" lon="13.9670718"><ele>296.0</ele><time>2026-05-02T07:40:19.142Z</time></trkpt><trkpt lat="42.2869572" lon="13.9669586"><ele>296.0</ele><time>2026-05-02T07:40:20.142Z</time></trkpt><trkpt lat="42.2869851" lon="13.9668271"><ele>296.0</ele><time>2026-05-02T07:40:21.142Z</time></trkpt><trkpt lat="42.2869789" lon="13.9666781"><ele>296.0</ele><time>2026-05-02T07:40:22.142Z</time></trkpt><trkpt lat="42.286951" lon="13.9665222"><ele>298.75</ele><time>2026-05-02T07:40:23.143Z</time></trkpt><trkpt lat="42.2869045" lon="13.9663507"><ele>301.5</ele><time>2026-05-02T07:40:24.143Z</time></trkpt><trkpt lat="42.2868521" lon="13.9661661"><ele>304.25</ele><time>2026-05-02T07:40:25.142Z</time></trkpt><trkpt lat="42.2867956" lon="13.9659692"><ele>307.0</ele><time>2026-05-02T07:40:26.144Z</time></trkpt><trkpt lat="42.2867426" lon="13.965772"><ele>308.25</ele><time>2026-05-02T07:40:27.142Z</time></trkpt><trkpt lat="42.2866956" lon="13.9656075"><ele>309.5</ele><time>2026-05-02T07:40:28.142Z</time></trkpt><trkpt lat="42.286654" lon="13.9654686"><ele>310.75</ele><time>2026-05-02T07:40:29.142Z</time></trkpt><trkpt lat="42.2866142" lon="13.9653331"><ele>312.0</ele><time>2026-05-02T07:40:30.142Z</time></trkpt><trkpt lat="42.2865834" lon="13.9651913"><ele>312.0</ele><time>2026-05-02T07:40:31.143Z</time></trkpt><trkpt lat="42.2865642" lon="13.9650339"><ele>312.0</ele><time>2026-05-02T07:40:32.143Z</time></trkpt><trkpt lat="42.2865588" lon="13.9648582"><ele>312.0</ele><time>2026-05-02T07:40:33.143Z</time></trkpt><trkpt lat="42.2865618" lon="13.9647037"><ele>312.0</ele><time>2026-05-02T07:40:34.142Z</time></trkpt><trkpt lat="42.2865694" lon="13.9645637"><ele>312.2</ele><time>2026-05-02T07:40:35.144Z</time></trkpt><trkpt lat="42.2865854" lon="13.9644294"><ele>312.4</ele><time>2026-05-02T07:40:36.143Z</time></trkpt><trkpt lat="42.2866137" lon="13.9643084"><ele>312.6</ele><time>2026-05-02T07:40:37.143Z</time></trkpt><trkpt lat="42.2866604" lon="13.9641895"><ele>312.8</ele><time>2026-05-02T07:40:38.143Z</time></trkpt><trkpt lat="42.2867131" lon="13.9640895"><ele>313.0</ele><time>2026-05-02T07:40:39.142Z</time></trkpt><trkpt lat="42.2867558" lon="13.9639753"><ele>313.4</ele><time>2026-05-02T07:40:40.142Z</time></trkpt><trkpt lat="42.2868215" lon="13.963911"><ele>313.8</ele><time>2026-05-02T07:40:41.142Z</time></trkpt><trkpt lat="42.2868751" lon="13.9638047"><ele>314.2</ele><time>2026-05-02T07:40:42.142Z</time></trkpt><trkpt lat="42.2869045" lon="13.9636743"><ele>314.6</ele><time>2026-05-02T07:40:43.143Z</time></trkpt><trkpt lat="42.2869248" lon="13.9635272"><ele>315.0</ele><time>2026-05-02T07:40:44.144Z</time></trkpt><trkpt lat="42.2869024" lon="13.9633923"><ele>313.75</ele><time>2026-05-02T07:40:45.143Z</time></trkpt><trkpt lat="42.2868639" lon="13.9632703"><ele>312.5</ele><time>2026-05-02T07:40:46.143Z</time></trkpt><trkpt lat="42.2867783" lon="13.9631654"><ele>311.25</ele><time>2026-05-02T07:40:47.142Z</time></trkpt><trkpt lat="42.2867292" lon="13.9630236"><ele>310.0</ele><time>2026-05-02T07:40:48.143Z</time></trkpt><trkpt lat="42.2866445" lon="13.962795"><ele>310.0</ele><time>2026-05-02T07:40:49.144Z</time></trkpt><trkpt lat="42.2865746" lon="13.9625964"><ele>310.0</ele><time>2026-05-02T07:40:50.143Z</time></trkpt><trkpt lat="42.2865083" lon="13.9624007"><ele>310.0</ele><time>2026-05-02T07:40:51.142Z</time></trkpt><trkpt lat="42.2864415" lon="13.9622092"><ele>310.0</ele><time>2026-05-02T07:40:52.142Z</time></trkpt><trkpt lat="42.2863762" lon="13.962021"><ele>310.0</ele><time>2026-05-02T07:40:53.143Z</time></trkpt><trkpt lat="42.2863183" lon="13.9618509"><ele>310.0</ele><time>2026-05-02T07:40:54.143Z</time></trkpt><trkpt lat="42.2862664" lon="13.9616931"><ele>310.0</ele><time>2026-05-02T07:40:55.143Z</time></trkpt><trkpt lat="42.2862162" lon="13.9615401"><ele>309.0</ele><time>2026-05-02T07:40:56.144Z</time></trkpt><trkpt lat="42.2861758" lon="13.9613871"><ele>308.0</ele><time>2026-05-02T07:40:57.142Z</time></trkpt><trkpt lat="42.2861509" lon="13.9612362"><ele>307.0</ele><time>2026-05-02T07:40:58.143Z</time></trkpt><trkpt lat="42.2861363" lon="13.9610892"><ele>306.0</ele><time>2026-05-02T07:40:59.142Z</time></trkpt><trkpt lat="42.2861302" lon="13.9609244"><ele>305.5</ele><time>2026-05-02T07:41:00.144Z</time></trkpt><trkpt lat="42.2861337" lon="13.9607455"><ele>305.0</ele><time>2026-05-02T07:41:01.144Z</time></trkpt><trkpt lat="42.2861549" lon="13.9605652"><ele>304.5</ele><time>2026-05-02T07:41:02.143Z</time></trkpt><trkpt lat="42.2861888" lon="13.960372"><ele>304.0</ele><time>2026-05-02T07:41:03.143Z</time></trkpt><trkpt lat="42.2862206" lon="13.960182"><ele>304.0</ele><time>2026-05-02T07:41:04.143Z</time></trkpt><trkpt lat="42.2862427" lon="13.960019"><ele>304.0</ele><time>2026-05-02T07:41:05.143Z</time></trkpt><trkpt lat="42.286253" lon="13.959915"><ele>304.0</ele><time>2026-05-02T07:41:06.144Z</time></trkpt><trkpt lat="42.2862598" lon="13.9598266"><ele>304.0</ele><time>2026-05-02T07:41:08.142Z</time></trkpt><trkpt lat="42.2862622" lon="13.9597304"><ele>304.0</ele><time>2026-05-02T07:41:10.144Z</time></trkpt><trkpt lat="42.2862719" lon="13.9596453"><ele>304.0</ele><time>2026-05-02T07:41:11.142Z</time></trkpt><trkpt lat="42.2862773" lon="13.9595297"><ele>304.0</ele><time>2026-05-02T07:41:12.142Z</time></trkpt><trkpt lat="42.2862595" lon="13.9594114"><ele>304.0</ele><time>2026-05-02T07:41:13.142Z</time></trkpt><trkpt lat="42.2862311" lon="13.9592868"><ele>304.0</ele><time>2026-05-02T07:41:14.142Z</time></trkpt><trkpt lat="42.286183" lon="13.9591675"><ele>304.0</ele><time>2026-05-02T07:41:15.144Z</time></trkpt><trkpt lat="42.2861154" lon="13.9590513"><ele>304.0</ele><time>2026-05-02T07:41:16.142Z</time></trkpt><trkpt lat="42.2860287" lon="13.9589401"><ele>302.66666666666663</ele><time>2026-05-02T07:41:17.142Z</time></trkpt><trkpt lat="42.2859519" lon="13.9588463"><ele>301.3333333333333</ele><time>2026-05-02T07:41:18.142Z</time></trkpt><trkpt lat="42.2858799" lon="13.9587597"><ele>300.0</ele><time>2026-05-02T07:41:19.142Z</time></trkpt><trkpt lat="42.2858161" lon="13.95868"><ele>298.6666666666667</ele><time>2026-05-02T07:41:20.142Z</time></trkpt><trkpt lat="42.2857604" lon="13.958605"><ele>297.33333333333337</ele><time>2026-05-02T07:41:21.143Z</time></trkpt><trkpt lat="42.2857126" lon="13.9585408"><ele>296.0</ele><time>2026-05-02T07:41:22.143Z</time></trkpt><trkpt lat="42.2856527" lon="13.9584443"><ele>295.40000000000003</ele><time>2026-05-02T07:41:24.143Z</time></trkpt><trkpt lat="42.2856204" lon="13.9583637"><ele>294.8</ele><time>2026-05-02T07:41:28.142Z</time></trkpt><trkpt lat="42.285581" lon="13.958273"><ele>294.20000000000005</ele><time>2026-05-02T07:41:30.143Z</time></trkpt><trkpt lat="42.2854791" lon="13.9581658"><ele>293.6</ele><time>2026-05-02T07:41:32.144Z</time></trkpt><trkpt lat="42.2853934" lon="13.9581289"><ele>293.0</ele><time>2026-05-02T07:41:33.143Z</time></trkpt><trkpt lat="42.28529" lon="13.9581049"><ele>293.0</ele><time>2026-05-02T07:41:34.143Z</time></trkpt><trkpt lat="42.285182" lon="13.9580865"><ele>293.0</ele><time>2026-05-02T07:41:35.143Z</time></trkpt><trkpt lat="42.2850693" lon="13.9580766"><ele>293.0</ele><time>2026-05-02T07:41:36.142Z</time></trkpt><trkpt lat="42.2849504" lon="13.958074"><ele>293.0</ele><time>2026-05-02T07:41:37.143Z</time></trkpt><trkpt lat="42.28485" lon="13.9580712"><ele>293.0</ele><time>2026-05-02T07:41:38.143Z</time></trkpt><trkpt lat="42.2847498" lon="13.9580646"><ele>292.1666666666667</ele><time>2026-05-02T07:41:39.142Z</time></trkpt><trkpt lat="42.2846672" lon="13.9580567"><ele>291.33333333333337</ele><time>2026-05-02T07:41:40.142Z</time></trkpt><trkpt lat="42.2845919" lon="13.9580486"><ele>290.5</ele><time>2026-05-02T07:41:41.142Z</time></trkpt><trkpt lat="42.2845246" lon="13.9580456"><ele>289.6666666666667</ele><time>2026-05-02T07:41:42.143Z</time></trkpt><trkpt lat="42.2844552" lon="13.9580461"><ele>288.8333333333333</ele><time>2026-05-02T07:41:43.143Z</time></trkpt><trkpt lat="42.2843924" lon="13.9580364"><ele>288.0</ele><time>2026-05-02T07:41:44.143Z</time></trkpt><trkpt lat="42.2842888" lon="13.958015"><ele>288.0</ele><time>2026-05-02T07:41:46.142Z</time></trkpt><trkpt lat="42.2843994" lon="13.9580685"><ele>288.0</ele><time>2026-05-02T07:41:52.143Z</time></trkpt><trkpt lat="42.2844857" lon="13.9580714"><ele>288.0</ele><time>2026-05-02T07:41:53.142Z</time></trkpt><trkpt lat="42.2845845" lon="13.9580715"><ele>288.0</ele><time>2026-05-02T07:41:54.143Z</time></trkpt><trkpt lat="42.2846942" lon="13.9580787"><ele>288.0</ele><time>2026-05-02T07:41:55.144Z</time></trkpt><trkpt lat="42.2848051" lon="13.9580877"><ele>288.8333333333333</ele><time>2026-05-02T07:41:56.142Z</time></trkpt><trkpt lat="42.2849089" lon="13.9580957"><ele>289.6666666666667</ele><time>2026-05-02T07:41:57.142Z</time></trkpt><trkpt lat="42.2849958" lon="13.9580999"><ele>290.5</ele><time>2026-05-02T07:41:58.142Z</time></trkpt><trkpt lat="42.2850617" lon="13.9581021"><ele>291.33333333333337</ele><time>2026-05-02T07:41:59.142Z</time></trkpt><trkpt lat="42.2851642" lon="13.9580835"><ele>292.1666666666667</ele><time>2026-05-02T07:42:01.143Z</time></trkpt><trkpt lat="42.2851367" lon="13.9579871"><ele>293.0</ele><time>2026-05-02T07:42:04.142Z</time></trkpt><trkpt lat="42.2850436" lon="13.957921"><ele>293.0</ele><time>2026-05-02T07:42:06.143Z</time></trkpt><trkpt lat="42.2849605" lon="13.9578724"><ele>293.0</ele><time>2026-05-02T07:42:07.143Z</time></trkpt><trkpt lat="42.2848763" lon="13.9578176"><ele>293.0</ele><time>2026-05-02T07:42:08.143Z</time></trkpt><trkpt lat="42.2847829" lon="13.9577693"><ele>293.0</ele><time>2026-05-02T07:42:09.143Z</time></trkpt><trkpt lat="42.2846708" lon="13.9576989"><ele>293.0</ele><time>2026-05-02T07:42:10.143Z</time></trkpt><trkpt lat="42.2845555" lon="13.9576231"><ele>291.75</ele><time>2026-05-02T07:42:11.143Z</time></trkpt><trkpt lat="42.2844481" lon="13.9575465"><ele>290.5</ele><time>2026-05-02T07:42:12.143Z</time></trkpt><trkpt lat="42.2843496" lon="13.9574737"><ele>289.25</ele><time>2026-05-02T07:42:13.144Z</time></trkpt><trkpt lat="42.2842575" lon="13.9573937"><ele>288.0</ele><time>2026-05-02T07:42:14.143Z</time></trkpt><trkpt lat="42.2841725" lon="13.957305"><ele>287.25</ele><time>2026-05-02T07:42:15.143Z</time></trkpt><trkpt lat="42.2840954" lon="13.9572112"><ele>286.5</ele><time>2026-05-02T07:42:16.142Z</time></trkpt><trkpt lat="42.2840206" lon="13.9571142"><ele>285.75</ele><time>2026-05-02T07:42:17.143Z</time></trkpt><trkpt lat="42.2839415" lon="13.9570033"><ele>285.0</ele><time>2026-05-02T07:42:18.143Z</time></trkpt><trkpt lat="42.2838508" lon="13.95688"><ele>285.0</ele><time>2026-05-02T07:42:19.143Z</time></trkpt><trkpt lat="42.2837483" lon="13.9567492"><ele>285.0</ele><time>2026-05-02T07:42:20.143Z</time></trkpt><trkpt lat="42.2836447" lon="13.9566071"><ele>285.0</ele><time>2026-05-02T07:42:21.142Z</time></trkpt><trkpt lat="42.2835422" lon="13.9564557"><ele>285.0</ele><time>2026-05-02T07:42:22.142Z</time></trkpt><trkpt lat="42.283437" lon="13.9562866"><ele>282.3333333333333</ele><time>2026-05-02T07:42:23.142Z</time></trkpt><trkpt lat="42.2833305" lon="13.9561269"><ele>279.66666666666663</ele><time>2026-05-02T07:42:24.142Z</time></trkpt><trkpt lat="42.2832156" lon="13.9559805"><ele>277.0</ele><time>2026-05-02T07:42:25.142Z</time></trkpt><trkpt lat="42.2830945" lon="13.955837"><ele>274.3333333333333</ele><time>2026-05-02T07:42:26.144Z</time></trkpt><trkpt lat="42.2829607" lon="13.95569"><ele>271.6666666666667</ele><time>2026-05-02T07:42:27.143Z</time></trkpt><trkpt lat="42.282835" lon="13.9555458"><ele>269.0</ele><time>2026-05-02T07:42:28.142Z</time></trkpt><trkpt lat="42.2827243" lon="13.9554146"><ele>269.0</ele><time>2026-05-02T07:42:29.142Z</time></trkpt><trkpt lat="42.2826296" lon="13.9552932"><ele>269.0</ele><time>2026-05-02T07:42:30.144Z</time></trkpt><trkpt lat="42.2825387" lon="13.9551803"><ele>269.0</ele><time>2026-05-02T07:42:31.142Z</time></trkpt><trkpt lat="42.2824473" lon="13.9550809"><ele>269.0</ele><time>2026-05-02T07:42:32.143Z</time></trkpt><trkpt lat="42.2823381" lon="13.9549995"><ele>267.0</ele><time>2026-05-02T07:42:33.142Z</time></trkpt><trkpt lat="42.2822125" lon="13.95495"><ele>265.0</ele><time>2026-05-02T07:42:34.143Z</time></trkpt><trkpt lat="42.282069" lon="13.9549357"><ele>263.0</ele><time>2026-05-02T07:42:35.143Z</time></trkpt><trkpt lat="42.281922" lon="13.9549385"><ele>261.0</ele><time>2026-05-02T07:42:36.142Z</time></trkpt><trkpt lat="42.2817897" lon="13.9549451"><ele>261.0</ele><time>2026-05-02T07:42:37.143Z</time></trkpt><trkpt lat="42.2816729" lon="13.9549416"><ele>261.0</ele><time>2026-05-02T07:42:38.142Z</time></trkpt><trkpt lat="42.2815642" lon="13.9549218"><ele>261.0</ele><time>2026-05-02T07:42:39.142Z</time></trkpt><trkpt lat="42.2814605" lon="13.9548775"><ele>261.0</ele><time>2026-05-02T07:42:40.142Z</time></trkpt><trkpt lat="42.2813582" lon="13.9547939"><ele>260.25</ele><time>2026-05-02T07:42:41.142Z</time></trkpt><trkpt lat="42.2812512" lon="13.9546803"><ele>259.5</ele><time>2026-05-02T07:42:42.144Z</time></trkpt><trkpt lat="42.2811407" lon="13.9545633"><ele>258.75</ele><time>2026-05-02T07:42:43.143Z</time></trkpt><trkpt lat="42.2810108" lon="13.9544644"><ele>258.0</ele><time>2026-05-02T07:42:44.143Z</time></trkpt><trkpt lat="42.2808721" lon="13.9543932"><ele>258.0</ele><time>2026-05-02T07:42:45.143Z</time></trkpt><trkpt lat="42.280737" lon="13.9543147"><ele>258.0</ele><time>2026-05-02T07:42:46.142Z</time></trkpt><trkpt lat="42.2806081" lon="13.9542259"><ele>258.0</ele><time>2026-05-02T07:42:47.142Z</time></trkpt><trkpt lat="42.2804862" lon="13.9541297"><ele>258.0</ele><time>2026-05-02T07:42:48.142Z</time></trkpt><trkpt lat="42.2803638" lon="13.9540481"><ele>255.2</ele><time>2026-05-02T07:42:49.142Z</time></trkpt><trkpt lat="42.2802459" lon="13.9539898"><ele>252.4</ele><time>2026-05-02T07:42:50.143Z</time></trkpt><trkpt lat="42.2801385" lon="13.9539485"><ele>249.59999999999997</ele><time>2026-05-02T07:42:51.143Z</time></trkpt><trkpt lat="42.2800378" lon="13.9539317"><ele>246.79999999999998</ele><time>2026-05-02T07:42:52.142Z</time></trkpt><trkpt lat="42.2799345" lon="13.9539295"><ele>244.0</ele><time>2026-05-02T07:42:53.142Z</time></trkpt><trkpt lat="42.2798284" lon="13.953919"><ele>243.75</ele><time>2026-05-02T07:42:54.142Z</time></trkpt><trkpt lat="42.2797177" lon="13.9538857"><ele>243.5</ele><time>2026-05-02T07:42:55.142Z</time></trkpt><trkpt lat="42.2795968" lon="13.9538373"><ele>243.25</ele><time>2026-05-02T07:42:56.142Z</time></trkpt><trkpt lat="42.2794742" lon="13.9537809"><ele>243.0</ele><time>2026-05-02T07:42:57.143Z</time></trkpt><trkpt lat="42.2793309" lon="13.9537301"><ele>243.0</ele><time>2026-05-02T07:42:58.144Z</time></trkpt><trkpt lat="42.2791748" lon="13.9536775"><ele>243.0</ele><time>2026-05-02T07:42:59.143Z</time></trkpt><trkpt lat="42.2790179" lon="13.9536263"><ele>243.0</ele><time>2026-05-02T07:43:00.143Z</time></trkpt><trkpt lat="42.2788542" lon="13.9535743"><ele>244.25</ele><time>2026-05-02T07:43:01.143Z</time></trkpt><trkpt lat="42.2786955" lon="13.9535159"><ele>245.5</ele><time>2026-05-02T07:43:02.143Z</time></trkpt><trkpt lat="42.2785702" lon="13.9534699"><ele>246.75</ele><time>2026-05-02T07:43:03.143Z</time></trkpt><trkpt lat="42.2784217" lon="13.9534231"><ele>248.0</ele><time>2026-05-02T07:43:04.143Z</time></trkpt><trkpt lat="42.2782597" lon="13.953377"><ele>244.33333333333334</ele><time>2026-05-02T07:43:05.142Z</time></trkpt><trkpt lat="42.2780984" lon="13.9533235"><ele>240.66666666666669</ele><time>2026-05-02T07:43:06.142Z</time></trkpt><trkpt lat="42.2779473" lon="13.9532808"><ele>237.0</ele><time>2026-05-02T07:43:07.143Z</time></trkpt><trkpt lat="42.2778081" lon="13.9532458"><ele>237.0</ele><time>2026-05-02T07:43:08.142Z</time></trkpt><trkpt lat="42.2776872" lon="13.9532139"><ele>237.0</ele><time>2026-05-02T07:43:09.142Z</time></trkpt><trkpt lat="42.2775815" lon="13.953189"><ele>237.0</ele><time>2026-05-02T07:43:10.143Z</time></trkpt><trkpt lat="42.2774902" lon="13.9531668"><ele>237.0</ele><time>2026-05-02T07:43:11.142Z</time></trkpt><trkpt lat="42.2774261" lon="13.9531488"><ele>237.0</ele><time>2026-05-02T07:43:12.143Z</time></trkpt><trkpt lat="42.2773365" lon="13.9531196"><ele>237.0</ele><time>2026-05-02T07:43:14.143Z</time></trkpt><trkpt lat="42.277261" lon="13.9530843"><ele>237.0</ele><time>2026-05-02T07:43:16.143Z</time></trkpt><trkpt lat="42.2771808" lon="13.953043"><ele>237.0</ele><time>2026-05-02T07:43:19.142Z</time></trkpt><trkpt lat="42.2772032" lon="13.9529355"><ele>237.0</ele><time>2026-05-02T07:43:31.143Z</time></trkpt><trkpt lat="42.2772989" lon="13.9529657"><ele>237.0</ele><time>2026-05-02T07:43:33.144Z</time></trkpt><trkpt lat="42.2774184" lon="13.9529822"><ele>236.99999999999997</ele><time>2026-05-02T07:43:35.143Z</time></trkpt><trkpt lat="42.2774838" lon="13.9529941"><ele>237.0</ele><time>2026-05-02T07:43:36.143Z</time></trkpt><trkpt lat="42.2775615" lon="13.9529906"><ele>236.99999999999997</ele><time>2026-05-02T07:43:37.142Z</time></trkpt><trkpt lat="42.2776471" lon="13.9529736"><ele>236.99999999999997</ele><time>2026-05-02T07:43:38.142Z</time></trkpt><trkpt lat="42.2777157" lon="13.9529231"><ele>237.0</ele><time>2026-05-02T07:43:39.143Z</time></trkpt><trkpt lat="42.2777708" lon="13.9528678"><ele>236.99999999999997</ele><time>2026-05-02T07:43:40.143Z</time></trkpt><trkpt lat="42.2778066" lon="13.9527929"><ele>236.99999999999997</ele><time>2026-05-02T07:43:41.142Z</time></trkpt><trkpt lat="42.2778253" lon="13.952698"><ele>237.0</ele><time>2026-05-02T07:43:42.142Z</time></trkpt><trkpt lat="42.2778231" lon="13.9526037"><ele>237.0</ele><time>2026-05-02T07:43:43.142Z</time></trkpt><trkpt lat="42.2778075" lon="13.9525142"><ele>237.0</ele><time>2026-05-02T07:43:44.143Z</time></trkpt><trkpt lat="42.2777599" lon="13.9524235"><ele>237.0</ele><time>2026-05-02T07:43:45.143Z</time></trkpt><trkpt lat="42.2777265" lon="13.9523384"><ele>237.0</ele><time>2026-05-02T07:43:46.142Z</time></trkpt><trkpt lat="42.2776623" lon="13.9522686"><ele>237.0</ele><time>2026-05-02T07:43:47.142Z</time></trkpt><trkpt lat="42.2775363" lon="13.9522534"><ele>235.0</ele><time>2026-05-02T07:43:48.142Z</time></trkpt><trkpt lat="42.2774754" lon="13.9522094"><ele>233.0</ele><time>2026-05-02T07:43:49.142Z</time></trkpt><trkpt lat="42.2774192" lon="13.9521589"><ele>231.0</ele><time>2026-05-02T07:43:50.142Z</time></trkpt><trkpt lat="42.2773478" lon="13.9520331"><ele>229.0</ele><time>2026-05-02T07:43:52.142Z</time></trkpt><trkpt lat="42.277341" lon="13.9519323"><ele>227.0</ele><time>2026-05-02T07:43:53.142Z</time></trkpt><trkpt lat="42.2773441" lon="13.9518224"><ele>225.0</ele><time>2026-05-02T07:43:54.142Z</time></trkpt><trkpt lat="42.277351" lon="13.9517127"><ele>223.0</ele><time>2026-05-02T07:43:55.142Z</time></trkpt><trkpt lat="42.2773701" lon="13.951613"><ele>221.0</ele><time>2026-05-02T07:43:56.143Z</time></trkpt><trkpt lat="42.2774142" lon="13.9515097"><ele>219.0</ele><time>2026-05-02T07:43:58.143Z</time></trkpt><trkpt lat="42.277514" lon="13.9514787"><ele>217.0</ele><time>2026-05-02T07:44:00.143Z</time></trkpt><trkpt lat="42.2775866" lon="13.9515021"><ele>215.0</ele><time>2026-05-02T07:44:01.142Z</time></trkpt><trkpt lat="42.2776545" lon="13.9515187"><ele>213.0</ele><time>2026-05-02T07:44:02.142Z</time></trkpt><trkpt lat="42.2777356" lon="13.9514848"><ele>213.0</ele><time>2026-05-02T07:44:04.143Z</time></trkpt><trkpt lat="42.2777566" lon="13.9513857"><ele>213.0</ele><time>2026-05-02T07:44:06.143Z</time></trkpt><trkpt lat="42.2776909" lon="13.9512455"><ele>213.0</ele><time>2026-05-02T07:44:08.142Z</time></trkpt><trkpt lat="42.2776199" lon="13.9511231"><ele>213.0</ele><time>2026-05-02T07:44:09.143Z</time></trkpt><trkpt lat="42.2775641" lon="13.9509983"><ele>213.0</ele><time>2026-05-02T07:44:10.142Z</time></trkpt><trkpt lat="42.2774881" lon="13.9508432"><ele>210.0</ele><time>2026-05-02T07:44:11.144Z</time></trkpt><trkpt lat="42.2774165" lon="13.9507034"><ele>207.0</ele><time>2026-05-02T07:44:12.143Z</time></trkpt><trkpt lat="42.277353" lon="13.9505615"><ele>204.0</ele><time>2026-05-02T07:44:13.143Z</time></trkpt><trkpt lat="42.2772854" lon="13.9504246"><ele>201.0</ele><time>2026-05-02T07:44:14.142Z</time></trkpt><trkpt lat="42.2772151" lon="13.9503032"><ele>201.0</ele><time>2026-05-02T07:44:15.142Z</time></trkpt><trkpt lat="42.2771447" lon="13.950205"><ele>201.0</ele><time>2026-05-02T07:44:16.142Z</time></trkpt><trkpt lat="42.2770773" lon="13.950107"><ele>201.0</ele><time>2026-05-02T07:44:17.143Z</time></trkpt><trkpt lat="42.2770235" lon="13.9500524"><ele>201.0</ele><time>2026-05-02T07:44:18.142Z</time></trkpt><trkpt lat="42.2769336" lon="13.9499899"><ele>201.0</ele><time>2026-05-02T07:44:20.142Z</time></trkpt><trkpt lat="42.2769323" lon="13.9498971"><ele>201.0</ele><time>2026-05-02T07:44:22.143Z</time></trkpt><trkpt lat="42.2770039" lon="13.9498484"><ele>199.66666666666666</ele><time>2026-05-02T07:44:24.143Z</time></trkpt><trkpt lat="42.2770864" lon="13.9498482"><ele>198.33333333333331</ele><time>2026-05-02T07:44:25.143Z</time></trkpt><trkpt lat="42.2771873" lon="13.9498567"><ele>197.0</ele><time>2026-05-02T07:44:26.142Z</time></trkpt><trkpt lat="42.2772693" lon="13.949832"><ele>195.66666666666666</ele><time>2026-05-02T07:44:27.142Z</time></trkpt><trkpt lat="42.2773319" lon="13.9497864"><ele>194.33333333333331</ele><time>2026-05-02T07:44:28.142Z</time></trkpt><trkpt lat="42.2773771" lon="13.9497228"><ele>193.0</ele><time>2026-05-02T07:44:29.142Z</time></trkpt><trkpt lat="42.2774001" lon="13.9496343"><ele>193.0</ele><time>2026-05-02T07:44:30.142Z</time></trkpt><trkpt lat="42.2773996" lon="13.9495261"><ele>193.0</ele><time>2026-05-02T07:44:31.142Z</time></trkpt><trkpt lat="42.2773759" lon="13.9494461"><ele>193.0</ele><time>2026-05-02T07:44:32.142Z</time></trkpt><trkpt lat="42.2772617" lon="13.9493493"><ele>193.0</ele><time>2026-05-02T07:44:34.142Z</time></trkpt><trkpt lat="42.2771705" lon="13.9493178"><ele>193.0</ele><time>2026-05-02T07:44:35.142Z</time></trkpt><trkpt lat="42.2770875" lon="13.9492829"><ele>193.0</ele><time>2026-05-02T07:44:36.142Z</time></trkpt><trkpt lat="42.2770044" lon="13.9492169"><ele>193.0</ele><time>2026-05-02T07:44:37.143Z</time></trkpt><trkpt lat="42.2769189" lon="13.9491307"><ele>193.0</ele><time>2026-05-02T07:44:38.143Z</time></trkpt><trkpt lat="42.2768219" lon="13.9490196"><ele>193.0</ele><time>2026-05-02T07:44:39.143Z</time></trkpt><trkpt lat="42.2767533" lon="13.9489418"><ele>193.0</ele><time>2026-05-02T07:44:40.143Z</time></trkpt><trkpt lat="42.276689" lon="13.9488489"><ele>192.5</ele><time>2026-05-02T07:44:41.143Z</time></trkpt><trkpt lat="42.2766438" lon="13.948736"><ele>192.0</ele><time>2026-05-02T07:44:42.143Z</time></trkpt><trkpt lat="42.2766027" lon="13.9485757"><ele>191.5</ele><time>2026-05-02T07:44:43.143Z</time></trkpt><trkpt lat="42.2765569" lon="13.9483864"><ele>191.0</ele><time>2026-05-02T07:44:44.143Z</time></trkpt><trkpt lat="42.2765321" lon="13.9482113"><ele>191.0</ele><time>2026-05-02T07:44:45.143Z</time></trkpt><trkpt lat="42.2765091" lon="13.9480402"><ele>191.0</ele><time>2026-05-02T07:44:46.143Z</time></trkpt><trkpt lat="42.2764795" lon="13.9478776"><ele>191.0</ele><time>2026-05-02T07:44:47.142Z</time></trkpt><trkpt lat="42.2764561" lon="13.947701"><ele>191.0</ele><time>2026-05-02T07:44:48.143Z</time></trkpt><trkpt lat="42.2764301" lon="13.9475262"><ele>187.33333333333331</ele><time>2026-05-02T07:44:49.142Z</time></trkpt><trkpt lat="42.2764006" lon="13.9473397"><ele>183.66666666666666</ele><time>2026-05-02T07:44:50.142Z</time></trkpt><trkpt lat="42.2763751" lon="13.9471255"><ele>180.0</ele><time>2026-05-02T07:44:51.142Z</time></trkpt><trkpt lat="42.2763433" lon="13.9469143"><ele>183.5</ele><time>2026-05-02T07:44:52.142Z</time></trkpt><trkpt lat="42.2763019" lon="13.9466969"><ele>187.0</ele><time>2026-05-02T07:44:53.143Z</time></trkpt><trkpt lat="42.2762703" lon="13.9465282"><ele>190.5</ele><time>2026-05-02T07:44:54.143Z</time></trkpt><trkpt lat="42.2762405" lon="13.9463874"><ele>194.0</ele><time>2026-05-02T07:44:55.142Z</time></trkpt><trkpt lat="42.2761961" lon="13.9462761"><ele>194.0</ele><time>2026-05-02T07:44:56.142Z</time></trkpt><trkpt lat="42.2761483" lon="13.946204"><ele>194.0</ele><time>2026-05-02T07:44:57.142Z</time></trkpt><trkpt lat="42.2760723" lon="13.9461303"><ele>194.0</ele><time>2026-05-02T07:44:58.142Z</time></trkpt><trkpt lat="42.2759732" lon="13.9460591"><ele>194.0</ele><time>2026-05-02T07:44:59.142Z</time></trkpt><trkpt lat="42.2758617" lon="13.9459809"><ele>194.0</ele><time>2026-05-02T07:45:00.142Z</time></trkpt><trkpt lat="42.2757593" lon="13.9459164"><ele>193.83333333333334</ele><time>2026-05-02T07:45:01.143Z</time></trkpt><trkpt lat="42.2756731" lon="13.9458606"><ele>193.66666666666669</ele><time>2026-05-02T07:45:02.143Z</time></trkpt><trkpt lat="42.2755848" lon="13.9457947"><ele>193.5</ele><time>2026-05-02T07:45:03.143Z</time></trkpt><trkpt lat="42.2755221" lon="13.9457248"><ele>193.33333333333331</ele><time>2026-05-02T07:45:04.142Z</time></trkpt><trkpt lat="42.2754809" lon="13.9456359"><ele>193.16666666666666</ele><time>2026-05-02T07:45:05.142Z</time></trkpt><trkpt lat="42.2754676" lon="13.9455446"><ele>193.0</ele><time>2026-05-02T07:45:06.142Z</time></trkpt><trkpt lat="42.2755212" lon="13.9454104"><ele>197.0</ele><time>2026-05-02T07:45:08.142Z</time></trkpt><trkpt lat="42.2756524" lon="13.9453671"><ele>201.0</ele><time>2026-05-02T07:45:10.143Z</time></trkpt><trkpt lat="42.275747" lon="13.9453525"><ele>205.0</ele><time>2026-05-02T07:45:11.142Z</time></trkpt><trkpt lat="42.275851" lon="13.9453279"><ele>209.0</ele><time>2026-05-02T07:45:12.142Z</time></trkpt><trkpt lat="42.2759651" lon="13.9452864"><ele>209.0</ele><time>2026-05-02T07:45:13.143Z</time></trkpt><trkpt lat="42.276074" lon="13.9452603"><ele>209.0</ele><time>2026-05-02T07:45:14.142Z</time></trkpt><trkpt lat="42.276172" lon="13.9452424"><ele>209.0</ele><time>2026-05-02T07:45:15.143Z</time></trkpt><trkpt lat="42.2762651" lon="13.9452309"><ele>209.0</ele><time>2026-05-02T07:45:16.143Z</time></trkpt><trkpt lat="42.2763557" lon="13.9452161"><ele>209.0</ele><time>2026-05-02T07:45:17.142Z</time></trkpt><trkpt lat="42.2764522" lon="13.9452004"><ele>210.6</ele><time>2026-05-02T07:45:18.142Z</time></trkpt><trkpt lat="42.2765588" lon="13.9451853"><ele>212.2</ele><time>2026-05-02T07:45:19.142Z</time></trkpt><trkpt lat="42.2766595" lon="13.9451672"><ele>213.79999999999998</ele><time>2026-05-02T07:45:20.143Z</time></trkpt><trkpt lat="42.2767586" lon="13.9451397"><ele>215.39999999999998</ele><time>2026-05-02T07:45:21.142Z</time></trkpt><trkpt lat="42.2768485" lon="13.9451011"><ele>217.0</ele><time>2026-05-02T07:45:22.142Z</time></trkpt><trkpt lat="42.2769187" lon="13.9450516"><ele>217.83333333333331</ele><time>2026-05-02T07:45:23.142Z</time></trkpt><trkpt lat="42.2769668" lon="13.9449827"><ele>218.66666666666666</ele><time>2026-05-02T07:45:24.142Z</time></trkpt><trkpt lat="42.2770102" lon="13.9448827"><ele>219.5</ele><time>2026-05-02T07:45:25.143Z</time></trkpt><trkpt lat="42.2770415" lon="13.9447559"><ele>220.33333333333331</ele><time>2026-05-02T07:45:26.144Z</time></trkpt><trkpt lat="42.2770666" lon="13.9446163"><ele>221.16666666666666</ele><time>2026-05-02T07:45:27.143Z</time></trkpt><trkpt lat="42.2770866" lon="13.9445305"><ele>222.0</ele><time>2026-05-02T07:45:28.143Z</time></trkpt><trkpt lat="42.2771185" lon="13.9443661"><ele>222.0</ele><time>2026-05-02T07:45:30.143Z</time></trkpt><trkpt lat="42.2771383" lon="13.9442687"><ele>222.0</ele><time>2026-05-02T07:45:31.142Z</time></trkpt><trkpt lat="42.2771514" lon="13.9441699"><ele>222.0</ele><time>2026-05-02T07:45:32.144Z</time></trkpt><trkpt lat="42.2771692" lon="13.9440555"><ele>222.0</ele><time>2026-05-02T07:45:33.143Z</time></trkpt><trkpt lat="42.2771856" lon="13.9439311"><ele>222.0</ele><time>2026-05-02T07:45:34.143Z</time></trkpt><trkpt lat="42.2771889" lon="13.9437903"><ele>222.0</ele><time>2026-05-02T07:45:35.143Z</time></trkpt><trkpt lat="42.2771774" lon="13.943646"><ele>222.16666666666666</ele><time>2026-05-02T07:45:36.143Z</time></trkpt><trkpt lat="42.2771561" lon="13.9434986"><ele>222.33333333333331</ele><time>2026-05-02T07:45:37.143Z</time></trkpt><trkpt lat="42.2771308" lon="13.9433779"><ele>222.5</ele><time>2026-05-02T07:45:38.142Z</time></trkpt><trkpt lat="42.2770847" lon="13.9432753"><ele>222.66666666666666</ele><time>2026-05-02T07:45:39.142Z</time></trkpt><trkpt lat="42.2770309" lon="13.9431915"><ele>222.83333333333331</ele><time>2026-05-02T07:45:40.143Z</time></trkpt><trkpt lat="42.2769786" lon="13.9431275"><ele>223.0</ele><time>2026-05-02T07:45:41.142Z</time></trkpt><trkpt lat="42.2769172" lon="13.9430766"><ele>223.99999999999997</ele><time>2026-05-02T07:45:42.143Z</time></trkpt><trkpt lat="42.2768308" lon="13.9430286"><ele>225.0</ele><time>2026-05-02T07:45:44.142Z</time></trkpt><trkpt lat="42.2767426" lon="13.9429996"><ele>226.0</ele><time>2026-05-02T07:45:46.142Z</time></trkpt><trkpt lat="42.2766461" lon="13.9429636"><ele>227.0</ele><time>2026-05-02T07:45:48.143Z</time></trkpt><trkpt lat="42.2765821" lon="13.9429546"><ele>227.99999999999997</ele><time>2026-05-02T07:45:49.143Z</time></trkpt><trkpt lat="42.276501" lon="13.9429349"><ele>229.0</ele><time>2026-05-02T07:45:50.144Z</time></trkpt><trkpt lat="42.2764075" lon="13.942922"><ele>229.6</ele><time>2026-05-02T07:45:51.143Z</time></trkpt><trkpt lat="42.2763046" lon="13.9428987"><ele>230.2</ele><time>2026-05-02T07:45:52.143Z</time></trkpt><trkpt lat="42.2762282" lon="13.9428652"><ele>230.79999999999998</ele><time>2026-05-02T07:45:53.142Z</time></trkpt><trkpt lat="42.2761297" lon="13.9427598"><ele>231.39999999999998</ele><time>2026-05-02T07:45:55.143Z</time></trkpt><trkpt lat="42.276073" lon="13.9426188"><ele>232.0</ele><time>2026-05-02T07:45:57.142Z</time></trkpt><trkpt lat="42.2760449" lon="13.9425304"><ele>231.99999999999997</ele><time>2026-05-02T07:45:58.144Z</time></trkpt><trkpt lat="42.276012" lon="13.9424294"><ele>232.0</ele><time>2026-05-02T07:45:59.143Z</time></trkpt><trkpt lat="42.2759791" lon="13.9423192"><ele>232.0</ele><time>2026-05-02T07:46:00.143Z</time></trkpt><trkpt lat="42.2759442" lon="13.9422017"><ele>232.0</ele><time>2026-05-02T07:46:01.143Z</time></trkpt><trkpt lat="42.2759056" lon="13.9420909"><ele>231.99999999999997</ele><time>2026-05-02T07:46:02.143Z</time></trkpt><trkpt lat="42.2758685" lon="13.9419798"><ele>232.0</ele><time>2026-05-02T07:46:03.143Z</time></trkpt><trkpt lat="42.2758312" lon="13.9418692"><ele>231.99999999999997</ele><time>2026-05-02T07:46:04.143Z</time></trkpt><trkpt lat="42.2757979" lon="13.9417735"><ele>232.0</ele><time>2026-05-02T07:46:05.143Z</time></trkpt><trkpt lat="42.2757676" lon="13.941697"><ele>232.0</ele><time>2026-05-02T07:46:06.143Z</time></trkpt><trkpt lat="42.275725" lon="13.9415727"><ele>232.0</ele><time>2026-05-02T07:46:08.142Z</time></trkpt><trkpt lat="42.2757014" lon="13.9414135"><ele>231.99999999999997</ele><time>2026-05-02T07:46:10.144Z</time></trkpt><trkpt lat="42.2756812" lon="13.941307"><ele>232.0</ele><time>2026-05-02T07:46:11.142Z</time></trkpt><trkpt lat="42.2756594" lon="13.9412111"><ele>232.00000000000003</ele><time>2026-05-02T07:46:12.142Z</time></trkpt><trkpt lat="42.2756352" lon="13.9411134"><ele>232.0</ele><time>2026-05-02T07:46:13.142Z</time></trkpt><trkpt lat="42.275616" lon="13.9410155"><ele>232.00000000000003</ele><time>2026-05-02T07:46:14.143Z</time></trkpt><trkpt lat="42.2756009" lon="13.9409226"><ele>232.00000000000003</ele><time>2026-05-02T07:46:15.142Z</time></trkpt><trkpt lat="42.2755878" lon="13.9408269"><ele>232.0</ele><time>2026-05-02T07:46:16.142Z</time></trkpt><trkpt lat="42.275582" lon="13.9407208"><ele>232.00000000000003</ele><time>2026-05-02T07:46:17.143Z</time></trkpt><trkpt lat="42.2755839" lon="13.9406198"><ele>232.00000000000003</ele><time>2026-05-02T07:46:18.143Z</time></trkpt><trkpt lat="42.2755935" lon="13.9405153"><ele>231.99999999999997</ele><time>2026-05-02T07:46:19.142Z</time></trkpt><trkpt lat="42.2756047" lon="13.9403946"><ele>232.0</ele><time>2026-05-02T07:46:20.143Z</time></trkpt><trkpt lat="42.2756177" lon="13.9402785"><ele>232.0</ele><time>2026-05-02T07:46:21.143Z</time></trkpt><trkpt lat="42.2756278" lon="13.9401866"><ele>232.0</ele><time>2026-05-02T07:46:22.143Z</time></trkpt><trkpt lat="42.275613" lon="13.9400933"><ele>231.99999999999997</ele><time>2026-05-02T07:46:24.142Z</time></trkpt><trkpt lat="42.2755344" lon="13.9401159"><ele>232.0</ele><time>2026-05-02T07:46:26.143Z</time></trkpt><trkpt lat="42.2754474" lon="13.9401554"><ele>232.0</ele><time>2026-05-02T07:46:27.143Z</time></trkpt><trkpt lat="42.275332" lon="13.9402128"><ele>232.0</ele><time>2026-05-02T07:46:28.143Z</time></trkpt><trkpt lat="42.2752087" lon="13.9402863"><ele>232.0</ele><time>2026-05-02T07:46:29.142Z</time></trkpt><trkpt lat="42.2750777" lon="13.9403717"><ele>232.0</ele><time>2026-05-02T07:46:30.142Z</time></trkpt><trkpt lat="42.2749533" lon="13.9404579"><ele>232.0</ele><time>2026-05-02T07:46:31.143Z</time></trkpt><trkpt lat="42.2748302" lon="13.9405439"><ele>232.0</ele><time>2026-05-02T07:46:32.143Z</time></trkpt><trkpt lat="42.2747052" lon="13.9406137"><ele>232.0</ele><time>2026-05-02T07:46:33.142Z</time></trkpt><trkpt lat="42.2745799" lon="13.9406796"><ele>232.0</ele><time>2026-05-02T07:46:34.143Z</time></trkpt><trkpt lat="42.2744595" lon="13.9407296"><ele>229.5</ele><time>2026-05-02T07:46:35.142Z</time></trkpt><trkpt lat="42.2743421" lon="13.9407711"><ele>227.0</ele><time>2026-05-02T07:46:36.143Z</time></trkpt><trkpt lat="42.2742304" lon="13.9408043"><ele>224.5</ele><time>2026-05-02T07:46:37.142Z</time></trkpt><trkpt lat="42.2741198" lon="13.9408194"><ele>222.0</ele><time>2026-05-02T07:46:38.142Z</time></trkpt><trkpt lat="42.2740099" lon="13.9408126"><ele>218.5</ele><time>2026-05-02T07:46:39.142Z</time></trkpt><trkpt lat="42.273886" lon="13.9407892"><ele>215.0</ele><time>2026-05-02T07:46:40.143Z</time></trkpt><trkpt lat="42.2737528" lon="13.9407516"><ele>211.5</ele><time>2026-05-02T07:46:41.143Z</time></trkpt><trkpt lat="42.2736065" lon="13.9407089"><ele>208.0</ele><time>2026-05-02T07:46:42.142Z</time></trkpt><trkpt lat="42.2734566" lon="13.9406718"><ele>208.0</ele><time>2026-05-02T07:46:43.142Z</time></trkpt><trkpt lat="42.2733034" lon="13.9406401"><ele>208.0</ele><time>2026-05-02T07:46:44.143Z</time></trkpt><trkpt lat="42.2731497" lon="13.9406094"><ele>208.0</ele><time>2026-05-02T07:46:45.143Z</time></trkpt><trkpt lat="42.2730007" lon="13.9405769"><ele>205.25</ele><time>2026-05-02T07:46:46.142Z</time></trkpt><trkpt lat="42.2728557" lon="13.9405439"><ele>202.5</ele><time>2026-05-02T07:46:47.143Z</time></trkpt><trkpt lat="42.2727158" lon="13.9405209"><ele>199.75</ele><time>2026-05-02T07:46:48.142Z</time></trkpt><trkpt lat="42.2725991" lon="13.9405034"><ele>197.0</ele><time>2026-05-02T07:46:49.142Z</time></trkpt><trkpt lat="42.2725087" lon="13.940487"><ele>197.0</ele><time>2026-05-02T07:46:50.142Z</time></trkpt><trkpt lat="42.2724479" lon="13.9404607"><ele>197.0</ele><time>2026-05-02T07:46:51.142Z</time></trkpt><trkpt lat="42.2724014" lon="13.9403532"><ele>197.0</ele><time>2026-05-02T07:46:53.142Z</time></trkpt><trkpt lat="42.2724814" lon="13.9401893"><ele>197.0</ele><time>2026-05-02T07:46:55.142Z</time></trkpt><trkpt lat="42.2725644" lon="13.9400677"><ele>197.0</ele><time>2026-05-02T07:46:56.142Z</time></trkpt><trkpt lat="42.2726616" lon="13.9399408"><ele>196.8</ele><time>2026-05-02T07:46:57.143Z</time></trkpt><trkpt lat="42.2727497" lon="13.9398414"><ele>196.6</ele><time>2026-05-02T07:46:58.142Z</time></trkpt><trkpt lat="42.2728263" lon="13.9397472"><ele>196.4</ele><time>2026-05-02T07:46:59.144Z</time></trkpt><trkpt lat="42.272885" lon="13.9396646"><ele>196.20000000000002</ele><time>2026-05-02T07:47:00.142Z</time></trkpt><trkpt lat="42.2729315" lon="13.9395748"><ele>196.0</ele><time>2026-05-02T07:47:01.142Z</time></trkpt><trkpt lat="42.2729473" lon="13.9394787"><ele>195.99999999999997</ele><time>2026-05-02T07:47:02.142Z</time></trkpt><trkpt lat="42.2729468" lon="13.9393787"><ele>196.0</ele><time>2026-05-02T07:47:03.142Z</time></trkpt><trkpt lat="42.2729296" lon="13.9392746"><ele>196.0</ele><time>2026-05-02T07:47:04.143Z</time></trkpt><trkpt lat="42.2728944" lon="13.9391774"><ele>196.0</ele><time>2026-05-02T07:47:05.143Z</time></trkpt><trkpt lat="42.272845" lon="13.9390814"><ele>195.99999999999997</ele><time>2026-05-02T07:47:06.143Z</time></trkpt><trkpt lat="42.2727835" lon="13.9389947"><ele>196.0</ele><time>2026-05-02T07:47:07.143Z</time></trkpt><trkpt lat="42.2727021" lon="13.9388884"><ele>194.60000000000002</ele><time>2026-05-02T07:47:08.142Z</time></trkpt><trkpt lat="42.2726288" lon="13.9387819"><ele>193.2</ele><time>2026-05-02T07:47:09.143Z</time></trkpt><trkpt lat="42.2725569" lon="13.9386957"><ele>191.8</ele><time>2026-05-02T07:47:10.143Z</time></trkpt><trkpt lat="42.2724714" lon="13.9386262"><ele>190.39999999999998</ele><time>2026-05-02T07:47:11.142Z</time></trkpt><trkpt lat="42.2723686" lon="13.9385609"><ele>189.0</ele><time>2026-05-02T07:47:12.142Z</time></trkpt><trkpt lat="42.2722538" lon="13.9385068"><ele>187.79999999999998</ele><time>2026-05-02T07:47:13.143Z</time></trkpt><trkpt lat="42.2721406" lon="13.9384607"><ele>186.6</ele><time>2026-05-02T07:47:14.142Z</time></trkpt><trkpt lat="42.2720355" lon="13.9384288"><ele>185.4</ele><time>2026-05-02T07:47:15.142Z</time></trkpt><trkpt lat="42.2719517" lon="13.938412"><ele>184.2</ele><time>2026-05-02T07:47:16.142Z</time></trkpt><trkpt lat="42.271881" lon="13.9384024"><ele>183.0</ele><time>2026-05-02T07:47:17.142Z</time></trkpt><trkpt lat="42.2717769" lon="13.9383019"><ele>181.5</ele><time>2026-05-02T07:47:19.143Z</time></trkpt><trkpt lat="42.2717405" lon="13.9381975"><ele>180.0</ele><time>2026-05-02T07:47:20.142Z</time></trkpt><trkpt lat="42.2717099" lon="13.9380823"><ele>178.5</ele><time>2026-05-02T07:47:21.142Z</time></trkpt><trkpt lat="42.2716661" lon="13.9379943"><ele>177.0</ele><time>2026-05-02T07:47:22.143Z</time></trkpt><trkpt lat="42.2716117" lon="13.9379254"><ele>175.5</ele><time>2026-05-02T07:47:23.143Z</time></trkpt><trkpt lat="42.2715343" lon="13.937886"><ele>174.0</ele><time>2026-05-02T07:47:24.144Z</time></trkpt><trkpt lat="42.2714361" lon="13.937869"><ele>173.0</ele><time>2026-05-02T07:47:25.143Z</time></trkpt><trkpt lat="42.2713367" lon="13.9378706"><ele>172.0</ele><time>2026-05-02T07:47:26.143Z</time></trkpt><trkpt lat="42.2712397" lon="13.937887"><ele>171.0</ele><time>2026-05-02T07:47:27.143Z</time></trkpt><trkpt lat="42.2711573" lon="13.9379354"><ele>170.0</ele><time>2026-05-02T07:47:28.142Z</time></trkpt><trkpt lat="42.2710891" lon="13.9380211"><ele>169.0</ele><time>2026-05-02T07:47:29.143Z</time></trkpt><trkpt lat="42.2710158" lon="13.9381462"><ele>169.0</ele><time>2026-05-02T07:47:30.142Z</time></trkpt><trkpt lat="42.2709463" lon="13.9383107"><ele>169.0</ele><time>2026-05-02T07:47:31.142Z</time></trkpt><trkpt lat="42.2708917" lon="13.9384821"><ele>169.0</ele><time>2026-05-02T07:47:32.143Z</time></trkpt><trkpt lat="42.2708372" lon="13.9386613"><ele>169.0</ele><time>2026-05-02T07:47:33.142Z</time></trkpt><trkpt lat="42.270787" lon="13.9388468"><ele>169.66666666666669</ele><time>2026-05-02T07:47:34.144Z</time></trkpt><trkpt lat="42.270746" lon="13.9390229"><ele>170.33333333333334</ele><time>2026-05-02T07:47:35.144Z</time></trkpt><trkpt lat="42.2707013" lon="13.9392333"><ele>171.0</ele><time>2026-05-02T07:47:36.143Z</time></trkpt><trkpt lat="42.2706708" lon="13.9394342"><ele>171.33333333333334</ele><time>2026-05-02T07:47:37.142Z</time></trkpt><trkpt lat="42.2706385" lon="13.9396203"><ele>171.66666666666669</ele><time>2026-05-02T07:47:38.142Z</time></trkpt><trkpt lat="42.2705825" lon="13.9398093"><ele>172.0</ele><time>2026-05-02T07:47:39.142Z</time></trkpt><trkpt lat="42.2705084" lon="13.9400052"><ele>167.0</ele><time>2026-05-02T07:47:40.144Z</time></trkpt><trkpt lat="42.2704354" lon="13.9401925"><ele>162.0</ele><time>2026-05-02T07:47:41.143Z</time></trkpt><trkpt lat="42.2703715" lon="13.9403844"><ele>157.0</ele><time>2026-05-02T07:47:42.142Z</time></trkpt><trkpt lat="42.2703095" lon="13.9405717"><ele>157.0</ele><time>2026-05-02T07:47:43.143Z</time></trkpt><trkpt lat="42.270244" lon="13.9407469"><ele>157.0</ele><time>2026-05-02T07:47:44.143Z</time></trkpt><trkpt lat="42.2701928" lon="13.9409053"><ele>157.0</ele><time>2026-05-02T07:47:45.143Z</time></trkpt><trkpt lat="42.2701433" lon="13.9410535"><ele>157.0</ele><time>2026-05-02T07:47:46.143Z</time></trkpt><trkpt lat="42.2700975" lon="13.941156"><ele>157.0</ele><time>2026-05-02T07:47:47.144Z</time></trkpt><trkpt lat="42.2700256" lon="13.9412718"><ele>157.0</ele><time>2026-05-02T07:47:48.143Z</time></trkpt><trkpt lat="42.2699676" lon="13.9413717"><ele>157.0</ele><time>2026-05-02T07:47:49.142Z</time></trkpt><trkpt lat="42.2699105" lon="13.941475"><ele>157.0</ele><time>2026-05-02T07:47:50.143Z</time></trkpt><trkpt lat="42.2699259" lon="13.941603"><ele>157.0</ele><time>2026-05-02T07:47:51.143Z</time></trkpt><trkpt lat="42.2699038" lon="13.9417575"><ele>156.2</ele><time>2026-05-02T07:47:52.143Z</time></trkpt><trkpt lat="42.2699413" lon="13.9418923"><ele>155.39999999999998</ele><time>2026-05-02T07:47:53.142Z</time></trkpt><trkpt lat="42.2699375" lon="13.9420106"><ele>154.60000000000002</ele><time>2026-05-02T07:47:54.143Z</time></trkpt><trkpt lat="42.269937" lon="13.9421182"><ele>153.8</ele><time>2026-05-02T07:47:55.143Z</time></trkpt><trkpt lat="42.2698653" lon="13.942202"><ele>153.0</ele><time>2026-05-02T07:47:56.142Z</time></trkpt><trkpt lat="42.269796" lon="13.9422904"><ele>151.75</ele><time>2026-05-02T07:47:57.143Z</time></trkpt><trkpt lat="42.2697112" lon="13.9423417"><ele>150.5</ele><time>2026-05-02T07:47:58.142Z</time></trkpt><trkpt lat="42.2696036" lon="13.9423902"><ele>149.25</ele><time>2026-05-02T07:47:59.142Z</time></trkpt><trkpt lat="42.269471" lon="13.9424401"><ele>148.0</ele><time>2026-05-02T07:48:00.142Z</time></trkpt><trkpt lat="42.2693257" lon="13.9424862"><ele>148.0</ele><time>2026-05-02T07:48:01.142Z</time></trkpt><trkpt lat="42.2691686" lon="13.9425387"><ele>148.0</ele><time>2026-05-02T07:48:02.144Z</time></trkpt><trkpt lat="42.2690381" lon="13.9425759"><ele>148.0</ele><time>2026-05-02T07:48:03.143Z</time></trkpt><trkpt lat="42.2689122" lon="13.9426186"><ele>148.0</ele><time>2026-05-02T07:48:04.143Z</time></trkpt><trkpt lat="42.2688143" lon="13.9426523"><ele>148.0</ele><time>2026-05-02T07:48:05.143Z</time></trkpt><trkpt lat="42.2687376" lon="13.9426733"><ele>148.0</ele><time>2026-05-02T07:48:06.142Z</time></trkpt><trkpt lat="42.2686577" lon="13.9426833"><ele>148.0</ele><time>2026-05-02T07:48:07.143Z</time></trkpt><trkpt lat="42.2685726" lon="13.9426736"><ele>148.0</ele><time>2026-05-02T07:48:08.144Z</time></trkpt><trkpt lat="42.2684732" lon="13.9426552"><ele>148.0</ele><time>2026-05-02T07:48:09.142Z</time></trkpt><trkpt lat="42.2683773" lon="13.9426051"><ele>148.0</ele><time>2026-05-02T07:48:10.143Z</time></trkpt><trkpt lat="42.2682858" lon="13.9425378"><ele>148.0</ele><time>2026-05-02T07:48:11.142Z</time></trkpt><trkpt lat="42.2682131" lon="13.9424537"><ele>148.0</ele><time>2026-05-02T07:48:12.143Z</time></trkpt><trkpt lat="42.2681567" lon="13.9423915"><ele>148.0</ele><time>2026-05-02T07:48:13.143Z</time></trkpt><trkpt lat="42.2681019" lon="13.9423416"><ele>148.0</ele><time>2026-05-02T07:48:14.143Z</time></trkpt><trkpt lat="42.2679787" lon="13.9423313"><ele>148.0</ele><time>2026-05-02T07:48:16.142Z</time></trkpt><trkpt lat="42.2679133" lon="13.9423318"><ele>148.0</ele><time>2026-05-02T07:48:17.143Z</time></trkpt><trkpt lat="42.2678155" lon="13.9423146"><ele>150.0</ele><time>2026-05-02T07:48:19.142Z</time></trkpt><trkpt lat="42.2677202" lon="13.9422737"><ele>152.0</ele><time>2026-05-02T07:48:21.143Z</time></trkpt><trkpt lat="42.2676896" lon="13.9420571"><ele>154.0</ele><time>2026-05-02T07:48:23.142Z</time></trkpt><trkpt lat="42.2676677" lon="13.9419314"><ele>156.0</ele><time>2026-05-02T07:48:24.142Z</time></trkpt><trkpt lat="42.2676505" lon="13.9418203"><ele>158.0</ele><time>2026-05-02T07:48:25.144Z</time></trkpt><trkpt lat="42.2676217" lon="13.941707"><ele>158.0</ele><time>2026-05-02T07:48:26.142Z</time></trkpt><trkpt lat="42.2675992" lon="13.9416029"><ele>158.0</ele><time>2026-05-02T07:48:27.142Z</time></trkpt><trkpt lat="42.2675527" lon="13.9414963"><ele>158.0</ele><time>2026-05-02T07:48:28.142Z</time></trkpt><trkpt lat="42.2674951" lon="13.9413759"><ele>158.0</ele><time>2026-05-02T07:48:29.142Z</time></trkpt><trkpt lat="42.2674208" lon="13.9412557"><ele>158.0</ele><time>2026-05-02T07:48:30.142Z</time></trkpt><trkpt lat="42.2673522" lon="13.9411437"><ele>161.75</ele><time>2026-05-02T07:48:31.143Z</time></trkpt><trkpt lat="42.2672765" lon="13.94101"><ele>165.5</ele><time>2026-05-02T07:48:32.142Z</time></trkpt><trkpt lat="42.2671968" lon="13.940871"><ele>169.25</ele><time>2026-05-02T07:48:33.142Z</time></trkpt><trkpt lat="42.2671306" lon="13.9407432"><ele>173.0</ele><time>2026-05-02T07:48:34.142Z</time></trkpt><trkpt lat="42.2670698" lon="13.9406165"><ele>173.2</ele><time>2026-05-02T07:48:35.143Z</time></trkpt><trkpt lat="42.2670129" lon="13.940507"><ele>173.4</ele><time>2026-05-02T07:48:36.143Z</time></trkpt><trkpt lat="42.2669648" lon="13.9403859"><ele>173.6</ele><time>2026-05-02T07:48:37.143Z</time></trkpt><trkpt lat="42.2669213" lon="13.9402815"><ele>173.79999999999998</ele><time>2026-05-02T07:48:38.143Z</time></trkpt><trkpt lat="42.2668802" lon="13.9402098"><ele>174.0</ele><time>2026-05-02T07:48:39.143Z</time></trkpt><trkpt lat="42.2667927" lon="13.9401568"><ele>174.0</ele><time>2026-05-02T07:48:41.143Z</time></trkpt><trkpt lat="42.2667413" lon="13.9402185"><ele>174.0</ele><time>2026-05-02T07:48:42.142Z</time></trkpt><trkpt lat="42.2666904" lon="13.9403788"><ele>174.0</ele><time>2026-05-02T07:48:44.142Z</time></trkpt><trkpt lat="42.2666624" lon="13.9404872"><ele>174.0</ele><time>2026-05-02T07:48:45.142Z</time></trkpt><trkpt lat="42.2666171" lon="13.9406037"><ele>174.0</ele><time>2026-05-02T07:48:46.142Z</time></trkpt><trkpt lat="42.2665669" lon="13.9407471"><ele>173.75</ele><time>2026-05-02T07:48:47.142Z</time></trkpt><trkpt lat="42.2665151" lon="13.9409043"><ele>173.5</ele><time>2026-05-02T07:48:48.142Z</time></trkpt><trkpt lat="42.2664693" lon="13.9410552"><ele>173.25</ele><time>2026-05-02T07:48:49.142Z</time></trkpt><trkpt lat="42.2664252" lon="13.9412014"><ele>173.0</ele><time>2026-05-02T07:48:50.142Z</time></trkpt><trkpt lat="42.2663795" lon="13.9413361"><ele>177.0</ele><time>2026-05-02T07:48:51.142Z</time></trkpt><trkpt lat="42.2663479" lon="13.9414673"><ele>181.0</ele><time>2026-05-02T07:48:52.142Z</time></trkpt><trkpt lat="42.2663327" lon="13.941591"><ele>185.0</ele><time>2026-05-02T07:48:53.142Z</time></trkpt><trkpt lat="42.2663431" lon="13.941722"><ele>189.0</ele><time>2026-05-02T07:48:54.142Z</time></trkpt><trkpt lat="42.2663681" lon="13.9418797"><ele>193.0</ele><time>2026-05-02T07:48:55.142Z</time></trkpt><trkpt lat="42.2663883" lon="13.9420258"><ele>194.0</ele><time>2026-05-02T07:48:56.143Z</time></trkpt><trkpt lat="42.2664114" lon="13.9422105"><ele>195.0</ele><time>2026-05-02T07:48:57.143Z</time></trkpt><trkpt lat="42.2664262" lon="13.9423579"><ele>196.0</ele><time>2026-05-02T07:48:58.142Z</time></trkpt><trkpt lat="42.2664611" lon="13.9425292"><ele>197.0</ele><time>2026-05-02T07:48:59.143Z</time></trkpt><trkpt lat="42.2664879" lon="13.9426969"><ele>196.8</ele><time>2026-05-02T07:49:00.143Z</time></trkpt><trkpt lat="42.2665081" lon="13.9428567"><ele>196.6</ele><time>2026-05-02T07:49:01.142Z</time></trkpt><trkpt lat="42.2665228" lon="13.9430048"><ele>196.4</ele><time>2026-05-02T07:49:02.143Z</time></trkpt><trkpt lat="42.2665293" lon="13.9431171"><ele>196.20000000000002</ele><time>2026-05-02T07:49:03.143Z</time></trkpt><trkpt lat="42.2665125" lon="13.9432431"><ele>196.0</ele><time>2026-05-02T07:49:05.143Z</time></trkpt><trkpt lat="42.266431" lon="13.9433132"><ele>196.0</ele><time>2026-05-02T07:49:07.143Z</time></trkpt><trkpt lat="42.2663556" lon="13.9433171"><ele>196.0</ele><time>2026-05-02T07:49:08.142Z</time></trkpt><trkpt lat="42.2662616" lon="13.9433073"><ele>196.0</ele><time>2026-05-02T07:49:09.142Z</time></trkpt><trkpt lat="42.2661694" lon="13.9433096"><ele>196.0</ele><time>2026-05-02T07:49:10.142Z</time></trkpt><trkpt lat="42.2660568" lon="13.9433259"><ele>196.0</ele><time>2026-05-02T07:49:11.142Z</time></trkpt><trkpt lat="42.2659361" lon="13.9433398"><ele>196.0</ele><time>2026-05-02T07:49:12.142Z</time></trkpt><trkpt lat="42.265823" lon="13.9433417"><ele>196.0</ele><time>2026-05-02T07:49:13.142Z</time></trkpt><trkpt lat="42.2657407" lon="13.9433128"><ele>196.0</ele><time>2026-05-02T07:49:14.142Z</time></trkpt><trkpt lat="42.2656527" lon="13.9432665"><ele>196.0</ele><time>2026-05-02T07:49:15.142Z</time></trkpt><trkpt lat="42.2655652" lon="13.943187"><ele>196.0</ele><time>2026-05-02T07:49:16.142Z</time></trkpt><trkpt lat="42.265471" lon="13.943098"><ele>195.20000000000002</ele><time>2026-05-02T07:49:17.142Z</time></trkpt><trkpt lat="42.2654111" lon="13.9430247"><ele>194.4</ele><time>2026-05-02T07:49:18.142Z</time></trkpt><trkpt lat="42.2653558" lon="13.9429295"><ele>193.6</ele><time>2026-05-02T07:49:19.142Z</time></trkpt><trkpt lat="42.2653094" lon="13.9428162"><ele>192.8</ele><time>2026-05-02T07:49:20.143Z</time></trkpt><trkpt lat="42.265258" lon="13.9426875"><ele>192.0</ele><time>2026-05-02T07:49:21.144Z</time></trkpt><trkpt lat="42.2652056" lon="13.9425541"><ele>195.75</ele><time>2026-05-02T07:49:22.142Z</time></trkpt><trkpt lat="42.2651509" lon="13.9424203"><ele>199.5</ele><time>2026-05-02T07:49:23.142Z</time></trkpt><trkpt lat="42.2650986" lon="13.9422812"><ele>203.25</ele><time>2026-05-02T07:49:24.142Z</time></trkpt><trkpt lat="42.265045" lon="13.9421337"><ele>207.0</ele><time>2026-05-02T07:49:25.143Z</time></trkpt><trkpt lat="42.2649828" lon="13.9419728"><ele>207.0</ele><time>2026-05-02T07:49:26.142Z</time></trkpt><trkpt lat="42.2649133" lon="13.9418205"><ele>207.0</ele><time>2026-05-02T07:49:27.142Z</time></trkpt><trkpt lat="42.2648552" lon="13.9416924"><ele>207.0</ele><time>2026-05-02T07:49:28.143Z</time></trkpt><trkpt lat="42.2648117" lon="13.9415667"><ele>207.0</ele><time>2026-05-02T07:49:29.142Z</time></trkpt><trkpt lat="42.2647776" lon="13.941435"><ele>207.6</ele><time>2026-05-02T07:49:30.142Z</time></trkpt><trkpt lat="42.2647586" lon="13.9413011"><ele>208.2</ele><time>2026-05-02T07:49:31.143Z</time></trkpt><trkpt lat="42.2647459" lon="13.9411852"><ele>208.8</ele><time>2026-05-02T07:49:32.143Z</time></trkpt><trkpt lat="42.264736" lon="13.9410636"><ele>209.4</ele><time>2026-05-02T07:49:33.143Z</time></trkpt><trkpt lat="42.264723" lon="13.9409119"><ele>210.0</ele><time>2026-05-02T07:49:34.144Z</time></trkpt><trkpt lat="42.2647026" lon="13.9407564"><ele>212.4</ele><time>2026-05-02T07:49:35.142Z</time></trkpt><trkpt lat="42.2646727" lon="13.9406007"><ele>214.8</ele><time>2026-05-02T07:49:36.143Z</time></trkpt><trkpt lat="42.2646473" lon="13.9404738"><ele>217.2</ele><time>2026-05-02T07:49:37.143Z</time></trkpt><trkpt lat="42.2646194" lon="13.940358"><ele>219.6</ele><time>2026-05-02T07:49:38.143Z</time></trkpt><trkpt lat="42.2645936" lon="13.9402557"><ele>222.0</ele><time>2026-05-02T07:49:39.143Z</time></trkpt><trkpt lat="42.2645762" lon="13.9401666"><ele>222.0</ele><time>2026-05-02T07:49:40.143Z</time></trkpt><trkpt lat="42.264565" lon="13.9400739"><ele>222.0</ele><time>2026-05-02T07:49:41.143Z</time></trkpt><trkpt lat="42.2645506" lon="13.9399542"><ele>222.0</ele><time>2026-05-02T07:49:42.143Z</time></trkpt><trkpt lat="42.2645305" lon="13.9398129"><ele>222.0</ele><time>2026-05-02T07:49:43.144Z</time></trkpt><trkpt lat="42.264513" lon="13.9396671"><ele>222.0</ele><time>2026-05-02T07:49:44.142Z</time></trkpt><trkpt lat="42.2644843" lon="13.9395463"><ele>223.0</ele><time>2026-05-02T07:49:45.143Z</time></trkpt><trkpt lat="42.2644486" lon="13.9394165"><ele>224.0</ele><time>2026-05-02T07:49:46.143Z</time></trkpt><trkpt lat="42.2644078" lon="13.9392831"><ele>225.0</ele><time>2026-05-02T07:49:47.143Z</time></trkpt><trkpt lat="42.2643712" lon="13.9391678"><ele>226.0</ele><time>2026-05-02T07:49:48.142Z</time></trkpt><trkpt lat="42.2643303" lon="13.939069"><ele>227.0</ele><time>2026-05-02T07:49:49.142Z</time></trkpt><trkpt lat="42.2642855" lon="13.9389787"><ele>225.0</ele><time>2026-05-02T07:49:50.144Z</time></trkpt><trkpt lat="42.2642062" lon="13.9388753"><ele>223.0</ele><time>2026-05-02T07:49:51.142Z</time></trkpt><trkpt lat="42.2641267" lon="13.9387644"><ele>221.0</ele><time>2026-05-02T07:49:52.143Z</time></trkpt><trkpt lat="42.2640359" lon="13.9386271"><ele>219.0</ele><time>2026-05-02T07:49:53.143Z</time></trkpt><trkpt lat="42.2639396" lon="13.938508"><ele>224.0</ele><time>2026-05-02T07:49:54.143Z</time></trkpt><trkpt lat="42.2638415" lon="13.9383788"><ele>229.0</ele><time>2026-05-02T07:49:55.144Z</time></trkpt><trkpt lat="42.2637482" lon="13.9382465"><ele>234.0</ele><time>2026-05-02T07:49:56.142Z</time></trkpt><trkpt lat="42.2636537" lon="13.9380947"><ele>239.0</ele><time>2026-05-02T07:49:57.142Z</time></trkpt><trkpt lat="42.2635598" lon="13.9379175"><ele>239.0</ele><time>2026-05-02T07:49:58.142Z</time></trkpt><trkpt lat="42.2634853" lon="13.9377478"><ele>239.0</ele><time>2026-05-02T07:49:59.143Z</time></trkpt><trkpt lat="42.2634278" lon="13.9375919"><ele>239.0</ele><time>2026-05-02T07:50:00.142Z</time></trkpt><trkpt lat="42.2633809" lon="13.9374439"><ele>239.0</ele><time>2026-05-02T07:50:01.142Z</time></trkpt><trkpt lat="42.2633456" lon="13.9373026"><ele>242.79999999999998</ele><time>2026-05-02T07:50:02.143Z</time></trkpt><trkpt lat="42.2633189" lon="13.9371477"><ele>246.59999999999997</ele><time>2026-05-02T07:50:03.143Z</time></trkpt><trkpt lat="42.2633" lon="13.9370098"><ele>250.4</ele><time>2026-05-02T07:50:04.142Z</time></trkpt><trkpt lat="42.2632735" lon="13.9368776"><ele>254.2</ele><time>2026-05-02T07:50:05.142Z</time></trkpt><trkpt lat="42.2632441" lon="13.9367615"><ele>258.0</ele><time>2026-05-02T07:50:06.143Z</time></trkpt><trkpt lat="42.2632038" lon="13.9366586"><ele>259.1666666666667</ele><time>2026-05-02T07:50:07.143Z</time></trkpt><trkpt lat="42.2631584" lon="13.9365792"><ele>260.3333333333333</ele><time>2026-05-02T07:50:08.143Z</time></trkpt><trkpt lat="42.2631005" lon="13.9365182"><ele>261.5</ele><time>2026-05-02T07:50:09.143Z</time></trkpt><trkpt lat="42.2630335" lon="13.9364818"><ele>262.66666666666663</ele><time>2026-05-02T07:50:10.142Z</time></trkpt><trkpt lat="42.2629507" lon="13.9364589"><ele>263.8333333333333</ele><time>2026-05-02T07:50:11.142Z</time></trkpt><trkpt lat="42.2628607" lon="13.9364375"><ele>265.0</ele><time>2026-05-02T07:50:12.142Z</time></trkpt><trkpt lat="42.2627859" lon="13.9364161"><ele>265.0</ele><time>2026-05-02T07:50:13.142Z</time></trkpt><trkpt lat="42.26272" lon="13.9363804"><ele>265.0</ele><time>2026-05-02T07:50:14.143Z</time></trkpt><trkpt lat="42.2626563" lon="13.9363186"><ele>265.0</ele><time>2026-05-02T07:50:15.143Z</time></trkpt><trkpt lat="42.2625831" lon="13.9362603"><ele>265.0</ele><time>2026-05-02T07:50:16.143Z</time></trkpt><trkpt lat="42.2625063" lon="13.9361297"><ele>265.0</ele><time>2026-05-02T07:50:17.143Z</time></trkpt><trkpt lat="42.2624186" lon="13.9360085"><ele>265.0</ele><time>2026-05-02T07:50:18.143Z</time></trkpt><trkpt lat="42.2623366" lon="13.9359097"><ele>265.0</ele><time>2026-05-02T07:50:19.142Z</time></trkpt><trkpt lat="42.2622709" lon="13.935832"><ele>265.0</ele><time>2026-05-02T07:50:20.143Z</time></trkpt><trkpt lat="42.2622169" lon="13.9357695"><ele>265.0</ele><time>2026-05-02T07:50:21.143Z</time></trkpt><trkpt lat="42.2621518" lon="13.9356731"><ele>265.0</ele><time>2026-05-02T07:50:27.143Z</time></trkpt><trkpt lat="42.2621051" lon="13.935559"><ele>267.0</ele><time>2026-05-02T07:50:29.143Z</time></trkpt><trkpt lat="42.2620959" lon="13.9354259"><ele>269.0</ele><time>2026-05-02T07:50:31.142Z</time></trkpt><trkpt lat="42.2621042" lon="13.9353265"><ele>271.0</ele><time>2026-05-02T07:50:32.143Z</time></trkpt><trkpt lat="42.2621102" lon="13.9351883"><ele>273.0</ele><time>2026-05-02T07:50:33.142Z</time></trkpt><trkpt lat="42.2621088" lon="13.9350371"><ele>275.0</ele><time>2026-05-02T07:50:34.142Z</time></trkpt><trkpt lat="42.2621094" lon="13.9348405"><ele>276.4</ele><time>2026-05-02T07:50:35.143Z</time></trkpt><trkpt lat="42.2621121" lon="13.9346762"><ele>277.8</ele><time>2026-05-02T07:50:36.142Z</time></trkpt><trkpt lat="42.2621111" lon="13.9345315"><ele>279.2</ele><time>2026-05-02T07:50:37.143Z</time></trkpt><trkpt lat="42.2621074" lon="13.9344058"><ele>280.6</ele><time>2026-05-02T07:50:38.142Z</time></trkpt><trkpt lat="42.2621014" lon="13.9342955"><ele>282.0</ele><time>2026-05-02T07:50:39.142Z</time></trkpt><trkpt lat="42.2620859" lon="13.9342039"><ele>283.4</ele><time>2026-05-02T07:50:40.142Z</time></trkpt><trkpt lat="42.2620397" lon="13.9341188"><ele>284.79999999999995</ele><time>2026-05-02T07:50:42.142Z</time></trkpt><trkpt lat="42.2619477" lon="13.9340918"><ele>286.2</ele><time>2026-05-02T07:50:44.142Z</time></trkpt><trkpt lat="42.2618526" lon="13.9341023"><ele>287.59999999999997</ele><time>2026-05-02T07:50:45.142Z</time></trkpt><trkpt lat="42.2617589" lon="13.9340928"><ele>289.0</ele><time>2026-05-02T07:50:46.143Z</time></trkpt><trkpt lat="42.2616621" lon="13.9340673"><ele>289.0</ele><time>2026-05-02T07:50:47.142Z</time></trkpt><trkpt lat="42.2615389" lon="13.9340252"><ele>289.0</ele><time>2026-05-02T07:50:48.142Z</time></trkpt><trkpt lat="42.2613982" lon="13.9339645"><ele>289.0</ele><time>2026-05-02T07:50:49.142Z</time></trkpt><trkpt lat="42.2612467" lon="13.9338975"><ele>289.0</ele><time>2026-05-02T07:50:50.142Z</time></trkpt><trkpt lat="42.2611182" lon="13.9338339"><ele>287.75</ele><time>2026-05-02T07:50:51.142Z</time></trkpt><trkpt lat="42.2609921" lon="13.9337744"><ele>286.5</ele><time>2026-05-02T07:50:52.143Z</time></trkpt><trkpt lat="42.2608683" lon="13.9337134"><ele>285.25</ele><time>2026-05-02T07:50:53.143Z</time></trkpt><trkpt lat="42.2607354" lon="13.933649"><ele>284.0</ele><time>2026-05-02T07:50:54.144Z</time></trkpt><trkpt lat="42.2606091" lon="13.9335928"><ele>284.0</ele><time>2026-05-02T07:50:55.142Z</time></trkpt><trkpt lat="42.2604774" lon="13.9335495"><ele>284.0</ele><time>2026-05-02T07:50:56.142Z</time></trkpt><trkpt lat="42.2603505" lon="13.9335377"><ele>284.0</ele><time>2026-05-02T07:50:57.143Z</time></trkpt><trkpt lat="42.2602187" lon="13.9335361"><ele>284.0</ele><time>2026-05-02T07:50:58.143Z</time></trkpt><trkpt lat="42.2600808" lon="13.9335488"><ele>284.0</ele><time>2026-05-02T07:50:59.142Z</time></trkpt><trkpt lat="42.2599599" lon="13.9335566"><ele>284.0</ele><time>2026-05-02T07:51:00.142Z</time></trkpt><trkpt lat="42.2598209" lon="13.9335615"><ele>284.0</ele><time>2026-05-02T07:51:01.142Z</time></trkpt><trkpt lat="42.2597028" lon="13.9335642"><ele>284.0</ele><time>2026-05-02T07:51:02.142Z</time></trkpt><trkpt lat="42.2595982" lon="13.9335459"><ele>282.75</ele><time>2026-05-02T07:51:03.142Z</time></trkpt><trkpt lat="42.2594988" lon="13.9335035"><ele>281.5</ele><time>2026-05-02T07:51:04.142Z</time></trkpt><trkpt lat="42.2593951" lon="13.9334421"><ele>280.25</ele><time>2026-05-02T07:51:05.144Z</time></trkpt><trkpt lat="42.2592646" lon="13.9333593"><ele>279.0</ele><time>2026-05-02T07:51:06.144Z</time></trkpt><trkpt lat="42.2591213" lon="13.9332623"><ele>282.75</ele><time>2026-05-02T07:51:07.143Z</time></trkpt><trkpt lat="42.2589863" lon="13.9331831"><ele>286.5</ele><time>2026-05-02T07:51:08.142Z</time></trkpt><trkpt lat="42.2588471" lon="13.9331243"><ele>290.25</ele><time>2026-05-02T07:51:09.142Z</time></trkpt><trkpt lat="42.2587125" lon="13.9330939"><ele>294.0</ele><time>2026-05-02T07:51:10.142Z</time></trkpt><trkpt lat="42.2585807" lon="13.9330854"><ele>294.0</ele><time>2026-05-02T07:51:11.143Z</time></trkpt><trkpt lat="42.2584545" lon="13.9331003"><ele>294.0</ele><time>2026-05-02T07:51:12.144Z</time></trkpt><trkpt lat="42.2583409" lon="13.9331145"><ele>294.0</ele><time>2026-05-02T07:51:13.142Z</time></trkpt><trkpt lat="42.2582261" lon="13.9331315"><ele>294.0</ele><time>2026-05-02T07:51:14.142Z</time></trkpt><trkpt lat="42.2580943" lon="13.9331375"><ele>295.25</ele><time>2026-05-02T07:51:15.142Z</time></trkpt><trkpt lat="42.2579542" lon="13.9331284"><ele>296.5</ele><time>2026-05-02T07:51:16.144Z</time></trkpt><trkpt lat="42.2578183" lon="13.9331163"><ele>297.75</ele><time>2026-05-02T07:51:17.143Z</time></trkpt><trkpt lat="42.2576835" lon="13.9331143"><ele>299.0</ele><time>2026-05-02T07:51:18.142Z</time></trkpt><trkpt lat="42.2575556" lon="13.9331397"><ele>299.0</ele><time>2026-05-02T07:51:19.142Z</time></trkpt><trkpt lat="42.2574167" lon="13.9331731"><ele>299.0</ele><time>2026-05-02T07:51:20.142Z</time></trkpt><trkpt lat="42.2572697" lon="13.9332014"><ele>299.0</ele><time>2026-05-02T07:51:21.143Z</time></trkpt><trkpt lat="42.2571214" lon="13.9332371"><ele>299.0</ele><time>2026-05-02T07:51:22.143Z</time></trkpt><trkpt lat="42.2570005" lon="13.9332855"><ele>300.25</ele><time>2026-05-02T07:51:23.142Z</time></trkpt><trkpt lat="42.2568803" lon="13.9333274"><ele>301.5</ele><time>2026-05-02T07:51:24.142Z</time></trkpt><trkpt lat="42.2567526" lon="13.9333509"><ele>302.75</ele><time>2026-05-02T07:51:25.143Z</time></trkpt><trkpt lat="42.2566271" lon="13.9333424"><ele>304.0</ele><time>2026-05-02T07:51:26.143Z</time></trkpt><trkpt lat="42.2564993" lon="13.9333128"><ele>303.75</ele><time>2026-05-02T07:51:27.142Z</time></trkpt><trkpt lat="42.256361" lon="13.9332661"><ele>303.5</ele><time>2026-05-02T07:51:28.142Z</time></trkpt><trkpt lat="42.256231" lon="13.9332138"><ele>303.25</ele><time>2026-05-02T07:51:29.142Z</time></trkpt><trkpt lat="42.2561154" lon="13.9331661"><ele>303.0</ele><time>2026-05-02T07:51:30.143Z</time></trkpt><trkpt lat="42.2560196" lon="13.9331322"><ele>303.0</ele><time>2026-05-02T07:51:31.143Z</time></trkpt><trkpt lat="42.2559305" lon="13.9331035"><ele>303.0</ele><time>2026-05-02T07:51:32.143Z</time></trkpt><trkpt lat="42.2558484" lon="13.933066"><ele>303.0</ele><time>2026-05-02T07:51:33.142Z</time></trkpt><trkpt lat="42.2557732" lon="13.9330192"><ele>303.0</ele><time>2026-05-02T07:51:34.142Z</time></trkpt><trkpt lat="42.2557162" lon="13.9329469"><ele>303.0</ele><time>2026-05-02T07:51:35.142Z</time></trkpt><trkpt lat="42.2556802" lon="13.9328355"><ele>303.0</ele><time>2026-05-02T07:51:36.142Z</time></trkpt><trkpt lat="42.2556668" lon="13.9326664"><ele>303.5</ele><time>2026-05-02T07:51:37.142Z</time></trkpt><trkpt lat="42.2556537" lon="13.932478"><ele>304.0</ele><time>2026-05-02T07:51:38.142Z</time></trkpt><trkpt lat="42.255614" lon="13.9323164"><ele>304.5</ele><time>2026-05-02T07:51:39.142Z</time></trkpt><trkpt lat="42.2555523" lon="13.932159"><ele>305.0</ele><time>2026-05-02T07:51:40.142Z</time></trkpt><trkpt lat="42.2554697" lon="13.9320201"><ele>302.75</ele><time>2026-05-02T07:51:41.142Z</time></trkpt><trkpt lat="42.2553855" lon="13.9319009"><ele>300.5</ele><time>2026-05-02T07:51:42.142Z</time></trkpt><trkpt lat="42.2552859" lon="13.9318099"><ele>298.25</ele><time>2026-05-02T07:51:43.142Z</time></trkpt><trkpt lat="42.255173" lon="13.9317521"><ele>296.0</ele><time>2026-05-02T07:51:44.142Z</time></trkpt><trkpt lat="42.2550397" lon="13.9317138"><ele>296.0</ele><time>2026-05-02T07:51:45.142Z</time></trkpt><trkpt lat="42.2549404" lon="13.9316805"><ele>296.0</ele><time>2026-05-02T07:51:46.142Z</time></trkpt><trkpt lat="42.2548601" lon="13.9316131"><ele>296.0</ele><time>2026-05-02T07:51:47.142Z</time></trkpt><trkpt lat="42.254781" lon="13.9315185"><ele>296.0</ele><time>2026-05-02T07:51:48.142Z</time></trkpt><trkpt lat="42.2547079" lon="13.9314713"><ele>296.0</ele><time>2026-05-02T07:51:49.143Z</time></trkpt><trkpt lat="42.2546265" lon="13.9314667"><ele>294.75</ele><time>2026-05-02T07:51:50.142Z</time></trkpt><trkpt lat="42.2545174" lon="13.9314917"><ele>293.5</ele><time>2026-05-02T07:51:51.142Z</time></trkpt><trkpt lat="42.2543874" lon="13.9315344"><ele>292.25</ele><time>2026-05-02T07:51:52.142Z</time></trkpt><trkpt lat="42.2542273" lon="13.931578"><ele>291.0</ele><time>2026-05-02T07:51:53.143Z</time></trkpt><trkpt lat="42.2540819" lon="13.9316098"><ele>290.25</ele><time>2026-05-02T07:51:54.142Z</time></trkpt><trkpt lat="42.25395" lon="13.9316247"><ele>289.5</ele><time>2026-05-02T07:51:55.143Z</time></trkpt><trkpt lat="42.2538224" lon="13.9316186"><ele>288.75</ele><time>2026-05-02T07:51:56.142Z</time></trkpt><trkpt lat="42.253711" lon="13.9316037"><ele>288.0</ele><time>2026-05-02T07:51:57.142Z</time></trkpt><trkpt lat="42.2536135" lon="13.9315668"><ele>288.0</ele><time>2026-05-02T07:51:58.142Z</time></trkpt><trkpt lat="42.2535063" lon="13.9314941"><ele>288.0</ele><time>2026-05-02T07:51:59.144Z</time></trkpt><trkpt lat="42.2533823" lon="13.9314069"><ele>288.0</ele><time>2026-05-02T07:52:00.142Z</time></trkpt><trkpt lat="42.2532547" lon="13.9313272"><ele>288.0</ele><time>2026-05-02T07:52:01.142Z</time></trkpt><trkpt lat="42.2531325" lon="13.9312667"><ele>286.5</ele><time>2026-05-02T07:52:02.143Z</time></trkpt><trkpt lat="42.2529975" lon="13.9312248"><ele>285.0</ele><time>2026-05-02T07:52:03.142Z</time></trkpt><trkpt lat="42.2528497" lon="13.9311818"><ele>283.5</ele><time>2026-05-02T07:52:04.142Z</time></trkpt><trkpt lat="42.2527255" lon="13.9311521"><ele>282.0</ele><time>2026-05-02T07:52:05.142Z</time></trkpt><trkpt lat="42.2526347" lon="13.9311319"><ele>282.0</ele><time>2026-05-02T07:52:06.142Z</time></trkpt><trkpt lat="42.2525407" lon="13.931116"><ele>282.0</ele><time>2026-05-02T07:52:08.142Z</time></trkpt><trkpt lat="42.2524913" lon="13.9311759"><ele>282.0</ele><time>2026-05-02T07:52:12.143Z</time></trkpt><trkpt lat="42.2524067" lon="13.9312281"><ele>282.0</ele><time>2026-05-02T07:52:14.144Z</time></trkpt><trkpt lat="42.2523433" lon="13.9312344"><ele>282.0</ele><time>2026-05-02T07:52:15.143Z</time></trkpt><trkpt lat="42.2522595" lon="13.9312584"><ele>282.0</ele><time>2026-05-02T07:52:16.143Z</time></trkpt><trkpt lat="42.2521739" lon="13.9312973"><ele>280.8333333333333</ele><time>2026-05-02T07:52:17.142Z</time></trkpt><trkpt lat="42.2520931" lon="13.9313506"><ele>279.6666666666667</ele><time>2026-05-02T07:52:18.143Z</time></trkpt><trkpt lat="42.2520166" lon="13.9314076"><ele>278.5</ele><time>2026-05-02T07:52:19.143Z</time></trkpt><trkpt lat="42.2519392" lon="13.9314713"><ele>277.33333333333337</ele><time>2026-05-02T07:52:20.143Z</time></trkpt><trkpt lat="42.2518684" lon="13.9315467"><ele>276.1666666666667</ele><time>2026-05-02T07:52:21.144Z</time></trkpt><trkpt lat="42.2518039" lon="13.9316196"><ele>275.0</ele><time>2026-05-02T07:52:22.142Z</time></trkpt><trkpt lat="42.2517506" lon="13.9316836"><ele>273.6666666666667</ele><time>2026-05-02T07:52:23.142Z</time></trkpt><trkpt lat="42.2517" lon="13.9317537"><ele>272.33333333333337</ele><time>2026-05-02T07:52:24.142Z</time></trkpt><trkpt lat="42.2516409" lon="13.931826"><ele>271.0</ele><time>2026-05-02T07:52:25.143Z</time></trkpt><trkpt lat="42.251579" lon="13.9319046"><ele>269.6666666666667</ele><time>2026-05-02T07:52:26.143Z</time></trkpt><trkpt lat="42.2515225" lon="13.931982"><ele>268.3333333333333</ele><time>2026-05-02T07:52:27.143Z</time></trkpt><trkpt lat="42.2514703" lon="13.932058"><ele>267.0</ele><time>2026-05-02T07:52:28.143Z</time></trkpt><trkpt lat="42.2514214" lon="13.9321314"><ele>264.42857142857144</ele><time>2026-05-02T07:52:29.143Z</time></trkpt><trkpt lat="42.2513793" lon="13.9322043"><ele>261.8571428571429</ele><time>2026-05-02T07:52:30.143Z</time></trkpt><trkpt lat="42.2513392" lon="13.9322817"><ele>259.2857142857143</ele><time>2026-05-02T07:52:31.143Z</time></trkpt><trkpt lat="42.2513015" lon="13.9323535"><ele>256.7142857142857</ele><time>2026-05-02T07:52:32.143Z</time></trkpt><trkpt lat="42.2512627" lon="13.9324228"><ele>254.1428571428571</ele><time>2026-05-02T07:52:33.143Z</time></trkpt><trkpt lat="42.2512202" lon="13.9324917"><ele>251.57142857142856</ele><time>2026-05-02T07:52:34.142Z</time></trkpt><trkpt lat="42.2511821" lon="13.9325624"><ele>249.0</ele><time>2026-05-02T07:52:35.143Z</time></trkpt><trkpt lat="42.2511266" lon="13.9326488"><ele>246.0</ele><time>2026-05-02T07:52:37.143Z</time></trkpt><trkpt lat="42.2510507" lon="13.9326353"><ele>242.99999999999997</ele><time>2026-05-02T07:52:39.143Z</time></trkpt><trkpt lat="42.2509608" lon="13.9325981"><ele>239.99999999999997</ele><time>2026-05-02T07:52:41.142Z</time></trkpt><trkpt lat="42.2508709" lon="13.9325886"><ele>237.0</ele><time>2026-05-02T07:52:43.142Z</time></trkpt><trkpt lat="42.2507651" lon="13.9326157"><ele>234.0</ele><time>2026-05-02T07:52:45.143Z</time></trkpt><trkpt lat="42.2506808" lon="13.9326561"><ele>234.0</ele><time>2026-05-02T07:52:47.143Z</time></trkpt><trkpt lat="42.2506331" lon="13.9327653"><ele>234.0</ele><time>2026-05-02T07:52:49.143Z</time></trkpt><trkpt lat="42.2505603" lon="13.9328636"><ele>234.0</ele><time>2026-05-02T07:52:51.143Z</time></trkpt><trkpt lat="42.2504699" lon="13.932876"><ele>234.0</ele><time>2026-05-02T07:52:53.142Z</time></trkpt><trkpt lat="42.2503998" lon="13.9328929"><ele>234.0</ele><time>2026-05-02T07:52:55.143Z</time></trkpt><trkpt lat="42.2504043" lon="13.9329858"><ele>234.0</ele><time>2026-05-02T07:52:58.143Z</time></trkpt><trkpt lat="42.2505222" lon="13.9330849"><ele>234.0</ele><time>2026-05-02T07:53:00.142Z</time></trkpt><trkpt lat="42.2505996" lon="13.9331543"><ele>233.99999999999997</ele><time>2026-05-02T07:53:01.143Z</time></trkpt><trkpt lat="42.2506887" lon="13.933232"><ele>233.99999999999997</ele><time>2026-05-02T07:53:02.143Z</time></trkpt><trkpt lat="42.2507819" lon="13.9333037"><ele>234.0</ele><time>2026-05-02T07:53:03.142Z</time></trkpt><trkpt lat="42.25089" lon="13.933367"><ele>234.0</ele><time>2026-05-02T07:53:04.142Z</time></trkpt><trkpt lat="42.2510254" lon="13.9334281"><ele>232.0</ele><time>2026-05-02T07:53:05.142Z</time></trkpt><trkpt lat="42.2511792" lon="13.9334943"><ele>230.0</ele><time>2026-05-02T07:53:06.142Z</time></trkpt><trkpt lat="42.2513317" lon="13.9335848"><ele>228.0</ele><time>2026-05-02T07:53:07.142Z</time></trkpt><trkpt lat="42.2514689" lon="13.9336775"><ele>228.0</ele><time>2026-05-02T07:53:08.142Z</time></trkpt><trkpt lat="42.2516021" lon="13.9337588"><ele>228.0</ele><time>2026-05-02T07:53:09.142Z</time></trkpt><trkpt lat="42.2517466" lon="13.9338394"><ele>228.0</ele><time>2026-05-02T07:53:10.143Z</time></trkpt><trkpt lat="42.251895" lon="13.9339208"><ele>228.0</ele><time>2026-05-02T07:53:11.142Z</time></trkpt><trkpt lat="42.2520325" lon="13.9339956"><ele>228.0</ele><time>2026-05-02T07:53:12.143Z</time></trkpt><trkpt lat="42.2521628" lon="13.9340644"><ele>228.0</ele><time>2026-05-02T07:53:13.143Z</time></trkpt><trkpt lat="42.2522732" lon="13.9341309"><ele>228.0</ele><time>2026-05-02T07:53:14.143Z</time></trkpt><trkpt lat="42.2523678" lon="13.9341914"><ele>230.83333333333334</ele><time>2026-05-02T07:53:15.144Z</time></trkpt><trkpt lat="42.2524387" lon="13.9342622"><ele>233.66666666666669</ele><time>2026-05-02T07:53:16.142Z</time></trkpt><trkpt lat="42.2524828" lon="13.9343422"><ele>236.5</ele><time>2026-05-02T07:53:17.142Z</time></trkpt><trkpt lat="42.2524938" lon="13.9344316"><ele>239.33333333333334</ele><time>2026-05-02T07:53:18.144Z</time></trkpt><trkpt lat="42.2524724" lon="13.9345989"><ele>242.16666666666669</ele><time>2026-05-02T07:53:20.143Z</time></trkpt><trkpt lat="42.2524502" lon="13.9347126"><ele>245.0</ele><time>2026-05-02T07:53:22.143Z</time></trkpt><trkpt lat="42.2523524" lon="13.9347349"><ele>241.2</ele><time>2026-05-02T07:53:25.144Z</time></trkpt><trkpt lat="42.2522407" lon="13.9347441"><ele>237.4</ele><time>2026-05-02T07:53:27.144Z</time></trkpt><trkpt lat="42.2521399" lon="13.9347589"><ele>233.60000000000002</ele><time>2026-05-02T07:53:29.143Z</time></trkpt><trkpt lat="42.2520366" lon="13.9347668"><ele>229.8</ele><time>2026-05-02T07:53:31.142Z</time></trkpt><trkpt lat="42.2519534" lon="13.9347873"><ele>226.0</ele><time>2026-05-02T07:53:33.142Z</time></trkpt><trkpt lat="42.2518832" lon="13.9347928"><ele>225.99999999999997</ele><time>2026-05-02T07:53:35.143Z</time></trkpt><trkpt lat="42.2518051" lon="13.9347992"><ele>226.0</ele><time>2026-05-02T07:53:37.142Z</time></trkpt><trkpt lat="42.2517215" lon="13.9347998"><ele>226.0</ele><time>2026-05-02T07:53:39.142Z</time></trkpt><trkpt lat="42.25163" lon="13.9348006"><ele>226.0</ele><time>2026-05-02T07:53:41.143Z</time></trkpt><trkpt lat="42.2515366" lon="13.9348069"><ele>225.99999999999997</ele><time>2026-05-02T07:53:43.143Z</time></trkpt><trkpt lat="42.2514517" lon="13.934816"><ele>226.0</ele><time>2026-05-02T07:53:45.143Z</time></trkpt><trkpt lat="42.2513688" lon="13.9348221"><ele>222.20000000000002</ele><time>2026-05-02T07:53:47.142Z</time></trkpt><trkpt lat="42.2512766" lon="13.9348277"><ele>218.40000000000003</ele><time>2026-05-02T07:53:49.143Z</time></trkpt><trkpt lat="42.251175" lon="13.9348588"><ele>214.6</ele><time>2026-05-02T07:53:51.144Z</time></trkpt><trkpt lat="42.2510683" lon="13.9349039"><ele>210.8</ele><time>2026-05-02T07:53:53.142Z</time></trkpt><trkpt lat="42.2509719" lon="13.9349232"><ele>207.0</ele><time>2026-05-02T07:53:55.142Z</time></trkpt><trkpt lat="42.2508458" lon="13.9349255"><ele>207.0</ele><time>2026-05-02T07:53:57.142Z</time></trkpt><trkpt lat="42.2507716" lon="13.934923"><ele>207.0</ele><time>2026-05-02T07:53:58.142Z</time></trkpt><trkpt lat="42.250695" lon="13.9349164"><ele>207.0</ele><time>2026-05-02T07:53:59.143Z</time></trkpt><trkpt lat="42.2506124" lon="13.9349069"><ele>207.0</ele><time>2026-05-02T07:54:00.143Z</time></trkpt><trkpt lat="42.2505314" lon="13.9348953"><ele>207.0</ele><time>2026-05-02T07:54:01.143Z</time></trkpt><trkpt lat="42.2504558" lon="13.9348902"><ele>207.0</ele><time>2026-05-02T07:54:02.144Z</time></trkpt><trkpt lat="42.2503849" lon="13.934894"><ele>204.66666666666666</ele><time>2026-05-02T07:54:03.142Z</time></trkpt><trkpt lat="42.2503214" lon="13.934911"><ele>202.33333333333331</ele><time>2026-05-02T07:54:04.143Z</time></trkpt><trkpt lat="42.250255" lon="13.9349379"><ele>200.0</ele><time>2026-05-02T07:54:05.142Z</time></trkpt><trkpt lat="42.2501854" lon="13.9349615"><ele>197.66666666666666</ele><time>2026-05-02T07:54:06.143Z</time></trkpt><trkpt lat="42.250121" lon="13.9349762"><ele>195.33333333333331</ele><time>2026-05-02T07:54:07.143Z</time></trkpt><trkpt lat="42.250012" lon="13.9349602"><ele>193.0</ele><time>2026-05-02T07:54:09.142Z</time></trkpt><trkpt lat="42.2498995" lon="13.934922"><ele>193.0</ele><time>2026-05-02T07:54:11.142Z</time></trkpt><trkpt lat="42.2498024" lon="13.9348811"><ele>193.0</ele><time>2026-05-02T07:54:13.142Z</time></trkpt><trkpt lat="42.2497043" lon="13.9348627"><ele>193.0</ele><time>2026-05-02T07:54:15.143Z</time></trkpt><trkpt lat="42.2495897" lon="13.9348944"><ele>193.0</ele><time>2026-05-02T07:54:17.142Z</time></trkpt><trkpt lat="42.2494959" lon="13.9349436"><ele>193.0</ele><time>2026-05-02T07:54:19.143Z</time></trkpt><trkpt lat="42.2493927" lon="13.9349859"><ele>191.14285714285717</ele><time>2026-05-02T07:54:21.143Z</time></trkpt><trkpt lat="42.2493271" lon="13.9349999"><ele>189.28571428571428</ele><time>2026-05-02T07:54:22.143Z</time></trkpt><trkpt lat="42.24926" lon="13.9350079"><ele>187.42857142857144</ele><time>2026-05-02T07:54:23.142Z</time></trkpt><trkpt lat="42.2491944" lon="13.9350169"><ele>185.57142857142858</ele><time>2026-05-02T07:54:24.142Z</time></trkpt><trkpt lat="42.2490997" lon="13.9350129"><ele>183.71428571428572</ele><time>2026-05-02T07:54:26.142Z</time></trkpt><trkpt lat="42.2490311" lon="13.9349742"><ele>181.85714285714286</ele><time>2026-05-02T07:54:28.142Z</time></trkpt><trkpt lat="42.2489563" lon="13.934936"><ele>180.0</ele><time>2026-05-02T07:54:30.142Z</time></trkpt><trkpt lat="42.248857" lon="13.9349651"><ele>177.75</ele><time>2026-05-02T07:54:32.142Z</time></trkpt><trkpt lat="42.2487378" lon="13.9350181"><ele>175.5</ele><time>2026-05-02T07:54:34.142Z</time></trkpt><trkpt lat="42.2486493" lon="13.9351085"><ele>173.25</ele><time>2026-05-02T07:54:36.143Z</time></trkpt><trkpt lat="42.2485733" lon="13.9352342"><ele>171.0</ele><time>2026-05-02T07:54:38.142Z</time></trkpt><trkpt lat="42.2484923" lon="13.9353432"><ele>168.8</ele><time>2026-05-02T07:54:40.143Z</time></trkpt><trkpt lat="42.2483952" lon="13.935424"><ele>166.60000000000002</ele><time>2026-05-02T07:54:42.143Z</time></trkpt><trkpt lat="42.2483014" lon="13.9354549"><ele>164.4</ele><time>2026-05-02T07:54:44.143Z</time></trkpt><trkpt lat="42.2482124" lon="13.9355348"><ele>162.2</ele><time>2026-05-02T07:54:46.143Z</time></trkpt><trkpt lat="42.2481812" lon="13.9356663"><ele>160.0</ele><time>2026-05-02T07:54:48.142Z</time></trkpt><trkpt lat="42.2481871" lon="13.9357549"><ele>160.0</ele><time>2026-05-02T07:54:49.143Z</time></trkpt><trkpt lat="42.2481987" lon="13.9358696"><ele>160.0</ele><time>2026-05-02T07:54:50.143Z</time></trkpt><trkpt lat="42.2482166" lon="13.9360034"><ele>160.0</ele><time>2026-05-02T07:54:51.143Z</time></trkpt><trkpt lat="42.2482249" lon="13.9361371"><ele>160.0</ele><time>2026-05-02T07:54:52.142Z</time></trkpt><trkpt lat="42.2482281" lon="13.9362579"><ele>160.0</ele><time>2026-05-02T07:54:53.143Z</time></trkpt><trkpt lat="42.2482167" lon="13.9363586"><ele>159.5</ele><time>2026-05-02T07:54:54.142Z</time></trkpt><trkpt lat="42.2481936" lon="13.9364635"><ele>159.0</ele><time>2026-05-02T07:54:55.143Z</time></trkpt><trkpt lat="42.2481643" lon="13.9365657"><ele>158.5</ele><time>2026-05-02T07:54:56.143Z</time></trkpt><trkpt lat="42.2481356" lon="13.9366558"><ele>158.0</ele><time>2026-05-02T07:54:57.143Z</time></trkpt><trkpt lat="42.2480947" lon="13.936747"><ele>157.5</ele><time>2026-05-02T07:54:58.143Z</time></trkpt><trkpt lat="42.248045" lon="13.9368297"><ele>157.0</ele><time>2026-05-02T07:54:59.142Z</time></trkpt><trkpt lat="42.2479873" lon="13.9369105"><ele>153.79999999999998</ele><time>2026-05-02T07:55:00.142Z</time></trkpt><trkpt lat="42.2479316" lon="13.936962"><ele>150.6</ele><time>2026-05-02T07:55:01.142Z</time></trkpt><trkpt lat="42.2478172" lon="13.937066"><ele>147.39999999999998</ele><time>2026-05-02T07:55:03.142Z</time></trkpt><trkpt lat="42.2477458" lon="13.9371142"><ele>144.2</ele><time>2026-05-02T07:55:04.142Z</time></trkpt><trkpt lat="42.2476391" lon="13.9371863"><ele>141.0</ele><time>2026-05-02T07:55:06.142Z</time></trkpt><trkpt lat="42.2475743" lon="13.9372367"><ele>141.0</ele><time>2026-05-02T07:55:07.143Z</time></trkpt><trkpt lat="42.247503" lon="13.9372741"><ele>141.0</ele><time>2026-05-02T07:55:08.143Z</time></trkpt><trkpt lat="42.2474261" lon="13.9372903"><ele>141.0</ele><time>2026-05-02T07:55:09.142Z</time></trkpt><trkpt lat="42.2473374" lon="13.9372778"><ele>141.0</ele><time>2026-05-02T07:55:10.142Z</time></trkpt><trkpt lat="42.2472642" lon="13.9372479"><ele>141.0</ele><time>2026-05-02T07:55:11.143Z</time></trkpt><trkpt lat="42.2472044" lon="13.9371981"><ele>141.0</ele><time>2026-05-02T07:55:12.144Z</time></trkpt><trkpt lat="42.2471559" lon="13.937129"><ele>141.16666666666666</ele><time>2026-05-02T07:55:13.143Z</time></trkpt><trkpt lat="42.2471126" lon="13.9370306"><ele>141.33333333333334</ele><time>2026-05-02T07:55:14.143Z</time></trkpt><trkpt lat="42.2470702" lon="13.9369197"><ele>141.5</ele><time>2026-05-02T07:55:15.142Z</time></trkpt><trkpt lat="42.2470339" lon="13.9368313"><ele>141.66666666666669</ele><time>2026-05-02T07:55:16.143Z</time></trkpt><trkpt lat="42.2470037" lon="13.9367048"><ele>141.83333333333334</ele><time>2026-05-02T07:55:18.143Z</time></trkpt><trkpt lat="42.2469873" lon="13.9366205"><ele>142.0</ele><time>2026-05-02T07:55:21.143Z</time></trkpt><trkpt lat="42.2470288" lon="13.9366886"><ele>142.16666666666669</ele><time>2026-05-02T07:55:40.142Z</time></trkpt><trkpt lat="42.2470251" lon="13.9368189"><ele>142.33333333333334</ele><time>2026-05-02T07:55:42.143Z</time></trkpt><trkpt lat="42.2470702" lon="13.936955"><ele>142.5</ele><time>2026-05-02T07:55:44.142Z</time></trkpt><trkpt lat="42.2471088" lon="13.9370551"><ele>142.66666666666666</ele><time>2026-05-02T07:55:46.142Z</time></trkpt><trkpt lat="42.2470426" lon="13.9370702"><ele>142.83333333333331</ele><time>2026-05-02T07:55:51.142Z</time></trkpt><trkpt lat="42.2469699" lon="13.9370359"><ele>143.0</ele><time>2026-05-02T07:55:54.143Z</time></trkpt><trkpt lat="42.2468842" lon="13.936971"><ele>143.0</ele><time>2026-05-02T07:55:56.142Z</time></trkpt><trkpt lat="42.2468213" lon="13.9368912"><ele>143.0</ele><time>2026-05-02T07:55:59.143Z</time></trkpt><trkpt lat="42.2467809" lon="13.9367753"><ele>143.0</ele><time>2026-05-02T07:56:02.143Z</time></trkpt><trkpt lat="42.246758" lon="13.9366755"><ele>143.0</ele><time>2026-05-02T07:56:04.144Z</time></trkpt><trkpt lat="42.2467113" lon="13.9365478"><ele>143.0</ele><time>2026-05-02T07:56:06.143Z</time></trkpt><trkpt lat="42.2466696" lon="13.9364529"><ele>143.0</ele><time>2026-05-02T07:56:07.142Z</time></trkpt><trkpt lat="42.2466275" lon="13.9363742"><ele>142.83333333333331</ele><time>2026-05-02T07:56:08.142Z</time></trkpt><trkpt lat="42.2465875" lon="13.9363037"><ele>142.66666666666666</ele><time>2026-05-02T07:56:09.142Z</time></trkpt><trkpt lat="42.2465018" lon="13.9362686"><ele>142.5</ele><time>2026-05-02T07:56:11.143Z</time></trkpt><trkpt lat="42.2464167" lon="13.9363554"><ele>142.33333333333334</ele><time>2026-05-02T07:56:13.143Z</time></trkpt><trkpt lat="42.2463807" lon="13.9364398"><ele>142.16666666666669</ele><time>2026-05-02T07:56:14.142Z</time></trkpt><trkpt lat="42.2463466" lon="13.9365132"><ele>142.0</ele><time>2026-05-02T07:56:15.142Z</time></trkpt><trkpt lat="42.2463001" lon="13.9365909"><ele>143.66666666666669</ele><time>2026-05-02T07:56:17.142Z</time></trkpt><trkpt lat="42.2462615" lon="13.9366612"><ele>145.33333333333334</ele><time>2026-05-02T07:56:19.142Z</time></trkpt><trkpt lat="42.2462202" lon="13.9368203"><ele>147.0</ele><time>2026-05-02T07:56:21.142Z</time></trkpt><trkpt lat="42.2462351" lon="13.9369312"><ele>148.66666666666666</ele><time>2026-05-02T07:56:22.142Z</time></trkpt><trkpt lat="42.2462623" lon="13.9370272"><ele>150.33333333333331</ele><time>2026-05-02T07:56:23.142Z</time></trkpt><trkpt lat="42.2462743" lon="13.9371189"><ele>152.0</ele><time>2026-05-02T07:56:24.142Z</time></trkpt><trkpt lat="42.2462664" lon="13.937205"><ele>152.4</ele><time>2026-05-02T07:56:25.142Z</time></trkpt><trkpt lat="42.2462446" lon="13.9373251"><ele>152.79999999999998</ele><time>2026-05-02T07:56:27.142Z</time></trkpt><trkpt lat="42.2461929" lon="13.9374381"><ele>153.2</ele><time>2026-05-02T07:56:30.142Z</time></trkpt><trkpt lat="42.2461102" lon="13.9375395"><ele>153.6</ele><time>2026-05-02T07:56:32.142Z</time></trkpt><trkpt lat="42.2460506" lon="13.9376124"><ele>154.0</ele><time>2026-05-02T07:56:33.143Z</time></trkpt><trkpt lat="42.2459932" lon="13.9376896"><ele>154.0</ele><time>2026-05-02T07:56:34.144Z</time></trkpt><trkpt lat="42.2459155" lon="13.937782"><ele>154.0</ele><time>2026-05-02T07:56:36.143Z</time></trkpt><trkpt lat="42.2458461" lon="13.9377882"><ele>154.0</ele><time>2026-05-02T07:56:39.142Z</time></trkpt><trkpt lat="42.2457829" lon="13.9376328"><ele>154.0</ele><time>2026-05-02T07:56:41.143Z</time></trkpt><trkpt lat="42.2457411" lon="13.9375137"><ele>154.0</ele><time>2026-05-02T07:56:42.142Z</time></trkpt><trkpt lat="42.245688" lon="13.9373677"><ele>154.0</ele><time>2026-05-02T07:56:43.142Z</time></trkpt><trkpt lat="42.2456384" lon="13.9372278"><ele>154.0</ele><time>2026-05-02T07:56:44.142Z</time></trkpt><trkpt lat="42.245591" lon="13.9370834"><ele>154.0</ele><time>2026-05-02T07:56:45.142Z</time></trkpt><trkpt lat="42.2455408" lon="13.9369341"><ele>154.0</ele><time>2026-05-02T07:56:46.141Z</time></trkpt><trkpt lat="42.2454905" lon="13.9367798"><ele>154.75</ele><time>2026-05-02T07:56:47.141Z</time></trkpt><trkpt lat="42.2454462" lon="13.9366385"><ele>155.5</ele><time>2026-05-02T07:56:48.141Z</time></trkpt><trkpt lat="42.2453945" lon="13.9364939"><ele>156.25</ele><time>2026-05-02T07:56:49.142Z</time></trkpt><trkpt lat="42.2453403" lon="13.9363337"><ele>157.0</ele><time>2026-05-02T07:56:50.141Z</time></trkpt><trkpt lat="42.2452825" lon="13.9361671"><ele>157.0</ele><time>2026-05-02T07:56:51.142Z</time></trkpt><trkpt lat="42.245234" lon="13.9360137"><ele>157.0</ele><time>2026-05-02T07:56:52.142Z</time></trkpt><trkpt lat="42.2451874" lon="13.9358741"><ele>157.0</ele><time>2026-05-02T07:56:53.142Z</time></trkpt><trkpt lat="42.2451434" lon="13.9357365"><ele>157.0</ele><time>2026-05-02T07:56:54.142Z</time></trkpt><trkpt lat="42.2450963" lon="13.935592"><ele>157.5</ele><time>2026-05-02T07:56:55.141Z</time></trkpt><trkpt lat="42.2450564" lon="13.9354795"><ele>158.0</ele><time>2026-05-02T07:56:56.141Z</time></trkpt><trkpt lat="42.2450241" lon="13.9353845"><ele>158.5</ele><time>2026-05-02T07:56:57.142Z</time></trkpt><trkpt lat="42.244994" lon="13.9352906"><ele>159.0</ele><time>2026-05-02T07:56:58.142Z</time></trkpt><trkpt lat="42.2449496" lon="13.9351992"><ele>159.5</ele><time>2026-05-02T07:56:59.141Z</time></trkpt><trkpt lat="42.2448889" lon="13.9351453"><ele>160.0</ele><time>2026-05-02T07:57:00.143Z</time></trkpt><trkpt lat="42.2448303" lon="13.935093"><ele>161.2</ele><time>2026-05-02T07:57:01.141Z</time></trkpt><trkpt lat="42.2447663" lon="13.9350768"><ele>162.4</ele><time>2026-05-02T07:57:02.141Z</time></trkpt><trkpt lat="42.2446987" lon="13.9350523"><ele>163.60000000000002</ele><time>2026-05-02T07:57:03.142Z</time></trkpt><trkpt lat="42.2445881" lon="13.9350503"><ele>164.8</ele><time>2026-05-02T07:57:04.142Z</time></trkpt><trkpt lat="42.2444692" lon="13.9350729"><ele>166.0</ele><time>2026-05-02T07:57:05.142Z</time></trkpt><trkpt lat="42.244503" lon="13.9355938"><ele>166.0</ele><time>2026-05-02T07:57:07.142Z</time></trkpt><trkpt lat="42.2444923" lon="13.9357836"><ele>166.0</ele><time>2026-05-02T07:57:08.141Z</time></trkpt><trkpt lat="42.2444638" lon="13.9359417"><ele>166.0</ele><time>2026-05-02T07:57:09.142Z</time></trkpt><trkpt lat="42.2444325" lon="13.9360583"><ele>166.0</ele><time>2026-05-02T07:57:10.142Z</time></trkpt><trkpt lat="42.2444003" lon="13.9361678"><ele>166.0</ele><time>2026-05-02T07:57:11.142Z</time></trkpt><trkpt lat="42.2443599" lon="13.9362734"><ele>165.20000000000002</ele><time>2026-05-02T07:57:12.142Z</time></trkpt><trkpt lat="42.2443167" lon="13.9363858"><ele>164.4</ele><time>2026-05-02T07:57:13.142Z</time></trkpt><trkpt lat="42.2442633" lon="13.9365119"><ele>163.6</ele><time>2026-05-02T07:57:14.142Z</time></trkpt><trkpt lat="42.2442077" lon="13.9366407"><ele>162.8</ele><time>2026-05-02T07:57:15.142Z</time></trkpt><trkpt lat="42.2441547" lon="13.93675"><ele>162.0</ele><time>2026-05-02T07:57:16.142Z</time></trkpt><trkpt lat="42.2441111" lon="13.9368355"><ele>161.66666666666666</ele><time>2026-05-02T07:57:17.141Z</time></trkpt><trkpt lat="42.2440613" lon="13.9369013"><ele>161.33333333333334</ele><time>2026-05-02T07:57:18.141Z</time></trkpt><trkpt lat="42.2439556" lon="13.9369101"><ele>161.0</ele><time>2026-05-02T07:57:20.143Z</time></trkpt><trkpt lat="42.2439038" lon="13.9368542"><ele>160.66666666666669</ele><time>2026-05-02T07:57:21.141Z</time></trkpt><trkpt lat="42.243865" lon="13.9367631"><ele>160.33333333333334</ele><time>2026-05-02T07:57:22.141Z</time></trkpt><trkpt lat="42.2438321" lon="13.9366501"><ele>160.0</ele><time>2026-05-02T07:57:23.141Z</time></trkpt><trkpt lat="42.2437955" lon="13.9365215"><ele>161.0</ele><time>2026-05-02T07:57:24.141Z</time></trkpt><trkpt lat="42.2437618" lon="13.9363949"><ele>162.0</ele><time>2026-05-02T07:57:25.142Z</time></trkpt><trkpt lat="42.2437331" lon="13.9362897"><ele>163.0</ele><time>2026-05-02T07:57:26.142Z</time></trkpt><trkpt lat="42.2436998" lon="13.9361618"><ele>164.0</ele><time>2026-05-02T07:57:27.142Z</time></trkpt><trkpt lat="42.2436624" lon="13.9360143"><ele>165.0</ele><time>2026-05-02T07:57:28.143Z</time></trkpt><trkpt lat="42.2436189" lon="13.9358537"><ele>165.5</ele><time>2026-05-02T07:57:29.141Z</time></trkpt><trkpt lat="42.2435717" lon="13.9356766"><ele>166.0</ele><time>2026-05-02T07:57:30.141Z</time></trkpt><trkpt lat="42.243521" lon="13.9354799"><ele>166.5</ele><time>2026-05-02T07:57:31.143Z</time></trkpt><trkpt lat="42.2434754" lon="13.9353033"><ele>167.0</ele><time>2026-05-02T07:57:32.141Z</time></trkpt><trkpt lat="42.2434334" lon="13.935141"><ele>167.5</ele><time>2026-05-02T07:57:33.141Z</time></trkpt><trkpt lat="42.2433934" lon="13.9349878"><ele>168.0</ele><time>2026-05-02T07:57:34.142Z</time></trkpt><trkpt lat="42.2433622" lon="13.9348492"><ele>168.5</ele><time>2026-05-02T07:57:35.142Z</time></trkpt><trkpt lat="42.2433335" lon="13.9347154"><ele>169.0</ele><time>2026-05-02T07:57:36.142Z</time></trkpt><trkpt lat="42.2432971" lon="13.9345614"><ele>169.0</ele><time>2026-05-02T07:57:37.141Z</time></trkpt><trkpt lat="42.2432624" lon="13.9344134"><ele>169.0</ele><time>2026-05-02T07:57:38.142Z</time></trkpt><trkpt lat="42.2432242" lon="13.9342814"><ele>169.0</ele><time>2026-05-02T07:57:39.141Z</time></trkpt><trkpt lat="42.2431914" lon="13.9341665"><ele>169.0</ele><time>2026-05-02T07:57:40.142Z</time></trkpt><trkpt lat="42.2431607" lon="13.9340612"><ele>169.0</ele><time>2026-05-02T07:57:41.141Z</time></trkpt><trkpt lat="42.2431356" lon="13.9339513"><ele>170.2</ele><time>2026-05-02T07:57:42.141Z</time></trkpt><trkpt lat="42.2431156" lon="13.9338493"><ele>171.39999999999998</ele><time>2026-05-02T07:57:43.141Z</time></trkpt><trkpt lat="42.2430874" lon="13.9337367"><ele>172.6</ele><time>2026-05-02T07:57:44.142Z</time></trkpt><trkpt lat="42.243052" lon="13.9336114"><ele>173.8</ele><time>2026-05-02T07:57:45.141Z</time></trkpt><trkpt lat="42.243019" lon="13.9334875"><ele>175.0</ele><time>2026-05-02T07:57:46.141Z</time></trkpt><trkpt lat="42.2429871" lon="13.9333688"><ele>175.4</ele><time>2026-05-02T07:57:47.142Z</time></trkpt><trkpt lat="42.2429519" lon="13.9332457"><ele>175.8</ele><time>2026-05-02T07:57:48.142Z</time></trkpt><trkpt lat="42.2429177" lon="13.9331176"><ele>176.2</ele><time>2026-05-02T07:57:49.142Z</time></trkpt><trkpt lat="42.2428879" lon="13.9329932"><ele>176.6</ele><time>2026-05-02T07:57:50.143Z</time></trkpt><trkpt lat="42.2428622" lon="13.9328803"><ele>177.0</ele><time>2026-05-02T07:57:51.141Z</time></trkpt><trkpt lat="42.2428344" lon="13.9327751"><ele>177.0</ele><time>2026-05-02T07:57:52.142Z</time></trkpt><trkpt lat="42.2428027" lon="13.9326541"><ele>177.0</ele><time>2026-05-02T07:57:53.141Z</time></trkpt><trkpt lat="42.242773" lon="13.9325257"><ele>177.0</ele><time>2026-05-02T07:57:54.141Z</time></trkpt><trkpt lat="42.2427444" lon="13.9324144"><ele>177.0</ele><time>2026-05-02T07:57:55.142Z</time></trkpt><trkpt lat="42.2427202" lon="13.9323132"><ele>177.0</ele><time>2026-05-02T07:57:56.142Z</time></trkpt><trkpt lat="42.2426952" lon="13.9322119"><ele>177.0</ele><time>2026-05-02T07:57:57.142Z</time></trkpt><trkpt lat="42.2426701" lon="13.9320956"><ele>177.33333333333334</ele><time>2026-05-02T07:57:58.142Z</time></trkpt><trkpt lat="42.2426399" lon="13.9319829"><ele>177.66666666666666</ele><time>2026-05-02T07:57:59.141Z</time></trkpt><trkpt lat="42.2426116" lon="13.9318753"><ele>178.0</ele><time>2026-05-02T07:58:00.142Z</time></trkpt><trkpt lat="42.2425821" lon="13.9317797"><ele>178.33333333333331</ele><time>2026-05-02T07:58:01.142Z</time></trkpt><trkpt lat="42.2425572" lon="13.9316925"><ele>178.66666666666666</ele><time>2026-05-02T07:58:02.141Z</time></trkpt><trkpt lat="42.2425325" lon="13.9316047"><ele>179.0</ele><time>2026-05-02T07:58:03.142Z</time></trkpt><trkpt lat="42.2425082" lon="13.9315076"><ele>179.33333333333331</ele><time>2026-05-02T07:58:04.142Z</time></trkpt><trkpt lat="42.242485" lon="13.9314121"><ele>179.66666666666666</ele><time>2026-05-02T07:58:05.142Z</time></trkpt><trkpt lat="42.2424617" lon="13.9313118"><ele>180.0</ele><time>2026-05-02T07:58:06.141Z</time></trkpt><trkpt lat="42.2424384" lon="13.9312124"><ele>180.33333333333334</ele><time>2026-05-02T07:58:07.141Z</time></trkpt><trkpt lat="42.2424139" lon="13.9311194"><ele>180.66666666666669</ele><time>2026-05-02T07:58:08.141Z</time></trkpt><trkpt lat="42.2423898" lon="13.9310193"><ele>181.0</ele><time>2026-05-02T07:58:09.142Z</time></trkpt><trkpt lat="42.2423677" lon="13.9309228"><ele>181.16666666666669</ele><time>2026-05-02T07:58:10.141Z</time></trkpt><trkpt lat="42.2423433" lon="13.9308309"><ele>181.33333333333334</ele><time>2026-05-02T07:58:11.142Z</time></trkpt><trkpt lat="42.2423174" lon="13.9307352"><ele>181.5</ele><time>2026-05-02T07:58:12.141Z</time></trkpt><trkpt lat="42.2422933" lon="13.930642"><ele>181.66666666666666</ele><time>2026-05-02T07:58:13.142Z</time></trkpt><trkpt lat="42.2422697" lon="13.9305417"><ele>181.83333333333331</ele><time>2026-05-02T07:58:14.141Z</time></trkpt><trkpt lat="42.242244" lon="13.9304345"><ele>182.0</ele><time>2026-05-02T07:58:15.142Z</time></trkpt><trkpt lat="42.2422152" lon="13.930327"><ele>182.0</ele><time>2026-05-02T07:58:16.142Z</time></trkpt><trkpt lat="42.2421896" lon="13.9302251"><ele>182.0</ele><time>2026-05-02T07:58:17.141Z</time></trkpt><trkpt lat="42.2421672" lon="13.9301257"><ele>182.0</ele><time>2026-05-02T07:58:18.141Z</time></trkpt><trkpt lat="42.2421484" lon="13.9300344"><ele>182.0</ele><time>2026-05-02T07:58:19.141Z</time></trkpt><trkpt lat="42.242112" lon="13.9298825"><ele>182.0</ele><time>2026-05-02T07:58:21.141Z</time></trkpt><trkpt lat="42.2420796" lon="13.9297602"><ele>182.0</ele><time>2026-05-02T07:58:23.141Z</time></trkpt><trkpt lat="42.2420308" lon="13.9296047"><ele>182.0</ele><time>2026-05-02T07:58:25.141Z</time></trkpt><trkpt lat="42.2420097" lon="13.9295029"><ele>182.0</ele><time>2026-05-02T07:58:26.143Z</time></trkpt><trkpt lat="42.2419837" lon="13.9293949"><ele>182.0</ele><time>2026-05-02T07:58:27.141Z</time></trkpt><trkpt lat="42.2419568" lon="13.9292679"><ele>182.0</ele><time>2026-05-02T07:58:28.141Z</time></trkpt><trkpt lat="42.2419273" lon="13.9291341"><ele>182.0</ele><time>2026-05-02T07:58:29.142Z</time></trkpt><trkpt lat="42.2418928" lon="13.9289884"><ele>182.0</ele><time>2026-05-02T07:58:30.141Z</time></trkpt><trkpt lat="42.241853" lon="13.9288323"><ele>182.0</ele><time>2026-05-02T07:58:31.142Z</time></trkpt><trkpt lat="42.2418091" lon="13.9286665"><ele>182.0</ele><time>2026-05-02T07:58:32.141Z</time></trkpt><trkpt lat="42.2417654" lon="13.9285007"><ele>182.0</ele><time>2026-05-02T07:58:33.142Z</time></trkpt><trkpt lat="42.2417241" lon="13.9283435"><ele>183.0</ele><time>2026-05-02T07:58:34.142Z</time></trkpt><trkpt lat="42.2416847" lon="13.9281772"><ele>184.0</ele><time>2026-05-02T07:58:35.141Z</time></trkpt><trkpt lat="42.241647" lon="13.9280063"><ele>185.0</ele><time>2026-05-02T07:58:36.142Z</time></trkpt><trkpt lat="42.2416032" lon="13.9278354"><ele>186.0</ele><time>2026-05-02T07:58:37.142Z</time></trkpt><trkpt lat="42.2415609" lon="13.9276633"><ele>186.0</ele><time>2026-05-02T07:58:38.141Z</time></trkpt><trkpt lat="42.2415171" lon="13.9275052"><ele>186.0</ele><time>2026-05-02T07:58:39.141Z</time></trkpt><trkpt lat="42.2414863" lon="13.9273607"><ele>186.0</ele><time>2026-05-02T07:58:40.142Z</time></trkpt><trkpt lat="42.2414531" lon="13.9272303"><ele>186.0</ele><time>2026-05-02T07:58:41.142Z</time></trkpt><trkpt lat="42.2414197" lon="13.9271076"><ele>186.0</ele><time>2026-05-02T07:58:42.141Z</time></trkpt><trkpt lat="42.2413846" lon="13.9269962"><ele>186.0</ele><time>2026-05-02T07:58:43.141Z</time></trkpt><trkpt lat="42.241356" lon="13.9268944"><ele>186.0</ele><time>2026-05-02T07:58:44.141Z</time></trkpt><trkpt lat="42.2413295" lon="13.9268013"><ele>186.0</ele><time>2026-05-02T07:58:45.142Z</time></trkpt><trkpt lat="42.2413089" lon="13.9267168"><ele>186.0</ele><time>2026-05-02T07:58:46.141Z</time></trkpt><trkpt lat="42.2412848" lon="13.9265968"><ele>186.0</ele><time>2026-05-02T07:58:48.142Z</time></trkpt><trkpt lat="42.2412643" lon="13.9264585"><ele>186.0</ele><time>2026-05-02T07:59:00.142Z</time></trkpt><trkpt lat="42.2413289" lon="13.9263638"><ele>186.20000000000002</ele><time>2026-05-02T07:59:02.141Z</time></trkpt><trkpt lat="42.2414509" lon="13.9263545"><ele>186.4</ele><time>2026-05-02T07:59:04.141Z</time></trkpt><trkpt lat="42.2415288" lon="13.9263656"><ele>186.6</ele><time>2026-05-02T07:59:05.141Z</time></trkpt><trkpt lat="42.2416176" lon="13.9263744"><ele>186.8</ele><time>2026-05-02T07:59:06.141Z</time></trkpt><trkpt lat="42.2417106" lon="13.9263897"><ele>187.0</ele><time>2026-05-02T07:59:07.141Z</time></trkpt><trkpt lat="42.2418115" lon="13.9264058"><ele>187.0</ele><time>2026-05-02T07:59:08.142Z</time></trkpt><trkpt lat="42.2419189" lon="13.9264325"><ele>187.0</ele><time>2026-05-02T07:59:09.141Z</time></trkpt><trkpt lat="42.2420296" lon="13.9264766"><ele>187.0</ele><time>2026-05-02T07:59:10.141Z</time></trkpt><trkpt lat="42.242141" lon="13.9265411"><ele>187.0</ele><time>2026-05-02T07:59:11.143Z</time></trkpt><trkpt lat="42.2422479" lon="13.9266278"><ele>186.5</ele><time>2026-05-02T07:59:12.141Z</time></trkpt><trkpt lat="42.2423469" lon="13.9267287"><ele>186.0</ele><time>2026-05-02T07:59:13.141Z</time></trkpt><trkpt lat="42.2424473" lon="13.9268339"><ele>185.5</ele><time>2026-05-02T07:59:14.141Z</time></trkpt><trkpt lat="42.2425434" lon="13.9269472"><ele>185.0</ele><time>2026-05-02T07:59:15.141Z</time></trkpt><trkpt lat="42.2426331" lon="13.9270629"><ele>185.0</ele><time>2026-05-02T07:59:16.141Z</time></trkpt><trkpt lat="42.2427185" lon="13.9271806"><ele>185.0</ele><time>2026-05-02T07:59:17.142Z</time></trkpt><trkpt lat="42.2428047" lon="13.9272912"><ele>185.0</ele><time>2026-05-02T07:59:18.142Z</time></trkpt><trkpt lat="42.242892" lon="13.9273996"><ele>185.0</ele><time>2026-05-02T07:59:19.142Z</time></trkpt><trkpt lat="42.2429781" lon="13.9275077"><ele>184.6</ele><time>2026-05-02T07:59:20.141Z</time></trkpt><trkpt lat="42.2430572" lon="13.9276226"><ele>184.2</ele><time>2026-05-02T07:59:21.142Z</time></trkpt><trkpt lat="42.2431373" lon="13.9277354"><ele>183.8</ele><time>2026-05-02T07:59:22.142Z</time></trkpt><trkpt lat="42.2432134" lon="13.9278391"><ele>183.4</ele><time>2026-05-02T07:59:23.142Z</time></trkpt><trkpt lat="42.2432903" lon="13.9279377"><ele>183.0</ele><time>2026-05-02T07:59:24.142Z</time></trkpt><trkpt lat="42.2433671" lon="13.9280339"><ele>182.60000000000002</ele><time>2026-05-02T07:59:25.142Z</time></trkpt><trkpt lat="42.2434377" lon="13.9281301"><ele>182.20000000000002</ele><time>2026-05-02T07:59:26.142Z</time></trkpt><trkpt lat="42.243505" lon="13.9282211"><ele>181.8</ele><time>2026-05-02T07:59:27.142Z</time></trkpt><trkpt lat="42.2435788" lon="13.9283009"><ele>181.4</ele><time>2026-05-02T07:59:28.143Z</time></trkpt><trkpt lat="42.2436621" lon="13.9283693"><ele>181.0</ele><time>2026-05-02T07:59:29.143Z</time></trkpt><trkpt lat="42.2437548" lon="13.9284142"><ele>180.83333333333334</ele><time>2026-05-02T07:59:30.141Z</time></trkpt><trkpt lat="42.2438495" lon="13.9284245"><ele>180.66666666666669</ele><time>2026-05-02T07:59:31.141Z</time></trkpt><trkpt lat="42.2439437" lon="13.9284052"><ele>180.5</ele><time>2026-05-02T07:59:32.141Z</time></trkpt><trkpt lat="42.2440281" lon="13.9283735"><ele>180.33333333333334</ele><time>2026-05-02T07:59:33.141Z</time></trkpt><trkpt lat="42.2440971" lon="13.9283404"><ele>180.16666666666666</ele><time>2026-05-02T07:59:34.142Z</time></trkpt><trkpt lat="42.2441569" lon="13.9283089"><ele>180.0</ele><time>2026-05-02T07:59:35.142Z</time></trkpt><trkpt lat="42.2442568" lon="13.9282419"><ele>179.66666666666666</ele><time>2026-05-02T07:59:37.141Z</time></trkpt><trkpt lat="42.2443262" lon="13.9281766"><ele>179.33333333333334</ele><time>2026-05-02T07:59:39.142Z</time></trkpt><trkpt lat="42.2443887" lon="13.9281007"><ele>179.0</ele><time>2026-05-02T07:59:42.143Z</time></trkpt><trkpt lat="42.2444194" lon="13.9279812"><ele>178.66666666666669</ele><time>2026-05-02T07:59:58.141Z</time></trkpt><trkpt lat="42.2444565" lon="13.9278642"><ele>178.33333333333334</ele><time>2026-05-02T08:00:00.142Z</time></trkpt><trkpt lat="42.2444773" lon="13.9277703"><ele>178.0</ele><time>2026-05-02T08:00:02.142Z</time></trkpt><trkpt lat="42.2444867" lon="13.9276309"><ele>179.16666666666669</ele><time>2026-05-02T08:00:05.141Z</time></trkpt><trkpt lat="42.2444902" lon="13.9275381"><ele>180.33333333333334</ele><time>2026-05-02T08:00:07.141Z</time></trkpt><trkpt lat="42.244509" lon="13.9274377"><ele>181.5</ele><time>2026-05-02T08:00:17.142Z</time></trkpt><trkpt lat="42.244518" lon="13.9273334"><ele>182.66666666666666</ele><time>2026-05-02T08:00:19.141Z</time></trkpt><trkpt lat="42.2445314" lon="13.9272089"><ele>183.83333333333331</ele><time>2026-05-02T08:00:21.141Z</time></trkpt><trkpt lat="42.2445436" lon="13.927079"><ele>185.0</ele><time>2026-05-02T08:00:23.142Z</time></trkpt><trkpt lat="42.2445769" lon="13.9269425"><ele>185.0</ele><time>2026-05-02T08:00:25.142Z</time></trkpt><trkpt lat="42.2446264" lon="13.9268131"><ele>185.0</ele><time>2026-05-02T08:00:27.142Z</time></trkpt><trkpt lat="42.2446803" lon="13.9266947"><ele>185.0</ele><time>2026-05-02T08:00:29.141Z</time></trkpt><trkpt lat="42.2447424" lon="13.9266303"><ele>185.0</ele><time>2026-05-02T08:00:32.142Z</time></trkpt><trkpt lat="42.2447447" lon="13.9265423"><ele>185.0</ele><time>2026-05-02T08:00:35.142Z</time></trkpt><trkpt lat="42.2447659" lon="13.9264084"><ele>182.28571428571428</ele><time>2026-05-02T08:00:38.142Z</time></trkpt><trkpt lat="42.2447964" lon="13.9263166"><ele>179.57142857142856</ele><time>2026-05-02T08:00:41.141Z</time></trkpt><trkpt lat="42.244827" lon="13.9262185"><ele>176.85714285714283</ele><time>2026-05-02T08:00:44.141Z</time></trkpt><trkpt lat="42.2448655" lon="13.9261482"><ele>174.14285714285714</ele><time>2026-05-02T08:02:10.142Z</time></trkpt><trkpt lat="42.2448675" lon="13.9260499"><ele>171.42857142857144</ele><time>2026-05-02T08:02:17.142Z</time></trkpt><trkpt lat="42.2448084" lon="13.9259976"><ele>168.7142857142857</ele><time>2026-05-02T08:02:24.142Z</time></trkpt><trkpt lat="42.2448545" lon="13.9260588"><ele>166.0</ele><time>2026-05-02T08:03:08.142Z</time></trkpt><trkpt lat="42.244872" lon="13.9261535"><ele>166.0</ele><time>2026-05-02T08:03:15.142Z</time></trkpt><trkpt lat="42.2448456" lon="13.926234"><ele>166.0</ele><time>2026-05-02T08:04:25.141Z</time></trkpt><trkpt lat="42.2448052" lon="13.9263116"><ele>166.0</ele><time>2026-05-02T08:04:32.141Z</time></trkpt><trkpt lat="42.2447793" lon="13.9263944"><ele>166.0</ele><time>2026-05-02T08:05:48.141Z</time></trkpt><trkpt lat="42.2447476" lon="13.9264757"><ele>166.0</ele><time>2026-05-02T08:05:55.141Z</time></trkpt><trkpt lat="42.2447113" lon="13.9265466"><ele>166.0</ele><time>2026-05-02T08:06:01.102Z</time></trkpt><trkpt lat="42.2446781" lon="13.9266322"><ele>166.0</ele><time>2026-05-02T08:06:06.161Z</time></trkpt><trkpt lat="42.2446284" lon="13.9266955"><ele>168.7142857142857</ele><time>2026-05-02T08:06:29.141Z</time></trkpt><trkpt lat="42.2445829" lon="13.9267716"><ele>171.42857142857144</ele><time>2026-05-02T08:06:34.174Z</time></trkpt><trkpt lat="42.244558" lon="13.9268616"><ele>174.14285714285714</ele><time>2026-05-02T08:06:40.142Z</time></trkpt><trkpt lat="42.2445209" lon="13.926941"><ele>176.85714285714283</ele><time>2026-05-02T08:06:46.176Z</time></trkpt><trkpt lat="42.244504" lon="13.9270235"><ele>179.57142857142856</ele><time>2026-05-02T08:06:52.141Z</time></trkpt><trkpt lat="42.2445027" lon="13.9271225"><ele>182.28571428571428</ele><time>2026-05-02T08:06:57.141Z</time></trkpt><trkpt lat="42.2445267" lon="13.9272116"><ele>185.0</ele><time>2026-05-02T08:07:02.142Z</time></trkpt><trkpt lat="42.2445118" lon="13.9273036"><ele>184.99999999999997</ele><time>2026-05-02T08:07:07.141Z</time></trkpt><trkpt lat="42.2445396" lon="13.9273888"><ele>185.0</ele><time>2026-05-02T08:07:13.179Z</time></trkpt><trkpt lat="42.2445251" lon="13.9274716"><ele>185.0</ele><time>2026-05-02T08:07:18.141Z</time></trkpt><trkpt lat="42.2445108" lon="13.92756"><ele>185.0</ele><time>2026-05-02T08:07:24.058Z</time></trkpt><trkpt lat="42.2445233" lon="13.927651"><ele>185.0</ele><time>2026-05-02T08:07:32.161Z</time></trkpt><trkpt lat="42.2444988" lon="13.9277568"><ele>184.99999999999997</ele><time>2026-05-02T08:07:38.141Z</time></trkpt><trkpt lat="42.244487" lon="13.9278528"><ele>185.0</ele><time>2026-05-02T08:07:44.141Z</time></trkpt><trkpt lat="42.2444879" lon="13.9279448"><ele>183.99999999999997</ele><time>2026-05-02T08:07:51.142Z</time></trkpt><trkpt lat="42.2445184" lon="13.9280208"><ele>183.0</ele><time>2026-05-02T08:07:56.141Z</time></trkpt><trkpt lat="42.2445253" lon="13.9281145"><ele>182.0</ele><time>2026-05-02T08:08:02.142Z</time></trkpt><trkpt lat="42.244484" lon="13.9281842"><ele>181.0</ele><time>2026-05-02T08:08:10.142Z</time></trkpt><trkpt lat="42.2444236" lon="13.928228"><ele>180.0</ele><time>2026-05-02T08:08:15.142Z</time></trkpt><trkpt lat="42.2443791" lon="13.9283001"><ele>178.99999999999997</ele><time>2026-05-02T08:08:22.141Z</time></trkpt><trkpt lat="42.2443999" lon="13.9283982"><ele>178.0</ele><time>2026-05-02T08:08:27.162Z</time></trkpt><trkpt lat="42.2444183" lon="13.9284798"><ele>177.7142857142857</ele><time>2026-05-02T08:08:31.142Z</time></trkpt><trkpt lat="42.2444527" lon="13.9285525"><ele>177.42857142857142</ele><time>2026-05-02T08:08:35.141Z</time></trkpt><trkpt lat="42.2444897" lon="13.9286432"><ele>177.14285714285714</ele><time>2026-05-02T08:08:40.142Z</time></trkpt><trkpt lat="42.2444711" lon="13.9287313"><ele>176.85714285714283</ele><time>2026-05-02T08:08:43.141Z</time></trkpt><trkpt lat="42.2445035" lon="13.9288127"><ele>176.57142857142856</ele><time>2026-05-02T08:08:50.142Z</time></trkpt><trkpt lat="42.2445247" lon="13.9288991"><ele>176.28571428571428</ele><time>2026-05-02T08:08:58.143Z</time></trkpt><trkpt lat="42.2445645" lon="13.9287812"><ele>176.0</ele><time>2026-05-02T08:18:40.142Z</time></trkpt><trkpt lat="42.2445338" lon="13.9287003"><ele>176.0</ele><time>2026-05-02T08:18:45.143Z</time></trkpt><trkpt lat="42.2445014" lon="13.9286128"><ele>176.0</ele><time>2026-05-02T08:18:51.198Z</time></trkpt><trkpt lat="42.2444691" lon="13.9285365"><ele>176.0</ele><time>2026-05-02T08:18:56.162Z</time></trkpt><trkpt lat="42.2444279" lon="13.9284696"><ele>176.0</ele><time>2026-05-02T08:19:06.142Z</time></trkpt><trkpt lat="42.244405" lon="13.9283646"><ele>176.0</ele><time>2026-05-02T08:19:28.144Z</time></trkpt><trkpt lat="42.2444081" lon="13.9282792"><ele>176.0</ele><time>2026-05-02T08:19:34.072Z</time></trkpt><trkpt lat="42.2444365" lon="13.9282024"><ele>176.0</ele><time>2026-05-02T08:19:38.143Z</time></trkpt><trkpt lat="42.2444277" lon="13.9281113"><ele>176.28571428571428</ele><time>2026-05-02T08:19:43.161Z</time></trkpt><trkpt lat="42.2444424" lon="13.9280129"><ele>176.57142857142856</ele><time>2026-05-02T08:19:59.142Z</time></trkpt><trkpt lat="42.2444628" lon="13.9279158"><ele>176.85714285714283</ele><time>2026-05-02T08:20:04.143Z</time></trkpt><trkpt lat="42.2444829" lon="13.9278191"><ele>177.14285714285714</ele><time>2026-05-02T08:20:10.143Z</time></trkpt><trkpt lat="42.2444893" lon="13.9277241"><ele>177.42857142857142</ele><time>2026-05-02T08:20:16.14Z</time></trkpt><trkpt lat="42.2445071" lon="13.9276368"><ele>177.7142857142857</ele><time>2026-05-02T08:20:24.143Z</time></trkpt><trkpt lat="42.2445559" lon="13.9275693"><ele>178.0</ele><time>2026-05-02T08:20:32.143Z</time></trkpt><trkpt lat="42.2445352" lon="13.927476"><ele>178.99999999999997</ele><time>2026-05-02T08:20:37.143Z</time></trkpt><trkpt lat="42.2445126" lon="13.9273912"><ele>180.0</ele><time>2026-05-02T08:20:42.144Z</time></trkpt><trkpt lat="42.2445273" lon="13.9272998"><ele>181.0</ele><time>2026-05-02T08:20:50.132Z</time></trkpt><trkpt lat="42.2445459" lon="13.9272172"><ele>182.0</ele><time>2026-05-02T08:20:58.142Z</time></trkpt><trkpt lat="42.244485" lon="13.9271843"><ele>183.0</ele><time>2026-05-02T08:21:35.144Z</time></trkpt><trkpt lat="42.2444982" lon="13.9270935"><ele>183.99999999999997</ele><time>2026-05-02T08:21:41.143Z</time></trkpt><trkpt lat="42.2445287" lon="13.9270129"><ele>185.0</ele><time>2026-05-02T08:21:48.179Z</time></trkpt><trkpt lat="42.2445376" lon="13.9269208"><ele>184.99999999999997</ele><time>2026-05-02T08:21:54.142Z</time></trkpt><trkpt lat="42.2445547" lon="13.9268331"><ele>185.0</ele><time>2026-05-02T08:22:02.143Z</time></trkpt><trkpt lat="42.2445937" lon="13.9267527"><ele>185.0</ele><time>2026-05-02T08:22:13.143Z</time></trkpt><trkpt lat="42.2446285" lon="13.9266678"><ele>185.0</ele><time>2026-05-02T08:22:21.155Z</time></trkpt><trkpt lat="42.2446864" lon="13.9266192"><ele>185.0</ele><time>2026-05-02T08:22:27.143Z</time></trkpt><trkpt lat="42.2447213" lon="13.9265391"><ele>184.99999999999997</ele><time>2026-05-02T08:22:34.143Z</time></trkpt><trkpt lat="42.2447438" lon="13.9264541"><ele>185.0</ele><time>2026-05-02T08:22:40.143Z</time></trkpt><trkpt lat="42.2447687" lon="13.9263746"><ele>186.14285714285714</ele><time>2026-05-02T08:22:50.143Z</time></trkpt><trkpt lat="42.2447872" lon="13.9262924"><ele>187.28571428571428</ele><time>2026-05-02T08:23:02.143Z</time></trkpt><trkpt lat="42.2448286" lon="13.9262163"><ele>188.42857142857144</ele><time>2026-05-02T08:23:11.143Z</time></trkpt><trkpt lat="42.2448156" lon="13.9263055"><ele>189.57142857142856</ele><time>2026-05-02T08:31:58.142Z</time></trkpt><trkpt lat="42.244769" lon="13.9263764"><ele>190.71428571428572</ele><time>2026-05-02T08:32:01.143Z</time></trkpt><trkpt lat="42.2447368" lon="13.9264657"><ele>191.85714285714286</ele><time>2026-05-02T08:32:04.142Z</time></trkpt><trkpt lat="42.2446999" lon="13.9265659"><ele>193.0</ele><time>2026-05-02T08:32:07.142Z</time></trkpt><trkpt lat="42.2446492" lon="13.926675"><ele>191.66666666666666</ele><time>2026-05-02T08:32:10.141Z</time></trkpt><trkpt lat="42.2446151" lon="13.9267754"><ele>190.33333333333331</ele><time>2026-05-02T08:32:12.141Z</time></trkpt><trkpt lat="42.2445847" lon="13.9268657"><ele>189.0</ele><time>2026-05-02T08:32:14.142Z</time></trkpt><trkpt lat="42.2445645" lon="13.9269709"><ele>187.66666666666666</ele><time>2026-05-02T08:32:17.141Z</time></trkpt><trkpt lat="42.2446193" lon="13.9270305"><ele>186.33333333333331</ele><time>2026-05-02T08:32:20.142Z</time></trkpt><trkpt lat="42.2447242" lon="13.9269913"><ele>185.0</ele><time>2026-05-02T08:32:22.142Z</time></trkpt><trkpt lat="42.2447926" lon="13.926973"><ele>181.4</ele><time>2026-05-02T08:32:23.141Z</time></trkpt><trkpt lat="42.2448689" lon="13.9269488"><ele>177.8</ele><time>2026-05-02T08:32:24.142Z</time></trkpt><trkpt lat="42.2449538" lon="13.9269275"><ele>174.2</ele><time>2026-05-02T08:32:25.142Z</time></trkpt><trkpt lat="42.2450455" lon="13.926902"><ele>170.6</ele><time>2026-05-02T08:32:26.142Z</time></trkpt><trkpt lat="42.2451552" lon="13.9268909"><ele>167.0</ele><time>2026-05-02T08:32:27.141Z</time></trkpt><trkpt lat="42.2452626" lon="13.926881"><ele>167.0</ele><time>2026-05-02T08:32:28.142Z</time></trkpt><trkpt lat="42.245381" lon="13.9268718"><ele>167.0</ele><time>2026-05-02T08:32:29.142Z</time></trkpt><trkpt lat="42.2454975" lon="13.9268636"><ele>167.0</ele><time>2026-05-02T08:32:30.142Z</time></trkpt><trkpt lat="42.2455957" lon="13.9268576"><ele>167.0</ele><time>2026-05-02T08:32:31.142Z</time></trkpt><trkpt lat="42.2456863" lon="13.9268538"><ele>167.0</ele><time>2026-05-02T08:32:32.141Z</time></trkpt><trkpt lat="42.2457774" lon="13.9268432"><ele>166.0</ele><time>2026-05-02T08:32:33.142Z</time></trkpt><trkpt lat="42.2458689" lon="13.9268384"><ele>165.0</ele><time>2026-05-02T08:32:34.143Z</time></trkpt><trkpt lat="42.2459449" lon="13.9268382"><ele>164.0</ele><time>2026-05-02T08:32:35.142Z</time></trkpt><trkpt lat="42.2460597" lon="13.9268431"><ele>163.0</ele><time>2026-05-02T08:32:37.142Z</time></trkpt><trkpt lat="42.2461354" lon="13.9268488"><ele>162.0</ele><time>2026-05-02T08:32:39.141Z</time></trkpt><trkpt lat="42.2461734" lon="13.9267665"><ele>161.0</ele><time>2026-05-02T08:32:41.142Z</time></trkpt><trkpt lat="42.2461962" lon="13.9266773"><ele>160.83333333333331</ele><time>2026-05-02T08:32:43.143Z</time></trkpt><trkpt lat="42.2462187" lon="13.9265924"><ele>160.66666666666666</ele><time>2026-05-02T08:32:47.141Z</time></trkpt><trkpt lat="42.2461112" lon="13.9265976"><ele>160.5</ele><time>2026-05-02T08:32:51.141Z</time></trkpt><trkpt lat="42.2460405" lon="13.9265988"><ele>160.33333333333334</ele><time>2026-05-02T08:32:52.142Z</time></trkpt><trkpt lat="42.2459522" lon="13.9266016"><ele>160.16666666666669</ele><time>2026-05-02T08:32:53.142Z</time></trkpt><trkpt lat="42.2458688" lon="13.9265966"><ele>160.0</ele><time>2026-05-02T08:32:54.141Z</time></trkpt><trkpt lat="42.2457976" lon="13.9265781"><ele>160.0</ele><time>2026-05-02T08:32:55.142Z</time></trkpt><trkpt lat="42.2457009" lon="13.9265004"><ele>160.0</ele><time>2026-05-02T08:32:57.142Z</time></trkpt><trkpt lat="42.2456551" lon="13.9263648"><ele>160.0</ele><time>2026-05-02T08:32:59.14Z</time></trkpt><trkpt lat="42.2456427" lon="13.9262613"><ele>160.0</ele><time>2026-05-02T08:33:00.141Z</time></trkpt><trkpt lat="42.2456389" lon="13.9261397"><ele>160.0</ele><time>2026-05-02T08:33:01.14Z</time></trkpt><trkpt lat="42.2456311" lon="13.9260045"><ele>162.4</ele><time>2026-05-02T08:33:02.141Z</time></trkpt><trkpt lat="42.2456223" lon="13.9258674"><ele>164.8</ele><time>2026-05-02T08:33:03.141Z</time></trkpt><trkpt lat="42.2456126" lon="13.9257172"><ele>167.2</ele><time>2026-05-02T08:33:04.14Z</time></trkpt><trkpt lat="42.2456037" lon="13.9255598"><ele>169.6</ele><time>2026-05-02T08:33:05.142Z</time></trkpt><trkpt lat="42.2455975" lon="13.925402"><ele>172.0</ele><time>2026-05-02T08:33:06.14Z</time></trkpt><trkpt lat="42.2456028" lon="13.9252583"><ele>172.0</ele><time>2026-05-02T08:33:07.141Z</time></trkpt><trkpt lat="42.2456199" lon="13.9251248"><ele>172.0</ele><time>2026-05-02T08:33:08.14Z</time></trkpt><trkpt lat="42.2456428" lon="13.9250026"><ele>172.0</ele><time>2026-05-02T08:33:09.141Z</time></trkpt><trkpt lat="42.2456615" lon="13.9248925"><ele>172.0</ele><time>2026-05-02T08:33:10.14Z</time></trkpt><trkpt lat="42.245687" lon="13.924775"><ele>172.0</ele><time>2026-05-02T08:33:11.141Z</time></trkpt><trkpt lat="42.2457172" lon="13.9246486"><ele>170.39999999999998</ele><time>2026-05-02T08:33:12.141Z</time></trkpt><trkpt lat="42.2457516" lon="13.9245298"><ele>168.79999999999998</ele><time>2026-05-02T08:33:13.14Z</time></trkpt><trkpt lat="42.2457911" lon="13.9244239"><ele>167.2</ele><time>2026-05-02T08:33:14.14Z</time></trkpt><trkpt lat="42.2458436" lon="13.9243346"><ele>165.6</ele><time>2026-05-02T08:33:15.141Z</time></trkpt><trkpt lat="42.2459092" lon="13.9242434"><ele>164.0</ele><time>2026-05-02T08:33:16.14Z</time></trkpt><trkpt lat="42.2459774" lon="13.9241451"><ele>164.0</ele><time>2026-05-02T08:33:17.141Z</time></trkpt><trkpt lat="42.246035" lon="13.9240353"><ele>164.0</ele><time>2026-05-02T08:33:18.142Z</time></trkpt><trkpt lat="42.2460857" lon="13.9239268"><ele>164.0</ele><time>2026-05-02T08:33:19.142Z</time></trkpt><trkpt lat="42.2461205" lon="13.9238123"><ele>164.0</ele><time>2026-05-02T08:33:20.14Z</time></trkpt><trkpt lat="42.24614" lon="13.9236949"><ele>164.0</ele><time>2026-05-02T08:33:21.14Z</time></trkpt><trkpt lat="42.2461478" lon="13.9235584"><ele>164.0</ele><time>2026-05-02T08:33:22.14Z</time></trkpt><trkpt lat="42.2461492" lon="13.9233991"><ele>164.0</ele><time>2026-05-02T08:33:23.141Z</time></trkpt><trkpt lat="42.246149" lon="13.9232226"><ele>164.0</ele><time>2026-05-02T08:33:24.14Z</time></trkpt><trkpt lat="42.2461496" lon="13.9230317"><ele>164.0</ele><time>2026-05-02T08:33:25.14Z</time></trkpt><trkpt lat="42.2461446" lon="13.922842"><ele>164.5</ele><time>2026-05-02T08:33:26.141Z</time></trkpt><trkpt lat="42.246139" lon="13.9226625"><ele>165.0</ele><time>2026-05-02T08:33:27.142Z</time></trkpt><trkpt lat="42.2461312" lon="13.9224898"><ele>165.5</ele><time>2026-05-02T08:33:28.14Z</time></trkpt><trkpt lat="42.2461281" lon="13.9223302"><ele>166.0</ele><time>2026-05-02T08:33:29.141Z</time></trkpt><trkpt lat="42.2461254" lon="13.9221808"><ele>166.20000000000002</ele><time>2026-05-02T08:33:30.14Z</time></trkpt><trkpt lat="42.2461219" lon="13.9220442"><ele>166.4</ele><time>2026-05-02T08:33:31.14Z</time></trkpt><trkpt lat="42.2461071" lon="13.9219169"><ele>166.6</ele><time>2026-05-02T08:33:32.14Z</time></trkpt><trkpt lat="42.2460783" lon="13.921791"><ele>166.8</ele><time>2026-05-02T08:33:33.14Z</time></trkpt><trkpt lat="42.246035" lon="13.9216555"><ele>167.0</ele><time>2026-05-02T08:33:34.14Z</time></trkpt><trkpt lat="42.2459849" lon="13.9214934"><ele>167.5</ele><time>2026-05-02T08:33:35.141Z</time></trkpt><trkpt lat="42.245939" lon="13.9213122"><ele>168.0</ele><time>2026-05-02T08:33:36.14Z</time></trkpt><trkpt lat="42.2458997" lon="13.9211457"><ele>168.5</ele><time>2026-05-02T08:33:37.14Z</time></trkpt><trkpt lat="42.2458572" lon="13.9209949"><ele>169.0</ele><time>2026-05-02T08:33:38.14Z</time></trkpt><trkpt lat="42.2458004" lon="13.9208493"><ele>169.25</ele><time>2026-05-02T08:33:39.141Z</time></trkpt><trkpt lat="42.2457351" lon="13.9207126"><ele>169.5</ele><time>2026-05-02T08:33:40.141Z</time></trkpt><trkpt lat="42.2456602" lon="13.9205748"><ele>169.75</ele><time>2026-05-02T08:33:41.141Z</time></trkpt><trkpt lat="42.2455871" lon="13.9204389"><ele>170.0</ele><time>2026-05-02T08:33:42.141Z</time></trkpt><trkpt lat="42.2455321" lon="13.9203147"><ele>171.4</ele><time>2026-05-02T08:33:43.141Z</time></trkpt><trkpt lat="42.2455054" lon="13.9201931"><ele>172.8</ele><time>2026-05-02T08:33:44.14Z</time></trkpt><trkpt lat="42.2454944" lon="13.920059"><ele>174.2</ele><time>2026-05-02T08:33:45.141Z</time></trkpt><trkpt lat="42.2454804" lon="13.9199287"><ele>175.6</ele><time>2026-05-02T08:33:46.14Z</time></trkpt><trkpt lat="42.2454515" lon="13.9198214"><ele>177.0</ele><time>2026-05-02T08:33:47.141Z</time></trkpt><trkpt lat="42.2454031" lon="13.919725"><ele>177.0</ele><time>2026-05-02T08:33:48.14Z</time></trkpt><trkpt lat="42.2453427" lon="13.9196204"><ele>177.0</ele><time>2026-05-02T08:33:49.141Z</time></trkpt><trkpt lat="42.245292" lon="13.9194926"><ele>177.0</ele><time>2026-05-02T08:33:50.14Z</time></trkpt><trkpt lat="42.2452592" lon="13.9193547"><ele>177.0</ele><time>2026-05-02T08:33:51.14Z</time></trkpt><trkpt lat="42.245244" lon="13.9192195"><ele>177.0</ele><time>2026-05-02T08:33:52.14Z</time></trkpt><trkpt lat="42.2452466" lon="13.9190865"><ele>176.5</ele><time>2026-05-02T08:33:53.14Z</time></trkpt><trkpt lat="42.2452651" lon="13.918937"><ele>176.0</ele><time>2026-05-02T08:33:54.141Z</time></trkpt><trkpt lat="42.2452908" lon="13.9187693"><ele>175.5</ele><time>2026-05-02T08:33:55.141Z</time></trkpt><trkpt lat="42.2453191" lon="13.9185894"><ele>175.0</ele><time>2026-05-02T08:33:56.14Z</time></trkpt><trkpt lat="42.2453543" lon="13.9184149"><ele>174.8</ele><time>2026-05-02T08:33:57.14Z</time></trkpt><trkpt lat="42.2453921" lon="13.9182578"><ele>174.6</ele><time>2026-05-02T08:33:58.141Z</time></trkpt><trkpt lat="42.2454173" lon="13.9181149"><ele>174.39999999999998</ele><time>2026-05-02T08:33:59.14Z</time></trkpt><trkpt lat="42.2454319" lon="13.9179787"><ele>174.2</ele><time>2026-05-02T08:34:00.14Z</time></trkpt><trkpt lat="42.2454369" lon="13.9178427"><ele>174.0</ele><time>2026-05-02T08:34:01.142Z</time></trkpt><trkpt lat="42.2454213" lon="13.9177063"><ele>174.0</ele><time>2026-05-02T08:34:02.141Z</time></trkpt><trkpt lat="42.2453821" lon="13.9175616"><ele>174.0</ele><time>2026-05-02T08:34:03.142Z</time></trkpt><trkpt lat="42.2453236" lon="13.9174161"><ele>174.0</ele><time>2026-05-02T08:34:04.14Z</time></trkpt><trkpt lat="42.2452488" lon="13.9172834"><ele>174.0</ele><time>2026-05-02T08:34:05.14Z</time></trkpt><trkpt lat="42.2451602" lon="13.9171609"><ele>174.0</ele><time>2026-05-02T08:34:06.14Z</time></trkpt><trkpt lat="42.2450567" lon="13.9170206"><ele>174.0</ele><time>2026-05-02T08:34:07.142Z</time></trkpt><trkpt lat="42.2449612" lon="13.9168538"><ele>174.0</ele><time>2026-05-02T08:34:08.14Z</time></trkpt><trkpt lat="42.2448896" lon="13.9166925"><ele>174.0</ele><time>2026-05-02T08:34:09.14Z</time></trkpt><trkpt lat="42.2448341" lon="13.9165555"><ele>174.83333333333334</ele><time>2026-05-02T08:34:10.141Z</time></trkpt><trkpt lat="42.2447811" lon="13.9164531"><ele>175.66666666666666</ele><time>2026-05-02T08:34:11.14Z</time></trkpt><trkpt lat="42.2447201" lon="13.9163978"><ele>176.5</ele><time>2026-05-02T08:34:12.141Z</time></trkpt><trkpt lat="42.2446414" lon="13.9163657"><ele>177.33333333333331</ele><time>2026-05-02T08:34:13.141Z</time></trkpt><trkpt lat="42.2445431" lon="13.916329"><ele>178.16666666666666</ele><time>2026-05-02T08:34:14.14Z</time></trkpt><trkpt lat="42.2444529" lon="13.9162918"><ele>179.0</ele><time>2026-05-02T08:34:15.14Z</time></trkpt><trkpt lat="42.2443841" lon="13.9162504"><ele>179.0</ele><time>2026-05-02T08:34:16.14Z</time></trkpt><trkpt lat="42.2443305" lon="13.9161863"><ele>179.0</ele><time>2026-05-02T08:34:17.14Z</time></trkpt><trkpt lat="42.2442888" lon="13.9160918"><ele>179.0</ele><time>2026-05-02T08:34:18.142Z</time></trkpt><trkpt lat="42.2442575" lon="13.915972"><ele>179.0</ele><time>2026-05-02T08:34:19.14Z</time></trkpt><trkpt lat="42.244226" lon="13.9158227"><ele>179.0</ele><time>2026-05-02T08:34:20.141Z</time></trkpt><trkpt lat="42.2441848" lon="13.9156659"><ele>179.2</ele><time>2026-05-02T08:34:21.14Z</time></trkpt><trkpt lat="42.2441312" lon="13.9155263"><ele>179.39999999999998</ele><time>2026-05-02T08:34:22.14Z</time></trkpt><trkpt lat="42.2440687" lon="13.9154035"><ele>179.6</ele><time>2026-05-02T08:34:23.141Z</time></trkpt><trkpt lat="42.2440081" lon="13.915305"><ele>179.8</ele><time>2026-05-02T08:34:24.14Z</time></trkpt><trkpt lat="42.243946" lon="13.9152322"><ele>180.0</ele><time>2026-05-02T08:34:25.141Z</time></trkpt><trkpt lat="42.2438585" lon="13.9151761"><ele>180.6</ele><time>2026-05-02T08:34:26.14Z</time></trkpt><trkpt lat="42.2437564" lon="13.9151151"><ele>181.2</ele><time>2026-05-02T08:34:27.14Z</time></trkpt><trkpt lat="42.2436692" lon="13.9150385"><ele>181.8</ele><time>2026-05-02T08:34:28.14Z</time></trkpt><trkpt lat="42.243591" lon="13.9149341"><ele>182.4</ele><time>2026-05-02T08:34:29.14Z</time></trkpt><trkpt lat="42.2435113" lon="13.9148088"><ele>183.0</ele><time>2026-05-02T08:34:30.141Z</time></trkpt><trkpt lat="42.2434378" lon="13.9146935"><ele>183.60000000000002</ele><time>2026-05-02T08:34:31.141Z</time></trkpt><trkpt lat="42.2433731" lon="13.9146177"><ele>184.20000000000002</ele><time>2026-05-02T08:34:32.141Z</time></trkpt><trkpt lat="42.2433215" lon="13.9145565"><ele>184.8</ele><time>2026-05-02T08:34:33.14Z</time></trkpt><trkpt lat="42.2432695" lon="13.914383"><ele>185.4</ele><time>2026-05-02T08:34:35.141Z</time></trkpt><trkpt lat="42.2432533" lon="13.9142503"><ele>186.0</ele><time>2026-05-02T08:34:36.14Z</time></trkpt><trkpt lat="42.243232" lon="13.9140883"><ele>187.25</ele><time>2026-05-02T08:34:37.14Z</time></trkpt><trkpt lat="42.2432065" lon="13.9138967"><ele>188.5</ele><time>2026-05-02T08:34:38.141Z</time></trkpt><trkpt lat="42.2431896" lon="13.9137063"><ele>189.75</ele><time>2026-05-02T08:34:39.14Z</time></trkpt><trkpt lat="42.2431762" lon="13.9135343"><ele>191.0</ele><time>2026-05-02T08:34:40.14Z</time></trkpt><trkpt lat="42.2431518" lon="13.9133964"><ele>191.0</ele><time>2026-05-02T08:34:41.14Z</time></trkpt><trkpt lat="42.2431172" lon="13.9132633"><ele>191.0</ele><time>2026-05-02T08:34:42.14Z</time></trkpt><trkpt lat="42.2430717" lon="13.9131322"><ele>191.0</ele><time>2026-05-02T08:34:43.14Z</time></trkpt><trkpt lat="42.2430056" lon="13.9130078"><ele>191.0</ele><time>2026-05-02T08:34:44.141Z</time></trkpt><trkpt lat="42.2429194" lon="13.9128679"><ele>191.0</ele><time>2026-05-02T08:34:45.141Z</time></trkpt><trkpt lat="42.2428508" lon="13.9127463"><ele>191.0</ele><time>2026-05-02T08:34:46.142Z</time></trkpt><trkpt lat="42.2428028" lon="13.9126415"><ele>191.0</ele><time>2026-05-02T08:34:47.141Z</time></trkpt><trkpt lat="42.24276" lon="13.9125114"><ele>191.0</ele><time>2026-05-02T08:34:48.141Z</time></trkpt><trkpt lat="42.242715" lon="13.9123647"><ele>191.0</ele><time>2026-05-02T08:34:49.142Z</time></trkpt><trkpt lat="42.2426717" lon="13.9122537"><ele>191.20000000000002</ele><time>2026-05-02T08:34:50.14Z</time></trkpt><trkpt lat="42.2426086" lon="13.9121437"><ele>191.4</ele><time>2026-05-02T08:34:52.141Z</time></trkpt><trkpt lat="42.2425325" lon="13.9120962"><ele>191.6</ele><time>2026-05-02T08:34:55.141Z</time></trkpt><trkpt lat="42.242446" lon="13.9121497"><ele>191.8</ele><time>2026-05-02T08:34:57.141Z</time></trkpt><trkpt lat="42.2423895" lon="13.912227"><ele>192.0</ele><time>2026-05-02T08:34:58.14Z</time></trkpt><trkpt lat="42.2423236" lon="13.912317"><ele>193.66666666666666</ele><time>2026-05-02T08:34:59.141Z</time></trkpt><trkpt lat="42.2422474" lon="13.9124109"><ele>195.33333333333331</ele><time>2026-05-02T08:35:00.141Z</time></trkpt><trkpt lat="42.2421764" lon="13.9125088"><ele>197.0</ele><time>2026-05-02T08:35:01.141Z</time></trkpt><trkpt lat="42.2421302" lon="13.9125805"><ele>198.66666666666666</ele><time>2026-05-02T08:35:02.141Z</time></trkpt><trkpt lat="42.2420739" lon="13.9125207"><ele>200.33333333333331</ele><time>2026-05-02T08:35:06.14Z</time></trkpt><trkpt lat="42.2421101" lon="13.9124458"><ele>202.0</ele><time>2026-05-02T08:35:08.14Z</time></trkpt><trkpt lat="42.2421023" lon="13.9123142"><ele>201.99999999999997</ele><time>2026-05-02T08:35:11.14Z</time></trkpt><trkpt lat="42.2420451" lon="13.9121553"><ele>202.0</ele><time>2026-05-02T08:35:13.141Z</time></trkpt><trkpt lat="42.242019" lon="13.9120595"><ele>202.0</ele><time>2026-05-02T08:35:14.141Z</time></trkpt><trkpt lat="42.2419909" lon="13.9119779"><ele>202.0</ele><time>2026-05-02T08:35:15.141Z</time></trkpt><trkpt lat="42.241947" lon="13.9119001"><ele>201.99999999999997</ele><time>2026-05-02T08:35:16.141Z</time></trkpt><trkpt lat="42.2419103" lon="13.9118285"><ele>202.0</ele><time>2026-05-02T08:35:17.14Z</time></trkpt><trkpt lat="42.241848" lon="13.9117547"><ele>201.2</ele><time>2026-05-02T08:35:18.142Z</time></trkpt><trkpt lat="42.2417281" lon="13.9116802"><ele>200.39999999999998</ele><time>2026-05-02T08:35:20.141Z</time></trkpt><trkpt lat="42.2416824" lon="13.911621"><ele>199.60000000000002</ele><time>2026-05-02T08:35:21.141Z</time></trkpt><trkpt lat="42.2415647" lon="13.9115183"><ele>198.8</ele><time>2026-05-02T08:35:23.14Z</time></trkpt><trkpt lat="42.2414964" lon="13.9114517"><ele>198.0</ele><time>2026-05-02T08:35:24.14Z</time></trkpt><trkpt lat="42.2414277" lon="13.9113988"><ele>200.16666666666666</ele><time>2026-05-02T08:35:25.14Z</time></trkpt><trkpt lat="42.2413636" lon="13.9113399"><ele>202.33333333333331</ele><time>2026-05-02T08:35:26.141Z</time></trkpt><trkpt lat="42.2412977" lon="13.911279"><ele>204.5</ele><time>2026-05-02T08:35:27.14Z</time></trkpt><trkpt lat="42.2412501" lon="13.9111759"><ele>206.66666666666666</ele><time>2026-05-02T08:35:28.141Z</time></trkpt><trkpt lat="42.2412078" lon="13.911093"><ele>208.83333333333331</ele><time>2026-05-02T08:35:29.141Z</time></trkpt><trkpt lat="42.2411729" lon="13.9109923"><ele>211.0</ele><time>2026-05-02T08:35:30.14Z</time></trkpt><trkpt lat="42.2411475" lon="13.9108683"><ele>211.0</ele><time>2026-05-02T08:35:31.14Z</time></trkpt><trkpt lat="42.2411123" lon="13.9107324"><ele>211.0</ele><time>2026-05-02T08:35:32.14Z</time></trkpt><trkpt lat="42.2410858" lon="13.9106124"><ele>211.0</ele><time>2026-05-02T08:35:33.14Z</time></trkpt><trkpt lat="42.241047" lon="13.9105074"><ele>211.0</ele><time>2026-05-02T08:35:34.14Z</time></trkpt><trkpt lat="42.2410015" lon="13.9103974"><ele>211.0</ele><time>2026-05-02T08:35:35.14Z</time></trkpt><trkpt lat="42.2409605" lon="13.9102789"><ele>210.99999999999997</ele><time>2026-05-02T08:35:36.141Z</time></trkpt><trkpt lat="42.2409033" lon="13.9102392"><ele>211.0</ele><time>2026-05-02T08:35:37.141Z</time></trkpt><trkpt lat="42.2408271" lon="13.9101658"><ele>211.0</ele><time>2026-05-02T08:35:39.14Z</time></trkpt><trkpt lat="42.2407314" lon="13.9101846"><ele>211.0</ele><time>2026-05-02T08:35:42.141Z</time></trkpt><trkpt lat="42.2407276" lon="13.9102905"><ele>210.99999999999997</ele><time>2026-05-02T08:35:43.142Z</time></trkpt><trkpt lat="42.2407161" lon="13.9103863"><ele>211.0</ele><time>2026-05-02T08:35:44.14Z</time></trkpt><trkpt lat="42.2407136" lon="13.9105026"><ele>211.0</ele><time>2026-05-02T08:35:45.14Z</time></trkpt><trkpt lat="42.2407381" lon="13.9106587"><ele>211.0</ele><time>2026-05-02T08:35:47.141Z</time></trkpt><trkpt lat="42.2407461" lon="13.9107852"><ele>211.0</ele><time>2026-05-02T08:35:49.14Z</time></trkpt><trkpt lat="42.2407016" lon="13.9109672"><ele>211.0</ele><time>2026-05-02T08:35:51.14Z</time></trkpt><trkpt lat="42.240618" lon="13.9111259"><ele>215.99999999999997</ele><time>2026-05-02T08:35:52.141Z</time></trkpt><trkpt lat="42.2405807" lon="13.9112303"><ele>221.0</ele><time>2026-05-02T08:35:53.141Z</time></trkpt><trkpt lat="42.2405369" lon="13.911379"><ele>226.0</ele><time>2026-05-02T08:35:55.14Z</time></trkpt><trkpt lat="42.240536" lon="13.9114816"><ele>231.0</ele><time>2026-05-02T08:35:56.141Z</time></trkpt><trkpt lat="42.2405609" lon="13.9115722"><ele>235.99999999999997</ele><time>2026-05-02T08:35:57.14Z</time></trkpt><trkpt lat="42.2405977" lon="13.9116541"><ele>241.0</ele><time>2026-05-02T08:35:59.14Z</time></trkpt><trkpt lat="42.2405326" lon="13.9116917"><ele>241.0</ele><time>2026-05-02T08:36:01.141Z</time></trkpt><trkpt lat="42.240415" lon="13.9116975"><ele>241.00000000000003</ele><time>2026-05-02T08:36:03.141Z</time></trkpt><trkpt lat="42.2403411" lon="13.9117089"><ele>241.00000000000003</ele><time>2026-05-02T08:36:04.14Z</time></trkpt><trkpt lat="42.2402502" lon="13.9117301"><ele>241.0</ele><time>2026-05-02T08:36:05.141Z</time></trkpt><trkpt lat="42.2401714" lon="13.9117448"><ele>241.0</ele><time>2026-05-02T08:36:06.141Z</time></trkpt><trkpt lat="42.2400767" lon="13.9117525"><ele>240.83333333333331</ele><time>2026-05-02T08:36:07.141Z</time></trkpt><trkpt lat="42.239985" lon="13.911785"><ele>240.66666666666666</ele><time>2026-05-02T08:36:08.141Z</time></trkpt><trkpt lat="42.2399168" lon="13.9118082"><ele>240.5</ele><time>2026-05-02T08:36:09.141Z</time></trkpt><trkpt lat="42.2398511" lon="13.911829"><ele>240.33333333333331</ele><time>2026-05-02T08:36:10.141Z</time></trkpt><trkpt lat="42.2397577" lon="13.9118406"><ele>240.16666666666666</ele><time>2026-05-02T08:36:12.142Z</time></trkpt><trkpt lat="42.2396859" lon="13.9118491"><ele>240.0</ele><time>2026-05-02T08:36:13.141Z</time></trkpt><trkpt lat="42.2396055" lon="13.9118642"><ele>240.0</ele><time>2026-05-02T08:36:14.14Z</time></trkpt><trkpt lat="42.2395266" lon="13.9118851"><ele>240.0</ele><time>2026-05-02T08:36:15.14Z</time></trkpt><trkpt lat="42.2394576" lon="13.9119033"><ele>240.0</ele><time>2026-05-02T08:36:16.14Z</time></trkpt><trkpt lat="42.2393455" lon="13.9119512"><ele>240.0</ele><time>2026-05-02T08:36:18.14Z</time></trkpt><trkpt lat="42.2392657" lon="13.9119848"><ele>240.0</ele><time>2026-05-02T08:36:20.14Z</time></trkpt><trkpt lat="42.2392008" lon="13.9120125"><ele>240.0</ele><time>2026-05-02T08:36:22.14Z</time></trkpt><trkpt lat="42.2393084" lon="13.9119699"><ele>240.0</ele><time>2026-05-02T08:36:27.14Z</time></trkpt><trkpt lat="42.2394031" lon="13.911937"><ele>240.0</ele><time>2026-05-02T08:36:28.14Z</time></trkpt><trkpt lat="42.2395137" lon="13.9119037"><ele>240.0</ele><time>2026-05-02T08:36:29.14Z</time></trkpt><trkpt lat="42.2396086" lon="13.9118849"><ele>240.0</ele><time>2026-05-02T08:36:30.14Z</time></trkpt><trkpt lat="42.2396982" lon="13.9118655"><ele>240.0</ele><time>2026-05-02T08:36:31.14Z</time></trkpt><trkpt lat="42.2397623" lon="13.9118601"><ele>240.16666666666666</ele><time>2026-05-02T08:36:32.14Z</time></trkpt><trkpt lat="42.2398275" lon="13.9118134"><ele>240.33333333333331</ele><time>2026-05-02T08:36:34.141Z</time></trkpt><trkpt lat="42.2398393" lon="13.9117162"><ele>240.5</ele><time>2026-05-02T08:36:36.14Z</time></trkpt><trkpt lat="42.2397941" lon="13.9115949"><ele>240.66666666666666</ele><time>2026-05-02T08:36:37.141Z</time></trkpt><trkpt lat="42.2397629" lon="13.9114917"><ele>240.83333333333331</ele><time>2026-05-02T08:36:38.141Z</time></trkpt><trkpt lat="42.2397289" lon="13.9113698"><ele>241.0</ele><time>2026-05-02T08:36:39.141Z</time></trkpt><trkpt lat="42.2396855" lon="13.9112263"><ele>242.60000000000002</ele><time>2026-05-02T08:36:40.14Z</time></trkpt><trkpt lat="42.2396317" lon="13.9110812"><ele>244.20000000000002</ele><time>2026-05-02T08:36:41.14Z</time></trkpt><trkpt lat="42.2395799" lon="13.9109417"><ele>245.79999999999998</ele><time>2026-05-02T08:36:42.14Z</time></trkpt><trkpt lat="42.2395254" lon="13.9108346"><ele>247.39999999999998</ele><time>2026-05-02T08:36:43.14Z</time></trkpt><trkpt lat="42.2394862" lon="13.910758"><ele>249.0</ele><time>2026-05-02T08:36:44.14Z</time></trkpt><trkpt lat="42.2394166" lon="13.9106644"><ele>249.25</ele><time>2026-05-02T08:36:45.14Z</time></trkpt><trkpt lat="42.2393485" lon="13.9105682"><ele>249.5</ele><time>2026-05-02T08:36:46.14Z</time></trkpt><trkpt lat="42.2392604" lon="13.9104749"><ele>249.75</ele><time>2026-05-02T08:36:47.141Z</time></trkpt><trkpt lat="42.239188" lon="13.9103493"><ele>250.0</ele><time>2026-05-02T08:36:48.141Z</time></trkpt><trkpt lat="42.2391091" lon="13.9102225"><ele>250.0</ele><time>2026-05-02T08:36:49.142Z</time></trkpt><trkpt lat="42.2390299" lon="13.9101141"><ele>250.0</ele><time>2026-05-02T08:36:50.142Z</time></trkpt><trkpt lat="42.2389587" lon="13.910012"><ele>250.0</ele><time>2026-05-02T08:36:51.14Z</time></trkpt><trkpt lat="42.2388866" lon="13.9099151"><ele>250.0</ele><time>2026-05-02T08:36:52.14Z</time></trkpt><trkpt lat="42.2388199" lon="13.909841"><ele>250.0</ele><time>2026-05-02T08:36:53.14Z</time></trkpt><trkpt lat="42.2387491" lon="13.9097811"><ele>253.0</ele><time>2026-05-02T08:36:54.14Z</time></trkpt><trkpt lat="42.2386532" lon="13.9097116"><ele>256.0</ele><time>2026-05-02T08:36:55.14Z</time></trkpt><trkpt lat="42.2385641" lon="13.9096493"><ele>259.0</ele><time>2026-05-02T08:36:56.14Z</time></trkpt><trkpt lat="42.2384919" lon="13.9095862"><ele>262.0</ele><time>2026-05-02T08:36:57.141Z</time></trkpt><trkpt lat="42.2384137" lon="13.9095169"><ele>265.0</ele><time>2026-05-02T08:36:58.141Z</time></trkpt><trkpt lat="42.2383498" lon="13.9094346"><ele>265.0</ele><time>2026-05-02T08:36:59.141Z</time></trkpt><trkpt lat="42.2382804" lon="13.9093461"><ele>265.0</ele><time>2026-05-02T08:37:00.141Z</time></trkpt><trkpt lat="42.23821" lon="13.9092593"><ele>265.0</ele><time>2026-05-02T08:37:01.142Z</time></trkpt><trkpt lat="42.2381383" lon="13.9091995"><ele>265.0</ele><time>2026-05-02T08:37:02.14Z</time></trkpt><trkpt lat="42.2380696" lon="13.9091305"><ele>265.0</ele><time>2026-05-02T08:37:03.141Z</time></trkpt><trkpt lat="42.2379671" lon="13.909131"><ele>267.2</ele><time>2026-05-02T08:37:04.14Z</time></trkpt><trkpt lat="42.2378765" lon="13.9091222"><ele>269.4</ele><time>2026-05-02T08:37:05.142Z</time></trkpt><trkpt lat="42.2378028" lon="13.909136"><ele>271.6</ele><time>2026-05-02T08:37:06.14Z</time></trkpt><trkpt lat="42.2377054" lon="13.9091462"><ele>273.8</ele><time>2026-05-02T08:37:08.141Z</time></trkpt><trkpt lat="42.2376458" lon="13.9090437"><ele>276.0</ele><time>2026-05-02T08:37:10.14Z</time></trkpt><trkpt lat="42.237608" lon="13.9089156"><ele>276.0</ele><time>2026-05-02T08:37:11.14Z</time></trkpt><trkpt lat="42.237548" lon="13.9087631"><ele>276.0</ele><time>2026-05-02T08:37:12.14Z</time></trkpt><trkpt lat="42.2374874" lon="13.9086032"><ele>276.0</ele><time>2026-05-02T08:37:13.14Z</time></trkpt><trkpt lat="42.2374452" lon="13.9084603"><ele>276.0</ele><time>2026-05-02T08:37:14.14Z</time></trkpt><trkpt lat="42.2373961" lon="13.9083345"><ele>276.6</ele><time>2026-05-02T08:37:15.141Z</time></trkpt><trkpt lat="42.2373454" lon="13.9082239"><ele>277.20000000000005</ele><time>2026-05-02T08:37:16.141Z</time></trkpt><trkpt lat="42.2372923" lon="13.9081009"><ele>277.79999999999995</ele><time>2026-05-02T08:37:17.141Z</time></trkpt><trkpt lat="42.2372347" lon="13.9079754"><ele>278.4</ele><time>2026-05-02T08:37:18.141Z</time></trkpt><trkpt lat="42.2371717" lon="13.9078488"><ele>279.0</ele><time>2026-05-02T08:37:19.141Z</time></trkpt><trkpt lat="42.2371071" lon="13.9077159"><ele>279.0</ele><time>2026-05-02T08:37:20.141Z</time></trkpt><trkpt lat="42.2370463" lon="13.9075859"><ele>279.0</ele><time>2026-05-02T08:37:21.14Z</time></trkpt><trkpt lat="42.2369908" lon="13.9074707"><ele>279.0</ele><time>2026-05-02T08:37:22.141Z</time></trkpt><trkpt lat="42.2369392" lon="13.9073684"><ele>279.0</ele><time>2026-05-02T08:37:23.14Z</time></trkpt><trkpt lat="42.2368922" lon="13.9072747"><ele>279.0</ele><time>2026-05-02T08:37:24.14Z</time></trkpt><trkpt lat="42.2368491" lon="13.9071877"><ele>278.99999999999994</ele><time>2026-05-02T08:37:25.14Z</time></trkpt><trkpt lat="42.2368133" lon="13.9070999"><ele>279.0</ele><time>2026-05-02T08:37:26.141Z</time></trkpt><trkpt lat="42.2367822" lon="13.9070222"><ele>279.0</ele><time>2026-05-02T08:37:27.14Z</time></trkpt><trkpt lat="42.2367475" lon="13.9069346"><ele>279.0</ele><time>2026-05-02T08:37:28.141Z</time></trkpt><trkpt lat="42.2367105" lon="13.9068536"><ele>279.0</ele><time>2026-05-02T08:37:29.142Z</time></trkpt><trkpt lat="42.2366684" lon="13.9067767"><ele>278.99999999999994</ele><time>2026-05-02T08:37:30.141Z</time></trkpt><trkpt lat="42.236626" lon="13.9067015"><ele>279.0</ele><time>2026-05-02T08:37:31.141Z</time></trkpt><trkpt lat="42.2365737" lon="13.9066257"><ele>278.5</ele><time>2026-05-02T08:37:32.14Z</time></trkpt><trkpt lat="42.2365213" lon="13.9065527"><ele>278.0</ele><time>2026-05-02T08:37:33.14Z</time></trkpt><trkpt lat="42.2364629" lon="13.9064772"><ele>277.5</ele><time>2026-05-02T08:37:34.141Z</time></trkpt><trkpt lat="42.2364127" lon="13.9064141"><ele>277.0</ele><time>2026-05-02T08:37:35.14Z</time></trkpt><trkpt lat="42.2363467" lon="13.9063334"><ele>276.5</ele><time>2026-05-02T08:37:37.14Z</time></trkpt><trkpt lat="42.2362866" lon="13.9062133"><ele>276.0</ele><time>2026-05-02T08:37:39.14Z</time></trkpt><trkpt lat="42.2362552" lon="13.9061147"><ele>276.0</ele><time>2026-05-02T08:37:40.14Z</time></trkpt><trkpt lat="42.2362209" lon="13.9059857"><ele>276.0</ele><time>2026-05-02T08:37:41.141Z</time></trkpt><trkpt lat="42.2361846" lon="13.9058395"><ele>276.0</ele><time>2026-05-02T08:37:42.141Z</time></trkpt><trkpt lat="42.2361487" lon="13.9056789"><ele>276.0</ele><time>2026-05-02T08:37:43.14Z</time></trkpt><trkpt lat="42.2361016" lon="13.9055035"><ele>279.0</ele><time>2026-05-02T08:37:44.14Z</time></trkpt><trkpt lat="42.2360389" lon="13.9053343"><ele>282.0</ele><time>2026-05-02T08:37:45.14Z</time></trkpt><trkpt lat="42.2359709" lon="13.9051746"><ele>285.0</ele><time>2026-05-02T08:37:46.14Z</time></trkpt><trkpt lat="42.2358993" lon="13.9050164"><ele>288.0</ele><time>2026-05-02T08:37:47.14Z</time></trkpt><trkpt lat="42.2358298" lon="13.9048552"><ele>287.5</ele><time>2026-05-02T08:37:48.141Z</time></trkpt><trkpt lat="42.2357593" lon="13.90469"><ele>287.0</ele><time>2026-05-02T08:37:49.14Z</time></trkpt><trkpt lat="42.2356863" lon="13.9045264"><ele>286.5</ele><time>2026-05-02T08:37:50.141Z</time></trkpt><trkpt lat="42.2356131" lon="13.9043585"><ele>286.0</ele><time>2026-05-02T08:37:51.141Z</time></trkpt><trkpt lat="42.2355435" lon="13.9042054"><ele>287.75</ele><time>2026-05-02T08:37:52.141Z</time></trkpt><trkpt lat="42.2354782" lon="13.9040553"><ele>289.5</ele><time>2026-05-02T08:37:53.141Z</time></trkpt><trkpt lat="42.2354223" lon="13.9038916"><ele>291.25</ele><time>2026-05-02T08:37:54.14Z</time></trkpt><trkpt lat="42.2353814" lon="13.9037138"><ele>293.0</ele><time>2026-05-02T08:37:55.14Z</time></trkpt><trkpt lat="42.2353514" lon="13.903528"><ele>293.5</ele><time>2026-05-02T08:37:56.14Z</time></trkpt><trkpt lat="42.2353229" lon="13.9033294"><ele>294.0</ele><time>2026-05-02T08:37:57.141Z</time></trkpt><trkpt lat="42.235293" lon="13.90313"><ele>294.5</ele><time>2026-05-02T08:37:58.14Z</time></trkpt><trkpt lat="42.2352715" lon="13.9029675"><ele>295.0</ele><time>2026-05-02T08:37:59.142Z</time></trkpt><trkpt lat="42.2352618" lon="13.9028525"><ele>295.0</ele><time>2026-05-02T08:38:00.141Z</time></trkpt><trkpt lat="42.2352986" lon="13.9027413"><ele>295.0</ele><time>2026-05-02T08:38:02.14Z</time></trkpt><trkpt lat="42.2353861" lon="13.9027803"><ele>295.0</ele><time>2026-05-02T08:38:04.14Z</time></trkpt><trkpt lat="42.2354106" lon="13.9028627"><ele>295.0</ele><time>2026-05-02T08:38:05.141Z</time></trkpt><trkpt lat="42.2354274" lon="13.9029843"><ele>295.0</ele><time>2026-05-02T08:38:06.14Z</time></trkpt><trkpt lat="42.2354556" lon="13.9031227"><ele>295.0</ele><time>2026-05-02T08:38:07.14Z</time></trkpt><trkpt lat="42.2355004" lon="13.9032877"><ele>294.5</ele><time>2026-05-02T08:38:08.14Z</time></trkpt><trkpt lat="42.235559" lon="13.9034695"><ele>294.0</ele><time>2026-05-02T08:38:09.141Z</time></trkpt><trkpt lat="42.2356168" lon="13.9036308"><ele>293.5</ele><time>2026-05-02T08:38:10.141Z</time></trkpt><trkpt lat="42.2356729" lon="13.9037589"><ele>293.0</ele><time>2026-05-02T08:38:11.142Z</time></trkpt><trkpt lat="42.2357377" lon="13.9038437"><ele>294.8</ele><time>2026-05-02T08:38:12.14Z</time></trkpt><trkpt lat="42.235807" lon="13.9038812"><ele>296.6</ele><time>2026-05-02T08:38:13.141Z</time></trkpt><trkpt lat="42.2359018" lon="13.903779"><ele>298.4</ele><time>2026-05-02T08:38:15.14Z</time></trkpt><trkpt lat="42.2359143" lon="13.9036733"><ele>300.2</ele><time>2026-05-02T08:38:16.14Z</time></trkpt><trkpt lat="42.2359121" lon="13.9035458"><ele>302.0</ele><time>2026-05-02T08:38:17.141Z</time></trkpt><trkpt lat="42.2359006" lon="13.9033862"><ele>303.5</ele><time>2026-05-02T08:38:18.14Z</time></trkpt><trkpt lat="42.2358867" lon="13.903209"><ele>305.0</ele><time>2026-05-02T08:38:19.141Z</time></trkpt><trkpt lat="42.235871" lon="13.9030179"><ele>306.5</ele><time>2026-05-02T08:38:20.14Z</time></trkpt><trkpt lat="42.2358545" lon="13.9028137"><ele>308.0</ele><time>2026-05-02T08:38:21.141Z</time></trkpt><trkpt lat="42.2358418" lon="13.9026335"><ele>310.0</ele><time>2026-05-02T08:38:22.141Z</time></trkpt><trkpt lat="42.2358326" lon="13.9024476"><ele>312.0</ele><time>2026-05-02T08:38:23.141Z</time></trkpt><trkpt lat="42.2358169" lon="13.902253"><ele>314.0</ele><time>2026-05-02T08:38:24.141Z</time></trkpt><trkpt lat="42.2358036" lon="13.9020546"><ele>316.0</ele><time>2026-05-02T08:38:25.141Z</time></trkpt><trkpt lat="42.2357855" lon="13.9018574"><ele>317.5</ele><time>2026-05-02T08:38:26.141Z</time></trkpt><trkpt lat="42.235763" lon="13.9016583"><ele>319.0</ele><time>2026-05-02T08:38:27.14Z</time></trkpt><trkpt lat="42.2357433" lon="13.9014724"><ele>320.5</ele><time>2026-05-02T08:38:28.14Z</time></trkpt><trkpt lat="42.2357312" lon="13.9012924"><ele>322.0</ele><time>2026-05-02T08:38:29.141Z</time></trkpt><trkpt lat="42.2357197" lon="13.9011065"><ele>323.75</ele><time>2026-05-02T08:38:30.14Z</time></trkpt><trkpt lat="42.2357095" lon="13.9009138"><ele>325.5</ele><time>2026-05-02T08:38:31.141Z</time></trkpt><trkpt lat="42.2357005" lon="13.9007124"><ele>327.25</ele><time>2026-05-02T08:38:32.141Z</time></trkpt><trkpt lat="42.2356927" lon="13.9005389"><ele>329.0</ele><time>2026-05-02T08:38:33.141Z</time></trkpt><trkpt lat="42.2356818" lon="13.9003608"><ele>329.0</ele><time>2026-05-02T08:38:34.141Z</time></trkpt><trkpt lat="42.2356754" lon="13.9002019"><ele>329.0</ele><time>2026-05-02T08:38:35.14Z</time></trkpt><trkpt lat="42.2356716" lon="13.9000517"><ele>329.0</ele><time>2026-05-02T08:38:36.14Z</time></trkpt><trkpt lat="42.2356758" lon="13.8999107"><ele>329.0</ele><time>2026-05-02T08:38:37.141Z</time></trkpt><trkpt lat="42.2356899" lon="13.8997633"><ele>329.0</ele><time>2026-05-02T08:38:38.14Z</time></trkpt><trkpt lat="42.2357111" lon="13.8996275"><ele>329.6</ele><time>2026-05-02T08:38:39.142Z</time></trkpt><trkpt lat="42.2357333" lon="13.8994826"><ele>330.2</ele><time>2026-05-02T08:38:40.141Z</time></trkpt><trkpt lat="42.2357477" lon="13.8993437"><ele>330.8</ele><time>2026-05-02T08:38:41.14Z</time></trkpt><trkpt lat="42.2357448" lon="13.8992148"><ele>331.40000000000003</ele><time>2026-05-02T08:38:42.141Z</time></trkpt><trkpt lat="42.235735" lon="13.8990812"><ele>332.0</ele><time>2026-05-02T08:38:43.14Z</time></trkpt><trkpt lat="42.235728" lon="13.8989514"><ele>333.6</ele><time>2026-05-02T08:38:44.141Z</time></trkpt><trkpt lat="42.235729" lon="13.8987893"><ele>335.20000000000005</ele><time>2026-05-02T08:38:45.14Z</time></trkpt><trkpt lat="42.2357299" lon="13.8986486"><ele>336.8</ele><time>2026-05-02T08:38:46.142Z</time></trkpt><trkpt lat="42.2357299" lon="13.8985091"><ele>338.4</ele><time>2026-05-02T08:38:47.141Z</time></trkpt><trkpt lat="42.2357237" lon="13.8983769"><ele>340.0</ele><time>2026-05-02T08:38:48.14Z</time></trkpt><trkpt lat="42.2357096" lon="13.8982417"><ele>341.6</ele><time>2026-05-02T08:38:49.14Z</time></trkpt><trkpt lat="42.2356921" lon="13.8981133"><ele>343.2</ele><time>2026-05-02T08:38:50.14Z</time></trkpt><trkpt lat="42.2356598" lon="13.8979793"><ele>344.79999999999995</ele><time>2026-05-02T08:38:51.14Z</time></trkpt><trkpt lat="42.2356504" lon="13.8978309"><ele>346.4</ele><time>2026-05-02T08:38:52.14Z</time></trkpt><trkpt lat="42.2356554" lon="13.8976697"><ele>348.0</ele><time>2026-05-02T08:38:53.14Z</time></trkpt><trkpt lat="42.2356758" lon="13.8975184"><ele>349.0</ele><time>2026-05-02T08:38:54.141Z</time></trkpt><trkpt lat="42.235697" lon="13.8973795"><ele>350.0</ele><time>2026-05-02T08:38:55.141Z</time></trkpt><trkpt lat="42.2357195" lon="13.8972424"><ele>351.0</ele><time>2026-05-02T08:38:56.14Z</time></trkpt><trkpt lat="42.2357464" lon="13.8971079"><ele>352.0</ele><time>2026-05-02T08:38:57.14Z</time></trkpt><trkpt lat="42.2357699" lon="13.8969897"><ele>353.0</ele><time>2026-05-02T08:38:58.14Z</time></trkpt><trkpt lat="42.2357933" lon="13.8968764"><ele>353.0</ele><time>2026-05-02T08:38:59.14Z</time></trkpt><trkpt lat="42.2358236" lon="13.8967509"><ele>353.0</ele><time>2026-05-02T08:39:00.142Z</time></trkpt><trkpt lat="42.2358531" lon="13.8965994"><ele>353.0</ele><time>2026-05-02T08:39:01.141Z</time></trkpt><trkpt lat="42.2358822" lon="13.8964284"><ele>353.0</ele><time>2026-05-02T08:39:02.14Z</time></trkpt><trkpt lat="42.2359112" lon="13.8962605"><ele>353.0</ele><time>2026-05-02T08:39:03.14Z</time></trkpt><trkpt lat="42.2359294" lon="13.8961019"><ele>353.0</ele><time>2026-05-02T08:39:04.142Z</time></trkpt><trkpt lat="42.2359466" lon="13.895947"><ele>353.0</ele><time>2026-05-02T08:39:05.14Z</time></trkpt><trkpt lat="42.2359668" lon="13.8957915"><ele>353.0</ele><time>2026-05-02T08:39:06.14Z</time></trkpt><trkpt lat="42.2359895" lon="13.8956567"><ele>352.0</ele><time>2026-05-02T08:39:07.14Z</time></trkpt><trkpt lat="42.2360136" lon="13.8955094"><ele>351.0</ele><time>2026-05-02T08:39:08.14Z</time></trkpt><trkpt lat="42.236039" lon="13.8953323"><ele>350.0</ele><time>2026-05-02T08:39:09.14Z</time></trkpt><trkpt lat="42.2360619" lon="13.895149"><ele>349.0</ele><time>2026-05-02T08:39:10.14Z</time></trkpt><trkpt lat="42.2360747" lon="13.8949902"><ele>348.6</ele><time>2026-05-02T08:39:11.14Z</time></trkpt><trkpt lat="42.2360847" lon="13.8948372"><ele>348.2</ele><time>2026-05-02T08:39:12.141Z</time></trkpt><trkpt lat="42.2360972" lon="13.8946925"><ele>347.8</ele><time>2026-05-02T08:39:13.141Z</time></trkpt><trkpt lat="42.2361104" lon="13.8945675"><ele>347.40000000000003</ele><time>2026-05-02T08:39:14.14Z</time></trkpt><trkpt lat="42.2361324" lon="13.8944499"><ele>347.0</ele><time>2026-05-02T08:39:15.14Z</time></trkpt><trkpt lat="42.2361677" lon="13.894336"><ele>346.6</ele><time>2026-05-02T08:39:16.14Z</time></trkpt><trkpt lat="42.2362105" lon="13.8942162"><ele>346.20000000000005</ele><time>2026-05-02T08:39:17.14Z</time></trkpt><trkpt lat="42.236244" lon="13.8940741"><ele>345.8</ele><time>2026-05-02T08:39:18.141Z</time></trkpt><trkpt lat="42.2362563" lon="13.8939241"><ele>345.4</ele><time>2026-05-02T08:39:19.142Z</time></trkpt><trkpt lat="42.23626" lon="13.8937692"><ele>345.0</ele><time>2026-05-02T08:39:20.14Z</time></trkpt><trkpt lat="42.2362566" lon="13.8936125"><ele>345.0</ele><time>2026-05-02T08:39:21.14Z</time></trkpt><trkpt lat="42.2362525" lon="13.8934723"><ele>345.0</ele><time>2026-05-02T08:39:22.14Z</time></trkpt><trkpt lat="42.2362531" lon="13.8933164"><ele>345.0</ele><time>2026-05-02T08:39:23.14Z</time></trkpt><trkpt lat="42.2362509" lon="13.8931423"><ele>345.0</ele><time>2026-05-02T08:39:24.141Z</time></trkpt><trkpt lat="42.2362455" lon="13.8929557"><ele>345.25</ele><time>2026-05-02T08:39:25.14Z</time></trkpt><trkpt lat="42.2362384" lon="13.8927647"><ele>345.5</ele><time>2026-05-02T08:39:26.141Z</time></trkpt><trkpt lat="42.2362315" lon="13.8925739"><ele>345.75</ele><time>2026-05-02T08:39:27.14Z</time></trkpt><trkpt lat="42.2362174" lon="13.8923873"><ele>346.0</ele><time>2026-05-02T08:39:28.14Z</time></trkpt><trkpt lat="42.2361936" lon="13.8922086"><ele>347.5</ele><time>2026-05-02T08:39:29.14Z</time></trkpt><trkpt lat="42.2361616" lon="13.8920351"><ele>349.0</ele><time>2026-05-02T08:39:30.139Z</time></trkpt><trkpt lat="42.2361174" lon="13.8918682"><ele>350.5</ele><time>2026-05-02T08:39:31.139Z</time></trkpt><trkpt lat="42.2360695" lon="13.8917153"><ele>352.0</ele><time>2026-05-02T08:39:32.139Z</time></trkpt><trkpt lat="42.2360122" lon="13.8915691"><ele>354.0</ele><time>2026-05-02T08:39:33.14Z</time></trkpt><trkpt lat="42.2359465" lon="13.8914184"><ele>356.0</ele><time>2026-05-02T08:39:34.14Z</time></trkpt><trkpt lat="42.2358836" lon="13.8912755"><ele>358.0</ele><time>2026-05-02T08:39:35.14Z</time></trkpt><trkpt lat="42.2358265" lon="13.8911231"><ele>360.0</ele><time>2026-05-02T08:39:36.139Z</time></trkpt><trkpt lat="42.2357783" lon="13.8909546"><ele>363.3333333333333</ele><time>2026-05-02T08:39:37.139Z</time></trkpt><trkpt lat="42.2357443" lon="13.8907637"><ele>366.66666666666663</ele><time>2026-05-02T08:39:38.139Z</time></trkpt><trkpt lat="42.2357154" lon="13.8905518"><ele>370.0</ele><time>2026-05-02T08:39:39.139Z</time></trkpt><trkpt lat="42.2356869" lon="13.8903427"><ele>370.0</ele><time>2026-05-02T08:39:40.139Z</time></trkpt><trkpt lat="42.2356497" lon="13.8901421"><ele>370.0</ele><time>2026-05-02T08:39:41.14Z</time></trkpt><trkpt lat="42.2356019" lon="13.8899643"><ele>370.0</ele><time>2026-05-02T08:39:42.139Z</time></trkpt><trkpt lat="42.2355396" lon="13.8898045"><ele>370.0</ele><time>2026-05-02T08:39:43.14Z</time></trkpt><trkpt lat="42.2354661" lon="13.8896493"><ele>368.66666666666663</ele><time>2026-05-02T08:39:44.14Z</time></trkpt><trkpt lat="42.2353871" lon="13.8894815"><ele>367.3333333333333</ele><time>2026-05-02T08:39:45.14Z</time></trkpt><trkpt lat="42.2353065" lon="13.8893006"><ele>366.0</ele><time>2026-05-02T08:39:46.139Z</time></trkpt><trkpt lat="42.2352215" lon="13.8891136"><ele>369.3333333333333</ele><time>2026-05-02T08:39:47.139Z</time></trkpt><trkpt lat="42.2351304" lon="13.8889172"><ele>372.66666666666663</ele><time>2026-05-02T08:39:48.139Z</time></trkpt><trkpt lat="42.2350281" lon="13.8887226"><ele>376.0</ele><time>2026-05-02T08:39:49.139Z</time></trkpt><trkpt lat="42.2349192" lon="13.888531"><ele>378.0</ele><time>2026-05-02T08:39:50.139Z</time></trkpt><trkpt lat="42.2348009" lon="13.8883343"><ele>380.0</ele><time>2026-05-02T08:39:51.139Z</time></trkpt><trkpt lat="42.234685" lon="13.8881515"><ele>382.0</ele><time>2026-05-02T08:39:52.139Z</time></trkpt><trkpt lat="42.2345745" lon="13.8879719"><ele>382.0</ele><time>2026-05-02T08:39:53.139Z</time></trkpt><trkpt lat="42.2344639" lon="13.8877934"><ele>382.0</ele><time>2026-05-02T08:39:54.14Z</time></trkpt><trkpt lat="42.2343575" lon="13.8876206"><ele>382.0</ele><time>2026-05-02T08:39:55.139Z</time></trkpt><trkpt lat="42.2342541" lon="13.8874524"><ele>382.3333333333333</ele><time>2026-05-02T08:39:56.14Z</time></trkpt><trkpt lat="42.2341535" lon="13.8872842"><ele>382.6666666666667</ele><time>2026-05-02T08:39:57.14Z</time></trkpt><trkpt lat="42.2340532" lon="13.8871174"><ele>383.0</ele><time>2026-05-02T08:39:58.139Z</time></trkpt><trkpt lat="42.2339568" lon="13.8869654"><ele>383.0</ele><time>2026-05-02T08:39:59.139Z</time></trkpt><trkpt lat="42.2338481" lon="13.886828"><ele>383.0</ele><time>2026-05-02T08:40:00.141Z</time></trkpt><trkpt lat="42.2337384" lon="13.8867232"><ele>383.0</ele><time>2026-05-02T08:40:01.14Z</time></trkpt><trkpt lat="42.2336367" lon="13.8866492"><ele>383.0</ele><time>2026-05-02T08:40:02.139Z</time></trkpt><trkpt lat="42.2335579" lon="13.886577"><ele>386.1666666666667</ele><time>2026-05-02T08:40:03.14Z</time></trkpt><trkpt lat="42.2335088" lon="13.8864943"><ele>389.33333333333337</ele><time>2026-05-02T08:40:04.14Z</time></trkpt><trkpt lat="42.2335011" lon="13.8863991"><ele>392.5</ele><time>2026-05-02T08:40:05.139Z</time></trkpt><trkpt lat="42.2335247" lon="13.8863103"><ele>395.6666666666667</ele><time>2026-05-02T08:40:06.141Z</time></trkpt><trkpt lat="42.2335802" lon="13.8862645"><ele>398.8333333333333</ele><time>2026-05-02T08:40:07.14Z</time></trkpt><trkpt lat="42.2336558" lon="13.886253"><ele>402.0</ele><time>2026-05-02T08:40:08.14Z</time></trkpt><trkpt lat="42.2337426" lon="13.8862903"><ele>402.0</ele><time>2026-05-02T08:40:09.139Z</time></trkpt><trkpt lat="42.2338417" lon="13.8863518"><ele>402.0</ele><time>2026-05-02T08:40:10.14Z</time></trkpt><trkpt lat="42.2339537" lon="13.8864329"><ele>402.0</ele><time>2026-05-02T08:40:11.139Z</time></trkpt><trkpt lat="42.2340717" lon="13.8865399"><ele>402.0</ele><time>2026-05-02T08:40:12.139Z</time></trkpt><trkpt lat="42.2341929" lon="13.8866786"><ele>401.75</ele><time>2026-05-02T08:40:13.14Z</time></trkpt><trkpt lat="42.2343022" lon="13.8868201"><ele>401.5</ele><time>2026-05-02T08:40:14.14Z</time></trkpt><trkpt lat="42.2343919" lon="13.886933"><ele>401.25</ele><time>2026-05-02T08:40:15.139Z</time></trkpt><trkpt lat="42.2344758" lon="13.8870106"><ele>401.0</ele><time>2026-05-02T08:40:16.139Z</time></trkpt><trkpt lat="42.234557" lon="13.8870419"><ele>400.99999999999994</ele><time>2026-05-02T08:40:17.139Z</time></trkpt><trkpt lat="42.2346265" lon="13.8870251"><ele>401.0</ele><time>2026-05-02T08:40:18.139Z</time></trkpt><trkpt lat="42.2346792" lon="13.8869548"><ele>401.0</ele><time>2026-05-02T08:40:19.139Z</time></trkpt><trkpt lat="42.2346984" lon="13.8868527"><ele>401.0</ele><time>2026-05-02T08:40:20.139Z</time></trkpt><trkpt lat="42.2346796" lon="13.8867434"><ele>400.99999999999994</ele><time>2026-05-02T08:40:21.139Z</time></trkpt><trkpt lat="42.2346236" lon="13.8866447"><ele>401.0</ele><time>2026-05-02T08:40:22.14Z</time></trkpt><trkpt lat="42.2345455" lon="13.8865438"><ele>405.0</ele><time>2026-05-02T08:40:23.141Z</time></trkpt><trkpt lat="42.2344587" lon="13.8864338"><ele>409.0</ele><time>2026-05-02T08:40:24.139Z</time></trkpt><trkpt lat="42.2343692" lon="13.8863051"><ele>413.0</ele><time>2026-05-02T08:40:25.139Z</time></trkpt><trkpt lat="42.2342837" lon="13.8861544"><ele>417.0</ele><time>2026-05-02T08:40:26.14Z</time></trkpt><trkpt lat="42.2341992" lon="13.8859898"><ele>421.33333333333337</ele><time>2026-05-02T08:40:27.141Z</time></trkpt><trkpt lat="42.2341203" lon="13.8858128"><ele>425.6666666666667</ele><time>2026-05-02T08:40:28.139Z</time></trkpt><trkpt lat="42.2340569" lon="13.8856189"><ele>430.0</ele><time>2026-05-02T08:40:29.14Z</time></trkpt><trkpt lat="42.2340114" lon="13.8854147"><ele>430.0</ele><time>2026-05-02T08:40:30.141Z</time></trkpt><trkpt lat="42.2339803" lon="13.8852276"><ele>430.0</ele><time>2026-05-02T08:40:31.14Z</time></trkpt><trkpt lat="42.2339579" lon="13.8850479"><ele>430.0</ele><time>2026-05-02T08:40:32.141Z</time></trkpt><trkpt lat="42.2339293" lon="13.8848619"><ele>430.0</ele><time>2026-05-02T08:40:33.14Z</time></trkpt><trkpt lat="42.2339001" lon="13.8846711"><ele>429.33333333333337</ele><time>2026-05-02T08:40:34.14Z</time></trkpt><trkpt lat="42.2338679" lon="13.88447"><ele>428.66666666666663</ele><time>2026-05-02T08:40:35.14Z</time></trkpt><trkpt lat="42.2338313" lon="13.8842566"><ele>428.0</ele><time>2026-05-02T08:40:36.14Z</time></trkpt><trkpt lat="42.2337917" lon="13.8840474"><ele>433.66666666666663</ele><time>2026-05-02T08:40:37.14Z</time></trkpt><trkpt lat="42.2337484" lon="13.8838387"><ele>439.33333333333337</ele><time>2026-05-02T08:40:38.14Z</time></trkpt><trkpt lat="42.2337011" lon="13.8836307"><ele>445.0</ele><time>2026-05-02T08:40:39.14Z</time></trkpt><trkpt lat="42.2336512" lon="13.8834243"><ele>449.0</ele><time>2026-05-02T08:40:40.14Z</time></trkpt><trkpt lat="42.2336085" lon="13.8832282"><ele>453.0</ele><time>2026-05-02T08:40:41.139Z</time></trkpt><trkpt lat="42.233577" lon="13.8830453"><ele>457.0</ele><time>2026-05-02T08:40:42.139Z</time></trkpt><trkpt lat="42.2335623" lon="13.8828492"><ele>461.0</ele><time>2026-05-02T08:40:43.139Z</time></trkpt><trkpt lat="42.2335614" lon="13.8826354"><ele>465.66666666666663</ele><time>2026-05-02T08:40:44.139Z</time></trkpt><trkpt lat="42.2335712" lon="13.8824236"><ele>470.33333333333337</ele><time>2026-05-02T08:40:45.139Z</time></trkpt><trkpt lat="42.233591" lon="13.8822098"><ele>475.0</ele><time>2026-05-02T08:40:46.14Z</time></trkpt><trkpt lat="42.2336168" lon="13.8820048"><ele>475.0</ele><time>2026-05-02T08:40:47.139Z</time></trkpt><trkpt lat="42.2336425" lon="13.8817995"><ele>475.0</ele><time>2026-05-02T08:40:48.139Z</time></trkpt><trkpt lat="42.233673" lon="13.8815849"><ele>475.0</ele><time>2026-05-02T08:40:49.14Z</time></trkpt><trkpt lat="42.2337118" lon="13.8813713"><ele>475.75</ele><time>2026-05-02T08:40:50.139Z</time></trkpt><trkpt lat="42.2337522" lon="13.881169"><ele>476.5</ele><time>2026-05-02T08:40:51.139Z</time></trkpt><trkpt lat="42.2337922" lon="13.8809886"><ele>477.25</ele><time>2026-05-02T08:40:52.14Z</time></trkpt><trkpt lat="42.233827" lon="13.880799"><ele>478.0</ele><time>2026-05-02T08:40:53.141Z</time></trkpt><trkpt lat="42.2338446" lon="13.8806049"><ele>478.0</ele><time>2026-05-02T08:40:54.14Z</time></trkpt><trkpt lat="42.2338397" lon="13.880405"><ele>478.0</ele><time>2026-05-02T08:40:55.14Z</time></trkpt><trkpt lat="42.2338144" lon="13.8802026"><ele>478.0</ele><time>2026-05-02T08:40:56.14Z</time></trkpt><trkpt lat="42.2337772" lon="13.8800112"><ele>478.0</ele><time>2026-05-02T08:40:57.14Z</time></trkpt><trkpt lat="42.233729" lon="13.8798304"><ele>477.5</ele><time>2026-05-02T08:40:58.14Z</time></trkpt><trkpt lat="42.2337097" lon="13.8796306"><ele>477.0</ele><time>2026-05-02T08:40:59.141Z</time></trkpt><trkpt lat="42.2337094" lon="13.8794445"><ele>476.5</ele><time>2026-05-02T08:41:00.14Z</time></trkpt><trkpt lat="42.2337133" lon="13.879253"><ele>476.0</ele><time>2026-05-02T08:41:01.14Z</time></trkpt><trkpt lat="42.2337696" lon="13.8790405"><ele>475.66666666666663</ele><time>2026-05-02T08:41:02.141Z</time></trkpt><trkpt lat="42.2338275" lon="13.8788132"><ele>475.33333333333337</ele><time>2026-05-02T08:41:03.139Z</time></trkpt><trkpt lat="42.2338809" lon="13.878574"><ele>475.0</ele><time>2026-05-02T08:41:04.139Z</time></trkpt><trkpt lat="42.2339318" lon="13.8783524"><ele>468.6666666666667</ele><time>2026-05-02T08:41:05.139Z</time></trkpt><trkpt lat="42.2339755" lon="13.8781316"><ele>462.33333333333337</ele><time>2026-05-02T08:41:06.139Z</time></trkpt><trkpt lat="42.2340199" lon="13.8779065"><ele>456.0</ele><time>2026-05-02T08:41:07.139Z</time></trkpt><trkpt lat="42.234061" lon="13.8776692"><ele>458.0</ele><time>2026-05-02T08:41:08.139Z</time></trkpt><trkpt lat="42.2340925" lon="13.8774582"><ele>460.0</ele><time>2026-05-02T08:41:09.14Z</time></trkpt><trkpt lat="42.2341148" lon="13.8772613"><ele>462.0</ele><time>2026-05-02T08:41:10.139Z</time></trkpt><trkpt lat="42.2341277" lon="13.8770826"><ele>464.0</ele><time>2026-05-02T08:41:11.139Z</time></trkpt><trkpt lat="42.2341374" lon="13.8769056"><ele>464.5</ele><time>2026-05-02T08:41:12.139Z</time></trkpt><trkpt lat="42.2341506" lon="13.876743"><ele>465.0</ele><time>2026-05-02T08:41:13.139Z</time></trkpt><trkpt lat="42.234177" lon="13.8765823"><ele>465.5</ele><time>2026-05-02T08:41:14.14Z</time></trkpt><trkpt lat="42.2342199" lon="13.8764142"><ele>466.0</ele><time>2026-05-02T08:41:15.141Z</time></trkpt><trkpt lat="42.2342911" lon="13.8762402"><ele>466.0</ele><time>2026-05-02T08:41:16.139Z</time></trkpt><trkpt lat="42.2343757" lon="13.8760593"><ele>466.0</ele><time>2026-05-02T08:41:17.141Z</time></trkpt><trkpt lat="42.2344663" lon="13.8758876"><ele>466.0</ele><time>2026-05-02T08:41:18.139Z</time></trkpt><trkpt lat="42.2345703" lon="13.8757177"><ele>463.33333333333337</ele><time>2026-05-02T08:41:19.14Z</time></trkpt><trkpt lat="42.2346634" lon="13.8755535"><ele>460.66666666666663</ele><time>2026-05-02T08:41:20.141Z</time></trkpt><trkpt lat="42.2347886" lon="13.8754133"><ele>458.0</ele><time>2026-05-02T08:41:21.14Z</time></trkpt><trkpt lat="42.2348956" lon="13.8752896"><ele>458.0</ele><time>2026-05-02T08:41:22.14Z</time></trkpt><trkpt lat="42.2350094" lon="13.8751706"><ele>458.0</ele><time>2026-05-02T08:41:23.139Z</time></trkpt><trkpt lat="42.2351297" lon="13.8750508"><ele>458.0</ele><time>2026-05-02T08:41:24.14Z</time></trkpt><trkpt lat="42.2352575" lon="13.8749429"><ele>458.0</ele><time>2026-05-02T08:41:25.14Z</time></trkpt><trkpt lat="42.2353774" lon="13.874838"><ele>456.0</ele><time>2026-05-02T08:41:26.139Z</time></trkpt><trkpt lat="42.2354928" lon="13.8747199"><ele>454.0</ele><time>2026-05-02T08:41:27.14Z</time></trkpt><trkpt lat="42.2355902" lon="13.8746062"><ele>452.0</ele><time>2026-05-02T08:41:28.139Z</time></trkpt><trkpt lat="42.2356604" lon="13.874499"><ele>450.0</ele><time>2026-05-02T08:41:29.139Z</time></trkpt><trkpt lat="42.2357006" lon="13.8743903"><ele>450.0</ele><time>2026-05-02T08:41:30.139Z</time></trkpt><trkpt lat="42.2357009" lon="13.8742904"><ele>450.0</ele><time>2026-05-02T08:41:31.139Z</time></trkpt><trkpt lat="42.2356637" lon="13.8741788"><ele>450.0</ele><time>2026-05-02T08:41:32.139Z</time></trkpt><trkpt lat="42.2355871" lon="13.8740715"><ele>450.0</ele><time>2026-05-02T08:41:33.14Z</time></trkpt><trkpt lat="42.2354913" lon="13.8739584"><ele>450.0</ele><time>2026-05-02T08:41:34.14Z</time></trkpt><trkpt lat="42.2354197" lon="13.8738581"><ele>455.4</ele><time>2026-05-02T08:41:35.139Z</time></trkpt><trkpt lat="42.2353748" lon="13.8737509"><ele>460.8</ele><time>2026-05-02T08:41:36.139Z</time></trkpt><trkpt lat="42.2353613" lon="13.8736425"><ele>466.20000000000005</ele><time>2026-05-02T08:41:37.139Z</time></trkpt><trkpt lat="42.2353903" lon="13.8735327"><ele>471.6</ele><time>2026-05-02T08:41:38.139Z</time></trkpt><trkpt lat="42.2354503" lon="13.8734141"><ele>477.0</ele><time>2026-05-02T08:41:39.14Z</time></trkpt><trkpt lat="42.2355208" lon="13.8733075"><ele>477.0</ele><time>2026-05-02T08:41:40.139Z</time></trkpt><trkpt lat="42.2356061" lon="13.8732376"><ele>477.0</ele><time>2026-05-02T08:41:41.139Z</time></trkpt><trkpt lat="42.2357144" lon="13.8732046"><ele>477.0</ele><time>2026-05-02T08:41:42.14Z</time></trkpt><trkpt lat="42.2358412" lon="13.8732062"><ele>477.0</ele><time>2026-05-02T08:41:43.14Z</time></trkpt><trkpt lat="42.2359837" lon="13.8732349"><ele>471.66666666666663</ele><time>2026-05-02T08:41:44.14Z</time></trkpt><trkpt lat="42.2361428" lon="13.8732841"><ele>466.3333333333333</ele><time>2026-05-02T08:41:45.139Z</time></trkpt><trkpt lat="42.2362947" lon="13.8733348"><ele>461.0</ele><time>2026-05-02T08:41:46.139Z</time></trkpt><trkpt lat="42.2364505" lon="13.8733713"><ele>461.3333333333333</ele><time>2026-05-02T08:41:47.139Z</time></trkpt><trkpt lat="42.2366039" lon="13.8733888"><ele>461.66666666666663</ele><time>2026-05-02T08:41:48.139Z</time></trkpt><trkpt lat="42.2367555" lon="13.8733888"><ele>462.0</ele><time>2026-05-02T08:41:49.14Z</time></trkpt><trkpt lat="42.2369067" lon="13.8733639"><ele>462.0</ele><time>2026-05-02T08:41:50.139Z</time></trkpt><trkpt lat="42.2370611" lon="13.8733077"><ele>462.0</ele><time>2026-05-02T08:41:51.139Z</time></trkpt><trkpt lat="42.2372074" lon="13.8732327"><ele>462.0</ele><time>2026-05-02T08:41:52.139Z</time></trkpt><trkpt lat="42.2373408" lon="13.8731325"><ele>460.75</ele><time>2026-05-02T08:41:53.139Z</time></trkpt><trkpt lat="42.2374664" lon="13.8730353"><ele>459.5</ele><time>2026-05-02T08:41:54.14Z</time></trkpt><trkpt lat="42.2375755" lon="13.87294"><ele>458.25</ele><time>2026-05-02T08:41:55.139Z</time></trkpt><trkpt lat="42.2376757" lon="13.8728227"><ele>457.0</ele><time>2026-05-02T08:41:56.139Z</time></trkpt><trkpt lat="42.2377637" lon="13.8726646"><ele>461.0</ele><time>2026-05-02T08:41:57.139Z</time></trkpt><trkpt lat="42.237832" lon="13.8724771"><ele>465.0</ele><time>2026-05-02T08:41:58.139Z</time></trkpt><trkpt lat="42.2378875" lon="13.8722868"><ele>469.0</ele><time>2026-05-02T08:41:59.141Z</time></trkpt><trkpt lat="42.2379425" lon="13.8721152"><ele>473.0</ele><time>2026-05-02T08:42:00.139Z</time></trkpt><trkpt lat="42.2380037" lon="13.8719423"><ele>473.25</ele><time>2026-05-02T08:42:01.14Z</time></trkpt><trkpt lat="42.238073" lon="13.8717683"><ele>473.5</ele><time>2026-05-02T08:42:02.14Z</time></trkpt><trkpt lat="42.2381452" lon="13.8716095"><ele>473.75</ele><time>2026-05-02T08:42:03.14Z</time></trkpt><trkpt lat="42.2382155" lon="13.8714708"><ele>474.0</ele><time>2026-05-02T08:42:04.139Z</time></trkpt><trkpt lat="42.2383002" lon="13.871331"><ele>474.0</ele><time>2026-05-02T08:42:05.14Z</time></trkpt><trkpt lat="42.2383943" lon="13.8711938"><ele>474.0</ele><time>2026-05-02T08:42:06.139Z</time></trkpt><trkpt lat="42.2384909" lon="13.8710458"><ele>474.0</ele><time>2026-05-02T08:42:07.139Z</time></trkpt><trkpt lat="42.2385822" lon="13.8709067"><ele>474.0</ele><time>2026-05-02T08:42:08.14Z</time></trkpt><trkpt lat="42.2386508" lon="13.8708069"><ele>476.6666666666667</ele><time>2026-05-02T08:42:09.139Z</time></trkpt><trkpt lat="42.2387017" lon="13.8707357"><ele>479.33333333333337</ele><time>2026-05-02T08:42:10.139Z</time></trkpt><trkpt lat="42.2387379" lon="13.8706215"><ele>482.0</ele><time>2026-05-02T08:42:12.14Z</time></trkpt><trkpt lat="42.238664" lon="13.8705953"><ele>484.6666666666667</ele><time>2026-05-02T08:42:14.139Z</time></trkpt><trkpt lat="42.2385983" lon="13.8706185"><ele>487.33333333333337</ele><time>2026-05-02T08:42:15.139Z</time></trkpt><trkpt lat="42.2385098" lon="13.8706425"><ele>490.0</ele><time>2026-05-02T08:42:16.139Z</time></trkpt><trkpt lat="42.2384126" lon="13.8706609"><ele>490.0</ele><time>2026-05-02T08:42:17.139Z</time></trkpt><trkpt lat="42.2382912" lon="13.8706825"><ele>490.0</ele><time>2026-05-02T08:42:18.139Z</time></trkpt><trkpt lat="42.2381549" lon="13.8707051"><ele>490.0</ele><time>2026-05-02T08:42:19.139Z</time></trkpt><trkpt lat="42.2380388" lon="13.8707355"><ele>490.0</ele><time>2026-05-02T08:42:20.139Z</time></trkpt><trkpt lat="42.2379435" lon="13.8707893"><ele>489.2</ele><time>2026-05-02T08:42:21.14Z</time></trkpt><trkpt lat="42.2378539" lon="13.8708649"><ele>488.4</ele><time>2026-05-02T08:42:22.14Z</time></trkpt><trkpt lat="42.2377644" lon="13.8709356"><ele>487.6</ele><time>2026-05-02T08:42:23.139Z</time></trkpt><trkpt lat="42.2376831" lon="13.8709811"><ele>486.8</ele><time>2026-05-02T08:42:24.14Z</time></trkpt><trkpt lat="42.2376086" lon="13.8709974"><ele>486.0</ele><time>2026-05-02T08:42:25.139Z</time></trkpt><trkpt lat="42.2375249" lon="13.8709145"><ele>488.8</ele><time>2026-05-02T08:42:27.14Z</time></trkpt><trkpt lat="42.2375733" lon="13.8707546"><ele>491.6</ele><time>2026-05-02T08:42:29.14Z</time></trkpt><trkpt lat="42.2376255" lon="13.8706525"><ele>494.4</ele><time>2026-05-02T08:42:30.139Z</time></trkpt><trkpt lat="42.2376963" lon="13.8705438"><ele>497.2</ele><time>2026-05-02T08:42:31.139Z</time></trkpt><trkpt lat="42.2377792" lon="13.8704265"><ele>500.0</ele><time>2026-05-02T08:42:32.139Z</time></trkpt><trkpt lat="42.2378636" lon="13.8703071"><ele>500.0</ele><time>2026-05-02T08:42:33.14Z</time></trkpt><trkpt lat="42.2379318" lon="13.8701939"><ele>500.0</ele><time>2026-05-02T08:42:34.139Z</time></trkpt><trkpt lat="42.237985" lon="13.870092"><ele>500.0</ele><time>2026-05-02T08:42:35.139Z</time></trkpt><trkpt lat="42.2380347" lon="13.8699878"><ele>500.0</ele><time>2026-05-02T08:42:36.139Z</time></trkpt><trkpt lat="42.2379588" lon="13.8698348"><ele>500.0</ele><time>2026-05-02T08:42:38.139Z</time></trkpt><trkpt lat="42.2378962" lon="13.869779"><ele>503.0</ele><time>2026-05-02T08:42:39.14Z</time></trkpt><trkpt lat="42.2378084" lon="13.8697347"><ele>506.0</ele><time>2026-05-02T08:42:40.14Z</time></trkpt><trkpt lat="42.2377115" lon="13.8696913"><ele>509.0</ele><time>2026-05-02T08:42:41.139Z</time></trkpt><trkpt lat="42.2375986" lon="13.8696423"><ele>512.0</ele><time>2026-05-02T08:42:42.14Z</time></trkpt><trkpt lat="42.2374859" lon="13.869579"><ele>515.0</ele><time>2026-05-02T08:42:43.139Z</time></trkpt><trkpt lat="42.2373772" lon="13.8695029"><ele>514.75</ele><time>2026-05-02T08:42:44.139Z</time></trkpt><trkpt lat="42.2372519" lon="13.8694269"><ele>514.5</ele><time>2026-05-02T08:42:45.14Z</time></trkpt><trkpt lat="42.2371155" lon="13.869353"><ele>514.25</ele><time>2026-05-02T08:42:46.139Z</time></trkpt><trkpt lat="42.2369706" lon="13.8692673"><ele>514.0</ele><time>2026-05-02T08:42:47.139Z</time></trkpt><trkpt lat="42.2368178" lon="13.8691694"><ele>517.5</ele><time>2026-05-02T08:42:48.14Z</time></trkpt><trkpt lat="42.2366741" lon="13.869068"><ele>521.0</ele><time>2026-05-02T08:42:49.14Z</time></trkpt><trkpt lat="42.2365452" lon="13.8689682"><ele>524.5</ele><time>2026-05-02T08:42:50.139Z</time></trkpt><trkpt lat="42.2364358" lon="13.8688842"><ele>528.0</ele><time>2026-05-02T08:42:51.139Z</time></trkpt><trkpt lat="42.2363443" lon="13.8688191"><ele>528.0</ele><time>2026-05-02T08:42:52.139Z</time></trkpt><trkpt lat="42.2362695" lon="13.8687466"><ele>528.0</ele><time>2026-05-02T08:42:53.14Z</time></trkpt><trkpt lat="42.2362313" lon="13.8686598"><ele>528.0</ele><time>2026-05-02T08:42:54.139Z</time></trkpt><trkpt lat="42.2362681" lon="13.8685032"><ele>528.0</ele><time>2026-05-02T08:42:56.139Z</time></trkpt><trkpt lat="42.236334" lon="13.8684511"><ele>528.0</ele><time>2026-05-02T08:42:57.139Z</time></trkpt><trkpt lat="42.2364286" lon="13.8684011"><ele>533.5</ele><time>2026-05-02T08:42:58.14Z</time></trkpt><trkpt lat="42.2365365" lon="13.8683485"><ele>539.0</ele><time>2026-05-02T08:42:59.139Z</time></trkpt><trkpt lat="42.2366551" lon="13.868285"><ele>544.5</ele><time>2026-05-02T08:43:00.141Z</time></trkpt><trkpt lat="42.2367752" lon="13.8682314"><ele>550.0</ele><time>2026-05-02T08:43:01.14Z</time></trkpt><trkpt lat="42.2368823" lon="13.8681739"><ele>550.0</ele><time>2026-05-02T08:43:02.139Z</time></trkpt><trkpt lat="42.2369658" lon="13.8681385"><ele>550.0</ele><time>2026-05-02T08:43:03.14Z</time></trkpt><trkpt lat="42.2370291" lon="13.8680899"><ele>550.0</ele><time>2026-05-02T08:43:04.14Z</time></trkpt><trkpt lat="42.2370447" lon="13.867947"><ele>550.0</ele><time>2026-05-02T08:43:06.14Z</time></trkpt><trkpt lat="42.2369936" lon="13.8678945"><ele>550.0</ele><time>2026-05-02T08:43:07.141Z</time></trkpt><trkpt lat="42.2369173" lon="13.8678432"><ele>550.0</ele><time>2026-05-02T08:43:08.14Z</time></trkpt><trkpt lat="42.2368283" lon="13.8677907"><ele>550.0</ele><time>2026-05-02T08:43:09.14Z</time></trkpt><trkpt lat="42.2367373" lon="13.8677319"><ele>550.0</ele><time>2026-05-02T08:43:10.14Z</time></trkpt><trkpt lat="42.2366401" lon="13.8676768"><ele>550.0</ele><time>2026-05-02T08:43:11.14Z</time></trkpt><trkpt lat="42.2365483" lon="13.8675548"><ele>550.0</ele><time>2026-05-02T08:43:12.14Z</time></trkpt><trkpt lat="42.236459" lon="13.8674555"><ele>551.75</ele><time>2026-05-02T08:43:13.139Z</time></trkpt><trkpt lat="42.2363855" lon="13.8672624"><ele>553.5</ele><time>2026-05-02T08:43:14.139Z</time></trkpt><trkpt lat="42.2363199" lon="13.8670952"><ele>555.25</ele><time>2026-05-02T08:43:15.14Z</time></trkpt><trkpt lat="42.2362485" lon="13.8669478"><ele>557.0</ele><time>2026-05-02T08:43:16.139Z</time></trkpt><trkpt lat="42.2361729" lon="13.8668121"><ele>557.0</ele><time>2026-05-02T08:43:17.139Z</time></trkpt><trkpt lat="42.2361033" lon="13.8666866"><ele>557.0</ele><time>2026-05-02T08:43:18.14Z</time></trkpt><trkpt lat="42.2360091" lon="13.8666818"><ele>557.0</ele><time>2026-05-02T08:43:19.139Z</time></trkpt><trkpt lat="42.2358456" lon="13.8666896"><ele>557.0</ele><time>2026-05-02T08:43:20.139Z</time></trkpt><trkpt lat="42.235701" lon="13.8668349"><ele>556.0</ele><time>2026-05-02T08:43:21.14Z</time></trkpt><trkpt lat="42.2355864" lon="13.8668534"><ele>555.0</ele><time>2026-05-02T08:43:22.14Z</time></trkpt><trkpt lat="42.2355009" lon="13.8668582"><ele>554.0</ele><time>2026-05-02T08:43:23.139Z</time></trkpt><trkpt lat="42.2354182" lon="13.8667967"><ele>553.0</ele><time>2026-05-02T08:43:25.139Z</time></trkpt><trkpt lat="42.2354471" lon="13.8667058"><ele>552.0</ele><time>2026-05-02T08:43:27.139Z</time></trkpt><trkpt lat="42.2355325" lon="13.866623"><ele>556.0</ele><time>2026-05-02T08:43:29.139Z</time></trkpt><trkpt lat="42.2355934" lon="13.8665966"><ele>560.0</ele><time>2026-05-02T08:43:30.14Z</time></trkpt><trkpt lat="42.2356559" lon="13.8665309"><ele>564.0</ele><time>2026-05-02T08:43:32.14Z</time></trkpt><trkpt lat="42.2357363" lon="13.866476"><ele>568.0</ele><time>2026-05-02T08:43:34.14Z</time></trkpt><trkpt lat="42.2358031" lon="13.8664273"><ele>572.0</ele><time>2026-05-02T08:43:36.139Z</time></trkpt><trkpt lat="42.235897" lon="13.8663462"><ele>576.0</ele><time>2026-05-02T08:43:38.14Z</time></trkpt><trkpt lat="42.2359602" lon="13.8662968"><ele>576.3333333333334</ele><time>2026-05-02T08:43:39.14Z</time></trkpt><trkpt lat="42.236025" lon="13.8662453"><ele>576.6666666666666</ele><time>2026-05-02T08:43:40.139Z</time></trkpt><trkpt lat="42.2360953" lon="13.8661886"><ele>577.0</ele><time>2026-05-02T08:43:41.14Z</time></trkpt><trkpt lat="42.2361793" lon="13.8660539"><ele>577.3333333333333</ele><time>2026-05-02T08:43:43.139Z</time></trkpt><trkpt lat="42.2362054" lon="13.8659634"><ele>577.6666666666666</ele><time>2026-05-02T08:43:44.139Z</time></trkpt><trkpt lat="42.2362379" lon="13.8658658"><ele>578.0</ele><time>2026-05-02T08:43:45.139Z</time></trkpt><trkpt lat="42.2363072" lon="13.8658025"><ele>580.6</ele><time>2026-05-02T08:43:47.14Z</time></trkpt><trkpt lat="42.2364069" lon="13.8659067"><ele>583.1999999999999</ele><time>2026-05-02T08:43:49.14Z</time></trkpt><trkpt lat="42.2364719" lon="13.8659735"><ele>585.8</ele><time>2026-05-02T08:43:50.14Z</time></trkpt><trkpt lat="42.236564" lon="13.8660319"><ele>588.4</ele><time>2026-05-02T08:43:51.14Z</time></trkpt><trkpt lat="42.2366526" lon="13.8660497"><ele>591.0</ele><time>2026-05-02T08:43:52.141Z</time></trkpt><trkpt lat="42.2367569" lon="13.866046"><ele>591.0</ele><time>2026-05-02T08:43:53.139Z</time></trkpt><trkpt lat="42.2368698" lon="13.8660318"><ele>591.0</ele><time>2026-05-02T08:43:54.14Z</time></trkpt><trkpt lat="42.2369465" lon="13.8660355"><ele>591.0</ele><time>2026-05-02T08:43:55.14Z</time></trkpt><trkpt lat="42.2370254" lon="13.8660499"><ele>591.0</ele><time>2026-05-02T08:43:56.139Z</time></trkpt><trkpt lat="42.2371038" lon="13.8661243"><ele>591.0</ele><time>2026-05-02T08:43:57.14Z</time></trkpt><trkpt lat="42.2372029" lon="13.8662048"><ele>593.2</ele><time>2026-05-02T08:43:58.139Z</time></trkpt><trkpt lat="42.2373093" lon="13.8662885"><ele>595.4000000000001</ele><time>2026-05-02T08:43:59.139Z</time></trkpt><trkpt lat="42.2374076" lon="13.866368"><ele>597.6</ele><time>2026-05-02T08:44:00.139Z</time></trkpt><trkpt lat="42.2374972" lon="13.8664176"><ele>599.8000000000001</ele><time>2026-05-02T08:44:01.139Z</time></trkpt><trkpt lat="42.2375814" lon="13.8664485"><ele>602.0</ele><time>2026-05-02T08:44:02.139Z</time></trkpt><trkpt lat="42.2376513" lon="13.8664517"><ele>602.0</ele><time>2026-05-02T08:44:03.139Z</time></trkpt><trkpt lat="42.2377255" lon="13.8664287"><ele>602.0</ele><time>2026-05-02T08:44:04.139Z</time></trkpt><trkpt lat="42.2378583" lon="13.866318"><ele>602.0</ele><time>2026-05-02T08:44:06.139Z</time></trkpt><trkpt lat="42.2379175" lon="13.866254"><ele>602.0</ele><time>2026-05-02T08:44:07.141Z</time></trkpt><trkpt lat="42.2379695" lon="13.8661783"><ele>602.0</ele><time>2026-05-02T08:44:08.14Z</time></trkpt><trkpt lat="42.2380117" lon="13.8660962"><ele>602.0</ele><time>2026-05-02T08:44:09.139Z</time></trkpt><trkpt lat="42.2380416" lon="13.8660016"><ele>602.0</ele><time>2026-05-02T08:44:10.141Z</time></trkpt><trkpt lat="42.238051" lon="13.865905"><ele>602.0</ele><time>2026-05-02T08:44:11.14Z</time></trkpt><trkpt lat="42.238056" lon="13.8657909"><ele>602.0</ele><time>2026-05-02T08:44:12.139Z</time></trkpt><trkpt lat="42.2380527" lon="13.86566"><ele>602.0</ele><time>2026-05-02T08:44:13.141Z</time></trkpt><trkpt lat="42.2380334" lon="13.8655299"><ele>602.0</ele><time>2026-05-02T08:44:14.139Z</time></trkpt><trkpt lat="42.238014" lon="13.8654006"><ele>605.6</ele><time>2026-05-02T08:44:15.139Z</time></trkpt><trkpt lat="42.2379805" lon="13.8652949"><ele>609.2</ele><time>2026-05-02T08:44:16.139Z</time></trkpt><trkpt lat="42.2379663" lon="13.8651337"><ele>612.8</ele><time>2026-05-02T08:44:18.14Z</time></trkpt><trkpt lat="42.2379536" lon="13.8650228"><ele>616.4</ele><time>2026-05-02T08:44:19.14Z</time></trkpt><trkpt lat="42.2379507" lon="13.864906"><ele>620.0</ele><time>2026-05-02T08:44:20.139Z</time></trkpt><trkpt lat="42.2379441" lon="13.8647915"><ele>622.8333333333333</ele><time>2026-05-02T08:44:21.14Z</time></trkpt><trkpt lat="42.2379415" lon="13.8646871"><ele>625.6666666666666</ele><time>2026-05-02T08:44:22.14Z</time></trkpt><trkpt lat="42.2379397" lon="13.8645975"><ele>628.5</ele><time>2026-05-02T08:44:23.139Z</time></trkpt><trkpt lat="42.2379313" lon="13.8645005"><ele>631.3333333333334</ele><time>2026-05-02T08:44:24.139Z</time></trkpt><trkpt lat="42.2379133" lon="13.8643678"><ele>634.1666666666667</ele><time>2026-05-02T08:44:26.139Z</time></trkpt><trkpt lat="42.2378461" lon="13.8642513"><ele>637.0</ele><time>2026-05-02T08:44:28.139Z</time></trkpt><trkpt lat="42.2377822" lon="13.8641956"><ele>640.0</ele><time>2026-05-02T08:44:29.14Z</time></trkpt><trkpt lat="42.2377063" lon="13.8641278"><ele>643.0</ele><time>2026-05-02T08:44:30.139Z</time></trkpt><trkpt lat="42.237634" lon="13.8640436"><ele>646.0</ele><time>2026-05-02T08:44:31.139Z</time></trkpt><trkpt lat="42.2375778" lon="13.8639511"><ele>649.0</ele><time>2026-05-02T08:44:32.14Z</time></trkpt><trkpt lat="42.2375166" lon="13.8638406"><ele>652.0</ele><time>2026-05-02T08:44:33.139Z</time></trkpt><trkpt lat="42.2374757" lon="13.8637388"><ele>652.0</ele><time>2026-05-02T08:44:34.139Z</time></trkpt><trkpt lat="42.2374537" lon="13.8636428"><ele>652.0</ele><time>2026-05-02T08:44:35.139Z</time></trkpt><trkpt lat="42.2374406" lon="13.8635351"><ele>652.0</ele><time>2026-05-02T08:44:36.139Z</time></trkpt><trkpt lat="42.237441" lon="13.8634053"><ele>652.0</ele><time>2026-05-02T08:44:37.139Z</time></trkpt><trkpt lat="42.2374412" lon="13.8632741"><ele>652.0</ele><time>2026-05-02T08:44:38.14Z</time></trkpt><trkpt lat="42.2374412" lon="13.8631431"><ele>652.0</ele><time>2026-05-02T08:44:39.14Z</time></trkpt><trkpt lat="42.2373965" lon="13.8630655"><ele>655.2</ele><time>2026-05-02T08:44:40.14Z</time></trkpt><trkpt lat="42.2373637" lon="13.8629451"><ele>658.4000000000001</ele><time>2026-05-02T08:44:41.141Z</time></trkpt><trkpt lat="42.2373386" lon="13.8628498"><ele>661.5999999999999</ele><time>2026-05-02T08:44:42.14Z</time></trkpt><trkpt lat="42.2373099" lon="13.8627288"><ele>664.8</ele><time>2026-05-02T08:44:43.14Z</time></trkpt><trkpt lat="42.2372882" lon="13.8626056"><ele>668.0</ele><time>2026-05-02T08:44:44.14Z</time></trkpt><trkpt lat="42.2372646" lon="13.8624685"><ele>672.2</ele><time>2026-05-02T08:44:45.139Z</time></trkpt><trkpt lat="42.2372381" lon="13.86232"><ele>676.4</ele><time>2026-05-02T08:44:46.139Z</time></trkpt><trkpt lat="42.2372107" lon="13.8621801"><ele>680.6</ele><time>2026-05-02T08:44:47.139Z</time></trkpt><trkpt lat="42.23719" lon="13.8620499"><ele>684.8000000000001</ele><time>2026-05-02T08:44:48.14Z</time></trkpt><trkpt lat="42.2371733" lon="13.8619109"><ele>689.0</ele><time>2026-05-02T08:44:49.14Z</time></trkpt><trkpt lat="42.2371496" lon="13.8617919"><ele>692.3333333333333</ele><time>2026-05-02T08:44:50.141Z</time></trkpt><trkpt lat="42.2371196" lon="13.8616706"><ele>695.6666666666666</ele><time>2026-05-02T08:44:51.139Z</time></trkpt><trkpt lat="42.2371138" lon="13.8615787"><ele>699.0</ele><time>2026-05-02T08:44:52.139Z</time></trkpt><trkpt lat="42.2371167" lon="13.8614774"><ele>702.3333333333334</ele><time>2026-05-02T08:44:53.14Z</time></trkpt><trkpt lat="42.2371204" lon="13.8613652"><ele>705.6666666666667</ele><time>2026-05-02T08:44:54.139Z</time></trkpt><trkpt lat="42.2371174" lon="13.8612393"><ele>709.0</ele><time>2026-05-02T08:44:55.14Z</time></trkpt><trkpt lat="42.2371118" lon="13.8611091"><ele>709.0</ele><time>2026-05-02T08:44:56.14Z</time></trkpt><trkpt lat="42.2371011" lon="13.8609759"><ele>709.0</ele><time>2026-05-02T08:44:57.139Z</time></trkpt><trkpt lat="42.2370879" lon="13.8608599"><ele>709.0</ele><time>2026-05-02T08:44:58.14Z</time></trkpt><trkpt lat="42.2370438" lon="13.8607373"><ele>709.0</ele><time>2026-05-02T08:44:59.14Z</time></trkpt><trkpt lat="42.2370147" lon="13.86063"><ele>709.0</ele><time>2026-05-02T08:45:00.14Z</time></trkpt><trkpt lat="42.2370118" lon="13.8604917"><ele>712.8000000000001</ele><time>2026-05-02T08:45:02.14Z</time></trkpt><trkpt lat="42.2370666" lon="13.860344"><ele>716.6</ele><time>2026-05-02T08:45:04.14Z</time></trkpt><trkpt lat="42.2370891" lon="13.8602269"><ele>720.4</ele><time>2026-05-02T08:45:05.139Z</time></trkpt><trkpt lat="42.2371153" lon="13.8601071"><ele>724.2</ele><time>2026-05-02T08:45:06.139Z</time></trkpt><trkpt lat="42.2371333" lon="13.8599787"><ele>728.0</ele><time>2026-05-02T08:45:07.139Z</time></trkpt><trkpt lat="42.237156" lon="13.859865"><ele>732.0</ele><time>2026-05-02T08:45:08.139Z</time></trkpt><trkpt lat="42.2371766" lon="13.8597255"><ele>736.0</ele><time>2026-05-02T08:45:09.139Z</time></trkpt><trkpt lat="42.2372" lon="13.8595675"><ele>740.0</ele><time>2026-05-02T08:45:10.139Z</time></trkpt><trkpt lat="42.2372224" lon="13.8594086"><ele>744.0</ele><time>2026-05-02T08:45:11.139Z</time></trkpt><trkpt lat="42.2372207" lon="13.8592168"><ele>746.4000000000001</ele><time>2026-05-02T08:45:12.139Z</time></trkpt><trkpt lat="42.2372263" lon="13.8590487"><ele>748.8</ele><time>2026-05-02T08:45:13.139Z</time></trkpt><trkpt lat="42.2372151" lon="13.8589206"><ele>751.2</ele><time>2026-05-02T08:45:14.14Z</time></trkpt><trkpt lat="42.237208" lon="13.858756"><ele>753.5999999999999</ele><time>2026-05-02T08:45:15.139Z</time></trkpt><trkpt lat="42.2371997" lon="13.8586272"><ele>756.0</ele><time>2026-05-02T08:45:16.141Z</time></trkpt><trkpt lat="42.2371985" lon="13.8585078"><ele>759.0</ele><time>2026-05-02T08:45:17.139Z</time></trkpt><trkpt lat="42.2372168" lon="13.8583796"><ele>762.0</ele><time>2026-05-02T08:45:18.14Z</time></trkpt><trkpt lat="42.2372402" lon="13.8582357"><ele>765.0</ele><time>2026-05-02T08:45:19.139Z</time></trkpt><trkpt lat="42.2372766" lon="13.8580574"><ele>768.0</ele><time>2026-05-02T08:45:20.139Z</time></trkpt><trkpt lat="42.2373139" lon="13.8578688"><ele>771.0</ele><time>2026-05-02T08:45:21.139Z</time></trkpt><trkpt lat="42.2373539" lon="13.8577185"><ele>774.0</ele><time>2026-05-02T08:45:22.141Z</time></trkpt><trkpt lat="42.2374028" lon="13.8575671"><ele>777.0</ele><time>2026-05-02T08:45:23.14Z</time></trkpt><trkpt lat="42.2374674" lon="13.8573956"><ele>780.0</ele><time>2026-05-02T08:45:24.14Z</time></trkpt><trkpt lat="42.2375283" lon="13.8572356"><ele>781.8</ele><time>2026-05-02T08:45:25.14Z</time></trkpt><trkpt lat="42.2375876" lon="13.8571094"><ele>783.6</ele><time>2026-05-02T08:45:26.141Z</time></trkpt><trkpt lat="42.237641" lon="13.8569881"><ele>785.4000000000001</ele><time>2026-05-02T08:45:27.139Z</time></trkpt><trkpt lat="42.237696" lon="13.8568756"><ele>787.2</ele><time>2026-05-02T08:45:28.141Z</time></trkpt><trkpt lat="42.2377436" lon="13.8567797"><ele>789.0</ele><time>2026-05-02T08:45:29.14Z</time></trkpt><trkpt lat="42.237794" lon="13.856654"><ele>789.3333333333334</ele><time>2026-05-02T08:45:30.14Z</time></trkpt><trkpt lat="42.2378442" lon="13.8565085"><ele>789.6666666666667</ele><time>2026-05-02T08:45:31.139Z</time></trkpt><trkpt lat="42.2378972" lon="13.8563981"><ele>790.0</ele><time>2026-05-02T08:45:32.141Z</time></trkpt><trkpt lat="42.2379408" lon="13.8563242"><ele>790.3333333333334</ele><time>2026-05-02T08:45:33.139Z</time></trkpt><trkpt lat="42.2380071" lon="13.856294"><ele>790.6666666666667</ele><time>2026-05-02T08:45:39.139Z</time></trkpt><trkpt lat="42.2379689" lon="13.8563756"><ele>791.0</ele><time>2026-05-02T08:45:43.139Z</time></trkpt><trkpt lat="42.2378999" lon="13.8563591"><ele>791.0000000000001</ele><time>2026-05-02T08:45:47.139Z</time></trkpt><trkpt lat="42.237891" lon="13.856232"><ele>791.0</ele><time>2026-05-02T08:45:52.139Z</time></trkpt><trkpt lat="42.2379147" lon="13.8561464"><ele>791.0</ele><time>2026-05-02T08:45:55.14Z</time></trkpt><trkpt lat="42.2379193" lon="13.8560465"><ele>791.0</ele><time>2026-05-02T08:46:06.139Z</time></trkpt><trkpt lat="42.2379387" lon="13.8559325"><ele>791.0000000000001</ele><time>2026-05-02T08:46:08.14Z</time></trkpt><trkpt lat="42.2379453" lon="13.8558372"><ele>791.0</ele><time>2026-05-02T08:46:10.139Z</time></trkpt><trkpt lat="42.2379258" lon="13.8557511"><ele>791.0</ele><time>2026-05-02T08:46:23.14Z</time></trkpt><trkpt lat="42.2379404" lon="13.8558551"><ele>791.0</ele><time>2026-05-02T08:46:48.139Z</time></trkpt><trkpt lat="42.2379354" lon="13.8560236"><ele>791.0</ele><time>2026-05-02T08:46:50.138Z</time></trkpt><trkpt lat="42.2379136" lon="13.8561217"><ele>791.0</ele><time>2026-05-02T08:46:51.139Z</time></trkpt><trkpt lat="42.2378907" lon="13.8562716"><ele>791.0</ele><time>2026-05-02T08:46:53.138Z</time></trkpt><trkpt lat="42.237884" lon="13.8563783"><ele>791.0</ele><time>2026-05-02T08:46:56.139Z</time></trkpt><trkpt lat="42.2378569" lon="13.8565146"><ele>791.0</ele><time>2026-05-02T08:46:59.139Z</time></trkpt><trkpt lat="42.2377963" lon="13.8566737"><ele>791.0</ele><time>2026-05-02T08:47:01.139Z</time></trkpt><trkpt lat="42.2377689" lon="13.8567639"><ele>791.0</ele><time>2026-05-02T08:47:02.139Z</time></trkpt><trkpt lat="42.2377396" lon="13.8568393"><ele>791.0</ele><time>2026-05-02T08:47:03.138Z</time></trkpt><trkpt lat="42.2376827" lon="13.8569778"><ele>791.0000000000001</ele><time>2026-05-02T08:47:05.138Z</time></trkpt><trkpt lat="42.2376169" lon="13.8570309"><ele>791.0</ele><time>2026-05-02T08:47:07.138Z</time></trkpt><trkpt lat="42.2375585" lon="13.8569506"><ele>791.0</ele><time>2026-05-02T08:47:09.138Z</time></trkpt><trkpt lat="42.2375311" lon="13.856855"><ele>791.0</ele><time>2026-05-02T08:47:10.14Z</time></trkpt><trkpt lat="42.237501" lon="13.8567278"><ele>791.0000000000001</ele><time>2026-05-02T08:47:11.138Z</time></trkpt><trkpt lat="42.2374759" lon="13.8565786"><ele>791.0</ele><time>2026-05-02T08:47:12.139Z</time></trkpt><trkpt lat="42.2374526" lon="13.856438"><ele>791.0</ele><time>2026-05-02T08:47:13.14Z</time></trkpt><trkpt lat="42.2374197" lon="13.8562997"><ele>791.0</ele><time>2026-05-02T08:47:14.138Z</time></trkpt><trkpt lat="42.2373861" lon="13.8561762"><ele>791.0</ele><time>2026-05-02T08:47:15.139Z</time></trkpt><trkpt lat="42.2373656" lon="13.856048"><ele>791.0</ele><time>2026-05-02T08:47:16.139Z</time></trkpt><trkpt lat="42.2373471" lon="13.8559047"><ele>791.0</ele><time>2026-05-02T08:47:17.139Z</time></trkpt><trkpt lat="42.2373198" lon="13.85577"><ele>786.25</ele><time>2026-05-02T08:47:18.14Z</time></trkpt><trkpt lat="42.2372716" lon="13.8556352"><ele>781.5</ele><time>2026-05-02T08:47:19.139Z</time></trkpt><trkpt lat="42.2372139" lon="13.8554986"><ele>776.75</ele><time>2026-05-02T08:47:20.138Z</time></trkpt><trkpt lat="42.2371441" lon="13.8553508"><ele>772.0</ele><time>2026-05-02T08:47:21.14Z</time></trkpt><trkpt lat="42.2370696" lon="13.8551931"><ele>773.75</ele><time>2026-05-02T08:47:22.139Z</time></trkpt><trkpt lat="42.2370079" lon="13.8550428"><ele>775.5</ele><time>2026-05-02T08:47:23.139Z</time></trkpt><trkpt lat="42.2369573" lon="13.854884"><ele>777.25</ele><time>2026-05-02T08:47:24.139Z</time></trkpt><trkpt lat="42.2369059" lon="13.854728"><ele>779.0</ele><time>2026-05-02T08:47:25.139Z</time></trkpt><trkpt lat="42.2368632" lon="13.8545973"><ele>779.0000000000001</ele><time>2026-05-02T08:47:26.139Z</time></trkpt><trkpt lat="42.2368283" lon="13.8544908"><ele>779.0</ele><time>2026-05-02T08:47:27.139Z</time></trkpt><trkpt lat="42.2367949" lon="13.8543993"><ele>779.0</ele><time>2026-05-02T08:47:28.139Z</time></trkpt><trkpt lat="42.2367724" lon="13.8543107"><ele>779.0</ele><time>2026-05-02T08:47:29.139Z</time></trkpt><trkpt lat="42.2367415" lon="13.8541949"><ele>779.0000000000001</ele><time>2026-05-02T08:47:30.138Z</time></trkpt><trkpt lat="42.2367066" lon="13.8540787"><ele>779.0</ele><time>2026-05-02T08:47:31.14Z</time></trkpt><trkpt lat="42.2366748" lon="13.8539704"><ele>778.0</ele><time>2026-05-02T08:47:32.139Z</time></trkpt><trkpt lat="42.2366356" lon="13.8537948"><ele>777.0</ele><time>2026-05-02T08:47:34.139Z</time></trkpt><trkpt lat="42.2365923" lon="13.8536568"><ele>776.0</ele><time>2026-05-02T08:47:36.14Z</time></trkpt><trkpt lat="42.2364833" lon="13.8536568"><ele>775.0</ele><time>2026-05-02T08:47:38.138Z</time></trkpt><trkpt lat="42.2363615" lon="13.8537049"><ele>775.0</ele><time>2026-05-02T08:47:40.139Z</time></trkpt><trkpt lat="42.2362935" lon="13.8537625"><ele>775.0</ele><time>2026-05-02T08:47:41.139Z</time></trkpt><trkpt lat="42.2361981" lon="13.8538937"><ele>775.0</ele><time>2026-05-02T08:47:42.139Z</time></trkpt><trkpt lat="42.2361301" lon="13.8539684"><ele>775.0</ele><time>2026-05-02T08:47:43.139Z</time></trkpt><trkpt lat="42.2360543" lon="13.8540403"><ele>775.0</ele><time>2026-05-02T08:47:44.138Z</time></trkpt><trkpt lat="42.2359744" lon="13.8540839"><ele>775.0</ele><time>2026-05-02T08:47:45.138Z</time></trkpt><trkpt lat="42.2358875" lon="13.8541194"><ele>775.0</ele><time>2026-05-02T08:47:46.138Z</time></trkpt><trkpt lat="42.2357983" lon="13.8541481"><ele>775.0</ele><time>2026-05-02T08:47:47.138Z</time></trkpt><trkpt lat="42.2357166" lon="13.8542058"><ele>775.0</ele><time>2026-05-02T08:47:48.138Z</time></trkpt><trkpt lat="42.2356222" lon="13.8542605"><ele>775.0</ele><time>2026-05-02T08:47:49.138Z</time></trkpt><trkpt lat="42.2355312" lon="13.8543557"><ele>771.0</ele><time>2026-05-02T08:47:50.14Z</time></trkpt><trkpt lat="42.2354439" lon="13.8544426"><ele>767.0</ele><time>2026-05-02T08:47:51.138Z</time></trkpt><trkpt lat="42.2353565" lon="13.8544969"><ele>763.0</ele><time>2026-05-02T08:47:52.138Z</time></trkpt><trkpt lat="42.2352717" lon="13.8545557"><ele>759.0</ele><time>2026-05-02T08:47:53.139Z</time></trkpt><trkpt lat="42.2351938" lon="13.854607"><ele>755.0</ele><time>2026-05-02T08:47:54.139Z</time></trkpt><trkpt lat="42.2351255" lon="13.8546481"><ele>755.0</ele><time>2026-05-02T08:47:55.139Z</time></trkpt><trkpt lat="42.2350177" lon="13.8547259"><ele>755.0</ele><time>2026-05-02T08:47:57.138Z</time></trkpt><trkpt lat="42.2349043" lon="13.8547697"><ele>755.0</ele><time>2026-05-02T08:47:59.14Z</time></trkpt><trkpt lat="42.2348076" lon="13.8548419"><ele>755.0</ele><time>2026-05-02T08:48:01.139Z</time></trkpt><trkpt lat="42.2347345" lon="13.8549402"><ele>754.0</ele><time>2026-05-02T08:48:03.138Z</time></trkpt><trkpt lat="42.2346679" lon="13.854975"><ele>753.0</ele><time>2026-05-02T08:48:04.138Z</time></trkpt><trkpt lat="42.2345896" lon="13.8550305"><ele>752.0</ele><time>2026-05-02T08:48:05.138Z</time></trkpt><trkpt lat="42.2345009" lon="13.8551113"><ele>751.0</ele><time>2026-05-02T08:48:06.139Z</time></trkpt><trkpt lat="42.2344085" lon="13.8551796"><ele>750.0</ele><time>2026-05-02T08:48:07.138Z</time></trkpt><trkpt lat="42.2343152" lon="13.8552565"><ele>746.6</ele><time>2026-05-02T08:48:08.138Z</time></trkpt><trkpt lat="42.2342383" lon="13.8553096"><ele>743.2</ele><time>2026-05-02T08:48:09.139Z</time></trkpt><trkpt lat="42.2341644" lon="13.8553734"><ele>739.8</ele><time>2026-05-02T08:48:10.138Z</time></trkpt><trkpt lat="42.23406" lon="13.855402"><ele>736.4</ele><time>2026-05-02T08:48:12.138Z</time></trkpt><trkpt lat="42.2339797" lon="13.855295"><ele>733.0</ele><time>2026-05-02T08:48:14.138Z</time></trkpt><trkpt lat="42.2339516" lon="13.8551969"><ele>735.1666666666667</ele><time>2026-05-02T08:48:15.138Z</time></trkpt><trkpt lat="42.2339173" lon="13.8551087"><ele>737.3333333333334</ele><time>2026-05-02T08:48:16.138Z</time></trkpt><trkpt lat="42.2338135" lon="13.8550426"><ele>739.5</ele><time>2026-05-02T08:48:18.139Z</time></trkpt><trkpt lat="42.233748" lon="13.8550309"><ele>741.6666666666666</ele><time>2026-05-02T08:48:19.139Z</time></trkpt><trkpt lat="42.2336541" lon="13.854963"><ele>743.8333333333333</ele><time>2026-05-02T08:48:21.138Z</time></trkpt><trkpt lat="42.2335827" lon="13.8549103"><ele>746.0</ele><time>2026-05-02T08:48:23.139Z</time></trkpt><trkpt lat="42.2334897" lon="13.854951"><ele>746.0</ele><time>2026-05-02T08:48:25.139Z</time></trkpt><trkpt lat="42.2334155" lon="13.8550227"><ele>746.0</ele><time>2026-05-02T08:48:26.139Z</time></trkpt><trkpt lat="42.2333419" lon="13.8550736"><ele>746.0</ele><time>2026-05-02T08:48:27.138Z</time></trkpt><trkpt lat="42.2332764" lon="13.8551015"><ele>746.0</ele><time>2026-05-02T08:48:28.138Z</time></trkpt><trkpt lat="42.233198" lon="13.855131"><ele>746.0</ele><time>2026-05-02T08:48:30.138Z</time></trkpt><trkpt lat="42.2331283" lon="13.8551214"><ele>746.0</ele><time>2026-05-02T08:48:32.138Z</time></trkpt><trkpt lat="42.2330315" lon="13.8550584"><ele>746.4</ele><time>2026-05-02T08:48:34.138Z</time></trkpt><trkpt lat="42.2329224" lon="13.854934"><ele>746.8</ele><time>2026-05-02T08:48:36.139Z</time></trkpt><trkpt lat="42.2328287" lon="13.854868"><ele>747.1999999999999</ele><time>2026-05-02T08:48:37.138Z</time></trkpt><trkpt lat="42.2327434" lon="13.8548095"><ele>747.5999999999999</ele><time>2026-05-02T08:48:38.139Z</time></trkpt><trkpt lat="42.2326779" lon="13.8547835"><ele>748.0</ele><time>2026-05-02T08:48:39.139Z</time></trkpt><trkpt lat="42.2325674" lon="13.8548259"><ele>748.0</ele><time>2026-05-02T08:48:41.14Z</time></trkpt><trkpt lat="42.2324882" lon="13.8548742"><ele>748.0</ele><time>2026-05-02T08:48:42.138Z</time></trkpt><trkpt lat="42.2324063" lon="13.8549198"><ele>748.0</ele><time>2026-05-02T08:48:43.139Z</time></trkpt><trkpt lat="42.2323439" lon="13.8549698"><ele>748.0</ele><time>2026-05-02T08:48:44.138Z</time></trkpt><trkpt lat="42.2322851" lon="13.8550231"><ele>748.0</ele><time>2026-05-02T08:48:45.138Z</time></trkpt><trkpt lat="42.2322226" lon="13.855108"><ele>748.0</ele><time>2026-05-02T08:48:46.138Z</time></trkpt><trkpt lat="42.2321489" lon="13.8551787"><ele>744.4</ele><time>2026-05-02T08:48:47.138Z</time></trkpt><trkpt lat="42.2320834" lon="13.8552633"><ele>740.8</ele><time>2026-05-02T08:48:48.138Z</time></trkpt><trkpt lat="42.2319978" lon="13.8553704"><ele>737.2</ele><time>2026-05-02T08:48:49.138Z</time></trkpt><trkpt lat="42.2319223" lon="13.8554634"><ele>733.6</ele><time>2026-05-02T08:48:50.138Z</time></trkpt><trkpt lat="42.2318488" lon="13.8555411"><ele>730.0</ele><time>2026-05-02T08:48:51.138Z</time></trkpt><trkpt lat="42.2317818" lon="13.8556116"><ele>730.0</ele><time>2026-05-02T08:48:52.139Z</time></trkpt><trkpt lat="42.231711" lon="13.8556725"><ele>730.0</ele><time>2026-05-02T08:48:53.14Z</time></trkpt><trkpt lat="42.2316471" lon="13.8557324"><ele>730.0</ele><time>2026-05-02T08:48:54.139Z</time></trkpt><trkpt lat="42.2315938" lon="13.8558016"><ele>730.0</ele><time>2026-05-02T08:48:55.139Z</time></trkpt><trkpt lat="42.2315359" lon="13.8558829"><ele>730.0</ele><time>2026-05-02T08:48:56.138Z</time></trkpt><trkpt lat="42.2314655" lon="13.8559955"><ele>730.0</ele><time>2026-05-02T08:48:57.14Z</time></trkpt><trkpt lat="42.231394" lon="13.8560901"><ele>727.6666666666667</ele><time>2026-05-02T08:48:58.139Z</time></trkpt><trkpt lat="42.231337" lon="13.8561973"><ele>725.3333333333334</ele><time>2026-05-02T08:48:59.138Z</time></trkpt><trkpt lat="42.2312873" lon="13.8562921"><ele>723.0</ele><time>2026-05-02T08:49:00.138Z</time></trkpt><trkpt lat="42.2312496" lon="13.8563827"><ele>720.6666666666666</ele><time>2026-05-02T08:49:01.139Z</time></trkpt><trkpt lat="42.2311992" lon="13.8564609"><ele>718.3333333333333</ele><time>2026-05-02T08:49:02.138Z</time></trkpt><trkpt lat="42.2311463" lon="13.8565276"><ele>716.0</ele><time>2026-05-02T08:49:03.138Z</time></trkpt><trkpt lat="42.2310759" lon="13.8565998"><ele>716.0</ele><time>2026-05-02T08:49:04.139Z</time></trkpt><trkpt lat="42.2309851" lon="13.8566759"><ele>716.0</ele><time>2026-05-02T08:49:05.138Z</time></trkpt><trkpt lat="42.2308773" lon="13.8567451"><ele>716.0</ele><time>2026-05-02T08:49:06.138Z</time></trkpt><trkpt lat="42.2307774" lon="13.8568019"><ele>716.0</ele><time>2026-05-02T08:49:07.138Z</time></trkpt><trkpt lat="42.2306948" lon="13.8568546"><ele>716.0</ele><time>2026-05-02T08:49:08.139Z</time></trkpt><trkpt lat="42.2306295" lon="13.8569716"><ele>713.5</ele><time>2026-05-02T08:49:10.139Z</time></trkpt><trkpt lat="42.2306252" lon="13.8571294"><ele>711.0</ele><time>2026-05-02T08:49:12.138Z</time></trkpt><trkpt lat="42.2306231" lon="13.8572322"><ele>708.5</ele><time>2026-05-02T08:49:13.138Z</time></trkpt><trkpt lat="42.2306292" lon="13.8573492"><ele>706.0</ele><time>2026-05-02T08:49:14.14Z</time></trkpt><trkpt lat="42.2306372" lon="13.8574629"><ele>703.5</ele><time>2026-05-02T08:49:15.139Z</time></trkpt><trkpt lat="42.2306494" lon="13.8575762"><ele>701.0</ele><time>2026-05-02T08:49:16.138Z</time></trkpt><trkpt lat="42.2306758" lon="13.857678"><ele>698.5714285714286</ele><time>2026-05-02T08:49:17.138Z</time></trkpt><trkpt lat="42.2306892" lon="13.8577713"><ele>696.1428571428571</ele><time>2026-05-02T08:49:18.138Z</time></trkpt><trkpt lat="42.2306998" lon="13.8578637"><ele>693.7142857142857</ele><time>2026-05-02T08:49:19.138Z</time></trkpt><trkpt lat="42.2306948" lon="13.8579535"><ele>691.2857142857142</ele><time>2026-05-02T08:49:20.138Z</time></trkpt><trkpt lat="42.230697" lon="13.8580487"><ele>688.8571428571429</ele><time>2026-05-02T08:49:21.138Z</time></trkpt><trkpt lat="42.2307103" lon="13.8581482"><ele>686.4285714285713</ele><time>2026-05-02T08:49:22.139Z</time></trkpt><trkpt lat="42.2307118" lon="13.8582424"><ele>684.0</ele><time>2026-05-02T08:49:23.139Z</time></trkpt><trkpt lat="42.2307192" lon="13.8583274"><ele>679.0</ele><time>2026-05-02T08:49:24.139Z</time></trkpt><trkpt lat="42.2307315" lon="13.8584874"><ele>674.0</ele><time>2026-05-02T08:49:26.139Z</time></trkpt><trkpt lat="42.230745" lon="13.8586631"><ele>669.0</ele><time>2026-05-02T08:49:28.138Z</time></trkpt><trkpt lat="42.2307514" lon="13.8588323"><ele>664.0</ele><time>2026-05-02T08:49:30.139Z</time></trkpt><trkpt lat="42.2307533" lon="13.8589938"><ele>664.0</ele><time>2026-05-02T08:49:32.139Z</time></trkpt><trkpt lat="42.2307556" lon="13.8591448"><ele>664.0</ele><time>2026-05-02T08:49:34.139Z</time></trkpt><trkpt lat="42.2307604" lon="13.8593144"><ele>664.0</ele><time>2026-05-02T08:49:36.138Z</time></trkpt><trkpt lat="42.2307655" lon="13.8594711"><ele>664.0</ele><time>2026-05-02T08:49:38.138Z</time></trkpt><trkpt lat="42.230769" lon="13.8595726"><ele>664.0</ele><time>2026-05-02T08:49:40.138Z</time></trkpt><trkpt lat="42.2306782" lon="13.8595494"><ele>663.6</ele><time>2026-05-02T08:49:49.138Z</time></trkpt><trkpt lat="42.2305506" lon="13.8594928"><ele>663.2</ele><time>2026-05-02T08:49:51.138Z</time></trkpt><trkpt lat="42.2304564" lon="13.8594122"><ele>662.8000000000001</ele><time>2026-05-02T08:49:53.138Z</time></trkpt><trkpt lat="42.2304019" lon="13.8593528"><ele>662.4000000000001</ele><time>2026-05-02T08:49:54.138Z</time></trkpt><trkpt lat="42.2303433" lon="13.8593012"><ele>662.0</ele><time>2026-05-02T08:49:55.139Z</time></trkpt><trkpt lat="42.2302695" lon="13.8592425"><ele>662.0</ele><time>2026-05-02T08:49:56.138Z</time></trkpt><trkpt lat="42.2302065" lon="13.8591862"><ele>662.0</ele><time>2026-05-02T08:49:57.138Z</time></trkpt><trkpt lat="42.2301474" lon="13.8591454"><ele>662.0</ele><time>2026-05-02T08:49:58.138Z</time></trkpt><trkpt lat="42.2300918" lon="13.8591008"><ele>662.0</ele><time>2026-05-02T08:49:59.138Z</time></trkpt><trkpt lat="42.229965" lon="13.8590191"><ele>662.0</ele><time>2026-05-02T08:50:01.138Z</time></trkpt><trkpt lat="42.2299087" lon="13.8589676"><ele>662.0</ele><time>2026-05-02T08:50:02.138Z</time></trkpt><trkpt lat="42.2297994" lon="13.8589447"><ele>663.8333333333333</ele><time>2026-05-02T08:50:04.138Z</time></trkpt><trkpt lat="42.2297198" lon="13.8589412"><ele>665.6666666666666</ele><time>2026-05-02T08:50:05.138Z</time></trkpt><trkpt lat="42.2296284" lon="13.8589035"><ele>667.5</ele><time>2026-05-02T08:50:06.138Z</time></trkpt><trkpt lat="42.2295282" lon="13.8588795"><ele>669.3333333333334</ele><time>2026-05-02T08:50:07.138Z</time></trkpt><trkpt lat="42.2294312" lon="13.8588351"><ele>671.1666666666667</ele><time>2026-05-02T08:50:08.138Z</time></trkpt><trkpt lat="42.2293723" lon="13.8587952"><ele>673.0</ele><time>2026-05-02T08:50:09.139Z</time></trkpt><trkpt lat="42.2293242" lon="13.8587307"><ele>673.0</ele><time>2026-05-02T08:50:10.139Z</time></trkpt><trkpt lat="42.2292674" lon="13.8586539"><ele>673.0</ele><time>2026-05-02T08:50:11.138Z</time></trkpt><trkpt lat="42.2292232" lon="13.8585706"><ele>673.0</ele><time>2026-05-02T08:50:12.138Z</time></trkpt><trkpt lat="42.2291838" lon="13.8584738"><ele>673.0</ele><time>2026-05-02T08:50:13.138Z</time></trkpt><trkpt lat="42.2291246" lon="13.8583623"><ele>673.0</ele><time>2026-05-02T08:50:14.14Z</time></trkpt><trkpt lat="42.2290598" lon="13.8582369"><ele>676.75</ele><time>2026-05-02T08:50:15.138Z</time></trkpt><trkpt lat="42.2289831" lon="13.8581041"><ele>680.5</ele><time>2026-05-02T08:50:16.139Z</time></trkpt><trkpt lat="42.2289191" lon="13.8580048"><ele>684.25</ele><time>2026-05-02T08:50:17.138Z</time></trkpt><trkpt lat="42.2288393" lon="13.8579045"><ele>688.0</ele><time>2026-05-02T08:50:18.138Z</time></trkpt><trkpt lat="42.2287254" lon="13.8578219"><ele>689.2</ele><time>2026-05-02T08:50:19.138Z</time></trkpt><trkpt lat="42.2286215" lon="13.8577386"><ele>690.4</ele><time>2026-05-02T08:50:20.139Z</time></trkpt><trkpt lat="42.2285462" lon="13.8576961"><ele>691.6</ele><time>2026-05-02T08:50:21.139Z</time></trkpt><trkpt lat="42.228461" lon="13.8576763"><ele>692.8000000000001</ele><time>2026-05-02T08:50:22.138Z</time></trkpt><trkpt lat="42.2283836" lon="13.8577086"><ele>694.0</ele><time>2026-05-02T08:50:23.138Z</time></trkpt><trkpt lat="42.2283017" lon="13.857748"><ele>694.0</ele><time>2026-05-02T08:50:24.139Z</time></trkpt><trkpt lat="42.2282383" lon="13.8577401"><ele>694.0</ele><time>2026-05-02T08:50:25.138Z</time></trkpt><trkpt lat="42.2281635" lon="13.8576981"><ele>694.0</ele><time>2026-05-02T08:50:26.139Z</time></trkpt><trkpt lat="42.2280712" lon="13.8576334"><ele>694.0</ele><time>2026-05-02T08:50:27.138Z</time></trkpt><trkpt lat="42.2279765" lon="13.8575631"><ele>694.0</ele><time>2026-05-02T08:50:28.139Z</time></trkpt><trkpt lat="42.2279134" lon="13.8574934"><ele>694.0</ele><time>2026-05-02T08:50:29.139Z</time></trkpt><trkpt lat="42.2278498" lon="13.857407"><ele>700.6</ele><time>2026-05-02T08:50:30.139Z</time></trkpt><trkpt lat="42.227784" lon="13.8573065"><ele>707.2</ele><time>2026-05-02T08:50:31.139Z</time></trkpt><trkpt lat="42.2277076" lon="13.857191"><ele>713.8000000000001</ele><time>2026-05-02T08:50:32.138Z</time></trkpt><trkpt lat="42.2276404" lon="13.8570578"><ele>720.4000000000001</ele><time>2026-05-02T08:50:33.138Z</time></trkpt><trkpt lat="42.2276013" lon="13.8569293"><ele>727.0</ele><time>2026-05-02T08:50:34.138Z</time></trkpt><trkpt lat="42.2275591" lon="13.8568366"><ele>727.8333333333334</ele><time>2026-05-02T08:50:35.139Z</time></trkpt><trkpt lat="42.2275052" lon="13.8567767"><ele>728.6666666666667</ele><time>2026-05-02T08:50:36.138Z</time></trkpt><trkpt lat="42.2274265" lon="13.8567294"><ele>729.5</ele><time>2026-05-02T08:50:37.139Z</time></trkpt><trkpt lat="42.2273332" lon="13.8567121"><ele>730.3333333333334</ele><time>2026-05-02T08:50:38.138Z</time></trkpt><trkpt lat="42.2272265" lon="13.8567122"><ele>731.1666666666666</ele><time>2026-05-02T08:50:39.138Z</time></trkpt><trkpt lat="42.2271366" lon="13.8567136"><ele>732.0</ele><time>2026-05-02T08:50:40.14Z</time></trkpt><trkpt lat="42.2270562" lon="13.8566899"><ele>736.2</ele><time>2026-05-02T08:50:41.139Z</time></trkpt><trkpt lat="42.2269741" lon="13.856643"><ele>740.4000000000001</ele><time>2026-05-02T08:50:42.138Z</time></trkpt><trkpt lat="42.2268923" lon="13.8565741"><ele>744.5999999999999</ele><time>2026-05-02T08:50:43.139Z</time></trkpt><trkpt lat="42.226792" lon="13.8564922"><ele>748.8</ele><time>2026-05-02T08:50:44.138Z</time></trkpt><trkpt lat="42.2267015" lon="13.8564184"><ele>753.0</ele><time>2026-05-02T08:50:45.139Z</time></trkpt><trkpt lat="42.2266486" lon="13.8563415"><ele>753.0</ele><time>2026-05-02T08:50:46.138Z</time></trkpt><trkpt lat="42.2266024" lon="13.8562531"><ele>753.0</ele><time>2026-05-02T08:50:47.139Z</time></trkpt><trkpt lat="42.2265537" lon="13.8561399"><ele>753.0</ele><time>2026-05-02T08:50:48.139Z</time></trkpt><trkpt lat="42.2264891" lon="13.8560204"><ele>753.0</ele><time>2026-05-02T08:50:49.14Z</time></trkpt><trkpt lat="42.2264109" lon="13.8559043"><ele>753.0</ele><time>2026-05-02T08:50:50.139Z</time></trkpt><trkpt lat="42.2263317" lon="13.855791"><ele>757.0</ele><time>2026-05-02T08:50:51.139Z</time></trkpt><trkpt lat="42.226247" lon="13.8556631"><ele>761.0</ele><time>2026-05-02T08:50:52.138Z</time></trkpt><trkpt lat="42.2261557" lon="13.8555428"><ele>765.0</ele><time>2026-05-02T08:50:53.138Z</time></trkpt><trkpt lat="42.2260559" lon="13.8554411"><ele>769.0</ele><time>2026-05-02T08:50:54.139Z</time></trkpt><trkpt lat="42.2259594" lon="13.8553616"><ele>769.0</ele><time>2026-05-02T08:50:55.14Z</time></trkpt><trkpt lat="42.2258527" lon="13.8553109"><ele>769.0</ele><time>2026-05-02T08:50:56.138Z</time></trkpt><trkpt lat="42.2257548" lon="13.8552846"><ele>769.0</ele><time>2026-05-02T08:50:57.14Z</time></trkpt><trkpt lat="42.2256738" lon="13.8552645"><ele>769.0</ele><time>2026-05-02T08:50:58.139Z</time></trkpt><trkpt lat="42.2256046" lon="13.8552457"><ele>769.0</ele><time>2026-05-02T08:50:59.139Z</time></trkpt><trkpt lat="42.2255105" lon="13.8552269"><ele>771.8000000000001</ele><time>2026-05-02T08:51:01.138Z</time></trkpt><trkpt lat="42.2254438" lon="13.8551748"><ele>774.6</ele><time>2026-05-02T08:52:18.139Z</time></trkpt><trkpt lat="42.2254052" lon="13.8550547"><ele>777.4</ele><time>2026-05-02T08:52:21.138Z</time></trkpt><trkpt lat="42.2253631" lon="13.854936"><ele>780.2</ele><time>2026-05-02T08:52:23.138Z</time></trkpt><trkpt lat="42.2253166" lon="13.8547824"><ele>783.0</ele><time>2026-05-02T08:52:25.138Z</time></trkpt><trkpt lat="42.2252702" lon="13.8546448"><ele>783.0</ele><time>2026-05-02T08:52:27.138Z</time></trkpt><trkpt lat="42.2252385" lon="13.8545653"><ele>783.0</ele><time>2026-05-02T08:52:29.138Z</time></trkpt><trkpt lat="42.2251988" lon="13.8544772"><ele>783.0</ele><time>2026-05-02T08:52:54.139Z</time></trkpt><trkpt lat="42.2251702" lon="13.8543997"><ele>783.0</ele><time>2026-05-02T08:52:57.139Z</time></trkpt><trkpt lat="42.2251277" lon="13.8543084"><ele>783.0</ele><time>2026-05-02T08:52:59.139Z</time></trkpt><trkpt lat="42.2250793" lon="13.8541643"><ele>783.0</ele><time>2026-05-02T08:53:01.139Z</time></trkpt><trkpt lat="42.2250498" lon="13.8540676"><ele>784.2</ele><time>2026-05-02T08:53:02.138Z</time></trkpt><trkpt lat="42.2250188" lon="13.8539779"><ele>785.4</ele><time>2026-05-02T08:53:03.139Z</time></trkpt><trkpt lat="42.2250017" lon="13.8538496"><ele>786.6</ele><time>2026-05-02T08:53:05.139Z</time></trkpt><trkpt lat="42.2249963" lon="13.8536661"><ele>787.8000000000001</ele><time>2026-05-02T08:53:07.139Z</time></trkpt><trkpt lat="42.2249918" lon="13.8535656"><ele>789.0</ele><time>2026-05-02T08:53:08.139Z</time></trkpt><trkpt lat="42.2250024" lon="13.8533801"><ele>789.2</ele><time>2026-05-02T08:53:10.138Z</time></trkpt><trkpt lat="42.225034" lon="13.8532926"><ele>789.4000000000001</ele><time>2026-05-02T08:53:11.138Z</time></trkpt><trkpt lat="42.2250704" lon="13.8531761"><ele>789.6</ele><time>2026-05-02T08:53:12.14Z</time></trkpt><trkpt lat="42.2251158" lon="13.8530536"><ele>789.8</ele><time>2026-05-02T08:53:13.138Z</time></trkpt><trkpt lat="42.2251649" lon="13.8529432"><ele>790.0</ele><time>2026-05-02T08:53:14.138Z</time></trkpt><trkpt lat="42.2252125" lon="13.8528396"><ele>790.0</ele><time>2026-05-02T08:53:15.139Z</time></trkpt><trkpt lat="42.2252801" lon="13.8527221"><ele>790.0</ele><time>2026-05-02T08:53:16.138Z</time></trkpt><trkpt lat="42.225358" lon="13.8526116"><ele>790.0</ele><time>2026-05-02T08:53:17.138Z</time></trkpt><trkpt lat="42.2254225" lon="13.8525173"><ele>790.0</ele><time>2026-05-02T08:53:18.138Z</time></trkpt><trkpt lat="42.2254822" lon="13.8524132"><ele>790.0</ele><time>2026-05-02T08:53:19.138Z</time></trkpt><trkpt lat="42.225532" lon="13.8522925"><ele>790.4</ele><time>2026-05-02T08:53:20.139Z</time></trkpt><trkpt lat="42.225564" lon="13.8521799"><ele>790.8</ele><time>2026-05-02T08:53:21.139Z</time></trkpt><trkpt lat="42.2255862" lon="13.8520611"><ele>791.2</ele><time>2026-05-02T08:53:22.138Z</time></trkpt><trkpt lat="42.2256" lon="13.8519311"><ele>791.6</ele><time>2026-05-02T08:53:23.139Z</time></trkpt><trkpt lat="42.2256158" lon="13.8517848"><ele>792.0</ele><time>2026-05-02T08:53:24.139Z</time></trkpt><trkpt lat="42.2256313" lon="13.851617"><ele>794.6</ele><time>2026-05-02T08:53:25.139Z</time></trkpt><trkpt lat="42.2256431" lon="13.8514713"><ele>797.2</ele><time>2026-05-02T08:53:26.138Z</time></trkpt><trkpt lat="42.2256548" lon="13.8513381"><ele>799.8</ele><time>2026-05-02T08:53:27.139Z</time></trkpt><trkpt lat="42.2256607" lon="13.8512137"><ele>802.4</ele><time>2026-05-02T08:53:28.139Z</time></trkpt><trkpt lat="42.225665" lon="13.8511076"><ele>805.0</ele><time>2026-05-02T08:53:29.138Z</time></trkpt><trkpt lat="42.225663" lon="13.8510092"><ele>807.6666666666666</ele><time>2026-05-02T08:53:30.139Z</time></trkpt><trkpt lat="42.2256579" lon="13.8509064"><ele>810.3333333333333</ele><time>2026-05-02T08:53:31.138Z</time></trkpt><trkpt lat="42.2256435" lon="13.8508034"><ele>813.0</ele><time>2026-05-02T08:53:32.138Z</time></trkpt><trkpt lat="42.2256357" lon="13.8506982"><ele>815.6666666666667</ele><time>2026-05-02T08:53:33.138Z</time></trkpt><trkpt lat="42.2256292" lon="13.8505955"><ele>818.3333333333334</ele><time>2026-05-02T08:53:34.138Z</time></trkpt><trkpt lat="42.2256217" lon="13.8504812"><ele>821.0</ele><time>2026-05-02T08:53:35.138Z</time></trkpt><trkpt lat="42.2256178" lon="13.8503656"><ele>821.0000000000001</ele><time>2026-05-02T08:53:36.138Z</time></trkpt><trkpt lat="42.225606" lon="13.8502768"><ele>821.0</ele><time>2026-05-02T08:53:37.138Z</time></trkpt><trkpt lat="42.2255985" lon="13.8501773"><ele>821.0</ele><time>2026-05-02T08:53:38.138Z</time></trkpt><trkpt lat="42.2255896" lon="13.8500639"><ele>821.0</ele><time>2026-05-02T08:53:39.138Z</time></trkpt><trkpt lat="42.2255741" lon="13.8499351"><ele>821.0000000000001</ele><time>2026-05-02T08:53:40.138Z</time></trkpt><trkpt lat="42.2255531" lon="13.8497965"><ele>821.0</ele><time>2026-05-02T08:53:41.139Z</time></trkpt><trkpt lat="42.2255232" lon="13.8496493"><ele>824.4</ele><time>2026-05-02T08:53:42.138Z</time></trkpt><trkpt lat="42.2255126" lon="13.8495411"><ele>827.8</ele><time>2026-05-02T08:53:43.138Z</time></trkpt><trkpt lat="42.2255282" lon="13.8494555"><ele>831.1999999999999</ele><time>2026-05-02T08:53:44.138Z</time></trkpt><trkpt lat="42.2255726" lon="13.8493816"><ele>834.5999999999999</ele><time>2026-05-02T08:53:45.139Z</time></trkpt><trkpt lat="42.2257384" lon="13.849302"><ele>838.0</ele><time>2026-05-02T08:53:47.139Z</time></trkpt><trkpt lat="42.2258389" lon="13.8492666"><ele>847.25</ele><time>2026-05-02T08:53:48.139Z</time></trkpt><trkpt lat="42.2259674" lon="13.8491952"><ele>856.5</ele><time>2026-05-02T08:53:49.139Z</time></trkpt><trkpt lat="42.22609" lon="13.8491511"><ele>865.75</ele><time>2026-05-02T08:53:50.139Z</time></trkpt><trkpt lat="42.2262178" lon="13.8490979"><ele>875.0</ele><time>2026-05-02T08:53:51.139Z</time></trkpt><trkpt lat="42.2263901" lon="13.8490857"><ele>873.75</ele><time>2026-05-02T08:53:52.138Z</time></trkpt><trkpt lat="42.2265135" lon="13.8490557"><ele>872.5</ele><time>2026-05-02T08:53:53.138Z</time></trkpt><trkpt lat="42.2266498" lon="13.8490178"><ele>871.25</ele><time>2026-05-02T08:53:54.138Z</time></trkpt><trkpt lat="42.2267792" lon="13.8489915"><ele>870.0</ele><time>2026-05-02T08:53:55.138Z</time></trkpt><trkpt lat="42.2269092" lon="13.8489811"><ele>870.0</ele><time>2026-05-02T08:53:56.138Z</time></trkpt><trkpt lat="42.2270408" lon="13.8489679"><ele>870.0</ele><time>2026-05-02T08:53:57.138Z</time></trkpt><trkpt lat="42.227159" lon="13.8489477"><ele>870.0</ele><time>2026-05-02T08:53:58.138Z</time></trkpt><trkpt lat="42.2272696" lon="13.848914"><ele>870.0</ele><time>2026-05-02T08:53:59.138Z</time></trkpt><trkpt lat="42.2273823" lon="13.8488808"><ele>868.2</ele><time>2026-05-02T08:54:00.138Z</time></trkpt><trkpt lat="42.2274706" lon="13.8488432"><ele>866.4</ele><time>2026-05-02T08:54:01.139Z</time></trkpt><trkpt lat="42.2275674" lon="13.8488542"><ele>864.5999999999999</ele><time>2026-05-02T08:54:02.138Z</time></trkpt><trkpt lat="42.2276786" lon="13.8488391"><ele>862.8</ele><time>2026-05-02T08:54:03.138Z</time></trkpt><trkpt lat="42.2278042" lon="13.8488696"><ele>861.0</ele><time>2026-05-02T08:54:04.138Z</time></trkpt><trkpt lat="42.2279342" lon="13.8489057"><ele>861.0</ele><time>2026-05-02T08:54:05.139Z</time></trkpt><trkpt lat="42.2280458" lon="13.848949"><ele>860.9999999999999</ele><time>2026-05-02T08:54:06.139Z</time></trkpt><trkpt lat="42.2281522" lon="13.8489649"><ele>860.9999999999999</ele><time>2026-05-02T08:54:07.139Z</time></trkpt><trkpt lat="42.2282684" lon="13.8489567"><ele>861.0</ele><time>2026-05-02T08:54:08.138Z</time></trkpt><trkpt lat="42.2283691" lon="13.8489805"><ele>861.0</ele><time>2026-05-02T08:54:09.139Z</time></trkpt><trkpt lat="42.2284581" lon="13.8489949"><ele>863.0</ele><time>2026-05-02T08:54:10.138Z</time></trkpt><trkpt lat="42.228526" lon="13.8489661"><ele>864.9999999999999</ele><time>2026-05-02T08:54:11.139Z</time></trkpt><trkpt lat="42.2286319" lon="13.8489302"><ele>866.9999999999999</ele><time>2026-05-02T08:54:12.139Z</time></trkpt><trkpt lat="42.2287286" lon="13.8488972"><ele>869.0</ele><time>2026-05-02T08:54:13.138Z</time></trkpt><trkpt lat="42.2288277" lon="13.8488913"><ele>871.0</ele><time>2026-05-02T08:54:14.139Z</time></trkpt><trkpt lat="42.2289292" lon="13.8489068"><ele>873.75</ele><time>2026-05-02T08:54:15.14Z</time></trkpt><trkpt lat="42.2290368" lon="13.8490241"><ele>876.5</ele><time>2026-05-02T08:54:16.139Z</time></trkpt><trkpt lat="42.2291415" lon="13.8490819"><ele>879.25</ele><time>2026-05-02T08:54:17.139Z</time></trkpt><trkpt lat="42.2292516" lon="13.8491547"><ele>882.0</ele><time>2026-05-02T08:54:18.139Z</time></trkpt><trkpt lat="42.2293385" lon="13.8492315"><ele>882.0</ele><time>2026-05-02T08:54:19.139Z</time></trkpt><trkpt lat="42.2294191" lon="13.8492867"><ele>882.0</ele><time>2026-05-02T08:54:20.14Z</time></trkpt><trkpt lat="42.2294897" lon="13.8493068"><ele>882.0</ele><time>2026-05-02T08:54:21.139Z</time></trkpt><trkpt lat="42.2296217" lon="13.8492812"><ele>882.0</ele><time>2026-05-02T08:54:23.14Z</time></trkpt><trkpt lat="42.2297117" lon="13.8492369"><ele>882.0</ele><time>2026-05-02T08:54:24.139Z</time></trkpt><trkpt lat="42.2297968" lon="13.8491859"><ele>883.0</ele><time>2026-05-02T08:54:25.139Z</time></trkpt><trkpt lat="42.229912" lon="13.8491025"><ele>884.0</ele><time>2026-05-02T08:54:26.138Z</time></trkpt><trkpt lat="42.230003" lon="13.8490638"><ele>885.0</ele><time>2026-05-02T08:54:27.138Z</time></trkpt><trkpt lat="42.2301141" lon="13.8490055"><ele>886.0</ele><time>2026-05-02T08:54:28.138Z</time></trkpt><trkpt lat="42.2302226" lon="13.8489491"><ele>886.0</ele><time>2026-05-02T08:54:29.139Z</time></trkpt><trkpt lat="42.2303395" lon="13.8488825"><ele>886.0</ele><time>2026-05-02T08:54:30.139Z</time></trkpt><trkpt lat="42.2304651" lon="13.848824"><ele>886.0</ele><time>2026-05-02T08:54:31.139Z</time></trkpt><trkpt lat="42.2306229" lon="13.8487557"><ele>886.0</ele><time>2026-05-02T08:54:32.139Z</time></trkpt><trkpt lat="42.2307635" lon="13.8486894"><ele>886.0</ele><time>2026-05-02T08:54:33.139Z</time></trkpt><trkpt lat="42.2309006" lon="13.8486279"><ele>886.0</ele><time>2026-05-02T08:54:34.139Z</time></trkpt><trkpt lat="42.2310367" lon="13.8485775"><ele>886.0</ele><time>2026-05-02T08:54:35.139Z</time></trkpt><trkpt lat="42.2311451" lon="13.84853"><ele>886.0</ele><time>2026-05-02T08:54:36.138Z</time></trkpt><trkpt lat="42.2312521" lon="13.8485111"><ele>886.0</ele><time>2026-05-02T08:54:37.138Z</time></trkpt><trkpt lat="42.2313241" lon="13.848474"><ele>885.9999999999999</ele><time>2026-05-02T08:54:38.138Z</time></trkpt><trkpt lat="42.2314182" lon="13.8484083"><ele>885.9999999999999</ele><time>2026-05-02T08:54:39.138Z</time></trkpt><trkpt lat="42.2314843" lon="13.8484069"><ele>886.0</ele><time>2026-05-02T08:54:40.138Z</time></trkpt><trkpt lat="42.2315932" lon="13.8484002"><ele>886.0</ele><time>2026-05-02T08:54:41.138Z</time></trkpt><trkpt lat="42.2316948" lon="13.8483908"><ele>889.3333333333333</ele><time>2026-05-02T08:54:42.138Z</time></trkpt><trkpt lat="42.2317924" lon="13.848379"><ele>892.6666666666666</ele><time>2026-05-02T08:54:43.138Z</time></trkpt><trkpt lat="42.2318707" lon="13.8483353"><ele>896.0</ele><time>2026-05-02T08:54:44.138Z</time></trkpt><trkpt lat="42.2319446" lon="13.8483231"><ele>899.3333333333333</ele><time>2026-05-02T08:54:45.138Z</time></trkpt><trkpt lat="42.2320115" lon="13.8483131"><ele>902.6666666666666</ele><time>2026-05-02T08:54:46.138Z</time></trkpt><trkpt lat="42.2320907" lon="13.8482815"><ele>906.0</ele><time>2026-05-02T08:54:47.138Z</time></trkpt><trkpt lat="42.2321489" lon="13.8481379"><ele>906.0</ele><time>2026-05-02T08:54:48.139Z</time></trkpt><trkpt lat="42.2322092" lon="13.848087"><ele>906.0</ele><time>2026-05-02T08:54:49.138Z</time></trkpt><trkpt lat="42.2322594" lon="13.8480316"><ele>906.0</ele><time>2026-05-02T08:54:50.139Z</time></trkpt><trkpt lat="42.2323788" lon="13.8480042"><ele>906.0</ele><time>2026-05-02T08:54:52.139Z</time></trkpt><trkpt lat="42.2324782" lon="13.8479935"><ele>906.0</ele><time>2026-05-02T08:54:53.138Z</time></trkpt><trkpt lat="42.2325589" lon="13.8479824"><ele>906.0</ele><time>2026-05-02T08:54:55.139Z</time></trkpt><trkpt lat="42.232504" lon="13.8478872"><ele>906.0</ele><time>2026-05-02T08:54:58.138Z</time></trkpt><trkpt lat="42.2324297" lon="13.8478401"><ele>906.0</ele><time>2026-05-02T08:54:59.138Z</time></trkpt><trkpt lat="42.2323313" lon="13.8477708"><ele>906.0</ele><time>2026-05-02T08:55:00.14Z</time></trkpt><trkpt lat="42.2322248" lon="13.8476877"><ele>906.0</ele><time>2026-05-02T08:55:01.139Z</time></trkpt><trkpt lat="42.2320828" lon="13.8475767"><ele>912.25</ele><time>2026-05-02T08:55:02.138Z</time></trkpt><trkpt lat="42.2319565" lon="13.8474687"><ele>918.5</ele><time>2026-05-02T08:55:03.139Z</time></trkpt><trkpt lat="42.2318525" lon="13.8473877"><ele>924.75</ele><time>2026-05-02T08:55:04.139Z</time></trkpt><trkpt lat="42.2317565" lon="13.8473319"><ele>931.0</ele><time>2026-05-02T08:55:05.14Z</time></trkpt><trkpt lat="42.2316586" lon="13.8472777"><ele>931.0</ele><time>2026-05-02T08:55:06.138Z</time></trkpt><trkpt lat="42.2315707" lon="13.8472768"><ele>930.9999999999999</ele><time>2026-05-02T08:55:07.14Z</time></trkpt><trkpt lat="42.2314799" lon="13.8472533"><ele>930.9999999999999</ele><time>2026-05-02T08:55:08.14Z</time></trkpt><trkpt lat="42.2313853" lon="13.8472175"><ele>931.0</ele><time>2026-05-02T08:55:09.138Z</time></trkpt><trkpt lat="42.2312826" lon="13.8471251"><ele>931.0</ele><time>2026-05-02T08:55:10.14Z</time></trkpt><trkpt lat="42.2311766" lon="13.8470404"><ele>931.0</ele><time>2026-05-02T08:55:11.138Z</time></trkpt><trkpt lat="42.2310903" lon="13.8469532"><ele>930.9999999999999</ele><time>2026-05-02T08:55:12.138Z</time></trkpt><trkpt lat="42.230998" lon="13.8469341"><ele>930.9999999999999</ele><time>2026-05-02T08:55:13.138Z</time></trkpt><trkpt lat="42.2309114" lon="13.8469146"><ele>931.0</ele><time>2026-05-02T08:55:14.138Z</time></trkpt><trkpt lat="42.2308085" lon="13.8469649"><ele>931.0</ele><time>2026-05-02T08:55:15.138Z</time></trkpt><trkpt lat="42.2306728" lon="13.8470005"><ele>932.0</ele><time>2026-05-02T08:55:16.138Z</time></trkpt><trkpt lat="42.2305231" lon="13.8470485"><ele>933.0</ele><time>2026-05-02T08:55:17.138Z</time></trkpt><trkpt lat="42.2303668" lon="13.8470987"><ele>934.0</ele><time>2026-05-02T08:55:18.138Z</time></trkpt><trkpt lat="42.2301775" lon="13.8471673"><ele>934.0</ele><time>2026-05-02T08:55:19.139Z</time></trkpt><trkpt lat="42.2299709" lon="13.8472573"><ele>934.0</ele><time>2026-05-02T08:55:20.14Z</time></trkpt><trkpt lat="42.2297596" lon="13.847352"><ele>934.0</ele><time>2026-05-02T08:55:21.138Z</time></trkpt><trkpt lat="42.2295727" lon="13.8474417"><ele>936.0</ele><time>2026-05-02T08:55:22.138Z</time></trkpt><trkpt lat="42.2294093" lon="13.8475127"><ele>938.0</ele><time>2026-05-02T08:55:23.139Z</time></trkpt><trkpt lat="42.2292558" lon="13.8475649"><ele>940.0</ele><time>2026-05-02T08:55:24.138Z</time></trkpt><trkpt lat="42.2290841" lon="13.8476059"><ele>928.6666666666666</ele><time>2026-05-02T08:55:25.139Z</time></trkpt><trkpt lat="42.2289212" lon="13.8476395"><ele>917.3333333333333</ele><time>2026-05-02T08:55:26.138Z</time></trkpt><trkpt lat="42.228771" lon="13.8476776"><ele>906.0</ele><time>2026-05-02T08:55:27.138Z</time></trkpt><trkpt lat="42.228614" lon="13.8477282"><ele>906.0</ele><time>2026-05-02T08:55:28.139Z</time></trkpt><trkpt lat="42.2284731" lon="13.847759"><ele>906.0</ele><time>2026-05-02T08:55:29.14Z</time></trkpt><trkpt lat="42.2283432" lon="13.8477797"><ele>906.0</ele><time>2026-05-02T08:55:30.139Z</time></trkpt><trkpt lat="42.2282359" lon="13.8477923"><ele>906.0</ele><time>2026-05-02T08:55:31.139Z</time></trkpt><trkpt lat="42.2281497" lon="13.8478002"><ele>904.8</ele><time>2026-05-02T08:55:32.138Z</time></trkpt><trkpt lat="42.2280743" lon="13.8478056"><ele>903.5999999999999</ele><time>2026-05-02T08:55:33.139Z</time></trkpt><trkpt lat="42.2279899" lon="13.847816"><ele>902.4</ele><time>2026-05-02T08:55:34.139Z</time></trkpt><trkpt lat="42.2278877" lon="13.8478246"><ele>901.2</ele><time>2026-05-02T08:55:35.139Z</time></trkpt><trkpt lat="42.2277809" lon="13.8478355"><ele>900.0</ele><time>2026-05-02T08:55:36.138Z</time></trkpt><trkpt lat="42.2275599" lon="13.8478492"><ele>900.0</ele><time>2026-05-02T08:55:37.14Z</time></trkpt><trkpt lat="42.2273942" lon="13.8478382"><ele>900.0</ele><time>2026-05-02T08:55:38.139Z</time></trkpt><trkpt lat="42.2271714" lon="13.8478018"><ele>900.0</ele><time>2026-05-02T08:55:39.139Z</time></trkpt><trkpt lat="42.2269787" lon="13.8477941"><ele>901.0</ele><time>2026-05-02T08:55:40.138Z</time></trkpt><trkpt lat="42.2267694" lon="13.847803"><ele>902.0</ele><time>2026-05-02T08:55:41.139Z</time></trkpt><trkpt lat="42.2265671" lon="13.8478079"><ele>903.0</ele><time>2026-05-02T08:55:42.138Z</time></trkpt><trkpt lat="42.2263567" lon="13.8478132"><ele>903.6666666666667</ele><time>2026-05-02T08:55:43.139Z</time></trkpt><trkpt lat="42.2261489" lon="13.8478135"><ele>904.3333333333334</ele><time>2026-05-02T08:55:44.139Z</time></trkpt><trkpt lat="42.2259889" lon="13.8478138"><ele>905.0</ele><time>2026-05-02T08:55:45.14Z</time></trkpt><trkpt lat="42.2258402" lon="13.8478113"><ele>905.0</ele><time>2026-05-02T08:55:46.138Z</time></trkpt><trkpt lat="42.2257133" lon="13.8477937"><ele>905.0</ele><time>2026-05-02T08:55:47.138Z</time></trkpt><trkpt lat="42.2255847" lon="13.847748"><ele>905.0</ele><time>2026-05-02T08:55:48.139Z</time></trkpt><trkpt lat="42.2254581" lon="13.8476869"><ele>905.0</ele><time>2026-05-02T08:55:49.139Z</time></trkpt><trkpt lat="42.22532" lon="13.8476063"><ele>910.0</ele><time>2026-05-02T08:55:50.139Z</time></trkpt><trkpt lat="42.2251613" lon="13.8475223"><ele>915.0</ele><time>2026-05-02T08:55:51.139Z</time></trkpt><trkpt lat="42.2249933" lon="13.8474438"><ele>920.0</ele><time>2026-05-02T08:55:52.138Z</time></trkpt><trkpt lat="42.2248581" lon="13.8473815"><ele>916.8333333333334</ele><time>2026-05-02T08:55:53.139Z</time></trkpt><trkpt lat="42.2247642" lon="13.8473275"><ele>913.6666666666667</ele><time>2026-05-02T08:55:54.14Z</time></trkpt><trkpt lat="42.2247029" lon="13.8472724"><ele>910.5</ele><time>2026-05-02T08:55:55.138Z</time></trkpt><trkpt lat="42.2246631" lon="13.8472001"><ele>907.3333333333333</ele><time>2026-05-02T08:55:56.138Z</time></trkpt><trkpt lat="42.2246429" lon="13.8471081"><ele>904.1666666666666</ele><time>2026-05-02T08:55:57.138Z</time></trkpt><trkpt lat="42.2246344" lon="13.8469556"><ele>901.0</ele><time>2026-05-02T08:55:58.138Z</time></trkpt><trkpt lat="42.2246267" lon="13.8468179"><ele>905.75</ele><time>2026-05-02T08:55:59.139Z</time></trkpt><trkpt lat="42.2246916" lon="13.8467324"><ele>910.5</ele><time>2026-05-02T08:56:00.139Z</time></trkpt><trkpt lat="42.2247339" lon="13.8466086"><ele>915.25</ele><time>2026-05-02T08:56:01.139Z</time></trkpt><trkpt lat="42.2248483" lon="13.8464661"><ele>920.0</ele><time>2026-05-02T08:56:02.139Z</time></trkpt><trkpt lat="42.2249546" lon="13.8463118"><ele>924.25</ele><time>2026-05-02T08:56:03.138Z</time></trkpt><trkpt lat="42.2250646" lon="13.8461805"><ele>928.5</ele><time>2026-05-02T08:56:04.139Z</time></trkpt><trkpt lat="42.2251818" lon="13.8460676"><ele>932.75</ele><time>2026-05-02T08:56:05.138Z</time></trkpt><trkpt lat="42.2253173" lon="13.845957"><ele>937.0</ele><time>2026-05-02T08:56:06.139Z</time></trkpt><trkpt lat="42.2254776" lon="13.8458545"><ele>940.6666666666666</ele><time>2026-05-02T08:56:07.139Z</time></trkpt><trkpt lat="42.2256401" lon="13.845737"><ele>944.3333333333333</ele><time>2026-05-02T08:56:08.138Z</time></trkpt><trkpt lat="42.2257987" lon="13.8456227"><ele>948.0</ele><time>2026-05-02T08:56:09.139Z</time></trkpt><trkpt lat="42.2259613" lon="13.8454937"><ele>948.6666666666667</ele><time>2026-05-02T08:56:10.138Z</time></trkpt><trkpt lat="42.2261074" lon="13.8453687"><ele>949.3333333333334</ele><time>2026-05-02T08:56:11.138Z</time></trkpt><trkpt lat="42.226249" lon="13.8452265"><ele>950.0</ele><time>2026-05-02T08:56:12.14Z</time></trkpt><trkpt lat="42.2263983" lon="13.8450788"><ele>954.6666666666667</ele><time>2026-05-02T08:56:13.138Z</time></trkpt><trkpt lat="42.2265514" lon="13.8449433"><ele>959.3333333333333</ele><time>2026-05-02T08:56:14.139Z</time></trkpt><trkpt lat="42.226701" lon="13.8448053"><ele>964.0</ele><time>2026-05-02T08:56:15.138Z</time></trkpt><trkpt lat="42.2268611" lon="13.8446705"><ele>964.0</ele><time>2026-05-02T08:56:16.14Z</time></trkpt><trkpt lat="42.2270077" lon="13.844551"><ele>964.0</ele><time>2026-05-02T08:56:17.138Z</time></trkpt><trkpt lat="42.2271659" lon="13.8444234"><ele>964.0</ele><time>2026-05-02T08:56:18.14Z</time></trkpt><trkpt lat="42.2273121" lon="13.8443157"><ele>967.0</ele><time>2026-05-02T08:56:19.139Z</time></trkpt><trkpt lat="42.2274366" lon="13.8442236"><ele>970.0000000000001</ele><time>2026-05-02T08:56:20.139Z</time></trkpt><trkpt lat="42.2275297" lon="13.8441508"><ele>973.0000000000001</ele><time>2026-05-02T08:56:21.138Z</time></trkpt><trkpt lat="42.2275968" lon="13.8440795"><ele>976.0</ele><time>2026-05-02T08:56:22.139Z</time></trkpt><trkpt lat="42.2276421" lon="13.8439993"><ele>979.0</ele><time>2026-05-02T08:56:23.138Z</time></trkpt><trkpt lat="42.2276425" lon="13.843869"><ele>979.0</ele><time>2026-05-02T08:56:25.139Z</time></trkpt><trkpt lat="42.2275928" lon="13.8438124"><ele>979.0000000000001</ele><time>2026-05-02T08:56:26.14Z</time></trkpt><trkpt lat="42.2275181" lon="13.8437995"><ele>979.0000000000001</ele><time>2026-05-02T08:56:27.138Z</time></trkpt><trkpt lat="42.2274205" lon="13.8438063"><ele>979.0</ele><time>2026-05-02T08:56:28.138Z</time></trkpt><trkpt lat="42.2273072" lon="13.8438212"><ele>979.0</ele><time>2026-05-02T08:56:29.139Z</time></trkpt><trkpt lat="42.2271804" lon="13.8438272"><ele>980.2</ele><time>2026-05-02T08:56:30.138Z</time></trkpt><trkpt lat="42.2270406" lon="13.8438279"><ele>981.4000000000001</ele><time>2026-05-02T08:56:31.14Z</time></trkpt><trkpt lat="42.226918" lon="13.843822"><ele>982.6</ele><time>2026-05-02T08:56:32.138Z</time></trkpt><trkpt lat="42.2268108" lon="13.8438066"><ele>983.8</ele><time>2026-05-02T08:56:33.14Z</time></trkpt><trkpt lat="42.2267348" lon="13.8437969"><ele>985.0</ele><time>2026-05-02T08:56:34.138Z</time></trkpt><trkpt lat="42.2266276" lon="13.8438233"><ele>985.0</ele><time>2026-05-02T08:56:36.139Z</time></trkpt><trkpt lat="42.226546" lon="13.8438678"><ele>985.0</ele><time>2026-05-02T08:56:37.139Z</time></trkpt><trkpt lat="42.2264314" lon="13.8439214"><ele>985.0</ele><time>2026-05-02T08:56:38.139Z</time></trkpt><trkpt lat="42.2262831" lon="13.8439876"><ele>985.0</ele><time>2026-05-02T08:56:39.139Z</time></trkpt><trkpt lat="42.2261099" lon="13.8440675"><ele>984.3333333333333</ele><time>2026-05-02T08:56:40.139Z</time></trkpt><trkpt lat="42.2259415" lon="13.844144"><ele>983.6666666666667</ele><time>2026-05-02T08:56:41.139Z</time></trkpt><trkpt lat="42.2257866" lon="13.8442102"><ele>983.0</ele><time>2026-05-02T08:56:42.138Z</time></trkpt><trkpt lat="42.2256431" lon="13.8442819"><ele>980.25</ele><time>2026-05-02T08:56:43.139Z</time></trkpt><trkpt lat="42.2255141" lon="13.8443557"><ele>977.5</ele><time>2026-05-02T08:56:44.139Z</time></trkpt><trkpt lat="42.2253929" lon="13.8444367"><ele>974.75</ele><time>2026-05-02T08:56:45.138Z</time></trkpt><trkpt lat="42.2252889" lon="13.8445099"><ele>972.0</ele><time>2026-05-02T08:56:46.138Z</time></trkpt><trkpt lat="42.225173" lon="13.8445476"><ele>972.0</ele><time>2026-05-02T08:56:47.138Z</time></trkpt><trkpt lat="42.2250326" lon="13.8445696"><ele>972.0</ele><time>2026-05-02T08:56:48.139Z</time></trkpt><trkpt lat="42.2249061" lon="13.8445749"><ele>972.0</ele><time>2026-05-02T08:56:49.139Z</time></trkpt><trkpt lat="42.224795" lon="13.844577"><ele>972.0</ele><time>2026-05-02T08:56:50.139Z</time></trkpt><trkpt lat="42.2247076" lon="13.8445631"><ele>970.1666666666666</ele><time>2026-05-02T08:56:51.138Z</time></trkpt><trkpt lat="42.2246425" lon="13.8445157"><ele>968.3333333333333</ele><time>2026-05-02T08:56:52.139Z</time></trkpt><trkpt lat="42.2246067" lon="13.8444438"><ele>966.5</ele><time>2026-05-02T08:56:53.14Z</time></trkpt><trkpt lat="42.2246036" lon="13.8443429"><ele>964.6666666666666</ele><time>2026-05-02T08:56:54.139Z</time></trkpt><trkpt lat="42.2246278" lon="13.844215"><ele>962.8333333333333</ele><time>2026-05-02T08:56:55.138Z</time></trkpt><trkpt lat="42.2246744" lon="13.8440675"><ele>961.0</ele><time>2026-05-02T08:56:56.138Z</time></trkpt><trkpt lat="42.2247189" lon="13.8439301"><ele>959.75</ele><time>2026-05-02T08:56:57.139Z</time></trkpt><trkpt lat="42.2247706" lon="13.8437824"><ele>958.5</ele><time>2026-05-02T08:56:58.139Z</time></trkpt><trkpt lat="42.2248305" lon="13.8436227"><ele>957.25</ele><time>2026-05-02T08:56:59.139Z</time></trkpt><trkpt lat="42.2249069" lon="13.8434517"><ele>956.0</ele><time>2026-05-02T08:57:00.139Z</time></trkpt><trkpt lat="42.2249953" lon="13.8433011"><ele>959.75</ele><time>2026-05-02T08:57:01.14Z</time></trkpt><trkpt lat="42.2250875" lon="13.8431798"><ele>963.5</ele><time>2026-05-02T08:57:02.138Z</time></trkpt><trkpt lat="42.2251841" lon="13.8430621"><ele>967.25</ele><time>2026-05-02T08:57:03.139Z</time></trkpt><trkpt lat="42.2252926" lon="13.8429196"><ele>971.0</ele><time>2026-05-02T08:57:04.138Z</time></trkpt><trkpt lat="42.2253939" lon="13.8427745"><ele>971.0</ele><time>2026-05-02T08:57:05.138Z</time></trkpt><trkpt lat="42.2254851" lon="13.8426443"><ele>971.0</ele><time>2026-05-02T08:57:06.139Z</time></trkpt><trkpt lat="42.2255724" lon="13.8425319"><ele>971.0</ele><time>2026-05-02T08:57:07.139Z</time></trkpt><trkpt lat="42.2256585" lon="13.8424318"><ele>971.0</ele><time>2026-05-02T08:57:08.139Z</time></trkpt><trkpt lat="42.2257465" lon="13.8423341"><ele>970.4</ele><time>2026-05-02T08:57:09.138Z</time></trkpt><trkpt lat="42.2258409" lon="13.8422525"><ele>969.8</ele><time>2026-05-02T08:57:10.139Z</time></trkpt><trkpt lat="42.2259528" lon="13.842184"><ele>969.1999999999999</ele><time>2026-05-02T08:57:11.139Z</time></trkpt><trkpt lat="42.2260582" lon="13.8421376"><ele>968.5999999999999</ele><time>2026-05-02T08:57:12.138Z</time></trkpt><trkpt lat="42.2261586" lon="13.8421053"><ele>968.0</ele><time>2026-05-02T08:57:13.139Z</time></trkpt><trkpt lat="42.2262443" lon="13.8420977"><ele>968.0</ele><time>2026-05-02T08:57:14.138Z</time></trkpt><trkpt lat="42.2263395" lon="13.8421068"><ele>968.0</ele><time>2026-05-02T08:57:15.138Z</time></trkpt><trkpt lat="42.2264647" lon="13.8421056"><ele>968.0</ele><time>2026-05-02T08:57:16.138Z</time></trkpt><trkpt lat="42.2266197" lon="13.8420887"><ele>968.0</ele><time>2026-05-02T08:57:17.138Z</time></trkpt><trkpt lat="42.2267664" lon="13.8420765"><ele>969.0</ele><time>2026-05-02T08:57:18.138Z</time></trkpt><trkpt lat="42.2269046" lon="13.8420661"><ele>970.0</ele><time>2026-05-02T08:57:19.138Z</time></trkpt><trkpt lat="42.2270333" lon="13.8420595"><ele>971.0</ele><time>2026-05-02T08:57:20.139Z</time></trkpt><trkpt lat="42.2271606" lon="13.8420537"><ele>972.0</ele><time>2026-05-02T08:57:21.138Z</time></trkpt><trkpt lat="42.2272885" lon="13.8420365"><ele>970.0</ele><time>2026-05-02T08:57:22.138Z</time></trkpt><trkpt lat="42.2274154" lon="13.8420217"><ele>968.0</ele><time>2026-05-02T08:57:23.139Z</time></trkpt><trkpt lat="42.2275372" lon="13.8420082"><ele>966.0</ele><time>2026-05-02T08:57:24.138Z</time></trkpt><trkpt lat="42.2276516" lon="13.8419956"><ele>964.0</ele><time>2026-05-02T08:57:25.138Z</time></trkpt><trkpt lat="42.2277677" lon="13.8419779"><ele>964.0</ele><time>2026-05-02T08:57:26.138Z</time></trkpt><trkpt lat="42.2278842" lon="13.8419482"><ele>964.0</ele><time>2026-05-02T08:57:27.138Z</time></trkpt><trkpt lat="42.2280143" lon="13.8419099"><ele>964.0</ele><time>2026-05-02T08:57:28.138Z</time></trkpt><trkpt lat="42.2281354" lon="13.8418689"><ele>964.0</ele><time>2026-05-02T08:57:29.138Z</time></trkpt><trkpt lat="42.2282526" lon="13.8418257"><ele>957.6</ele><time>2026-05-02T08:57:30.138Z</time></trkpt><trkpt lat="42.2283479" lon="13.841782"><ele>951.2</ele><time>2026-05-02T08:57:31.139Z</time></trkpt><trkpt lat="42.2284347" lon="13.8417368"><ele>944.8000000000001</ele><time>2026-05-02T08:57:32.139Z</time></trkpt><trkpt lat="42.2285129" lon="13.841681"><ele>938.4000000000001</ele><time>2026-05-02T08:57:33.138Z</time></trkpt><trkpt lat="42.2285815" lon="13.8416138"><ele>932.0</ele><time>2026-05-02T08:57:34.139Z</time></trkpt><trkpt lat="42.2286391" lon="13.8415095"><ele>932.0</ele><time>2026-05-02T08:57:35.138Z</time></trkpt><trkpt lat="42.2286894" lon="13.841393"><ele>932.0</ele><time>2026-05-02T08:57:36.138Z</time></trkpt><trkpt lat="42.2287434" lon="13.8412606"><ele>932.0</ele><time>2026-05-02T08:57:37.138Z</time></trkpt><trkpt lat="42.228797" lon="13.841129"><ele>932.0</ele><time>2026-05-02T08:57:38.139Z</time></trkpt><trkpt lat="42.2288502" lon="13.8409943"><ele>932.0</ele><time>2026-05-02T08:57:39.138Z</time></trkpt><trkpt lat="42.2289006" lon="13.8408555"><ele>933.25</ele><time>2026-05-02T08:57:40.138Z</time></trkpt><trkpt lat="42.2289468" lon="13.8407122"><ele>934.5</ele><time>2026-05-02T08:57:41.139Z</time></trkpt><trkpt lat="42.2289909" lon="13.840566"><ele>935.75</ele><time>2026-05-02T08:57:42.14Z</time></trkpt><trkpt lat="42.2290404" lon="13.840425"><ele>937.0</ele><time>2026-05-02T08:57:43.138Z</time></trkpt><trkpt lat="42.2290962" lon="13.8402821"><ele>931.25</ele><time>2026-05-02T08:57:44.138Z</time></trkpt><trkpt lat="42.2291575" lon="13.8401254"><ele>925.5</ele><time>2026-05-02T08:57:45.138Z</time></trkpt><trkpt lat="42.2292244" lon="13.839949"><ele>919.75</ele><time>2026-05-02T08:57:46.138Z</time></trkpt><trkpt lat="42.2292944" lon="13.8397785"><ele>914.0</ele><time>2026-05-02T08:57:47.139Z</time></trkpt><trkpt lat="42.2293688" lon="13.8396213"><ele>914.0</ele><time>2026-05-02T08:57:48.139Z</time></trkpt><trkpt lat="42.2294471" lon="13.8394696"><ele>914.0</ele><time>2026-05-02T08:57:49.138Z</time></trkpt><trkpt lat="42.2295449" lon="13.8393225"><ele>914.0</ele><time>2026-05-02T08:57:50.138Z</time></trkpt><trkpt lat="42.2296463" lon="13.8391697"><ele>914.0</ele><time>2026-05-02T08:57:51.139Z</time></trkpt><trkpt lat="42.2297394" lon="13.8390156"><ele>918.0</ele><time>2026-05-02T08:57:52.139Z</time></trkpt><trkpt lat="42.22983" lon="13.8388683"><ele>922.0</ele><time>2026-05-02T08:57:53.139Z</time></trkpt><trkpt lat="42.2299161" lon="13.8387206"><ele>926.0</ele><time>2026-05-02T08:57:54.138Z</time></trkpt><trkpt lat="42.2299943" lon="13.8385751"><ele>930.0</ele><time>2026-05-02T08:57:55.138Z</time></trkpt><trkpt lat="42.2300681" lon="13.8384339"><ele>923.2</ele><time>2026-05-02T08:57:56.139Z</time></trkpt><trkpt lat="42.2301316" lon="13.8382981"><ele>916.4</ele><time>2026-05-02T08:57:57.139Z</time></trkpt><trkpt lat="42.230192" lon="13.8381686"><ele>909.5999999999999</ele><time>2026-05-02T08:57:58.139Z</time></trkpt><trkpt lat="42.2302551" lon="13.8380561"><ele>902.8</ele><time>2026-05-02T08:57:59.139Z</time></trkpt><trkpt lat="42.2303316" lon="13.8379458"><ele>896.0</ele><time>2026-05-02T08:58:00.138Z</time></trkpt><trkpt lat="42.2304334" lon="13.8378354"><ele>896.0</ele><time>2026-05-02T08:58:01.139Z</time></trkpt><trkpt lat="42.2305309" lon="13.8377394"><ele>896.0</ele><time>2026-05-02T08:58:02.138Z</time></trkpt><trkpt lat="42.2306336" lon="13.8376635"><ele>896.0</ele><time>2026-05-02T08:58:03.138Z</time></trkpt><trkpt lat="42.2307303" lon="13.837582"><ele>896.0</ele><time>2026-05-02T08:58:04.138Z</time></trkpt><trkpt lat="42.2308279" lon="13.8375008"><ele>894.5</ele><time>2026-05-02T08:58:05.139Z</time></trkpt><trkpt lat="42.2309394" lon="13.8374276"><ele>893.0</ele><time>2026-05-02T08:58:06.139Z</time></trkpt><trkpt lat="42.2310596" lon="13.8373722"><ele>891.5</ele><time>2026-05-02T08:58:07.138Z</time></trkpt><trkpt lat="42.2311914" lon="13.8373125"><ele>890.0</ele><time>2026-05-02T08:58:08.138Z</time></trkpt><trkpt lat="42.2313458" lon="13.8372479"><ele>893.3333333333334</ele><time>2026-05-02T08:58:09.139Z</time></trkpt><trkpt lat="42.2315124" lon="13.8372289"><ele>896.6666666666667</ele><time>2026-05-02T08:58:10.139Z</time></trkpt><trkpt lat="42.2316629" lon="13.8371918"><ele>900.0</ele><time>2026-05-02T08:58:11.138Z</time></trkpt><trkpt lat="42.2318105" lon="13.8371548"><ele>900.0</ele><time>2026-05-02T08:58:12.138Z</time></trkpt><trkpt lat="42.2319687" lon="13.8371197"><ele>900.0</ele><time>2026-05-02T08:58:13.138Z</time></trkpt><trkpt lat="42.2321159" lon="13.8371121"><ele>900.0</ele><time>2026-05-02T08:58:14.138Z</time></trkpt><trkpt lat="42.2322419" lon="13.8371303"><ele>900.0</ele><time>2026-05-02T08:58:15.138Z</time></trkpt><trkpt lat="42.2323527" lon="13.8371492"><ele>900.0</ele><time>2026-05-02T08:58:16.138Z</time></trkpt><trkpt lat="42.232441" lon="13.8371635"><ele>900.0</ele><time>2026-05-02T08:58:17.139Z</time></trkpt><trkpt lat="42.2325043" lon="13.8371525"><ele>900.0</ele><time>2026-05-02T08:58:18.139Z</time></trkpt><trkpt lat="42.2325103" lon="13.8370668"><ele>900.0</ele><time>2026-05-02T08:58:20.138Z</time></trkpt><trkpt lat="42.2323686" lon="13.836991"><ele>900.0</ele><time>2026-05-02T08:58:22.139Z</time></trkpt><trkpt lat="42.2322386" lon="13.8369474"><ele>900.0</ele><time>2026-05-02T08:58:23.138Z</time></trkpt><trkpt lat="42.2320956" lon="13.8368934"><ele>900.0</ele><time>2026-05-02T08:58:24.138Z</time></trkpt><trkpt lat="42.2319239" lon="13.8368511"><ele>900.0</ele><time>2026-05-02T08:58:25.138Z</time></trkpt><trkpt lat="42.2317341" lon="13.8367978"><ele>887.3333333333333</ele><time>2026-05-02T08:58:26.138Z</time></trkpt><trkpt lat="42.2315535" lon="13.8367451"><ele>874.6666666666666</ele><time>2026-05-02T08:58:27.138Z</time></trkpt><trkpt lat="42.2313898" lon="13.8367028"><ele>862.0</ele><time>2026-05-02T08:58:28.139Z</time></trkpt><trkpt lat="42.2312293" lon="13.8366752"><ele>859.75</ele><time>2026-05-02T08:58:29.139Z</time></trkpt><trkpt lat="42.2310755" lon="13.8366558"><ele>857.5</ele><time>2026-05-02T08:58:30.138Z</time></trkpt><trkpt lat="42.2309386" lon="13.8366601"><ele>855.25</ele><time>2026-05-02T08:58:31.139Z</time></trkpt><trkpt lat="42.2308016" lon="13.8366926"><ele>853.0</ele><time>2026-05-02T08:58:32.139Z</time></trkpt><trkpt lat="42.2306464" lon="13.8367599"><ele>856.3333333333333</ele><time>2026-05-02T08:58:33.138Z</time></trkpt><trkpt lat="42.2304821" lon="13.8368464"><ele>859.6666666666667</ele><time>2026-05-02T08:58:34.14Z</time></trkpt><trkpt lat="42.2303028" lon="13.8369383"><ele>863.0</ele><time>2026-05-02T08:58:35.138Z</time></trkpt><trkpt lat="42.2301279" lon="13.8370304"><ele>863.0</ele><time>2026-05-02T08:58:36.138Z</time></trkpt><trkpt lat="42.2299627" lon="13.8371182"><ele>863.0</ele><time>2026-05-02T08:58:37.139Z</time></trkpt><trkpt lat="42.2298045" lon="13.8372063"><ele>863.0</ele><time>2026-05-02T08:58:38.139Z</time></trkpt><trkpt lat="42.2296449" lon="13.8372907"><ele>856.75</ele><time>2026-05-02T08:58:39.139Z</time></trkpt><trkpt lat="42.2294977" lon="13.8373629"><ele>850.5</ele><time>2026-05-02T08:58:40.14Z</time></trkpt><trkpt lat="42.2293617" lon="13.8374251"><ele>844.25</ele><time>2026-05-02T08:58:41.14Z</time></trkpt><trkpt lat="42.2292312" lon="13.8374871"><ele>838.0</ele><time>2026-05-02T08:58:42.138Z</time></trkpt><trkpt lat="42.2291061" lon="13.8375525"><ele>838.0</ele><time>2026-05-02T08:58:43.139Z</time></trkpt><trkpt lat="42.2289911" lon="13.8376112"><ele>838.0</ele><time>2026-05-02T08:58:44.139Z</time></trkpt><trkpt lat="42.228877" lon="13.8376747"><ele>838.0</ele><time>2026-05-02T08:58:45.139Z</time></trkpt><trkpt lat="42.2287639" lon="13.8377439"><ele>838.0</ele><time>2026-05-02T08:58:46.139Z</time></trkpt><trkpt lat="42.2286629" lon="13.8378053"><ele>836.8333333333333</ele><time>2026-05-02T08:58:47.138Z</time></trkpt><trkpt lat="42.2285867" lon="13.8378401"><ele>835.6666666666666</ele><time>2026-05-02T08:58:48.139Z</time></trkpt><trkpt lat="42.2285047" lon="13.8378077"><ele>834.5</ele><time>2026-05-02T08:58:50.138Z</time></trkpt><trkpt lat="42.2285454" lon="13.8377182"><ele>833.3333333333333</ele><time>2026-05-02T08:58:52.138Z</time></trkpt><trkpt lat="42.2286031" lon="13.8376804"><ele>832.1666666666666</ele><time>2026-05-02T08:58:53.138Z</time></trkpt><trkpt lat="42.2286858" lon="13.8376257"><ele>831.0</ele><time>2026-05-02T08:58:54.139Z</time></trkpt><trkpt lat="42.2287768" lon="13.8375388"><ele>831.0</ele><time>2026-05-02T08:58:55.139Z</time></trkpt><trkpt lat="42.2288819" lon="13.8374367"><ele>831.0</ele><time>2026-05-02T08:58:56.139Z</time></trkpt><trkpt lat="42.2290016" lon="13.8373209"><ele>831.0</ele><time>2026-05-02T08:58:57.139Z</time></trkpt><trkpt lat="42.2291381" lon="13.837196"><ele>831.0</ele><time>2026-05-02T08:58:58.138Z</time></trkpt><trkpt lat="42.229261" lon="13.8370848"><ele>832.75</ele><time>2026-05-02T08:58:59.138Z</time></trkpt><trkpt lat="42.2293791" lon="13.8369841"><ele>834.5</ele><time>2026-05-02T08:59:00.139Z</time></trkpt><trkpt lat="42.2294836" lon="13.8368827"><ele>836.25</ele><time>2026-05-02T08:59:01.138Z</time></trkpt><trkpt lat="42.2295914" lon="13.8367643"><ele>838.0</ele><time>2026-05-02T08:59:02.139Z</time></trkpt><trkpt lat="42.2296924" lon="13.8366437"><ele>836.0</ele><time>2026-05-02T08:59:03.138Z</time></trkpt><trkpt lat="42.2297874" lon="13.8365232"><ele>834.0</ele><time>2026-05-02T08:59:04.138Z</time></trkpt><trkpt lat="42.2298804" lon="13.8364137"><ele>832.0</ele><time>2026-05-02T08:59:05.139Z</time></trkpt><trkpt lat="42.2299786" lon="13.8362952"><ele>830.0</ele><time>2026-05-02T08:59:06.139Z</time></trkpt><trkpt lat="42.2300818" lon="13.8361805"><ele>830.0</ele><time>2026-05-02T08:59:07.14Z</time></trkpt><trkpt lat="42.2302027" lon="13.8360529"><ele>830.0</ele><time>2026-05-02T08:59:08.139Z</time></trkpt><trkpt lat="42.2303309" lon="13.8359162"><ele>830.0</ele><time>2026-05-02T08:59:09.139Z</time></trkpt><trkpt lat="42.2304546" lon="13.8357976"><ele>827.75</ele><time>2026-05-02T08:59:10.139Z</time></trkpt><trkpt lat="42.2305712" lon="13.8356872"><ele>825.5</ele><time>2026-05-02T08:59:11.138Z</time></trkpt><trkpt lat="42.2306909" lon="13.8355842"><ele>823.25</ele><time>2026-05-02T08:59:12.138Z</time></trkpt><trkpt lat="42.2308149" lon="13.8354977"><ele>821.0</ele><time>2026-05-02T08:59:13.138Z</time></trkpt><trkpt lat="42.2309455" lon="13.8354191"><ele>821.0</ele><time>2026-05-02T08:59:14.138Z</time></trkpt><trkpt lat="42.2310702" lon="13.8353593"><ele>821.0</ele><time>2026-05-02T08:59:15.139Z</time></trkpt><trkpt lat="42.2312244" lon="13.8353069"><ele>821.0</ele><time>2026-05-02T08:59:16.138Z</time></trkpt><trkpt lat="42.2313931" lon="13.8352657"><ele>823.5</ele><time>2026-05-02T08:59:17.138Z</time></trkpt><trkpt lat="42.2315484" lon="13.8352319"><ele>826.0</ele><time>2026-05-02T08:59:18.139Z</time></trkpt><trkpt lat="42.2316858" lon="13.8352014"><ele>828.5</ele><time>2026-05-02T08:59:19.139Z</time></trkpt><trkpt lat="42.2317964" lon="13.8351791"><ele>831.0</ele><time>2026-05-02T08:59:20.139Z</time></trkpt><trkpt lat="42.2318857" lon="13.835158"><ele>825.4</ele><time>2026-05-02T08:59:21.139Z</time></trkpt><trkpt lat="42.2319678" lon="13.8350809"><ele>819.8</ele><time>2026-05-02T08:59:23.138Z</time></trkpt><trkpt lat="42.2319096" lon="13.8350124"><ele>814.1999999999999</ele><time>2026-05-02T08:59:25.138Z</time></trkpt><trkpt lat="42.2318456" lon="13.8350073"><ele>808.5999999999999</ele><time>2026-05-02T08:59:26.138Z</time></trkpt><trkpt lat="42.2317458" lon="13.8350127"><ele>803.0</ele><time>2026-05-02T08:59:27.138Z</time></trkpt><trkpt lat="42.2316238" lon="13.8350079"><ele>803.0</ele><time>2026-05-02T08:59:28.138Z</time></trkpt><trkpt lat="42.2314998" lon="13.835001"><ele>803.0</ele><time>2026-05-02T08:59:29.138Z</time></trkpt><trkpt lat="42.2313766" lon="13.834971"><ele>803.0</ele><time>2026-05-02T08:59:30.139Z</time></trkpt><trkpt lat="42.2312403" lon="13.8349278"><ele>803.0</ele><time>2026-05-02T08:59:31.138Z</time></trkpt><trkpt lat="42.2311201" lon="13.8349037"><ele>800.25</ele><time>2026-05-02T08:59:32.138Z</time></trkpt><trkpt lat="42.2309883" lon="13.8349057"><ele>797.5</ele><time>2026-05-02T08:59:33.139Z</time></trkpt><trkpt lat="42.2308558" lon="13.8349283"><ele>794.75</ele><time>2026-05-02T08:59:34.138Z</time></trkpt><trkpt lat="42.2307029" lon="13.8349646"><ele>792.0</ele><time>2026-05-02T08:59:35.139Z</time></trkpt><trkpt lat="42.2305471" lon="13.835001"><ele>794.6666666666667</ele><time>2026-05-02T08:59:36.138Z</time></trkpt><trkpt lat="42.2303774" lon="13.8350471"><ele>797.3333333333334</ele><time>2026-05-02T08:59:37.138Z</time></trkpt><trkpt lat="42.2302213" lon="13.8350962"><ele>800.0</ele><time>2026-05-02T08:59:38.139Z</time></trkpt><trkpt lat="42.2300503" lon="13.8351523"><ele>800.0</ele><time>2026-05-02T08:59:39.138Z</time></trkpt><trkpt lat="42.2299017" lon="13.8352015"><ele>800.0</ele><time>2026-05-02T08:59:40.14Z</time></trkpt><trkpt lat="42.2297551" lon="13.8352569"><ele>800.0</ele><time>2026-05-02T08:59:41.138Z</time></trkpt><trkpt lat="42.2296102" lon="13.8353271"><ele>793.3333333333334</ele><time>2026-05-02T08:59:42.138Z</time></trkpt><trkpt lat="42.2294577" lon="13.8354006"><ele>786.6666666666667</ele><time>2026-05-02T08:59:43.139Z</time></trkpt><trkpt lat="42.229311" lon="13.8354745"><ele>780.0</ele><time>2026-05-02T08:59:44.139Z</time></trkpt><trkpt lat="42.2291762" lon="13.8355646"><ele>780.0</ele><time>2026-05-02T08:59:45.138Z</time></trkpt><trkpt lat="42.2290461" lon="13.835669"><ele>780.0</ele><time>2026-05-02T08:59:46.139Z</time></trkpt><trkpt lat="42.2289206" lon="13.8357595"><ele>780.0</ele><time>2026-05-02T08:59:47.139Z</time></trkpt><trkpt lat="42.2287828" lon="13.835845"><ele>780.0</ele><time>2026-05-02T08:59:48.138Z</time></trkpt><trkpt lat="42.2286533" lon="13.8359149"><ele>784.2</ele><time>2026-05-02T08:59:49.138Z</time></trkpt><trkpt lat="42.2285322" lon="13.8359897"><ele>788.4</ele><time>2026-05-02T08:59:50.138Z</time></trkpt><trkpt lat="42.2284325" lon="13.8360458"><ele>792.5999999999999</ele><time>2026-05-02T08:59:51.14Z</time></trkpt><trkpt lat="42.228341" lon="13.8360662"><ele>796.8</ele><time>2026-05-02T08:59:52.138Z</time></trkpt><trkpt lat="42.2282493" lon="13.8360464"><ele>801.0</ele><time>2026-05-02T08:59:53.14Z</time></trkpt><trkpt lat="42.2281422" lon="13.8359884"><ele>791.6666666666667</ele><time>2026-05-02T08:59:54.139Z</time></trkpt><trkpt lat="42.2280179" lon="13.8359056"><ele>782.3333333333334</ele><time>2026-05-02T08:59:55.138Z</time></trkpt><trkpt lat="42.2278713" lon="13.8358108"><ele>773.0</ele><time>2026-05-02T08:59:56.138Z</time></trkpt><trkpt lat="42.2277082" lon="13.8357055"><ele>773.0</ele><time>2026-05-02T08:59:57.139Z</time></trkpt><trkpt lat="42.2275578" lon="13.8356106"><ele>773.0</ele><time>2026-05-02T08:59:58.139Z</time></trkpt><trkpt lat="42.227418" lon="13.8355259"><ele>773.0</ele><time>2026-05-02T08:59:59.139Z</time></trkpt><trkpt lat="42.2272896" lon="13.8354586"><ele>772.0</ele><time>2026-05-02T09:00:00.138Z</time></trkpt><trkpt lat="42.2271744" lon="13.8354122"><ele>771.0</ele><time>2026-05-02T09:00:01.14Z</time></trkpt><trkpt lat="42.227069" lon="13.8353784"><ele>770.0</ele><time>2026-05-02T09:00:02.14Z</time></trkpt><trkpt lat="42.226969" lon="13.8353711"><ele>769.0</ele><time>2026-05-02T09:00:03.138Z</time></trkpt><trkpt lat="42.2268605" lon="13.8353797"><ele>768.0</ele><time>2026-05-02T09:00:04.138Z</time></trkpt><trkpt lat="42.2267281" lon="13.8354062"><ele>768.0</ele><time>2026-05-02T09:00:05.139Z</time></trkpt><trkpt lat="42.2265754" lon="13.83545"><ele>768.0</ele><time>2026-05-02T09:00:06.138Z</time></trkpt><trkpt lat="42.2264254" lon="13.8354965"><ele>768.0</ele><time>2026-05-02T09:00:07.138Z</time></trkpt><trkpt lat="42.2262849" lon="13.8355467"><ele>763.5</ele><time>2026-05-02T09:00:08.138Z</time></trkpt><trkpt lat="42.2261491" lon="13.8355953"><ele>759.0</ele><time>2026-05-02T09:00:09.138Z</time></trkpt><trkpt lat="42.2260127" lon="13.8356483"><ele>754.5</ele><time>2026-05-02T09:00:10.139Z</time></trkpt><trkpt lat="42.2258799" lon="13.8357104"><ele>750.0</ele><time>2026-05-02T09:00:11.139Z</time></trkpt><trkpt lat="42.2257391" lon="13.8357878"><ele>748.0</ele><time>2026-05-02T09:00:12.138Z</time></trkpt><trkpt lat="42.2256122" lon="13.8358617"><ele>746.0</ele><time>2026-05-02T09:00:13.138Z</time></trkpt><trkpt lat="42.2254976" lon="13.8359335"><ele>744.0</ele><time>2026-05-02T09:00:14.138Z</time></trkpt><trkpt lat="42.2253825" lon="13.836028"><ele>742.0</ele><time>2026-05-02T09:00:15.138Z</time></trkpt><trkpt lat="42.2252576" lon="13.8361469"><ele>742.0</ele><time>2026-05-02T09:00:16.139Z</time></trkpt><trkpt lat="42.2251178" lon="13.8362763"><ele>742.0</ele><time>2026-05-02T09:00:17.138Z</time></trkpt><trkpt lat="42.2249688" lon="13.8363982"><ele>742.0</ele><time>2026-05-02T09:00:18.138Z</time></trkpt><trkpt lat="42.2248385" lon="13.8365063"><ele>737.5</ele><time>2026-05-02T09:00:19.138Z</time></trkpt><trkpt lat="42.2247296" lon="13.8366052"><ele>733.0</ele><time>2026-05-02T09:00:20.139Z</time></trkpt><trkpt lat="42.2246364" lon="13.8367191"><ele>728.5</ele><time>2026-05-02T09:00:21.138Z</time></trkpt><trkpt lat="42.2245526" lon="13.8368644"><ele>724.0</ele><time>2026-05-02T09:00:22.139Z</time></trkpt><trkpt lat="42.2244703" lon="13.8370285"><ele>724.0</ele><time>2026-05-02T09:00:23.138Z</time></trkpt><trkpt lat="42.2243901" lon="13.8371651"><ele>724.0</ele><time>2026-05-02T09:00:24.138Z</time></trkpt><trkpt lat="42.2243083" lon="13.8372863"><ele>724.0</ele><time>2026-05-02T09:00:25.138Z</time></trkpt><trkpt lat="42.2242265" lon="13.8374167"><ele>724.0</ele><time>2026-05-02T09:00:26.138Z</time></trkpt><trkpt lat="42.2241427" lon="13.8375605"><ele>727.25</ele><time>2026-05-02T09:00:27.139Z</time></trkpt><trkpt lat="42.2240698" lon="13.8377111"><ele>730.5</ele><time>2026-05-02T09:00:28.139Z</time></trkpt><trkpt lat="42.2240076" lon="13.8378523"><ele>733.75</ele><time>2026-05-02T09:00:29.138Z</time></trkpt><trkpt lat="42.2239431" lon="13.8379706"><ele>737.0</ele><time>2026-05-02T09:00:30.139Z</time></trkpt><trkpt lat="42.2238821" lon="13.8380698"><ele>731.0</ele><time>2026-05-02T09:00:31.138Z</time></trkpt><trkpt lat="42.2238202" lon="13.8381553"><ele>725.0</ele><time>2026-05-02T09:00:32.138Z</time></trkpt><trkpt lat="42.2237447" lon="13.8382369"><ele>719.0</ele><time>2026-05-02T09:00:33.138Z</time></trkpt><trkpt lat="42.2236591" lon="13.8383221"><ele>713.0</ele><time>2026-05-02T09:00:34.139Z</time></trkpt><trkpt lat="42.2235639" lon="13.8383981"><ele>707.0</ele><time>2026-05-02T09:00:35.139Z</time></trkpt><trkpt lat="42.2234714" lon="13.8384649"><ele>707.75</ele><time>2026-05-02T09:00:36.138Z</time></trkpt><trkpt lat="42.2233685" lon="13.8385243"><ele>708.5</ele><time>2026-05-02T09:00:37.138Z</time></trkpt><trkpt lat="42.2232491" lon="13.838583"><ele>709.25</ele><time>2026-05-02T09:00:38.14Z</time></trkpt><trkpt lat="42.2231082" lon="13.8386462"><ele>710.0</ele><time>2026-05-02T09:00:39.138Z</time></trkpt><trkpt lat="42.2229569" lon="13.8387092"><ele>710.0</ele><time>2026-05-02T09:00:40.138Z</time></trkpt><trkpt lat="42.2228158" lon="13.8387654"><ele>710.0</ele><time>2026-05-02T09:00:41.138Z</time></trkpt><trkpt lat="42.2226868" lon="13.8388215"><ele>710.0</ele><time>2026-05-02T09:00:42.138Z</time></trkpt><trkpt lat="42.2225657" lon="13.8388786"><ele>710.0</ele><time>2026-05-02T09:00:43.138Z</time></trkpt><trkpt lat="42.2224542" lon="13.8389396"><ele>710.0</ele><time>2026-05-02T09:00:44.138Z</time></trkpt><trkpt lat="42.2223506" lon="13.8390098"><ele>710.0</ele><time>2026-05-02T09:00:45.139Z</time></trkpt><trkpt lat="42.2222506" lon="13.8391015"><ele>710.0</ele><time>2026-05-02T09:00:46.138Z</time></trkpt><trkpt lat="42.2221776" lon="13.839187"><ele>710.0</ele><time>2026-05-02T09:00:47.138Z</time></trkpt><trkpt lat="42.2221174" lon="13.8392598"><ele>710.0</ele><time>2026-05-02T09:00:48.139Z</time></trkpt><trkpt lat="42.2220615" lon="13.8393143"><ele>705.0</ele><time>2026-05-02T09:00:49.138Z</time></trkpt><trkpt lat="42.2219705" lon="13.839291"><ele>700.0</ele><time>2026-05-02T09:00:51.139Z</time></trkpt><trkpt lat="42.2219719" lon="13.8391345"><ele>695.0</ele><time>2026-05-02T09:00:53.138Z</time></trkpt><trkpt lat="42.2220105" lon="13.8390341"><ele>690.0</ele><time>2026-05-02T09:00:54.138Z</time></trkpt><trkpt lat="42.2220549" lon="13.8389128"><ele>685.0</ele><time>2026-05-02T09:00:55.139Z</time></trkpt><trkpt lat="42.2221087" lon="13.838777"><ele>685.0</ele><time>2026-05-02T09:00:56.138Z</time></trkpt><trkpt lat="42.2221646" lon="13.8386379"><ele>685.0</ele><time>2026-05-02T09:00:57.138Z</time></trkpt><trkpt lat="42.2222327" lon="13.8384966"><ele>685.0</ele><time>2026-05-02T09:00:58.138Z</time></trkpt><trkpt lat="42.2223067" lon="13.8383689"><ele>685.0</ele><time>2026-05-02T09:00:59.138Z</time></trkpt><trkpt lat="42.2223991" lon="13.8382388"><ele>687.25</ele><time>2026-05-02T09:01:00.138Z</time></trkpt><trkpt lat="42.2225069" lon="13.8380928"><ele>689.5</ele><time>2026-05-02T09:01:01.138Z</time></trkpt><trkpt lat="42.2226063" lon="13.8379567"><ele>691.75</ele><time>2026-05-02T09:01:02.139Z</time></trkpt><trkpt lat="42.2227014" lon="13.8378345"><ele>694.0</ele><time>2026-05-02T09:01:03.14Z</time></trkpt><trkpt lat="42.2227879" lon="13.8377126"><ele>688.0</ele><time>2026-05-02T09:01:04.14Z</time></trkpt><trkpt lat="42.2228639" lon="13.8375871"><ele>682.0</ele><time>2026-05-02T09:01:05.14Z</time></trkpt><trkpt lat="42.2229249" lon="13.8374653"><ele>676.0</ele><time>2026-05-02T09:01:06.139Z</time></trkpt><trkpt lat="42.2229745" lon="13.8373055"><ele>670.0</ele><time>2026-05-02T09:01:07.138Z</time></trkpt><trkpt lat="42.2230127" lon="13.8371118"><ele>670.0</ele><time>2026-05-02T09:01:08.138Z</time></trkpt><trkpt lat="42.2230504" lon="13.8369092"><ele>670.0</ele><time>2026-05-02T09:01:09.138Z</time></trkpt><trkpt lat="42.2230686" lon="13.8367165"><ele>670.0</ele><time>2026-05-02T09:01:10.138Z</time></trkpt><trkpt lat="42.2230741" lon="13.8365285"><ele>670.0</ele><time>2026-05-02T09:01:11.139Z</time></trkpt><trkpt lat="42.2230775" lon="13.8363636"><ele>667.6</ele><time>2026-05-02T09:01:12.139Z</time></trkpt><trkpt lat="42.2230807" lon="13.8362264"><ele>665.2</ele><time>2026-05-02T09:01:13.139Z</time></trkpt><trkpt lat="42.2230835" lon="13.8361168"><ele>662.8</ele><time>2026-05-02T09:01:14.138Z</time></trkpt><trkpt lat="42.2230293" lon="13.836005"><ele>660.4</ele><time>2026-05-02T09:01:16.138Z</time></trkpt><trkpt lat="42.2229253" lon="13.8360806"><ele>658.0</ele><time>2026-05-02T09:01:18.138Z</time></trkpt><trkpt lat="42.2228668" lon="13.8361828"><ele>658.0</ele><time>2026-05-02T09:01:19.139Z</time></trkpt><trkpt lat="42.2228031" lon="13.8363249"><ele>658.0</ele><time>2026-05-02T09:01:20.138Z</time></trkpt><trkpt lat="42.2227342" lon="13.8364706"><ele>658.0</ele><time>2026-05-02T09:01:21.14Z</time></trkpt><trkpt lat="42.2226711" lon="13.8365801"><ele>658.0</ele><time>2026-05-02T09:01:22.138Z</time></trkpt><trkpt lat="42.222602" lon="13.8366761"><ele>658.0</ele><time>2026-05-02T09:01:23.138Z</time></trkpt><trkpt lat="42.2225172" lon="13.8367626"><ele>658.0</ele><time>2026-05-02T09:01:24.139Z</time></trkpt><trkpt lat="42.2224126" lon="13.8368418"><ele>658.0</ele><time>2026-05-02T09:01:25.139Z</time></trkpt><trkpt lat="42.2222792" lon="13.8369298"><ele>658.0</ele><time>2026-05-02T09:01:26.139Z</time></trkpt><trkpt lat="42.2221301" lon="13.837023"><ele>657.6666666666667</ele><time>2026-05-02T09:01:27.138Z</time></trkpt><trkpt lat="42.2219654" lon="13.8371212"><ele>657.3333333333334</ele><time>2026-05-02T09:01:28.138Z</time></trkpt><trkpt lat="42.2218067" lon="13.8372144"><ele>657.0</ele><time>2026-05-02T09:01:29.139Z</time></trkpt><trkpt lat="42.2216672" lon="13.8373"><ele>657.0</ele><time>2026-05-02T09:01:30.139Z</time></trkpt><trkpt lat="42.2215381" lon="13.837374"><ele>657.0</ele><time>2026-05-02T09:01:31.139Z</time></trkpt><trkpt lat="42.2214225" lon="13.8374405"><ele>657.0</ele><time>2026-05-02T09:01:32.138Z</time></trkpt><trkpt lat="42.2213329" lon="13.8374921"><ele>657.0</ele><time>2026-05-02T09:01:33.14Z</time></trkpt><trkpt lat="42.2212655" lon="13.8375242"><ele>657.0</ele><time>2026-05-02T09:01:34.138Z</time></trkpt><trkpt lat="42.2211942" lon="13.8374646"><ele>657.0</ele><time>2026-05-02T09:01:36.138Z</time></trkpt><trkpt lat="42.2212724" lon="13.8373362"><ele>657.0</ele><time>2026-05-02T09:01:38.14Z</time></trkpt><trkpt lat="42.2213504" lon="13.8372519"><ele>657.0</ele><time>2026-05-02T09:01:39.138Z</time></trkpt><trkpt lat="42.2214396" lon="13.8371528"><ele>657.0</ele><time>2026-05-02T09:01:40.138Z</time></trkpt><trkpt lat="42.2215328" lon="13.8370367"><ele>657.0</ele><time>2026-05-02T09:01:41.138Z</time></trkpt><trkpt lat="42.2216398" lon="13.8368975"><ele>657.0</ele><time>2026-05-02T09:01:42.139Z</time></trkpt><trkpt lat="42.2217407" lon="13.8367589"><ele>657.0</ele><time>2026-05-02T09:01:43.14Z</time></trkpt><trkpt lat="42.2218279" lon="13.8366172"><ele>657.0</ele><time>2026-05-02T09:01:44.138Z</time></trkpt><trkpt lat="42.221914" lon="13.8364607"><ele>653.8</ele><time>2026-05-02T09:01:45.139Z</time></trkpt><trkpt lat="42.221985" lon="13.8363214"><ele>650.6</ele><time>2026-05-02T09:01:46.138Z</time></trkpt><trkpt lat="42.2220432" lon="13.836203"><ele>647.4</ele><time>2026-05-02T09:01:47.138Z</time></trkpt><trkpt lat="42.2220879" lon="13.8361132"><ele>644.1999999999999</ele><time>2026-05-02T09:01:48.138Z</time></trkpt><trkpt lat="42.2220952" lon="13.8359812"><ele>641.0</ele><time>2026-05-02T09:01:50.139Z</time></trkpt><trkpt lat="42.2220065" lon="13.8359763"><ele>641.0</ele><time>2026-05-02T09:01:52.138Z</time></trkpt><trkpt lat="42.2219503" lon="13.8360278"><ele>641.0</ele><time>2026-05-02T09:01:53.138Z</time></trkpt><trkpt lat="42.2218825" lon="13.8361111"><ele>641.0</ele><time>2026-05-02T09:01:54.139Z</time></trkpt><trkpt lat="42.2218027" lon="13.8362012"><ele>641.0</ele><time>2026-05-02T09:01:55.139Z</time></trkpt><trkpt lat="42.2217025" lon="13.8362994"><ele>641.0</ele><time>2026-05-02T09:01:56.139Z</time></trkpt><trkpt lat="42.2215845" lon="13.8364121"><ele>638.0</ele><time>2026-05-02T09:01:57.139Z</time></trkpt><trkpt lat="42.2214628" lon="13.8365254"><ele>635.0</ele><time>2026-05-02T09:01:58.138Z</time></trkpt><trkpt lat="42.2213395" lon="13.8366218"><ele>632.0</ele><time>2026-05-02T09:01:59.14Z</time></trkpt><trkpt lat="42.2212057" lon="13.8367247"><ele>629.0</ele><time>2026-05-02T09:02:00.139Z</time></trkpt><trkpt lat="42.2210851" lon="13.8368183"><ele>629.0</ele><time>2026-05-02T09:02:01.139Z</time></trkpt><trkpt lat="42.2209775" lon="13.8369061"><ele>629.0</ele><time>2026-05-02T09:02:02.139Z</time></trkpt><trkpt lat="42.2208794" lon="13.8370143"><ele>629.0</ele><time>2026-05-02T09:02:03.139Z</time></trkpt><trkpt lat="42.2207793" lon="13.8371554"><ele>629.0</ele><time>2026-05-02T09:02:04.138Z</time></trkpt><trkpt lat="42.2206822" lon="13.8373039"><ele>618.25</ele><time>2026-05-02T09:02:05.138Z</time></trkpt><trkpt lat="42.220594" lon="13.837454"><ele>607.5</ele><time>2026-05-02T09:02:06.138Z</time></trkpt><trkpt lat="42.2205212" lon="13.837611"><ele>596.75</ele><time>2026-05-02T09:02:07.139Z</time></trkpt><trkpt lat="42.2204602" lon="13.8377749"><ele>586.0</ele><time>2026-05-02T09:02:08.139Z</time></trkpt><trkpt lat="42.2204089" lon="13.8379402"><ele>586.0</ele><time>2026-05-02T09:02:09.14Z</time></trkpt><trkpt lat="42.2203645" lon="13.8381111"><ele>586.0</ele><time>2026-05-02T09:02:10.138Z</time></trkpt><trkpt lat="42.2203203" lon="13.8382777"><ele>586.0</ele><time>2026-05-02T09:02:11.139Z</time></trkpt><trkpt lat="42.2202862" lon="13.8384241"><ele>586.0</ele><time>2026-05-02T09:02:12.138Z</time></trkpt><trkpt lat="42.2202779" lon="13.8385546"><ele>588.6</ele><time>2026-05-02T09:02:13.139Z</time></trkpt><trkpt lat="42.2202913" lon="13.8386927"><ele>591.2</ele><time>2026-05-02T09:02:14.138Z</time></trkpt><trkpt lat="42.220288" lon="13.8388168"><ele>593.8</ele><time>2026-05-02T09:02:15.139Z</time></trkpt><trkpt lat="42.2202562" lon="13.8389176"><ele>596.4</ele><time>2026-05-02T09:02:16.139Z</time></trkpt><trkpt lat="42.2202023" lon="13.839029"><ele>599.0</ele><time>2026-05-02T09:02:17.139Z</time></trkpt><trkpt lat="42.2201338" lon="13.8391663"><ele>606.6666666666666</ele><time>2026-05-02T09:02:18.138Z</time></trkpt><trkpt lat="42.2200541" lon="13.8393208"><ele>614.3333333333334</ele><time>2026-05-02T09:02:19.138Z</time></trkpt><trkpt lat="42.2199564" lon="13.839474"><ele>622.0</ele><time>2026-05-02T09:02:20.139Z</time></trkpt><trkpt lat="42.2198414" lon="13.839636"><ele>605.6666666666667</ele><time>2026-05-02T09:02:21.14Z</time></trkpt><trkpt lat="42.2197184" lon="13.8398014"><ele>589.3333333333334</ele><time>2026-05-02T09:02:22.139Z</time></trkpt><trkpt lat="42.2196016" lon="13.8399569"><ele>573.0</ele><time>2026-05-02T09:02:23.139Z</time></trkpt><trkpt lat="42.2194821" lon="13.8401204"><ele>580.25</ele><time>2026-05-02T09:02:24.138Z</time></trkpt><trkpt lat="42.2193904" lon="13.8402463"><ele>587.5</ele><time>2026-05-02T09:02:25.139Z</time></trkpt><trkpt lat="42.2193034" lon="13.8403805"><ele>594.75</ele><time>2026-05-02T09:02:26.139Z</time></trkpt><trkpt lat="42.2192322" lon="13.8404911"><ele>602.0</ele><time>2026-05-02T09:02:27.139Z</time></trkpt><trkpt lat="42.2191716" lon="13.840579"><ele>602.0</ele><time>2026-05-02T09:02:28.139Z</time></trkpt><trkpt lat="42.2191188" lon="13.8406446"><ele>602.0</ele><time>2026-05-02T09:02:29.139Z</time></trkpt><trkpt lat="42.2190398" lon="13.8406296"><ele>602.0</ele><time>2026-05-02T09:02:31.14Z</time></trkpt><trkpt lat="42.219054" lon="13.8404916"><ele>602.0</ele><time>2026-05-02T09:02:33.138Z</time></trkpt><trkpt lat="42.2191004" lon="13.8404164"><ele>602.0</ele><time>2026-05-02T09:02:34.138Z</time></trkpt><trkpt lat="42.2191546" lon="13.8403241"><ele>602.0</ele><time>2026-05-02T09:02:35.138Z</time></trkpt><trkpt lat="42.2192105" lon="13.8402034"><ele>592.3333333333333</ele><time>2026-05-02T09:02:36.138Z</time></trkpt><trkpt lat="42.2192702" lon="13.8400497"><ele>582.6666666666666</ele><time>2026-05-02T09:02:37.14Z</time></trkpt><trkpt lat="42.2193419" lon="13.839871"><ele>573.0</ele><time>2026-05-02T09:02:38.139Z</time></trkpt><trkpt lat="42.2194204" lon="13.839664"><ele>573.0</ele><time>2026-05-02T09:02:39.138Z</time></trkpt><trkpt lat="42.2195002" lon="13.8394462"><ele>573.0</ele><time>2026-05-02T09:02:40.139Z</time></trkpt><trkpt lat="42.2195743" lon="13.839261"><ele>573.0</ele><time>2026-05-02T09:02:41.138Z</time></trkpt><trkpt lat="42.2196364" lon="13.8391038"><ele>569.0</ele><time>2026-05-02T09:02:42.139Z</time></trkpt><trkpt lat="42.2196912" lon="13.8389742"><ele>565.0</ele><time>2026-05-02T09:02:43.138Z</time></trkpt><trkpt lat="42.2197336" lon="13.8388527"><ele>561.0</ele><time>2026-05-02T09:02:44.138Z</time></trkpt><trkpt lat="42.2197484" lon="13.8387309"><ele>557.0</ele><time>2026-05-02T09:02:45.138Z</time></trkpt><trkpt lat="42.219738" lon="13.8385971"><ele>553.0</ele><time>2026-05-02T09:02:46.138Z</time></trkpt><trkpt lat="42.2197137" lon="13.8384353"><ele>548.25</ele><time>2026-05-02T09:02:47.138Z</time></trkpt><trkpt lat="42.2196936" lon="13.8382576"><ele>543.5</ele><time>2026-05-02T09:02:48.138Z</time></trkpt><trkpt lat="42.2196809" lon="13.8380528"><ele>538.75</ele><time>2026-05-02T09:02:49.138Z</time></trkpt><trkpt lat="42.2196703" lon="13.8378396"><ele>534.0</ele><time>2026-05-02T09:02:50.139Z</time></trkpt><trkpt lat="42.219666" lon="13.8376488"><ele>531.75</ele><time>2026-05-02T09:02:51.139Z</time></trkpt><trkpt lat="42.2196661" lon="13.8374808"><ele>529.5</ele><time>2026-05-02T09:02:52.139Z</time></trkpt><trkpt lat="42.2196805" lon="13.8373187"><ele>527.25</ele><time>2026-05-02T09:02:53.139Z</time></trkpt><trkpt lat="42.2197057" lon="13.837128"><ele>525.0</ele><time>2026-05-02T09:02:54.139Z</time></trkpt><trkpt lat="42.2197367" lon="13.836932"><ele>521.5</ele><time>2026-05-02T09:02:55.139Z</time></trkpt><trkpt lat="42.2197727" lon="13.8367566"><ele>518.0</ele><time>2026-05-02T09:02:56.138Z</time></trkpt><trkpt lat="42.2198284" lon="13.8365651"><ele>514.5</ele><time>2026-05-02T09:02:57.138Z</time></trkpt><trkpt lat="42.2198877" lon="13.8363967"><ele>511.0</ele><time>2026-05-02T09:02:58.139Z</time></trkpt><trkpt lat="42.2199431" lon="13.8362443"><ele>516.0</ele><time>2026-05-02T09:02:59.14Z</time></trkpt><trkpt lat="42.2200051" lon="13.8361186"><ele>521.0</ele><time>2026-05-02T09:03:00.139Z</time></trkpt><trkpt lat="42.2200724" lon="13.8360233"><ele>526.0</ele><time>2026-05-02T09:03:01.139Z</time></trkpt><trkpt lat="42.2201282" lon="13.8359413"><ele>531.0</ele><time>2026-05-02T09:03:02.139Z</time></trkpt><trkpt lat="42.2201697" lon="13.8358144"><ele>536.0</ele><time>2026-05-02T09:03:04.139Z</time></trkpt><trkpt lat="42.2200989" lon="13.8358032"><ele>536.0</ele><time>2026-05-02T09:03:05.138Z</time></trkpt><trkpt lat="42.2200292" lon="13.8358623"><ele>536.0</ele><time>2026-05-02T09:03:06.138Z</time></trkpt><trkpt lat="42.219958" lon="13.835942"><ele>536.0</ele><time>2026-05-02T09:03:07.139Z</time></trkpt><trkpt lat="42.2198683" lon="13.8360444"><ele>536.0</ele><time>2026-05-02T09:03:08.14Z</time></trkpt><trkpt lat="42.2197741" lon="13.8361807"><ele>536.0</ele><time>2026-05-02T09:03:09.14Z</time></trkpt><trkpt lat="42.2196715" lon="13.8363474"><ele>532.3333333333333</ele><time>2026-05-02T09:03:10.138Z</time></trkpt><trkpt lat="42.2195677" lon="13.8365276"><ele>528.6666666666666</ele><time>2026-05-02T09:03:11.138Z</time></trkpt><trkpt lat="42.2194732" lon="13.8367049"><ele>525.0</ele><time>2026-05-02T09:03:12.14Z</time></trkpt><trkpt lat="42.2193834" lon="13.8368852"><ele>525.0</ele><time>2026-05-02T09:03:13.14Z</time></trkpt><trkpt lat="42.2193019" lon="13.8370635"><ele>525.0</ele><time>2026-05-02T09:03:14.138Z</time></trkpt><trkpt lat="42.2192254" lon="13.837239"><ele>525.0</ele><time>2026-05-02T09:03:15.138Z</time></trkpt><trkpt lat="42.2191604" lon="13.8374111"><ele>525.0</ele><time>2026-05-02T09:03:16.138Z</time></trkpt><trkpt lat="42.2191095" lon="13.837576"><ele>527.25</ele><time>2026-05-02T09:03:17.138Z</time></trkpt><trkpt lat="42.2190711" lon="13.8377454"><ele>529.5</ele><time>2026-05-02T09:03:18.139Z</time></trkpt><trkpt lat="42.2190347" lon="13.8379171"><ele>531.75</ele><time>2026-05-02T09:03:19.14Z</time></trkpt><trkpt lat="42.2190173" lon="13.8380864"><ele>534.0</ele><time>2026-05-02T09:03:20.139Z</time></trkpt><trkpt lat="42.2189963" lon="13.8382413"><ele>528.2</ele><time>2026-05-02T09:03:21.139Z</time></trkpt><trkpt lat="42.2189689" lon="13.8383704"><ele>522.4</ele><time>2026-05-02T09:03:22.138Z</time></trkpt><trkpt lat="42.2189189" lon="13.8384626"><ele>516.6</ele><time>2026-05-02T09:03:23.139Z</time></trkpt><trkpt lat="42.2188507" lon="13.8385501"><ele>510.8</ele><time>2026-05-02T09:03:24.139Z</time></trkpt><trkpt lat="42.2187606" lon="13.8386486"><ele>505.0</ele><time>2026-05-02T09:03:25.139Z</time></trkpt><trkpt lat="42.2186475" lon="13.8387686"><ele>505.0</ele><time>2026-05-02T09:03:26.139Z</time></trkpt><trkpt lat="42.218525" lon="13.8389118"><ele>505.0</ele><time>2026-05-02T09:03:27.138Z</time></trkpt><trkpt lat="42.2183904" lon="13.8390822"><ele>505.0</ele><time>2026-05-02T09:03:28.138Z</time></trkpt><trkpt lat="42.2182431" lon="13.8392697"><ele>500.33333333333337</ele><time>2026-05-02T09:03:29.138Z</time></trkpt><trkpt lat="42.2181043" lon="13.8394411"><ele>495.66666666666663</ele><time>2026-05-02T09:03:30.139Z</time></trkpt><trkpt lat="42.2179834" lon="13.839596"><ele>491.0</ele><time>2026-05-02T09:03:31.138Z</time></trkpt><trkpt lat="42.2178681" lon="13.8397342"><ele>491.0</ele><time>2026-05-02T09:03:32.14Z</time></trkpt><trkpt lat="42.2177444" lon="13.8398739"><ele>491.0</ele><time>2026-05-02T09:03:33.139Z</time></trkpt><trkpt lat="42.2176028" lon="13.8400114"><ele>491.0</ele><time>2026-05-02T09:03:34.138Z</time></trkpt><trkpt lat="42.2174524" lon="13.8401597"><ele>487.3333333333333</ele><time>2026-05-02T09:03:35.138Z</time></trkpt><trkpt lat="42.2173104" lon="13.8402973"><ele>483.66666666666663</ele><time>2026-05-02T09:03:36.139Z</time></trkpt><trkpt lat="42.2171787" lon="13.8404148"><ele>480.0</ele><time>2026-05-02T09:03:37.139Z</time></trkpt><trkpt lat="42.2170576" lon="13.8405251"><ele>480.0</ele><time>2026-05-02T09:03:38.138Z</time></trkpt><trkpt lat="42.2169414" lon="13.8406133"><ele>480.0</ele><time>2026-05-02T09:03:39.138Z</time></trkpt><trkpt lat="42.2168178" lon="13.8406946"><ele>480.0</ele><time>2026-05-02T09:03:40.139Z</time></trkpt><trkpt lat="42.2166811" lon="13.8407773"><ele>480.0</ele><time>2026-05-02T09:03:41.138Z</time></trkpt><trkpt lat="42.2165476" lon="13.840857"><ele>477.5</ele><time>2026-05-02T09:03:42.139Z</time></trkpt><trkpt lat="42.2164092" lon="13.8409376"><ele>475.0</ele><time>2026-05-02T09:03:43.139Z</time></trkpt><trkpt lat="42.216275" lon="13.8410187"><ele>472.5</ele><time>2026-05-02T09:03:44.138Z</time></trkpt><trkpt lat="42.2161475" lon="13.8410938"><ele>470.0</ele><time>2026-05-02T09:03:45.138Z</time></trkpt><trkpt lat="42.2160293" lon="13.8411601"><ele>470.0</ele><time>2026-05-02T09:03:46.139Z</time></trkpt><trkpt lat="42.2159099" lon="13.8412187"><ele>470.0</ele><time>2026-05-02T09:03:47.138Z</time></trkpt><trkpt lat="42.2157936" lon="13.8412582"><ele>470.0</ele><time>2026-05-02T09:03:48.138Z</time></trkpt><trkpt lat="42.2156799" lon="13.8412808"><ele>470.0</ele><time>2026-05-02T09:03:49.138Z</time></trkpt><trkpt lat="42.215585" lon="13.8412886"><ele>465.6</ele><time>2026-05-02T09:03:50.138Z</time></trkpt><trkpt lat="42.2154978" lon="13.8412712"><ele>461.2</ele><time>2026-05-02T09:03:51.139Z</time></trkpt><trkpt lat="42.215423" lon="13.8412271"><ele>456.79999999999995</ele><time>2026-05-02T09:03:52.138Z</time></trkpt><trkpt lat="42.2153551" lon="13.8411031"><ele>452.4</ele><time>2026-05-02T09:03:53.138Z</time></trkpt><trkpt lat="42.2152914" lon="13.8409455"><ele>448.0</ele><time>2026-05-02T09:03:54.138Z</time></trkpt><trkpt lat="42.215235" lon="13.8407912"><ele>446.59999999999997</ele><time>2026-05-02T09:03:55.139Z</time></trkpt><trkpt lat="42.2151886" lon="13.8406584"><ele>445.19999999999993</ele><time>2026-05-02T09:03:56.138Z</time></trkpt><trkpt lat="42.2151535" lon="13.8405372"><ele>443.8</ele><time>2026-05-02T09:03:57.139Z</time></trkpt><trkpt lat="42.215152" lon="13.8404302"><ele>442.4</ele><time>2026-05-02T09:03:58.139Z</time></trkpt><trkpt lat="42.2151991" lon="13.840323"><ele>441.0</ele><time>2026-05-02T09:03:59.139Z</time></trkpt><trkpt lat="42.2152821" lon="13.8402131"><ele>440.5</ele><time>2026-05-02T09:04:00.138Z</time></trkpt><trkpt lat="42.2153954" lon="13.8401072"><ele>440.0</ele><time>2026-05-02T09:04:01.139Z</time></trkpt><trkpt lat="42.2155059" lon="13.8400079"><ele>439.5</ele><time>2026-05-02T09:04:02.138Z</time></trkpt><trkpt lat="42.2156111" lon="13.8399064"><ele>439.0</ele><time>2026-05-02T09:04:03.139Z</time></trkpt><trkpt lat="42.2157143" lon="13.8398111"><ele>437.75</ele><time>2026-05-02T09:04:04.138Z</time></trkpt><trkpt lat="42.2157973" lon="13.8397029"><ele>436.5</ele><time>2026-05-02T09:04:05.139Z</time></trkpt><trkpt lat="42.2158724" lon="13.8395662"><ele>435.25</ele><time>2026-05-02T09:04:06.138Z</time></trkpt><trkpt lat="42.2159497" lon="13.8393979"><ele>434.0</ele><time>2026-05-02T09:04:07.138Z</time></trkpt><trkpt lat="42.2160344" lon="13.8391981"><ele>434.0</ele><time>2026-05-02T09:04:08.138Z</time></trkpt><trkpt lat="42.2161204" lon="13.8389808"><ele>434.0</ele><time>2026-05-02T09:04:09.14Z</time></trkpt><trkpt lat="42.2161951" lon="13.8387731"><ele>434.0</ele><time>2026-05-02T09:04:10.138Z</time></trkpt><trkpt lat="42.2162678" lon="13.8385436"><ele>430.3333333333333</ele><time>2026-05-02T09:04:11.139Z</time></trkpt><trkpt lat="42.2163401" lon="13.8382933"><ele>426.66666666666663</ele><time>2026-05-02T09:04:12.14Z</time></trkpt><trkpt lat="42.2164054" lon="13.838032"><ele>423.0</ele><time>2026-05-02T09:04:13.138Z</time></trkpt><trkpt lat="42.2164655" lon="13.8377804"><ele>423.0</ele><time>2026-05-02T09:04:14.138Z</time></trkpt><trkpt lat="42.2165256" lon="13.8375267"><ele>423.0</ele><time>2026-05-02T09:04:15.139Z</time></trkpt><trkpt lat="42.2165824" lon="13.8372867"><ele>423.0</ele><time>2026-05-02T09:04:16.139Z</time></trkpt><trkpt lat="42.2166344" lon="13.8370665"><ele>423.0</ele><time>2026-05-02T09:04:17.138Z</time></trkpt><trkpt lat="42.216686" lon="13.8368513"><ele>423.0</ele><time>2026-05-02T09:04:18.138Z</time></trkpt><trkpt lat="42.2167457" lon="13.836633"><ele>423.0</ele><time>2026-05-02T09:04:19.138Z</time></trkpt><trkpt lat="42.2168236" lon="13.836414"><ele>419.0</ele><time>2026-05-02T09:04:20.139Z</time></trkpt><trkpt lat="42.2169125" lon="13.8362014"><ele>415.0</ele><time>2026-05-02T09:04:21.138Z</time></trkpt><trkpt lat="42.2170144" lon="13.835993"><ele>411.0</ele><time>2026-05-02T09:04:22.139Z</time></trkpt><trkpt lat="42.2171258" lon="13.8357778"><ele>411.0</ele><time>2026-05-02T09:04:23.138Z</time></trkpt><trkpt lat="42.2172317" lon="13.8355874"><ele>411.0</ele><time>2026-05-02T09:04:24.139Z</time></trkpt><trkpt lat="42.2173262" lon="13.8354225"><ele>411.0</ele><time>2026-05-02T09:04:25.138Z</time></trkpt><trkpt lat="42.2174109" lon="13.8352777"><ele>411.0</ele><time>2026-05-02T09:04:26.138Z</time></trkpt><trkpt lat="42.2174858" lon="13.8351502"><ele>411.0</ele><time>2026-05-02T09:04:27.138Z</time></trkpt><trkpt lat="42.2175382" lon="13.8350222"><ele>411.0</ele><time>2026-05-02T09:04:28.139Z</time></trkpt><trkpt lat="42.2175697" lon="13.8348888"><ele>411.0</ele><time>2026-05-02T09:04:29.139Z</time></trkpt><trkpt lat="42.2175712" lon="13.8347509"><ele>411.0</ele><time>2026-05-02T09:04:30.139Z</time></trkpt><trkpt lat="42.2175533" lon="13.8345729"><ele>407.0</ele><time>2026-05-02T09:04:31.14Z</time></trkpt><trkpt lat="42.2175302" lon="13.8343732"><ele>403.0</ele><time>2026-05-02T09:04:32.138Z</time></trkpt><trkpt lat="42.2175093" lon="13.8341564"><ele>399.0</ele><time>2026-05-02T09:04:33.139Z</time></trkpt><trkpt lat="42.2174861" lon="13.8339321"><ele>396.33333333333337</ele><time>2026-05-02T09:04:34.138Z</time></trkpt><trkpt lat="42.2174624" lon="13.8337244"><ele>393.6666666666667</ele><time>2026-05-02T09:04:35.139Z</time></trkpt><trkpt lat="42.2174379" lon="13.8335242"><ele>391.0</ele><time>2026-05-02T09:04:36.138Z</time></trkpt><trkpt lat="42.21742" lon="13.8333281"><ele>388.33333333333337</ele><time>2026-05-02T09:04:37.138Z</time></trkpt><trkpt lat="42.217413" lon="13.8331162"><ele>385.6666666666667</ele><time>2026-05-02T09:04:38.138Z</time></trkpt><trkpt lat="42.2174212" lon="13.8328914"><ele>383.0</ele><time>2026-05-02T09:04:39.138Z</time></trkpt><trkpt lat="42.2174311" lon="13.8326717"><ele>380.6666666666667</ele><time>2026-05-02T09:04:40.138Z</time></trkpt><trkpt lat="42.2174483" lon="13.8324378"><ele>378.3333333333333</ele><time>2026-05-02T09:04:41.138Z</time></trkpt><trkpt lat="42.217465" lon="13.8322025"><ele>376.0</ele><time>2026-05-02T09:04:42.139Z</time></trkpt><trkpt lat="42.2174845" lon="13.8319764"><ele>374.66666666666663</ele><time>2026-05-02T09:04:43.138Z</time></trkpt><trkpt lat="42.217503" lon="13.8317529"><ele>373.3333333333333</ele><time>2026-05-02T09:04:44.138Z</time></trkpt><trkpt lat="42.217522" lon="13.8315346"><ele>372.0</ele><time>2026-05-02T09:04:45.139Z</time></trkpt><trkpt lat="42.217546" lon="13.8313342"><ele>372.0</ele><time>2026-05-02T09:04:46.139Z</time></trkpt><trkpt lat="42.2175795" lon="13.8311738"><ele>372.0</ele><time>2026-05-02T09:04:47.139Z</time></trkpt><trkpt lat="42.2176189" lon="13.8310388"><ele>372.0</ele><time>2026-05-02T09:04:48.139Z</time></trkpt><trkpt lat="42.2176637" lon="13.8309009"><ele>372.0</ele><time>2026-05-02T09:04:49.139Z</time></trkpt><trkpt lat="42.2177148" lon="13.8307509"><ele>371.5</ele><time>2026-05-02T09:04:50.139Z</time></trkpt><trkpt lat="42.2177574" lon="13.8306101"><ele>371.0</ele><time>2026-05-02T09:04:51.138Z</time></trkpt><trkpt lat="42.2177935" lon="13.8304892"><ele>370.5</ele><time>2026-05-02T09:04:52.138Z</time></trkpt><trkpt lat="42.2178315" lon="13.8303852"><ele>370.0</ele><time>2026-05-02T09:04:53.138Z</time></trkpt><trkpt lat="42.2178698" lon="13.8302942"><ele>369.5</ele><time>2026-05-02T09:04:54.138Z</time></trkpt><trkpt lat="42.2179074" lon="13.8302112"><ele>369.0</ele><time>2026-05-02T09:04:55.138Z</time></trkpt><trkpt lat="42.217944" lon="13.8301347"><ele>368.0</ele><time>2026-05-02T09:04:56.138Z</time></trkpt><trkpt lat="42.21799" lon="13.8299765"><ele>367.0</ele><time>2026-05-02T09:04:58.14Z</time></trkpt><trkpt lat="42.2180071" lon="13.8298764"><ele>366.0</ele><time>2026-05-02T09:04:59.138Z</time></trkpt><trkpt lat="42.2180206" lon="13.8297574"><ele>365.0</ele><time>2026-05-02T09:05:00.138Z</time></trkpt><trkpt lat="42.2180284" lon="13.8296151"><ele>364.0</ele><time>2026-05-02T09:05:01.138Z</time></trkpt><trkpt lat="42.2180258" lon="13.8294744"><ele>364.0</ele><time>2026-05-02T09:05:02.138Z</time></trkpt><trkpt lat="42.2180155" lon="13.82931"><ele>364.0</ele><time>2026-05-02T09:05:03.138Z</time></trkpt><trkpt lat="42.2180003" lon="13.8291215"><ele>364.0</ele><time>2026-05-02T09:05:04.138Z</time></trkpt><trkpt lat="42.217976" lon="13.8289174"><ele>364.0</ele><time>2026-05-02T09:05:05.138Z</time></trkpt><trkpt lat="42.2179534" lon="13.8286916"><ele>361.3333333333333</ele><time>2026-05-02T09:05:06.138Z</time></trkpt><trkpt lat="42.2179359" lon="13.8284661"><ele>358.6666666666667</ele><time>2026-05-02T09:05:07.138Z</time></trkpt><trkpt lat="42.2179204" lon="13.8282483"><ele>356.0</ele><time>2026-05-02T09:05:08.138Z</time></trkpt><trkpt lat="42.2179072" lon="13.8280297"><ele>356.0</ele><time>2026-05-02T09:05:09.138Z</time></trkpt><trkpt lat="42.2178933" lon="13.8278223"><ele>356.0</ele><time>2026-05-02T09:05:10.138Z</time></trkpt><trkpt lat="42.2178772" lon="13.827623"><ele>356.0</ele><time>2026-05-02T09:05:11.139Z</time></trkpt><trkpt lat="42.2178713" lon="13.827428"><ele>356.0</ele><time>2026-05-02T09:05:12.138Z</time></trkpt><trkpt lat="42.2178706" lon="13.8272502"><ele>354.6</ele><time>2026-05-02T09:05:13.139Z</time></trkpt><trkpt lat="42.2178724" lon="13.8270957"><ele>353.20000000000005</ele><time>2026-05-02T09:05:14.139Z</time></trkpt><trkpt lat="42.2178593" lon="13.8269622"><ele>351.79999999999995</ele><time>2026-05-02T09:05:15.14Z</time></trkpt><trkpt lat="42.2178192" lon="13.8268485"><ele>350.4</ele><time>2026-05-02T09:05:16.139Z</time></trkpt><trkpt lat="42.2177774" lon="13.826748"><ele>349.0</ele><time>2026-05-02T09:05:17.138Z</time></trkpt><trkpt lat="42.2176241" lon="13.8266792"><ele>347.6</ele><time>2026-05-02T09:05:18.138Z</time></trkpt><trkpt lat="42.2175342" lon="13.8266084"><ele>346.2</ele><time>2026-05-02T09:05:19.139Z</time></trkpt><trkpt lat="42.217454" lon="13.8265514"><ele>344.8</ele><time>2026-05-02T09:05:20.139Z</time></trkpt><trkpt lat="42.2173944" lon="13.8264924"><ele>343.40000000000003</ele><time>2026-05-02T09:05:21.138Z</time></trkpt><trkpt lat="42.2173533" lon="13.8263555"><ele>342.0</ele><time>2026-05-02T09:05:23.139Z</time></trkpt><trkpt lat="42.2173885" lon="13.8262624"><ele>342.0</ele><time>2026-05-02T09:05:24.139Z</time></trkpt><trkpt lat="42.2174559" lon="13.8261541"><ele>342.0</ele><time>2026-05-02T09:05:25.139Z</time></trkpt><trkpt lat="42.2175398" lon="13.8260266"><ele>342.0</ele><time>2026-05-02T09:05:26.139Z</time></trkpt><trkpt lat="42.2176227" lon="13.8258898"><ele>342.0</ele><time>2026-05-02T09:05:27.138Z</time></trkpt><trkpt lat="42.2176895" lon="13.8257778"><ele>340.1666666666667</ele><time>2026-05-02T09:05:28.138Z</time></trkpt><trkpt lat="42.2177376" lon="13.8256713"><ele>338.3333333333333</ele><time>2026-05-02T09:05:29.14Z</time></trkpt><trkpt lat="42.2177599" lon="13.8255675"><ele>336.5</ele><time>2026-05-02T09:05:30.138Z</time></trkpt><trkpt lat="42.2177561" lon="13.8254654"><ele>334.66666666666663</ele><time>2026-05-02T09:05:31.138Z</time></trkpt><trkpt lat="42.2177288" lon="13.8253509"><ele>332.8333333333333</ele><time>2026-05-02T09:05:32.138Z</time></trkpt><trkpt lat="42.21767" lon="13.8252592"><ele>331.0</ele><time>2026-05-02T09:05:33.138Z</time></trkpt><trkpt lat="42.2175808" lon="13.8252058"><ele>331.0</ele><time>2026-05-02T09:05:34.139Z</time></trkpt><trkpt lat="42.2174706" lon="13.8251741"><ele>331.0</ele><time>2026-05-02T09:05:35.139Z</time></trkpt><trkpt lat="42.21736" lon="13.8251487"><ele>331.0</ele><time>2026-05-02T09:05:36.138Z</time></trkpt><trkpt lat="42.2172576" lon="13.8251217"><ele>331.0</ele><time>2026-05-02T09:05:37.138Z</time></trkpt><trkpt lat="42.2171823" lon="13.825076"><ele>331.0</ele><time>2026-05-02T09:05:38.139Z</time></trkpt><trkpt lat="42.2171222" lon="13.8250141"><ele>329.20000000000005</ele><time>2026-05-02T09:05:39.138Z</time></trkpt><trkpt lat="42.217063" lon="13.8249347"><ele>327.40000000000003</ele><time>2026-05-02T09:05:40.139Z</time></trkpt><trkpt lat="42.217008" lon="13.8248379"><ele>325.6</ele><time>2026-05-02T09:05:41.138Z</time></trkpt><trkpt lat="42.2169437" lon="13.8247149"><ele>323.8</ele><time>2026-05-02T09:05:42.139Z</time></trkpt><trkpt lat="42.2168741" lon="13.8245639"><ele>322.0</ele><time>2026-05-02T09:05:43.138Z</time></trkpt><trkpt lat="42.216801" lon="13.8243981"><ele>321.25</ele><time>2026-05-02T09:05:44.138Z</time></trkpt><trkpt lat="42.2167256" lon="13.8242334"><ele>320.5</ele><time>2026-05-02T09:05:45.138Z</time></trkpt><trkpt lat="42.2166522" lon="13.8240698"><ele>319.75</ele><time>2026-05-02T09:05:46.138Z</time></trkpt><trkpt lat="42.2165776" lon="13.8239065"><ele>319.0</ele><time>2026-05-02T09:05:47.138Z</time></trkpt><trkpt lat="42.2165021" lon="13.8237422"><ele>317.75</ele><time>2026-05-02T09:05:48.138Z</time></trkpt><trkpt lat="42.2164294" lon="13.8235771"><ele>316.5</ele><time>2026-05-02T09:05:49.138Z</time></trkpt><trkpt lat="42.2163624" lon="13.8234148"><ele>315.25</ele><time>2026-05-02T09:05:50.138Z</time></trkpt><trkpt lat="42.2163031" lon="13.823255"><ele>314.0</ele><time>2026-05-02T09:05:51.139Z</time></trkpt><trkpt lat="42.2162445" lon="13.8230964"><ele>313.75</ele><time>2026-05-02T09:05:52.138Z</time></trkpt><trkpt lat="42.2161898" lon="13.8229465"><ele>313.5</ele><time>2026-05-02T09:05:53.139Z</time></trkpt><trkpt lat="42.216135" lon="13.8228091"><ele>313.25</ele><time>2026-05-02T09:05:54.138Z</time></trkpt><trkpt lat="42.2160727" lon="13.82267"><ele>313.0</ele><time>2026-05-02T09:05:55.138Z</time></trkpt><trkpt lat="42.2160081" lon="13.8225375"><ele>313.4</ele><time>2026-05-02T09:05:56.138Z</time></trkpt><trkpt lat="42.215935" lon="13.8224369"><ele>313.8</ele><time>2026-05-02T09:05:57.138Z</time></trkpt><trkpt lat="42.2158479" lon="13.822371"><ele>314.2</ele><time>2026-05-02T09:05:58.138Z</time></trkpt><trkpt lat="42.215749" lon="13.8223305"><ele>314.6</ele><time>2026-05-02T09:05:59.138Z</time></trkpt><trkpt lat="42.2156424" lon="13.8223157"><ele>315.0</ele><time>2026-05-02T09:06:00.139Z</time></trkpt><trkpt lat="42.2155236" lon="13.8223309"><ele>315.5</ele><time>2026-05-02T09:06:01.138Z</time></trkpt><trkpt lat="42.2153974" lon="13.8223736"><ele>316.0</ele><time>2026-05-02T09:06:02.139Z</time></trkpt><trkpt lat="42.2152742" lon="13.8224403"><ele>316.5</ele><time>2026-05-02T09:06:03.139Z</time></trkpt><trkpt lat="42.2151464" lon="13.8225201"><ele>317.0</ele><time>2026-05-02T09:06:04.138Z</time></trkpt><trkpt lat="42.215017" lon="13.822596"><ele>317.0</ele><time>2026-05-02T09:06:05.138Z</time></trkpt><trkpt lat="42.2149" lon="13.822665"><ele>317.0</ele><time>2026-05-02T09:06:06.138Z</time></trkpt><trkpt lat="42.214795" lon="13.8227211"><ele>317.0</ele><time>2026-05-02T09:06:07.139Z</time></trkpt><trkpt lat="42.214693" lon="13.8227665"><ele>317.0</ele><time>2026-05-02T09:06:08.139Z</time></trkpt><trkpt lat="42.2145983" lon="13.8227894"><ele>317.0</ele><time>2026-05-02T09:06:09.139Z</time></trkpt><trkpt lat="42.2145071" lon="13.8227913"><ele>317.0</ele><time>2026-05-02T09:06:10.138Z</time></trkpt><trkpt lat="42.2144199" lon="13.8227491"><ele>317.0</ele><time>2026-05-02T09:06:11.139Z</time></trkpt><trkpt lat="42.2143389" lon="13.8226885"><ele>317.0</ele><time>2026-05-02T09:06:12.138Z</time></trkpt><trkpt lat="42.2142752" lon="13.8226255"><ele>317.0</ele><time>2026-05-02T09:06:13.138Z</time></trkpt><trkpt lat="42.2142105" lon="13.822572"><ele>317.0</ele><time>2026-05-02T09:06:14.138Z</time></trkpt><trkpt lat="42.2141558" lon="13.8224384"><ele>317.0</ele><time>2026-05-02T09:06:16.139Z</time></trkpt><trkpt lat="42.2140847" lon="13.8223198"><ele>317.0</ele><time>2026-05-02T09:06:18.138Z</time></trkpt><trkpt lat="42.2140576" lon="13.8222063"><ele>317.0</ele><time>2026-05-02T09:06:20.14Z</time></trkpt><trkpt lat="42.2140448" lon="13.8221012"><ele>317.0</ele><time>2026-05-02T09:06:23.138Z</time></trkpt><trkpt lat="42.2140977" lon="13.8220051"><ele>317.0</ele><time>2026-05-02T09:06:26.14Z</time></trkpt><trkpt lat="42.2142106" lon="13.8218937"><ele>317.0</ele><time>2026-05-02T09:06:28.138Z</time></trkpt><trkpt lat="42.2142791" lon="13.8218169"><ele>317.0</ele><time>2026-05-02T09:06:29.139Z</time></trkpt><trkpt lat="42.2143562" lon="13.8217252"><ele>317.0</ele><time>2026-05-02T09:06:30.14Z</time></trkpt><trkpt lat="42.2144357" lon="13.8216191"><ele>317.0</ele><time>2026-05-02T09:06:31.139Z</time></trkpt><trkpt lat="42.2145138" lon="13.8215066"><ele>317.0</ele><time>2026-05-02T09:06:32.138Z</time></trkpt><trkpt lat="42.2145937" lon="13.8213888"><ele>317.4</ele><time>2026-05-02T09:06:33.139Z</time></trkpt><trkpt lat="42.2146737" lon="13.8212677"><ele>317.79999999999995</ele><time>2026-05-02T09:06:34.138Z</time></trkpt><trkpt lat="42.2147487" lon="13.8211546"><ele>318.2</ele><time>2026-05-02T09:06:35.139Z</time></trkpt><trkpt lat="42.2148174" lon="13.8210537"><ele>318.59999999999997</ele><time>2026-05-02T09:06:36.138Z</time></trkpt><trkpt lat="42.2148754" lon="13.820969"><ele>319.0</ele><time>2026-05-02T09:06:37.138Z</time></trkpt><trkpt lat="42.2149213" lon="13.8208939"><ele>319.0</ele><time>2026-05-02T09:06:38.138Z</time></trkpt><trkpt lat="42.2149484" lon="13.8207452"><ele>319.0</ele><time>2026-05-02T09:06:40.138Z</time></trkpt><trkpt lat="42.2149189" lon="13.8205953"><ele>319.0</ele><time>2026-05-02T09:06:42.139Z</time></trkpt><trkpt lat="42.2149223" lon="13.8204736"><ele>319.0</ele><time>2026-05-02T09:06:44.138Z</time></trkpt><trkpt lat="42.2149605" lon="13.8204042"><ele>319.0</ele><time>2026-05-02T09:07:42.139Z</time></trkpt><trkpt lat="42.2150278" lon="13.8203482"><ele>319.0</ele><time>2026-05-02T09:12:35.138Z</time></trkpt><trkpt lat="42.2150936" lon="13.8203393"><ele>319.0</ele><time>2026-05-02T09:12:38.139Z</time></trkpt><trkpt lat="42.2151839" lon="13.820334"><ele>319.0</ele><time>2026-05-02T09:12:41.137Z</time></trkpt><trkpt lat="42.2152469" lon="13.820335"><ele>319.0</ele><time>2026-05-02T09:12:44.137Z</time></trkpt><trkpt lat="42.215333" lon="13.8203066"><ele>319.0</ele><time>2026-05-02T09:12:48.137Z</time></trkpt><trkpt lat="42.2154137" lon="13.8202007"><ele>319.0</ele><time>2026-05-02T09:12:50.137Z</time></trkpt><trkpt lat="42.2154631" lon="13.8201242"><ele>319.0</ele><time>2026-05-02T09:12:51.138Z</time></trkpt><trkpt lat="42.2155189" lon="13.8200341"><ele>319.0</ele><time>2026-05-02T09:12:52.137Z</time></trkpt><trkpt lat="42.2155726" lon="13.8199473"><ele>319.0</ele><time>2026-05-02T09:12:53.137Z</time></trkpt><trkpt lat="42.2156293" lon="13.8198596"><ele>319.0</ele><time>2026-05-02T09:12:54.138Z</time></trkpt><trkpt lat="42.2156939" lon="13.8197616"><ele>319.0</ele><time>2026-05-02T09:12:55.137Z</time></trkpt><trkpt lat="42.2157666" lon="13.8196553"><ele>319.0</ele><time>2026-05-02T09:12:56.137Z</time></trkpt><trkpt lat="42.2158447" lon="13.8195379"><ele>319.0</ele><time>2026-05-02T09:12:57.137Z</time></trkpt><trkpt lat="42.215923" lon="13.8194149"><ele>319.0</ele><time>2026-05-02T09:12:58.138Z</time></trkpt><trkpt lat="42.2159999" lon="13.8192979"><ele>319.0</ele><time>2026-05-02T09:12:59.138Z</time></trkpt><trkpt lat="42.2160677" lon="13.8191931"><ele>319.16666666666663</ele><time>2026-05-02T09:13:00.139Z</time></trkpt><trkpt lat="42.2161282" lon="13.8191026"><ele>319.3333333333333</ele><time>2026-05-02T09:13:01.137Z</time></trkpt><trkpt lat="42.2161791" lon="13.819025"><ele>319.5</ele><time>2026-05-02T09:13:02.139Z</time></trkpt><trkpt lat="42.2162178" lon="13.8189574"><ele>319.6666666666667</ele><time>2026-05-02T09:13:03.137Z</time></trkpt><trkpt lat="42.2162623" lon="13.818867"><ele>319.83333333333337</ele><time>2026-05-02T09:13:05.137Z</time></trkpt><trkpt lat="42.2162794" lon="13.8187847"><ele>320.0</ele><time>2026-05-02T09:13:08.137Z</time></trkpt><trkpt lat="42.2162255" lon="13.8186896"><ele>320.0</ele><time>2026-05-02T09:13:10.137Z</time></trkpt><trkpt lat="42.2162078" lon="13.8185951"><ele>320.0</ele><time>2026-05-02T09:13:11.138Z</time></trkpt><trkpt lat="42.2162049" lon="13.8184993"><ele>320.0</ele><time>2026-05-02T09:13:12.139Z</time></trkpt><trkpt lat="42.2162457" lon="13.8183402"><ele>320.0</ele><time>2026-05-02T09:13:14.137Z</time></trkpt><trkpt lat="42.2162967" lon="13.8182547"><ele>320.0</ele><time>2026-05-02T09:13:15.137Z</time></trkpt><trkpt lat="42.2163717" lon="13.8181667"><ele>320.0</ele><time>2026-05-02T09:13:16.138Z</time></trkpt><trkpt lat="42.2164572" lon="13.8180685"><ele>319.5</ele><time>2026-05-02T09:13:17.137Z</time></trkpt><trkpt lat="42.2165559" lon="13.8179694"><ele>319.0</ele><time>2026-05-02T09:13:18.137Z</time></trkpt><trkpt lat="42.2166757" lon="13.8178693"><ele>318.5</ele><time>2026-05-02T09:13:19.137Z</time></trkpt><trkpt lat="42.2168057" lon="13.8177695"><ele>318.0</ele><time>2026-05-02T09:13:20.138Z</time></trkpt><trkpt lat="42.2169495" lon="13.8176779"><ele>318.3333333333333</ele><time>2026-05-02T09:13:21.137Z</time></trkpt><trkpt lat="42.2170942" lon="13.8176001"><ele>318.66666666666663</ele><time>2026-05-02T09:13:22.137Z</time></trkpt><trkpt lat="42.2172363" lon="13.817531"><ele>319.0</ele><time>2026-05-02T09:13:23.137Z</time></trkpt><trkpt lat="42.2173887" lon="13.8174692"><ele>319.0</ele><time>2026-05-02T09:13:24.138Z</time></trkpt><trkpt lat="42.2175439" lon="13.8174183"><ele>319.0</ele><time>2026-05-02T09:13:25.138Z</time></trkpt><trkpt lat="42.2176989" lon="13.8173783"><ele>319.0</ele><time>2026-05-02T09:13:26.139Z</time></trkpt><trkpt lat="42.2178552" lon="13.8173467"><ele>319.0</ele><time>2026-05-02T09:13:27.137Z</time></trkpt><trkpt lat="42.2180114" lon="13.817318"><ele>319.0</ele><time>2026-05-02T09:13:28.137Z</time></trkpt><trkpt lat="42.2181663" lon="13.8172885"><ele>319.0</ele><time>2026-05-02T09:13:29.137Z</time></trkpt><trkpt lat="42.2183224" lon="13.8172586"><ele>318.66666666666663</ele><time>2026-05-02T09:13:30.137Z</time></trkpt><trkpt lat="42.2184821" lon="13.8172262"><ele>318.3333333333333</ele><time>2026-05-02T09:13:31.137Z</time></trkpt><trkpt lat="42.218644" lon="13.8171956"><ele>318.0</ele><time>2026-05-02T09:13:32.138Z</time></trkpt><trkpt lat="42.2188054" lon="13.8171647"><ele>318.0</ele><time>2026-05-02T09:13:33.137Z</time></trkpt><trkpt lat="42.2189651" lon="13.8171377"><ele>318.0</ele><time>2026-05-02T09:13:34.138Z</time></trkpt><trkpt lat="42.2191246" lon="13.8171131"><ele>318.0</ele><time>2026-05-02T09:13:35.138Z</time></trkpt><trkpt lat="42.2192843" lon="13.8170891"><ele>318.3333333333333</ele><time>2026-05-02T09:13:36.138Z</time></trkpt><trkpt lat="42.2194425" lon="13.8170685"><ele>318.66666666666663</ele><time>2026-05-02T09:13:37.139Z</time></trkpt><trkpt lat="42.2196066" lon="13.8170554"><ele>319.0</ele><time>2026-05-02T09:13:38.138Z</time></trkpt><trkpt lat="42.2197736" lon="13.8170566"><ele>318.66666666666663</ele><time>2026-05-02T09:13:39.137Z</time></trkpt><trkpt lat="42.2199437" lon="13.8170717"><ele>318.3333333333333</ele><time>2026-05-02T09:13:40.137Z</time></trkpt><trkpt lat="42.2201145" lon="13.8170961"><ele>318.0</ele><time>2026-05-02T09:13:41.137Z</time></trkpt><trkpt lat="42.2202854" lon="13.817133"><ele>318.0</ele><time>2026-05-02T09:13:42.137Z</time></trkpt><trkpt lat="42.2204566" lon="13.8171811"><ele>318.0</ele><time>2026-05-02T09:13:43.138Z</time></trkpt><trkpt lat="42.2206287" lon="13.8172337"><ele>318.0</ele><time>2026-05-02T09:13:44.138Z</time></trkpt><trkpt lat="42.2207988" lon="13.817284"><ele>317.6666666666667</ele><time>2026-05-02T09:13:45.137Z</time></trkpt><trkpt lat="42.2209716" lon="13.8173363"><ele>317.33333333333337</ele><time>2026-05-02T09:13:46.138Z</time></trkpt><trkpt lat="42.2211436" lon="13.8173881"><ele>317.0</ele><time>2026-05-02T09:13:47.137Z</time></trkpt><trkpt lat="42.2213155" lon="13.8174324"><ele>317.0</ele><time>2026-05-02T09:13:48.137Z</time></trkpt><trkpt lat="42.2214859" lon="13.8174648"><ele>317.0</ele><time>2026-05-02T09:13:49.137Z</time></trkpt><trkpt lat="42.221664" lon="13.8174864"><ele>317.0</ele><time>2026-05-02T09:13:50.137Z</time></trkpt><trkpt lat="42.2218429" lon="13.8174928"><ele>317.0</ele><time>2026-05-02T09:13:51.139Z</time></trkpt><trkpt lat="42.22202" lon="13.8174862"><ele>317.0</ele><time>2026-05-02T09:13:52.138Z</time></trkpt><trkpt lat="42.2221949" lon="13.8174605"><ele>317.0</ele><time>2026-05-02T09:13:53.137Z</time></trkpt><trkpt lat="42.222369" lon="13.8174175"><ele>318.0</ele><time>2026-05-02T09:13:54.138Z</time></trkpt><trkpt lat="42.2225435" lon="13.817353"><ele>319.0</ele><time>2026-05-02T09:13:55.139Z</time></trkpt><trkpt lat="42.2227177" lon="13.8172801"><ele>320.0</ele><time>2026-05-02T09:13:56.138Z</time></trkpt><trkpt lat="42.2228882" lon="13.8171896"><ele>320.0</ele><time>2026-05-02T09:13:57.137Z</time></trkpt><trkpt lat="42.2230519" lon="13.8170901"><ele>320.0</ele><time>2026-05-02T09:13:58.139Z</time></trkpt><trkpt lat="42.2232139" lon="13.816978"><ele>320.0</ele><time>2026-05-02T09:13:59.137Z</time></trkpt><trkpt lat="42.2233761" lon="13.8168545"><ele>320.33333333333337</ele><time>2026-05-02T09:14:00.137Z</time></trkpt><trkpt lat="42.2235376" lon="13.8167287"><ele>320.6666666666667</ele><time>2026-05-02T09:14:01.137Z</time></trkpt><trkpt lat="42.2236979" lon="13.8165977"><ele>321.0</ele><time>2026-05-02T09:14:02.137Z</time></trkpt><trkpt lat="42.2238553" lon="13.8164642"><ele>319.3333333333333</ele><time>2026-05-02T09:14:03.137Z</time></trkpt><trkpt lat="42.2240156" lon="13.8163266"><ele>317.66666666666663</ele><time>2026-05-02T09:14:04.137Z</time></trkpt><trkpt lat="42.2241771" lon="13.8161894"><ele>316.0</ele><time>2026-05-02T09:14:05.138Z</time></trkpt><trkpt lat="42.2243408" lon="13.8160549"><ele>316.3333333333333</ele><time>2026-05-02T09:14:06.137Z</time></trkpt><trkpt lat="42.224502" lon="13.8159279"><ele>316.6666666666667</ele><time>2026-05-02T09:14:07.137Z</time></trkpt><trkpt lat="42.224666" lon="13.8158031"><ele>317.0</ele><time>2026-05-02T09:14:08.139Z</time></trkpt><trkpt lat="42.2248314" lon="13.8156917"><ele>317.0</ele><time>2026-05-02T09:14:09.138Z</time></trkpt><trkpt lat="42.2250053" lon="13.8155991"><ele>317.0</ele><time>2026-05-02T09:14:10.138Z</time></trkpt><trkpt lat="42.2251837" lon="13.8155219"><ele>317.0</ele><time>2026-05-02T09:14:11.138Z</time></trkpt><trkpt lat="42.2253663" lon="13.8154534"><ele>317.0</ele><time>2026-05-02T09:14:12.138Z</time></trkpt><trkpt lat="42.2255508" lon="13.8153994"><ele>317.0</ele><time>2026-05-02T09:14:13.137Z</time></trkpt><trkpt lat="42.2257379" lon="13.8153499"><ele>317.0</ele><time>2026-05-02T09:14:14.138Z</time></trkpt><trkpt lat="42.2259248" lon="13.8152989"><ele>317.0</ele><time>2026-05-02T09:14:15.139Z</time></trkpt><trkpt lat="42.2261126" lon="13.8152459"><ele>317.0</ele><time>2026-05-02T09:14:16.137Z</time></trkpt><trkpt lat="42.2262964" lon="13.8151966"><ele>317.0</ele><time>2026-05-02T09:14:17.137Z</time></trkpt><trkpt lat="42.2264837" lon="13.8151456"><ele>319.0</ele><time>2026-05-02T09:14:18.137Z</time></trkpt><trkpt lat="42.2266671" lon="13.8150924"><ele>321.0</ele><time>2026-05-02T09:14:19.138Z</time></trkpt><trkpt lat="42.2268494" lon="13.8150389"><ele>323.0</ele><time>2026-05-02T09:14:20.138Z</time></trkpt><trkpt lat="42.2270308" lon="13.8149928"><ele>323.0</ele><time>2026-05-02T09:14:21.137Z</time></trkpt><trkpt lat="42.227212" lon="13.8149582"><ele>323.0</ele><time>2026-05-02T09:14:22.137Z</time></trkpt><trkpt lat="42.2273948" lon="13.8149269"><ele>323.0</ele><time>2026-05-02T09:14:23.137Z</time></trkpt><trkpt lat="42.2275799" lon="13.8149025"><ele>321.6666666666667</ele><time>2026-05-02T09:14:24.137Z</time></trkpt><trkpt lat="42.2277627" lon="13.8148814"><ele>320.3333333333333</ele><time>2026-05-02T09:14:25.137Z</time></trkpt><trkpt lat="42.2279301" lon="13.814859"><ele>319.0</ele><time>2026-05-02T09:14:26.138Z</time></trkpt><trkpt lat="42.2280743" lon="13.8148389"><ele>319.0</ele><time>2026-05-02T09:14:27.138Z</time></trkpt><trkpt lat="42.2282088" lon="13.8148257"><ele>319.0</ele><time>2026-05-02T09:14:28.138Z</time></trkpt><trkpt lat="42.2283361" lon="13.8148219"><ele>319.0</ele><time>2026-05-02T09:14:29.138Z</time></trkpt><trkpt lat="42.2284465" lon="13.8148156"><ele>319.0</ele><time>2026-05-02T09:14:30.138Z</time></trkpt><trkpt lat="42.2285408" lon="13.8148107"><ele>319.0</ele><time>2026-05-02T09:14:31.138Z</time></trkpt><trkpt lat="42.2286256" lon="13.8148177"><ele>319.0</ele><time>2026-05-02T09:14:32.138Z</time></trkpt><trkpt lat="42.2287129" lon="13.8148446"><ele>319.0</ele><time>2026-05-02T09:14:33.137Z</time></trkpt><trkpt lat="42.2288132" lon="13.8148822"><ele>319.0</ele><time>2026-05-02T09:14:34.137Z</time></trkpt><trkpt lat="42.2289193" lon="13.8149284"><ele>319.0</ele><time>2026-05-02T09:14:35.137Z</time></trkpt><trkpt lat="42.2290282" lon="13.8149805"><ele>318.8</ele><time>2026-05-02T09:14:36.137Z</time></trkpt><trkpt lat="42.2291228" lon="13.8150316"><ele>318.59999999999997</ele><time>2026-05-02T09:14:37.137Z</time></trkpt><trkpt lat="42.2292108" lon="13.8150766"><ele>318.4</ele><time>2026-05-02T09:14:38.137Z</time></trkpt><trkpt lat="42.229293" lon="13.8151223"><ele>318.2</ele><time>2026-05-02T09:14:39.137Z</time></trkpt><trkpt lat="42.2293646" lon="13.8151643"><ele>318.0</ele><time>2026-05-02T09:14:40.137Z</time></trkpt><trkpt lat="42.2294634" lon="13.8152103"><ele>318.0</ele><time>2026-05-02T09:14:42.137Z</time></trkpt><trkpt lat="42.2295588" lon="13.8152845"><ele>318.0</ele><time>2026-05-02T09:14:45.137Z</time></trkpt><trkpt lat="42.2296124" lon="13.8153497"><ele>318.0</ele><time>2026-05-02T09:14:46.138Z</time></trkpt><trkpt lat="42.2296636" lon="13.8154342"><ele>318.0</ele><time>2026-05-02T09:14:47.137Z</time></trkpt><trkpt lat="42.2297151" lon="13.8155315"><ele>318.0</ele><time>2026-05-02T09:14:48.137Z</time></trkpt><trkpt lat="42.2297725" lon="13.8156277"><ele>318.0</ele><time>2026-05-02T09:14:49.137Z</time></trkpt><trkpt lat="42.2298231" lon="13.8157142"><ele>318.0</ele><time>2026-05-02T09:14:50.137Z</time></trkpt><trkpt lat="42.2298714" lon="13.8157927"><ele>318.0</ele><time>2026-05-02T09:14:51.137Z</time></trkpt><trkpt lat="42.2299133" lon="13.8158688"><ele>318.0</ele><time>2026-05-02T09:14:52.137Z</time></trkpt><trkpt lat="42.2299507" lon="13.8160241"><ele>318.0</ele><time>2026-05-02T09:14:54.137Z</time></trkpt><trkpt lat="42.2299466" lon="13.8161286"><ele>318.0</ele><time>2026-05-02T09:14:55.137Z</time></trkpt><trkpt lat="42.2299328" lon="13.8162475"><ele>318.0</ele><time>2026-05-02T09:14:56.137Z</time></trkpt><trkpt lat="42.2299183" lon="13.8163829"><ele>317.6666666666667</ele><time>2026-05-02T09:14:57.138Z</time></trkpt><trkpt lat="42.2299092" lon="13.8165184"><ele>317.3333333333333</ele><time>2026-05-02T09:14:58.138Z</time></trkpt><trkpt lat="42.2299171" lon="13.8166341"><ele>317.0</ele><time>2026-05-02T09:14:59.137Z</time></trkpt><trkpt lat="42.2299264" lon="13.8167412"><ele>316.66666666666663</ele><time>2026-05-02T09:15:00.138Z</time></trkpt><trkpt lat="42.2299389" lon="13.8168554"><ele>316.3333333333333</ele><time>2026-05-02T09:15:01.138Z</time></trkpt><trkpt lat="42.2299543" lon="13.8169764"><ele>316.0</ele><time>2026-05-02T09:15:02.137Z</time></trkpt><trkpt lat="42.2299738" lon="13.817124"><ele>315.75</ele><time>2026-05-02T09:15:03.138Z</time></trkpt><trkpt lat="42.2299954" lon="13.8172851"><ele>315.5</ele><time>2026-05-02T09:15:04.137Z</time></trkpt><trkpt lat="42.2300156" lon="13.8174495"><ele>315.25</ele><time>2026-05-02T09:15:05.137Z</time></trkpt><trkpt lat="42.2300291" lon="13.8176092"><ele>315.0</ele><time>2026-05-02T09:15:06.137Z</time></trkpt><trkpt lat="42.2300417" lon="13.8177802"><ele>315.0</ele><time>2026-05-02T09:15:07.137Z</time></trkpt><trkpt lat="42.2300572" lon="13.8179587"><ele>315.0</ele><time>2026-05-02T09:15:08.138Z</time></trkpt><trkpt lat="42.2300694" lon="13.8181497"><ele>315.0</ele><time>2026-05-02T09:15:09.137Z</time></trkpt><trkpt lat="42.2300847" lon="13.8183521"><ele>315.0</ele><time>2026-05-02T09:15:10.137Z</time></trkpt><trkpt lat="42.2300983" lon="13.8185662"><ele>315.0</ele><time>2026-05-02T09:15:11.137Z</time></trkpt><trkpt lat="42.2301043" lon="13.8187827"><ele>315.0</ele><time>2026-05-02T09:15:12.137Z</time></trkpt><trkpt lat="42.2301057" lon="13.8189858"><ele>315.0</ele><time>2026-05-02T09:15:13.137Z</time></trkpt><trkpt lat="42.2301105" lon="13.8191729"><ele>315.0</ele><time>2026-05-02T09:15:14.137Z</time></trkpt><trkpt lat="42.2301171" lon="13.8193345"><ele>315.6</ele><time>2026-05-02T09:15:15.137Z</time></trkpt><trkpt lat="42.2301257" lon="13.8194616"><ele>316.2</ele><time>2026-05-02T09:15:16.138Z</time></trkpt><trkpt lat="42.2301367" lon="13.8195567"><ele>316.8</ele><time>2026-05-02T09:15:17.137Z</time></trkpt><trkpt lat="42.2301739" lon="13.8196516"><ele>317.4</ele><time>2026-05-02T09:15:20.138Z</time></trkpt><trkpt lat="42.2302674" lon="13.8196611"><ele>318.0</ele><time>2026-05-02T09:15:25.137Z</time></trkpt><trkpt lat="42.2304089" lon="13.8196428"><ele>318.0</ele><time>2026-05-02T09:15:27.138Z</time></trkpt><trkpt lat="42.2304964" lon="13.8196283"><ele>318.0</ele><time>2026-05-02T09:15:28.138Z</time></trkpt><trkpt lat="42.2305853" lon="13.8196179"><ele>318.0</ele><time>2026-05-02T09:15:29.138Z</time></trkpt><trkpt lat="42.2306812" lon="13.8196102"><ele>318.0</ele><time>2026-05-02T09:15:30.137Z</time></trkpt><trkpt lat="42.230783" lon="13.8196047"><ele>318.0</ele><time>2026-05-02T09:15:31.138Z</time></trkpt><trkpt lat="42.2308927" lon="13.8195871"><ele>319.75</ele><time>2026-05-02T09:15:32.138Z</time></trkpt><trkpt lat="42.231004" lon="13.8195437"><ele>321.5</ele><time>2026-05-02T09:15:33.137Z</time></trkpt><trkpt lat="42.2311217" lon="13.8194787"><ele>323.25</ele><time>2026-05-02T09:15:34.138Z</time></trkpt><trkpt lat="42.2312209" lon="13.8194269"><ele>325.0</ele><time>2026-05-02T09:15:35.138Z</time></trkpt><trkpt lat="42.2313158" lon="13.8193725"><ele>324.0</ele><time>2026-05-02T09:15:36.138Z</time></trkpt><trkpt lat="42.231407" lon="13.8193104"><ele>323.0</ele><time>2026-05-02T09:15:37.137Z</time></trkpt><trkpt lat="42.2314997" lon="13.8192525"><ele>322.0</ele><time>2026-05-02T09:15:38.137Z</time></trkpt><trkpt lat="42.231604" lon="13.8191982"><ele>321.0</ele><time>2026-05-02T09:15:39.138Z</time></trkpt><trkpt lat="42.2317208" lon="13.8191576"><ele>320.0</ele><time>2026-05-02T09:15:40.137Z</time></trkpt><trkpt lat="42.2318395" lon="13.8191308"><ele>320.0</ele><time>2026-05-02T09:15:41.138Z</time></trkpt><trkpt lat="42.2319468" lon="13.8191133"><ele>320.0</ele><time>2026-05-02T09:15:42.137Z</time></trkpt><trkpt lat="42.2320463" lon="13.8191008"><ele>320.0</ele><time>2026-05-02T09:15:43.137Z</time></trkpt><trkpt lat="42.2321368" lon="13.8190942"><ele>320.0</ele><time>2026-05-02T09:15:44.137Z</time></trkpt><trkpt lat="42.2322173" lon="13.8190863"><ele>320.0</ele><time>2026-05-02T09:15:45.138Z</time></trkpt><trkpt lat="42.2322889" lon="13.8190788"><ele>320.1428571428571</ele><time>2026-05-02T09:15:46.139Z</time></trkpt><trkpt lat="42.2323578" lon="13.819073"><ele>320.2857142857143</ele><time>2026-05-02T09:15:47.138Z</time></trkpt><trkpt lat="42.2324263" lon="13.8190694"><ele>320.42857142857144</ele><time>2026-05-02T09:15:48.138Z</time></trkpt><trkpt lat="42.2324937" lon="13.8190694"><ele>320.57142857142856</ele><time>2026-05-02T09:15:49.139Z</time></trkpt><trkpt lat="42.2325629" lon="13.8190695"><ele>320.7142857142857</ele><time>2026-05-02T09:15:50.137Z</time></trkpt><trkpt lat="42.2326297" lon="13.8190653"><ele>320.85714285714283</ele><time>2026-05-02T09:15:51.137Z</time></trkpt><trkpt lat="42.2327043" lon="13.8190537"><ele>321.0</ele><time>2026-05-02T09:15:52.138Z</time></trkpt><trkpt lat="42.2327946" lon="13.8190236"><ele>321.0</ele><time>2026-05-02T09:15:53.138Z</time></trkpt><trkpt lat="42.2329021" lon="13.8189905"><ele>321.0</ele><time>2026-05-02T09:15:54.137Z</time></trkpt><trkpt lat="42.2330241" lon="13.8189437"><ele>321.0</ele><time>2026-05-02T09:15:55.137Z</time></trkpt><trkpt lat="42.2331536" lon="13.818892"><ele>321.0</ele><time>2026-05-02T09:15:56.138Z</time></trkpt><trkpt lat="42.2332903" lon="13.8188376"><ele>324.3333333333333</ele><time>2026-05-02T09:15:57.139Z</time></trkpt><trkpt lat="42.2334334" lon="13.8187748"><ele>327.66666666666663</ele><time>2026-05-02T09:15:58.139Z</time></trkpt><trkpt lat="42.2335856" lon="13.8186968"><ele>331.0</ele><time>2026-05-02T09:15:59.138Z</time></trkpt><trkpt lat="42.2337252" lon="13.818616"><ele>331.0</ele><time>2026-05-02T09:16:00.138Z</time></trkpt><trkpt lat="42.2338563" lon="13.8185374"><ele>331.0</ele><time>2026-05-02T09:16:01.137Z</time></trkpt><trkpt lat="42.233976" lon="13.8184623"><ele>331.0</ele><time>2026-05-02T09:16:02.137Z</time></trkpt><trkpt lat="42.2340822" lon="13.8183934"><ele>331.0</ele><time>2026-05-02T09:16:03.137Z</time></trkpt><trkpt lat="42.2341728" lon="13.818323"><ele>329.75</ele><time>2026-05-02T09:16:04.138Z</time></trkpt><trkpt lat="42.2342672" lon="13.8182416"><ele>328.5</ele><time>2026-05-02T09:16:05.137Z</time></trkpt><trkpt lat="42.2343761" lon="13.8181473"><ele>327.25</ele><time>2026-05-02T09:16:06.137Z</time></trkpt><trkpt lat="42.2345012" lon="13.81803"><ele>326.0</ele><time>2026-05-02T09:16:07.137Z</time></trkpt><trkpt lat="42.2346317" lon="13.8178903"><ele>326.0</ele><time>2026-05-02T09:16:08.137Z</time></trkpt><trkpt lat="42.2347592" lon="13.8177293"><ele>326.0</ele><time>2026-05-02T09:16:09.138Z</time></trkpt><trkpt lat="42.2348726" lon="13.817556"><ele>326.0</ele><time>2026-05-02T09:16:10.138Z</time></trkpt><trkpt lat="42.2349714" lon="13.8173911"><ele>324.75</ele><time>2026-05-02T09:16:11.137Z</time></trkpt><trkpt lat="42.235057" lon="13.817225"><ele>323.5</ele><time>2026-05-02T09:16:12.137Z</time></trkpt><trkpt lat="42.2351331" lon="13.8170632"><ele>322.25</ele><time>2026-05-02T09:16:13.138Z</time></trkpt><trkpt lat="42.2352019" lon="13.8169061"><ele>321.0</ele><time>2026-05-02T09:16:14.137Z</time></trkpt><trkpt lat="42.2352716" lon="13.8167536"><ele>320.25</ele><time>2026-05-02T09:16:15.139Z</time></trkpt><trkpt lat="42.2353397" lon="13.8166103"><ele>319.5</ele><time>2026-05-02T09:16:16.137Z</time></trkpt><trkpt lat="42.235419" lon="13.8164852"><ele>318.75</ele><time>2026-05-02T09:16:17.137Z</time></trkpt><trkpt lat="42.2355103" lon="13.8163852"><ele>318.0</ele><time>2026-05-02T09:16:18.137Z</time></trkpt><trkpt lat="42.235613" lon="13.8163052"><ele>319.0</ele><time>2026-05-02T09:16:19.137Z</time></trkpt><trkpt lat="42.2357289" lon="13.816258"><ele>320.0</ele><time>2026-05-02T09:16:20.137Z</time></trkpt><trkpt lat="42.2358576" lon="13.8162294"><ele>321.0</ele><time>2026-05-02T09:16:21.137Z</time></trkpt><trkpt lat="42.2359725" lon="13.8162529"><ele>322.0</ele><time>2026-05-02T09:16:22.137Z</time></trkpt><trkpt lat="42.2360957" lon="13.816312"><ele>322.0</ele><time>2026-05-02T09:16:23.137Z</time></trkpt><trkpt lat="42.2362166" lon="13.8164056"><ele>322.0</ele><time>2026-05-02T09:16:24.137Z</time></trkpt><trkpt lat="42.2363375" lon="13.8165061"><ele>322.0</ele><time>2026-05-02T09:16:25.137Z</time></trkpt><trkpt lat="42.2364585" lon="13.8165862"><ele>322.0</ele><time>2026-05-02T09:16:26.137Z</time></trkpt><trkpt lat="42.2365823" lon="13.8166615"><ele>321.5</ele><time>2026-05-02T09:16:27.137Z</time></trkpt><trkpt lat="42.2367182" lon="13.8167196"><ele>321.0</ele><time>2026-05-02T09:16:28.138Z</time></trkpt><trkpt lat="42.2368644" lon="13.8167523"><ele>320.5</ele><time>2026-05-02T09:16:29.138Z</time></trkpt><trkpt lat="42.2370149" lon="13.8167559"><ele>320.0</ele><time>2026-05-02T09:16:30.137Z</time></trkpt><trkpt lat="42.2371631" lon="13.8167258"><ele>319.75</ele><time>2026-05-02T09:16:31.138Z</time></trkpt><trkpt lat="42.2373129" lon="13.8166777"><ele>319.5</ele><time>2026-05-02T09:16:32.138Z</time></trkpt><trkpt lat="42.2374476" lon="13.8166182"><ele>319.25</ele><time>2026-05-02T09:16:33.137Z</time></trkpt><trkpt lat="42.2375831" lon="13.8165576"><ele>319.0</ele><time>2026-05-02T09:16:34.137Z</time></trkpt><trkpt lat="42.2377238" lon="13.8164894"><ele>319.0</ele><time>2026-05-02T09:16:35.139Z</time></trkpt><trkpt lat="42.2378589" lon="13.8164177"><ele>319.0</ele><time>2026-05-02T09:16:36.138Z</time></trkpt><trkpt lat="42.2380027" lon="13.8163525"><ele>319.0</ele><time>2026-05-02T09:16:37.138Z</time></trkpt><trkpt lat="42.2381506" lon="13.8162828"><ele>319.0</ele><time>2026-05-02T09:16:38.137Z</time></trkpt><trkpt lat="42.238285" lon="13.816211"><ele>319.0</ele><time>2026-05-02T09:16:39.137Z</time></trkpt><trkpt lat="42.2384054" lon="13.8161531"><ele>319.0</ele><time>2026-05-02T09:16:40.137Z</time></trkpt><trkpt lat="42.2385303" lon="13.8161185"><ele>319.0</ele><time>2026-05-02T09:16:41.138Z</time></trkpt><trkpt lat="42.2386707" lon="13.8161102"><ele>319.0</ele><time>2026-05-02T09:16:42.138Z</time></trkpt><trkpt lat="42.2388099" lon="13.8161283"><ele>319.0</ele><time>2026-05-02T09:16:43.138Z</time></trkpt><trkpt lat="42.2389401" lon="13.8161493"><ele>319.0</ele><time>2026-05-02T09:16:44.137Z</time></trkpt><trkpt lat="42.2390533" lon="13.8161661"><ele>319.0</ele><time>2026-05-02T09:16:45.137Z</time></trkpt><trkpt lat="42.2391409" lon="13.8161814"><ele>319.79999999999995</ele><time>2026-05-02T09:16:46.137Z</time></trkpt><trkpt lat="42.2392074" lon="13.8162016"><ele>320.59999999999997</ele><time>2026-05-02T09:16:47.137Z</time></trkpt><trkpt lat="42.2392796" lon="13.816229"><ele>321.4</ele><time>2026-05-02T09:16:49.137Z</time></trkpt><trkpt lat="42.2393675" lon="13.8162787"><ele>322.2</ele><time>2026-05-02T09:19:32.137Z</time></trkpt><trkpt lat="42.2394382" lon="13.8163975"><ele>323.0</ele><time>2026-05-02T09:19:34.137Z</time></trkpt><trkpt lat="42.2395136" lon="13.8164881"><ele>323.0</ele><time>2026-05-02T09:19:36.138Z</time></trkpt><trkpt lat="42.2396291" lon="13.8165044"><ele>323.0</ele><time>2026-05-02T09:19:38.137Z</time></trkpt><trkpt lat="42.2397023" lon="13.8164955"><ele>323.0</ele><time>2026-05-02T09:19:39.137Z</time></trkpt><trkpt lat="42.239799" lon="13.8164687"><ele>323.0</ele><time>2026-05-02T09:19:40.137Z</time></trkpt><trkpt lat="42.2399017" lon="13.8164227"><ele>323.0</ele><time>2026-05-02T09:19:41.138Z</time></trkpt><trkpt lat="42.2400006" lon="13.816373"><ele>324.0</ele><time>2026-05-02T09:19:42.137Z</time></trkpt><trkpt lat="42.2401115" lon="13.8163509"><ele>325.0</ele><time>2026-05-02T09:19:43.137Z</time></trkpt><trkpt lat="42.2402326" lon="13.8163423"><ele>326.0</ele><time>2026-05-02T09:19:44.137Z</time></trkpt><trkpt lat="42.2403658" lon="13.816332"><ele>327.0</ele><time>2026-05-02T09:19:45.137Z</time></trkpt><trkpt lat="42.2405079" lon="13.8163287"><ele>327.5</ele><time>2026-05-02T09:19:46.137Z</time></trkpt><trkpt lat="42.240643" lon="13.8163276"><ele>328.0</ele><time>2026-05-02T09:19:47.137Z</time></trkpt><trkpt lat="42.2407851" lon="13.8163193"><ele>328.5</ele><time>2026-05-02T09:19:48.138Z</time></trkpt><trkpt lat="42.2409205" lon="13.8163081"><ele>329.0</ele><time>2026-05-02T09:19:49.137Z</time></trkpt><trkpt lat="42.2410414" lon="13.8162961"><ele>329.0</ele><time>2026-05-02T09:19:50.138Z</time></trkpt><trkpt lat="42.2411462" lon="13.8162807"><ele>329.0</ele><time>2026-05-02T09:19:51.137Z</time></trkpt><trkpt lat="42.2412508" lon="13.8162524"><ele>329.0</ele><time>2026-05-02T09:19:52.137Z</time></trkpt><trkpt lat="42.2413579" lon="13.8162028"><ele>329.0</ele><time>2026-05-02T09:19:53.137Z</time></trkpt><trkpt lat="42.2414625" lon="13.8161166"><ele>329.0</ele><time>2026-05-02T09:19:54.137Z</time></trkpt><trkpt lat="42.2415532" lon="13.8160153"><ele>327.4</ele><time>2026-05-02T09:19:55.138Z</time></trkpt><trkpt lat="42.2416208" lon="13.8159207"><ele>325.79999999999995</ele><time>2026-05-02T09:19:56.138Z</time></trkpt><trkpt lat="42.2416876" lon="13.8158199"><ele>324.20000000000005</ele><time>2026-05-02T09:19:57.138Z</time></trkpt><trkpt lat="42.2416664" lon="13.8157076"><ele>322.6</ele><time>2026-05-02T09:19:58.138Z</time></trkpt><trkpt lat="42.2416778" lon="13.8155675"><ele>321.0</ele><time>2026-05-02T09:19:59.138Z</time></trkpt><trkpt lat="42.2417037" lon="13.8154223"><ele>321.0</ele><time>2026-05-02T09:20:00.137Z</time></trkpt><trkpt lat="42.241739" lon="13.815285"><ele>321.0</ele><time>2026-05-02T09:20:01.137Z</time></trkpt><trkpt lat="42.2417707" lon="13.8151575"><ele>321.0</ele><time>2026-05-02T09:20:02.137Z</time></trkpt><trkpt lat="42.2417973" lon="13.8150366"><ele>321.0</ele><time>2026-05-02T09:20:03.137Z</time></trkpt><trkpt lat="42.2418188" lon="13.8149436"><ele>321.0</ele><time>2026-05-02T09:20:04.137Z</time></trkpt><trkpt lat="42.2418427" lon="13.8148427"><ele>320.6</ele><time>2026-05-02T09:20:05.137Z</time></trkpt><trkpt lat="42.2418649" lon="13.8147497"><ele>320.20000000000005</ele><time>2026-05-02T09:20:06.138Z</time></trkpt><trkpt lat="42.2419036" lon="13.8146448"><ele>319.79999999999995</ele><time>2026-05-02T09:20:07.138Z</time></trkpt><trkpt lat="42.241996" lon="13.814529"><ele>319.4</ele><time>2026-05-02T09:20:09.139Z</time></trkpt><trkpt lat="42.2420593" lon="13.814481"><ele>319.0</ele><time>2026-05-02T09:20:10.137Z</time></trkpt><trkpt lat="42.2421692" lon="13.8145162"><ele>319.0</ele><time>2026-05-02T09:20:11.137Z</time></trkpt><trkpt lat="42.242246" lon="13.8144978"><ele>319.0</ele><time>2026-05-02T09:20:12.138Z</time></trkpt><trkpt lat="42.2423218" lon="13.81446"><ele>319.0</ele><time>2026-05-02T09:20:13.137Z</time></trkpt><trkpt lat="42.2424062" lon="13.8143955"><ele>319.0</ele><time>2026-05-02T09:20:14.138Z</time></trkpt><trkpt lat="42.2424911" lon="13.8143125"><ele>319.0</ele><time>2026-05-02T09:20:15.137Z</time></trkpt><trkpt lat="42.2425883" lon="13.8142164"><ele>319.25</ele><time>2026-05-02T09:20:16.138Z</time></trkpt><trkpt lat="42.2426923" lon="13.814111"><ele>319.5</ele><time>2026-05-02T09:20:17.138Z</time></trkpt><trkpt lat="42.2427977" lon="13.8140049"><ele>319.75</ele><time>2026-05-02T09:20:18.137Z</time></trkpt><trkpt lat="42.2428895" lon="13.8139072"><ele>320.0</ele><time>2026-05-02T09:20:19.137Z</time></trkpt><trkpt lat="42.2429755" lon="13.8138102"><ele>320.0</ele><time>2026-05-02T09:20:20.137Z</time></trkpt><trkpt lat="42.2430517" lon="13.8137158"><ele>320.0</ele><time>2026-05-02T09:20:21.139Z</time></trkpt><trkpt lat="42.2431175" lon="13.8136291"><ele>320.0</ele><time>2026-05-02T09:20:22.137Z</time></trkpt><trkpt lat="42.243186" lon="13.813538"><ele>320.0</ele><time>2026-05-02T09:20:23.137Z</time></trkpt><trkpt lat="42.2432482" lon="13.8134489"><ele>320.0</ele><time>2026-05-02T09:20:24.138Z</time></trkpt><trkpt lat="42.2433102" lon="13.81337"><ele>320.83333333333337</ele><time>2026-05-02T09:20:25.137Z</time></trkpt><trkpt lat="42.2433755" lon="13.8132848"><ele>321.6666666666667</ele><time>2026-05-02T09:20:26.138Z</time></trkpt><trkpt lat="42.2434499" lon="13.8132017"><ele>322.5</ele><time>2026-05-02T09:20:27.138Z</time></trkpt><trkpt lat="42.2435182" lon="13.8131267"><ele>323.3333333333333</ele><time>2026-05-02T09:20:28.138Z</time></trkpt><trkpt lat="42.2435869" lon="13.8130624"><ele>324.16666666666663</ele><time>2026-05-02T09:20:29.138Z</time></trkpt><trkpt lat="42.2436519" lon="13.813009"><ele>325.0</ele><time>2026-05-02T09:20:30.137Z</time></trkpt><trkpt lat="42.2437386" lon="13.8129638"><ele>325.0</ele><time>2026-05-02T09:20:31.137Z</time></trkpt><trkpt lat="42.2438356" lon="13.812923"><ele>325.0</ele><time>2026-05-02T09:20:32.139Z</time></trkpt><trkpt lat="42.2439321" lon="13.8128956"><ele>325.0</ele><time>2026-05-02T09:20:33.137Z</time></trkpt><trkpt lat="42.2440223" lon="13.8128585"><ele>325.0</ele><time>2026-05-02T09:20:34.137Z</time></trkpt><trkpt lat="42.2441015" lon="13.8128128"><ele>325.0</ele><time>2026-05-02T09:20:35.137Z</time></trkpt><trkpt lat="42.2441774" lon="13.8127658"><ele>324.2</ele><time>2026-05-02T09:20:36.137Z</time></trkpt><trkpt lat="42.2442566" lon="13.812721"><ele>323.4</ele><time>2026-05-02T09:20:37.138Z</time></trkpt><trkpt lat="42.2443456" lon="13.8126853"><ele>322.6</ele><time>2026-05-02T09:20:38.138Z</time></trkpt><trkpt lat="42.2444425" lon="13.8126578"><ele>321.8</ele><time>2026-05-02T09:20:39.137Z</time></trkpt><trkpt lat="42.2445398" lon="13.8126381"><ele>321.0</ele><time>2026-05-02T09:20:40.138Z</time></trkpt><trkpt lat="42.2446343" lon="13.8126065"><ele>321.0</ele><time>2026-05-02T09:20:41.137Z</time></trkpt><trkpt lat="42.2447307" lon="13.8125588"><ele>321.0</ele><time>2026-05-02T09:20:42.138Z</time></trkpt><trkpt lat="42.2448174" lon="13.8125011"><ele>321.0</ele><time>2026-05-02T09:20:43.137Z</time></trkpt><trkpt lat="42.2448907" lon="13.8124175"><ele>321.0</ele><time>2026-05-02T09:20:44.138Z</time></trkpt><trkpt lat="42.244958" lon="13.8123011"><ele>321.0</ele><time>2026-05-02T09:20:45.137Z</time></trkpt><trkpt lat="42.2449974" lon="13.8121894"><ele>321.6</ele><time>2026-05-02T09:20:46.137Z</time></trkpt><trkpt lat="42.2450425" lon="13.8120454"><ele>322.20000000000005</ele><time>2026-05-02T09:20:47.138Z</time></trkpt><trkpt lat="42.2450722" lon="13.8118955"><ele>322.79999999999995</ele><time>2026-05-02T09:20:48.137Z</time></trkpt><trkpt lat="42.2451033" lon="13.8117588"><ele>323.4</ele><time>2026-05-02T09:20:49.138Z</time></trkpt><trkpt lat="42.2451404" lon="13.811635"><ele>324.0</ele><time>2026-05-02T09:20:50.138Z</time></trkpt><trkpt lat="42.2451948" lon="13.8115311"><ele>324.0</ele><time>2026-05-02T09:20:51.137Z</time></trkpt><trkpt lat="42.2452627" lon="13.8114284"><ele>324.0</ele><time>2026-05-02T09:20:52.138Z</time></trkpt><trkpt lat="42.2453479" lon="13.8113403"><ele>324.0</ele><time>2026-05-02T09:20:53.138Z</time></trkpt><trkpt lat="42.2454381" lon="13.8112509"><ele>324.0</ele><time>2026-05-02T09:20:54.138Z</time></trkpt><trkpt lat="42.2455282" lon="13.8111654"><ele>324.0</ele><time>2026-05-02T09:20:55.137Z</time></trkpt><trkpt lat="42.2456023" lon="13.8110811"><ele>324.2</ele><time>2026-05-02T09:20:56.138Z</time></trkpt><trkpt lat="42.2456604" lon="13.8110006"><ele>324.4</ele><time>2026-05-02T09:20:57.138Z</time></trkpt><trkpt lat="42.245706" lon="13.8109349"><ele>324.6</ele><time>2026-05-02T09:20:58.137Z</time></trkpt><trkpt lat="42.2457506" lon="13.8108703"><ele>324.8</ele><time>2026-05-02T09:20:59.137Z</time></trkpt><trkpt lat="42.2458226" lon="13.8107517"><ele>325.0</ele><time>2026-05-02T09:21:01.137Z</time></trkpt><trkpt lat="42.2459184" lon="13.8106483"><ele>325.0</ele><time>2026-05-02T09:21:03.138Z</time></trkpt><trkpt lat="42.2459726" lon="13.8105879"><ele>325.0</ele><time>2026-05-02T09:21:04.138Z</time></trkpt><trkpt lat="42.2460237" lon="13.8105253"><ele>325.0</ele><time>2026-05-02T09:21:05.138Z</time></trkpt><trkpt lat="42.2460852" lon="13.8104753"><ele>325.0</ele><time>2026-05-02T09:21:06.137Z</time></trkpt><trkpt lat="42.2461502" lon="13.8103999"><ele>325.0</ele><time>2026-05-02T09:21:07.137Z</time></trkpt><trkpt lat="42.2462137" lon="13.8103111"><ele>325.0</ele><time>2026-05-02T09:21:08.138Z</time></trkpt><trkpt lat="42.2462805" lon="13.8102231"><ele>325.0</ele><time>2026-05-02T09:21:09.137Z</time></trkpt><trkpt lat="42.2463405" lon="13.8101283"><ele>325.0</ele><time>2026-05-02T09:21:10.137Z</time></trkpt><trkpt lat="42.2463868" lon="13.8100309"><ele>325.0</ele><time>2026-05-02T09:21:11.138Z</time></trkpt><trkpt lat="42.2464213" lon="13.8099293"><ele>325.0</ele><time>2026-05-02T09:21:12.138Z</time></trkpt><trkpt lat="42.2464537" lon="13.8098308"><ele>325.0</ele><time>2026-05-02T09:21:13.137Z</time></trkpt><trkpt lat="42.2465016" lon="13.8096639"><ele>325.0</ele><time>2026-05-02T09:21:15.138Z</time></trkpt><trkpt lat="42.2465329" lon="13.80953"><ele>325.0</ele><time>2026-05-02T09:21:17.138Z</time></trkpt><trkpt lat="42.2465626" lon="13.8094095"><ele>325.0</ele><time>2026-05-02T09:21:19.138Z</time></trkpt><trkpt lat="42.2465917" lon="13.8093154"><ele>325.0</ele><time>2026-05-02T09:21:21.138Z</time></trkpt><trkpt lat="42.2466237" lon="13.8091994"><ele>325.0</ele><time>2026-05-02T09:21:23.138Z</time></trkpt><trkpt lat="42.2466512" lon="13.8091215"><ele>325.0</ele><time>2026-05-02T09:21:24.137Z</time></trkpt><trkpt lat="42.246683" lon="13.8090211"><ele>325.0</ele><time>2026-05-02T09:21:25.138Z</time></trkpt><trkpt lat="42.246711" lon="13.8089198"><ele>325.0</ele><time>2026-05-02T09:21:26.137Z</time></trkpt><trkpt lat="42.2467323" lon="13.8088183"><ele>325.0</ele><time>2026-05-02T09:21:27.137Z</time></trkpt><trkpt lat="42.2467524" lon="13.8087213"><ele>325.0</ele><time>2026-05-02T09:21:28.137Z</time></trkpt><trkpt lat="42.2467747" lon="13.8086198"><ele>325.0</ele><time>2026-05-02T09:21:29.137Z</time></trkpt><trkpt lat="42.2468016" lon="13.8085122"><ele>325.0</ele><time>2026-05-02T09:21:30.138Z</time></trkpt><trkpt lat="42.2468216" lon="13.8083897"><ele>325.0</ele><time>2026-05-02T09:21:31.138Z</time></trkpt><trkpt lat="42.2468602" lon="13.808274"><ele>325.0</ele><time>2026-05-02T09:21:32.137Z</time></trkpt><trkpt lat="42.2468831" lon="13.8081542"><ele>325.0</ele><time>2026-05-02T09:21:33.137Z</time></trkpt><trkpt lat="42.2469328" lon="13.808073"><ele>325.0</ele><time>2026-05-02T09:21:34.137Z</time></trkpt><trkpt lat="42.2469912" lon="13.8079867"><ele>325.0</ele><time>2026-05-02T09:21:35.139Z</time></trkpt><trkpt lat="42.2470579" lon="13.8078862"><ele>325.0</ele><time>2026-05-02T09:21:36.137Z</time></trkpt><trkpt lat="42.2471438" lon="13.8077873"><ele>325.0</ele><time>2026-05-02T09:21:37.137Z</time></trkpt><trkpt lat="42.2472267" lon="13.8076981"><ele>325.0</ele><time>2026-05-02T09:21:38.137Z</time></trkpt><trkpt lat="42.2473104" lon="13.8076167"><ele>325.0</ele><time>2026-05-02T09:21:39.137Z</time></trkpt><trkpt lat="42.2473961" lon="13.8075511"><ele>325.0</ele><time>2026-05-02T09:21:40.137Z</time></trkpt><trkpt lat="42.2474831" lon="13.8074842"><ele>325.5</ele><time>2026-05-02T09:21:41.137Z</time></trkpt><trkpt lat="42.2475616" lon="13.8074175"><ele>326.0</ele><time>2026-05-02T09:21:42.137Z</time></trkpt><trkpt lat="42.2476193" lon="13.8073338"><ele>326.5</ele><time>2026-05-02T09:21:43.137Z</time></trkpt><trkpt lat="42.2476677" lon="13.8072441"><ele>327.0</ele><time>2026-05-02T09:21:44.137Z</time></trkpt><trkpt lat="42.2477003" lon="13.807148"><ele>327.5</ele><time>2026-05-02T09:21:45.137Z</time></trkpt><trkpt lat="42.2477322" lon="13.8070377"><ele>328.0</ele><time>2026-05-02T09:21:46.137Z</time></trkpt><trkpt lat="42.2477528" lon="13.8069136"><ele>327.59999999999997</ele><time>2026-05-02T09:21:47.138Z</time></trkpt><trkpt lat="42.2477732" lon="13.8067746"><ele>327.2</ele><time>2026-05-02T09:21:48.137Z</time></trkpt><trkpt lat="42.2477962" lon="13.8066537"><ele>326.8</ele><time>2026-05-02T09:21:49.137Z</time></trkpt><trkpt lat="42.2478229" lon="13.8065445"><ele>326.4</ele><time>2026-05-02T09:21:50.139Z</time></trkpt><trkpt lat="42.2478644" lon="13.8064298"><ele>326.0</ele><time>2026-05-02T09:21:51.138Z</time></trkpt><trkpt lat="42.2479265" lon="13.8063037"><ele>326.0</ele><time>2026-05-02T09:21:52.137Z</time></trkpt><trkpt lat="42.2479986" lon="13.8061689"><ele>326.0</ele><time>2026-05-02T09:21:53.138Z</time></trkpt><trkpt lat="42.2480536" lon="13.8060338"><ele>326.0</ele><time>2026-05-02T09:21:54.137Z</time></trkpt><trkpt lat="42.2481067" lon="13.8059318"><ele>326.0</ele><time>2026-05-02T09:21:55.138Z</time></trkpt><trkpt lat="42.2481725" lon="13.8058142"><ele>326.0</ele><time>2026-05-02T09:21:56.137Z</time></trkpt><trkpt lat="42.2482384" lon="13.8057111"><ele>327.8</ele><time>2026-05-02T09:21:57.138Z</time></trkpt><trkpt lat="42.2483023" lon="13.8056059"><ele>329.6</ele><time>2026-05-02T09:21:58.138Z</time></trkpt><trkpt lat="42.2483655" lon="13.8055094"><ele>331.4</ele><time>2026-05-02T09:21:59.137Z</time></trkpt><trkpt lat="42.2484357" lon="13.8054321"><ele>333.2</ele><time>2026-05-02T09:22:00.138Z</time></trkpt><trkpt lat="42.248514" lon="13.805363"><ele>335.0</ele><time>2026-05-02T09:22:01.137Z</time></trkpt><trkpt lat="42.2485952" lon="13.8053032"><ele>335.0</ele><time>2026-05-02T09:22:02.138Z</time></trkpt><trkpt lat="42.2486779" lon="13.8052673"><ele>335.0</ele><time>2026-05-02T09:22:03.139Z</time></trkpt><trkpt lat="42.2487752" lon="13.8052433"><ele>335.0</ele><time>2026-05-02T09:22:04.137Z</time></trkpt><trkpt lat="42.2488741" lon="13.8052236"><ele>335.0</ele><time>2026-05-02T09:22:05.138Z</time></trkpt><trkpt lat="42.2489645" lon="13.8051924"><ele>335.0</ele><time>2026-05-02T09:22:06.138Z</time></trkpt><trkpt lat="42.2490499" lon="13.8051569"><ele>335.4</ele><time>2026-05-02T09:22:07.138Z</time></trkpt><trkpt lat="42.2491362" lon="13.8050797"><ele>335.8</ele><time>2026-05-02T09:22:08.139Z</time></trkpt><trkpt lat="42.2492175" lon="13.8049907"><ele>336.20000000000005</ele><time>2026-05-02T09:22:09.138Z</time></trkpt><trkpt lat="42.2492876" lon="13.8049035"><ele>336.6</ele><time>2026-05-02T09:22:10.138Z</time></trkpt><trkpt lat="42.249349" lon="13.8048376"><ele>337.0</ele><time>2026-05-02T09:22:11.138Z</time></trkpt><trkpt lat="42.2494565" lon="13.8048161"><ele>337.0</ele><time>2026-05-02T09:22:13.138Z</time></trkpt><trkpt lat="42.2495171" lon="13.8048484"><ele>337.0</ele><time>2026-05-02T09:22:14.137Z</time></trkpt><trkpt lat="42.2495896" lon="13.8049107"><ele>337.0</ele><time>2026-05-02T09:22:15.137Z</time></trkpt><trkpt lat="42.2496724" lon="13.8049783"><ele>337.0</ele><time>2026-05-02T09:22:16.137Z</time></trkpt><trkpt lat="42.249771" lon="13.8050218"><ele>337.0</ele><time>2026-05-02T09:22:17.137Z</time></trkpt><trkpt lat="42.2498846" lon="13.8050421"><ele>337.5</ele><time>2026-05-02T09:22:18.138Z</time></trkpt><trkpt lat="42.250009" lon="13.8050411"><ele>338.0</ele><time>2026-05-02T09:22:19.137Z</time></trkpt><trkpt lat="42.2501464" lon="13.8050313"><ele>338.5</ele><time>2026-05-02T09:22:20.137Z</time></trkpt><trkpt lat="42.2502885" lon="13.8050207"><ele>339.0</ele><time>2026-05-02T09:22:21.138Z</time></trkpt><trkpt lat="42.2504395" lon="13.8050108"><ele>339.0</ele><time>2026-05-02T09:22:22.139Z</time></trkpt><trkpt lat="42.2505875" lon="13.8050022"><ele>339.0</ele><time>2026-05-02T09:22:23.138Z</time></trkpt><trkpt lat="42.2507183" lon="13.8049886"><ele>339.0</ele><time>2026-05-02T09:22:24.138Z</time></trkpt><trkpt lat="42.2508393" lon="13.8049855"><ele>339.0</ele><time>2026-05-02T09:22:25.138Z</time></trkpt><trkpt lat="42.2509433" lon="13.8050012"><ele>341.0</ele><time>2026-05-02T09:22:26.138Z</time></trkpt><trkpt lat="42.2510311" lon="13.8050416"><ele>343.0</ele><time>2026-05-02T09:22:27.137Z</time></trkpt><trkpt lat="42.2510993" lon="13.8051059"><ele>345.0</ele><time>2026-05-02T09:22:28.139Z</time></trkpt><trkpt lat="42.2511557" lon="13.8052038"><ele>347.0</ele><time>2026-05-02T09:22:29.137Z</time></trkpt><trkpt lat="42.2511871" lon="13.8053341"><ele>349.0</ele><time>2026-05-02T09:22:30.136Z</time></trkpt><trkpt lat="42.2512064" lon="13.8054895"><ele>349.0</ele><time>2026-05-02T09:22:31.137Z</time></trkpt><trkpt lat="42.2512274" lon="13.8056655"><ele>349.0</ele><time>2026-05-02T09:22:32.136Z</time></trkpt><trkpt lat="42.2512523" lon="13.8058466"><ele>349.0</ele><time>2026-05-02T09:22:33.136Z</time></trkpt><trkpt lat="42.2512884" lon="13.8060185"><ele>349.0</ele><time>2026-05-02T09:22:34.136Z</time></trkpt><trkpt lat="42.2513445" lon="13.8061872"><ele>349.0</ele><time>2026-05-02T09:22:35.137Z</time></trkpt><trkpt lat="42.2514115" lon="13.8063479"><ele>349.0</ele><time>2026-05-02T09:22:36.137Z</time></trkpt><trkpt lat="42.2514823" lon="13.8065045"><ele>349.0</ele><time>2026-05-02T09:22:37.136Z</time></trkpt><trkpt lat="42.2515492" lon="13.8066622"><ele>349.0</ele><time>2026-05-02T09:22:38.136Z</time></trkpt><trkpt lat="42.2516188" lon="13.8068205"><ele>351.0</ele><time>2026-05-02T09:22:39.136Z</time></trkpt><trkpt lat="42.2516924" lon="13.8069848"><ele>353.0</ele><time>2026-05-02T09:22:40.137Z</time></trkpt><trkpt lat="42.2517656" lon="13.8071509"><ele>355.0</ele><time>2026-05-02T09:22:41.137Z</time></trkpt><trkpt lat="42.2518398" lon="13.807317"><ele>357.0</ele><time>2026-05-02T09:22:42.136Z</time></trkpt><trkpt lat="42.2519116" lon="13.8074803"><ele>357.0</ele><time>2026-05-02T09:22:43.136Z</time></trkpt><trkpt lat="42.2519838" lon="13.8076417"><ele>357.0</ele><time>2026-05-02T09:22:44.136Z</time></trkpt><trkpt lat="42.2520591" lon="13.8077991"><ele>357.0</ele><time>2026-05-02T09:22:45.136Z</time></trkpt><trkpt lat="42.2521376" lon="13.8079573"><ele>357.0</ele><time>2026-05-02T09:22:46.136Z</time></trkpt><trkpt lat="42.2522216" lon="13.8081173"><ele>359.25</ele><time>2026-05-02T09:22:47.137Z</time></trkpt><trkpt lat="42.2523086" lon="13.8082714"><ele>361.5</ele><time>2026-05-02T09:22:48.137Z</time></trkpt><trkpt lat="42.2523885" lon="13.8084127"><ele>363.75</ele><time>2026-05-02T09:22:49.136Z</time></trkpt><trkpt lat="42.2524673" lon="13.8085469"><ele>366.0</ele><time>2026-05-02T09:22:50.136Z</time></trkpt><trkpt lat="42.2525474" lon="13.8086767"><ele>366.0</ele><time>2026-05-02T09:22:51.136Z</time></trkpt><trkpt lat="42.2526104" lon="13.808788"><ele>366.0</ele><time>2026-05-02T09:22:52.137Z</time></trkpt><trkpt lat="42.2526593" lon="13.8088855"><ele>366.0</ele><time>2026-05-02T09:22:53.137Z</time></trkpt><trkpt lat="42.2526988" lon="13.8089801"><ele>366.0</ele><time>2026-05-02T09:22:54.136Z</time></trkpt><trkpt lat="42.2527416" lon="13.8090943"><ele>366.0</ele><time>2026-05-02T09:22:55.137Z</time></trkpt><trkpt lat="42.2527919" lon="13.8091924"><ele>366.0</ele><time>2026-05-02T09:22:56.136Z</time></trkpt><trkpt lat="42.2528514" lon="13.8092806"><ele>366.0</ele><time>2026-05-02T09:22:57.136Z</time></trkpt><trkpt lat="42.25292" lon="13.8093876"><ele>366.0</ele><time>2026-05-02T09:22:58.136Z</time></trkpt><trkpt lat="42.2529941" lon="13.8094886"><ele>366.0</ele><time>2026-05-02T09:22:59.137Z</time></trkpt><trkpt lat="42.2530825" lon="13.8095848"><ele>366.0</ele><time>2026-05-02T09:23:00.136Z</time></trkpt><trkpt lat="42.2531724" lon="13.8096875"><ele>368.25</ele><time>2026-05-02T09:23:01.137Z</time></trkpt><trkpt lat="42.253262" lon="13.8098008"><ele>370.5</ele><time>2026-05-02T09:23:02.136Z</time></trkpt><trkpt lat="42.2533607" lon="13.8099214"><ele>372.75</ele><time>2026-05-02T09:23:03.137Z</time></trkpt><trkpt lat="42.2534739" lon="13.8100383"><ele>375.0</ele><time>2026-05-02T09:23:04.136Z</time></trkpt><trkpt lat="42.2535945" lon="13.8101446"><ele>374.75</ele><time>2026-05-02T09:23:05.136Z</time></trkpt><trkpt lat="42.2536976" lon="13.8102483"><ele>374.5</ele><time>2026-05-02T09:23:06.137Z</time></trkpt><trkpt lat="42.2537991" lon="13.810368"><ele>374.25</ele><time>2026-05-02T09:23:07.137Z</time></trkpt><trkpt lat="42.253906" lon="13.8105063"><ele>374.0</ele><time>2026-05-02T09:23:08.137Z</time></trkpt><trkpt lat="42.25401" lon="13.8106444"><ele>375.5</ele><time>2026-05-02T09:23:09.137Z</time></trkpt><trkpt lat="42.2541183" lon="13.810773"><ele>377.0</ele><time>2026-05-02T09:23:10.137Z</time></trkpt><trkpt lat="42.2542315" lon="13.8108899"><ele>378.5</ele><time>2026-05-02T09:23:11.137Z</time></trkpt><trkpt lat="42.2543324" lon="13.811"><ele>380.0</ele><time>2026-05-02T09:23:12.137Z</time></trkpt><trkpt lat="42.2544251" lon="13.8111241"><ele>380.2</ele><time>2026-05-02T09:23:13.136Z</time></trkpt><trkpt lat="42.2544989" lon="13.811257"><ele>380.4</ele><time>2026-05-02T09:23:14.138Z</time></trkpt><trkpt lat="42.2545595" lon="13.8113864"><ele>380.6</ele><time>2026-05-02T09:23:15.136Z</time></trkpt><trkpt lat="42.2546034" lon="13.8115139"><ele>380.8</ele><time>2026-05-02T09:23:16.136Z</time></trkpt><trkpt lat="42.2546334" lon="13.8116263"><ele>381.0</ele><time>2026-05-02T09:23:17.136Z</time></trkpt><trkpt lat="42.2546601" lon="13.8117167"><ele>381.0</ele><time>2026-05-02T09:23:18.136Z</time></trkpt><trkpt lat="42.2547204" lon="13.8117894"><ele>381.0</ele><time>2026-05-02T09:23:20.137Z</time></trkpt><trkpt lat="42.2547983" lon="13.8117392"><ele>381.0</ele><time>2026-05-02T09:23:22.136Z</time></trkpt><trkpt lat="42.2548587" lon="13.8116583"><ele>381.0</ele><time>2026-05-02T09:23:23.136Z</time></trkpt><trkpt lat="42.2549337" lon="13.8115422"><ele>381.0</ele><time>2026-05-02T09:23:24.137Z</time></trkpt><trkpt lat="42.255014" lon="13.8114"><ele>382.5</ele><time>2026-05-02T09:23:25.136Z</time></trkpt><trkpt lat="42.2550877" lon="13.8112542"><ele>384.0</ele><time>2026-05-02T09:23:26.136Z</time></trkpt><trkpt lat="42.255159" lon="13.811122"><ele>385.5</ele><time>2026-05-02T09:23:27.136Z</time></trkpt><trkpt lat="42.2552255" lon="13.8109779"><ele>387.0</ele><time>2026-05-02T09:23:28.136Z</time></trkpt><trkpt lat="42.2552761" lon="13.810843"><ele>387.0</ele><time>2026-05-02T09:23:29.136Z</time></trkpt><trkpt lat="42.2553232" lon="13.8107101"><ele>387.0</ele><time>2026-05-02T09:23:30.136Z</time></trkpt><trkpt lat="42.2553751" lon="13.810588"><ele>387.0</ele><time>2026-05-02T09:23:31.136Z</time></trkpt><trkpt lat="42.2554323" lon="13.8104768"><ele>387.0</ele><time>2026-05-02T09:23:32.136Z</time></trkpt><trkpt lat="42.2555041" lon="13.810357"><ele>387.0</ele><time>2026-05-02T09:23:33.137Z</time></trkpt><trkpt lat="42.2555906" lon="13.8102328"><ele>387.25</ele><time>2026-05-02T09:23:34.138Z</time></trkpt><trkpt lat="42.2556813" lon="13.8101101"><ele>387.5</ele><time>2026-05-02T09:23:35.137Z</time></trkpt><trkpt lat="42.2557673" lon="13.8099752"><ele>387.75</ele><time>2026-05-02T09:23:36.136Z</time></trkpt><trkpt lat="42.2558527" lon="13.8098247"><ele>388.0</ele><time>2026-05-02T09:23:37.136Z</time></trkpt><trkpt lat="42.2559403" lon="13.8096647"><ele>388.0</ele><time>2026-05-02T09:23:38.137Z</time></trkpt><trkpt lat="42.2560245" lon="13.8095158"><ele>388.0</ele><time>2026-05-02T09:23:39.136Z</time></trkpt><trkpt lat="42.2560984" lon="13.8093759"><ele>388.0</ele><time>2026-05-02T09:23:40.136Z</time></trkpt><trkpt lat="42.2561704" lon="13.8092467"><ele>388.0</ele><time>2026-05-02T09:23:41.136Z</time></trkpt><trkpt lat="42.2562492" lon="13.8091304"><ele>387.75</ele><time>2026-05-02T09:23:42.136Z</time></trkpt><trkpt lat="42.2563438" lon="13.8090241"><ele>387.5</ele><time>2026-05-02T09:23:43.136Z</time></trkpt><trkpt lat="42.2564453" lon="13.8089177"><ele>387.25</ele><time>2026-05-02T09:23:44.137Z</time></trkpt><trkpt lat="42.2565265" lon="13.8088178"><ele>387.0</ele><time>2026-05-02T09:23:45.137Z</time></trkpt><trkpt lat="42.2565998" lon="13.8087319"><ele>387.0</ele><time>2026-05-02T09:23:46.136Z</time></trkpt><trkpt lat="42.2566709" lon="13.8086624"><ele>387.0</ele><time>2026-05-02T09:23:47.138Z</time></trkpt><trkpt lat="42.256746" lon="13.8086158"><ele>387.0</ele><time>2026-05-02T09:23:48.137Z</time></trkpt><trkpt lat="42.2568305" lon="13.8085808"><ele>387.0</ele><time>2026-05-02T09:23:49.138Z</time></trkpt><trkpt lat="42.2569217" lon="13.8085408"><ele>387.0</ele><time>2026-05-02T09:23:50.137Z</time></trkpt><trkpt lat="42.2570186" lon="13.8084728"><ele>386.25</ele><time>2026-05-02T09:23:51.136Z</time></trkpt><trkpt lat="42.2571213" lon="13.8083879"><ele>385.5</ele><time>2026-05-02T09:23:52.137Z</time></trkpt><trkpt lat="42.2572327" lon="13.808297"><ele>384.75</ele><time>2026-05-02T09:23:53.137Z</time></trkpt><trkpt lat="42.2573444" lon="13.8082018"><ele>384.0</ele><time>2026-05-02T09:23:54.137Z</time></trkpt><trkpt lat="42.2574615" lon="13.8081048"><ele>384.0</ele><time>2026-05-02T09:23:55.137Z</time></trkpt><trkpt lat="42.2575792" lon="13.8080158"><ele>384.0</ele><time>2026-05-02T09:23:56.137Z</time></trkpt><trkpt lat="42.2576942" lon="13.8079231"><ele>384.0</ele><time>2026-05-02T09:23:57.137Z</time></trkpt><trkpt lat="42.257813" lon="13.8078205"><ele>384.0</ele><time>2026-05-02T09:23:58.136Z</time></trkpt><trkpt lat="42.2579274" lon="13.8077142"><ele>382.5</ele><time>2026-05-02T09:23:59.137Z</time></trkpt><trkpt lat="42.2580352" lon="13.8076192"><ele>381.0</ele><time>2026-05-02T09:24:00.137Z</time></trkpt><trkpt lat="42.2581446" lon="13.8075371"><ele>379.5</ele><time>2026-05-02T09:24:01.137Z</time></trkpt><trkpt lat="42.258262" lon="13.8074589"><ele>378.0</ele><time>2026-05-02T09:24:02.136Z</time></trkpt><trkpt lat="42.2583871" lon="13.8074038"><ele>378.0</ele><time>2026-05-02T09:24:03.137Z</time></trkpt><trkpt lat="42.2585172" lon="13.8073544"><ele>378.0</ele><time>2026-05-02T09:24:04.137Z</time></trkpt><trkpt lat="42.2586497" lon="13.8073167"><ele>378.0</ele><time>2026-05-02T09:24:05.137Z</time></trkpt><trkpt lat="42.2587833" lon="13.8072775"><ele>378.0</ele><time>2026-05-02T09:24:06.137Z</time></trkpt><trkpt lat="42.2589129" lon="13.8072212"><ele>379.0</ele><time>2026-05-02T09:24:07.137Z</time></trkpt><trkpt lat="42.2590427" lon="13.8071568"><ele>380.0</ele><time>2026-05-02T09:24:08.137Z</time></trkpt><trkpt lat="42.2591721" lon="13.8070831"><ele>381.0</ele><time>2026-05-02T09:24:09.136Z</time></trkpt><trkpt lat="42.259299" lon="13.8069971"><ele>382.0</ele><time>2026-05-02T09:24:10.136Z</time></trkpt><trkpt lat="42.2594254" lon="13.8069103"><ele>382.0</ele><time>2026-05-02T09:24:11.136Z</time></trkpt><trkpt lat="42.2595573" lon="13.8068336"><ele>382.0</ele><time>2026-05-02T09:24:12.137Z</time></trkpt><trkpt lat="42.2596959" lon="13.8067619"><ele>382.0</ele><time>2026-05-02T09:24:13.136Z</time></trkpt><trkpt lat="42.2598364" lon="13.8066895"><ele>382.0</ele><time>2026-05-02T09:24:14.137Z</time></trkpt><trkpt lat="42.2599696" lon="13.8066194"><ele>380.75</ele><time>2026-05-02T09:24:15.136Z</time></trkpt><trkpt lat="42.260095" lon="13.8065426"><ele>379.5</ele><time>2026-05-02T09:24:16.137Z</time></trkpt><trkpt lat="42.2602191" lon="13.8064542"><ele>378.25</ele><time>2026-05-02T09:24:17.137Z</time></trkpt><trkpt lat="42.2603381" lon="13.806357"><ele>377.0</ele><time>2026-05-02T09:24:18.136Z</time></trkpt><trkpt lat="42.2604602" lon="13.8062631"><ele>377.0</ele><time>2026-05-02T09:24:19.136Z</time></trkpt><trkpt lat="42.2605756" lon="13.8061734"><ele>377.0</ele><time>2026-05-02T09:24:20.136Z</time></trkpt><trkpt lat="42.2606934" lon="13.8060876"><ele>377.0</ele><time>2026-05-02T09:24:21.136Z</time></trkpt><trkpt lat="42.2608041" lon="13.8060135"><ele>377.0</ele><time>2026-05-02T09:24:22.137Z</time></trkpt><trkpt lat="42.2608897" lon="13.8059426"><ele>376.40000000000003</ele><time>2026-05-02T09:24:23.137Z</time></trkpt><trkpt lat="42.2609621" lon="13.805865"><ele>375.8</ele><time>2026-05-02T09:24:24.136Z</time></trkpt><trkpt lat="42.2610269" lon="13.8057869"><ele>375.2</ele><time>2026-05-02T09:24:25.136Z</time></trkpt><trkpt lat="42.2610926" lon="13.8057187"><ele>374.6</ele><time>2026-05-02T09:24:26.136Z</time></trkpt><trkpt lat="42.2611771" lon="13.8056637"><ele>374.0</ele><time>2026-05-02T09:24:27.136Z</time></trkpt><trkpt lat="42.2612875" lon="13.8056156"><ele>374.0</ele><time>2026-05-02T09:24:28.136Z</time></trkpt><trkpt lat="42.26142" lon="13.805566"><ele>374.0</ele><time>2026-05-02T09:24:29.137Z</time></trkpt><trkpt lat="42.2615613" lon="13.8055139"><ele>374.0</ele><time>2026-05-02T09:24:30.136Z</time></trkpt><trkpt lat="42.2617122" lon="13.8054589"><ele>374.0</ele><time>2026-05-02T09:24:31.138Z</time></trkpt><trkpt lat="42.2618477" lon="13.8054056"><ele>373.4</ele><time>2026-05-02T09:24:32.138Z</time></trkpt><trkpt lat="42.2619687" lon="13.8053581"><ele>372.79999999999995</ele><time>2026-05-02T09:24:33.138Z</time></trkpt><trkpt lat="42.2620736" lon="13.805319"><ele>372.20000000000005</ele><time>2026-05-02T09:24:34.137Z</time></trkpt><trkpt lat="42.2621576" lon="13.8052913"><ele>371.6</ele><time>2026-05-02T09:24:35.136Z</time></trkpt><trkpt lat="42.2622224" lon="13.8052821"><ele>371.0</ele><time>2026-05-02T09:24:36.136Z</time></trkpt><trkpt lat="42.2622937" lon="13.8052858"><ele>370.83333333333337</ele><time>2026-05-02T09:24:38.137Z</time></trkpt><trkpt lat="42.2623753" lon="13.8053079"><ele>370.6666666666667</ele><time>2026-05-02T09:24:40.136Z</time></trkpt><trkpt lat="42.2624416" lon="13.8053287"><ele>370.5</ele><time>2026-05-02T09:24:41.137Z</time></trkpt><trkpt lat="42.2625157" lon="13.8053287"><ele>370.3333333333333</ele><time>2026-05-02T09:24:42.137Z</time></trkpt><trkpt lat="42.26259" lon="13.8053122"><ele>370.16666666666663</ele><time>2026-05-02T09:24:43.137Z</time></trkpt><trkpt lat="42.2626814" lon="13.805281"><ele>370.0</ele><time>2026-05-02T09:24:44.137Z</time></trkpt><trkpt lat="42.2627919" lon="13.8052506"><ele>370.0</ele><time>2026-05-02T09:24:45.137Z</time></trkpt><trkpt lat="42.262919" lon="13.8052168"><ele>370.0</ele><time>2026-05-02T09:24:46.137Z</time></trkpt><trkpt lat="42.263054" lon="13.8051823"><ele>370.0</ele><time>2026-05-02T09:24:47.137Z</time></trkpt><trkpt lat="42.2632038" lon="13.8051497"><ele>370.0</ele><time>2026-05-02T09:24:48.137Z</time></trkpt><trkpt lat="42.263356" lon="13.8051212"><ele>368.75</ele><time>2026-05-02T09:24:49.137Z</time></trkpt><trkpt lat="42.2635018" lon="13.8050937"><ele>367.5</ele><time>2026-05-02T09:24:50.136Z</time></trkpt><trkpt lat="42.2636419" lon="13.8050719"><ele>366.25</ele><time>2026-05-02T09:24:51.136Z</time></trkpt><trkpt lat="42.2637778" lon="13.8050484"><ele>365.0</ele><time>2026-05-02T09:24:52.136Z</time></trkpt><trkpt lat="42.2639169" lon="13.8050301"><ele>364.25</ele><time>2026-05-02T09:24:53.136Z</time></trkpt><trkpt lat="42.2640642" lon="13.8050201"><ele>363.5</ele><time>2026-05-02T09:24:54.137Z</time></trkpt><trkpt lat="42.2642069" lon="13.8050174"><ele>362.75</ele><time>2026-05-02T09:24:55.137Z</time></trkpt><trkpt lat="42.2643598" lon="13.80501"><ele>362.0</ele><time>2026-05-02T09:24:56.137Z</time></trkpt><trkpt lat="42.2645221" lon="13.8049899"><ele>362.0</ele><time>2026-05-02T09:24:57.138Z</time></trkpt><trkpt lat="42.2646964" lon="13.8049578"><ele>362.0</ele><time>2026-05-02T09:24:58.137Z</time></trkpt><trkpt lat="42.2648823" lon="13.8049141"><ele>362.0</ele><time>2026-05-02T09:24:59.136Z</time></trkpt><trkpt lat="42.2650711" lon="13.8048563"><ele>360.6666666666667</ele><time>2026-05-02T09:25:00.136Z</time></trkpt><trkpt lat="42.2652575" lon="13.8047959"><ele>359.3333333333333</ele><time>2026-05-02T09:25:01.136Z</time></trkpt><trkpt lat="42.2654265" lon="13.8047333"><ele>358.0</ele><time>2026-05-02T09:25:02.137Z</time></trkpt><trkpt lat="42.2655987" lon="13.8046676"><ele>357.3333333333333</ele><time>2026-05-02T09:25:03.136Z</time></trkpt><trkpt lat="42.265759" lon="13.8046065"><ele>356.6666666666667</ele><time>2026-05-02T09:25:04.136Z</time></trkpt><trkpt lat="42.265907" lon="13.8045507"><ele>356.0</ele><time>2026-05-02T09:25:05.136Z</time></trkpt><trkpt lat="42.2660409" lon="13.804505"><ele>356.0</ele><time>2026-05-02T09:25:06.136Z</time></trkpt><trkpt lat="42.2661644" lon="13.8044587"><ele>356.0</ele><time>2026-05-02T09:25:07.138Z</time></trkpt><trkpt lat="42.2662849" lon="13.8043952"><ele>356.0</ele><time>2026-05-02T09:25:08.136Z</time></trkpt><trkpt lat="42.2664159" lon="13.8043042"><ele>356.0</ele><time>2026-05-02T09:25:09.138Z</time></trkpt><trkpt lat="42.2665426" lon="13.8042008"><ele>355.75</ele><time>2026-05-02T09:25:10.137Z</time></trkpt><trkpt lat="42.2666564" lon="13.804105"><ele>355.5</ele><time>2026-05-02T09:25:11.136Z</time></trkpt><trkpt lat="42.266753" lon="13.8040077"><ele>355.25</ele><time>2026-05-02T09:25:12.136Z</time></trkpt><trkpt lat="42.266835" lon="13.8039043"><ele>355.0</ele><time>2026-05-02T09:25:13.138Z</time></trkpt><trkpt lat="42.2669005" lon="13.8037988"><ele>355.0</ele><time>2026-05-02T09:25:14.137Z</time></trkpt><trkpt lat="42.2669532" lon="13.8036841"><ele>355.0</ele><time>2026-05-02T09:25:15.136Z</time></trkpt><trkpt lat="42.2669903" lon="13.8035781"><ele>355.0</ele><time>2026-05-02T09:25:16.137Z</time></trkpt><trkpt lat="42.2670171" lon="13.8034709"><ele>355.0</ele><time>2026-05-02T09:25:17.137Z</time></trkpt><trkpt lat="42.2670396" lon="13.8033686"><ele>355.0</ele><time>2026-05-02T09:25:18.137Z</time></trkpt><trkpt lat="42.2670653" lon="13.803279"><ele>355.0</ele><time>2026-05-02T09:25:19.136Z</time></trkpt><trkpt lat="42.2671044" lon="13.8031963"><ele>355.3333333333333</ele><time>2026-05-02T09:25:20.138Z</time></trkpt><trkpt lat="42.2671518" lon="13.8031086"><ele>355.66666666666663</ele><time>2026-05-02T09:25:21.137Z</time></trkpt><trkpt lat="42.2672066" lon="13.8030209"><ele>356.0</ele><time>2026-05-02T09:25:22.136Z</time></trkpt><trkpt lat="42.2672589" lon="13.8029391"><ele>356.3333333333333</ele><time>2026-05-02T09:25:23.137Z</time></trkpt><trkpt lat="42.2673105" lon="13.8028714"><ele>356.6666666666667</ele><time>2026-05-02T09:25:24.138Z</time></trkpt><trkpt lat="42.2673577" lon="13.8028115"><ele>357.0</ele><time>2026-05-02T09:25:25.137Z</time></trkpt><trkpt lat="42.2674249" lon="13.8027177"><ele>356.40000000000003</ele><time>2026-05-02T09:25:27.137Z</time></trkpt><trkpt lat="42.2674589" lon="13.8026093"><ele>355.8</ele><time>2026-05-02T09:25:29.137Z</time></trkpt><trkpt lat="42.2675268" lon="13.8024636"><ele>355.2</ele><time>2026-05-02T09:25:31.137Z</time></trkpt><trkpt lat="42.2675766" lon="13.8023805"><ele>354.6</ele><time>2026-05-02T09:25:32.137Z</time></trkpt><trkpt lat="42.2676335" lon="13.8022963"><ele>354.0</ele><time>2026-05-02T09:25:33.138Z</time></trkpt><trkpt lat="42.2677042" lon="13.8022038"><ele>354.0</ele><time>2026-05-02T09:25:34.138Z</time></trkpt><trkpt lat="42.2677906" lon="13.8021047"><ele>354.0</ele><time>2026-05-02T09:25:35.136Z</time></trkpt><trkpt lat="42.2678824" lon="13.8020029"><ele>354.0</ele><time>2026-05-02T09:25:36.137Z</time></trkpt><trkpt lat="42.2679757" lon="13.8018959"><ele>354.0</ele><time>2026-05-02T09:25:37.136Z</time></trkpt><trkpt lat="42.2680726" lon="13.8017882"><ele>353.75</ele><time>2026-05-02T09:25:38.137Z</time></trkpt><trkpt lat="42.2681681" lon="13.801686"><ele>353.5</ele><time>2026-05-02T09:25:39.138Z</time></trkpt><trkpt lat="42.2682612" lon="13.8015828"><ele>353.25</ele><time>2026-05-02T09:25:40.137Z</time></trkpt><trkpt lat="42.2683607" lon="13.8014765"><ele>353.0</ele><time>2026-05-02T09:25:41.137Z</time></trkpt><trkpt lat="42.2684592" lon="13.8013702"><ele>353.0</ele><time>2026-05-02T09:25:42.137Z</time></trkpt><trkpt lat="42.2685543" lon="13.8012717"><ele>353.0</ele><time>2026-05-02T09:25:43.137Z</time></trkpt><trkpt lat="42.2686554" lon="13.8011666"><ele>353.0</ele><time>2026-05-02T09:25:44.138Z</time></trkpt><trkpt lat="42.2687626" lon="13.8010627"><ele>353.0</ele><time>2026-05-02T09:25:45.136Z</time></trkpt><trkpt lat="42.2688622" lon="13.8009665"><ele>352.75</ele><time>2026-05-02T09:25:46.138Z</time></trkpt><trkpt lat="42.2689596" lon="13.8008726"><ele>352.5</ele><time>2026-05-02T09:25:47.136Z</time></trkpt><trkpt lat="42.269065" lon="13.8007858"><ele>352.25</ele><time>2026-05-02T09:25:48.136Z</time></trkpt><trkpt lat="42.2691716" lon="13.8007043"><ele>352.0</ele><time>2026-05-02T09:25:49.137Z</time></trkpt><trkpt lat="42.2692742" lon="13.8006528"><ele>352.0</ele><time>2026-05-02T09:25:50.138Z</time></trkpt><trkpt lat="42.2693806" lon="13.800606"><ele>352.0</ele><time>2026-05-02T09:25:51.136Z</time></trkpt><trkpt lat="42.2694784" lon="13.8005773"><ele>352.0</ele><time>2026-05-02T09:25:52.136Z</time></trkpt><trkpt lat="42.2695745" lon="13.8005235"><ele>352.0</ele><time>2026-05-02T09:25:53.136Z</time></trkpt><trkpt lat="42.2696674" lon="13.8004533"><ele>352.0</ele><time>2026-05-02T09:25:54.136Z</time></trkpt><trkpt lat="42.2697592" lon="13.8003633"><ele>352.0</ele><time>2026-05-02T09:25:55.136Z</time></trkpt><trkpt lat="42.2698598" lon="13.8002494"><ele>352.0</ele><time>2026-05-02T09:25:56.137Z</time></trkpt><trkpt lat="42.269962" lon="13.8001233"><ele>352.0</ele><time>2026-05-02T09:25:57.137Z</time></trkpt><trkpt lat="42.2700604" lon="13.8000125"><ele>352.0</ele><time>2026-05-02T09:25:58.136Z</time></trkpt><trkpt lat="42.2701538" lon="13.7999106"><ele>350.75</ele><time>2026-05-02T09:25:59.136Z</time></trkpt><trkpt lat="42.2702525" lon="13.7998192"><ele>349.5</ele><time>2026-05-02T09:26:00.136Z</time></trkpt><trkpt lat="42.2703588" lon="13.7997324"><ele>348.25</ele><time>2026-05-02T09:26:01.136Z</time></trkpt><trkpt lat="42.2704683" lon="13.7996487"><ele>347.0</ele><time>2026-05-02T09:26:02.136Z</time></trkpt><trkpt lat="42.2705733" lon="13.7995775"><ele>347.75</ele><time>2026-05-02T09:26:03.136Z</time></trkpt><trkpt lat="42.2706775" lon="13.7995208"><ele>348.5</ele><time>2026-05-02T09:26:04.137Z</time></trkpt><trkpt lat="42.2707986" lon="13.799474"><ele>349.25</ele><time>2026-05-02T09:26:05.136Z</time></trkpt><trkpt lat="42.2709296" lon="13.7994257"><ele>350.0</ele><time>2026-05-02T09:26:06.137Z</time></trkpt><trkpt lat="42.2710685" lon="13.7993705"><ele>349.33333333333337</ele><time>2026-05-02T09:26:07.138Z</time></trkpt><trkpt lat="42.2712144" lon="13.7993017"><ele>348.6666666666667</ele><time>2026-05-02T09:26:08.137Z</time></trkpt><trkpt lat="42.2713658" lon="13.7992296"><ele>348.0</ele><time>2026-05-02T09:26:09.136Z</time></trkpt><trkpt lat="42.2715158" lon="13.7991583"><ele>348.0</ele><time>2026-05-02T09:26:10.137Z</time></trkpt><trkpt lat="42.2716662" lon="13.7990813"><ele>348.0</ele><time>2026-05-02T09:26:11.136Z</time></trkpt><trkpt lat="42.2718213" lon="13.7989969"><ele>348.0</ele><time>2026-05-02T09:26:12.136Z</time></trkpt><trkpt lat="42.2719659" lon="13.7989185"><ele>348.0</ele><time>2026-05-02T09:26:13.136Z</time></trkpt><trkpt lat="42.2721002" lon="13.7988387"><ele>348.0</ele><time>2026-05-02T09:26:14.137Z</time></trkpt><trkpt lat="42.2722323" lon="13.7987567"><ele>348.0</ele><time>2026-05-02T09:26:15.136Z</time></trkpt><trkpt lat="42.2723398" lon="13.7986733"><ele>348.0</ele><time>2026-05-02T09:26:16.136Z</time></trkpt><trkpt lat="42.2724565" lon="13.7985738"><ele>347.75</ele><time>2026-05-02T09:26:17.137Z</time></trkpt><trkpt lat="42.272571" lon="13.7984842"><ele>347.5</ele><time>2026-05-02T09:26:18.136Z</time></trkpt><trkpt lat="42.2726925" lon="13.7983871"><ele>347.25</ele><time>2026-05-02T09:26:19.136Z</time></trkpt><trkpt lat="42.2728151" lon="13.798293"><ele>347.0</ele><time>2026-05-02T09:26:20.136Z</time></trkpt><trkpt lat="42.2729164" lon="13.7982084"><ele>347.0</ele><time>2026-05-02T09:26:21.137Z</time></trkpt><trkpt lat="42.27302" lon="13.7981273"><ele>347.0</ele><time>2026-05-02T09:26:22.136Z</time></trkpt><trkpt lat="42.2731301" lon="13.7980643"><ele>347.0</ele><time>2026-05-02T09:26:23.138Z</time></trkpt><trkpt lat="42.2732481" lon="13.7979978"><ele>347.0</ele><time>2026-05-02T09:26:24.137Z</time></trkpt><trkpt lat="42.2733741" lon="13.7979263"><ele>346.5</ele><time>2026-05-02T09:26:25.137Z</time></trkpt><trkpt lat="42.2735071" lon="13.7978478"><ele>346.0</ele><time>2026-05-02T09:26:26.136Z</time></trkpt><trkpt lat="42.2736417" lon="13.7977618"><ele>345.5</ele><time>2026-05-02T09:26:27.137Z</time></trkpt><trkpt lat="42.2737756" lon="13.7976684"><ele>345.0</ele><time>2026-05-02T09:26:28.136Z</time></trkpt><trkpt lat="42.2738987" lon="13.797574"><ele>345.5</ele><time>2026-05-02T09:26:29.138Z</time></trkpt><trkpt lat="42.2740149" lon="13.7974933"><ele>346.0</ele><time>2026-05-02T09:26:30.137Z</time></trkpt><trkpt lat="42.2741281" lon="13.7974092"><ele>346.5</ele><time>2026-05-02T09:26:31.136Z</time></trkpt><trkpt lat="42.2742273" lon="13.7973154"><ele>347.0</ele><time>2026-05-02T09:26:32.136Z</time></trkpt><trkpt lat="42.2743195" lon="13.7972083"><ele>347.0</ele><time>2026-05-02T09:26:33.136Z</time></trkpt><trkpt lat="42.2744056" lon="13.7971163"><ele>347.0</ele><time>2026-05-02T09:26:34.136Z</time></trkpt><trkpt lat="42.2744989" lon="13.7970379"><ele>347.0</ele><time>2026-05-02T09:26:35.137Z</time></trkpt><trkpt lat="42.2746081" lon="13.7969665"><ele>347.0</ele><time>2026-05-02T09:26:36.137Z</time></trkpt><trkpt lat="42.2747305" lon="13.7968756"><ele>347.0</ele><time>2026-05-02T09:26:37.136Z</time></trkpt><trkpt lat="42.2748662" lon="13.7967782"><ele>347.0</ele><time>2026-05-02T09:26:38.136Z</time></trkpt><trkpt lat="42.2749679" lon="13.7967064"><ele>347.0</ele><time>2026-05-02T09:26:39.136Z</time></trkpt><trkpt lat="42.2750613" lon="13.7966322"><ele>347.0</ele><time>2026-05-02T09:26:40.137Z</time></trkpt><trkpt lat="42.2751497" lon="13.796543"><ele>347.0</ele><time>2026-05-02T09:26:41.137Z</time></trkpt><trkpt lat="42.2752402" lon="13.7964287"><ele>347.0</ele><time>2026-05-02T09:26:42.136Z</time></trkpt><trkpt lat="42.2753245" lon="13.7963611"><ele>347.0</ele><time>2026-05-02T09:26:43.137Z</time></trkpt><trkpt lat="42.2754159" lon="13.7963035"><ele>347.0</ele><time>2026-05-02T09:26:44.136Z</time></trkpt><trkpt lat="42.2755251" lon="13.7962592"><ele>347.0</ele><time>2026-05-02T09:26:45.136Z</time></trkpt><trkpt lat="42.275632" lon="13.7962182"><ele>347.0</ele><time>2026-05-02T09:26:46.137Z</time></trkpt><trkpt lat="42.2757251" lon="13.7961728"><ele>347.0</ele><time>2026-05-02T09:26:47.138Z</time></trkpt><trkpt lat="42.2758174" lon="13.7960788"><ele>347.0</ele><time>2026-05-02T09:26:48.137Z</time></trkpt><trkpt lat="42.2759209" lon="13.7959905"><ele>347.0</ele><time>2026-05-02T09:26:49.136Z</time></trkpt><trkpt lat="42.2760249" lon="13.7958819"><ele>347.0</ele><time>2026-05-02T09:26:50.136Z</time></trkpt><trkpt lat="42.2761332" lon="13.7957638"><ele>347.0</ele><time>2026-05-02T09:26:51.137Z</time></trkpt><trkpt lat="42.2762352" lon="13.7956461"><ele>347.0</ele><time>2026-05-02T09:26:52.137Z</time></trkpt><trkpt lat="42.2763306" lon="13.7955342"><ele>347.0</ele><time>2026-05-02T09:26:53.137Z</time></trkpt><trkpt lat="42.2764303" lon="13.7954452"><ele>349.25</ele><time>2026-05-02T09:26:54.136Z</time></trkpt><trkpt lat="42.2765307" lon="13.7953726"><ele>351.5</ele><time>2026-05-02T09:26:55.137Z</time></trkpt><trkpt lat="42.2766405" lon="13.795312"><ele>353.75</ele><time>2026-05-02T09:26:56.137Z</time></trkpt><trkpt lat="42.2767632" lon="13.795258"><ele>356.0</ele><time>2026-05-02T09:26:57.137Z</time></trkpt><trkpt lat="42.2768941" lon="13.7952152"><ele>356.0</ele><time>2026-05-02T09:26:58.136Z</time></trkpt><trkpt lat="42.2770167" lon="13.7951752"><ele>356.0</ele><time>2026-05-02T09:26:59.137Z</time></trkpt><trkpt lat="42.2771378" lon="13.7951526"><ele>356.0</ele><time>2026-05-02T09:27:00.136Z</time></trkpt><trkpt lat="42.2772707" lon="13.7951414"><ele>356.0</ele><time>2026-05-02T09:27:01.137Z</time></trkpt><trkpt lat="42.2774047" lon="13.7951255"><ele>354.25</ele><time>2026-05-02T09:27:02.136Z</time></trkpt><trkpt lat="42.2775184" lon="13.7951025"><ele>352.5</ele><time>2026-05-02T09:27:03.136Z</time></trkpt><trkpt lat="42.2776328" lon="13.7950943"><ele>350.75</ele><time>2026-05-02T09:27:04.136Z</time></trkpt><trkpt lat="42.2777528" lon="13.7951014"><ele>349.0</ele><time>2026-05-02T09:27:05.137Z</time></trkpt><trkpt lat="42.2778688" lon="13.7951202"><ele>349.0</ele><time>2026-05-02T09:27:06.136Z</time></trkpt><trkpt lat="42.2779958" lon="13.7951575"><ele>349.0</ele><time>2026-05-02T09:27:07.136Z</time></trkpt><trkpt lat="42.2781417" lon="13.7952004"><ele>349.0</ele><time>2026-05-02T09:27:08.137Z</time></trkpt><trkpt lat="42.2783068" lon="13.7952436"><ele>349.0</ele><time>2026-05-02T09:27:09.136Z</time></trkpt><trkpt lat="42.2784595" lon="13.7952792"><ele>349.6</ele><time>2026-05-02T09:27:10.136Z</time></trkpt><trkpt lat="42.2785908" lon="13.795303"><ele>350.2</ele><time>2026-05-02T09:27:11.136Z</time></trkpt><trkpt lat="42.2786982" lon="13.7953118"><ele>350.8</ele><time>2026-05-02T09:27:12.136Z</time></trkpt><trkpt lat="42.2787951" lon="13.79531"><ele>351.40000000000003</ele><time>2026-05-02T09:27:13.136Z</time></trkpt><trkpt lat="42.2788843" lon="13.7952785"><ele>352.0</ele><time>2026-05-02T09:27:14.136Z</time></trkpt><trkpt lat="42.2789883" lon="13.7952414"><ele>352.0</ele><time>2026-05-02T09:27:15.136Z</time></trkpt><trkpt lat="42.2790914" lon="13.7952202"><ele>352.0</ele><time>2026-05-02T09:27:16.136Z</time></trkpt><trkpt lat="42.279196" lon="13.7951971"><ele>352.0</ele><time>2026-05-02T09:27:17.136Z</time></trkpt><trkpt lat="42.2793079" lon="13.7951575"><ele>352.0</ele><time>2026-05-02T09:27:18.137Z</time></trkpt><trkpt lat="42.2794139" lon="13.7950942"><ele>352.0</ele><time>2026-05-02T09:27:19.136Z</time></trkpt><trkpt lat="42.279533" lon="13.7950087"><ele>349.5</ele><time>2026-05-02T09:27:20.136Z</time></trkpt><trkpt lat="42.2796366" lon="13.7949267"><ele>347.0</ele><time>2026-05-02T09:27:21.136Z</time></trkpt><trkpt lat="42.2797564" lon="13.794818"><ele>344.5</ele><time>2026-05-02T09:27:22.137Z</time></trkpt><trkpt lat="42.2798938" lon="13.7946949"><ele>342.0</ele><time>2026-05-02T09:27:23.138Z</time></trkpt><trkpt lat="42.2800452" lon="13.7945618"><ele>342.0</ele><time>2026-05-02T09:27:24.137Z</time></trkpt><trkpt lat="42.2802135" lon="13.7944067"><ele>342.0</ele><time>2026-05-02T09:27:25.136Z</time></trkpt><trkpt lat="42.2803907" lon="13.7942435"><ele>342.0</ele><time>2026-05-02T09:27:26.138Z</time></trkpt><trkpt lat="42.280559" lon="13.7940972"><ele>342.0</ele><time>2026-05-02T09:27:27.136Z</time></trkpt><trkpt lat="42.2807267" lon="13.7939704"><ele>342.0</ele><time>2026-05-02T09:27:28.137Z</time></trkpt><trkpt lat="42.2809086" lon="13.7938595"><ele>342.0</ele><time>2026-05-02T09:27:29.137Z</time></trkpt><trkpt lat="42.2810954" lon="13.7937597"><ele>342.0</ele><time>2026-05-02T09:27:30.137Z</time></trkpt><trkpt lat="42.2812653" lon="13.7936714"><ele>342.0</ele><time>2026-05-02T09:27:31.136Z</time></trkpt><trkpt lat="42.2814121" lon="13.7935887"><ele>342.0</ele><time>2026-05-02T09:27:32.136Z</time></trkpt><trkpt lat="42.2815465" lon="13.7935051"><ele>342.0</ele><time>2026-05-02T09:27:33.136Z</time></trkpt><trkpt lat="42.2816709" lon="13.7934191"><ele>342.0</ele><time>2026-05-02T09:27:34.137Z</time></trkpt><trkpt lat="42.2817907" lon="13.7933336"><ele>342.0</ele><time>2026-05-02T09:27:35.136Z</time></trkpt><trkpt lat="42.2819041" lon="13.7932499"><ele>342.0</ele><time>2026-05-02T09:27:36.136Z</time></trkpt><trkpt lat="42.2820235" lon="13.79316"><ele>342.0</ele><time>2026-05-02T09:27:37.137Z</time></trkpt><trkpt lat="42.2821504" lon="13.7930487"><ele>342.0</ele><time>2026-05-02T09:27:38.137Z</time></trkpt><trkpt lat="42.2822687" lon="13.7929336"><ele>342.0</ele><time>2026-05-02T09:27:39.137Z</time></trkpt><trkpt lat="42.2823692" lon="13.7928225"><ele>342.0</ele><time>2026-05-02T09:27:40.137Z</time></trkpt><trkpt lat="42.282457" lon="13.7927073"><ele>342.1666666666667</ele><time>2026-05-02T09:27:41.137Z</time></trkpt><trkpt lat="42.2825234" lon="13.7925903"><ele>342.3333333333333</ele><time>2026-05-02T09:27:42.137Z</time></trkpt><trkpt lat="42.2825705" lon="13.7924722"><ele>342.5</ele><time>2026-05-02T09:27:43.136Z</time></trkpt><trkpt lat="42.2826008" lon="13.7923652"><ele>342.66666666666663</ele><time>2026-05-02T09:27:44.137Z</time></trkpt><trkpt lat="42.2826146" lon="13.7922569"><ele>342.8333333333333</ele><time>2026-05-02T09:27:45.137Z</time></trkpt><trkpt lat="42.2826084" lon="13.7921607"><ele>343.0</ele><time>2026-05-02T09:27:46.136Z</time></trkpt><trkpt lat="42.2825642" lon="13.7919848"><ele>343.0</ele><time>2026-05-02T09:27:48.137Z</time></trkpt><trkpt lat="42.2825263" lon="13.791876"><ele>343.0</ele><time>2026-05-02T09:27:49.137Z</time></trkpt><trkpt lat="42.2825019" lon="13.791791"><ele>343.0</ele><time>2026-05-02T09:27:50.137Z</time></trkpt><trkpt lat="42.2824821" lon="13.7916965"><ele>343.0</ele><time>2026-05-02T09:27:52.137Z</time></trkpt><trkpt lat="42.2825054" lon="13.7918217"><ele>343.0</ele><time>2026-05-02T09:27:58.136Z</time></trkpt><trkpt lat="42.2825385" lon="13.791923"><ele>343.0</ele><time>2026-05-02T09:27:59.136Z</time></trkpt><trkpt lat="42.2825687" lon="13.7920255"><ele>343.0</ele><time>2026-05-02T09:28:00.137Z</time></trkpt><trkpt lat="42.2825989" lon="13.7921065"><ele>343.0</ele><time>2026-05-02T09:28:01.136Z</time></trkpt><trkpt lat="42.2826809" lon="13.7921959"><ele>343.0</ele><time>2026-05-02T09:28:03.136Z</time></trkpt><trkpt lat="42.2827683" lon="13.7921311"><ele>343.0</ele><time>2026-05-02T09:28:05.137Z</time></trkpt><trkpt lat="42.2828248" lon="13.7920616"><ele>343.0</ele><time>2026-05-02T09:28:06.138Z</time></trkpt><trkpt lat="42.282898" lon="13.791983"><ele>343.0</ele><time>2026-05-02T09:28:07.137Z</time></trkpt><trkpt lat="42.2829867" lon="13.791898"><ele>342.25</ele><time>2026-05-02T09:28:08.137Z</time></trkpt><trkpt lat="42.2830871" lon="13.7918042"><ele>341.5</ele><time>2026-05-02T09:28:09.137Z</time></trkpt><trkpt lat="42.2831877" lon="13.791709"><ele>340.75</ele><time>2026-05-02T09:28:10.136Z</time></trkpt><trkpt lat="42.2832916" lon="13.7916185"><ele>340.0</ele><time>2026-05-02T09:28:11.136Z</time></trkpt><trkpt lat="42.2833854" lon="13.79154"><ele>341.4</ele><time>2026-05-02T09:28:12.136Z</time></trkpt><trkpt lat="42.2834862" lon="13.7914616"><ele>342.8</ele><time>2026-05-02T09:28:13.136Z</time></trkpt><trkpt lat="42.2835719" lon="13.7913994"><ele>344.20000000000005</ele><time>2026-05-02T09:28:14.136Z</time></trkpt><trkpt lat="42.2836429" lon="13.791351"><ele>345.6</ele><time>2026-05-02T09:28:15.138Z</time></trkpt><trkpt lat="42.2837257" lon="13.791266"><ele>347.0</ele><time>2026-05-02T09:28:17.138Z</time></trkpt><trkpt lat="42.283692" lon="13.7911585"><ele>347.0</ele><time>2026-05-02T09:28:19.136Z</time></trkpt><trkpt lat="42.2836361" lon="13.7911037"><ele>347.0</ele><time>2026-05-02T09:28:20.136Z</time></trkpt><trkpt lat="42.2835764" lon="13.7910431"><ele>347.0</ele><time>2026-05-02T09:28:21.136Z</time></trkpt><trkpt lat="42.283485" lon="13.7909486"><ele>347.0</ele><time>2026-05-02T09:28:23.136Z</time></trkpt><trkpt lat="42.2833924" lon="13.790849"><ele>347.0</ele><time>2026-05-02T09:28:25.138Z</time></trkpt><trkpt lat="42.2833417" lon="13.7907835"><ele>347.0</ele><time>2026-05-02T09:28:26.136Z</time></trkpt><trkpt lat="42.2832756" lon="13.7907086"><ele>347.20000000000005</ele><time>2026-05-02T09:28:27.136Z</time></trkpt><trkpt lat="42.2832036" lon="13.7906118"><ele>347.4</ele><time>2026-05-02T09:28:28.137Z</time></trkpt><trkpt lat="42.2831386" lon="13.790516"><ele>347.6</ele><time>2026-05-02T09:28:29.136Z</time></trkpt><trkpt lat="42.2830842" lon="13.7904313"><ele>347.79999999999995</ele><time>2026-05-02T09:28:30.137Z</time></trkpt><trkpt lat="42.2830432" lon="13.7902871"><ele>348.0</ele><time>2026-05-02T09:28:32.137Z</time></trkpt><trkpt lat="42.283054" lon="13.7901826"><ele>348.0</ele><time>2026-05-02T09:28:33.137Z</time></trkpt><trkpt lat="42.2830648" lon="13.7900706"><ele>348.0</ele><time>2026-05-02T09:28:34.137Z</time></trkpt><trkpt lat="42.2830748" lon="13.7899189"><ele>348.0</ele><time>2026-05-02T09:28:36.136Z</time></trkpt><trkpt lat="42.2830873" lon="13.7898321"><ele>348.0</ele><time>2026-05-02T09:28:38.137Z</time></trkpt><trkpt lat="42.2831244" lon="13.789737"><ele>348.0</ele><time>2026-05-02T09:28:40.136Z</time></trkpt><trkpt lat="42.2831782" lon="13.7895852"><ele>348.0</ele><time>2026-05-02T09:28:42.136Z</time></trkpt><trkpt lat="42.2831948" lon="13.7894927"><ele>348.0</ele><time>2026-05-02T09:28:43.136Z</time></trkpt><trkpt lat="42.2832089" lon="13.7894051"><ele>348.0</ele><time>2026-05-02T09:28:44.136Z</time></trkpt><trkpt lat="42.2832211" lon="13.7893209"><ele>348.0</ele><time>2026-05-02T09:28:45.136Z</time></trkpt><trkpt lat="42.2832339" lon="13.7892351"><ele>348.0</ele><time>2026-05-02T09:28:46.136Z</time></trkpt><trkpt lat="42.2832568" lon="13.7890793"><ele>348.0</ele><time>2026-05-02T09:28:48.137Z</time></trkpt><trkpt lat="42.2832854" lon="13.7889916"><ele>347.5</ele><time>2026-05-02T09:28:49.137Z</time></trkpt><trkpt lat="42.2833112" lon="13.7888947"><ele>347.0</ele><time>2026-05-02T09:28:50.136Z</time></trkpt><trkpt lat="42.2833363" lon="13.788785"><ele>346.5</ele><time>2026-05-02T09:28:51.136Z</time></trkpt><trkpt lat="42.2833563" lon="13.7886636"><ele>346.0</ele><time>2026-05-02T09:28:52.138Z</time></trkpt><trkpt lat="42.2833751" lon="13.7885334"><ele>345.5</ele><time>2026-05-02T09:28:53.138Z</time></trkpt><trkpt lat="42.2833922" lon="13.7884128"><ele>345.0</ele><time>2026-05-02T09:28:54.137Z</time></trkpt><trkpt lat="42.2833971" lon="13.78828"><ele>344.2</ele><time>2026-05-02T09:28:55.137Z</time></trkpt><trkpt lat="42.283387" lon="13.7881454"><ele>343.4</ele><time>2026-05-02T09:28:56.137Z</time></trkpt><trkpt lat="42.2833647" lon="13.7880129"><ele>342.6</ele><time>2026-05-02T09:28:57.136Z</time></trkpt><trkpt lat="42.2833219" lon="13.7878783"><ele>341.8</ele><time>2026-05-02T09:28:58.137Z</time></trkpt><trkpt lat="42.283274" lon="13.7877447"><ele>341.0</ele><time>2026-05-02T09:28:59.137Z</time></trkpt><trkpt lat="42.2832127" lon="13.7876176"><ele>341.0</ele><time>2026-05-02T09:29:00.137Z</time></trkpt><trkpt lat="42.2831457" lon="13.7874995"><ele>341.0</ele><time>2026-05-02T09:29:01.137Z</time></trkpt><trkpt lat="42.2830895" lon="13.7874062"><ele>341.0</ele><time>2026-05-02T09:29:02.137Z</time></trkpt><trkpt lat="42.2830401" lon="13.787322"><ele>341.0</ele><time>2026-05-02T09:29:03.138Z</time></trkpt><trkpt lat="42.2829899" lon="13.787228"><ele>341.0</ele><time>2026-05-02T09:29:05.136Z</time></trkpt><trkpt lat="42.2829503" lon="13.7871612"><ele>341.0</ele><time>2026-05-02T09:29:07.136Z</time></trkpt><trkpt lat="42.2829136" lon="13.7870815"><ele>341.0</ele><time>2026-05-02T09:29:08.136Z</time></trkpt><trkpt lat="42.2828675" lon="13.7869844"><ele>341.0</ele><time>2026-05-02T09:29:09.136Z</time></trkpt><trkpt lat="42.2828132" lon="13.786861"><ele>341.0</ele><time>2026-05-02T09:29:10.136Z</time></trkpt><trkpt lat="42.2827478" lon="13.7867108"><ele>341.0</ele><time>2026-05-02T09:29:11.137Z</time></trkpt><trkpt lat="42.2826767" lon="13.7865364"><ele>341.0</ele><time>2026-05-02T09:29:12.137Z</time></trkpt><trkpt lat="42.2826045" lon="13.7863465"><ele>341.0</ele><time>2026-05-02T09:29:13.136Z</time></trkpt><trkpt lat="42.2825373" lon="13.7861496"><ele>341.0</ele><time>2026-05-02T09:29:14.137Z</time></trkpt><trkpt lat="42.2824748" lon="13.7859643"><ele>340.6666666666667</ele><time>2026-05-02T09:29:15.136Z</time></trkpt><trkpt lat="42.2824094" lon="13.78578"><ele>340.3333333333333</ele><time>2026-05-02T09:29:16.136Z</time></trkpt><trkpt lat="42.2823496" lon="13.7855844"><ele>340.0</ele><time>2026-05-02T09:29:17.136Z</time></trkpt><trkpt lat="42.2822907" lon="13.7853729"><ele>340.0</ele><time>2026-05-02T09:29:18.136Z</time></trkpt><trkpt lat="42.2822329" lon="13.7851529"><ele>340.0</ele><time>2026-05-02T09:29:19.138Z</time></trkpt><trkpt lat="42.282173" lon="13.784922"><ele>340.0</ele><time>2026-05-02T09:29:20.136Z</time></trkpt><trkpt lat="42.2821146" lon="13.7846879"><ele>340.0</ele><time>2026-05-02T09:29:21.137Z</time></trkpt><trkpt lat="42.2820579" lon="13.7844644"><ele>340.0</ele><time>2026-05-02T09:29:22.137Z</time></trkpt><trkpt lat="42.2820013" lon="13.7842339"><ele>340.0</ele><time>2026-05-02T09:29:23.138Z</time></trkpt><trkpt lat="42.2819467" lon="13.7840116"><ele>340.0</ele><time>2026-05-02T09:29:24.137Z</time></trkpt><trkpt lat="42.2818929" lon="13.7837902"><ele>340.0</ele><time>2026-05-02T09:29:25.137Z</time></trkpt><trkpt lat="42.2818404" lon="13.7835724"><ele>340.0</ele><time>2026-05-02T09:29:26.137Z</time></trkpt><trkpt lat="42.2817798" lon="13.783357"><ele>339.66666666666663</ele><time>2026-05-02T09:29:27.137Z</time></trkpt><trkpt lat="42.2817131" lon="13.7831349"><ele>339.3333333333333</ele><time>2026-05-02T09:29:28.138Z</time></trkpt><trkpt lat="42.2816441" lon="13.78292"><ele>339.0</ele><time>2026-05-02T09:29:29.136Z</time></trkpt><trkpt lat="42.2815659" lon="13.7827068"><ele>340.0</ele><time>2026-05-02T09:29:30.136Z</time></trkpt><trkpt lat="42.2814913" lon="13.7824929"><ele>341.0</ele><time>2026-05-02T09:29:31.136Z</time></trkpt><trkpt lat="42.2814135" lon="13.7822756"><ele>342.0</ele><time>2026-05-02T09:29:32.136Z</time></trkpt><trkpt lat="42.2813397" lon="13.7820546"><ele>342.0</ele><time>2026-05-02T09:29:33.136Z</time></trkpt><trkpt lat="42.2812644" lon="13.7818315"><ele>342.0</ele><time>2026-05-02T09:29:34.136Z</time></trkpt><trkpt lat="42.2811926" lon="13.781609"><ele>342.0</ele><time>2026-05-02T09:29:35.137Z</time></trkpt><trkpt lat="42.2811238" lon="13.781406"><ele>342.0</ele><time>2026-05-02T09:29:36.136Z</time></trkpt><trkpt lat="42.2810602" lon="13.7812074"><ele>342.0</ele><time>2026-05-02T09:29:37.137Z</time></trkpt><trkpt lat="42.2810044" lon="13.7809977"><ele>342.0</ele><time>2026-05-02T09:29:38.136Z</time></trkpt><trkpt lat="42.2809486" lon="13.7807815"><ele>341.6666666666667</ele><time>2026-05-02T09:29:39.137Z</time></trkpt><trkpt lat="42.2808945" lon="13.78057"><ele>341.33333333333337</ele><time>2026-05-02T09:29:40.137Z</time></trkpt><trkpt lat="42.2808485" lon="13.7803679"><ele>341.0</ele><time>2026-05-02T09:29:41.136Z</time></trkpt><trkpt lat="42.2808023" lon="13.7801748"><ele>341.75</ele><time>2026-05-02T09:29:42.137Z</time></trkpt><trkpt lat="42.2807513" lon="13.7799841"><ele>342.5</ele><time>2026-05-02T09:29:43.136Z</time></trkpt><trkpt lat="42.2806916" lon="13.7798068"><ele>343.25</ele><time>2026-05-02T09:29:44.136Z</time></trkpt><trkpt lat="42.2806165" lon="13.7796297"><ele>344.0</ele><time>2026-05-02T09:29:45.137Z</time></trkpt><trkpt lat="42.2805468" lon="13.7794462"><ele>344.5</ele><time>2026-05-02T09:29:46.137Z</time></trkpt><trkpt lat="42.2804837" lon="13.7792679"><ele>345.0</ele><time>2026-05-02T09:29:47.136Z</time></trkpt><trkpt lat="42.2804377" lon="13.7790837"><ele>345.5</ele><time>2026-05-02T09:29:48.136Z</time></trkpt><trkpt lat="42.2804032" lon="13.7788896"><ele>346.0</ele><time>2026-05-02T09:29:49.136Z</time></trkpt><trkpt lat="42.2803683" lon="13.7786872"><ele>345.66666666666663</ele><time>2026-05-02T09:29:50.137Z</time></trkpt><trkpt lat="42.2803387" lon="13.778477"><ele>345.3333333333333</ele><time>2026-05-02T09:29:51.136Z</time></trkpt><trkpt lat="42.2803183" lon="13.7782575"><ele>345.0</ele><time>2026-05-02T09:29:52.136Z</time></trkpt><trkpt lat="42.2802915" lon="13.7780347"><ele>345.0</ele><time>2026-05-02T09:29:53.136Z</time></trkpt><trkpt lat="42.2802658" lon="13.7778173"><ele>345.0</ele><time>2026-05-02T09:29:54.137Z</time></trkpt><trkpt lat="42.280238" lon="13.7776127"><ele>345.0</ele><time>2026-05-02T09:29:55.136Z</time></trkpt><trkpt lat="42.2802084" lon="13.7774133"><ele>345.3333333333333</ele><time>2026-05-02T09:29:56.136Z</time></trkpt><trkpt lat="42.2801784" lon="13.7772103"><ele>345.66666666666663</ele><time>2026-05-02T09:29:57.136Z</time></trkpt><trkpt lat="42.2801374" lon="13.7770138"><ele>346.0</ele><time>2026-05-02T09:29:58.138Z</time></trkpt><trkpt lat="42.2800964" lon="13.7768209"><ele>346.0</ele><time>2026-05-02T09:29:59.138Z</time></trkpt><trkpt lat="42.2800588" lon="13.7766264"><ele>346.0</ele><time>2026-05-02T09:30:00.137Z</time></trkpt><trkpt lat="42.2800263" lon="13.7764269"><ele>346.0</ele><time>2026-05-02T09:30:01.137Z</time></trkpt><trkpt lat="42.2800016" lon="13.7762348"><ele>346.0</ele><time>2026-05-02T09:30:02.136Z</time></trkpt><trkpt lat="42.2799819" lon="13.77604"><ele>346.20000000000005</ele><time>2026-05-02T09:30:03.136Z</time></trkpt><trkpt lat="42.2799687" lon="13.7758457"><ele>346.40000000000003</ele><time>2026-05-02T09:30:04.138Z</time></trkpt><trkpt lat="42.2799659" lon="13.7756919"><ele>346.6</ele><time>2026-05-02T09:30:05.136Z</time></trkpt><trkpt lat="42.2799684" lon="13.7755729"><ele>346.8</ele><time>2026-05-02T09:30:06.137Z</time></trkpt><trkpt lat="42.2799878" lon="13.7754864"><ele>347.0</ele><time>2026-05-02T09:30:07.137Z</time></trkpt><trkpt lat="42.2800869" lon="13.7753543"><ele>347.0</ele><time>2026-05-02T09:30:09.136Z</time></trkpt><trkpt lat="42.2801738" lon="13.7752886"><ele>347.0</ele><time>2026-05-02T09:30:10.136Z</time></trkpt><trkpt lat="42.280284" lon="13.7752127"><ele>347.0</ele><time>2026-05-02T09:30:11.136Z</time></trkpt><trkpt lat="42.2804218" lon="13.7751193"><ele>347.0</ele><time>2026-05-02T09:30:12.136Z</time></trkpt><trkpt lat="42.2805694" lon="13.7750181"><ele>347.0</ele><time>2026-05-02T09:30:13.136Z</time></trkpt><trkpt lat="42.2807299" lon="13.774912"><ele>347.0</ele><time>2026-05-02T09:30:14.137Z</time></trkpt><trkpt lat="42.2808753" lon="13.7748143"><ele>347.0</ele><time>2026-05-02T09:30:15.137Z</time></trkpt><trkpt lat="42.2810105" lon="13.7747214"><ele>347.0</ele><time>2026-05-02T09:30:16.136Z</time></trkpt><trkpt lat="42.2811278" lon="13.7746452"><ele>347.0</ele><time>2026-05-02T09:30:17.136Z</time></trkpt><trkpt lat="42.2812279" lon="13.7745805"><ele>347.0</ele><time>2026-05-02T09:30:18.136Z</time></trkpt><trkpt lat="42.2813137" lon="13.7745305"><ele>347.0</ele><time>2026-05-02T09:30:19.137Z</time></trkpt><trkpt lat="42.281385" lon="13.7744932"><ele>347.0</ele><time>2026-05-02T09:30:20.136Z</time></trkpt><trkpt lat="42.2814751" lon="13.7744497"><ele>347.40000000000003</ele><time>2026-05-02T09:30:22.137Z</time></trkpt><trkpt lat="42.2815303" lon="13.7743772"><ele>347.8</ele><time>2026-05-02T09:30:57.137Z</time></trkpt><trkpt lat="42.281515" lon="13.7742798"><ele>348.2</ele><time>2026-05-02T09:30:59.136Z</time></trkpt><trkpt lat="42.2814266" lon="13.7741484"><ele>348.6</ele><time>2026-05-02T09:31:01.136Z</time></trkpt><trkpt lat="42.2813651" lon="13.7740746"><ele>349.0</ele><time>2026-05-02T09:31:02.136Z</time></trkpt><trkpt lat="42.2812993" lon="13.7739996"><ele>349.3333333333333</ele><time>2026-05-02T09:31:03.138Z</time></trkpt><trkpt lat="42.2812341" lon="13.7739241"><ele>349.66666666666663</ele><time>2026-05-02T09:31:04.138Z</time></trkpt><trkpt lat="42.28118" lon="13.7738533"><ele>350.0</ele><time>2026-05-02T09:31:05.137Z</time></trkpt><trkpt lat="42.2811239" lon="13.7737862"><ele>350.3333333333333</ele><time>2026-05-02T09:31:06.136Z</time></trkpt><trkpt lat="42.2810682" lon="13.7737167"><ele>350.6666666666667</ele><time>2026-05-02T09:31:07.137Z</time></trkpt><trkpt lat="42.2810107" lon="13.7736389"><ele>351.0</ele><time>2026-05-02T09:31:08.136Z</time></trkpt><trkpt lat="42.2809469" lon="13.7735393"><ele>352.75</ele><time>2026-05-02T09:31:09.137Z</time></trkpt><trkpt lat="42.2808784" lon="13.7734232"><ele>354.5</ele><time>2026-05-02T09:31:10.137Z</time></trkpt><trkpt lat="42.2808093" lon="13.7732932"><ele>356.25</ele><time>2026-05-02T09:31:11.136Z</time></trkpt><trkpt lat="42.2807349" lon="13.7731481"><ele>358.0</ele><time>2026-05-02T09:31:12.136Z</time></trkpt><trkpt lat="42.2806551" lon="13.7729925"><ele>357.25</ele><time>2026-05-02T09:31:13.137Z</time></trkpt><trkpt lat="42.2805691" lon="13.7728256"><ele>356.5</ele><time>2026-05-02T09:31:14.137Z</time></trkpt><trkpt lat="42.2804874" lon="13.7726688"><ele>355.75</ele><time>2026-05-02T09:31:15.136Z</time></trkpt><trkpt lat="42.2804175" lon="13.7725249"><ele>355.0</ele><time>2026-05-02T09:31:16.136Z</time></trkpt><trkpt lat="42.2803497" lon="13.7723942"><ele>355.0</ele><time>2026-05-02T09:31:17.136Z</time></trkpt><trkpt lat="42.2802718" lon="13.772282"><ele>355.0</ele><time>2026-05-02T09:31:18.136Z</time></trkpt><trkpt lat="42.2801778" lon="13.772193"><ele>355.0</ele><time>2026-05-02T09:31:19.136Z</time></trkpt><trkpt lat="42.2800605" lon="13.7721103"><ele>355.0</ele><time>2026-05-02T09:31:20.137Z</time></trkpt><trkpt lat="42.2799515" lon="13.7720337"><ele>355.0</ele><time>2026-05-02T09:31:21.138Z</time></trkpt><trkpt lat="42.2798536" lon="13.7719423"><ele>355.0</ele><time>2026-05-02T09:31:22.137Z</time></trkpt><trkpt lat="42.2797584" lon="13.77183"><ele>355.0</ele><time>2026-05-02T09:31:23.138Z</time></trkpt><trkpt lat="42.279672" lon="13.771695"><ele>355.0</ele><time>2026-05-02T09:31:24.136Z</time></trkpt><trkpt lat="42.2795995" lon="13.7715381"><ele>355.5</ele><time>2026-05-02T09:31:25.136Z</time></trkpt><trkpt lat="42.2795347" lon="13.7713717"><ele>356.0</ele><time>2026-05-02T09:31:26.136Z</time></trkpt><trkpt lat="42.2794756" lon="13.7712011"><ele>356.5</ele><time>2026-05-02T09:31:27.137Z</time></trkpt><trkpt lat="42.279415" lon="13.7710212"><ele>357.0</ele><time>2026-05-02T09:31:28.136Z</time></trkpt><trkpt lat="42.2793555" lon="13.7708458"><ele>357.5</ele><time>2026-05-02T09:31:29.136Z</time></trkpt><trkpt lat="42.2792967" lon="13.7706814"><ele>358.0</ele><time>2026-05-02T09:31:30.138Z</time></trkpt><trkpt lat="42.2792458" lon="13.7705405"><ele>358.5</ele><time>2026-05-02T09:31:31.137Z</time></trkpt><trkpt lat="42.2792" lon="13.7704084"><ele>359.0</ele><time>2026-05-02T09:31:32.136Z</time></trkpt><trkpt lat="42.2791578" lon="13.7702947"><ele>359.0</ele><time>2026-05-02T09:31:33.136Z</time></trkpt><trkpt lat="42.2791192" lon="13.7701984"><ele>359.0</ele><time>2026-05-02T09:31:34.138Z</time></trkpt><trkpt lat="42.2790872" lon="13.7701051"><ele>359.0</ele><time>2026-05-02T09:31:35.137Z</time></trkpt><trkpt lat="42.279055" lon="13.7700129"><ele>359.0</ele><time>2026-05-02T09:31:36.136Z</time></trkpt><trkpt lat="42.2790223" lon="13.7699247"><ele>359.0</ele><time>2026-05-02T09:31:37.136Z</time></trkpt><trkpt lat="42.2789919" lon="13.7698333"><ele>359.0</ele><time>2026-05-02T09:31:38.137Z</time></trkpt><trkpt lat="42.2789653" lon="13.7697354"><ele>359.2</ele><time>2026-05-02T09:31:39.138Z</time></trkpt><trkpt lat="42.2789356" lon="13.769637"><ele>359.4</ele><time>2026-05-02T09:31:40.136Z</time></trkpt><trkpt lat="42.2788886" lon="13.769501"><ele>359.6</ele><time>2026-05-02T09:31:42.137Z</time></trkpt><trkpt lat="42.2788673" lon="13.7693877"><ele>359.8</ele><time>2026-05-02T09:31:44.136Z</time></trkpt><trkpt lat="42.2789151" lon="13.7692752"><ele>360.0</ele><time>2026-05-02T09:31:46.136Z</time></trkpt><trkpt lat="42.2789742" lon="13.7692044"><ele>360.75</ele><time>2026-05-02T09:31:47.136Z</time></trkpt><trkpt lat="42.2790615" lon="13.7691289"><ele>361.5</ele><time>2026-05-02T09:31:48.138Z</time></trkpt><trkpt lat="42.2791687" lon="13.7690469"><ele>362.25</ele><time>2026-05-02T09:31:49.136Z</time></trkpt><trkpt lat="42.2792896" lon="13.7689579"><ele>363.0</ele><time>2026-05-02T09:31:50.136Z</time></trkpt><trkpt lat="42.2794236" lon="13.7688651"><ele>363.0</ele><time>2026-05-02T09:31:51.137Z</time></trkpt><trkpt lat="42.2795679" lon="13.7687621"><ele>363.0</ele><time>2026-05-02T09:31:52.136Z</time></trkpt><trkpt lat="42.2797107" lon="13.7686594"><ele>363.0</ele><time>2026-05-02T09:31:53.137Z</time></trkpt><trkpt lat="42.279844" lon="13.7685688"><ele>364.0</ele><time>2026-05-02T09:31:54.136Z</time></trkpt><trkpt lat="42.2799613" lon="13.7684743"><ele>365.0</ele><time>2026-05-02T09:31:55.137Z</time></trkpt><trkpt lat="42.2800694" lon="13.7683568"><ele>366.0</ele><time>2026-05-02T09:31:56.137Z</time></trkpt><trkpt lat="42.2801733" lon="13.7682164"><ele>367.0</ele><time>2026-05-02T09:31:57.136Z</time></trkpt><trkpt lat="42.2802805" lon="13.7680681"><ele>367.0</ele><time>2026-05-02T09:31:58.136Z</time></trkpt><trkpt lat="42.2804081" lon="13.7679066"><ele>367.0</ele><time>2026-05-02T09:31:59.136Z</time></trkpt><trkpt lat="42.2805469" lon="13.7677377"><ele>367.0</ele><time>2026-05-02T09:32:00.137Z</time></trkpt><trkpt lat="42.2807067" lon="13.7675681"><ele>368.3333333333333</ele><time>2026-05-02T09:32:01.136Z</time></trkpt><trkpt lat="42.2808762" lon="13.7674086"><ele>369.6666666666667</ele><time>2026-05-02T09:32:02.136Z</time></trkpt><trkpt lat="42.281039" lon="13.7672573"><ele>371.0</ele><time>2026-05-02T09:32:03.136Z</time></trkpt><trkpt lat="42.2811949" lon="13.7671202"><ele>371.0</ele><time>2026-05-02T09:32:04.136Z</time></trkpt><trkpt lat="42.2813356" lon="13.7669962"><ele>371.0</ele><time>2026-05-02T09:32:05.136Z</time></trkpt><trkpt lat="42.2814582" lon="13.7668799"><ele>371.0</ele><time>2026-05-02T09:32:06.138Z</time></trkpt><trkpt lat="42.2815725" lon="13.7667661"><ele>372.6666666666667</ele><time>2026-05-02T09:32:07.136Z</time></trkpt><trkpt lat="42.2816874" lon="13.7666415"><ele>374.3333333333333</ele><time>2026-05-02T09:32:08.136Z</time></trkpt><trkpt lat="42.281796" lon="13.766505"><ele>376.0</ele><time>2026-05-02T09:32:09.136Z</time></trkpt><trkpt lat="42.2819053" lon="13.7663505"><ele>376.0</ele><time>2026-05-02T09:32:10.137Z</time></trkpt><trkpt lat="42.2820207" lon="13.7661786"><ele>376.0</ele><time>2026-05-02T09:32:11.136Z</time></trkpt><trkpt lat="42.2821429" lon="13.7659945"><ele>376.0</ele><time>2026-05-02T09:32:12.136Z</time></trkpt><trkpt lat="42.2822697" lon="13.7658055"><ele>377.3333333333333</ele><time>2026-05-02T09:32:13.136Z</time></trkpt><trkpt lat="42.2823975" lon="13.7656144"><ele>378.6666666666667</ele><time>2026-05-02T09:32:14.137Z</time></trkpt><trkpt lat="42.2825235" lon="13.7654249"><ele>380.0</ele><time>2026-05-02T09:32:15.137Z</time></trkpt><trkpt lat="42.2826467" lon="13.7652375"><ele>381.33333333333337</ele><time>2026-05-02T09:32:16.137Z</time></trkpt><trkpt lat="42.2827686" lon="13.7650515"><ele>382.6666666666667</ele><time>2026-05-02T09:32:17.137Z</time></trkpt><trkpt lat="42.2828869" lon="13.7648682"><ele>384.0</ele><time>2026-05-02T09:32:18.136Z</time></trkpt><trkpt lat="42.2829987" lon="13.7647029"><ele>384.33333333333337</ele><time>2026-05-02T09:32:19.136Z</time></trkpt><trkpt lat="42.2831083" lon="13.764541"><ele>384.6666666666667</ele><time>2026-05-02T09:32:20.137Z</time></trkpt><trkpt lat="42.2832106" lon="13.7643864"><ele>385.0</ele><time>2026-05-02T09:32:21.137Z</time></trkpt><trkpt lat="42.2833008" lon="13.764248"><ele>385.4</ele><time>2026-05-02T09:32:22.137Z</time></trkpt><trkpt lat="42.2833819" lon="13.7641242"><ele>385.8</ele><time>2026-05-02T09:32:23.136Z</time></trkpt><trkpt lat="42.2834564" lon="13.7640049"><ele>386.20000000000005</ele><time>2026-05-02T09:32:24.136Z</time></trkpt><trkpt lat="42.2835103" lon="13.7639201"><ele>386.6</ele><time>2026-05-02T09:32:25.137Z</time></trkpt><trkpt lat="42.2835499" lon="13.7638203"><ele>387.0</ele><time>2026-05-02T09:32:27.137Z</time></trkpt><trkpt lat="42.2834973" lon="13.7637524"><ele>387.0</ele><time>2026-05-02T09:32:29.137Z</time></trkpt><trkpt lat="42.2834326" lon="13.7637343"><ele>387.0</ele><time>2026-05-02T09:32:30.136Z</time></trkpt><trkpt lat="42.2833476" lon="13.7637281"><ele>387.0</ele><time>2026-05-02T09:32:31.136Z</time></trkpt><trkpt lat="42.2832465" lon="13.7637257"><ele>387.0</ele><time>2026-05-02T09:32:32.136Z</time></trkpt><trkpt lat="42.2831399" lon="13.7637254"><ele>387.0</ele><time>2026-05-02T09:32:33.136Z</time></trkpt><trkpt lat="42.28304" lon="13.7637247"><ele>387.6666666666667</ele><time>2026-05-02T09:32:34.137Z</time></trkpt><trkpt lat="42.2829559" lon="13.7637277"><ele>388.33333333333337</ele><time>2026-05-02T09:32:35.137Z</time></trkpt><trkpt lat="42.2828806" lon="13.7637365"><ele>389.0</ele><time>2026-05-02T09:32:36.136Z</time></trkpt><trkpt lat="42.2828173" lon="13.7637419"><ele>389.6666666666667</ele><time>2026-05-02T09:32:37.136Z</time></trkpt><trkpt lat="42.2826934" lon="13.7637245"><ele>390.33333333333337</ele><time>2026-05-02T09:32:39.137Z</time></trkpt><trkpt lat="42.2826278" lon="13.7636981"><ele>391.0</ele><time>2026-05-02T09:32:40.136Z</time></trkpt><trkpt lat="42.2825672" lon="13.7636616"><ele>391.00000000000006</ele><time>2026-05-02T09:32:41.136Z</time></trkpt><trkpt lat="42.2825032" lon="13.7636256"><ele>391.0</ele><time>2026-05-02T09:32:42.137Z</time></trkpt><trkpt lat="42.2824338" lon="13.7635899"><ele>391.0</ele><time>2026-05-02T09:32:43.136Z</time></trkpt><trkpt lat="42.2823637" lon="13.7635544"><ele>391.0</ele><time>2026-05-02T09:32:44.136Z</time></trkpt><trkpt lat="42.2822827" lon="13.7635318"><ele>391.00000000000006</ele><time>2026-05-02T09:32:45.136Z</time></trkpt><trkpt lat="42.2821971" lon="13.7635317"><ele>391.0</ele><time>2026-05-02T09:32:46.137Z</time></trkpt><trkpt lat="42.28212" lon="13.7635503"><ele>393.8</ele><time>2026-05-02T09:32:47.136Z</time></trkpt><trkpt lat="42.2820316" lon="13.7635772"><ele>396.6</ele><time>2026-05-02T09:32:48.137Z</time></trkpt><trkpt lat="42.2819445" lon="13.7635794"><ele>399.4</ele><time>2026-05-02T09:32:49.136Z</time></trkpt><trkpt lat="42.2818567" lon="13.7635666"><ele>402.2</ele><time>2026-05-02T09:32:50.137Z</time></trkpt><trkpt lat="42.2817613" lon="13.7635564"><ele>405.0</ele><time>2026-05-02T09:32:51.136Z</time></trkpt><trkpt lat="42.2816548" lon="13.7635645"><ele>405.0</ele><time>2026-05-02T09:32:52.137Z</time></trkpt><trkpt lat="42.2815491" lon="13.7635897"><ele>405.0</ele><time>2026-05-02T09:32:53.137Z</time></trkpt><trkpt lat="42.2814461" lon="13.7636169"><ele>405.0</ele><time>2026-05-02T09:32:54.136Z</time></trkpt><trkpt lat="42.2813403" lon="13.7636445"><ele>405.0</ele><time>2026-05-02T09:32:55.136Z</time></trkpt><trkpt lat="42.2812433" lon="13.7636533"><ele>405.0</ele><time>2026-05-02T09:32:56.137Z</time></trkpt><trkpt lat="42.2811546" lon="13.7636529"><ele>407.4</ele><time>2026-05-02T09:32:57.137Z</time></trkpt><trkpt lat="42.2810655" lon="13.7636311"><ele>409.8</ele><time>2026-05-02T09:32:58.138Z</time></trkpt><trkpt lat="42.280976" lon="13.7635947"><ele>412.20000000000005</ele><time>2026-05-02T09:32:59.137Z</time></trkpt><trkpt lat="42.2809052" lon="13.7635831"><ele>414.6</ele><time>2026-05-02T09:34:16.136Z</time></trkpt><trkpt lat="42.280804" lon="13.7635527"><ele>417.0</ele><time>2026-05-02T09:34:19.137Z</time></trkpt><trkpt lat="42.2807116" lon="13.7635237"><ele>417.0</ele><time>2026-05-02T09:34:21.136Z</time></trkpt><trkpt lat="42.2806065" lon="13.7634796"><ele>417.0</ele><time>2026-05-02T09:34:23.136Z</time></trkpt><trkpt lat="42.2804842" lon="13.7634348"><ele>417.0</ele><time>2026-05-02T09:34:25.136Z</time></trkpt><trkpt lat="42.2804122" lon="13.7634157"><ele>417.0</ele><time>2026-05-02T09:34:26.136Z</time></trkpt><trkpt lat="42.2803327" lon="13.7633915"><ele>417.0</ele><time>2026-05-02T09:34:27.137Z</time></trkpt><trkpt lat="42.2802518" lon="13.7633553"><ele>422.40000000000003</ele><time>2026-05-02T09:34:28.136Z</time></trkpt><trkpt lat="42.280184" lon="13.7632968"><ele>427.8</ele><time>2026-05-02T09:34:29.136Z</time></trkpt><trkpt lat="42.2801149" lon="13.7632279"><ele>433.2</ele><time>2026-05-02T09:34:30.137Z</time></trkpt><trkpt lat="42.280044" lon="13.7631533"><ele>438.6</ele><time>2026-05-02T09:34:31.137Z</time></trkpt><trkpt lat="42.2799688" lon="13.7630744"><ele>444.0</ele><time>2026-05-02T09:34:32.136Z</time></trkpt><trkpt lat="42.279893" lon="13.7629854"><ele>444.0</ele><time>2026-05-02T09:34:33.136Z</time></trkpt><trkpt lat="42.2798207" lon="13.7628945"><ele>444.0</ele><time>2026-05-02T09:34:34.136Z</time></trkpt><trkpt lat="42.2797525" lon="13.7628172"><ele>444.0</ele><time>2026-05-02T09:34:35.137Z</time></trkpt><trkpt lat="42.2796863" lon="13.7627533"><ele>444.0</ele><time>2026-05-02T09:34:36.137Z</time></trkpt><trkpt lat="42.2796158" lon="13.7626854"><ele>444.0</ele><time>2026-05-02T09:34:37.137Z</time></trkpt><trkpt lat="42.2795348" lon="13.7626281"><ele>444.0</ele><time>2026-05-02T09:34:38.137Z</time></trkpt><trkpt lat="42.2794383" lon="13.7625805"><ele>448.0</ele><time>2026-05-02T09:34:39.137Z</time></trkpt><trkpt lat="42.2793277" lon="13.7625392"><ele>452.0</ele><time>2026-05-02T09:34:40.137Z</time></trkpt><trkpt lat="42.2792024" lon="13.7624938"><ele>456.0</ele><time>2026-05-02T09:34:41.136Z</time></trkpt><trkpt lat="42.2790773" lon="13.7624319"><ele>460.0</ele><time>2026-05-02T09:34:42.136Z</time></trkpt><trkpt lat="42.2789622" lon="13.7623769"><ele>461.8</ele><time>2026-05-02T09:34:43.136Z</time></trkpt><trkpt lat="42.2788637" lon="13.7623349"><ele>463.6</ele><time>2026-05-02T09:34:44.137Z</time></trkpt><trkpt lat="42.2787649" lon="13.7622891"><ele>465.4</ele><time>2026-05-02T09:34:45.136Z</time></trkpt><trkpt lat="42.2786526" lon="13.7622476"><ele>467.2</ele><time>2026-05-02T09:34:46.137Z</time></trkpt><trkpt lat="42.2785456" lon="13.7622033"><ele>469.0</ele><time>2026-05-02T09:34:47.136Z</time></trkpt><trkpt lat="42.278464" lon="13.7621598"><ele>469.00000000000006</ele><time>2026-05-02T09:34:48.137Z</time></trkpt><trkpt lat="42.2783985" lon="13.7621055"><ele>469.0</ele><time>2026-05-02T09:34:49.137Z</time></trkpt><trkpt lat="42.2783473" lon="13.7620504"><ele>469.0</ele><time>2026-05-02T09:34:50.136Z</time></trkpt><trkpt lat="42.2782567" lon="13.7619347"><ele>469.0</ele><time>2026-05-02T09:34:52.137Z</time></trkpt><trkpt lat="42.2782012" lon="13.7618807"><ele>469.00000000000006</ele><time>2026-05-02T09:34:53.137Z</time></trkpt><trkpt lat="42.2781334" lon="13.7618323"><ele>469.0</ele><time>2026-05-02T09:34:54.136Z</time></trkpt><trkpt lat="42.2780524" lon="13.7617927"><ele>470.6</ele><time>2026-05-02T09:34:55.136Z</time></trkpt><trkpt lat="42.2779515" lon="13.7617596"><ele>472.2</ele><time>2026-05-02T09:34:56.136Z</time></trkpt><trkpt lat="42.277842" lon="13.7617324"><ele>473.80000000000007</ele><time>2026-05-02T09:34:57.136Z</time></trkpt><trkpt lat="42.2777414" lon="13.7617126"><ele>475.40000000000003</ele><time>2026-05-02T09:34:58.136Z</time></trkpt><trkpt lat="42.27765" lon="13.7617182"><ele>477.0</ele><time>2026-05-02T09:34:59.137Z</time></trkpt><trkpt lat="42.2775678" lon="13.7617402"><ele>477.0</ele><time>2026-05-02T09:35:00.136Z</time></trkpt><trkpt lat="42.2774983" lon="13.7617645"><ele>477.00000000000006</ele><time>2026-05-02T09:35:01.137Z</time></trkpt><trkpt lat="42.2773839" lon="13.7617867"><ele>477.00000000000006</ele><time>2026-05-02T09:35:03.136Z</time></trkpt><trkpt lat="42.2773153" lon="13.761768"><ele>477.0</ele><time>2026-05-02T09:35:05.138Z</time></trkpt><trkpt lat="42.2772311" lon="13.7617663"><ele>477.0</ele><time>2026-05-02T09:37:00.136Z</time></trkpt><trkpt lat="42.2770942" lon="13.7617636"><ele>478.8</ele><time>2026-05-02T09:37:02.136Z</time></trkpt><trkpt lat="42.2770029" lon="13.7617529"><ele>480.6</ele><time>2026-05-02T09:37:03.137Z</time></trkpt><trkpt lat="42.2768972" lon="13.7617547"><ele>482.40000000000003</ele><time>2026-05-02T09:37:04.137Z</time></trkpt><trkpt lat="42.2767808" lon="13.7617604"><ele>484.20000000000005</ele><time>2026-05-02T09:37:05.137Z</time></trkpt><trkpt lat="42.2766637" lon="13.7617507"><ele>486.0</ele><time>2026-05-02T09:37:06.137Z</time></trkpt><trkpt lat="42.2765641" lon="13.7617203"><ele>486.0</ele><time>2026-05-02T09:37:07.136Z</time></trkpt><trkpt lat="42.2764718" lon="13.7616679"><ele>486.0</ele><time>2026-05-02T09:37:08.137Z</time></trkpt><trkpt lat="42.2763616" lon="13.7616037"><ele>486.0</ele><time>2026-05-02T09:37:09.136Z</time></trkpt><trkpt lat="42.2762333" lon="13.7615373"><ele>486.0</ele><time>2026-05-02T09:37:10.136Z</time></trkpt><trkpt lat="42.2760968" lon="13.7614624"><ele>489.25</ele><time>2026-05-02T09:37:11.136Z</time></trkpt><trkpt lat="42.275971" lon="13.7613783"><ele>492.5</ele><time>2026-05-02T09:37:12.137Z</time></trkpt><trkpt lat="42.275865" lon="13.7612901"><ele>495.75</ele><time>2026-05-02T09:37:13.136Z</time></trkpt><trkpt lat="42.2757632" lon="13.7612061"><ele>499.0</ele><time>2026-05-02T09:37:14.136Z</time></trkpt><trkpt lat="42.2756564" lon="13.7611256"><ele>500.0</ele><time>2026-05-02T09:37:15.137Z</time></trkpt><trkpt lat="42.2755432" lon="13.7610457"><ele>501.0</ele><time>2026-05-02T09:37:16.137Z</time></trkpt><trkpt lat="42.2754162" lon="13.7609569"><ele>502.0</ele><time>2026-05-02T09:37:17.136Z</time></trkpt><trkpt lat="42.275267" lon="13.7608601"><ele>503.0</ele><time>2026-05-02T09:37:18.136Z</time></trkpt><trkpt lat="42.2751072" lon="13.7607612"><ele>503.0</ele><time>2026-05-02T09:37:19.138Z</time></trkpt><trkpt lat="42.2749666" lon="13.7606757"><ele>502.99999999999994</ele><time>2026-05-02T09:37:20.136Z</time></trkpt><trkpt lat="42.274851" lon="13.7606069"><ele>502.99999999999994</ele><time>2026-05-02T09:37:21.137Z</time></trkpt><trkpt lat="42.2747645" lon="13.7605569"><ele>503.0</ele><time>2026-05-02T09:37:22.137Z</time></trkpt><trkpt lat="42.2746975" lon="13.7605155"><ele>503.0</ele><time>2026-05-02T09:37:24.137Z</time></trkpt><trkpt lat="42.2746297" lon="13.7605356"><ele>504.4</ele><time>2026-05-02T09:37:26.138Z</time></trkpt><trkpt lat="42.2745286" lon="13.7606595"><ele>505.79999999999995</ele><time>2026-05-02T09:37:28.137Z</time></trkpt><trkpt lat="42.274458" lon="13.7607495"><ele>507.2</ele><time>2026-05-02T09:37:29.136Z</time></trkpt><trkpt lat="42.274388" lon="13.7608406"><ele>508.6</ele><time>2026-05-02T09:37:30.137Z</time></trkpt><trkpt lat="42.2743396" lon="13.7608955"><ele>510.0</ele><time>2026-05-02T09:37:31.136Z</time></trkpt><trkpt lat="42.2742821" lon="13.7609759"><ele>510.0</ele><time>2026-05-02T09:37:34.136Z</time></trkpt><trkpt lat="42.2743484" lon="13.7609211"><ele>510.0</ele><time>2026-05-02T09:37:38.136Z</time></trkpt><trkpt lat="42.2744052" lon="13.7608405"><ele>510.0</ele><time>2026-05-02T09:37:39.136Z</time></trkpt><trkpt lat="42.2744799" lon="13.7607519"><ele>510.0</ele><time>2026-05-02T09:37:40.136Z</time></trkpt><trkpt lat="42.2745699" lon="13.7606451"><ele>510.0</ele><time>2026-05-02T09:37:41.136Z</time></trkpt><trkpt lat="42.2746747" lon="13.7605115"><ele>507.66666666666663</ele><time>2026-05-02T09:37:42.136Z</time></trkpt><trkpt lat="42.2747887" lon="13.7603532"><ele>505.3333333333333</ele><time>2026-05-02T09:37:43.136Z</time></trkpt><trkpt lat="42.274912" lon="13.7601797"><ele>503.0</ele><time>2026-05-02T09:37:44.137Z</time></trkpt><trkpt lat="42.2750354" lon="13.7600071"><ele>503.0</ele><time>2026-05-02T09:37:45.136Z</time></trkpt><trkpt lat="42.2751448" lon="13.7598452"><ele>503.0</ele><time>2026-05-02T09:37:46.137Z</time></trkpt><trkpt lat="42.2752481" lon="13.7596845"><ele>503.0</ele><time>2026-05-02T09:37:47.136Z</time></trkpt><trkpt lat="42.2753558" lon="13.759506"><ele>504.0</ele><time>2026-05-02T09:37:48.136Z</time></trkpt><trkpt lat="42.2754676" lon="13.7593193"><ele>505.0</ele><time>2026-05-02T09:37:49.137Z</time></trkpt><trkpt lat="42.2755827" lon="13.7591439"><ele>506.0</ele><time>2026-05-02T09:37:50.136Z</time></trkpt><trkpt lat="42.275698" lon="13.7589851"><ele>503.0</ele><time>2026-05-02T09:37:51.137Z</time></trkpt><trkpt lat="42.2758" lon="13.7588537"><ele>500.0</ele><time>2026-05-02T09:37:52.137Z</time></trkpt><trkpt lat="42.2758724" lon="13.7587652"><ele>497.0</ele><time>2026-05-02T09:37:53.138Z</time></trkpt><trkpt lat="42.2759346" lon="13.7586878"><ele>494.0</ele><time>2026-05-02T09:37:55.137Z</time></trkpt><trkpt lat="42.275873" lon="13.7586247"><ele>491.0</ele><time>2026-05-02T09:37:58.137Z</time></trkpt><trkpt lat="42.2758094" lon="13.7586405"><ele>490.99999999999994</ele><time>2026-05-02T09:38:00.137Z</time></trkpt><trkpt lat="42.2757374" lon="13.7586501"><ele>491.0</ele><time>2026-05-02T09:38:26.136Z</time></trkpt><trkpt lat="42.2756382" lon="13.7586682"><ele>491.0</ele><time>2026-05-02T09:38:28.136Z</time></trkpt><trkpt lat="42.2755305" lon="13.7586935"><ele>491.0</ele><time>2026-05-02T09:38:30.135Z</time></trkpt><trkpt lat="42.275467" lon="13.7587085"><ele>490.99999999999994</ele><time>2026-05-02T09:38:31.135Z</time></trkpt><trkpt lat="42.2753928" lon="13.7587287"><ele>491.0</ele><time>2026-05-02T09:38:32.136Z</time></trkpt><trkpt lat="42.2753221" lon="13.7587461"><ele>493.49999999999994</ele><time>2026-05-02T09:38:33.135Z</time></trkpt><trkpt lat="42.2752475" lon="13.7587651"><ele>496.0</ele><time>2026-05-02T09:38:34.135Z</time></trkpt><trkpt lat="42.2751627" lon="13.7587824"><ele>498.5</ele><time>2026-05-02T09:38:35.136Z</time></trkpt><trkpt lat="42.2750752" lon="13.7588027"><ele>501.0</ele><time>2026-05-02T09:38:36.135Z</time></trkpt><trkpt lat="42.2749815" lon="13.758826"><ele>503.49999999999994</ele><time>2026-05-02T09:38:37.135Z</time></trkpt><trkpt lat="42.2748863" lon="13.7588384"><ele>506.0</ele><time>2026-05-02T09:38:38.136Z</time></trkpt><trkpt lat="42.2748076" lon="13.7588496"><ele>507.49999999999994</ele><time>2026-05-02T09:38:39.135Z</time></trkpt><trkpt lat="42.2747248" lon="13.7588677"><ele>509.0</ele><time>2026-05-02T09:38:40.135Z</time></trkpt><trkpt lat="42.2746326" lon="13.7588944"><ele>510.5</ele><time>2026-05-02T09:38:41.136Z</time></trkpt><trkpt lat="42.2745331" lon="13.7589288"><ele>512.0</ele><time>2026-05-02T09:38:42.135Z</time></trkpt><trkpt lat="42.2744464" lon="13.7589462"><ele>513.5</ele><time>2026-05-02T09:38:43.135Z</time></trkpt><trkpt lat="42.2743703" lon="13.7589607"><ele>515.0</ele><time>2026-05-02T09:38:44.135Z</time></trkpt><trkpt lat="42.2742992" lon="13.7589708"><ele>515.0</ele><time>2026-05-02T09:38:45.136Z</time></trkpt><trkpt lat="42.2742241" lon="13.7589965"><ele>515.0</ele><time>2026-05-02T09:38:46.135Z</time></trkpt><trkpt lat="42.2741467" lon="13.759037"><ele>515.0</ele><time>2026-05-02T09:38:47.137Z</time></trkpt><trkpt lat="42.2740613" lon="13.7590921"><ele>515.0</ele><time>2026-05-02T09:38:48.136Z</time></trkpt><trkpt lat="42.2740072" lon="13.7591433"><ele>515.0</ele><time>2026-05-02T09:38:49.135Z</time></trkpt><trkpt lat="42.2739808" lon="13.7592403"><ele>515.0</ele><time>2026-05-02T09:38:51.135Z</time></trkpt><trkpt lat="42.2739633" lon="13.7593448"><ele>516.8</ele><time>2026-05-02T09:38:53.137Z</time></trkpt><trkpt lat="42.27392" lon="13.7594656"><ele>518.6</ele><time>2026-05-02T09:38:55.135Z</time></trkpt><trkpt lat="42.2738482" lon="13.7596206"><ele>520.4</ele><time>2026-05-02T09:38:57.135Z</time></trkpt><trkpt lat="42.2738064" lon="13.7596951"><ele>522.2</ele><time>2026-05-02T09:38:58.135Z</time></trkpt><trkpt lat="42.2737037" lon="13.7597588"><ele>524.0</ele><time>2026-05-02T09:39:00.136Z</time></trkpt><trkpt lat="42.2736342" lon="13.7597642"><ele>524.0</ele><time>2026-05-02T09:39:01.135Z</time></trkpt><trkpt lat="42.2735369" lon="13.7597487"><ele>524.0</ele><time>2026-05-02T09:39:02.135Z</time></trkpt><trkpt lat="42.2734076" lon="13.7597226"><ele>524.0</ele><time>2026-05-02T09:39:03.135Z</time></trkpt><trkpt lat="42.2732801" lon="13.7597235"><ele>524.0</ele><time>2026-05-02T09:39:04.136Z</time></trkpt><trkpt lat="42.2731761" lon="13.7597531"><ele>524.6</ele><time>2026-05-02T09:39:05.135Z</time></trkpt><trkpt lat="42.2730766" lon="13.7597857"><ele>525.2</ele><time>2026-05-02T09:39:06.136Z</time></trkpt><trkpt lat="42.2729849" lon="13.7598003"><ele>525.8000000000001</ele><time>2026-05-02T09:39:07.135Z</time></trkpt><trkpt lat="42.2728787" lon="13.7597825"><ele>526.4</ele><time>2026-05-02T09:39:08.135Z</time></trkpt><trkpt lat="42.2727556" lon="13.7597392"><ele>527.0</ele><time>2026-05-02T09:39:09.135Z</time></trkpt><trkpt lat="42.2726482" lon="13.7596912"><ele>527.0</ele><time>2026-05-02T09:39:10.135Z</time></trkpt><trkpt lat="42.2725521" lon="13.7596519"><ele>527.0</ele><time>2026-05-02T09:39:11.135Z</time></trkpt><trkpt lat="42.2724488" lon="13.7596095"><ele>527.0</ele><time>2026-05-02T09:39:12.135Z</time></trkpt><trkpt lat="42.2723364" lon="13.7595557"><ele>527.0</ele><time>2026-05-02T09:39:13.135Z</time></trkpt><trkpt lat="42.2722282" lon="13.7595013"><ele>527.0</ele><time>2026-05-02T09:39:14.135Z</time></trkpt><trkpt lat="42.272132" lon="13.7594477"><ele>527.3333333333333</ele><time>2026-05-02T09:39:15.135Z</time></trkpt><trkpt lat="42.2720497" lon="13.7593851"><ele>527.6666666666666</ele><time>2026-05-02T09:39:16.135Z</time></trkpt><trkpt lat="42.2719914" lon="13.7593049"><ele>528.0</ele><time>2026-05-02T09:39:17.135Z</time></trkpt><trkpt lat="42.2719523" lon="13.7591958"><ele>528.3333333333334</ele><time>2026-05-02T09:39:18.136Z</time></trkpt><trkpt lat="42.2719194" lon="13.7590818"><ele>528.6666666666667</ele><time>2026-05-02T09:39:19.135Z</time></trkpt><trkpt lat="42.2718724" lon="13.7589858"><ele>529.0</ele><time>2026-05-02T09:39:20.135Z</time></trkpt><trkpt lat="42.2718109" lon="13.7589175"><ele>529.3333333333334</ele><time>2026-05-02T09:39:21.136Z</time></trkpt><trkpt lat="42.2717433" lon="13.75888"><ele>529.6666666666667</ele><time>2026-05-02T09:39:22.135Z</time></trkpt><trkpt lat="42.2716742" lon="13.7588489"><ele>530.0</ele><time>2026-05-02T09:39:23.136Z</time></trkpt><trkpt lat="42.2716046" lon="13.7588126"><ele>530.3333333333334</ele><time>2026-05-02T09:39:24.135Z</time></trkpt><trkpt lat="42.2715359" lon="13.7587811"><ele>530.6666666666666</ele><time>2026-05-02T09:39:25.135Z</time></trkpt><trkpt lat="42.2714531" lon="13.7587644"><ele>531.0</ele><time>2026-05-02T09:39:26.137Z</time></trkpt><trkpt lat="42.2713566" lon="13.7587496"><ele>531.0</ele><time>2026-05-02T09:39:27.135Z</time></trkpt><trkpt lat="42.2712471" lon="13.7587346"><ele>531.0</ele><time>2026-05-02T09:39:28.135Z</time></trkpt><trkpt lat="42.2711334" lon="13.758724"><ele>531.0</ele><time>2026-05-02T09:39:29.136Z</time></trkpt><trkpt lat="42.2710078" lon="13.7587166"><ele>531.0</ele><time>2026-05-02T09:39:30.135Z</time></trkpt><trkpt lat="42.2708868" lon="13.7587161"><ele>531.0</ele><time>2026-05-02T09:39:31.136Z</time></trkpt><trkpt lat="42.2707831" lon="13.7587128"><ele>531.0</ele><time>2026-05-02T09:39:32.137Z</time></trkpt><trkpt lat="42.2706894" lon="13.7587129"><ele>531.0</ele><time>2026-05-02T09:39:33.136Z</time></trkpt><trkpt lat="42.2705916" lon="13.7587227"><ele>531.0</ele><time>2026-05-02T09:39:34.135Z</time></trkpt><trkpt lat="42.270461" lon="13.7587455"><ele>531.0</ele><time>2026-05-02T09:39:35.135Z</time></trkpt><trkpt lat="42.2703082" lon="13.7587663"><ele>531.3333333333334</ele><time>2026-05-02T09:39:36.136Z</time></trkpt><trkpt lat="42.2701407" lon="13.7587935"><ele>531.6666666666667</ele><time>2026-05-02T09:39:37.135Z</time></trkpt><trkpt lat="42.2699934" lon="13.7588313"><ele>532.0</ele><time>2026-05-02T09:39:38.135Z</time></trkpt><trkpt lat="42.2698471" lon="13.7588918"><ele>532.3333333333334</ele><time>2026-05-02T09:39:39.135Z</time></trkpt><trkpt lat="42.269689" lon="13.7589676"><ele>532.6666666666666</ele><time>2026-05-02T09:39:40.135Z</time></trkpt><trkpt lat="42.2695306" lon="13.7590501"><ele>533.0</ele><time>2026-05-02T09:39:41.135Z</time></trkpt><trkpt lat="42.2693816" lon="13.759122"><ele>533.0</ele><time>2026-05-02T09:39:42.136Z</time></trkpt><trkpt lat="42.2692492" lon="13.7591862"><ele>533.0</ele><time>2026-05-02T09:39:43.136Z</time></trkpt><trkpt lat="42.2691241" lon="13.7592398"><ele>533.0</ele><time>2026-05-02T09:39:44.136Z</time></trkpt><trkpt lat="42.2690131" lon="13.7592814"><ele>533.0</ele><time>2026-05-02T09:39:45.135Z</time></trkpt><trkpt lat="42.2689148" lon="13.7593158"><ele>532.6666666666666</ele><time>2026-05-02T09:39:46.135Z</time></trkpt><trkpt lat="42.2688458" lon="13.7593452"><ele>532.3333333333333</ele><time>2026-05-02T09:39:47.136Z</time></trkpt><trkpt lat="42.2688037" lon="13.7594199"><ele>532.0</ele><time>2026-05-02T09:39:50.136Z</time></trkpt><trkpt lat="42.2688753" lon="13.7595536"><ele>531.6666666666666</ele><time>2026-05-02T09:39:52.136Z</time></trkpt><trkpt lat="42.2688869" lon="13.7597046"><ele>531.3333333333334</ele><time>2026-05-02T09:39:54.135Z</time></trkpt><trkpt lat="42.2688715" lon="13.7597875"><ele>531.0</ele><time>2026-05-02T09:39:55.136Z</time></trkpt><trkpt lat="42.2688387" lon="13.7599511"><ele>532.2</ele><time>2026-05-02T09:39:57.136Z</time></trkpt><trkpt lat="42.2688081" lon="13.7600872"><ele>533.4000000000001</ele><time>2026-05-02T09:39:59.135Z</time></trkpt><trkpt lat="42.2687668" lon="13.7602349"><ele>534.6</ele><time>2026-05-02T09:40:01.136Z</time></trkpt><trkpt lat="42.2687362" lon="13.7603358"><ele>535.8000000000001</ele><time>2026-05-02T09:40:02.135Z</time></trkpt><trkpt lat="42.2687059" lon="13.7604423"><ele>537.0</ele><time>2026-05-02T09:40:03.135Z</time></trkpt><trkpt lat="42.2686798" lon="13.7605427"><ele>537.0</ele><time>2026-05-02T09:40:04.135Z</time></trkpt><trkpt lat="42.2686431" lon="13.7606814"><ele>537.0</ele><time>2026-05-02T09:40:06.136Z</time></trkpt><trkpt lat="42.2686032" lon="13.7607945"><ele>537.0</ele><time>2026-05-02T09:40:08.137Z</time></trkpt><trkpt lat="42.2685665" lon="13.7609012"><ele>537.0</ele><time>2026-05-02T09:40:10.136Z</time></trkpt><trkpt lat="42.2685355" lon="13.7610043"><ele>537.0</ele><time>2026-05-02T09:40:12.135Z</time></trkpt><trkpt lat="42.2685085" lon="13.7610969"><ele>537.0</ele><time>2026-05-02T09:40:14.135Z</time></trkpt><trkpt lat="42.2685775" lon="13.7609823"><ele>537.0</ele><time>2026-05-02T09:40:21.136Z</time></trkpt><trkpt lat="42.2686202" lon="13.760814"><ele>537.0</ele><time>2026-05-02T09:40:23.135Z</time></trkpt><trkpt lat="42.2686447" lon="13.7607189"><ele>537.0</ele><time>2026-05-02T09:40:24.135Z</time></trkpt><trkpt lat="42.2686715" lon="13.7606274"><ele>537.0</ele><time>2026-05-02T09:40:25.136Z</time></trkpt><trkpt lat="42.268704" lon="13.7605302"><ele>537.0</ele><time>2026-05-02T09:40:26.135Z</time></trkpt><trkpt lat="42.2687323" lon="13.7604354"><ele>537.0</ele><time>2026-05-02T09:40:27.136Z</time></trkpt><trkpt lat="42.2687602" lon="13.7603315"><ele>537.0</ele><time>2026-05-02T09:40:28.136Z</time></trkpt><trkpt lat="42.2687829" lon="13.7602415"><ele>537.0</ele><time>2026-05-02T09:40:29.136Z</time></trkpt><trkpt lat="42.2688046" lon="13.7601543"><ele>537.0</ele><time>2026-05-02T09:40:30.136Z</time></trkpt><trkpt lat="42.2688416" lon="13.7600083"><ele>537.0</ele><time>2026-05-02T09:40:32.136Z</time></trkpt><trkpt lat="42.2688784" lon="13.7598529"><ele>537.0</ele><time>2026-05-02T09:40:34.136Z</time></trkpt><trkpt lat="42.2688894" lon="13.7597583"><ele>537.0</ele><time>2026-05-02T09:40:35.136Z</time></trkpt><trkpt lat="42.2689025" lon="13.7596547"><ele>537.2</ele><time>2026-05-02T09:40:36.136Z</time></trkpt><trkpt lat="42.2688963" lon="13.7595596"><ele>537.4000000000001</ele><time>2026-05-02T09:40:37.135Z</time></trkpt><trkpt lat="42.2688637" lon="13.7594831"><ele>537.5999999999999</ele><time>2026-05-02T09:40:38.136Z</time></trkpt><trkpt lat="42.2687704" lon="13.7594111"><ele>537.8</ele><time>2026-05-02T09:40:40.136Z</time></trkpt><trkpt lat="42.2686898" lon="13.7594512"><ele>538.0</ele><time>2026-05-02T09:40:42.135Z</time></trkpt><trkpt lat="42.2686102" lon="13.7595894"><ele>538.0</ele><time>2026-05-02T09:40:44.136Z</time></trkpt><trkpt lat="42.2685756" lon="13.7596885"><ele>538.0</ele><time>2026-05-02T09:40:45.135Z</time></trkpt><trkpt lat="42.2685309" lon="13.7597878"><ele>538.0</ele><time>2026-05-02T09:40:46.136Z</time></trkpt><trkpt lat="42.2684773" lon="13.7598934"><ele>538.0</ele><time>2026-05-02T09:40:47.136Z</time></trkpt><trkpt lat="42.2684169" lon="13.7600128"><ele>538.0</ele><time>2026-05-02T09:40:48.135Z</time></trkpt><trkpt lat="42.2683474" lon="13.7601337"><ele>537.75</ele><time>2026-05-02T09:40:49.136Z</time></trkpt><trkpt lat="42.2682536" lon="13.7602658"><ele>537.5</ele><time>2026-05-02T09:40:50.136Z</time></trkpt><trkpt lat="42.2681633" lon="13.7603809"><ele>537.25</ele><time>2026-05-02T09:40:51.135Z</time></trkpt><trkpt lat="42.2680596" lon="13.7605092"><ele>537.0</ele><time>2026-05-02T09:40:52.136Z</time></trkpt><trkpt lat="42.2679575" lon="13.7606365"><ele>538.0</ele><time>2026-05-02T09:40:53.136Z</time></trkpt><trkpt lat="42.2678658" lon="13.7607654"><ele>539.0</ele><time>2026-05-02T09:40:54.135Z</time></trkpt><trkpt lat="42.2677683" lon="13.7608853"><ele>540.0</ele><time>2026-05-02T09:40:55.136Z</time></trkpt><trkpt lat="42.2676849" lon="13.7610007"><ele>541.0</ele><time>2026-05-02T09:40:56.137Z</time></trkpt><trkpt lat="42.2676023" lon="13.761125"><ele>541.0</ele><time>2026-05-02T09:40:57.136Z</time></trkpt><trkpt lat="42.2675354" lon="13.7612518"><ele>541.0</ele><time>2026-05-02T09:40:58.135Z</time></trkpt><trkpt lat="42.2674691" lon="13.76137"><ele>541.0</ele><time>2026-05-02T09:40:59.135Z</time></trkpt><trkpt lat="42.2674041" lon="13.761472"><ele>541.0</ele><time>2026-05-02T09:41:00.136Z</time></trkpt><trkpt lat="42.2673368" lon="13.7615459"><ele>541.0</ele><time>2026-05-02T09:41:01.135Z</time></trkpt><trkpt lat="42.2672496" lon="13.7616217"><ele>540.8333333333334</ele><time>2026-05-02T09:41:02.137Z</time></trkpt><trkpt lat="42.2671621" lon="13.7616872"><ele>540.6666666666667</ele><time>2026-05-02T09:41:03.136Z</time></trkpt><trkpt lat="42.2670925" lon="13.7617394"><ele>540.5</ele><time>2026-05-02T09:41:04.135Z</time></trkpt><trkpt lat="42.2669982" lon="13.7617946"><ele>540.3333333333334</ele><time>2026-05-02T09:41:06.135Z</time></trkpt><trkpt lat="42.2669331" lon="13.7617935"><ele>540.1666666666666</ele><time>2026-05-02T09:41:08.135Z</time></trkpt><trkpt lat="42.2668492" lon="13.7618605"><ele>540.0</ele><time>2026-05-02T09:41:12.135Z</time></trkpt><trkpt lat="42.2667742" lon="13.7619205"><ele>541.3333333333334</ele><time>2026-05-02T09:41:14.136Z</time></trkpt><trkpt lat="42.2667036" lon="13.7619891"><ele>542.6666666666666</ele><time>2026-05-02T09:41:17.079Z</time></trkpt><trkpt lat="42.2667499" lon="13.7620536"><ele>544.0</ele><time>2026-05-02T09:41:20.135Z</time></trkpt><trkpt lat="42.2668263" lon="13.7620743"><ele>545.3333333333333</ele><time>2026-05-02T09:41:22.135Z</time></trkpt><trkpt lat="42.2668617" lon="13.7621641"><ele>546.6666666666666</ele><time>2026-05-02T09:41:24.135Z</time></trkpt><trkpt lat="42.2668313" lon="13.7622693"><ele>548.0</ele><time>2026-05-02T09:41:26.057Z</time></trkpt><trkpt lat="42.2667281" lon="13.7624145"><ele>548.0</ele><time>2026-05-02T09:41:27.137Z</time></trkpt><trkpt lat="42.2666469" lon="13.7625382"><ele>548.0</ele><time>2026-05-02T09:41:28.135Z</time></trkpt><trkpt lat="42.2665555" lon="13.7626326"><ele>548.0</ele><time>2026-05-02T09:41:29.136Z</time></trkpt><trkpt lat="42.2664588" lon="13.7627101"><ele>548.0</ele><time>2026-05-02T09:41:30.135Z</time></trkpt><trkpt lat="42.2663587" lon="13.7628201"><ele>549.75</ele><time>2026-05-02T09:41:31.135Z</time></trkpt><trkpt lat="42.2662667" lon="13.7629394"><ele>551.5</ele><time>2026-05-02T09:41:32.135Z</time></trkpt><trkpt lat="42.2661734" lon="13.7630197"><ele>553.25</ele><time>2026-05-02T09:41:33.137Z</time></trkpt><trkpt lat="42.2660522" lon="13.7630721"><ele>555.0</ele><time>2026-05-02T09:41:34.135Z</time></trkpt><trkpt lat="42.2659034" lon="13.7631114"><ele>555.0</ele><time>2026-05-02T09:41:35.135Z</time></trkpt><trkpt lat="42.2657596" lon="13.7631429"><ele>555.0</ele><time>2026-05-02T09:41:36.136Z</time></trkpt><trkpt lat="42.2656343" lon="13.7631888"><ele>555.0</ele><time>2026-05-02T09:41:37.136Z</time></trkpt><trkpt lat="42.2655143" lon="13.763268"><ele>555.0</ele><time>2026-05-02T09:41:38.135Z</time></trkpt><trkpt lat="42.2654014" lon="13.7633442"><ele>557.0</ele><time>2026-05-02T09:41:39.136Z</time></trkpt><trkpt lat="42.265288" lon="13.7633826"><ele>559.0</ele><time>2026-05-02T09:41:40.136Z</time></trkpt><trkpt lat="42.2651511" lon="13.763381"><ele>561.0</ele><time>2026-05-02T09:41:41.136Z</time></trkpt><trkpt lat="42.2650073" lon="13.7633604"><ele>563.0</ele><time>2026-05-02T09:41:42.136Z</time></trkpt><trkpt lat="42.2648781" lon="13.763343"><ele>563.25</ele><time>2026-05-02T09:41:43.136Z</time></trkpt><trkpt lat="42.2647468" lon="13.7633412"><ele>563.5</ele><time>2026-05-02T09:41:44.135Z</time></trkpt><trkpt lat="42.2646116" lon="13.7633616"><ele>563.75</ele><time>2026-05-02T09:41:45.135Z</time></trkpt><trkpt lat="42.2644708" lon="13.7634103"><ele>564.0</ele><time>2026-05-02T09:41:46.135Z</time></trkpt><trkpt lat="42.2643086" lon="13.7634904"><ele>568.3333333333334</ele><time>2026-05-02T09:41:47.136Z</time></trkpt><trkpt lat="42.2641345" lon="13.7635838"><ele>572.6666666666667</ele><time>2026-05-02T09:41:48.136Z</time></trkpt><trkpt lat="42.2639837" lon="13.7636738"><ele>577.0</ele><time>2026-05-02T09:41:49.135Z</time></trkpt><trkpt lat="42.2638578" lon="13.7637653"><ele>577.0</ele><time>2026-05-02T09:41:50.136Z</time></trkpt><trkpt lat="42.2637303" lon="13.7638718"><ele>577.0</ele><time>2026-05-02T09:41:51.136Z</time></trkpt><trkpt lat="42.2635787" lon="13.7639965"><ele>577.0</ele><time>2026-05-02T09:41:52.136Z</time></trkpt><trkpt lat="42.2634177" lon="13.7641186"><ele>577.0</ele><time>2026-05-02T09:41:53.136Z</time></trkpt><trkpt lat="42.2632518" lon="13.7642327"><ele>577.0</ele><time>2026-05-02T09:41:54.135Z</time></trkpt><trkpt lat="42.263088" lon="13.7643443"><ele>577.0</ele><time>2026-05-02T09:41:55.137Z</time></trkpt><trkpt lat="42.2629496" lon="13.7644352"><ele>580.75</ele><time>2026-05-02T09:41:56.135Z</time></trkpt><trkpt lat="42.2628243" lon="13.764509"><ele>584.5</ele><time>2026-05-02T09:41:57.135Z</time></trkpt><trkpt lat="42.2627072" lon="13.7645689"><ele>588.25</ele><time>2026-05-02T09:41:58.136Z</time></trkpt><trkpt lat="42.2625865" lon="13.7646094"><ele>592.0</ele><time>2026-05-02T09:41:59.136Z</time></trkpt><trkpt lat="42.2624474" lon="13.7646359"><ele>592.0</ele><time>2026-05-02T09:42:00.135Z</time></trkpt><trkpt lat="42.2622953" lon="13.7646693"><ele>592.0</ele><time>2026-05-02T09:42:01.136Z</time></trkpt><trkpt lat="42.2621321" lon="13.7647224"><ele>592.0</ele><time>2026-05-02T09:42:02.135Z</time></trkpt><trkpt lat="42.2619675" lon="13.7647932"><ele>592.3333333333334</ele><time>2026-05-02T09:42:03.136Z</time></trkpt><trkpt lat="42.2618093" lon="13.7648656"><ele>592.6666666666666</ele><time>2026-05-02T09:42:04.136Z</time></trkpt><trkpt lat="42.2616361" lon="13.7649225"><ele>593.0</ele><time>2026-05-02T09:42:05.136Z</time></trkpt><trkpt lat="42.2614421" lon="13.7649655"><ele>591.0</ele><time>2026-05-02T09:42:06.136Z</time></trkpt><trkpt lat="42.2612579" lon="13.7650139"><ele>589.0</ele><time>2026-05-02T09:42:07.135Z</time></trkpt><trkpt lat="42.2610957" lon="13.7650559"><ele>587.0</ele><time>2026-05-02T09:42:08.136Z</time></trkpt><trkpt lat="42.2609365" lon="13.7650981"><ele>587.0</ele><time>2026-05-02T09:42:09.136Z</time></trkpt><trkpt lat="42.2607782" lon="13.765154"><ele>587.0</ele><time>2026-05-02T09:42:10.135Z</time></trkpt><trkpt lat="42.2606048" lon="13.7652212"><ele>587.0</ele><time>2026-05-02T09:42:11.136Z</time></trkpt><trkpt lat="42.2604209" lon="13.765291"><ele>595.0</ele><time>2026-05-02T09:42:12.135Z</time></trkpt><trkpt lat="42.2602602" lon="13.7653605"><ele>603.0</ele><time>2026-05-02T09:42:13.135Z</time></trkpt><trkpt lat="42.2601103" lon="13.7654263"><ele>611.0</ele><time>2026-05-02T09:42:14.135Z</time></trkpt><trkpt lat="42.2599779" lon="13.765486"><ele>611.0</ele><time>2026-05-02T09:42:15.136Z</time></trkpt><trkpt lat="42.259852" lon="13.7655488"><ele>611.0</ele><time>2026-05-02T09:42:16.135Z</time></trkpt><trkpt lat="42.2597276" lon="13.7656032"><ele>611.0</ele><time>2026-05-02T09:42:17.135Z</time></trkpt><trkpt lat="42.2596006" lon="13.7656343"><ele>611.0</ele><time>2026-05-02T09:42:18.135Z</time></trkpt><trkpt lat="42.2594808" lon="13.7656386"><ele>610.5</ele><time>2026-05-02T09:42:19.135Z</time></trkpt><trkpt lat="42.2593482" lon="13.7656062"><ele>610.0</ele><time>2026-05-02T09:42:20.136Z</time></trkpt><trkpt lat="42.2592086" lon="13.7655615"><ele>609.5</ele><time>2026-05-02T09:42:21.136Z</time></trkpt><trkpt lat="42.2590565" lon="13.7655077"><ele>609.0</ele><time>2026-05-02T09:42:22.135Z</time></trkpt><trkpt lat="42.2588991" lon="13.7654622"><ele>608.75</ele><time>2026-05-02T09:42:23.136Z</time></trkpt><trkpt lat="42.2587427" lon="13.7654268"><ele>608.5</ele><time>2026-05-02T09:42:24.135Z</time></trkpt><trkpt lat="42.2586019" lon="13.7654018"><ele>608.25</ele><time>2026-05-02T09:42:25.136Z</time></trkpt><trkpt lat="42.258485" lon="13.7653875"><ele>608.0</ele><time>2026-05-02T09:42:26.135Z</time></trkpt><trkpt lat="42.258393" lon="13.7653764"><ele>608.0</ele><time>2026-05-02T09:42:27.135Z</time></trkpt><trkpt lat="42.2583124" lon="13.765355"><ele>608.0</ele><time>2026-05-02T09:42:28.135Z</time></trkpt><trkpt lat="42.2582195" lon="13.765322"><ele>608.0</ele><time>2026-05-02T09:42:29.135Z</time></trkpt><trkpt lat="42.2581087" lon="13.7652705"><ele>608.0</ele><time>2026-05-02T09:42:30.135Z</time></trkpt><trkpt lat="42.2579833" lon="13.7652004"><ele>608.0</ele><time>2026-05-02T09:42:31.135Z</time></trkpt><trkpt lat="42.257873" lon="13.7651324"><ele>610.0</ele><time>2026-05-02T09:42:32.136Z</time></trkpt><trkpt lat="42.2577645" lon="13.7650668"><ele>612.0</ele><time>2026-05-02T09:42:33.136Z</time></trkpt><trkpt lat="42.2576492" lon="13.7650083"><ele>614.0</ele><time>2026-05-02T09:42:34.135Z</time></trkpt><trkpt lat="42.2575358" lon="13.7649543"><ele>616.0</ele><time>2026-05-02T09:42:35.136Z</time></trkpt><trkpt lat="42.2574192" lon="13.7649013"><ele>616.0</ele><time>2026-05-02T09:42:36.135Z</time></trkpt><trkpt lat="42.2573065" lon="13.7648441"><ele>616.0</ele><time>2026-05-02T09:42:37.136Z</time></trkpt><trkpt lat="42.2571941" lon="13.76478"><ele>616.0</ele><time>2026-05-02T09:42:38.135Z</time></trkpt><trkpt lat="42.2570951" lon="13.7647205"><ele>616.0</ele><time>2026-05-02T09:42:39.136Z</time></trkpt><trkpt lat="42.2570124" lon="13.7646796"><ele>616.0</ele><time>2026-05-02T09:42:40.136Z</time></trkpt><trkpt lat="42.2569233" lon="13.7646643"><ele>616.8</ele><time>2026-05-02T09:42:41.135Z</time></trkpt><trkpt lat="42.256814" lon="13.7646953"><ele>617.6</ele><time>2026-05-02T09:42:42.135Z</time></trkpt><trkpt lat="42.2566891" lon="13.7647404"><ele>618.4</ele><time>2026-05-02T09:42:43.136Z</time></trkpt><trkpt lat="42.2565868" lon="13.7647645"><ele>619.2</ele><time>2026-05-02T09:42:44.137Z</time></trkpt><trkpt lat="42.2564929" lon="13.7647848"><ele>620.0</ele><time>2026-05-02T09:42:45.135Z</time></trkpt><trkpt lat="42.2563919" lon="13.7647937"><ele>622.0</ele><time>2026-05-02T09:42:46.136Z</time></trkpt><trkpt lat="42.2562947" lon="13.7648044"><ele>624.0</ele><time>2026-05-02T09:42:47.135Z</time></trkpt><trkpt lat="42.2561893" lon="13.7647991"><ele>626.0</ele><time>2026-05-02T09:42:48.137Z</time></trkpt><trkpt lat="42.2560699" lon="13.7647779"><ele>628.0</ele><time>2026-05-02T09:42:49.137Z</time></trkpt><trkpt lat="42.2559309" lon="13.7647558"><ele>628.0</ele><time>2026-05-02T09:42:50.135Z</time></trkpt><trkpt lat="42.2557709" lon="13.7647307"><ele>628.0</ele><time>2026-05-02T09:42:51.135Z</time></trkpt><trkpt lat="42.2556309" lon="13.7647108"><ele>628.0</ele><time>2026-05-02T09:42:52.136Z</time></trkpt><trkpt lat="42.2555091" lon="13.7646878"><ele>628.0</ele><time>2026-05-02T09:42:53.135Z</time></trkpt><trkpt lat="42.2554011" lon="13.7646603"><ele>629.25</ele><time>2026-05-02T09:42:54.136Z</time></trkpt><trkpt lat="42.2552787" lon="13.7646045"><ele>630.5</ele><time>2026-05-02T09:42:55.136Z</time></trkpt><trkpt lat="42.2551665" lon="13.7645535"><ele>631.75</ele><time>2026-05-02T09:42:56.136Z</time></trkpt><trkpt lat="42.255059" lon="13.7645434"><ele>633.0</ele><time>2026-05-02T09:42:57.137Z</time></trkpt><trkpt lat="42.2549476" lon="13.7645671"><ele>633.0</ele><time>2026-05-02T09:42:58.135Z</time></trkpt><trkpt lat="42.2548277" lon="13.7645775"><ele>633.0</ele><time>2026-05-02T09:42:59.135Z</time></trkpt><trkpt lat="42.2547144" lon="13.7645605"><ele>633.0</ele><time>2026-05-02T09:43:00.135Z</time></trkpt><trkpt lat="42.2545913" lon="13.7645454"><ele>633.0</ele><time>2026-05-02T09:43:01.135Z</time></trkpt><trkpt lat="42.2544738" lon="13.7645224"><ele>635.75</ele><time>2026-05-02T09:43:02.136Z</time></trkpt><trkpt lat="42.2543538" lon="13.7645047"><ele>638.5</ele><time>2026-05-02T09:43:03.135Z</time></trkpt><trkpt lat="42.2542256" lon="13.7644928"><ele>641.25</ele><time>2026-05-02T09:43:04.136Z</time></trkpt><trkpt lat="42.2541215" lon="13.7644756"><ele>644.0</ele><time>2026-05-02T09:43:05.137Z</time></trkpt><trkpt lat="42.2540253" lon="13.7644504"><ele>644.0</ele><time>2026-05-02T09:43:06.136Z</time></trkpt><trkpt lat="42.2539248" lon="13.7644152"><ele>644.0</ele><time>2026-05-02T09:43:07.136Z</time></trkpt><trkpt lat="42.253813" lon="13.7643556"><ele>644.0</ele><time>2026-05-02T09:43:08.136Z</time></trkpt><trkpt lat="42.2537181" lon="13.7643041"><ele>644.0</ele><time>2026-05-02T09:43:09.136Z</time></trkpt><trkpt lat="42.2536416" lon="13.7642475"><ele>644.0</ele><time>2026-05-02T09:43:10.135Z</time></trkpt><trkpt lat="42.2535794" lon="13.7641659"><ele>645.75</ele><time>2026-05-02T09:43:11.136Z</time></trkpt><trkpt lat="42.2535076" lon="13.76405"><ele>647.5</ele><time>2026-05-02T09:43:12.135Z</time></trkpt><trkpt lat="42.253425" lon="13.7639112"><ele>649.25</ele><time>2026-05-02T09:43:13.135Z</time></trkpt><trkpt lat="42.2533594" lon="13.7638048"><ele>651.0</ele><time>2026-05-02T09:43:14.135Z</time></trkpt><trkpt lat="42.2532814" lon="13.7637053"><ele>651.0</ele><time>2026-05-02T09:43:15.136Z</time></trkpt><trkpt lat="42.2531804" lon="13.7636245"><ele>651.0</ele><time>2026-05-02T09:43:16.136Z</time></trkpt><trkpt lat="42.253044" lon="13.7635566"><ele>651.0</ele><time>2026-05-02T09:43:17.136Z</time></trkpt><trkpt lat="42.2529034" lon="13.7635033"><ele>651.0</ele><time>2026-05-02T09:43:18.135Z</time></trkpt><trkpt lat="42.252771" lon="13.7634641"><ele>651.8</ele><time>2026-05-02T09:43:19.135Z</time></trkpt><trkpt lat="42.2526442" lon="13.7634425"><ele>652.5999999999999</ele><time>2026-05-02T09:43:20.136Z</time></trkpt><trkpt lat="42.2525432" lon="13.763438"><ele>653.4</ele><time>2026-05-02T09:43:21.135Z</time></trkpt><trkpt lat="42.2524553" lon="13.7634285"><ele>654.2</ele><time>2026-05-02T09:43:22.136Z</time></trkpt><trkpt lat="42.2523483" lon="13.7633981"><ele>655.0</ele><time>2026-05-02T09:43:23.135Z</time></trkpt><trkpt lat="42.2522305" lon="13.7633571"><ele>655.0</ele><time>2026-05-02T09:43:24.136Z</time></trkpt><trkpt lat="42.2521216" lon="13.7633088"><ele>655.0</ele><time>2026-05-02T09:43:25.136Z</time></trkpt><trkpt lat="42.2520191" lon="13.7632445"><ele>655.0</ele><time>2026-05-02T09:43:26.135Z</time></trkpt><trkpt lat="42.2519232" lon="13.7631723"><ele>655.0</ele><time>2026-05-02T09:43:27.135Z</time></trkpt><trkpt lat="42.2518391" lon="13.763087"><ele>655.0</ele><time>2026-05-02T09:43:28.136Z</time></trkpt><trkpt lat="42.2517587" lon="13.7629715"><ele>655.0</ele><time>2026-05-02T09:43:29.136Z</time></trkpt><trkpt lat="42.2516722" lon="13.762836"><ele>655.0</ele><time>2026-05-02T09:43:30.135Z</time></trkpt><trkpt lat="42.2515696" lon="13.762713"><ele>655.0</ele><time>2026-05-02T09:43:31.136Z</time></trkpt><trkpt lat="42.2514418" lon="13.7626053"><ele>655.0</ele><time>2026-05-02T09:43:32.136Z</time></trkpt><trkpt lat="42.2513074" lon="13.7624873"><ele>659.5</ele><time>2026-05-02T09:43:33.135Z</time></trkpt><trkpt lat="42.2511984" lon="13.7623876"><ele>664.0</ele><time>2026-05-02T09:43:34.135Z</time></trkpt><trkpt lat="42.2510998" lon="13.7623142"><ele>668.5</ele><time>2026-05-02T09:43:35.136Z</time></trkpt><trkpt lat="42.2509854" lon="13.7622599"><ele>673.0</ele><time>2026-05-02T09:43:36.135Z</time></trkpt><trkpt lat="42.2508771" lon="13.7622219"><ele>673.0</ele><time>2026-05-02T09:43:37.136Z</time></trkpt><trkpt lat="42.2507957" lon="13.7622063"><ele>673.0</ele><time>2026-05-02T09:43:38.137Z</time></trkpt><trkpt lat="42.2507261" lon="13.7622342"><ele>673.0</ele><time>2026-05-02T09:43:39.137Z</time></trkpt><trkpt lat="42.2506781" lon="13.7622952"><ele>673.0</ele><time>2026-05-02T09:43:40.136Z</time></trkpt><trkpt lat="42.2506503" lon="13.7623951"><ele>673.0</ele><time>2026-05-02T09:43:41.136Z</time></trkpt><trkpt lat="42.2506162" lon="13.7624984"><ele>673.0</ele><time>2026-05-02T09:43:42.135Z</time></trkpt><trkpt lat="42.250565" lon="13.7625678"><ele>672.0</ele><time>2026-05-02T09:43:43.135Z</time></trkpt><trkpt lat="42.2504797" lon="13.7626271"><ele>671.0</ele><time>2026-05-02T09:43:44.135Z</time></trkpt><trkpt lat="42.2503632" lon="13.7626828"><ele>670.0</ele><time>2026-05-02T09:43:45.135Z</time></trkpt><trkpt lat="42.2502247" lon="13.7627159"><ele>669.0</ele><time>2026-05-02T09:43:46.135Z</time></trkpt><trkpt lat="42.2500776" lon="13.7627387"><ele>669.0</ele><time>2026-05-02T09:43:47.136Z</time></trkpt><trkpt lat="42.2499339" lon="13.7627873"><ele>669.0</ele><time>2026-05-02T09:43:48.137Z</time></trkpt><trkpt lat="42.249825" lon="13.7628306"><ele>669.0</ele><time>2026-05-02T09:43:49.136Z</time></trkpt><trkpt lat="42.2497272" lon="13.7628873"><ele>669.0</ele><time>2026-05-02T09:43:50.137Z</time></trkpt><trkpt lat="42.2496233" lon="13.7629755"><ele>672.75</ele><time>2026-05-02T09:43:51.136Z</time></trkpt><trkpt lat="42.2495105" lon="13.763092"><ele>676.5</ele><time>2026-05-02T09:43:52.136Z</time></trkpt><trkpt lat="42.2494171" lon="13.7631849"><ele>680.25</ele><time>2026-05-02T09:43:53.137Z</time></trkpt><trkpt lat="42.2493249" lon="13.7632635"><ele>684.0</ele><time>2026-05-02T09:43:54.135Z</time></trkpt><trkpt lat="42.2492349" lon="13.7633294"><ele>684.0</ele><time>2026-05-02T09:43:55.136Z</time></trkpt><trkpt lat="42.2491229" lon="13.7633925"><ele>684.0</ele><time>2026-05-02T09:43:56.135Z</time></trkpt><trkpt lat="42.2489942" lon="13.7634713"><ele>684.0</ele><time>2026-05-02T09:43:57.135Z</time></trkpt><trkpt lat="42.2488635" lon="13.7635573"><ele>684.0</ele><time>2026-05-02T09:43:58.135Z</time></trkpt><trkpt lat="42.2487478" lon="13.7636545"><ele>685.0</ele><time>2026-05-02T09:43:59.136Z</time></trkpt><trkpt lat="42.2486323" lon="13.7637657"><ele>686.0</ele><time>2026-05-02T09:44:00.137Z</time></trkpt><trkpt lat="42.2485344" lon="13.7638721"><ele>687.0</ele><time>2026-05-02T09:44:01.136Z</time></trkpt><trkpt lat="42.2484164" lon="13.7640091"><ele>688.0</ele><time>2026-05-02T09:44:02.135Z</time></trkpt><trkpt lat="42.2482934" lon="13.7641473"><ele>688.0</ele><time>2026-05-02T09:44:03.135Z</time></trkpt><trkpt lat="42.2481852" lon="13.7642671"><ele>688.0</ele><time>2026-05-02T09:44:04.136Z</time></trkpt><trkpt lat="42.2480707" lon="13.7643923"><ele>688.0</ele><time>2026-05-02T09:44:05.135Z</time></trkpt><trkpt lat="42.2479653" lon="13.7645097"><ele>688.0</ele><time>2026-05-02T09:44:06.137Z</time></trkpt><trkpt lat="42.2478728" lon="13.764621"><ele>689.5999999999999</ele><time>2026-05-02T09:44:07.136Z</time></trkpt><trkpt lat="42.2477936" lon="13.7647516"><ele>691.1999999999999</ele><time>2026-05-02T09:44:08.135Z</time></trkpt><trkpt lat="42.2477374" lon="13.7648754"><ele>692.8</ele><time>2026-05-02T09:44:09.136Z</time></trkpt><trkpt lat="42.2476836" lon="13.7649805"><ele>694.4</ele><time>2026-05-02T09:44:10.135Z</time></trkpt><trkpt lat="42.247622" lon="13.7650736"><ele>696.0</ele><time>2026-05-02T09:44:11.136Z</time></trkpt><trkpt lat="42.2475349" lon="13.7651677"><ele>696.4</ele><time>2026-05-02T09:44:12.135Z</time></trkpt><trkpt lat="42.2474364" lon="13.7652405"><ele>696.8</ele><time>2026-05-02T09:44:13.135Z</time></trkpt><trkpt lat="42.2473297" lon="13.7653142"><ele>697.1999999999999</ele><time>2026-05-02T09:44:14.136Z</time></trkpt><trkpt lat="42.2472287" lon="13.7653883"><ele>697.5999999999999</ele><time>2026-05-02T09:44:15.135Z</time></trkpt><trkpt lat="42.2471505" lon="13.7654215"><ele>698.0</ele><time>2026-05-02T09:44:16.135Z</time></trkpt><trkpt lat="42.2470658" lon="13.7654555"><ele>700.8</ele><time>2026-05-02T09:44:17.135Z</time></trkpt><trkpt lat="42.246983" lon="13.765503"><ele>703.5999999999999</ele><time>2026-05-02T09:44:18.135Z</time></trkpt><trkpt lat="42.2469031" lon="13.7655541"><ele>706.4000000000001</ele><time>2026-05-02T09:44:19.135Z</time></trkpt><trkpt lat="42.2468163" lon="13.7656216"><ele>709.2</ele><time>2026-05-02T09:44:20.135Z</time></trkpt><trkpt lat="42.2467243" lon="13.7656926"><ele>712.0</ele><time>2026-05-02T09:44:21.135Z</time></trkpt><trkpt lat="42.2466245" lon="13.7657746"><ele>712.0</ele><time>2026-05-02T09:44:22.135Z</time></trkpt><trkpt lat="42.2465433" lon="13.7658369"><ele>712.0</ele><time>2026-05-02T09:44:23.136Z</time></trkpt><trkpt lat="42.2464718" lon="13.7659203"><ele>712.0</ele><time>2026-05-02T09:44:24.136Z</time></trkpt><trkpt lat="42.2463979" lon="13.7660231"><ele>712.0</ele><time>2026-05-02T09:44:25.136Z</time></trkpt><trkpt lat="42.2463136" lon="13.7661603"><ele>712.0</ele><time>2026-05-02T09:44:26.136Z</time></trkpt><trkpt lat="42.2462425" lon="13.7662592"><ele>713.3333333333334</ele><time>2026-05-02T09:44:27.136Z</time></trkpt><trkpt lat="42.2461656" lon="13.7663548"><ele>714.6666666666667</ele><time>2026-05-02T09:44:28.136Z</time></trkpt><trkpt lat="42.2461007" lon="13.7664397"><ele>716.0</ele><time>2026-05-02T09:44:29.137Z</time></trkpt><trkpt lat="42.2460318" lon="13.7665016"><ele>717.3333333333334</ele><time>2026-05-02T09:44:30.136Z</time></trkpt><trkpt lat="42.2459677" lon="13.7665267"><ele>718.6666666666666</ele><time>2026-05-02T09:44:31.137Z</time></trkpt><trkpt lat="42.2458861" lon="13.7665349"><ele>720.0</ele><time>2026-05-02T09:44:32.136Z</time></trkpt><trkpt lat="42.2457912" lon="13.766561"><ele>720.0</ele><time>2026-05-02T09:44:33.136Z</time></trkpt><trkpt lat="42.2456751" lon="13.766613"><ele>720.0</ele><time>2026-05-02T09:44:34.136Z</time></trkpt><trkpt lat="42.2455462" lon="13.7666694"><ele>720.0</ele><time>2026-05-02T09:44:35.136Z</time></trkpt><trkpt lat="42.2454361" lon="13.766737"><ele>720.0</ele><time>2026-05-02T09:44:36.135Z</time></trkpt><trkpt lat="42.2453528" lon="13.7667956"><ele>719.75</ele><time>2026-05-02T09:44:37.135Z</time></trkpt><trkpt lat="42.2452615" lon="13.7668334"><ele>719.5</ele><time>2026-05-02T09:44:38.136Z</time></trkpt><trkpt lat="42.2451358" lon="13.7668649"><ele>719.25</ele><time>2026-05-02T09:44:39.135Z</time></trkpt><trkpt lat="42.2449958" lon="13.7669073"><ele>719.0</ele><time>2026-05-02T09:44:40.135Z</time></trkpt><trkpt lat="42.2448749" lon="13.7669467"><ele>721.5</ele><time>2026-05-02T09:44:41.136Z</time></trkpt><trkpt lat="42.2447591" lon="13.7669931"><ele>724.0</ele><time>2026-05-02T09:44:42.136Z</time></trkpt><trkpt lat="42.2446313" lon="13.767028"><ele>726.5</ele><time>2026-05-02T09:44:43.135Z</time></trkpt><trkpt lat="42.2444994" lon="13.7670586"><ele>729.0</ele><time>2026-05-02T09:44:44.136Z</time></trkpt><trkpt lat="42.2443752" lon="13.767075"><ele>729.0</ele><time>2026-05-02T09:44:45.135Z</time></trkpt><trkpt lat="42.2442494" lon="13.7670885"><ele>729.0</ele><time>2026-05-02T09:44:46.136Z</time></trkpt><trkpt lat="42.2441374" lon="13.7671111"><ele>729.0</ele><time>2026-05-02T09:44:47.136Z</time></trkpt><trkpt lat="42.2440173" lon="13.7671415"><ele>729.0</ele><time>2026-05-02T09:44:48.135Z</time></trkpt><trkpt lat="42.2439137" lon="13.76717"><ele>732.0</ele><time>2026-05-02T09:44:49.135Z</time></trkpt><trkpt lat="42.2438119" lon="13.7672061"><ele>735.0</ele><time>2026-05-02T09:44:50.135Z</time></trkpt><trkpt lat="42.2436981" lon="13.7672461"><ele>738.0</ele><time>2026-05-02T09:44:51.136Z</time></trkpt><trkpt lat="42.2435975" lon="13.7672647"><ele>741.0</ele><time>2026-05-02T09:44:52.136Z</time></trkpt><trkpt lat="42.243485" lon="13.7672715"><ele>744.0</ele><time>2026-05-02T09:44:53.136Z</time></trkpt><trkpt lat="42.24337" lon="13.7672864"><ele>744.0</ele><time>2026-05-02T09:44:54.135Z</time></trkpt><trkpt lat="42.243275" lon="13.7673142"><ele>744.0</ele><time>2026-05-02T09:44:55.135Z</time></trkpt><trkpt lat="42.2431794" lon="13.767336"><ele>744.0</ele><time>2026-05-02T09:44:56.135Z</time></trkpt><trkpt lat="42.2430715" lon="13.7673459"><ele>744.0</ele><time>2026-05-02T09:44:57.135Z</time></trkpt><trkpt lat="42.2429621" lon="13.7673536"><ele>744.0</ele><time>2026-05-02T09:44:58.135Z</time></trkpt><trkpt lat="42.2428486" lon="13.7673564"><ele>747.25</ele><time>2026-05-02T09:44:59.135Z</time></trkpt><trkpt lat="42.2427353" lon="13.7673591"><ele>750.5</ele><time>2026-05-02T09:45:00.135Z</time></trkpt><trkpt lat="42.2426199" lon="13.767394"><ele>753.75</ele><time>2026-05-02T09:45:01.135Z</time></trkpt><trkpt lat="42.2424948" lon="13.7674424"><ele>757.0</ele><time>2026-05-02T09:45:02.136Z</time></trkpt><trkpt lat="42.242384" lon="13.7674793"><ele>761.75</ele><time>2026-05-02T09:45:03.137Z</time></trkpt><trkpt lat="42.2422734" lon="13.76751"><ele>766.5</ele><time>2026-05-02T09:45:04.137Z</time></trkpt><trkpt lat="42.242159" lon="13.767546"><ele>771.25</ele><time>2026-05-02T09:45:05.135Z</time></trkpt><trkpt lat="42.2420505" lon="13.767599"><ele>776.0</ele><time>2026-05-02T09:45:06.135Z</time></trkpt><trkpt lat="42.2419266" lon="13.76768"><ele>771.25</ele><time>2026-05-02T09:45:07.137Z</time></trkpt><trkpt lat="42.2418036" lon="13.7677703"><ele>766.5</ele><time>2026-05-02T09:45:08.136Z</time></trkpt><trkpt lat="42.2416987" lon="13.7678633"><ele>761.75</ele><time>2026-05-02T09:45:09.135Z</time></trkpt><trkpt lat="42.2415973" lon="13.7679686"><ele>757.0</ele><time>2026-05-02T09:45:10.135Z</time></trkpt><trkpt lat="42.2414986" lon="13.7680949"><ele>761.5</ele><time>2026-05-02T09:45:11.135Z</time></trkpt><trkpt lat="42.241401" lon="13.7682511"><ele>766.0</ele><time>2026-05-02T09:45:12.135Z</time></trkpt><trkpt lat="42.241314" lon="13.7684105"><ele>770.5</ele><time>2026-05-02T09:45:13.136Z</time></trkpt><trkpt lat="42.2412325" lon="13.7685458"><ele>775.0</ele><time>2026-05-02T09:45:14.136Z</time></trkpt><trkpt lat="42.241136" lon="13.7686817"><ele>775.0</ele><time>2026-05-02T09:45:15.135Z</time></trkpt><trkpt lat="42.24104" lon="13.7688193"><ele>775.0</ele><time>2026-05-02T09:45:16.135Z</time></trkpt><trkpt lat="42.2409705" lon="13.7689347"><ele>775.0</ele><time>2026-05-02T09:45:17.135Z</time></trkpt><trkpt lat="42.2409169" lon="13.7690498"><ele>775.0</ele><time>2026-05-02T09:45:18.137Z</time></trkpt><trkpt lat="42.2408765" lon="13.7691709"><ele>775.0</ele><time>2026-05-02T09:45:19.136Z</time></trkpt><trkpt lat="42.2408371" lon="13.7692589"><ele>774.9999999999999</ele><time>2026-05-02T09:45:20.137Z</time></trkpt><trkpt lat="42.2407885" lon="13.7693175"><ele>775.0</ele><time>2026-05-02T09:45:21.136Z</time></trkpt><trkpt lat="42.2407149" lon="13.7693561"><ele>775.0</ele><time>2026-05-02T09:45:22.135Z</time></trkpt><trkpt lat="42.2406293" lon="13.7693655"><ele>775.0</ele><time>2026-05-02T09:45:23.136Z</time></trkpt><trkpt lat="42.2405475" lon="13.7693444"><ele>774.9999999999999</ele><time>2026-05-02T09:45:24.136Z</time></trkpt><trkpt lat="42.2404717" lon="13.7693077"><ele>775.0</ele><time>2026-05-02T09:45:25.136Z</time></trkpt><trkpt lat="42.2403949" lon="13.7692586"><ele>778.5</ele><time>2026-05-02T09:45:26.135Z</time></trkpt><trkpt lat="42.2402871" lon="13.7692183"><ele>782.0</ele><time>2026-05-02T09:45:27.136Z</time></trkpt><trkpt lat="42.2401563" lon="13.769209"><ele>785.5</ele><time>2026-05-02T09:45:28.135Z</time></trkpt><trkpt lat="42.2400173" lon="13.769206"><ele>789.0</ele><time>2026-05-02T09:45:29.135Z</time></trkpt><trkpt lat="42.2398799" lon="13.7691953"><ele>792.2</ele><time>2026-05-02T09:45:30.137Z</time></trkpt><trkpt lat="42.2397686" lon="13.7691856"><ele>795.4000000000001</ele><time>2026-05-02T09:45:31.136Z</time></trkpt><trkpt lat="42.239673" lon="13.7691634"><ele>798.6</ele><time>2026-05-02T09:45:32.137Z</time></trkpt><trkpt lat="42.2395737" lon="13.769122"><ele>801.8</ele><time>2026-05-02T09:45:33.136Z</time></trkpt><trkpt lat="42.2394686" lon="13.7690898"><ele>805.0</ele><time>2026-05-02T09:45:34.137Z</time></trkpt><trkpt lat="42.2393798" lon="13.7691"><ele>804.9999999999999</ele><time>2026-05-02T09:45:35.136Z</time></trkpt><trkpt lat="42.2393158" lon="13.7691483"><ele>805.0</ele><time>2026-05-02T09:45:36.135Z</time></trkpt><trkpt lat="42.2392593" lon="13.7692235"><ele>805.0</ele><time>2026-05-02T09:45:37.136Z</time></trkpt><trkpt lat="42.2391918" lon="13.7692946"><ele>805.0</ele><time>2026-05-02T09:45:38.135Z</time></trkpt><trkpt lat="42.2391074" lon="13.7693452"><ele>804.9999999999999</ele><time>2026-05-02T09:45:39.135Z</time></trkpt><trkpt lat="42.2390268" lon="13.7693822"><ele>805.0</ele><time>2026-05-02T09:45:40.136Z</time></trkpt><trkpt lat="42.23895" lon="13.7694042"><ele>804.8</ele><time>2026-05-02T09:45:41.136Z</time></trkpt><trkpt lat="42.238864" lon="13.7694167"><ele>804.6</ele><time>2026-05-02T09:45:42.136Z</time></trkpt><trkpt lat="42.2387844" lon="13.7694267"><ele>804.4000000000001</ele><time>2026-05-02T09:45:43.135Z</time></trkpt><trkpt lat="42.2386987" lon="13.7694325"><ele>804.2</ele><time>2026-05-02T09:45:44.136Z</time></trkpt><trkpt lat="42.2385868" lon="13.7694437"><ele>804.0</ele><time>2026-05-02T09:45:45.135Z</time></trkpt><trkpt lat="42.2384661" lon="13.7694682"><ele>804.0</ele><time>2026-05-02T09:45:46.135Z</time></trkpt><trkpt lat="42.2383427" lon="13.7695121"><ele>804.0</ele><time>2026-05-02T09:45:47.136Z</time></trkpt><trkpt lat="42.2382176" lon="13.7695704"><ele>804.0</ele><time>2026-05-02T09:45:48.136Z</time></trkpt><trkpt lat="42.238104" lon="13.7696188"><ele>804.0</ele><time>2026-05-02T09:45:49.137Z</time></trkpt><trkpt lat="42.2379863" lon="13.7696883"><ele>808.25</ele><time>2026-05-02T09:45:50.135Z</time></trkpt><trkpt lat="42.2378663" lon="13.7697736"><ele>812.5</ele><time>2026-05-02T09:45:51.135Z</time></trkpt><trkpt lat="42.2377553" lon="13.7698418"><ele>816.75</ele><time>2026-05-02T09:45:52.135Z</time></trkpt><trkpt lat="42.2376452" lon="13.7698884"><ele>821.0</ele><time>2026-05-02T09:45:53.135Z</time></trkpt><trkpt lat="42.2375169" lon="13.7699202"><ele>821.0</ele><time>2026-05-02T09:45:54.136Z</time></trkpt><trkpt lat="42.2373972" lon="13.7699372"><ele>821.0</ele><time>2026-05-02T09:45:55.136Z</time></trkpt><trkpt lat="42.2373033" lon="13.76996"><ele>821.0</ele><time>2026-05-02T09:45:56.137Z</time></trkpt><trkpt lat="42.2372036" lon="13.7699901"><ele>821.0</ele><time>2026-05-02T09:45:57.136Z</time></trkpt><trkpt lat="42.2371087" lon="13.7700337"><ele>821.0</ele><time>2026-05-02T09:45:58.135Z</time></trkpt><trkpt lat="42.2370257" lon="13.7701126"><ele>822.4</ele><time>2026-05-02T09:45:59.136Z</time></trkpt><trkpt lat="42.2369477" lon="13.7702147"><ele>823.8</ele><time>2026-05-02T09:46:00.135Z</time></trkpt><trkpt lat="42.2368683" lon="13.7703258"><ele>825.1999999999999</ele><time>2026-05-02T09:46:01.135Z</time></trkpt><trkpt lat="42.2367801" lon="13.7704073"><ele>826.5999999999999</ele><time>2026-05-02T09:46:02.136Z</time></trkpt><trkpt lat="42.2366761" lon="13.7704547"><ele>828.0</ele><time>2026-05-02T09:46:03.135Z</time></trkpt><trkpt lat="42.2365698" lon="13.7705042"><ele>829.75</ele><time>2026-05-02T09:46:04.135Z</time></trkpt><trkpt lat="42.2364566" lon="13.7705376"><ele>831.5</ele><time>2026-05-02T09:46:05.136Z</time></trkpt><trkpt lat="42.2363103" lon="13.7705716"><ele>833.25</ele><time>2026-05-02T09:46:06.136Z</time></trkpt><trkpt lat="42.2361704" lon="13.7706029"><ele>835.0</ele><time>2026-05-02T09:46:07.135Z</time></trkpt><trkpt lat="42.2360607" lon="13.7706364"><ele>834.9999999999999</ele><time>2026-05-02T09:46:08.136Z</time></trkpt><trkpt lat="42.2359744" lon="13.7706678"><ele>835.0</ele><time>2026-05-02T09:46:09.135Z</time></trkpt><trkpt lat="42.235912" lon="13.7707029"><ele>835.0</ele><time>2026-05-02T09:46:10.135Z</time></trkpt><trkpt lat="42.235853" lon="13.7707481"><ele>835.0</ele><time>2026-05-02T09:46:12.135Z</time></trkpt><trkpt lat="42.2358648" lon="13.7708317"><ele>834.9999999999999</ele><time>2026-05-02T09:46:22.135Z</time></trkpt><trkpt lat="42.2358604" lon="13.7709253"><ele>835.0</ele><time>2026-05-02T09:46:24.136Z</time></trkpt><trkpt lat="42.2358637" lon="13.7710788"><ele>835.8333333333333</ele><time>2026-05-02T09:46:26.137Z</time></trkpt><trkpt lat="42.2358768" lon="13.7711767"><ele>836.6666666666666</ele><time>2026-05-02T09:46:27.136Z</time></trkpt><trkpt lat="42.2358872" lon="13.7713097"><ele>837.5</ele><time>2026-05-02T09:46:28.136Z</time></trkpt><trkpt lat="42.2358992" lon="13.7714374"><ele>838.3333333333333</ele><time>2026-05-02T09:46:29.136Z</time></trkpt><trkpt lat="42.2359106" lon="13.7715442"><ele>839.1666666666666</ele><time>2026-05-02T09:46:30.136Z</time></trkpt><trkpt lat="42.2359109" lon="13.7716418"><ele>840.0</ele><time>2026-05-02T09:46:31.136Z</time></trkpt><trkpt lat="42.2359052" lon="13.7717409"><ele>840.0</ele><time>2026-05-02T09:46:32.135Z</time></trkpt><trkpt lat="42.2358835" lon="13.7718526"><ele>840.0</ele><time>2026-05-02T09:46:33.135Z</time></trkpt><trkpt lat="42.2358499" lon="13.7719652"><ele>840.0</ele><time>2026-05-02T09:46:34.136Z</time></trkpt><trkpt lat="42.235809" lon="13.7720652"><ele>840.0</ele><time>2026-05-02T09:46:35.136Z</time></trkpt><trkpt lat="42.2357532" lon="13.7721636"><ele>840.0</ele><time>2026-05-02T09:46:36.135Z</time></trkpt><trkpt lat="42.23568" lon="13.7722645"><ele>840.0</ele><time>2026-05-02T09:46:37.135Z</time></trkpt><trkpt lat="42.2356126" lon="13.7723692"><ele>840.0</ele><time>2026-05-02T09:46:38.136Z</time></trkpt><trkpt lat="42.2355574" lon="13.7724893"><ele>840.0</ele><time>2026-05-02T09:46:39.136Z</time></trkpt><trkpt lat="42.2355075" lon="13.7726011"><ele>840.0</ele><time>2026-05-02T09:46:40.136Z</time></trkpt><trkpt lat="42.2354526" lon="13.772691"><ele>840.0</ele><time>2026-05-02T09:46:41.135Z</time></trkpt><trkpt lat="42.2353739" lon="13.7727926"><ele>840.0</ele><time>2026-05-02T09:46:42.135Z</time></trkpt><trkpt lat="42.2352748" lon="13.7729032"><ele>840.0</ele><time>2026-05-02T09:46:43.135Z</time></trkpt><trkpt lat="42.2351919" lon="13.773002"><ele>840.0</ele><time>2026-05-02T09:46:44.135Z</time></trkpt><trkpt lat="42.2351276" lon="13.7731078"><ele>840.0</ele><time>2026-05-02T09:46:45.136Z</time></trkpt><trkpt lat="42.2350744" lon="13.7732213"><ele>840.0</ele><time>2026-05-02T09:46:46.136Z</time></trkpt><trkpt lat="42.2350365" lon="13.7733294"><ele>840.0</ele><time>2026-05-02T09:46:47.135Z</time></trkpt><trkpt lat="42.23504" lon="13.7734277"><ele>840.0</ele><time>2026-05-02T09:46:48.137Z</time></trkpt><trkpt lat="42.2350497" lon="13.7735598"><ele>840.0</ele><time>2026-05-02T09:46:49.136Z</time></trkpt><trkpt lat="42.2350808" lon="13.7737162"><ele>840.0</ele><time>2026-05-02T09:46:50.135Z</time></trkpt><trkpt lat="42.2351102" lon="13.7738383"><ele>840.0</ele><time>2026-05-02T09:46:51.135Z</time></trkpt><trkpt lat="42.2351541" lon="13.7739311"><ele>840.8</ele><time>2026-05-02T09:46:52.136Z</time></trkpt><trkpt lat="42.2352281" lon="13.7740315"><ele>841.6</ele><time>2026-05-02T09:46:53.137Z</time></trkpt><trkpt lat="42.2353166" lon="13.7741287"><ele>842.4000000000001</ele><time>2026-05-02T09:46:54.135Z</time></trkpt><trkpt lat="42.2353751" lon="13.7742157"><ele>843.2</ele><time>2026-05-02T09:46:55.135Z</time></trkpt><trkpt lat="42.2354204" lon="13.7743073"><ele>844.0</ele><time>2026-05-02T09:46:56.136Z</time></trkpt><trkpt lat="42.2354501" lon="13.7744237"><ele>845.25</ele><time>2026-05-02T09:46:57.136Z</time></trkpt><trkpt lat="42.2354846" lon="13.7745601"><ele>846.5</ele><time>2026-05-02T09:46:58.136Z</time></trkpt><trkpt lat="42.2355193" lon="13.7747616"><ele>847.75</ele><time>2026-05-02T09:46:59.137Z</time></trkpt><trkpt lat="42.2355388" lon="13.7748968"><ele>849.0</ele><time>2026-05-02T09:47:00.137Z</time></trkpt><trkpt lat="42.2355427" lon="13.7750438"><ele>847.25</ele><time>2026-05-02T09:47:01.135Z</time></trkpt><trkpt lat="42.2355303" lon="13.7752188"><ele>845.5</ele><time>2026-05-02T09:47:02.135Z</time></trkpt><trkpt lat="42.235509" lon="13.7753907"><ele>843.75</ele><time>2026-05-02T09:47:03.136Z</time></trkpt><trkpt lat="42.2354831" lon="13.7755248"><ele>842.0</ele><time>2026-05-02T09:47:04.136Z</time></trkpt><trkpt lat="42.2354373" lon="13.7756634"><ele>842.0</ele><time>2026-05-02T09:47:05.135Z</time></trkpt><trkpt lat="42.2353692" lon="13.7757956"><ele>842.0</ele><time>2026-05-02T09:47:06.135Z</time></trkpt><trkpt lat="42.2352886" lon="13.7759026"><ele>842.0</ele><time>2026-05-02T09:47:07.135Z</time></trkpt><trkpt lat="42.2351937" lon="13.775988"><ele>842.0</ele><time>2026-05-02T09:47:08.135Z</time></trkpt><trkpt lat="42.2350695" lon="13.7760617"><ele>844.5</ele><time>2026-05-02T09:47:09.136Z</time></trkpt><trkpt lat="42.2349233" lon="13.7761124"><ele>847.0</ele><time>2026-05-02T09:47:10.135Z</time></trkpt><trkpt lat="42.2347849" lon="13.7761559"><ele>849.5</ele><time>2026-05-02T09:47:11.135Z</time></trkpt><trkpt lat="42.2346713" lon="13.7761905"><ele>852.0</ele><time>2026-05-02T09:47:12.136Z</time></trkpt><trkpt lat="42.2345726" lon="13.7762168"><ele>852.0</ele><time>2026-05-02T09:47:13.136Z</time></trkpt><trkpt lat="42.2344963" lon="13.776253"><ele>852.0</ele><time>2026-05-02T09:47:14.136Z</time></trkpt><trkpt lat="42.234446" lon="13.7763131"><ele>852.0</ele><time>2026-05-02T09:47:15.136Z</time></trkpt><trkpt lat="42.2344069" lon="13.7763897"><ele>852.0</ele><time>2026-05-02T09:47:16.135Z</time></trkpt><trkpt lat="42.2344157" lon="13.7765689"><ele>852.0</ele><time>2026-05-02T09:47:18.136Z</time></trkpt><trkpt lat="42.2344504" lon="13.7766473"><ele>852.0</ele><time>2026-05-02T09:47:19.136Z</time></trkpt><trkpt lat="42.2345059" lon="13.7767601"><ele>853.5</ele><time>2026-05-02T09:47:20.135Z</time></trkpt><trkpt lat="42.2345686" lon="13.7768894"><ele>855.0</ele><time>2026-05-02T09:47:21.136Z</time></trkpt><trkpt lat="42.2346307" lon="13.7770219"><ele>856.5</ele><time>2026-05-02T09:47:22.135Z</time></trkpt><trkpt lat="42.2347021" lon="13.7771398"><ele>858.0</ele><time>2026-05-02T09:47:23.137Z</time></trkpt><trkpt lat="42.2347932" lon="13.7772575"><ele>856.0</ele><time>2026-05-02T09:47:24.136Z</time></trkpt><trkpt lat="42.2348905" lon="13.7773843"><ele>854.0</ele><time>2026-05-02T09:47:25.135Z</time></trkpt><trkpt lat="42.2349886" lon="13.7775203"><ele>852.0</ele><time>2026-05-02T09:47:26.136Z</time></trkpt><trkpt lat="42.2350821" lon="13.7776504"><ele>850.0</ele><time>2026-05-02T09:47:27.136Z</time></trkpt><trkpt lat="42.2351527" lon="13.7777501"><ele>850.0</ele><time>2026-05-02T09:47:28.135Z</time></trkpt><trkpt lat="42.2352112" lon="13.7778483"><ele>850.0</ele><time>2026-05-02T09:47:29.135Z</time></trkpt><trkpt lat="42.2352639" lon="13.7779581"><ele>850.0</ele><time>2026-05-02T09:47:30.135Z</time></trkpt><trkpt lat="42.2353003" lon="13.7780724"><ele>850.0</ele><time>2026-05-02T09:47:31.136Z</time></trkpt><trkpt lat="42.2353166" lon="13.7781868"><ele>850.0</ele><time>2026-05-02T09:47:32.137Z</time></trkpt><trkpt lat="42.2353235" lon="13.7783362"><ele>850.0</ele><time>2026-05-02T09:47:33.135Z</time></trkpt><trkpt lat="42.2353133" lon="13.7784723"><ele>850.0</ele><time>2026-05-02T09:47:34.135Z</time></trkpt><trkpt lat="42.2352895" lon="13.7786066"><ele>850.0</ele><time>2026-05-02T09:47:35.135Z</time></trkpt><trkpt lat="42.2352523" lon="13.7787385"><ele>850.0</ele><time>2026-05-02T09:47:36.136Z</time></trkpt><trkpt lat="42.2352005" lon="13.7788559"><ele>850.0</ele><time>2026-05-02T09:47:37.135Z</time></trkpt><trkpt lat="42.2351321" lon="13.778963"><ele>849.75</ele><time>2026-05-02T09:47:38.136Z</time></trkpt><trkpt lat="42.2350419" lon="13.7790782"><ele>849.5</ele><time>2026-05-02T09:47:39.135Z</time></trkpt><trkpt lat="42.2349358" lon="13.7792032"><ele>849.25</ele><time>2026-05-02T09:47:40.135Z</time></trkpt><trkpt lat="42.2348135" lon="13.7793361"><ele>849.0</ele><time>2026-05-02T09:47:41.136Z</time></trkpt><trkpt lat="42.2346752" lon="13.7794637"><ele>848.75</ele><time>2026-05-02T09:47:42.136Z</time></trkpt><trkpt lat="42.2345408" lon="13.7795761"><ele>848.5</ele><time>2026-05-02T09:47:43.136Z</time></trkpt><trkpt lat="42.2344214" lon="13.7796811"><ele>848.25</ele><time>2026-05-02T09:47:44.136Z</time></trkpt><trkpt lat="42.2343115" lon="13.7797789"><ele>848.0</ele><time>2026-05-02T09:47:45.136Z</time></trkpt><trkpt lat="42.2342051" lon="13.7798517"><ele>848.0000000000001</ele><time>2026-05-02T09:47:46.135Z</time></trkpt><trkpt lat="42.2340982" lon="13.7799038"><ele>848.0</ele><time>2026-05-02T09:47:47.136Z</time></trkpt><trkpt lat="42.2340049" lon="13.7799504"><ele>848.0</ele><time>2026-05-02T09:47:48.136Z</time></trkpt><trkpt lat="42.2339356" lon="13.7800105"><ele>848.0</ele><time>2026-05-02T09:47:49.136Z</time></trkpt><trkpt lat="42.2338972" lon="13.7800914"><ele>848.0000000000001</ele><time>2026-05-02T09:47:50.136Z</time></trkpt><trkpt lat="42.2338935" lon="13.7801786"><ele>848.0</ele><time>2026-05-02T09:47:51.135Z</time></trkpt><trkpt lat="42.2339251" lon="13.7802774"><ele>847.0</ele><time>2026-05-02T09:47:52.135Z</time></trkpt><trkpt lat="42.2339736" lon="13.7803859"><ele>846.0</ele><time>2026-05-02T09:47:53.135Z</time></trkpt><trkpt lat="42.2340145" lon="13.7804985"><ele>845.0</ele><time>2026-05-02T09:47:54.135Z</time></trkpt><trkpt lat="42.234032" lon="13.780619"><ele>844.0</ele><time>2026-05-02T09:47:55.135Z</time></trkpt><trkpt lat="42.2340346" lon="13.780753"><ele>843.0</ele><time>2026-05-02T09:47:56.135Z</time></trkpt><trkpt lat="42.234024" lon="13.7809009"><ele>842.5999999999999</ele><time>2026-05-02T09:47:57.135Z</time></trkpt><trkpt lat="42.2340128" lon="13.7810677"><ele>842.1999999999999</ele><time>2026-05-02T09:47:58.135Z</time></trkpt><trkpt lat="42.2340123" lon="13.7812362"><ele>841.8</ele><time>2026-05-02T09:47:59.136Z</time></trkpt><trkpt lat="42.2340186" lon="13.7813689"><ele>841.4</ele><time>2026-05-02T09:48:00.135Z</time></trkpt><trkpt lat="42.2340313" lon="13.7814727"><ele>841.0</ele><time>2026-05-02T09:48:01.135Z</time></trkpt><trkpt lat="42.2340422" lon="13.7815579"><ele>840.9999999999999</ele><time>2026-05-02T09:48:02.135Z</time></trkpt><trkpt lat="42.2340424" lon="13.781644"><ele>841.0</ele><time>2026-05-02T09:48:04.136Z</time></trkpt><trkpt lat="42.2339815" lon="13.781674"><ele>841.0</ele><time>2026-05-02T09:48:07.135Z</time></trkpt><trkpt lat="42.2339366" lon="13.7815766"><ele>841.0</ele><time>2026-05-02T09:48:09.135Z</time></trkpt><trkpt lat="42.2339134" lon="13.7814785"><ele>840.9999999999999</ele><time>2026-05-02T09:48:10.136Z</time></trkpt><trkpt lat="42.2338744" lon="13.7813788"><ele>841.0</ele><time>2026-05-02T09:48:11.135Z</time></trkpt><trkpt lat="42.2338229" lon="13.7812687"><ele>841.75</ele><time>2026-05-02T09:48:12.136Z</time></trkpt><trkpt lat="42.2337558" lon="13.781153"><ele>842.5</ele><time>2026-05-02T09:48:13.137Z</time></trkpt><trkpt lat="42.2336822" lon="13.7810345"><ele>843.25</ele><time>2026-05-02T09:48:14.137Z</time></trkpt><trkpt lat="42.2335971" lon="13.7809046"><ele>844.0</ele><time>2026-05-02T09:48:15.135Z</time></trkpt><trkpt lat="42.233512" lon="13.7807659"><ele>846.75</ele><time>2026-05-02T09:48:16.136Z</time></trkpt><trkpt lat="42.2334197" lon="13.7806409"><ele>849.5</ele><time>2026-05-02T09:48:17.136Z</time></trkpt><trkpt lat="42.2333321" lon="13.7805294"><ele>852.25</ele><time>2026-05-02T09:48:18.136Z</time></trkpt><trkpt lat="42.2332403" lon="13.7804264"><ele>855.0</ele><time>2026-05-02T09:48:19.136Z</time></trkpt><trkpt lat="42.2331555" lon="13.780311"><ele>856.8</ele><time>2026-05-02T09:48:20.135Z</time></trkpt><trkpt lat="42.2330837" lon="13.7801921"><ele>858.6</ele><time>2026-05-02T09:48:21.136Z</time></trkpt><trkpt lat="42.2330099" lon="13.780062"><ele>860.4000000000001</ele><time>2026-05-02T09:48:22.137Z</time></trkpt><trkpt lat="42.2329432" lon="13.7799546"><ele>862.2</ele><time>2026-05-02T09:48:23.136Z</time></trkpt><trkpt lat="42.2328783" lon="13.7798624"><ele>864.0</ele><time>2026-05-02T09:48:24.135Z</time></trkpt><trkpt lat="42.2327926" lon="13.7797685"><ele>865.6</ele><time>2026-05-02T09:48:25.136Z</time></trkpt><trkpt lat="42.2326961" lon="13.7796648"><ele>867.2</ele><time>2026-05-02T09:48:26.137Z</time></trkpt><trkpt lat="42.2325979" lon="13.7795867"><ele>868.8000000000001</ele><time>2026-05-02T09:48:27.136Z</time></trkpt><trkpt lat="42.2325052" lon="13.7795268"><ele>870.4000000000001</ele><time>2026-05-02T09:48:28.136Z</time></trkpt><trkpt lat="42.2324056" lon="13.7794843"><ele>872.0</ele><time>2026-05-02T09:48:29.136Z</time></trkpt><trkpt lat="42.2322916" lon="13.7794397"><ele>874.25</ele><time>2026-05-02T09:48:30.137Z</time></trkpt><trkpt lat="42.2321597" lon="13.7793908"><ele>876.5</ele><time>2026-05-02T09:48:31.136Z</time></trkpt><trkpt lat="42.2320333" lon="13.7793436"><ele>878.75</ele><time>2026-05-02T09:48:32.135Z</time></trkpt><trkpt lat="42.2319065" lon="13.7792997"><ele>881.0</ele><time>2026-05-02T09:48:33.135Z</time></trkpt><trkpt lat="42.2317934" lon="13.7792446"><ele>882.5</ele><time>2026-05-02T09:48:34.135Z</time></trkpt><trkpt lat="42.2316817" lon="13.7791656"><ele>884.0</ele><time>2026-05-02T09:48:35.135Z</time></trkpt><trkpt lat="42.231554" lon="13.7790648"><ele>885.5</ele><time>2026-05-02T09:48:36.135Z</time></trkpt><trkpt lat="42.2314469" lon="13.778978"><ele>887.0</ele><time>2026-05-02T09:48:37.135Z</time></trkpt><trkpt lat="42.2313734" lon="13.7789059"><ele>888.4000000000001</ele><time>2026-05-02T09:48:38.136Z</time></trkpt><trkpt lat="42.2313092" lon="13.7788172"><ele>889.8000000000001</ele><time>2026-05-02T09:48:39.135Z</time></trkpt><trkpt lat="42.2312377" lon="13.7787128"><ele>891.2</ele><time>2026-05-02T09:48:40.135Z</time></trkpt><trkpt lat="42.2311576" lon="13.7786103"><ele>892.6</ele><time>2026-05-02T09:48:41.135Z</time></trkpt><trkpt lat="42.2310868" lon="13.7785589"><ele>894.0</ele><time>2026-05-02T09:48:42.136Z</time></trkpt><trkpt lat="42.2310202" lon="13.7785348"><ele>894.0</ele><time>2026-05-02T09:48:43.135Z</time></trkpt><trkpt lat="42.2309445" lon="13.7785479"><ele>894.0</ele><time>2026-05-02T09:48:44.135Z</time></trkpt><trkpt lat="42.2308637" lon="13.7785716"><ele>894.0</ele><time>2026-05-02T09:48:45.135Z</time></trkpt><trkpt lat="42.230797" lon="13.7785598"><ele>894.0</ele><time>2026-05-02T09:48:46.135Z</time></trkpt><trkpt lat="42.2307267" lon="13.778527"><ele>894.0</ele><time>2026-05-02T09:48:47.135Z</time></trkpt><trkpt lat="42.2306478" lon="13.7784804"><ele>894.0</ele><time>2026-05-02T09:48:48.135Z</time></trkpt><trkpt lat="42.2305502" lon="13.7784213"><ele>898.0</ele><time>2026-05-02T09:48:49.135Z</time></trkpt><trkpt lat="42.2304495" lon="13.7783715"><ele>902.0000000000001</ele><time>2026-05-02T09:48:50.135Z</time></trkpt><trkpt lat="42.2303613" lon="13.7783244"><ele>906.0000000000001</ele><time>2026-05-02T09:48:51.136Z</time></trkpt><trkpt lat="42.2302823" lon="13.7782999"><ele>910.0</ele><time>2026-05-02T09:48:52.136Z</time></trkpt><trkpt lat="42.230192" lon="13.7782985"><ele>914.0</ele><time>2026-05-02T09:48:53.135Z</time></trkpt><trkpt lat="42.2300892" lon="13.7783071"><ele>914.0</ele><time>2026-05-02T09:48:54.135Z</time></trkpt><trkpt lat="42.2300036" lon="13.7782812"><ele>914.0000000000001</ele><time>2026-05-02T09:48:55.135Z</time></trkpt><trkpt lat="42.2299116" lon="13.7782363"><ele>914.0000000000001</ele><time>2026-05-02T09:48:56.136Z</time></trkpt><trkpt lat="42.2298073" lon="13.7781742"><ele>914.0</ele><time>2026-05-02T09:48:57.135Z</time></trkpt><trkpt lat="42.2296949" lon="13.7780949"><ele>914.0</ele><time>2026-05-02T09:48:58.136Z</time></trkpt><trkpt lat="42.2295705" lon="13.7779997"><ele>914.5000000000001</ele><time>2026-05-02T09:48:59.135Z</time></trkpt><trkpt lat="42.2294695" lon="13.7779381"><ele>915.0</ele><time>2026-05-02T09:49:00.135Z</time></trkpt><trkpt lat="42.2293879" lon="13.7779027"><ele>915.5</ele><time>2026-05-02T09:49:01.137Z</time></trkpt><trkpt lat="42.2293223" lon="13.7779017"><ele>916.0</ele><time>2026-05-02T09:49:02.136Z</time></trkpt><trkpt lat="42.2292564" lon="13.777928"><ele>916.5000000000001</ele><time>2026-05-02T09:49:03.136Z</time></trkpt><trkpt lat="42.2291713" lon="13.7779666"><ele>917.0</ele><time>2026-05-02T09:49:04.137Z</time></trkpt><trkpt lat="42.2290869" lon="13.7779709"><ele>917.0</ele><time>2026-05-02T09:49:05.135Z</time></trkpt><trkpt lat="42.2289782" lon="13.7779645"><ele>917.0</ele><time>2026-05-02T09:49:06.136Z</time></trkpt><trkpt lat="42.2288902" lon="13.7779232"><ele>917.0</ele><time>2026-05-02T09:49:07.136Z</time></trkpt><trkpt lat="42.2288164" lon="13.7778445"><ele>917.0</ele><time>2026-05-02T09:49:08.135Z</time></trkpt><trkpt lat="42.2287459" lon="13.7777305"><ele>917.0</ele><time>2026-05-02T09:49:09.136Z</time></trkpt><trkpt lat="42.2286653" lon="13.7776202"><ele>917.4000000000001</ele><time>2026-05-02T09:49:10.136Z</time></trkpt><trkpt lat="42.2285998" lon="13.777556"><ele>917.8000000000001</ele><time>2026-05-02T09:49:11.135Z</time></trkpt><trkpt lat="42.2285253" lon="13.7775182"><ele>918.2</ele><time>2026-05-02T09:49:12.135Z</time></trkpt><trkpt lat="42.2284312" lon="13.7775058"><ele>918.6</ele><time>2026-05-02T09:49:13.136Z</time></trkpt><trkpt lat="42.2283154" lon="13.7775103"><ele>919.0</ele><time>2026-05-02T09:49:14.136Z</time></trkpt><trkpt lat="42.2281771" lon="13.7775287"><ele>919.0</ele><time>2026-05-02T09:49:15.135Z</time></trkpt><trkpt lat="42.2280537" lon="13.7775635"><ele>919.0</ele><time>2026-05-02T09:49:16.135Z</time></trkpt><trkpt lat="42.2279335" lon="13.7776181"><ele>919.0</ele><time>2026-05-02T09:49:17.136Z</time></trkpt><trkpt lat="42.2278375" lon="13.7776773"><ele>919.0</ele><time>2026-05-02T09:49:18.137Z</time></trkpt><trkpt lat="42.2277516" lon="13.7777405"><ele>919.0</ele><time>2026-05-02T09:49:19.135Z</time></trkpt><trkpt lat="42.2276555" lon="13.7778117"><ele>919.0</ele><time>2026-05-02T09:49:20.136Z</time></trkpt><trkpt lat="42.2275456" lon="13.7779006"><ele>919.0</ele><time>2026-05-02T09:49:21.136Z</time></trkpt><trkpt lat="42.2274367" lon="13.7779913"><ele>919.0</ele><time>2026-05-02T09:49:22.135Z</time></trkpt><trkpt lat="42.227327" lon="13.7780895"><ele>919.0</ele><time>2026-05-02T09:49:23.136Z</time></trkpt><trkpt lat="42.2272117" lon="13.7782027"><ele>919.0</ele><time>2026-05-02T09:49:24.137Z</time></trkpt><trkpt lat="42.2270851" lon="13.7783195"><ele>919.0</ele><time>2026-05-02T09:49:25.136Z</time></trkpt><trkpt lat="42.2269709" lon="13.7784389"><ele>919.0</ele><time>2026-05-02T09:49:26.136Z</time></trkpt><trkpt lat="42.2268217" lon="13.7785495"><ele>919.5</ele><time>2026-05-02T09:49:27.136Z</time></trkpt><trkpt lat="42.2266978" lon="13.7786486"><ele>920.0</ele><time>2026-05-02T09:49:28.136Z</time></trkpt><trkpt lat="42.2265795" lon="13.7787548"><ele>920.5</ele><time>2026-05-02T09:49:29.135Z</time></trkpt><trkpt lat="42.2264606" lon="13.7788704"><ele>921.0</ele><time>2026-05-02T09:49:30.136Z</time></trkpt><trkpt lat="42.2263424" lon="13.7789926"><ele>919.6666666666667</ele><time>2026-05-02T09:49:31.136Z</time></trkpt><trkpt lat="42.2262143" lon="13.7791335"><ele>918.3333333333334</ele><time>2026-05-02T09:49:32.136Z</time></trkpt><trkpt lat="42.2261016" lon="13.7792803"><ele>917.0</ele><time>2026-05-02T09:49:33.136Z</time></trkpt><trkpt lat="42.225995" lon="13.7794365"><ele>917.0</ele><time>2026-05-02T09:49:34.137Z</time></trkpt><trkpt lat="42.2258808" lon="13.7796104"><ele>917.0</ele><time>2026-05-02T09:49:35.135Z</time></trkpt><trkpt lat="42.2257751" lon="13.7797716"><ele>917.0</ele><time>2026-05-02T09:49:36.135Z</time></trkpt><trkpt lat="42.2256737" lon="13.779921"><ele>914.5</ele><time>2026-05-02T09:49:37.137Z</time></trkpt><trkpt lat="42.2255765" lon="13.7800644"><ele>912.0</ele><time>2026-05-02T09:49:38.136Z</time></trkpt><trkpt lat="42.2254756" lon="13.7802185"><ele>909.5</ele><time>2026-05-02T09:49:39.136Z</time></trkpt><trkpt lat="42.2253847" lon="13.7803673"><ele>907.0</ele><time>2026-05-02T09:49:40.136Z</time></trkpt><trkpt lat="42.2253064" lon="13.780513"><ele>907.0</ele><time>2026-05-02T09:49:41.135Z</time></trkpt><trkpt lat="42.2252291" lon="13.7806624"><ele>907.0</ele><time>2026-05-02T09:49:42.136Z</time></trkpt><trkpt lat="42.2251552" lon="13.7807946"><ele>907.0</ele><time>2026-05-02T09:49:43.136Z</time></trkpt><trkpt lat="42.2250779" lon="13.7809159"><ele>907.0</ele><time>2026-05-02T09:49:44.135Z</time></trkpt><trkpt lat="42.2249989" lon="13.7810226"><ele>907.4000000000001</ele><time>2026-05-02T09:49:45.135Z</time></trkpt><trkpt lat="42.2249248" lon="13.7811193"><ele>907.8000000000001</ele><time>2026-05-02T09:49:46.135Z</time></trkpt><trkpt lat="42.2248569" lon="13.7812159"><ele>908.2</ele><time>2026-05-02T09:49:47.136Z</time></trkpt><trkpt lat="42.2247927" lon="13.7813081"><ele>908.6</ele><time>2026-05-02T09:49:48.137Z</time></trkpt><trkpt lat="42.2247354" lon="13.7814041"><ele>909.0</ele><time>2026-05-02T09:49:49.136Z</time></trkpt><trkpt lat="42.2246949" lon="13.7815237"><ele>904.8000000000001</ele><time>2026-05-02T09:49:50.135Z</time></trkpt><trkpt lat="42.2246606" lon="13.7816696"><ele>900.6000000000001</ele><time>2026-05-02T09:49:51.136Z</time></trkpt><trkpt lat="42.2246253" lon="13.7818039"><ele>896.4</ele><time>2026-05-02T09:49:52.136Z</time></trkpt><trkpt lat="42.2245827" lon="13.7819325"><ele>892.2</ele><time>2026-05-02T09:49:53.136Z</time></trkpt><trkpt lat="42.2245252" lon="13.782061"><ele>888.0</ele><time>2026-05-02T09:49:54.135Z</time></trkpt><trkpt lat="42.2244648" lon="13.782182"><ele>887.5999999999999</ele><time>2026-05-02T09:49:55.135Z</time></trkpt><trkpt lat="42.2244153" lon="13.7823063"><ele>887.1999999999999</ele><time>2026-05-02T09:49:56.136Z</time></trkpt><trkpt lat="42.2243728" lon="13.7824458"><ele>886.8</ele><time>2026-05-02T09:49:57.135Z</time></trkpt><trkpt lat="42.2243384" lon="13.7825761"><ele>886.4</ele><time>2026-05-02T09:49:58.137Z</time></trkpt><trkpt lat="42.2243208" lon="13.7826928"><ele>886.0</ele><time>2026-05-02T09:49:59.135Z</time></trkpt><trkpt lat="42.2243105" lon="13.7827976"><ele>886.0</ele><time>2026-05-02T09:50:00.135Z</time></trkpt><trkpt lat="42.2242797" lon="13.7829318"><ele>885.9999999999999</ele><time>2026-05-02T09:50:02.135Z</time></trkpt><trkpt lat="42.2242159" lon="13.7829396"><ele>885.9999999999999</ele><time>2026-05-02T09:50:04.136Z</time></trkpt><trkpt lat="42.2241339" lon="13.7828082"><ele>886.0</ele><time>2026-05-02T09:50:06.135Z</time></trkpt><trkpt lat="42.2240837" lon="13.7827063"><ele>886.0</ele><time>2026-05-02T09:50:07.136Z</time></trkpt><trkpt lat="42.2240253" lon="13.7825928"><ele>880.4</ele><time>2026-05-02T09:50:08.135Z</time></trkpt><trkpt lat="42.223969" lon="13.7824705"><ele>874.8</ele><time>2026-05-02T09:50:09.135Z</time></trkpt><trkpt lat="42.2239222" lon="13.7823467"><ele>869.1999999999999</ele><time>2026-05-02T09:50:10.135Z</time></trkpt><trkpt lat="42.2238752" lon="13.7822124"><ele>863.5999999999999</ele><time>2026-05-02T09:50:11.136Z</time></trkpt><trkpt lat="42.2238325" lon="13.7821028"><ele>858.0</ele><time>2026-05-02T09:50:12.136Z</time></trkpt><trkpt lat="42.2237937" lon="13.7820073"><ele>858.0</ele><time>2026-05-02T09:50:13.136Z</time></trkpt><trkpt lat="42.2237225" lon="13.7819068"><ele>858.0</ele><time>2026-05-02T09:50:15.135Z</time></trkpt><trkpt lat="42.2236751" lon="13.781964"><ele>858.0</ele><time>2026-05-02T09:50:17.136Z</time></trkpt><trkpt lat="42.2236508" lon="13.7821506"><ele>858.0</ele><time>2026-05-02T09:50:19.135Z</time></trkpt><trkpt lat="42.2236307" lon="13.7823006"><ele>858.0</ele><time>2026-05-02T09:50:20.136Z</time></trkpt><trkpt lat="42.2236108" lon="13.7824288"><ele>858.0</ele><time>2026-05-02T09:50:21.136Z</time></trkpt><trkpt lat="42.2235939" lon="13.7825329"><ele>858.0</ele><time>2026-05-02T09:50:22.135Z</time></trkpt><trkpt lat="42.2235476" lon="13.782628"><ele>858.0</ele><time>2026-05-02T09:50:24.137Z</time></trkpt><trkpt lat="42.2234758" lon="13.782552"><ele>858.0</ele><time>2026-05-02T09:50:26.136Z</time></trkpt><trkpt lat="42.2234309" lon="13.7824498"><ele>858.0</ele><time>2026-05-02T09:50:27.135Z</time></trkpt><trkpt lat="42.2233847" lon="13.7823326"><ele>858.0</ele><time>2026-05-02T09:50:28.137Z</time></trkpt><trkpt lat="42.223345" lon="13.7822248"><ele>858.0</ele><time>2026-05-02T09:50:29.136Z</time></trkpt><trkpt lat="42.2233167" lon="13.7821294"><ele>858.0</ele><time>2026-05-02T09:50:30.136Z</time></trkpt><trkpt lat="42.2232576" lon="13.7820316"><ele>858.0</ele><time>2026-05-02T09:50:32.136Z</time></trkpt><trkpt lat="42.223176" lon="13.782078"><ele>858.0</ele><time>2026-05-02T09:50:34.136Z</time></trkpt><trkpt lat="42.2231133" lon="13.7821697"><ele>858.0</ele><time>2026-05-02T09:50:35.135Z</time></trkpt><trkpt lat="42.2230388" lon="13.7822892"><ele>857.0</ele><time>2026-05-02T09:50:36.135Z</time></trkpt><trkpt lat="42.2229732" lon="13.7823834"><ele>856.0</ele><time>2026-05-02T09:50:37.135Z</time></trkpt><trkpt lat="42.2229093" lon="13.7824467"><ele>855.0</ele><time>2026-05-02T09:50:38.136Z</time></trkpt><trkpt lat="42.2228498" lon="13.7824816"><ele>854.0</ele><time>2026-05-02T09:50:39.136Z</time></trkpt><trkpt lat="42.2227856" lon="13.782492"><ele>853.0</ele><time>2026-05-02T09:50:40.135Z</time></trkpt><trkpt lat="42.222679" lon="13.7824548"><ele>852.0</ele><time>2026-05-02T09:50:42.135Z</time></trkpt><trkpt lat="42.222599" lon="13.7824013"><ele>852.0</ele><time>2026-05-02T09:50:44.137Z</time></trkpt><trkpt lat="42.2225605" lon="13.7823089"><ele>852.0</ele><time>2026-05-02T09:50:47.135Z</time></trkpt><trkpt lat="42.2226334" lon="13.7822112"><ele>852.0</ele><time>2026-05-02T09:50:49.135Z</time></trkpt><trkpt lat="42.2226832" lon="13.7821515"><ele>852.0</ele><time>2026-05-02T09:50:50.135Z</time></trkpt><trkpt lat="42.2227202" lon="13.7820716"><ele>852.0</ele><time>2026-05-02T09:50:51.136Z</time></trkpt><trkpt lat="42.2227462" lon="13.781982"><ele>852.0</ele><time>2026-05-02T09:50:52.136Z</time></trkpt><trkpt lat="42.2227624" lon="13.7818796"><ele>852.0</ele><time>2026-05-02T09:50:53.136Z</time></trkpt><trkpt lat="42.2227845" lon="13.7817388"><ele>852.0</ele><time>2026-05-02T09:50:55.136Z</time></trkpt><trkpt lat="42.2227477" lon="13.7819149"><ele>852.0</ele><time>2026-05-02T09:51:02.135Z</time></trkpt><trkpt lat="42.2227191" lon="13.7820217"><ele>852.0</ele><time>2026-05-02T09:51:03.135Z</time></trkpt><trkpt lat="42.2226759" lon="13.7821029"><ele>852.0</ele><time>2026-05-02T09:51:04.135Z</time></trkpt><trkpt lat="42.2226206" lon="13.7821655"><ele>852.0</ele><time>2026-05-02T09:51:05.136Z</time></trkpt><trkpt lat="42.2225606" lon="13.7821951"><ele>852.0</ele><time>2026-05-02T09:51:06.137Z</time></trkpt><trkpt lat="42.2224676" lon="13.7821927"><ele>852.0</ele><time>2026-05-02T09:51:08.135Z</time></trkpt><trkpt lat="42.2223717" lon="13.7821183"><ele>852.0</ele><time>2026-05-02T09:51:10.135Z</time></trkpt><trkpt lat="42.2222855" lon="13.7820251"><ele>852.0</ele><time>2026-05-02T09:51:12.136Z</time></trkpt><trkpt lat="42.2222329" lon="13.7819646"><ele>852.0</ele><time>2026-05-02T09:51:13.135Z</time></trkpt><trkpt lat="42.2221733" lon="13.7818996"><ele>853.0</ele><time>2026-05-02T09:51:14.135Z</time></trkpt><trkpt lat="42.2221085" lon="13.7818303"><ele>854.0</ele><time>2026-05-02T09:51:15.135Z</time></trkpt><trkpt lat="42.2220442" lon="13.7817443"><ele>855.0</ele><time>2026-05-02T09:51:16.136Z</time></trkpt><trkpt lat="42.2219889" lon="13.7816363"><ele>856.0</ele><time>2026-05-02T09:51:17.137Z</time></trkpt><trkpt lat="42.2219389" lon="13.7815072"><ele>857.0</ele><time>2026-05-02T09:51:18.136Z</time></trkpt><trkpt lat="42.2218928" lon="13.7813756"><ele>857.0</ele><time>2026-05-02T09:51:19.136Z</time></trkpt><trkpt lat="42.2218495" lon="13.7812352"><ele>857.0</ele><time>2026-05-02T09:51:20.136Z</time></trkpt><trkpt lat="42.2218054" lon="13.7810726"><ele>857.0</ele><time>2026-05-02T09:51:21.136Z</time></trkpt><trkpt lat="42.2217685" lon="13.7809065"><ele>857.0</ele><time>2026-05-02T09:51:22.136Z</time></trkpt><trkpt lat="42.2217312" lon="13.7807368"><ele>856.0</ele><time>2026-05-02T09:51:23.135Z</time></trkpt><trkpt lat="42.2216843" lon="13.7805739"><ele>855.0</ele><time>2026-05-02T09:51:24.135Z</time></trkpt><trkpt lat="42.2216328" lon="13.7804166"><ele>854.0</ele><time>2026-05-02T09:51:25.136Z</time></trkpt><trkpt lat="42.2215796" lon="13.7802646"><ele>853.0</ele><time>2026-05-02T09:51:26.135Z</time></trkpt><trkpt lat="42.2215248" lon="13.7801161"><ele>850.0</ele><time>2026-05-02T09:51:27.135Z</time></trkpt><trkpt lat="42.2214714" lon="13.7799729"><ele>847.0</ele><time>2026-05-02T09:51:28.136Z</time></trkpt><trkpt lat="42.2214273" lon="13.7798435"><ele>844.0</ele><time>2026-05-02T09:51:29.135Z</time></trkpt><trkpt lat="42.2213952" lon="13.779747"><ele>841.0</ele><time>2026-05-02T09:51:30.135Z</time></trkpt><trkpt lat="42.2213416" lon="13.7795847"><ele>838.0</ele><time>2026-05-02T09:51:32.136Z</time></trkpt><trkpt lat="42.2213176" lon="13.7794907"><ele>838.0</ele><time>2026-05-02T09:51:33.135Z</time></trkpt><trkpt lat="42.2212818" lon="13.7793406"><ele>838.0</ele><time>2026-05-02T09:51:35.136Z</time></trkpt><trkpt lat="42.2212469" lon="13.7792416"><ele>838.0</ele><time>2026-05-02T09:51:37.136Z</time></trkpt><trkpt lat="42.2212836" lon="13.7793833"><ele>838.0</ele><time>2026-05-02T09:51:42.135Z</time></trkpt><trkpt lat="42.2213171" lon="13.7794755"><ele>838.0</ele><time>2026-05-02T09:51:43.136Z</time></trkpt><trkpt lat="42.221345" lon="13.7795725"><ele>837.9999999999999</ele><time>2026-05-02T09:51:44.135Z</time></trkpt><trkpt lat="42.2213635" lon="13.7796586"><ele>838.0</ele><time>2026-05-02T09:51:45.136Z</time></trkpt><trkpt lat="42.2213387" lon="13.7797484"><ele>838.0</ele><time>2026-05-02T09:51:47.137Z</time></trkpt><trkpt lat="42.2212662" lon="13.7798021"><ele>838.0</ele><time>2026-05-02T09:51:49.135Z</time></trkpt><trkpt lat="42.221208" lon="13.7798368"><ele>837.9999999999999</ele><time>2026-05-02T09:51:50.136Z</time></trkpt><trkpt lat="42.2211423" lon="13.7798815"><ele>838.0</ele><time>2026-05-02T09:51:51.136Z</time></trkpt><trkpt lat="42.2210547" lon="13.7799499"><ele>838.0</ele><time>2026-05-02T09:51:52.136Z</time></trkpt><trkpt lat="42.22095" lon="13.7800365"><ele>838.0</ele><time>2026-05-02T09:51:53.136Z</time></trkpt><trkpt lat="42.2208275" lon="13.7801345"><ele>838.0</ele><time>2026-05-02T09:51:54.137Z</time></trkpt><trkpt lat="42.2207082" lon="13.7802285"><ele>838.0</ele><time>2026-05-02T09:51:55.135Z</time></trkpt><trkpt lat="42.2205909" lon="13.7803143"><ele>837.75</ele><time>2026-05-02T09:51:56.135Z</time></trkpt><trkpt lat="42.2204819" lon="13.7803863"><ele>837.5</ele><time>2026-05-02T09:51:57.136Z</time></trkpt><trkpt lat="42.2203616" lon="13.7804474"><ele>837.25</ele><time>2026-05-02T09:51:58.136Z</time></trkpt><trkpt lat="42.2202441" lon="13.7804909"><ele>837.0</ele><time>2026-05-02T09:51:59.135Z</time></trkpt><trkpt lat="42.2201628" lon="13.7805077"><ele>837.0</ele><time>2026-05-02T09:52:00.135Z</time></trkpt><trkpt lat="42.2200625" lon="13.7804926"><ele>837.0</ele><time>2026-05-02T09:52:02.135Z</time></trkpt><trkpt lat="42.2199257" lon="13.7804613"><ele>837.0</ele><time>2026-05-02T09:52:04.135Z</time></trkpt><trkpt lat="42.2198223" lon="13.7804345"><ele>837.0</ele><time>2026-05-02T09:52:05.136Z</time></trkpt><trkpt lat="42.2197272" lon="13.7804047"><ele>837.0</ele><time>2026-05-02T09:52:06.136Z</time></trkpt><trkpt lat="42.219642" lon="13.7803591"><ele>835.2</ele><time>2026-05-02T09:52:07.136Z</time></trkpt><trkpt lat="42.2195653" lon="13.7803107"><ele>833.4000000000001</ele><time>2026-05-02T09:52:08.135Z</time></trkpt><trkpt lat="42.2194909" lon="13.7802504"><ele>831.5999999999999</ele><time>2026-05-02T09:52:09.136Z</time></trkpt><trkpt lat="42.219414" lon="13.7801678"><ele>829.8</ele><time>2026-05-02T09:52:10.136Z</time></trkpt><trkpt lat="42.2193274" lon="13.7800574"><ele>828.0</ele><time>2026-05-02T09:52:11.136Z</time></trkpt><trkpt lat="42.2192529" lon="13.7799544"><ele>823.5999999999999</ele><time>2026-05-02T09:52:12.136Z</time></trkpt><trkpt lat="42.2191836" lon="13.7798622"><ele>819.1999999999999</ele><time>2026-05-02T09:52:13.136Z</time></trkpt><trkpt lat="42.2191077" lon="13.7797753"><ele>814.8</ele><time>2026-05-02T09:52:14.136Z</time></trkpt><trkpt lat="42.2190212" lon="13.7797048"><ele>810.4</ele><time>2026-05-02T09:52:15.135Z</time></trkpt><trkpt lat="42.2189203" lon="13.7796501"><ele>806.0</ele><time>2026-05-02T09:52:16.135Z</time></trkpt><trkpt lat="42.2188021" lon="13.7796199"><ele>802.5</ele><time>2026-05-02T09:52:17.137Z</time></trkpt><trkpt lat="42.2186869" lon="13.7796211"><ele>799.0</ele><time>2026-05-02T09:52:18.135Z</time></trkpt><trkpt lat="42.2185724" lon="13.7796468"><ele>795.5</ele><time>2026-05-02T09:52:19.136Z</time></trkpt><trkpt lat="42.2184555" lon="13.779699"><ele>792.0</ele><time>2026-05-02T09:52:20.136Z</time></trkpt><trkpt lat="42.2183253" lon="13.779762"><ele>792.0</ele><time>2026-05-02T09:52:21.135Z</time></trkpt><trkpt lat="42.2181938" lon="13.7798153"><ele>792.0</ele><time>2026-05-02T09:52:22.136Z</time></trkpt><trkpt lat="42.2180684" lon="13.7798606"><ele>792.0</ele><time>2026-05-02T09:52:23.136Z</time></trkpt><trkpt lat="42.2179615" lon="13.7799007"><ele>792.0</ele><time>2026-05-02T09:52:24.137Z</time></trkpt><trkpt lat="42.2178667" lon="13.7799341"><ele>790.8</ele><time>2026-05-02T09:52:25.136Z</time></trkpt><trkpt lat="42.217775" lon="13.7799345"><ele>789.6</ele><time>2026-05-02T09:52:26.135Z</time></trkpt><trkpt lat="42.2176859" lon="13.7798928"><ele>788.4</ele><time>2026-05-02T09:52:27.135Z</time></trkpt><trkpt lat="42.2176084" lon="13.7798185"><ele>787.1999999999999</ele><time>2026-05-02T09:52:28.137Z</time></trkpt><trkpt lat="42.2175473" lon="13.7797314"><ele>786.0</ele><time>2026-05-02T09:52:29.135Z</time></trkpt><trkpt lat="42.2175109" lon="13.7796129"><ele>786.0</ele><time>2026-05-02T09:52:30.136Z</time></trkpt><trkpt lat="42.2174821" lon="13.77947"><ele>786.0</ele><time>2026-05-02T09:52:31.135Z</time></trkpt><trkpt lat="42.2174569" lon="13.7792937"><ele>786.0</ele><time>2026-05-02T09:52:32.135Z</time></trkpt><trkpt lat="42.2174283" lon="13.77911"><ele>786.0</ele><time>2026-05-02T09:52:33.135Z</time></trkpt><trkpt lat="42.2173925" lon="13.7789439"><ele>783.0</ele><time>2026-05-02T09:52:34.135Z</time></trkpt><trkpt lat="42.217348" lon="13.7787891"><ele>780.0</ele><time>2026-05-02T09:52:35.136Z</time></trkpt><trkpt lat="42.2172866" lon="13.7786233"><ele>777.0</ele><time>2026-05-02T09:52:36.135Z</time></trkpt><trkpt lat="42.2172124" lon="13.7784362"><ele>774.0</ele><time>2026-05-02T09:52:37.135Z</time></trkpt><trkpt lat="42.2171393" lon="13.7782583"><ele>769.5</ele><time>2026-05-02T09:52:38.135Z</time></trkpt><trkpt lat="42.2170731" lon="13.7780911"><ele>765.0</ele><time>2026-05-02T09:52:39.135Z</time></trkpt><trkpt lat="42.2170103" lon="13.777947"><ele>760.5</ele><time>2026-05-02T09:52:40.135Z</time></trkpt><trkpt lat="42.2169484" lon="13.7778234"><ele>756.0</ele><time>2026-05-02T09:52:41.135Z</time></trkpt><trkpt lat="42.2168769" lon="13.7777172"><ele>751.5</ele><time>2026-05-02T09:52:42.136Z</time></trkpt><trkpt lat="42.2167852" lon="13.7776324"><ele>747.0</ele><time>2026-05-02T09:52:43.135Z</time></trkpt><trkpt lat="42.2166877" lon="13.7775607"><ele>742.5</ele><time>2026-05-02T09:52:44.135Z</time></trkpt><trkpt lat="42.2165571" lon="13.7774864"><ele>738.0</ele><time>2026-05-02T09:52:45.135Z</time></trkpt><trkpt lat="42.2164015" lon="13.7774069"><ele>735.0</ele><time>2026-05-02T09:52:46.135Z</time></trkpt><trkpt lat="42.2162317" lon="13.7773061"><ele>732.0</ele><time>2026-05-02T09:52:47.135Z</time></trkpt><trkpt lat="42.2160757" lon="13.7771992"><ele>729.0</ele><time>2026-05-02T09:52:48.135Z</time></trkpt><trkpt lat="42.2159226" lon="13.7770992"><ele>729.0</ele><time>2026-05-02T09:52:49.135Z</time></trkpt><trkpt lat="42.2157739" lon="13.7770032"><ele>729.0</ele><time>2026-05-02T09:52:50.136Z</time></trkpt><trkpt lat="42.21563" lon="13.7769159"><ele>729.0</ele><time>2026-05-02T09:52:51.135Z</time></trkpt><trkpt lat="42.2154944" lon="13.7768416"><ele>724.0</ele><time>2026-05-02T09:52:52.135Z</time></trkpt><trkpt lat="42.215367" lon="13.7767845"><ele>719.0</ele><time>2026-05-02T09:52:53.135Z</time></trkpt><trkpt lat="42.2152446" lon="13.7767401"><ele>714.0</ele><time>2026-05-02T09:52:54.135Z</time></trkpt><trkpt lat="42.2151263" lon="13.7767236"><ele>709.0</ele><time>2026-05-02T09:52:55.136Z</time></trkpt><trkpt lat="42.2150299" lon="13.7767399"><ele>709.0</ele><time>2026-05-02T09:52:56.136Z</time></trkpt><trkpt lat="42.214966" lon="13.7767909"><ele>709.0</ele><time>2026-05-02T09:52:57.136Z</time></trkpt><trkpt lat="42.2149163" lon="13.7768894"><ele>709.0</ele><time>2026-05-02T09:52:58.135Z</time></trkpt><trkpt lat="42.214878" lon="13.7769674"><ele>709.0</ele><time>2026-05-02T09:52:59.135Z</time></trkpt><trkpt lat="42.2148322" lon="13.7770646"><ele>709.0</ele><time>2026-05-02T09:53:01.135Z</time></trkpt><trkpt lat="42.2147598" lon="13.7770685"><ele>709.0</ele><time>2026-05-02T09:53:05.135Z</time></trkpt><trkpt lat="42.2147827" lon="13.776964"><ele>709.0</ele><time>2026-05-02T09:53:07.136Z</time></trkpt><trkpt lat="42.2148187" lon="13.7768776"><ele>709.0</ele><time>2026-05-02T09:53:08.136Z</time></trkpt><trkpt lat="42.2148487" lon="13.7767734"><ele>709.0</ele><time>2026-05-02T09:53:09.136Z</time></trkpt><trkpt lat="42.2148799" lon="13.7766567"><ele>709.0</ele><time>2026-05-02T09:53:10.136Z</time></trkpt><trkpt lat="42.214908" lon="13.7765451"><ele>709.0</ele><time>2026-05-02T09:53:11.135Z</time></trkpt><trkpt lat="42.214914" lon="13.7764568"><ele>709.0</ele><time>2026-05-02T09:53:12.137Z</time></trkpt><trkpt lat="42.2148274" lon="13.7763697"><ele>707.0</ele><time>2026-05-02T09:53:14.136Z</time></trkpt><trkpt lat="42.2147143" lon="13.7764972"><ele>705.0</ele><time>2026-05-02T09:53:16.135Z</time></trkpt><trkpt lat="42.2146585" lon="13.7766224"><ele>703.0</ele><time>2026-05-02T09:53:17.135Z</time></trkpt><trkpt lat="42.2145949" lon="13.7767775"><ele>701.0</ele><time>2026-05-02T09:53:18.136Z</time></trkpt><trkpt lat="42.2145211" lon="13.7769614"><ele>701.0</ele><time>2026-05-02T09:53:19.135Z</time></trkpt><trkpt lat="42.2144458" lon="13.7771377"><ele>701.0</ele><time>2026-05-02T09:53:20.135Z</time></trkpt><trkpt lat="42.2143791" lon="13.777283"><ele>701.0</ele><time>2026-05-02T09:53:21.135Z</time></trkpt><trkpt lat="42.2143211" lon="13.7774013"><ele>701.0</ele><time>2026-05-02T09:53:22.136Z</time></trkpt><trkpt lat="42.2142633" lon="13.7774705"><ele>701.0</ele><time>2026-05-02T09:53:23.136Z</time></trkpt><trkpt lat="42.214174" lon="13.777436"><ele>701.0</ele><time>2026-05-02T09:53:25.135Z</time></trkpt><trkpt lat="42.2141928" lon="13.7772375"><ele>701.0</ele><time>2026-05-02T09:53:27.137Z</time></trkpt><trkpt lat="42.2142307" lon="13.7770855"><ele>701.0</ele><time>2026-05-02T09:53:28.137Z</time></trkpt><trkpt lat="42.2142678" lon="13.7769291"><ele>700.0</ele><time>2026-05-02T09:53:29.136Z</time></trkpt><trkpt lat="42.2142996" lon="13.7767901"><ele>699.0</ele><time>2026-05-02T09:53:30.135Z</time></trkpt><trkpt lat="42.2143192" lon="13.7766903"><ele>698.0</ele><time>2026-05-02T09:53:31.135Z</time></trkpt><trkpt lat="42.2143375" lon="13.776559"><ele>697.0</ele><time>2026-05-02T09:53:33.136Z</time></trkpt><trkpt lat="42.2142572" lon="13.7765521"><ele>696.0</ele><time>2026-05-02T09:53:36.137Z</time></trkpt><trkpt lat="42.2141518" lon="13.7766685"><ele>696.0</ele><time>2026-05-02T09:53:38.137Z</time></trkpt><trkpt lat="42.2140924" lon="13.7767058"><ele>696.0</ele><time>2026-05-02T09:53:39.137Z</time></trkpt><trkpt lat="42.214025" lon="13.7767253"><ele>696.0</ele><time>2026-05-02T09:53:40.136Z</time></trkpt><trkpt lat="42.2139326" lon="13.7767352"><ele>696.0</ele><time>2026-05-02T09:53:41.136Z</time></trkpt><trkpt lat="42.2138259" lon="13.7767419"><ele>696.0</ele><time>2026-05-02T09:53:42.135Z</time></trkpt><trkpt lat="42.2137213" lon="13.7767408"><ele>696.0</ele><time>2026-05-02T09:53:43.136Z</time></trkpt><trkpt lat="42.213617" lon="13.7767248"><ele>694.5</ele><time>2026-05-02T09:53:44.135Z</time></trkpt><trkpt lat="42.2135159" lon="13.7766867"><ele>693.0</ele><time>2026-05-02T09:53:45.136Z</time></trkpt><trkpt lat="42.2134095" lon="13.7766253"><ele>691.5</ele><time>2026-05-02T09:53:46.135Z</time></trkpt><trkpt lat="42.2132928" lon="13.7765402"><ele>690.0</ele><time>2026-05-02T09:53:47.137Z</time></trkpt><trkpt lat="42.2131764" lon="13.7764491"><ele>690.0</ele><time>2026-05-02T09:53:48.135Z</time></trkpt><trkpt lat="42.2130739" lon="13.7763792"><ele>690.0</ele><time>2026-05-02T09:53:49.136Z</time></trkpt><trkpt lat="42.2129951" lon="13.77635"><ele>690.0</ele><time>2026-05-02T09:53:50.137Z</time></trkpt><trkpt lat="42.2128654" lon="13.7763913"><ele>690.0</ele><time>2026-05-02T09:53:52.135Z</time></trkpt><trkpt lat="42.2127804" lon="13.7764431"><ele>690.0</ele><time>2026-05-02T09:53:53.136Z</time></trkpt><trkpt lat="42.2126818" lon="13.7765154"><ele>690.0</ele><time>2026-05-02T09:53:54.136Z</time></trkpt><trkpt lat="42.2125928" lon="13.7766189"><ele>690.0</ele><time>2026-05-02T09:53:55.135Z</time></trkpt><trkpt lat="42.2125141" lon="13.7767148"><ele>690.0</ele><time>2026-05-02T09:53:56.135Z</time></trkpt><trkpt lat="42.212434" lon="13.7768047"><ele>690.0</ele><time>2026-05-02T09:53:57.135Z</time></trkpt><trkpt lat="42.2123471" lon="13.7768899"><ele>690.0</ele><time>2026-05-02T09:53:58.136Z</time></trkpt><trkpt lat="42.2122475" lon="13.7769703"><ele>688.4</ele><time>2026-05-02T09:53:59.135Z</time></trkpt><trkpt lat="42.2121561" lon="13.777047"><ele>686.8</ele><time>2026-05-02T09:54:00.136Z</time></trkpt><trkpt lat="42.2120711" lon="13.7771153"><ele>685.2</ele><time>2026-05-02T09:54:01.135Z</time></trkpt><trkpt lat="42.2119805" lon="13.7771891"><ele>683.6</ele><time>2026-05-02T09:54:02.135Z</time></trkpt><trkpt lat="42.2119127" lon="13.7772001"><ele>682.0</ele><time>2026-05-02T09:54:03.136Z</time></trkpt><trkpt lat="42.2118202" lon="13.7772064"><ele>682.0</ele><time>2026-05-02T09:54:04.136Z</time></trkpt><trkpt lat="42.2117025" lon="13.7771891"><ele>682.0</ele><time>2026-05-02T09:54:05.136Z</time></trkpt><trkpt lat="42.2115974" lon="13.7771504"><ele>682.0</ele><time>2026-05-02T09:54:06.135Z</time></trkpt><trkpt lat="42.2114989" lon="13.7770978"><ele>682.0</ele><time>2026-05-02T09:54:07.135Z</time></trkpt><trkpt lat="42.2114016" lon="13.7770165"><ele>682.0</ele><time>2026-05-02T09:54:08.135Z</time></trkpt><trkpt lat="42.2112939" lon="13.7769073"><ele>681.75</ele><time>2026-05-02T09:54:09.135Z</time></trkpt><trkpt lat="42.2111751" lon="13.7767737"><ele>681.5</ele><time>2026-05-02T09:54:10.135Z</time></trkpt><trkpt lat="42.2110728" lon="13.7766617"><ele>681.25</ele><time>2026-05-02T09:54:11.136Z</time></trkpt><trkpt lat="42.2109799" lon="13.7765558"><ele>681.0</ele><time>2026-05-02T09:54:12.135Z</time></trkpt><trkpt lat="42.2108962" lon="13.7764606"><ele>681.0</ele><time>2026-05-02T09:54:13.137Z</time></trkpt><trkpt lat="42.2108247" lon="13.7763734"><ele>681.0</ele><time>2026-05-02T09:54:14.137Z</time></trkpt><trkpt lat="42.2107514" lon="13.7762872"><ele>681.0</ele><time>2026-05-02T09:54:15.136Z</time></trkpt><trkpt lat="42.2106643" lon="13.7762043"><ele>681.0</ele><time>2026-05-02T09:54:16.135Z</time></trkpt><trkpt lat="42.2105488" lon="13.7761273"><ele>681.0</ele><time>2026-05-02T09:54:17.135Z</time></trkpt><trkpt lat="42.2104241" lon="13.7760561"><ele>680.3333333333334</ele><time>2026-05-02T09:54:18.135Z</time></trkpt><trkpt lat="42.2102717" lon="13.7759844"><ele>679.6666666666667</ele><time>2026-05-02T09:54:19.137Z</time></trkpt><trkpt lat="42.2101001" lon="13.7759016"><ele>679.0</ele><time>2026-05-02T09:54:20.136Z</time></trkpt><trkpt lat="42.2099355" lon="13.7758214"><ele>679.0</ele><time>2026-05-02T09:54:21.136Z</time></trkpt><trkpt lat="42.20977" lon="13.775744"><ele>679.0</ele><time>2026-05-02T09:54:22.135Z</time></trkpt><trkpt lat="42.2096078" lon="13.7756758"><ele>679.0</ele><time>2026-05-02T09:54:23.137Z</time></trkpt><trkpt lat="42.2094613" lon="13.7756193"><ele>679.0</ele><time>2026-05-02T09:54:24.136Z</time></trkpt><trkpt lat="42.2093239" lon="13.7755672"><ele>679.0</ele><time>2026-05-02T09:54:25.136Z</time></trkpt><trkpt lat="42.2091906" lon="13.7755254"><ele>679.0</ele><time>2026-05-02T09:54:26.136Z</time></trkpt><trkpt lat="42.2090623" lon="13.7755002"><ele>679.0</ele><time>2026-05-02T09:54:27.136Z</time></trkpt><trkpt lat="42.2089402" lon="13.7754988"><ele>678.8000000000001</ele><time>2026-05-02T09:54:28.136Z</time></trkpt><trkpt lat="42.2088153" lon="13.7755242"><ele>678.6</ele><time>2026-05-02T09:54:29.135Z</time></trkpt><trkpt lat="42.2086894" lon="13.7755659"><ele>678.4</ele><time>2026-05-02T09:54:30.136Z</time></trkpt><trkpt lat="42.2085918" lon="13.7755979"><ele>678.2</ele><time>2026-05-02T09:54:31.135Z</time></trkpt><trkpt lat="42.2085106" lon="13.775615"><ele>678.0</ele><time>2026-05-02T09:54:32.135Z</time></trkpt><trkpt lat="42.2084445" lon="13.7756058"><ele>678.0</ele><time>2026-05-02T09:54:33.135Z</time></trkpt><trkpt lat="42.2083821" lon="13.7755719"><ele>678.0</ele><time>2026-05-02T09:54:34.135Z</time></trkpt><trkpt lat="42.2082983" lon="13.7755162"><ele>678.0</ele><time>2026-05-02T09:54:35.135Z</time></trkpt><trkpt lat="42.2081925" lon="13.7754307"><ele>678.0</ele><time>2026-05-02T09:54:36.135Z</time></trkpt><trkpt lat="42.2080691" lon="13.7753239"><ele>678.0</ele><time>2026-05-02T09:54:37.135Z</time></trkpt><trkpt lat="42.2079208" lon="13.7751935"><ele>678.0</ele><time>2026-05-02T09:54:38.136Z</time></trkpt><trkpt lat="42.207772" lon="13.7750545"><ele>678.0</ele><time>2026-05-02T09:54:39.137Z</time></trkpt><trkpt lat="42.2076448" lon="13.7749377"><ele>678.0</ele><time>2026-05-02T09:54:40.136Z</time></trkpt><trkpt lat="42.20753" lon="13.7748317"><ele>678.0</ele><time>2026-05-02T09:54:41.136Z</time></trkpt><trkpt lat="42.2074336" lon="13.7747397"><ele>678.0</ele><time>2026-05-02T09:54:42.136Z</time></trkpt><trkpt lat="42.207356" lon="13.7746638"><ele>678.0</ele><time>2026-05-02T09:54:43.135Z</time></trkpt><trkpt lat="42.2073002" lon="13.7746045"><ele>678.0</ele><time>2026-05-02T09:54:44.136Z</time></trkpt><trkpt lat="42.2072386" lon="13.7745445"><ele>678.0</ele><time>2026-05-02T09:54:46.136Z</time></trkpt><trkpt lat="42.2071653" lon="13.7745183"><ele>678.0</ele><time>2026-05-02T09:54:48.135Z</time></trkpt><trkpt lat="42.2070204" lon="13.7745618"><ele>678.75</ele><time>2026-05-02T09:54:50.135Z</time></trkpt><trkpt lat="42.2069193" lon="13.7746215"><ele>679.5</ele><time>2026-05-02T09:54:51.136Z</time></trkpt><trkpt lat="42.2067855" lon="13.774709"><ele>680.25</ele><time>2026-05-02T09:54:52.135Z</time></trkpt><trkpt lat="42.2066307" lon="13.7747972"><ele>681.0</ele><time>2026-05-02T09:54:53.137Z</time></trkpt><trkpt lat="42.2064566" lon="13.7748919"><ele>681.0</ele><time>2026-05-02T09:54:54.136Z</time></trkpt><trkpt lat="42.2062729" lon="13.7749976"><ele>681.0</ele><time>2026-05-02T09:54:55.136Z</time></trkpt><trkpt lat="42.206084" lon="13.7751058"><ele>681.0</ele><time>2026-05-02T09:54:56.136Z</time></trkpt><trkpt lat="42.2058903" lon="13.7752119"><ele>681.0</ele><time>2026-05-02T09:54:57.135Z</time></trkpt><trkpt lat="42.2056874" lon="13.7753265"><ele>681.0</ele><time>2026-05-02T09:54:58.136Z</time></trkpt><trkpt lat="42.2054802" lon="13.7754432"><ele>681.0</ele><time>2026-05-02T09:54:59.136Z</time></trkpt><trkpt lat="42.205273" lon="13.7755585"><ele>682.5</ele><time>2026-05-02T09:55:00.135Z</time></trkpt><trkpt lat="42.205063" lon="13.775679"><ele>684.0</ele><time>2026-05-02T09:55:01.135Z</time></trkpt><trkpt lat="42.2048499" lon="13.7758031"><ele>684.5</ele><time>2026-05-02T09:55:02.136Z</time></trkpt><trkpt lat="42.2046291" lon="13.775931"><ele>685.0</ele><time>2026-05-02T09:55:03.136Z</time></trkpt><trkpt lat="42.2044092" lon="13.776056"><ele>685.0</ele><time>2026-05-02T09:55:04.135Z</time></trkpt><trkpt lat="42.2041837" lon="13.7761786"><ele>685.0</ele><time>2026-05-02T09:55:05.136Z</time></trkpt><trkpt lat="42.2039586" lon="13.776301"><ele>687.5</ele><time>2026-05-02T09:55:06.136Z</time></trkpt><trkpt lat="42.2037318" lon="13.7764297"><ele>690.0</ele><time>2026-05-02T09:55:07.135Z</time></trkpt><trkpt lat="42.2035102" lon="13.776559"><ele>690.0</ele><time>2026-05-02T09:55:08.136Z</time></trkpt><trkpt lat="42.2032919" lon="13.776683"><ele>690.0</ele><time>2026-05-02T09:55:09.135Z</time></trkpt><trkpt lat="42.2030723" lon="13.7768221"><ele>694.6666666666666</ele><time>2026-05-02T09:55:10.135Z</time></trkpt><trkpt lat="42.2028642" lon="13.7769272"><ele>699.3333333333333</ele><time>2026-05-02T09:55:11.135Z</time></trkpt><trkpt lat="42.2026873" lon="13.7770261"><ele>704.0</ele><time>2026-05-02T09:55:12.135Z</time></trkpt><trkpt lat="42.2025026" lon="13.7771298"><ele>704.0</ele><time>2026-05-02T09:55:13.136Z</time></trkpt><trkpt lat="42.2024182" lon="13.7772113"><ele>704.0</ele><time>2026-05-02T09:55:14.135Z</time></trkpt><trkpt lat="42.2023226" lon="13.7773422"><ele>704.0</ele><time>2026-05-02T09:55:15.135Z</time></trkpt><trkpt lat="42.2022641" lon="13.7775215"><ele>704.0</ele><time>2026-05-02T09:55:16.135Z</time></trkpt><trkpt lat="42.2022129" lon="13.7777402"><ele>703.0</ele><time>2026-05-02T09:55:17.136Z</time></trkpt><trkpt lat="42.2021579" lon="13.7779954"><ele>702.0</ele><time>2026-05-02T09:55:18.135Z</time></trkpt><trkpt lat="42.2021005" lon="13.7782717"><ele>701.0</ele><time>2026-05-02T09:55:19.136Z</time></trkpt><trkpt lat="42.2020388" lon="13.7785757"><ele>704.0</ele><time>2026-05-02T09:55:20.135Z</time></trkpt><trkpt lat="42.2019704" lon="13.7788999"><ele>707.0</ele><time>2026-05-02T09:55:21.135Z</time></trkpt><trkpt lat="42.2019" lon="13.7792334"><ele>711.5</ele><time>2026-05-02T09:55:22.135Z</time></trkpt><trkpt lat="42.2018304" lon="13.779563"><ele>716.0</ele><time>2026-05-02T09:55:23.136Z</time></trkpt><trkpt lat="42.2017647" lon="13.7798937"><ele>719.0</ele><time>2026-05-02T09:55:24.136Z</time></trkpt><trkpt lat="42.2017143" lon="13.7802183"><ele>722.0</ele><time>2026-05-02T09:55:25.135Z</time></trkpt><trkpt lat="42.2016785" lon="13.7805423"><ele>722.0</ele><time>2026-05-02T09:55:26.135Z</time></trkpt><trkpt lat="42.2016626" lon="13.7808639"><ele>722.0</ele><time>2026-05-02T09:55:27.135Z</time></trkpt><trkpt lat="42.2016685" lon="13.7811611"><ele>723.3333333333333</ele><time>2026-05-02T09:55:28.135Z</time></trkpt><trkpt lat="42.2016913" lon="13.7814486"><ele>724.6666666666666</ele><time>2026-05-02T09:55:29.135Z</time></trkpt><trkpt lat="42.2017124" lon="13.7817051"><ele>726.0</ele><time>2026-05-02T09:55:30.136Z</time></trkpt><trkpt lat="42.2017098" lon="13.781938"><ele>728.6666666666666</ele><time>2026-05-02T09:55:31.135Z</time></trkpt><trkpt lat="42.2016738" lon="13.7821647"><ele>731.3333333333333</ele><time>2026-05-02T09:55:32.135Z</time></trkpt><trkpt lat="42.2016081" lon="13.7823937"><ele>734.0</ele><time>2026-05-02T09:55:33.135Z</time></trkpt><trkpt lat="42.2015266" lon="13.782634"><ele>733.3333333333333</ele><time>2026-05-02T09:55:34.136Z</time></trkpt><trkpt lat="42.2014348" lon="13.7828942"><ele>732.6666666666666</ele><time>2026-05-02T09:55:35.135Z</time></trkpt><trkpt lat="42.2013346" lon="13.7831675"><ele>732.0</ele><time>2026-05-02T09:55:36.136Z</time></trkpt><trkpt lat="42.2012202" lon="13.7834504"><ele>739.5</ele><time>2026-05-02T09:55:37.136Z</time></trkpt><trkpt lat="42.2011025" lon="13.7837163"><ele>747.0</ele><time>2026-05-02T09:55:38.135Z</time></trkpt><trkpt lat="42.2009777" lon="13.7839778"><ele>747.0</ele><time>2026-05-02T09:55:39.135Z</time></trkpt><trkpt lat="42.20086" lon="13.7842193"><ele>747.0</ele><time>2026-05-02T09:55:40.136Z</time></trkpt><trkpt lat="42.2007359" lon="13.7844607"><ele>747.0</ele><time>2026-05-02T09:55:41.136Z</time></trkpt><trkpt lat="42.2006176" lon="13.7846687"><ele>751.5</ele><time>2026-05-02T09:55:42.135Z</time></trkpt><trkpt lat="42.2005024" lon="13.7848527"><ele>756.0</ele><time>2026-05-02T09:55:43.135Z</time></trkpt><trkpt lat="42.2025026" lon="13.7771298"><ele>743.0</ele><time>2026-05-02T09:55:13.136Z</time></trkpt><trkpt lat="42.2024182" lon="13.7772113"><ele>730.0</ele><time>2026-05-02T09:55:14.135Z</time></trkpt><trkpt lat="42.2023226" lon="13.7773422"><ele>717.0</ele><time>2026-05-02T09:55:15.135Z</time></trkpt><trkpt lat="42.2022641" lon="13.7775215"><ele>704.0</ele><time>2026-05-02T09:55:16.135Z</time></trkpt><trkpt lat="42.2022129" lon="13.7777402"><ele>703.0</ele><time>2026-05-02T09:55:17.136Z</time></trkpt><trkpt lat="42.2021579" lon="13.7779954"><ele>702.0</ele><time>2026-05-02T09:55:18.135Z</time></trkpt><trkpt lat="42.2021005" lon="13.7782717"><ele>701.0</ele><time>2026-05-02T09:55:19.136Z</time></trkpt><trkpt lat="42.2020388" lon="13.7785757"><ele>704.0</ele><time>2026-05-02T09:55:20.135Z</time></trkpt><trkpt lat="42.2019704" lon="13.7788999"><ele>707.0</ele><time>2026-05-02T09:55:21.135Z</time></trkpt><trkpt lat="42.2019" lon="13.7792334"><ele>711.5</ele><time>2026-05-02T09:55:22.135Z</time></trkpt><trkpt lat="42.2018304" lon="13.779563"><ele>716.0</ele><time>2026-05-02T09:55:23.136Z</time></trkpt><trkpt lat="42.2017647" lon="13.7798937"><ele>719.0</ele><time>2026-05-02T09:55:24.136Z</time></trkpt><trkpt lat="42.2017143" lon="13.7802183"><ele>722.0</ele><time>2026-05-02T09:55:25.135Z</time></trkpt><trkpt lat="42.2016785" lon="13.7805423"><ele>722.0</ele><time>2026-05-02T09:55:26.135Z</time></trkpt><trkpt lat="42.2016626" lon="13.7808639"><ele>722.0</ele><time>2026-05-02T09:55:27.135Z</time></trkpt><trkpt lat="42.2016685" lon="13.7811611"><ele>723.3333333333333</ele><time>2026-05-02T09:55:28.135Z</time></trkpt><trkpt lat="42.2016913" lon="13.7814486"><ele>724.6666666666666</ele><time>2026-05-02T09:55:29.135Z</time></trkpt><trkpt lat="42.2017124" lon="13.7817051"><ele>726.0</ele><time>2026-05-02T09:55:30.136Z</time></trkpt><trkpt lat="42.2017098" lon="13.781938"><ele>728.6666666666666</ele><time>2026-05-02T09:55:31.135Z</time></trkpt><trkpt lat="42.2016738" lon="13.7821647"><ele>731.3333333333333</ele><time>2026-05-02T09:55:32.135Z</time></trkpt><trkpt lat="42.2016081" lon="13.7823937"><ele>734.0</ele><time>2026-05-02T09:55:33.135Z</time></trkpt><trkpt lat="42.2015266" lon="13.782634"><ele>733.3333333333333</ele><time>2026-05-02T09:55:34.136Z</time></trkpt><trkpt lat="42.2014348" lon="13.7828942"><ele>732.6666666666666</ele><time>2026-05-02T09:55:35.135Z</time></trkpt><trkpt lat="42.2013346" lon="13.7831675"><ele>732.0</ele><time>2026-05-02T09:55:36.136Z</time></trkpt><trkpt lat="42.2012202" lon="13.7834504"><ele>739.5</ele><time>2026-05-02T09:55:37.136Z</time></trkpt><trkpt lat="42.2011025" lon="13.7837163"><ele>747.0</ele><time>2026-05-02T09:55:38.135Z</time></trkpt><trkpt lat="42.2009777" lon="13.7839778"><ele>747.0</ele><time>2026-05-02T09:55:39.135Z</time></trkpt><trkpt lat="42.20086" lon="13.7842193"><ele>747.0</ele><time>2026-05-02T09:55:40.136Z</time></trkpt><trkpt lat="42.2007359" lon="13.7844607"><ele>747.0</ele><time>2026-05-02T09:55:41.136Z</time></trkpt><trkpt lat="42.2006176" lon="13.7846687"><ele>749.25</ele><time>2026-05-02T09:55:42.135Z</time></trkpt><trkpt lat="42.2005024" lon="13.7848527"><ele>751.5</ele><time>2026-05-02T09:55:43.135Z</time></trkpt><trkpt lat="42.2004047" lon="13.7849979"><ele>753.75</ele><time>2026-05-02T09:55:44.136Z</time></trkpt><trkpt lat="42.2003325" lon="13.785101"><ele>756.0</ele><time>2026-05-02T09:55:45.136Z</time></trkpt><trkpt lat="42.2002748" lon="13.7851644"><ele>756.0</ele><time>2026-05-02T09:55:46.136Z</time></trkpt><trkpt lat="42.2001933" lon="13.7851466"><ele>756.0</ele><time>2026-05-02T09:55:48.135Z</time></trkpt><trkpt lat="42.2001524" lon="13.7849768"><ele>756.0</ele><time>2026-05-02T09:55:50.136Z</time></trkpt><trkpt lat="42.2001423" lon="13.7848396"><ele>756.0</ele><time>2026-05-02T09:55:51.136Z</time></trkpt><trkpt lat="42.2001196" lon="13.7846686"><ele>756.0</ele><time>2026-05-02T09:55:52.136Z</time></trkpt><trkpt lat="42.2000665" lon="13.7844744"><ele>755.6666666666666</ele><time>2026-05-02T09:55:53.136Z</time></trkpt><trkpt lat="42.1999904" lon="13.7842649"><ele>755.3333333333333</ele><time>2026-05-02T09:55:54.135Z</time></trkpt><trkpt lat="42.1999056" lon="13.7840657"><ele>755.0</ele><time>2026-05-02T09:55:55.135Z</time></trkpt><trkpt lat="42.1998323" lon="13.7838729"><ele>758.25</ele><time>2026-05-02T09:55:56.135Z</time></trkpt><trkpt lat="42.1997925" lon="13.7836838"><ele>761.5</ele><time>2026-05-02T09:55:57.136Z</time></trkpt><trkpt lat="42.1997785" lon="13.783508"><ele>764.75</ele><time>2026-05-02T09:55:58.135Z</time></trkpt><trkpt lat="42.1997601" lon="13.7833513"><ele>768.0</ele><time>2026-05-02T09:55:59.136Z</time></trkpt><trkpt lat="42.199708" lon="13.7832073"><ele>768.0</ele><time>2026-05-02T09:56:00.136Z</time></trkpt><trkpt lat="42.199616" lon="13.7830901"><ele>768.0</ele><time>2026-05-02T09:56:01.135Z</time></trkpt><trkpt lat="42.199489" lon="13.7829865"><ele>768.0</ele><time>2026-05-02T09:56:02.136Z</time></trkpt><trkpt lat="42.1993438" lon="13.782911"><ele>768.0</ele><time>2026-05-02T09:56:03.135Z</time></trkpt><trkpt lat="42.1991825" lon="13.7828817"><ele>768.0</ele><time>2026-05-02T09:56:04.136Z</time></trkpt><trkpt lat="42.1990031" lon="13.7828758"><ele>768.0</ele><time>2026-05-02T09:56:05.136Z</time></trkpt><trkpt lat="42.1988211" lon="13.7828532"><ele>768.0</ele><time>2026-05-02T09:56:06.136Z</time></trkpt><trkpt lat="42.1986482" lon="13.7827987"><ele>769.6666666666667</ele><time>2026-05-02T09:56:07.135Z</time></trkpt><trkpt lat="42.1984608" lon="13.7827402"><ele>771.3333333333334</ele><time>2026-05-02T09:56:08.136Z</time></trkpt><trkpt lat="42.1982668" lon="13.7827003"><ele>773.0</ele><time>2026-05-02T09:56:09.135Z</time></trkpt><trkpt lat="42.198087" lon="13.7826924"><ele>774.3333333333334</ele><time>2026-05-02T09:56:10.135Z</time></trkpt><trkpt lat="42.1978958" lon="13.7827123"><ele>775.6666666666667</ele><time>2026-05-02T09:56:11.135Z</time></trkpt><trkpt lat="42.1977245" lon="13.7827334"><ele>777.0</ele><time>2026-05-02T09:56:12.135Z</time></trkpt><trkpt lat="42.1975504" lon="13.7827391"><ele>777.0</ele><time>2026-05-02T09:56:13.136Z</time></trkpt><trkpt lat="42.1973907" lon="13.7827151"><ele>777.0</ele><time>2026-05-02T09:56:14.135Z</time></trkpt><trkpt lat="42.1972419" lon="13.78267"><ele>777.0</ele><time>2026-05-02T09:56:15.135Z</time></trkpt><trkpt lat="42.1971098" lon="13.782587"><ele>776.25</ele><time>2026-05-02T09:56:16.137Z</time></trkpt><trkpt lat="42.196994" lon="13.7824597"><ele>775.5</ele><time>2026-05-02T09:56:17.135Z</time></trkpt><trkpt lat="42.1968969" lon="13.7823134"><ele>774.75</ele><time>2026-05-02T09:56:18.135Z</time></trkpt><trkpt lat="42.1968003" lon="13.7821785"><ele>774.0</ele><time>2026-05-02T09:56:19.136Z</time></trkpt><trkpt lat="42.1966824" lon="13.7820799"><ele>774.0</ele><time>2026-05-02T09:56:20.135Z</time></trkpt><trkpt lat="42.1965281" lon="13.7820114"><ele>774.0</ele><time>2026-05-02T09:56:21.135Z</time></trkpt><trkpt lat="42.1963484" lon="13.7819648"><ele>774.0</ele><time>2026-05-02T09:56:22.135Z</time></trkpt><trkpt lat="42.1961583" lon="13.7819253"><ele>774.6666666666667</ele><time>2026-05-02T09:56:23.135Z</time></trkpt><trkpt lat="42.195954" lon="13.7818822"><ele>775.3333333333334</ele><time>2026-05-02T09:56:24.135Z</time></trkpt><trkpt lat="42.1957653" lon="13.7818418"><ele>776.0</ele><time>2026-05-02T09:56:25.135Z</time></trkpt><trkpt lat="42.1955682" lon="13.7817958"><ele>777.6666666666667</ele><time>2026-05-02T09:56:26.135Z</time></trkpt><trkpt lat="42.1953673" lon="13.7817487"><ele>779.3333333333333</ele><time>2026-05-02T09:56:27.135Z</time></trkpt><trkpt lat="42.1951638" lon="13.7817122"><ele>781.0</ele><time>2026-05-02T09:56:28.135Z</time></trkpt><trkpt lat="42.1949749" lon="13.7817099"><ele>783.0</ele><time>2026-05-02T09:56:29.137Z</time></trkpt><trkpt lat="42.194794" lon="13.7817256"><ele>785.0</ele><time>2026-05-02T09:56:30.135Z</time></trkpt><trkpt lat="42.194628" lon="13.7817333"><ele>787.0</ele><time>2026-05-02T09:56:31.135Z</time></trkpt><trkpt lat="42.1944756" lon="13.7817152"><ele>787.0</ele><time>2026-05-02T09:56:32.135Z</time></trkpt><trkpt lat="42.1943356" lon="13.7816671"><ele>787.0</ele><time>2026-05-02T09:56:33.135Z</time></trkpt><trkpt lat="42.1942124" lon="13.7815896"><ele>787.0</ele><time>2026-05-02T09:56:34.136Z</time></trkpt><trkpt lat="42.1941181" lon="13.781483"><ele>787.0</ele><time>2026-05-02T09:56:35.136Z</time></trkpt><trkpt lat="42.1940559" lon="13.7813379"><ele>787.0</ele><time>2026-05-02T09:56:36.135Z</time></trkpt><trkpt lat="42.1940151" lon="13.7811591"><ele>787.0</ele><time>2026-05-02T09:56:37.136Z</time></trkpt><trkpt lat="42.1939888" lon="13.7809562"><ele>787.0</ele><time>2026-05-02T09:56:38.135Z</time></trkpt><trkpt lat="42.1939711" lon="13.7807334"><ele>788.3333333333333</ele><time>2026-05-02T09:56:39.135Z</time></trkpt><trkpt lat="42.1939759" lon="13.7804946"><ele>789.6666666666667</ele><time>2026-05-02T09:56:40.135Z</time></trkpt><trkpt lat="42.1940049" lon="13.780243"><ele>791.0</ele><time>2026-05-02T09:56:41.136Z</time></trkpt><trkpt lat="42.1940462" lon="13.7799964"><ele>791.0</ele><time>2026-05-02T09:56:42.136Z</time></trkpt><trkpt lat="42.1940873" lon="13.7797698"><ele>791.0</ele><time>2026-05-02T09:56:43.135Z</time></trkpt><trkpt lat="42.1941295" lon="13.7795491"><ele>791.0</ele><time>2026-05-02T09:56:44.135Z</time></trkpt><trkpt lat="42.1941626" lon="13.7793123"><ele>792.6666666666667</ele><time>2026-05-02T09:56:45.135Z</time></trkpt><trkpt lat="42.1941639" lon="13.7790632"><ele>794.3333333333333</ele><time>2026-05-02T09:56:46.135Z</time></trkpt><trkpt lat="42.1941414" lon="13.7788066"><ele>796.0</ele><time>2026-05-02T09:56:47.135Z</time></trkpt><trkpt lat="42.1941206" lon="13.7785694"><ele>799.0</ele><time>2026-05-02T09:56:48.137Z</time></trkpt><trkpt lat="42.1941173" lon="13.7783293"><ele>802.0</ele><time>2026-05-02T09:56:49.136Z</time></trkpt><trkpt lat="42.1941306" lon="13.7780792"><ele>805.0</ele><time>2026-05-02T09:56:50.136Z</time></trkpt><trkpt lat="42.194155" lon="13.7778474"><ele>808.3333333333333</ele><time>2026-05-02T09:56:51.136Z</time></trkpt><trkpt lat="42.1941873" lon="13.7775978"><ele>811.6666666666667</ele><time>2026-05-02T09:56:52.136Z</time></trkpt><trkpt lat="42.1942317" lon="13.7773444"><ele>815.0</ele><time>2026-05-02T09:56:53.135Z</time></trkpt><trkpt lat="42.1942824" lon="13.7771222"><ele>815.0</ele><time>2026-05-02T09:56:54.135Z</time></trkpt><trkpt lat="42.1943541" lon="13.7768919"><ele>815.0</ele><time>2026-05-02T09:56:55.137Z</time></trkpt><trkpt lat="42.1944419" lon="13.7766583"><ele>815.0</ele><time>2026-05-02T09:56:56.135Z</time></trkpt><trkpt lat="42.1945365" lon="13.7764488"><ele>817.6666666666667</ele><time>2026-05-02T09:56:57.135Z</time></trkpt><trkpt lat="42.1946263" lon="13.7762437"><ele>820.3333333333333</ele><time>2026-05-02T09:56:58.136Z</time></trkpt><trkpt lat="42.1947012" lon="13.7760275"><ele>823.0</ele><time>2026-05-02T09:56:59.135Z</time></trkpt><trkpt lat="42.1947687" lon="13.7758278"><ele>820.3333333333333</ele><time>2026-05-02T09:57:00.136Z</time></trkpt><trkpt lat="42.1948617" lon="13.7756359"><ele>817.6666666666667</ele><time>2026-05-02T09:57:01.136Z</time></trkpt><trkpt lat="42.1949815" lon="13.7754506"><ele>815.0</ele><time>2026-05-02T09:57:02.135Z</time></trkpt><trkpt lat="42.1951157" lon="13.7752564"><ele>818.6666666666667</ele><time>2026-05-02T09:57:03.135Z</time></trkpt><trkpt lat="42.1952551" lon="13.7750398"><ele>822.3333333333333</ele><time>2026-05-02T09:57:04.137Z</time></trkpt><trkpt lat="42.1953916" lon="13.7748144"><ele>826.0</ele><time>2026-05-02T09:57:05.136Z</time></trkpt><trkpt lat="42.1955141" lon="13.7746028"><ele>826.0</ele><time>2026-05-02T09:57:06.135Z</time></trkpt><trkpt lat="42.195629" lon="13.7744063"><ele>826.0</ele><time>2026-05-02T09:57:07.135Z</time></trkpt><trkpt lat="42.1957325" lon="13.7742236"><ele>826.0</ele><time>2026-05-02T09:57:08.136Z</time></trkpt><trkpt lat="42.1958265" lon="13.7740587"><ele>826.75</ele><time>2026-05-02T09:57:09.135Z</time></trkpt><trkpt lat="42.1959104" lon="13.773904"><ele>827.5</ele><time>2026-05-02T09:57:10.136Z</time></trkpt><trkpt lat="42.1959833" lon="13.7737525"><ele>828.25</ele><time>2026-05-02T09:57:11.135Z</time></trkpt><trkpt lat="42.196027" lon="13.7735733"><ele>829.0</ele><time>2026-05-02T09:57:12.136Z</time></trkpt><trkpt lat="42.1960453" lon="13.7733629"><ele>832.6666666666666</ele><time>2026-05-02T09:57:13.136Z</time></trkpt><trkpt lat="42.1960495" lon="13.7731238"><ele>836.3333333333333</ele><time>2026-05-02T09:57:14.136Z</time></trkpt><trkpt lat="42.1960516" lon="13.7728763"><ele>840.0</ele><time>2026-05-02T09:57:15.136Z</time></trkpt><trkpt lat="42.1960646" lon="13.7726374"><ele>841.0</ele><time>2026-05-02T09:57:16.135Z</time></trkpt><trkpt lat="42.1960931" lon="13.7724184"><ele>842.0</ele><time>2026-05-02T09:57:17.136Z</time></trkpt><trkpt lat="42.196124" lon="13.7722061"><ele>843.0</ele><time>2026-05-02T09:57:18.136Z</time></trkpt><trkpt lat="42.1961378" lon="13.7719948"><ele>843.0</ele><time>2026-05-02T09:57:19.135Z</time></trkpt><trkpt lat="42.1961364" lon="13.7718065"><ele>843.0</ele><time>2026-05-02T09:57:20.135Z</time></trkpt><trkpt lat="42.1961158" lon="13.7716414"><ele>843.0</ele><time>2026-05-02T09:57:21.135Z</time></trkpt><trkpt lat="42.196056" lon="13.7715177"><ele>843.0</ele><time>2026-05-02T09:57:22.135Z</time></trkpt><trkpt lat="42.1959604" lon="13.7714395"><ele>843.0</ele><time>2026-05-02T09:57:23.135Z</time></trkpt><trkpt lat="42.1958321" lon="13.7713854"><ele>843.0</ele><time>2026-05-02T09:57:24.135Z</time></trkpt><trkpt lat="42.1956788" lon="13.7713524"><ele>843.0</ele><time>2026-05-02T09:57:25.136Z</time></trkpt><trkpt lat="42.195509" lon="13.7713586"><ele>845.75</ele><time>2026-05-02T09:57:26.135Z</time></trkpt><trkpt lat="42.1953528" lon="13.7713755"><ele>848.5</ele><time>2026-05-02T09:57:27.137Z</time></trkpt><trkpt lat="42.1952143" lon="13.771378"><ele>851.25</ele><time>2026-05-02T09:57:28.135Z</time></trkpt><trkpt lat="42.1950918" lon="13.7713429"><ele>854.0</ele><time>2026-05-02T09:57:29.137Z</time></trkpt><trkpt lat="42.1950007" lon="13.7712514"><ele>854.0</ele><time>2026-05-02T09:57:30.135Z</time></trkpt><trkpt lat="42.1949488" lon="13.7711329"><ele>854.0</ele><time>2026-05-02T09:57:31.137Z</time></trkpt><trkpt lat="42.1949218" lon="13.770977"><ele>854.0</ele><time>2026-05-02T09:57:32.137Z</time></trkpt><trkpt lat="42.1948975" lon="13.7707883"><ele>854.0</ele><time>2026-05-02T09:57:33.136Z</time></trkpt><trkpt lat="42.1948533" lon="13.7705735"><ele>856.3333333333334</ele><time>2026-05-02T09:57:34.136Z</time></trkpt><trkpt lat="42.1947844" lon="13.7703526"><ele>858.6666666666667</ele><time>2026-05-02T09:57:35.136Z</time></trkpt><trkpt lat="42.1947033" lon="13.7701596"><ele>861.0</ele><time>2026-05-02T09:57:36.135Z</time></trkpt><trkpt lat="42.1946268" lon="13.7699751"><ele>861.0</ele><time>2026-05-02T09:57:37.136Z</time></trkpt><trkpt lat="42.1945575" lon="13.769817"><ele>861.0</ele><time>2026-05-02T09:57:38.136Z</time></trkpt><trkpt lat="42.1944793" lon="13.7696963"><ele>861.0</ele><time>2026-05-02T09:57:39.135Z</time></trkpt><trkpt lat="42.1943873" lon="13.7696183"><ele>861.0</ele><time>2026-05-02T09:57:40.136Z</time></trkpt><trkpt lat="42.1942751" lon="13.7695854"><ele>861.0</ele><time>2026-05-02T09:57:41.135Z</time></trkpt><trkpt lat="42.1941431" lon="13.7695948"><ele>861.0</ele><time>2026-05-02T09:57:42.135Z</time></trkpt><trkpt lat="42.1940019" lon="13.7696224"><ele>861.0</ele><time>2026-05-02T09:57:43.136Z</time></trkpt><trkpt lat="42.193852" lon="13.7696462"><ele>861.0</ele><time>2026-05-02T09:57:44.136Z</time></trkpt><trkpt lat="42.193693" lon="13.7696471"><ele>864.3333333333333</ele><time>2026-05-02T09:57:45.136Z</time></trkpt><trkpt lat="42.1935139" lon="13.7696259"><ele>867.6666666666666</ele><time>2026-05-02T09:57:46.135Z</time></trkpt><trkpt lat="42.1933217" lon="13.7696075"><ele>871.0</ele><time>2026-05-02T09:57:47.136Z</time></trkpt><trkpt lat="42.1931137" lon="13.7695945"><ele>872.0</ele><time>2026-05-02T09:57:48.136Z</time></trkpt><trkpt lat="42.192901" lon="13.7695848"><ele>873.0</ele><time>2026-05-02T09:57:49.136Z</time></trkpt><trkpt lat="42.1927005" lon="13.7695674"><ele>874.0</ele><time>2026-05-02T09:57:50.135Z</time></trkpt><trkpt lat="42.1925008" lon="13.7695275"><ele>873.6666666666666</ele><time>2026-05-02T09:57:51.135Z</time></trkpt><trkpt lat="42.1923164" lon="13.7694727"><ele>873.3333333333333</ele><time>2026-05-02T09:57:52.135Z</time></trkpt><trkpt lat="42.1921505" lon="13.769426"><ele>873.0</ele><time>2026-05-02T09:57:53.135Z</time></trkpt><trkpt lat="42.1919753" lon="13.769402"><ele>873.0</ele><time>2026-05-02T09:57:54.136Z</time></trkpt><trkpt lat="42.191799" lon="13.769392"><ele>873.0</ele><time>2026-05-02T09:57:55.135Z</time></trkpt><trkpt lat="42.1916382" lon="13.7693891"><ele>873.0</ele><time>2026-05-02T09:57:56.135Z</time></trkpt><trkpt lat="42.1915024" lon="13.7693721"><ele>872.75</ele><time>2026-05-02T09:57:57.135Z</time></trkpt><trkpt lat="42.191385" lon="13.7693288"><ele>872.5</ele><time>2026-05-02T09:57:58.136Z</time></trkpt><trkpt lat="42.1912884" lon="13.7692478"><ele>872.25</ele><time>2026-05-02T09:57:59.135Z</time></trkpt><trkpt lat="42.1912003" lon="13.7691297"><ele>872.0</ele><time>2026-05-02T09:58:00.135Z</time></trkpt><trkpt lat="42.1911198" lon="13.7689988"><ele>872.0</ele><time>2026-05-02T09:58:01.136Z</time></trkpt><trkpt lat="42.1910494" lon="13.7688891"><ele>872.0</ele><time>2026-05-02T09:58:02.137Z</time></trkpt><trkpt lat="42.1909841" lon="13.7687944"><ele>872.0</ele><time>2026-05-02T09:58:03.135Z</time></trkpt><trkpt lat="42.1909251" lon="13.7687284"><ele>872.0</ele><time>2026-05-02T09:58:04.136Z</time></trkpt><trkpt lat="42.1908819" lon="13.7686401"><ele>872.0</ele><time>2026-05-02T09:58:06.135Z</time></trkpt><trkpt lat="42.1909517" lon="13.7685425"><ele>872.1666666666667</ele><time>2026-05-02T09:58:09.136Z</time></trkpt><trkpt lat="42.1910174" lon="13.7685152"><ele>872.3333333333334</ele><time>2026-05-02T09:58:10.136Z</time></trkpt><trkpt lat="42.1910836" lon="13.768462"><ele>872.5</ele><time>2026-05-02T09:58:11.135Z</time></trkpt><trkpt lat="42.1911442" lon="13.7683838"><ele>872.6666666666667</ele><time>2026-05-02T09:58:12.135Z</time></trkpt><trkpt lat="42.1912069" lon="13.7682909"><ele>872.8333333333334</ele><time>2026-05-02T09:58:13.135Z</time></trkpt><trkpt lat="42.1912788" lon="13.7681637"><ele>873.0</ele><time>2026-05-02T09:58:14.135Z</time></trkpt><trkpt lat="42.1913635" lon="13.7680283"><ele>873.0</ele><time>2026-05-02T09:58:15.135Z</time></trkpt><trkpt lat="42.1914416" lon="13.7679119"><ele>873.0</ele><time>2026-05-02T09:58:16.135Z</time></trkpt><trkpt lat="42.1915128" lon="13.7678164"><ele>873.0</ele><time>2026-05-02T09:58:17.136Z</time></trkpt><trkpt lat="42.1915868" lon="13.7677398"><ele>873.0</ele><time>2026-05-02T09:58:18.136Z</time></trkpt><trkpt lat="42.1916678" lon="13.767662"><ele>873.0</ele><time>2026-05-02T09:58:19.136Z</time></trkpt><trkpt lat="42.1917234" lon="13.7675984"><ele>875.5</ele><time>2026-05-02T09:58:20.135Z</time></trkpt><trkpt lat="42.1917779" lon="13.7675196"><ele>878.0</ele><time>2026-05-02T09:58:21.136Z</time></trkpt><trkpt lat="42.1918258" lon="13.7674228"><ele>880.5</ele><time>2026-05-02T09:58:22.135Z</time></trkpt><trkpt lat="42.1918708" lon="13.7673168"><ele>883.0</ele><time>2026-05-02T09:58:23.136Z</time></trkpt><trkpt lat="42.1919118" lon="13.7671961"><ele>885.5</ele><time>2026-05-02T09:58:24.135Z</time></trkpt><trkpt lat="42.1919479" lon="13.7670946"><ele>888.0</ele><time>2026-05-02T09:58:25.135Z</time></trkpt><trkpt lat="42.1919851" lon="13.7669828"><ele>888.0</ele><time>2026-05-02T09:58:26.135Z</time></trkpt><trkpt lat="42.1920272" lon="13.7668707"><ele>888.0</ele><time>2026-05-02T09:58:27.135Z</time></trkpt><trkpt lat="42.192073" lon="13.7667544"><ele>888.0</ele><time>2026-05-02T09:58:28.135Z</time></trkpt><trkpt lat="42.192124" lon="13.7666304"><ele>888.0</ele><time>2026-05-02T09:58:29.135Z</time></trkpt><trkpt lat="42.1921769" lon="13.7665314"><ele>888.0</ele><time>2026-05-02T09:58:30.135Z</time></trkpt><trkpt lat="42.1922338" lon="13.7664327"><ele>889.2</ele><time>2026-05-02T09:58:31.135Z</time></trkpt><trkpt lat="42.1922888" lon="13.7663363"><ele>890.4</ele><time>2026-05-02T09:58:32.135Z</time></trkpt><trkpt lat="42.1923458" lon="13.7662308"><ele>891.6000000000001</ele><time>2026-05-02T09:58:33.137Z</time></trkpt><trkpt lat="42.1924083" lon="13.7661232"><ele>892.8000000000001</ele><time>2026-05-02T09:58:34.135Z</time></trkpt><trkpt lat="42.1924807" lon="13.7660021"><ele>894.0</ele><time>2026-05-02T09:58:35.135Z</time></trkpt><trkpt lat="42.192561" lon="13.765868"><ele>897.0</ele><time>2026-05-02T09:58:36.135Z</time></trkpt><trkpt lat="42.192657" lon="13.7657367"><ele>900.0</ele><time>2026-05-02T09:58:37.135Z</time></trkpt><trkpt lat="42.1927641" lon="13.7656024"><ele>903.0</ele><time>2026-05-02T09:58:38.135Z</time></trkpt><trkpt lat="42.1928637" lon="13.7654579"><ele>906.0</ele><time>2026-05-02T09:58:39.135Z</time></trkpt><trkpt lat="42.1929664" lon="13.7653215"><ele>906.75</ele><time>2026-05-02T09:58:40.135Z</time></trkpt><trkpt lat="42.1930662" lon="13.7651909"><ele>907.5</ele><time>2026-05-02T09:58:41.135Z</time></trkpt><trkpt lat="42.1931548" lon="13.765073"><ele>908.25</ele><time>2026-05-02T09:58:42.135Z</time></trkpt><trkpt lat="42.1932421" lon="13.7649405"><ele>909.0</ele><time>2026-05-02T09:58:43.136Z</time></trkpt><trkpt lat="42.1933301" lon="13.764808"><ele>909.0</ele><time>2026-05-02T09:58:44.136Z</time></trkpt><trkpt lat="42.1934251" lon="13.7646889"><ele>909.0</ele><time>2026-05-02T09:58:45.135Z</time></trkpt><trkpt lat="42.1935234" lon="13.7645825"><ele>909.0</ele><time>2026-05-02T09:58:46.136Z</time></trkpt><trkpt lat="42.1936165" lon="13.7645021"><ele>909.0</ele><time>2026-05-02T09:58:47.136Z</time></trkpt><trkpt lat="42.1937111" lon="13.7644438"><ele>909.0</ele><time>2026-05-02T09:58:48.136Z</time></trkpt><trkpt lat="42.1938103" lon="13.7643951"><ele>909.0000000000001</ele><time>2026-05-02T09:58:49.135Z</time></trkpt><trkpt lat="42.1939008" lon="13.7643318"><ele>909.0000000000001</ele><time>2026-05-02T09:58:50.135Z</time></trkpt><trkpt lat="42.1939802" lon="13.7642459"><ele>909.0</ele><time>2026-05-02T09:58:51.135Z</time></trkpt><trkpt lat="42.1940458" lon="13.7641315"><ele>909.0</ele><time>2026-05-02T09:58:52.135Z</time></trkpt><trkpt lat="42.1941127" lon="13.7639959"><ele>910.0</ele><time>2026-05-02T09:58:53.135Z</time></trkpt><trkpt lat="42.1941746" lon="13.7638415"><ele>911.0</ele><time>2026-05-02T09:58:54.135Z</time></trkpt><trkpt lat="42.1942296" lon="13.7637065"><ele>912.0</ele><time>2026-05-02T09:58:55.135Z</time></trkpt><trkpt lat="42.1942873" lon="13.7635731"><ele>913.0</ele><time>2026-05-02T09:58:56.135Z</time></trkpt><trkpt lat="42.1943551" lon="13.7634611"><ele>916.0</ele><time>2026-05-02T09:58:57.135Z</time></trkpt><trkpt lat="42.1944375" lon="13.7633486"><ele>919.0</ele><time>2026-05-02T09:58:58.135Z</time></trkpt><trkpt lat="42.1945261" lon="13.7632188"><ele>922.0</ele><time>2026-05-02T09:58:59.136Z</time></trkpt><trkpt lat="42.194608" lon="13.7630924"><ele>925.0</ele><time>2026-05-02T09:59:00.136Z</time></trkpt><trkpt lat="42.1946886" lon="13.7629857"><ele>925.0</ele><time>2026-05-02T09:59:01.136Z</time></trkpt><trkpt lat="42.1947688" lon="13.7628995"><ele>925.0</ele><time>2026-05-02T09:59:02.135Z</time></trkpt><trkpt lat="42.194862" lon="13.7628255"><ele>925.0</ele><time>2026-05-02T09:59:03.135Z</time></trkpt><trkpt lat="42.1949742" lon="13.7627588"><ele>925.0</ele><time>2026-05-02T09:59:04.136Z</time></trkpt><trkpt lat="42.1950771" lon="13.7627085"><ele>925.0</ele><time>2026-05-02T09:59:05.135Z</time></trkpt><trkpt lat="42.1951769" lon="13.7626658"><ele>924.4</ele><time>2026-05-02T09:59:06.137Z</time></trkpt><trkpt lat="42.1952674" lon="13.7626196"><ele>923.8</ele><time>2026-05-02T09:59:07.136Z</time></trkpt><trkpt lat="42.1953476" lon="13.7625649"><ele>923.2</ele><time>2026-05-02T09:59:08.136Z</time></trkpt><trkpt lat="42.1954162" lon="13.7625002"><ele>922.6</ele><time>2026-05-02T09:59:09.135Z</time></trkpt><trkpt lat="42.1954872" lon="13.7624143"><ele>922.0</ele><time>2026-05-02T09:59:10.136Z</time></trkpt><trkpt lat="42.195569" lon="13.7622943"><ele>922.0</ele><time>2026-05-02T09:59:11.135Z</time></trkpt><trkpt lat="42.1956479" lon="13.7621638"><ele>922.0</ele><time>2026-05-02T09:59:12.135Z</time></trkpt><trkpt lat="42.1957132" lon="13.7620446"><ele>922.0</ele><time>2026-05-02T09:59:13.136Z</time></trkpt><trkpt lat="42.1957728" lon="13.7619227"><ele>922.0</ele><time>2026-05-02T09:59:14.135Z</time></trkpt><trkpt lat="42.1958276" lon="13.7618061"><ele>922.0</ele><time>2026-05-02T09:59:15.136Z</time></trkpt><trkpt lat="42.1958778" lon="13.7616858"><ele>922.0</ele><time>2026-05-02T09:59:16.135Z</time></trkpt><trkpt lat="42.1959292" lon="13.7615727"><ele>922.0</ele><time>2026-05-02T09:59:17.137Z</time></trkpt><trkpt lat="42.1959908" lon="13.7614646"><ele>922.0</ele><time>2026-05-02T09:59:18.135Z</time></trkpt><trkpt lat="42.1960486" lon="13.7613718"><ele>922.0</ele><time>2026-05-02T09:59:19.136Z</time></trkpt><trkpt lat="42.1961049" lon="13.7612846"><ele>922.0</ele><time>2026-05-02T09:59:20.135Z</time></trkpt><trkpt lat="42.196164" lon="13.7611931"><ele>922.0</ele><time>2026-05-02T09:59:21.135Z</time></trkpt><trkpt lat="42.1962369" lon="13.7610729"><ele>922.0</ele><time>2026-05-02T09:59:22.136Z</time></trkpt><trkpt lat="42.1963212" lon="13.7609293"><ele>922.0</ele><time>2026-05-02T09:59:23.136Z</time></trkpt><trkpt lat="42.1963899" lon="13.7607964"><ele>922.0</ele><time>2026-05-02T09:59:24.135Z</time></trkpt><trkpt lat="42.1964513" lon="13.7606757"><ele>922.0</ele><time>2026-05-02T09:59:25.135Z</time></trkpt><trkpt lat="42.1965098" lon="13.7605608"><ele>922.0</ele><time>2026-05-02T09:59:26.136Z</time></trkpt><trkpt lat="42.1965686" lon="13.7604552"><ele>922.0</ele><time>2026-05-02T09:59:27.135Z</time></trkpt><trkpt lat="42.1966217" lon="13.7603464"><ele>922.0</ele><time>2026-05-02T09:59:28.135Z</time></trkpt><trkpt lat="42.1966792" lon="13.7602331"><ele>922.0</ele><time>2026-05-02T09:59:29.137Z</time></trkpt><trkpt lat="42.1967302" lon="13.7601059"><ele>923.8</ele><time>2026-05-02T09:59:30.136Z</time></trkpt><trkpt lat="42.1967833" lon="13.759983"><ele>925.6</ele><time>2026-05-02T09:59:31.135Z</time></trkpt><trkpt lat="42.1968385" lon="13.759876"><ele>927.3999999999999</ele><time>2026-05-02T09:59:32.135Z</time></trkpt><trkpt lat="42.1968827" lon="13.7597735"><ele>929.1999999999999</ele><time>2026-05-02T09:59:33.136Z</time></trkpt><trkpt lat="42.196916" lon="13.7596599"><ele>931.0</ele><time>2026-05-02T09:59:34.136Z</time></trkpt><trkpt lat="42.1969348" lon="13.7595257"><ele>931.0</ele><time>2026-05-02T09:59:35.136Z</time></trkpt><trkpt lat="42.1969423" lon="13.7593705"><ele>931.0</ele><time>2026-05-02T09:59:36.136Z</time></trkpt><trkpt lat="42.1969358" lon="13.759206"><ele>931.0</ele><time>2026-05-02T09:59:37.135Z</time></trkpt><trkpt lat="42.1969191" lon="13.7590605"><ele>931.0</ele><time>2026-05-02T09:59:38.137Z</time></trkpt><trkpt lat="42.1968964" lon="13.7589209"><ele>932.0</ele><time>2026-05-02T09:59:39.135Z</time></trkpt><trkpt lat="42.1968653" lon="13.7587695"><ele>932.9999999999999</ele><time>2026-05-02T09:59:40.136Z</time></trkpt><trkpt lat="42.1968387" lon="13.7586224"><ele>933.9999999999999</ele><time>2026-05-02T09:59:41.136Z</time></trkpt><trkpt lat="42.1968336" lon="13.7584941"><ele>935.0</ele><time>2026-05-02T09:59:42.137Z</time></trkpt><trkpt lat="42.1968546" lon="13.7583814"><ele>936.0</ele><time>2026-05-02T09:59:43.135Z</time></trkpt><trkpt lat="42.1968872" lon="13.7582734"><ele>936.3333333333334</ele><time>2026-05-02T09:59:44.135Z</time></trkpt><trkpt lat="42.1969159" lon="13.758179"><ele>936.6666666666667</ele><time>2026-05-02T09:59:45.136Z</time></trkpt><trkpt lat="42.1969528" lon="13.7580797"><ele>937.0</ele><time>2026-05-02T09:59:47.136Z</time></trkpt><trkpt lat="42.1969985" lon="13.7579981"><ele>937.3333333333334</ele><time>2026-05-02T09:59:49.135Z</time></trkpt><trkpt lat="42.1970318" lon="13.7579245"><ele>937.6666666666667</ele><time>2026-05-02T09:59:50.136Z</time></trkpt><trkpt lat="42.1970804" lon="13.7578267"><ele>938.0</ele><time>2026-05-02T09:59:51.135Z</time></trkpt><trkpt lat="42.1971446" lon="13.7577125"><ele>939.5999999999999</ele><time>2026-05-02T09:59:52.136Z</time></trkpt><trkpt lat="42.1972092" lon="13.7575826"><ele>941.1999999999999</ele><time>2026-05-02T09:59:53.136Z</time></trkpt><trkpt lat="42.1972503" lon="13.7574567"><ele>942.8</ele><time>2026-05-02T09:59:54.136Z</time></trkpt><trkpt lat="42.1972641" lon="13.7573467"><ele>944.4</ele><time>2026-05-02T09:59:55.136Z</time></trkpt><trkpt lat="42.197254" lon="13.7572305"><ele>946.0</ele><time>2026-05-02T09:59:56.136Z</time></trkpt><trkpt lat="42.1972322" lon="13.7570981"><ele>946.0</ele><time>2026-05-02T09:59:57.136Z</time></trkpt><trkpt lat="42.1972088" lon="13.7569777"><ele>945.9999999999999</ele><time>2026-05-02T09:59:58.136Z</time></trkpt><trkpt lat="42.1971863" lon="13.7568878"><ele>945.9999999999999</ele><time>2026-05-02T09:59:59.135Z</time></trkpt><trkpt lat="42.197157" lon="13.756745"><ele>946.0</ele><time>2026-05-02T10:00:01.136Z</time></trkpt><trkpt lat="42.1971506" lon="13.7565624"><ele>946.0</ele><time>2026-05-02T10:00:03.135Z</time></trkpt><trkpt lat="42.197152" lon="13.7564344"><ele>946.8571428571429</ele><time>2026-05-02T10:00:04.135Z</time></trkpt><trkpt lat="42.1971587" lon="13.7563144"><ele>947.7142857142857</ele><time>2026-05-02T10:00:05.136Z</time></trkpt><trkpt lat="42.1971599" lon="13.7562164"><ele>948.5714285714286</ele><time>2026-05-02T10:00:06.136Z</time></trkpt><trkpt lat="42.197158" lon="13.7561236"><ele>949.4285714285714</ele><time>2026-05-02T10:00:07.136Z</time></trkpt><trkpt lat="42.1971641" lon="13.7560265"><ele>950.2857142857142</ele><time>2026-05-02T10:00:08.135Z</time></trkpt><trkpt lat="42.1971661" lon="13.755937"><ele>951.1428571428571</ele><time>2026-05-02T10:00:09.135Z</time></trkpt><trkpt lat="42.1971523" lon="13.7558486"><ele>952.0</ele><time>2026-05-02T10:00:10.135Z</time></trkpt><trkpt lat="42.1971343" lon="13.7557438"><ele>953.4999999999999</ele><time>2026-05-02T10:00:11.136Z</time></trkpt><trkpt lat="42.1971196" lon="13.755632"><ele>955.0</ele><time>2026-05-02T10:00:12.136Z</time></trkpt><trkpt lat="42.1971081" lon="13.7555356"><ele>956.5</ele><time>2026-05-02T10:00:13.135Z</time></trkpt><trkpt lat="42.1970968" lon="13.7554448"><ele>958.0</ele><time>2026-05-02T10:00:14.136Z</time></trkpt><trkpt lat="42.1970829" lon="13.7553552"><ele>959.4999999999999</ele><time>2026-05-02T10:00:15.136Z</time></trkpt><trkpt lat="42.1970477" lon="13.7551882"><ele>961.0</ele><time>2026-05-02T10:00:17.137Z</time></trkpt><trkpt lat="42.1970264" lon="13.7550935"><ele>962.6666666666666</ele><time>2026-05-02T10:00:18.135Z</time></trkpt><trkpt lat="42.1970061" lon="13.755006"><ele>964.3333333333333</ele><time>2026-05-02T10:00:19.135Z</time></trkpt><trkpt lat="42.1969611" lon="13.7548414"><ele>966.0</ele><time>2026-05-02T10:00:21.137Z</time></trkpt><trkpt lat="42.1969356" lon="13.7547424"><ele>967.6666666666667</ele><time>2026-05-02T10:00:22.136Z</time></trkpt><trkpt lat="42.1969149" lon="13.7546332"><ele>969.3333333333334</ele><time>2026-05-02T10:00:23.136Z</time></trkpt><trkpt lat="42.1969019" lon="13.7545214"><ele>971.0</ele><time>2026-05-02T10:00:24.135Z</time></trkpt><trkpt lat="42.1968971" lon="13.7544206"><ele>972.8333333333334</ele><time>2026-05-02T10:00:25.135Z</time></trkpt><trkpt lat="42.1968829" lon="13.7543258"><ele>974.6666666666667</ele><time>2026-05-02T10:00:26.135Z</time></trkpt><trkpt lat="42.1968542" lon="13.7542236"><ele>976.5</ele><time>2026-05-02T10:00:27.135Z</time></trkpt><trkpt lat="42.1968169" lon="13.7541175"><ele>978.3333333333333</ele><time>2026-05-02T10:00:28.136Z</time></trkpt><trkpt lat="42.1967681" lon="13.7540192"><ele>980.1666666666666</ele><time>2026-05-02T10:00:29.136Z</time></trkpt><trkpt lat="42.196725" lon="13.7539506"><ele>982.0</ele><time>2026-05-02T10:00:30.136Z</time></trkpt><trkpt lat="42.1966388" lon="13.7539037"><ele>982.0</ele><time>2026-05-02T10:00:33.135Z</time></trkpt><trkpt lat="42.1965521" lon="13.7537583"><ele>982.0</ele><time>2026-05-02T10:00:35.137Z</time></trkpt><trkpt lat="42.1965183" lon="13.7536642"><ele>982.0</ele><time>2026-05-02T10:00:36.136Z</time></trkpt><trkpt lat="42.1965103" lon="13.7535685"><ele>982.0</ele><time>2026-05-02T10:00:37.135Z</time></trkpt><trkpt lat="42.1965252" lon="13.7534643"><ele>982.0</ele><time>2026-05-02T10:00:38.135Z</time></trkpt><trkpt lat="42.1965606" lon="13.7533408"><ele>983.8333333333333</ele><time>2026-05-02T10:00:39.135Z</time></trkpt><trkpt lat="42.196609" lon="13.7532167"><ele>985.6666666666666</ele><time>2026-05-02T10:00:40.135Z</time></trkpt><trkpt lat="42.1966604" lon="13.7531339"><ele>987.5</ele><time>2026-05-02T10:00:41.135Z</time></trkpt><trkpt lat="42.1967272" lon="13.7530828"><ele>989.3333333333333</ele><time>2026-05-02T10:00:42.136Z</time></trkpt><trkpt lat="42.1968136" lon="13.753045"><ele>991.1666666666666</ele><time>2026-05-02T10:00:43.137Z</time></trkpt><trkpt lat="42.1969031" lon="13.7530162"><ele>993.0</ele><time>2026-05-02T10:00:44.136Z</time></trkpt><trkpt lat="42.1969811" lon="13.752977"><ele>993.0</ele><time>2026-05-02T10:00:45.136Z</time></trkpt><trkpt lat="42.1970579" lon="13.7529026"><ele>993.0</ele><time>2026-05-02T10:00:46.136Z</time></trkpt><trkpt lat="42.1971406" lon="13.7527912"><ele>993.0</ele><time>2026-05-02T10:00:47.136Z</time></trkpt><trkpt lat="42.197223" lon="13.7526502"><ele>993.0</ele><time>2026-05-02T10:00:48.135Z</time></trkpt><trkpt lat="42.1973021" lon="13.75248"><ele>994.5</ele><time>2026-05-02T10:00:49.135Z</time></trkpt><trkpt lat="42.1973723" lon="13.7523019"><ele>996.0</ele><time>2026-05-02T10:00:50.135Z</time></trkpt><trkpt lat="42.197426" lon="13.7521472"><ele>997.5</ele><time>2026-05-02T10:00:51.135Z</time></trkpt><trkpt lat="42.197473" lon="13.7520183"><ele>999.0</ele><time>2026-05-02T10:00:52.135Z</time></trkpt><trkpt lat="42.1975288" lon="13.7519051"><ele>1002.0</ele><time>2026-05-02T10:00:53.135Z</time></trkpt><trkpt lat="42.1976101" lon="13.7517864"><ele>1005.0</ele><time>2026-05-02T10:00:54.136Z</time></trkpt><trkpt lat="42.1977115" lon="13.7516501"><ele>1008.0</ele><time>2026-05-02T10:00:55.135Z</time></trkpt><trkpt lat="42.197829" lon="13.7515042"><ele>1011.0</ele><time>2026-05-02T10:00:56.136Z</time></trkpt><trkpt lat="42.1979402" lon="13.7513719"><ele>1011.0</ele><time>2026-05-02T10:00:57.137Z</time></trkpt><trkpt lat="42.1980375" lon="13.7512467"><ele>1011.0</ele><time>2026-05-02T10:00:58.137Z</time></trkpt><trkpt lat="42.1981304" lon="13.7511046"><ele>1011.0</ele><time>2026-05-02T10:00:59.135Z</time></trkpt><trkpt lat="42.1982206" lon="13.7509769"><ele>1011.0</ele><time>2026-05-02T10:01:00.136Z</time></trkpt><trkpt lat="42.1982977" lon="13.7508651"><ele>1013.5</ele><time>2026-05-02T10:01:01.135Z</time></trkpt><trkpt lat="42.1983684" lon="13.7507511"><ele>1016.0</ele><time>2026-05-02T10:01:02.136Z</time></trkpt><trkpt lat="42.1984505" lon="13.7506323"><ele>1018.5</ele><time>2026-05-02T10:01:03.136Z</time></trkpt><trkpt lat="42.1985432" lon="13.7505005"><ele>1021.0</ele><time>2026-05-02T10:01:04.135Z</time></trkpt><trkpt lat="42.198625" lon="13.7503829"><ele>1021.0</ele><time>2026-05-02T10:01:05.136Z</time></trkpt><trkpt lat="42.1986832" lon="13.7502858"><ele>1020.9999999999999</ele><time>2026-05-02T10:01:06.136Z</time></trkpt><trkpt lat="42.1987282" lon="13.7502021"><ele>1020.9999999999999</ele><time>2026-05-02T10:01:07.135Z</time></trkpt><trkpt lat="42.1987562" lon="13.7500284"><ele>1021.0</ele><time>2026-05-02T10:01:09.136Z</time></trkpt><trkpt lat="42.1987565" lon="13.7499057"><ele>1021.0</ele><time>2026-05-02T10:01:10.135Z</time></trkpt><trkpt lat="42.1987494" lon="13.7497821"><ele>1022.8333333333333</ele><time>2026-05-02T10:01:11.135Z</time></trkpt><trkpt lat="42.1987518" lon="13.7496788"><ele>1024.6666666666665</ele><time>2026-05-02T10:01:12.136Z</time></trkpt><trkpt lat="42.1987581" lon="13.7495896"><ele>1026.5</ele><time>2026-05-02T10:01:13.136Z</time></trkpt><trkpt lat="42.1987349" lon="13.749449"><ele>1028.3333333333333</ele><time>2026-05-02T10:01:15.136Z</time></trkpt><trkpt lat="42.198717" lon="13.7493608"><ele>1030.1666666666667</ele><time>2026-05-02T10:01:16.135Z</time></trkpt><trkpt lat="42.1987067" lon="13.7492632"><ele>1032.0</ele><time>2026-05-02T10:01:17.135Z</time></trkpt><trkpt lat="42.1987047" lon="13.7491475"><ele>1005.0</ele><time>2026-05-02T10:01:18.136Z</time></trkpt><trkpt lat="42.197223" lon="13.7526502"><ele>1005.0</ele><time>2026-05-02T10:00:48.135Z</time></trkpt><trkpt lat="42.1973021" lon="13.75248"><ele>1005.0</ele><time>2026-05-02T10:00:49.135Z</time></trkpt><trkpt lat="42.1973723" lon="13.7523019"><ele>1005.0</ele><time>2026-05-02T10:00:50.135Z</time></trkpt><trkpt lat="42.197426" lon="13.7521472"><ele>1005.0</ele><time>2026-05-02T10:00:51.135Z</time></trkpt><trkpt lat="42.197473" lon="13.7520183"><ele>1003.5</ele><time>2026-05-02T10:00:52.135Z</time></trkpt><trkpt lat="42.1975288" lon="13.7519051"><ele>1002.0</ele><time>2026-05-02T10:00:53.135Z</time></trkpt><trkpt lat="42.1976101" lon="13.7517864"><ele>1000.5</ele><time>2026-05-02T10:00:54.136Z</time></trkpt><trkpt lat="42.1977115" lon="13.7516501"><ele>999.0</ele><time>2026-05-02T10:00:55.135Z</time></trkpt><trkpt lat="42.197829" lon="13.7515042"><ele>1002.0</ele><time>2026-05-02T10:00:56.136Z</time></trkpt><trkpt lat="42.1979402" lon="13.7513719"><ele>1005.0</ele><time>2026-05-02T10:00:57.137Z</time></trkpt><trkpt lat="42.1980375" lon="13.7512467"><ele>1008.0</ele><time>2026-05-02T10:00:58.137Z</time></trkpt><trkpt lat="42.1981304" lon="13.7511046"><ele>1011.0</ele><time>2026-05-02T10:00:59.135Z</time></trkpt><trkpt lat="42.1982206" lon="13.7509769"><ele>1013.5</ele><time>2026-05-02T10:01:00.136Z</time></trkpt><trkpt lat="42.1982977" lon="13.7508651"><ele>1016.0</ele><time>2026-05-02T10:01:01.135Z</time></trkpt><trkpt lat="42.1983684" lon="13.7507511"><ele>1018.5</ele><time>2026-05-02T10:01:02.136Z</time></trkpt><trkpt lat="42.1984505" lon="13.7506323"><ele>1021.0</ele><time>2026-05-02T10:01:03.136Z</time></trkpt><trkpt lat="42.1985432" lon="13.7505005"><ele>1021.0</ele><time>2026-05-02T10:01:04.135Z</time></trkpt><trkpt lat="42.198625" lon="13.7503829"><ele>1020.9999999999999</ele><time>2026-05-02T10:01:05.136Z</time></trkpt><trkpt lat="42.1986832" lon="13.7502858"><ele>1020.9999999999999</ele><time>2026-05-02T10:01:06.136Z</time></trkpt><trkpt lat="42.1987282" lon="13.7502021"><ele>1021.0</ele><time>2026-05-02T10:01:07.135Z</time></trkpt><trkpt lat="42.1987562" lon="13.7500284"><ele>1021.0</ele><time>2026-05-02T10:01:09.136Z</time></trkpt><trkpt lat="42.1987565" lon="13.7499057"><ele>1022.8333333333333</ele><time>2026-05-02T10:01:10.135Z</time></trkpt><trkpt lat="42.1987494" lon="13.7497821"><ele>1024.6666666666665</ele><time>2026-05-02T10:01:11.135Z</time></trkpt><trkpt lat="42.1987518" lon="13.7496788"><ele>1026.5</ele><time>2026-05-02T10:01:12.136Z</time></trkpt><trkpt lat="42.1987581" lon="13.7495896"><ele>1028.3333333333333</ele><time>2026-05-02T10:01:13.136Z</time></trkpt><trkpt lat="42.1987349" lon="13.749449"><ele>1030.1666666666667</ele><time>2026-05-02T10:01:15.136Z</time></trkpt><trkpt lat="42.198717" lon="13.7493608"><ele>1032.0</ele><time>2026-05-02T10:01:16.135Z</time></trkpt><trkpt lat="42.1987067" lon="13.7492632"><ele>1032.8333333333333</ele><time>2026-05-02T10:01:17.135Z</time></trkpt><trkpt lat="42.1987047" lon="13.7491475"><ele>1033.6666666666667</ele><time>2026-05-02T10:01:18.136Z</time></trkpt><trkpt lat="42.1987035" lon="13.7490181"><ele>1034.5</ele><time>2026-05-02T10:01:19.135Z</time></trkpt><trkpt lat="42.1986876" lon="13.7489001"><ele>1035.3333333333335</ele><time>2026-05-02T10:01:20.135Z</time></trkpt><trkpt lat="42.198663" lon="13.7487959"><ele>1036.1666666666667</ele><time>2026-05-02T10:01:21.137Z</time></trkpt><trkpt lat="42.198645" lon="13.7486987"><ele>1037.0</ele><time>2026-05-02T10:01:22.135Z</time></trkpt><trkpt lat="42.1986387" lon="13.7485997"><ele>1037.5</ele><time>2026-05-02T10:01:23.136Z</time></trkpt><trkpt lat="42.1986456" lon="13.7484836"><ele>1038.0</ele><time>2026-05-02T10:01:24.136Z</time></trkpt><trkpt lat="42.198663" lon="13.7483313"><ele>1038.5</ele><time>2026-05-02T10:01:25.135Z</time></trkpt><trkpt lat="42.1986772" lon="13.7481487"><ele>1039.0</ele><time>2026-05-02T10:01:26.135Z</time></trkpt><trkpt lat="42.1986859" lon="13.747951"><ele>1039.0</ele><time>2026-05-02T10:01:27.135Z</time></trkpt><trkpt lat="42.1986867" lon="13.7477609"><ele>1039.0</ele><time>2026-05-02T10:01:28.135Z</time></trkpt><trkpt lat="42.1986833" lon="13.7475777"><ele>1039.0</ele><time>2026-05-02T10:01:29.135Z</time></trkpt><trkpt lat="42.1986825" lon="13.7474006"><ele>1039.0</ele><time>2026-05-02T10:01:30.135Z</time></trkpt><trkpt lat="42.1986852" lon="13.7472619"><ele>1040.4</ele><time>2026-05-02T10:01:31.137Z</time></trkpt><trkpt lat="42.1987011" lon="13.7471504"><ele>1041.8000000000002</ele><time>2026-05-02T10:01:32.135Z</time></trkpt><trkpt lat="42.1987366" lon="13.7470329"><ele>1043.1999999999998</ele><time>2026-05-02T10:01:33.135Z</time></trkpt><trkpt lat="42.1987863" lon="13.7468967"><ele>1044.6</ele><time>2026-05-02T10:01:34.136Z</time></trkpt><trkpt lat="42.1988183" lon="13.7467583"><ele>1046.0</ele><time>2026-05-02T10:01:35.135Z</time></trkpt><trkpt lat="42.1988255" lon="13.7465961"><ele>1047.75</ele><time>2026-05-02T10:01:36.135Z</time></trkpt><trkpt lat="42.1988321" lon="13.7464069"><ele>1049.5</ele><time>2026-05-02T10:01:37.136Z</time></trkpt><trkpt lat="42.1988411" lon="13.7462355"><ele>1051.25</ele><time>2026-05-02T10:01:38.136Z</time></trkpt><trkpt lat="42.1988567" lon="13.7461037"><ele>1053.0</ele><time>2026-05-02T10:01:39.135Z</time></trkpt><trkpt lat="42.19889" lon="13.7459771"><ele>1054.0</ele><time>2026-05-02T10:01:40.137Z</time></trkpt><trkpt lat="42.1989392" lon="13.7458166"><ele>1055.0</ele><time>2026-05-02T10:01:41.136Z</time></trkpt><trkpt lat="42.1989819" lon="13.7456523"><ele>1056.0</ele><time>2026-05-02T10:01:42.136Z</time></trkpt><trkpt lat="42.1990116" lon="13.7455181"><ele>1057.0</ele><time>2026-05-02T10:01:43.136Z</time></trkpt><trkpt lat="42.1990455" lon="13.7454055"><ele>1057.0</ele><time>2026-05-02T10:01:44.136Z</time></trkpt><trkpt lat="42.1991009" lon="13.7453059"><ele>1057.0</ele><time>2026-05-02T10:01:45.136Z</time></trkpt><trkpt lat="42.1991805" lon="13.7451989"><ele>1057.0</ele><time>2026-05-02T10:01:46.136Z</time></trkpt><trkpt lat="42.1992567" lon="13.7450829"><ele>1057.0</ele><time>2026-05-02T10:01:47.136Z</time></trkpt><trkpt lat="42.1993106" lon="13.7449683"><ele>1057.0</ele><time>2026-05-02T10:01:48.135Z</time></trkpt><trkpt lat="42.1993536" lon="13.7448558"><ele>1057.3333333333333</ele><time>2026-05-02T10:01:49.136Z</time></trkpt><trkpt lat="42.1993929" lon="13.7447445"><ele>1057.6666666666665</ele><time>2026-05-02T10:01:50.136Z</time></trkpt><trkpt lat="42.1994259" lon="13.7446375"><ele>1058.0</ele><time>2026-05-02T10:01:51.135Z</time></trkpt><trkpt lat="42.1994585" lon="13.7445474"><ele>1058.3333333333333</ele><time>2026-05-02T10:01:52.135Z</time></trkpt><trkpt lat="42.1994968" lon="13.7444705"><ele>1058.6666666666667</ele><time>2026-05-02T10:01:53.135Z</time></trkpt><trkpt lat="42.1995428" lon="13.7444071"><ele>1059.0</ele><time>2026-05-02T10:01:54.136Z</time></trkpt><trkpt lat="42.1995963" lon="13.7443486"><ele>1059.6666666666667</ele><time>2026-05-02T10:01:55.136Z</time></trkpt><trkpt lat="42.1996638" lon="13.7443079"><ele>1060.3333333333333</ele><time>2026-05-02T10:01:56.137Z</time></trkpt><trkpt lat="42.1997501" lon="13.7442714"><ele>1061.0</ele><time>2026-05-02T10:01:57.136Z</time></trkpt><trkpt lat="42.1998397" lon="13.7442189"><ele>1061.6666666666665</ele><time>2026-05-02T10:01:58.137Z</time></trkpt><trkpt lat="42.1999211" lon="13.7441653"><ele>1062.3333333333333</ele><time>2026-05-02T10:01:59.136Z</time></trkpt><trkpt lat="42.2000064" lon="13.7441232"><ele>1063.0</ele><time>2026-05-02T10:02:00.136Z</time></trkpt><trkpt lat="42.2000956" lon="13.7440823"><ele>1060.6</ele><time>2026-05-02T10:02:01.136Z</time></trkpt><trkpt lat="42.2001776" lon="13.7440278"><ele>1058.1999999999998</ele><time>2026-05-02T10:02:02.135Z</time></trkpt><trkpt lat="42.2002544" lon="13.743948"><ele>1055.8</ele><time>2026-05-02T10:02:03.135Z</time></trkpt><trkpt lat="42.2003264" lon="13.7438509"><ele>1053.3999999999999</ele><time>2026-05-02T10:02:04.135Z</time></trkpt><trkpt lat="42.2003947" lon="13.7437307"><ele>1051.0</ele><time>2026-05-02T10:02:05.135Z</time></trkpt><trkpt lat="42.2004606" lon="13.7435934"><ele>1052.25</ele><time>2026-05-02T10:02:06.135Z</time></trkpt><trkpt lat="42.2005238" lon="13.7434523"><ele>1053.5</ele><time>2026-05-02T10:02:07.135Z</time></trkpt><trkpt lat="42.2005819" lon="13.7433166"><ele>1054.75</ele><time>2026-05-02T10:02:08.135Z</time></trkpt><trkpt lat="42.2006349" lon="13.7431827"><ele>1056.0</ele><time>2026-05-02T10:02:09.136Z</time></trkpt><trkpt lat="42.2006799" lon="13.74305"><ele>1052.3999999999999</ele><time>2026-05-02T10:02:10.135Z</time></trkpt><trkpt lat="42.2007267" lon="13.74293"><ele>1048.8</ele><time>2026-05-02T10:02:11.135Z</time></trkpt><trkpt lat="42.2007835" lon="13.7428168"><ele>1045.1999999999998</ele><time>2026-05-02T10:02:12.135Z</time></trkpt><trkpt lat="42.200848" lon="13.7426993"><ele>1041.6</ele><time>2026-05-02T10:02:13.135Z</time></trkpt><trkpt lat="42.2009142" lon="13.7425918"><ele>1038.0</ele><time>2026-05-02T10:02:14.136Z</time></trkpt><trkpt lat="42.2009686" lon="13.7424932"><ele>1038.0</ele><time>2026-05-02T10:02:15.136Z</time></trkpt><trkpt lat="42.2010314" lon="13.7423886"><ele>1038.0</ele><time>2026-05-02T10:02:16.135Z</time></trkpt><trkpt lat="42.2011125" lon="13.7422891"><ele>1038.0</ele><time>2026-05-02T10:02:17.135Z</time></trkpt><trkpt lat="42.2011934" lon="13.7421935"><ele>1038.0</ele><time>2026-05-02T10:02:18.135Z</time></trkpt><trkpt lat="42.2012727" lon="13.7420939"><ele>1038.0</ele><time>2026-05-02T10:02:19.135Z</time></trkpt><trkpt lat="42.2013785" lon="13.7419694"><ele>1041.0</ele><time>2026-05-02T10:02:20.135Z</time></trkpt><trkpt lat="42.2014804" lon="13.7418612"><ele>1044.0</ele><time>2026-05-02T10:02:21.136Z</time></trkpt><trkpt lat="42.2015709" lon="13.7417535"><ele>1047.0</ele><time>2026-05-02T10:02:22.136Z</time></trkpt><trkpt lat="42.2016312" lon="13.7416233"><ele>1050.0</ele><time>2026-05-02T10:02:23.136Z</time></trkpt><trkpt lat="42.2016945" lon="13.7415148"><ele>1044.8</ele><time>2026-05-02T10:02:24.135Z</time></trkpt><trkpt lat="42.201779" lon="13.7414203"><ele>1039.6</ele><time>2026-05-02T10:02:25.136Z</time></trkpt><trkpt lat="42.2018574" lon="13.7413289"><ele>1034.4</ele><time>2026-05-02T10:02:26.136Z</time></trkpt><trkpt lat="42.2019466" lon="13.7412725"><ele>1029.2</ele><time>2026-05-02T10:02:27.136Z</time></trkpt><trkpt lat="42.2020315" lon="13.7412511"><ele>1024.0</ele><time>2026-05-02T10:02:28.136Z</time></trkpt><trkpt lat="42.2021279" lon="13.7412281"><ele>1024.0</ele><time>2026-05-02T10:02:29.135Z</time></trkpt><trkpt lat="42.2022535" lon="13.7412221"><ele>1024.0</ele><time>2026-05-02T10:02:30.135Z</time></trkpt><trkpt lat="42.2023869" lon="13.741208"><ele>1024.0</ele><time>2026-05-02T10:02:31.136Z</time></trkpt><trkpt lat="42.2025251" lon="13.7411815"><ele>1024.0</ele><time>2026-05-02T10:02:32.135Z</time></trkpt><trkpt lat="42.2026594" lon="13.7411552"><ele>1024.25</ele><time>2026-05-02T10:02:33.135Z</time></trkpt><trkpt lat="42.2027855" lon="13.7411164"><ele>1024.5</ele><time>2026-05-02T10:02:34.137Z</time></trkpt><trkpt lat="42.2029052" lon="13.7410686"><ele>1024.75</ele><time>2026-05-02T10:02:35.136Z</time></trkpt><trkpt lat="42.2030319" lon="13.7410259"><ele>1025.0</ele><time>2026-05-02T10:02:36.135Z</time></trkpt><trkpt lat="42.2031525" lon="13.7410012"><ele>1021.2</ele><time>2026-05-02T10:02:37.135Z</time></trkpt><trkpt lat="42.2032624" lon="13.7409763"><ele>1017.4</ele><time>2026-05-02T10:02:38.136Z</time></trkpt><trkpt lat="42.2033633" lon="13.7409372"><ele>1013.5999999999999</ele><time>2026-05-02T10:02:39.136Z</time></trkpt><trkpt lat="42.2034593" lon="13.7408953"><ele>1009.8</ele><time>2026-05-02T10:02:40.136Z</time></trkpt><trkpt lat="42.2035345" lon="13.7408644"><ele>1006.0</ele><time>2026-05-02T10:02:41.136Z</time></trkpt><trkpt lat="42.2036011" lon="13.7408251"><ele>1006.0</ele><time>2026-05-02T10:02:42.135Z</time></trkpt><trkpt lat="42.2036346" lon="13.7407414"><ele>1005.9999999999999</ele><time>2026-05-02T10:02:43.135Z</time></trkpt><trkpt lat="42.2036878" lon="13.7406398"><ele>1005.9999999999999</ele><time>2026-05-02T10:02:44.135Z</time></trkpt><trkpt lat="42.2037526" lon="13.7405221"><ele>1006.0</ele><time>2026-05-02T10:02:45.136Z</time></trkpt><trkpt lat="42.2038258" lon="13.7404053"><ele>1006.0</ele><time>2026-05-02T10:02:46.136Z</time></trkpt><trkpt lat="42.2038945" lon="13.7402737"><ele>1004.8</ele><time>2026-05-02T10:02:47.135Z</time></trkpt><trkpt lat="42.2039556" lon="13.7401768"><ele>1003.5999999999999</ele><time>2026-05-02T10:02:48.135Z</time></trkpt><trkpt lat="42.2040265" lon="13.7400705"><ele>1002.4</ele><time>2026-05-02T10:02:49.136Z</time></trkpt><trkpt lat="42.2041076" lon="13.739971"><ele>1001.2</ele><time>2026-05-02T10:02:50.136Z</time></trkpt><trkpt lat="42.2042368" lon="13.7399001"><ele>1000.0</ele><time>2026-05-02T10:02:51.135Z</time></trkpt><trkpt lat="42.2043389" lon="13.7398123"><ele>1000.0</ele><time>2026-05-02T10:02:52.135Z</time></trkpt><trkpt lat="42.20446" lon="13.7397341"><ele>1000.0</ele><time>2026-05-02T10:02:53.136Z</time></trkpt><trkpt lat="42.2045332" lon="13.7396793"><ele>1000.0</ele><time>2026-05-02T10:02:54.136Z</time></trkpt><trkpt lat="42.204641" lon="13.7396201"><ele>1000.0</ele><time>2026-05-02T10:02:55.136Z</time></trkpt><trkpt lat="42.2047714" lon="13.7395878"><ele>997.8</ele><time>2026-05-02T10:02:56.136Z</time></trkpt><trkpt lat="42.2048838" lon="13.7395457"><ele>995.6</ele><time>2026-05-02T10:02:57.136Z</time></trkpt><trkpt lat="42.2049844" lon="13.7394947"><ele>993.4000000000001</ele><time>2026-05-02T10:02:58.136Z</time></trkpt><trkpt lat="42.2050463" lon="13.7394108"><ele>991.2</ele><time>2026-05-02T10:02:59.135Z</time></trkpt><trkpt lat="42.2050919" lon="13.7393447"><ele>989.0</ele><time>2026-05-02T10:03:00.135Z</time></trkpt><trkpt lat="42.2051347" lon="13.7392234"><ele>989.0</ele><time>2026-05-02T10:03:01.135Z</time></trkpt><trkpt lat="42.2051874" lon="13.7391356"><ele>989.0000000000001</ele><time>2026-05-02T10:03:02.136Z</time></trkpt><trkpt lat="42.2052443" lon="13.7390466"><ele>989.0000000000001</ele><time>2026-05-02T10:03:03.135Z</time></trkpt><trkpt lat="42.205396" lon="13.7389989"><ele>989.0</ele><time>2026-05-02T10:03:05.135Z</time></trkpt><trkpt lat="42.2055043" lon="13.7389701"><ele>989.0</ele><time>2026-05-02T10:03:06.135Z</time></trkpt><trkpt lat="42.205626" lon="13.7389419"><ele>987.6</ele><time>2026-05-02T10:03:07.136Z</time></trkpt><trkpt lat="42.2057255" lon="13.7389246"><ele>986.2</ele><time>2026-05-02T10:03:08.135Z</time></trkpt><trkpt lat="42.2058251" lon="13.7388814"><ele>984.8000000000001</ele><time>2026-05-02T10:03:09.135Z</time></trkpt><trkpt lat="42.2059298" lon="13.7388272"><ele>983.4000000000001</ele><time>2026-05-02T10:03:10.136Z</time></trkpt><trkpt lat="42.206029" lon="13.7387606"><ele>982.0</ele><time>2026-05-02T10:03:11.136Z</time></trkpt><trkpt lat="42.2061202" lon="13.7387108"><ele>982.0</ele><time>2026-05-02T10:03:12.136Z</time></trkpt><trkpt lat="42.2062086" lon="13.738694"><ele>982.0</ele><time>2026-05-02T10:03:13.136Z</time></trkpt><trkpt lat="42.2063033" lon="13.7387111"><ele>982.0</ele><time>2026-05-02T10:03:14.135Z</time></trkpt><trkpt lat="42.2064154" lon="13.7387534"><ele>982.0</ele><time>2026-05-02T10:03:15.136Z</time></trkpt><trkpt lat="42.2065314" lon="13.7387953"><ele>982.0</ele><time>2026-05-02T10:03:16.136Z</time></trkpt><trkpt lat="42.2066482" lon="13.7388129"><ele>982.0</ele><time>2026-05-02T10:03:17.136Z</time></trkpt><trkpt lat="42.2067741" lon="13.7388182"><ele>982.0</ele><time>2026-05-02T10:03:18.135Z</time></trkpt><trkpt lat="42.2068827" lon="13.7388273"><ele>982.0</ele><time>2026-05-02T10:03:19.135Z</time></trkpt><trkpt lat="42.2069811" lon="13.7388297"><ele>982.0</ele><time>2026-05-02T10:03:20.136Z</time></trkpt><trkpt lat="42.2070718" lon="13.7388252"><ele>982.0</ele><time>2026-05-02T10:03:21.136Z</time></trkpt><trkpt lat="42.2071599" lon="13.7388041"><ele>982.0</ele><time>2026-05-02T10:03:22.137Z</time></trkpt><trkpt lat="42.2072551" lon="13.7387544"><ele>982.0</ele><time>2026-05-02T10:03:23.136Z</time></trkpt><trkpt lat="42.2073589" lon="13.7386794"><ele>982.0</ele><time>2026-05-02T10:03:24.135Z</time></trkpt><trkpt lat="42.2074417" lon="13.7386041"><ele>982.0</ele><time>2026-05-02T10:03:25.135Z</time></trkpt><trkpt lat="42.2075301" lon="13.7384955"><ele>982.0</ele><time>2026-05-02T10:03:26.135Z</time></trkpt><trkpt lat="42.207614" lon="13.7383651"><ele>984.2</ele><time>2026-05-02T10:03:27.135Z</time></trkpt><trkpt lat="42.2076909" lon="13.7382468"><ele>986.4000000000001</ele><time>2026-05-02T10:03:28.135Z</time></trkpt><trkpt lat="42.2077578" lon="13.7381487"><ele>988.5999999999999</ele><time>2026-05-02T10:03:29.135Z</time></trkpt><trkpt lat="42.2078298" lon="13.7380592"><ele>990.8</ele><time>2026-05-02T10:03:30.135Z</time></trkpt><trkpt lat="42.2079155" lon="13.7379766"><ele>993.0</ele><time>2026-05-02T10:03:31.136Z</time></trkpt><trkpt lat="42.2080093" lon="13.7378899"><ele>993.0</ele><time>2026-05-02T10:03:32.135Z</time></trkpt><trkpt lat="42.2081033" lon="13.7377999"><ele>993.0</ele><time>2026-05-02T10:03:33.136Z</time></trkpt><trkpt lat="42.2082227" lon="13.7377254"><ele>993.0</ele><time>2026-05-02T10:03:34.136Z</time></trkpt><trkpt lat="42.2083363" lon="13.7376561"><ele>993.0</ele><time>2026-05-02T10:03:35.136Z</time></trkpt><trkpt lat="42.2084669" lon="13.7375921"><ele>994.0</ele><time>2026-05-02T10:03:36.137Z</time></trkpt><trkpt lat="42.2085985" lon="13.7375262"><ele>995.0</ele><time>2026-05-02T10:03:37.136Z</time></trkpt><trkpt lat="42.2087274" lon="13.7374586"><ele>996.0</ele><time>2026-05-02T10:03:38.136Z</time></trkpt><trkpt lat="42.2088549" lon="13.7373951"><ele>997.0</ele><time>2026-05-02T10:03:39.135Z</time></trkpt><trkpt lat="42.2089822" lon="13.737333"><ele>993.5</ele><time>2026-05-02T10:03:40.135Z</time></trkpt><trkpt lat="42.2091035" lon="13.7372785"><ele>990.0</ele><time>2026-05-02T10:03:41.135Z</time></trkpt><trkpt lat="42.209215" lon="13.737227"><ele>986.5</ele><time>2026-05-02T10:03:42.135Z</time></trkpt><trkpt lat="42.2093275" lon="13.7371734"><ele>983.0</ele><time>2026-05-02T10:03:43.136Z</time></trkpt><trkpt lat="42.2094241" lon="13.7371193"><ele>983.0000000000001</ele><time>2026-05-02T10:03:44.135Z</time></trkpt><trkpt lat="42.2095019" lon="13.7370806"><ele>983.0</ele><time>2026-05-02T10:03:45.137Z</time></trkpt><trkpt lat="42.2095602" lon="13.7370375"><ele>983.0</ele><time>2026-05-02T10:03:46.136Z</time></trkpt><trkpt lat="42.209617" lon="13.7369709"><ele>983.0</ele><time>2026-05-02T10:03:47.135Z</time></trkpt><trkpt lat="42.2096786" lon="13.7368747"><ele>983.0000000000001</ele><time>2026-05-02T10:03:48.136Z</time></trkpt><trkpt lat="42.2097443" lon="13.7367889"><ele>983.0</ele><time>2026-05-02T10:03:49.136Z</time></trkpt><trkpt lat="42.2098344" lon="13.7367028"><ele>983.25</ele><time>2026-05-02T10:03:50.135Z</time></trkpt><trkpt lat="42.209915" lon="13.7366191"><ele>983.5</ele><time>2026-05-02T10:03:51.135Z</time></trkpt><trkpt lat="42.2100098" lon="13.736523"><ele>983.75</ele><time>2026-05-02T10:03:52.135Z</time></trkpt><trkpt lat="42.2100907" lon="13.7364242"><ele>984.0</ele><time>2026-05-02T10:03:53.135Z</time></trkpt><trkpt lat="42.2102032" lon="13.7363475"><ele>984.0</ele><time>2026-05-02T10:03:54.136Z</time></trkpt><trkpt lat="42.2102826" lon="13.736284"><ele>984.0</ele><time>2026-05-02T10:03:55.136Z</time></trkpt><trkpt lat="42.2103437" lon="13.7362333"><ele>984.0</ele><time>2026-05-02T10:03:56.135Z</time></trkpt><trkpt lat="42.2103848" lon="13.7361679"><ele>984.0</ele><time>2026-05-02T10:03:58.136Z</time></trkpt><trkpt lat="42.2103373" lon="13.736073"><ele>984.0</ele><time>2026-05-02T10:04:01.135Z</time></trkpt><trkpt lat="42.210231" lon="13.7360493"><ele>984.0</ele><time>2026-05-02T10:04:03.136Z</time></trkpt><trkpt lat="42.2101651" lon="13.736015"><ele>985.4000000000001</ele><time>2026-05-02T10:04:04.136Z</time></trkpt><trkpt lat="42.2100919" lon="13.7359576"><ele>986.8000000000001</ele><time>2026-05-02T10:04:05.136Z</time></trkpt><trkpt lat="42.2100049" lon="13.7358889"><ele>988.1999999999999</ele><time>2026-05-02T10:04:06.135Z</time></trkpt><trkpt lat="42.2099097" lon="13.7358094"><ele>989.5999999999999</ele><time>2026-05-02T10:04:07.135Z</time></trkpt><trkpt lat="42.209804" lon="13.7357139"><ele>991.0</ele><time>2026-05-02T10:04:08.135Z</time></trkpt><trkpt lat="42.2096958" lon="13.7356017"><ele>995.0</ele><time>2026-05-02T10:04:09.136Z</time></trkpt><trkpt lat="42.2095957" lon="13.7354768"><ele>999.0</ele><time>2026-05-02T10:04:10.136Z</time></trkpt><trkpt lat="42.209497" lon="13.7353409"><ele>1003.0</ele><time>2026-05-02T10:04:11.135Z</time></trkpt><trkpt lat="42.2094032" lon="13.7352252"><ele>1007.0</ele><time>2026-05-02T10:04:12.136Z</time></trkpt><trkpt lat="42.2093223" lon="13.7351496"><ele>1007.0</ele><time>2026-05-02T10:04:13.135Z</time></trkpt><trkpt lat="42.2092386" lon="13.735102"><ele>1007.0</ele><time>2026-05-02T10:04:14.136Z</time></trkpt><trkpt lat="42.2091413" lon="13.735079"><ele>1007.0</ele><time>2026-05-02T10:04:15.136Z</time></trkpt><trkpt lat="42.209033" lon="13.735065"><ele>1007.0</ele><time>2026-05-02T10:04:16.136Z</time></trkpt><trkpt lat="42.2089152" lon="13.7350612"><ele>1007.0</ele><time>2026-05-02T10:04:17.135Z</time></trkpt><trkpt lat="42.208786" lon="13.7350644"><ele>1011.75</ele><time>2026-05-02T10:04:18.136Z</time></trkpt><trkpt lat="42.2086483" lon="13.7350837"><ele>1016.5</ele><time>2026-05-02T10:04:19.137Z</time></trkpt><trkpt lat="42.2085107" lon="13.7351243"><ele>1021.25</ele><time>2026-05-02T10:04:20.136Z</time></trkpt><trkpt lat="42.208396" lon="13.7351864"><ele>1026.0</ele><time>2026-05-02T10:04:21.137Z</time></trkpt><trkpt lat="42.2083053" lon="13.7352666"><ele>1026.0</ele><time>2026-05-02T10:04:22.137Z</time></trkpt><trkpt lat="42.2082226" lon="13.7353689"><ele>1026.0</ele><time>2026-05-02T10:04:23.136Z</time></trkpt><trkpt lat="42.2081504" lon="13.7354949"><ele>1026.0</ele><time>2026-05-02T10:04:24.135Z</time></trkpt><trkpt lat="42.2080862" lon="13.7356533"><ele>1026.0</ele><time>2026-05-02T10:04:25.135Z</time></trkpt><trkpt lat="42.2080211" lon="13.7358344"><ele>1030.6666666666667</ele><time>2026-05-02T10:04:26.135Z</time></trkpt><trkpt lat="42.2079424" lon="13.7360265"><ele>1035.3333333333335</ele><time>2026-05-02T10:04:27.136Z</time></trkpt><trkpt lat="42.2078526" lon="13.7362042"><ele>1040.0</ele><time>2026-05-02T10:04:28.135Z</time></trkpt><trkpt lat="42.2077666" lon="13.7363521"><ele>1040.0</ele><time>2026-05-02T10:04:29.135Z</time></trkpt><trkpt lat="42.2076775" lon="13.7364838"><ele>1040.0</ele><time>2026-05-02T10:04:30.135Z</time></trkpt><trkpt lat="42.2075784" lon="13.7366115"><ele>1040.0</ele><time>2026-05-02T10:04:31.136Z</time></trkpt><trkpt lat="42.2074849" lon="13.7367323"><ele>1040.0</ele><time>2026-05-02T10:04:32.135Z</time></trkpt><trkpt lat="42.2073971" lon="13.7368265"><ele>1040.1666666666667</ele><time>2026-05-02T10:04:33.135Z</time></trkpt><trkpt lat="42.2073056" lon="13.7368969"><ele>1040.3333333333335</ele><time>2026-05-02T10:04:34.135Z</time></trkpt><trkpt lat="42.2072214" lon="13.7369431"><ele>1040.5</ele><time>2026-05-02T10:04:35.135Z</time></trkpt><trkpt lat="42.2071548" lon="13.736952"><ele>1040.6666666666667</ele><time>2026-05-02T10:04:36.135Z</time></trkpt><trkpt lat="42.2070474" lon="13.7368766"><ele>1040.8333333333333</ele><time>2026-05-02T10:04:38.135Z</time></trkpt><trkpt lat="42.2070134" lon="13.7368032"><ele>1041.0</ele><time>2026-05-02T10:04:39.136Z</time></trkpt><trkpt lat="42.2069903" lon="13.7366951"><ele>1041.0</ele><time>2026-05-02T10:04:40.136Z</time></trkpt><trkpt lat="42.2069622" lon="13.7365635"><ele>1041.0</ele><time>2026-05-02T10:04:41.136Z</time></trkpt><trkpt lat="42.2069259" lon="13.736412"><ele>1041.0</ele><time>2026-05-02T10:04:42.135Z</time></trkpt><trkpt lat="42.2068831" lon="13.7362371"><ele>1041.0</ele><time>2026-05-02T10:04:43.136Z</time></trkpt><trkpt lat="42.2068421" lon="13.7360679"><ele>1043.3999999999999</ele><time>2026-05-02T10:04:44.136Z</time></trkpt><trkpt lat="42.206814" lon="13.7359261"><ele>1045.8</ele><time>2026-05-02T10:04:45.136Z</time></trkpt><trkpt lat="42.2068031" lon="13.7357923"><ele>1048.1999999999998</ele><time>2026-05-02T10:04:46.135Z</time></trkpt><trkpt lat="42.2068013" lon="13.735652"><ele>1050.6</ele><time>2026-05-02T10:04:47.136Z</time></trkpt><trkpt lat="42.2067922" lon="13.7355244"><ele>1053.0</ele><time>2026-05-02T10:04:48.136Z</time></trkpt><trkpt lat="42.206765" lon="13.7354257"><ele>1053.0</ele><time>2026-05-02T10:04:49.135Z</time></trkpt><trkpt lat="42.2067175" lon="13.735328"><ele>1053.0</ele><time>2026-05-02T10:04:50.135Z</time></trkpt><trkpt lat="42.2066593" lon="13.7352127"><ele>1053.0</ele><time>2026-05-02T10:04:51.135Z</time></trkpt><trkpt lat="42.2066099" lon="13.7350839"><ele>1053.0</ele><time>2026-05-02T10:04:52.135Z</time></trkpt><trkpt lat="42.206572" lon="13.7349288"><ele>1053.0</ele><time>2026-05-02T10:04:53.135Z</time></trkpt><trkpt lat="42.2065473" lon="13.7347625"><ele>1056.0</ele><time>2026-05-02T10:04:54.136Z</time></trkpt><trkpt lat="42.2065418" lon="13.7346086"><ele>1059.0</ele><time>2026-05-02T10:04:55.136Z</time></trkpt><trkpt lat="42.2065519" lon="13.734449"><ele>1062.0</ele><time>2026-05-02T10:04:56.136Z</time></trkpt><trkpt lat="42.2065675" lon="13.7342773"><ele>1065.0</ele><time>2026-05-02T10:04:57.135Z</time></trkpt><trkpt lat="42.2065931" lon="13.7340827"><ele>1066.75</ele><time>2026-05-02T10:04:58.136Z</time></trkpt><trkpt lat="42.2066269" lon="13.733906"><ele>1068.5</ele><time>2026-05-02T10:04:59.135Z</time></trkpt><trkpt lat="42.2066492" lon="13.73376"><ele>1070.25</ele><time>2026-05-02T10:05:00.135Z</time></trkpt><trkpt lat="42.2066475" lon="13.733617"><ele>1072.0</ele><time>2026-05-02T10:05:01.135Z</time></trkpt><trkpt lat="42.2066225" lon="13.7334561"><ele>1074.0</ele><time>2026-05-02T10:05:02.136Z</time></trkpt><trkpt lat="42.2065867" lon="13.733293"><ele>1076.0</ele><time>2026-05-02T10:05:03.137Z</time></trkpt><trkpt lat="42.2065456" lon="13.7331568"><ele>1078.0</ele><time>2026-05-02T10:05:04.136Z</time></trkpt><trkpt lat="42.2064944" lon="13.7330264"><ele>1080.0</ele><time>2026-05-02T10:05:05.136Z</time></trkpt><trkpt lat="42.206428" lon="13.7328795"><ele>1081.6</ele><time>2026-05-02T10:05:06.135Z</time></trkpt><trkpt lat="42.2063568" lon="13.7327475"><ele>1083.2</ele><time>2026-05-02T10:05:07.135Z</time></trkpt><trkpt lat="42.2062818" lon="13.7326434"><ele>1084.8</ele><time>2026-05-02T10:05:08.135Z</time></trkpt><trkpt lat="42.2062115" lon="13.7325592"><ele>1086.4</ele><time>2026-05-02T10:05:09.136Z</time></trkpt><trkpt lat="42.2061457" lon="13.7324818"><ele>1088.0</ele><time>2026-05-02T10:05:10.136Z</time></trkpt><trkpt lat="42.206097" lon="13.7323909"><ele>1089.75</ele><time>2026-05-02T10:05:11.136Z</time></trkpt><trkpt lat="42.2060876" lon="13.7322301"><ele>1091.5</ele><time>2026-05-02T10:05:12.135Z</time></trkpt><trkpt lat="42.2060826" lon="13.7320518"><ele>1093.25</ele><time>2026-05-02T10:05:13.136Z</time></trkpt><trkpt lat="42.2060844" lon="13.7318603"><ele>1095.0</ele><time>2026-05-02T10:05:14.137Z</time></trkpt><trkpt lat="42.2060731" lon="13.7316726"><ele>1098.25</ele><time>2026-05-02T10:05:15.135Z</time></trkpt><trkpt lat="42.2060468" lon="13.7314897"><ele>1101.5</ele><time>2026-05-02T10:05:16.135Z</time></trkpt><trkpt lat="42.2060084" lon="13.7313283"><ele>1104.75</ele><time>2026-05-02T10:05:17.135Z</time></trkpt><trkpt lat="42.2059582" lon="13.7311837"><ele>1108.0</ele><time>2026-05-02T10:05:18.135Z</time></trkpt><trkpt lat="42.2058982" lon="13.7310428"><ele>1110.2</ele><time>2026-05-02T10:05:19.136Z</time></trkpt><trkpt lat="42.2058392" lon="13.7309088"><ele>1112.4</ele><time>2026-05-02T10:05:20.135Z</time></trkpt><trkpt lat="42.2057993" lon="13.7307931"><ele>1114.6000000000001</ele><time>2026-05-02T10:05:21.136Z</time></trkpt><trkpt lat="42.2057668" lon="13.7306815"><ele>1116.8</ele><time>2026-05-02T10:05:22.135Z</time></trkpt><trkpt lat="42.2057297" lon="13.7305449"><ele>1119.0</ele><time>2026-05-02T10:05:23.135Z</time></trkpt><trkpt lat="42.2056896" lon="13.7304125"><ele>1121.4</ele><time>2026-05-02T10:05:24.135Z</time></trkpt><trkpt lat="42.2056478" lon="13.7303019"><ele>1123.8000000000002</ele><time>2026-05-02T10:05:25.135Z</time></trkpt><trkpt lat="42.2055935" lon="13.7302033"><ele>1126.1999999999998</ele><time>2026-05-02T10:05:26.136Z</time></trkpt><trkpt lat="42.2055545" lon="13.7300719"><ele>1128.6</ele><time>2026-05-02T10:05:27.135Z</time></trkpt><trkpt lat="42.2055195" lon="13.72995"><ele>1131.0</ele><time>2026-05-02T10:05:28.135Z</time></trkpt><trkpt lat="42.205477" lon="13.7298437"><ele>1131.25</ele><time>2026-05-02T10:05:29.135Z</time></trkpt><trkpt lat="42.2054234" lon="13.7297417"><ele>1131.5</ele><time>2026-05-02T10:05:30.136Z</time></trkpt><trkpt lat="42.2053133" lon="13.7296231"><ele>1131.75</ele><time>2026-05-02T10:05:31.136Z</time></trkpt><trkpt lat="42.2052253" lon="13.7294885"><ele>1132.0</ele><time>2026-05-02T10:05:32.136Z</time></trkpt><trkpt lat="42.2051501" lon="13.7293529"><ele>1131.5</ele><time>2026-05-02T10:05:33.135Z</time></trkpt><trkpt lat="42.2050777" lon="13.7292331"><ele>1131.0</ele><time>2026-05-02T10:05:34.135Z</time></trkpt><trkpt lat="42.2050048" lon="13.7291431"><ele>1130.5</ele><time>2026-05-02T10:05:35.135Z</time></trkpt><trkpt lat="42.2049483" lon="13.7290658"><ele>1130.0</ele><time>2026-05-02T10:05:36.136Z</time></trkpt><trkpt lat="42.2049014" lon="13.7290023"><ele>1129.5</ele><time>2026-05-02T10:05:37.135Z</time></trkpt><trkpt lat="42.2048368" lon="13.7289413"><ele>1129.0</ele><time>2026-05-02T10:05:39.136Z</time></trkpt><trkpt lat="42.2047605" lon="13.7289372"><ele>1130.0</ele><time>2026-05-02T10:05:41.135Z</time></trkpt><trkpt lat="42.2046894" lon="13.7289223"><ele>1131.0</ele><time>2026-05-02T10:05:42.135Z</time></trkpt><trkpt lat="42.2046001" lon="13.7288903"><ele>1132.0</ele><time>2026-05-02T10:05:43.135Z</time></trkpt><trkpt lat="42.2045206" lon="13.7288537"><ele>1133.0</ele><time>2026-05-02T10:05:44.135Z</time></trkpt><trkpt lat="42.204427" lon="13.7288067"><ele>1134.0</ele><time>2026-05-02T10:05:45.136Z</time></trkpt><trkpt lat="42.2043438" lon="13.7287591"><ele>1135.0</ele><time>2026-05-02T10:05:46.135Z</time></trkpt><trkpt lat="42.204249" lon="13.728706"><ele>1135.0</ele><time>2026-05-02T10:05:47.135Z</time></trkpt><trkpt lat="42.2041536" lon="13.7286301"><ele>1135.0</ele><time>2026-05-02T10:05:48.136Z</time></trkpt><trkpt lat="42.2040757" lon="13.7285437"><ele>1135.0</ele><time>2026-05-02T10:05:49.135Z</time></trkpt><trkpt lat="42.2039963" lon="13.7284714"><ele>1135.0</ele><time>2026-05-02T10:05:50.137Z</time></trkpt><trkpt lat="42.2039353" lon="13.7284178"><ele>1135.0</ele><time>2026-05-02T10:05:51.135Z</time></trkpt><trkpt lat="42.2038613" lon="13.7283898"><ele>1134.2</ele><time>2026-05-02T10:05:52.135Z</time></trkpt><trkpt lat="42.2037794" lon="13.7283868"><ele>1133.4</ele><time>2026-05-02T10:05:53.137Z</time></trkpt><trkpt lat="42.2036937" lon="13.7284138"><ele>1132.6</ele><time>2026-05-02T10:05:54.136Z</time></trkpt><trkpt lat="42.203579" lon="13.7284572"><ele>1131.8</ele><time>2026-05-02T10:05:55.135Z</time></trkpt><trkpt lat="42.2034579" lon="13.7284951"><ele>1131.0</ele><time>2026-05-02T10:05:56.135Z</time></trkpt><trkpt lat="42.2033448" lon="13.7285302"><ele>1131.0</ele><time>2026-05-02T10:05:57.136Z</time></trkpt><trkpt lat="42.203239" lon="13.728558"><ele>1131.0</ele><time>2026-05-02T10:05:58.135Z</time></trkpt><trkpt lat="42.2031207" lon="13.7285613"><ele>1131.0</ele><time>2026-05-02T10:05:59.135Z</time></trkpt><trkpt lat="42.2029758" lon="13.7285636"><ele>1131.0</ele><time>2026-05-02T10:06:00.136Z</time></trkpt><trkpt lat="42.2028097" lon="13.7285764"><ele>1133.5</ele><time>2026-05-02T10:06:01.135Z</time></trkpt><trkpt lat="42.2026493" lon="13.7285973"><ele>1136.0</ele><time>2026-05-02T10:06:02.135Z</time></trkpt><trkpt lat="42.2025067" lon="13.7286159"><ele>1138.5</ele><time>2026-05-02T10:06:03.137Z</time></trkpt><trkpt lat="42.2023726" lon="13.7286153"><ele>1141.0</ele><time>2026-05-02T10:06:04.136Z</time></trkpt><trkpt lat="42.2022443" lon="13.728583"><ele>1140.0</ele><time>2026-05-02T10:06:05.136Z</time></trkpt><trkpt lat="42.2021158" lon="13.728535"><ele>1139.0</ele><time>2026-05-02T10:06:06.135Z</time></trkpt><trkpt lat="42.2019994" lon="13.7284975"><ele>1138.0</ele><time>2026-05-02T10:06:07.135Z</time></trkpt><trkpt lat="42.2018876" lon="13.728479"><ele>1137.0</ele><time>2026-05-02T10:06:08.135Z</time></trkpt><trkpt lat="42.2017565" lon="13.7284874"><ele>1137.0</ele><time>2026-05-02T10:06:09.136Z</time></trkpt><trkpt lat="42.2016397" lon="13.7285038"><ele>1137.0</ele><time>2026-05-02T10:06:10.136Z</time></trkpt><trkpt lat="42.2015345" lon="13.7285188"><ele>1137.0</ele><time>2026-05-02T10:06:11.136Z</time></trkpt><trkpt lat="42.2014306" lon="13.7285363"><ele>1137.0</ele><time>2026-05-02T10:06:12.137Z</time></trkpt><trkpt lat="42.2013354" lon="13.7285505"><ele>1137.0</ele><time>2026-05-02T10:06:13.136Z</time></trkpt><trkpt lat="42.2012369" lon="13.7285686"><ele>1137.8</ele><time>2026-05-02T10:06:14.136Z</time></trkpt><trkpt lat="42.2011359" lon="13.7285845"><ele>1138.6</ele><time>2026-05-02T10:06:15.135Z</time></trkpt><trkpt lat="42.2010347" lon="13.7285873"><ele>1139.3999999999999</ele><time>2026-05-02T10:06:16.136Z</time></trkpt><trkpt lat="42.200934" lon="13.7285861"><ele>1140.2</ele><time>2026-05-02T10:06:17.136Z</time></trkpt><trkpt lat="42.2008321" lon="13.7285853"><ele>1141.0</ele><time>2026-05-02T10:06:18.136Z</time></trkpt><trkpt lat="42.2007475" lon="13.7285724"><ele>1139.1666666666665</ele><time>2026-05-02T10:06:19.135Z</time></trkpt><trkpt lat="42.2006743" lon="13.72853"><ele>1137.3333333333333</ele><time>2026-05-02T10:06:20.135Z</time></trkpt><trkpt lat="42.2006032" lon="13.7284736"><ele>1135.5</ele><time>2026-05-02T10:06:21.136Z</time></trkpt><trkpt lat="42.2005232" lon="13.7284239"><ele>1133.6666666666667</ele><time>2026-05-02T10:06:22.135Z</time></trkpt><trkpt lat="42.2004441" lon="13.7283563"><ele>1131.8333333333335</ele><time>2026-05-02T10:06:23.135Z</time></trkpt><trkpt lat="42.2003787" lon="13.728252"><ele>1130.0</ele><time>2026-05-02T10:06:24.135Z</time></trkpt><trkpt lat="42.2003211" lon="13.728132"><ele>1128.4</ele><time>2026-05-02T10:06:25.135Z</time></trkpt><trkpt lat="42.2002685" lon="13.7280134"><ele>1126.8</ele><time>2026-05-02T10:06:26.135Z</time></trkpt><trkpt lat="42.200213" lon="13.7279112"><ele>1125.2</ele><time>2026-05-02T10:06:27.137Z</time></trkpt><trkpt lat="42.2001412" lon="13.7278283"><ele>1123.6</ele><time>2026-05-02T10:06:28.137Z</time></trkpt><trkpt lat="42.2000548" lon="13.7277405"><ele>1122.0</ele><time>2026-05-02T10:06:29.136Z</time></trkpt><trkpt lat="42.1999588" lon="13.7276495"><ele>1120.0</ele><time>2026-05-02T10:06:30.136Z</time></trkpt><trkpt lat="42.1998583" lon="13.7275664"><ele>1118.0</ele><time>2026-05-02T10:06:31.137Z</time></trkpt><trkpt lat="42.1997586" lon="13.7274953"><ele>1116.0</ele><time>2026-05-02T10:06:32.136Z</time></trkpt><trkpt lat="42.1996753" lon="13.7274333"><ele>1114.0</ele><time>2026-05-02T10:06:33.137Z</time></trkpt><trkpt lat="42.1996071" lon="13.727367"><ele>1112.0</ele><time>2026-05-02T10:06:34.135Z</time></trkpt><trkpt lat="42.1995613" lon="13.727275"><ele>1111.3333333333335</ele><time>2026-05-02T10:06:35.135Z</time></trkpt><trkpt lat="42.199521" lon="13.7271983"><ele>1110.6666666666667</ele><time>2026-05-02T10:06:36.135Z</time></trkpt><trkpt lat="42.1994636" lon="13.7271411"><ele>1110.0</ele><time>2026-05-02T10:06:37.135Z</time></trkpt><trkpt lat="42.199377" lon="13.7270899"><ele>1109.3333333333333</ele><time>2026-05-02T10:06:38.135Z</time></trkpt><trkpt lat="42.1992726" lon="13.7270459"><ele>1108.6666666666665</ele><time>2026-05-02T10:06:39.135Z</time></trkpt><trkpt lat="42.1991892" lon="13.7270176"><ele>1108.0</ele><time>2026-05-02T10:06:40.135Z</time></trkpt><trkpt lat="42.1991007" lon="13.7270137"><ele>1108.0</ele><time>2026-05-02T10:06:41.135Z</time></trkpt><trkpt lat="42.1990135" lon="13.7270217"><ele>1108.0</ele><time>2026-05-02T10:06:42.135Z</time></trkpt><trkpt lat="42.1989275" lon="13.7270225"><ele>1108.0</ele><time>2026-05-02T10:06:43.135Z</time></trkpt><trkpt lat="42.1988384" lon="13.727018"><ele>1108.0</ele><time>2026-05-02T10:06:44.135Z</time></trkpt><trkpt lat="42.1987493" lon="13.726984"><ele>1108.0</ele><time>2026-05-02T10:06:45.136Z</time></trkpt><trkpt lat="42.1986579" lon="13.7269265"><ele>1105.4</ele><time>2026-05-02T10:06:46.135Z</time></trkpt><trkpt lat="42.1985581" lon="13.7268609"><ele>1102.8</ele><time>2026-05-02T10:06:47.136Z</time></trkpt><trkpt lat="42.1984648" lon="13.7267999"><ele>1100.2</ele><time>2026-05-02T10:06:48.136Z</time></trkpt><trkpt lat="42.1983696" lon="13.7267415"><ele>1097.6</ele><time>2026-05-02T10:06:49.135Z</time></trkpt><trkpt lat="42.1982762" lon="13.7266827"><ele>1095.0</ele><time>2026-05-02T10:06:50.135Z</time></trkpt><trkpt lat="42.1982018" lon="13.7266371"><ele>1094.0</ele><time>2026-05-02T10:06:51.135Z</time></trkpt><trkpt lat="42.1981319" lon="13.7265937"><ele>1093.0</ele><time>2026-05-02T10:06:52.136Z</time></trkpt><trkpt lat="42.1980733" lon="13.7265484"><ele>1092.0</ele><time>2026-05-02T10:06:53.136Z</time></trkpt><trkpt lat="42.1980203" lon="13.7264991"><ele>1091.0</ele><time>2026-05-02T10:06:54.136Z</time></trkpt><trkpt lat="42.1979675" lon="13.7264419"><ele>1090.0</ele><time>2026-05-02T10:06:55.136Z</time></trkpt><trkpt lat="42.1978644" lon="13.7263705"><ele>1089.0</ele><time>2026-05-02T10:06:57.136Z</time></trkpt><trkpt lat="42.1977533" lon="13.7264215"><ele>1089.0</ele><time>2026-05-02T10:06:59.136Z</time></trkpt><trkpt lat="42.197693" lon="13.7265021"><ele>1089.0</ele><time>2026-05-02T10:07:00.136Z</time></trkpt><trkpt lat="42.1976571" lon="13.7265979"><ele>1089.0</ele><time>2026-05-02T10:07:01.136Z</time></trkpt><trkpt lat="42.197627" lon="13.7267194"><ele>1089.0</ele><time>2026-05-02T10:07:02.135Z</time></trkpt><trkpt lat="42.1975823" lon="13.7268129"><ele>1089.0</ele><time>2026-05-02T10:07:03.136Z</time></trkpt><trkpt lat="42.1975235" lon="13.7268694"><ele>1089.0</ele><time>2026-05-02T10:07:04.135Z</time></trkpt><trkpt lat="42.1974473" lon="13.726927"><ele>1089.8</ele><time>2026-05-02T10:07:05.136Z</time></trkpt><trkpt lat="42.1973661" lon="13.726973"><ele>1090.6000000000001</ele><time>2026-05-02T10:07:06.135Z</time></trkpt><trkpt lat="42.1972671" lon="13.7270094"><ele>1091.4</ele><time>2026-05-02T10:07:07.135Z</time></trkpt><trkpt lat="42.1971545" lon="13.7270403"><ele>1092.2</ele><time>2026-05-02T10:07:08.136Z</time></trkpt><trkpt lat="42.1970293" lon="13.7270804"><ele>1093.0</ele><time>2026-05-02T10:07:09.136Z</time></trkpt><trkpt lat="42.1969113" lon="13.7271291"><ele>1091.0</ele><time>2026-05-02T10:07:10.135Z</time></trkpt><trkpt lat="42.1967951" lon="13.7271816"><ele>1089.0</ele><time>2026-05-02T10:07:11.135Z</time></trkpt><trkpt lat="42.1966841" lon="13.7272276"><ele>1087.0</ele><time>2026-05-02T10:07:12.136Z</time></trkpt><trkpt lat="42.1965913" lon="13.727258"><ele>1085.0</ele><time>2026-05-02T10:07:13.136Z</time></trkpt><trkpt lat="42.196521" lon="13.7272904"><ele>1083.0</ele><time>2026-05-02T10:07:14.135Z</time></trkpt><trkpt lat="42.1964429" lon="13.7273429"><ele>1082.8333333333333</ele><time>2026-05-02T10:07:16.135Z</time></trkpt><trkpt lat="42.1964139" lon="13.7272494"><ele>1082.6666666666667</ele><time>2026-05-02T10:07:20.135Z</time></trkpt><trkpt lat="42.1964204" lon="13.7271102"><ele>1082.5</ele><time>2026-05-02T10:07:22.135Z</time></trkpt><trkpt lat="42.1964242" lon="13.7270112"><ele>1082.3333333333335</ele><time>2026-05-02T10:07:23.135Z</time></trkpt><trkpt lat="42.1964402" lon="13.7268942"><ele>1082.1666666666667</ele><time>2026-05-02T10:07:24.135Z</time></trkpt><trkpt lat="42.1964621" lon="13.7267654"><ele>1082.0</ele><time>2026-05-02T10:07:25.136Z</time></trkpt><trkpt lat="42.1964879" lon="13.7266211"><ele>1083.2</ele><time>2026-05-02T10:07:26.135Z</time></trkpt><trkpt lat="42.19651" lon="13.726495"><ele>1084.4</ele><time>2026-05-02T10:07:27.135Z</time></trkpt><trkpt lat="42.1965316" lon="13.7263624"><ele>1085.6</ele><time>2026-05-02T10:07:28.135Z</time></trkpt><trkpt lat="42.1965543" lon="13.7262193"><ele>1086.8</ele><time>2026-05-02T10:07:29.135Z</time></trkpt><trkpt lat="42.1965844" lon="13.7260886"><ele>1088.0</ele><time>2026-05-02T10:07:30.136Z</time></trkpt><trkpt lat="42.1966236" lon="13.7259799"><ele>1088.8333333333335</ele><time>2026-05-02T10:07:31.136Z</time></trkpt><trkpt lat="42.1966747" lon="13.7258948"><ele>1089.6666666666667</ele><time>2026-05-02T10:07:32.135Z</time></trkpt><trkpt lat="42.1967371" lon="13.7258242"><ele>1090.5</ele><time>2026-05-02T10:07:33.135Z</time></trkpt><trkpt lat="42.196806" lon="13.725777"><ele>1091.3333333333333</ele><time>2026-05-02T10:07:34.135Z</time></trkpt><trkpt lat="42.1968876" lon="13.7257106"><ele>1092.1666666666665</ele><time>2026-05-02T10:07:36.136Z</time></trkpt><trkpt lat="42.1969568" lon="13.7256351"><ele>1093.0</ele><time>2026-05-02T10:07:38.135Z</time></trkpt><trkpt lat="42.1970156" lon="13.7254991"><ele>1093.0</ele><time>2026-05-02T10:07:40.135Z</time></trkpt><trkpt lat="42.197037" lon="13.7254108"><ele>1093.0</ele><time>2026-05-02T10:07:41.136Z</time></trkpt><trkpt lat="42.1970588" lon="13.7253049"><ele>1093.0</ele><time>2026-05-02T10:07:42.135Z</time></trkpt><trkpt lat="42.1970897" lon="13.7251888"><ele>1093.0</ele><time>2026-05-02T10:07:43.135Z</time></trkpt><trkpt lat="42.1971308" lon="13.7250618"><ele>1093.0</ele><time>2026-05-02T10:07:44.137Z</time></trkpt><trkpt lat="42.1971712" lon="13.7249296"><ele>1093.2</ele><time>2026-05-02T10:07:45.137Z</time></trkpt><trkpt lat="42.1972007" lon="13.7247934"><ele>1093.4</ele><time>2026-05-02T10:07:46.136Z</time></trkpt><trkpt lat="42.1972223" lon="13.7246438"><ele>1093.6000000000001</ele><time>2026-05-02T10:07:47.135Z</time></trkpt><trkpt lat="42.1972297" lon="13.7244898"><ele>1093.8</ele><time>2026-05-02T10:07:48.135Z</time></trkpt><trkpt lat="42.1972252" lon="13.7243462"><ele>1094.0</ele><time>2026-05-02T10:07:49.136Z</time></trkpt><trkpt lat="42.1972079" lon="13.7242031"><ele>1095.2</ele><time>2026-05-02T10:07:50.135Z</time></trkpt><trkpt lat="42.1971919" lon="13.7240732"><ele>1096.4</ele><time>2026-05-02T10:07:51.136Z</time></trkpt><trkpt lat="42.1971792" lon="13.7239418"><ele>1097.6</ele><time>2026-05-02T10:07:52.136Z</time></trkpt><trkpt lat="42.1971788" lon="13.7238053"><ele>1098.8</ele><time>2026-05-02T10:07:53.136Z</time></trkpt><trkpt lat="42.197186" lon="13.7236576"><ele>1100.0</ele><time>2026-05-02T10:07:54.136Z</time></trkpt><trkpt lat="42.197196" lon="13.7235142"><ele>1100.0</ele><time>2026-05-02T10:07:55.135Z</time></trkpt><trkpt lat="42.1972039" lon="13.7233864"><ele>1100.0</ele><time>2026-05-02T10:07:56.135Z</time></trkpt><trkpt lat="42.1972273" lon="13.7232719"><ele>1100.0</ele><time>2026-05-02T10:07:57.137Z</time></trkpt><trkpt lat="42.1972433" lon="13.7231498"><ele>1100.0</ele><time>2026-05-02T10:07:58.135Z</time></trkpt><trkpt lat="42.1972796" lon="13.723038"><ele>1100.0</ele><time>2026-05-02T10:07:59.135Z</time></trkpt><trkpt lat="42.1973227" lon="13.7229309"><ele>1099.4</ele><time>2026-05-02T10:08:00.135Z</time></trkpt><trkpt lat="42.1973829" lon="13.7228169"><ele>1098.8</ele><time>2026-05-02T10:08:01.135Z</time></trkpt><trkpt lat="42.1974532" lon="13.7226932"><ele>1098.2</ele><time>2026-05-02T10:08:02.136Z</time></trkpt><trkpt lat="42.1975144" lon="13.7225737"><ele>1097.6</ele><time>2026-05-02T10:08:03.136Z</time></trkpt><trkpt lat="42.1975704" lon="13.7224608"><ele>1097.0</ele><time>2026-05-02T10:08:04.135Z</time></trkpt><trkpt lat="42.197623" lon="13.7223354"><ele>1096.2</ele><time>2026-05-02T10:08:05.137Z</time></trkpt><trkpt lat="42.1976749" lon="13.7222239"><ele>1095.4</ele><time>2026-05-02T10:08:06.136Z</time></trkpt><trkpt lat="42.1977284" lon="13.7221189"><ele>1094.6</ele><time>2026-05-02T10:08:07.135Z</time></trkpt><trkpt lat="42.1977742" lon="13.7220081"><ele>1093.8</ele><time>2026-05-02T10:08:08.135Z</time></trkpt><trkpt lat="42.1978287" lon="13.721927"><ele>1093.0</ele><time>2026-05-02T10:08:09.136Z</time></trkpt><trkpt lat="42.1978914" lon="13.7218396"><ele>1092.8</ele><time>2026-05-02T10:08:10.136Z</time></trkpt><trkpt lat="42.1979622" lon="13.7217757"><ele>1092.6</ele><time>2026-05-02T10:08:11.136Z</time></trkpt><trkpt lat="42.198034" lon="13.7217098"><ele>1092.4</ele><time>2026-05-02T10:08:12.135Z</time></trkpt><trkpt lat="42.1981072" lon="13.7216447"><ele>1092.2</ele><time>2026-05-02T10:08:13.137Z</time></trkpt><trkpt lat="42.1981817" lon="13.7215672"><ele>1092.0</ele><time>2026-05-02T10:08:14.135Z</time></trkpt><trkpt lat="42.1982598" lon="13.7214785"><ele>1091.2</ele><time>2026-05-02T10:08:15.136Z</time></trkpt><trkpt lat="42.1983264" lon="13.7213788"><ele>1090.4</ele><time>2026-05-02T10:08:16.135Z</time></trkpt><trkpt lat="42.1983949" lon="13.7212896"><ele>1089.6</ele><time>2026-05-02T10:08:17.135Z</time></trkpt><trkpt lat="42.1984702" lon="13.721201"><ele>1088.8</ele><time>2026-05-02T10:08:18.135Z</time></trkpt><trkpt lat="42.1985581" lon="13.7211074"><ele>1088.0</ele><time>2026-05-02T10:08:19.135Z</time></trkpt><trkpt lat="42.198643" lon="13.7210207"><ele>1086.2</ele><time>2026-05-02T10:08:20.136Z</time></trkpt><trkpt lat="42.1987402" lon="13.7209485"><ele>1084.4</ele><time>2026-05-02T10:08:21.135Z</time></trkpt><trkpt lat="42.1988351" lon="13.7208784"><ele>1082.6000000000001</ele><time>2026-05-02T10:08:22.136Z</time></trkpt><trkpt lat="42.1989184" lon="13.7207985"><ele>1080.8</ele><time>2026-05-02T10:08:23.135Z</time></trkpt><trkpt lat="42.1990058" lon="13.7207116"><ele>1079.0</ele><time>2026-05-02T10:08:24.135Z</time></trkpt><trkpt lat="42.1990953" lon="13.7206224"><ele>1076.8</ele><time>2026-05-02T10:08:25.135Z</time></trkpt><trkpt lat="42.1991673" lon="13.7205279"><ele>1074.6000000000001</ele><time>2026-05-02T10:08:26.137Z</time></trkpt><trkpt lat="42.1992351" lon="13.7204384"><ele>1072.4</ele><time>2026-05-02T10:08:27.136Z</time></trkpt><trkpt lat="42.1992952" lon="13.7203448"><ele>1070.2</ele><time>2026-05-02T10:08:28.135Z</time></trkpt><trkpt lat="42.1993406" lon="13.7202517"><ele>1068.0</ele><time>2026-05-02T10:08:29.136Z</time></trkpt><trkpt lat="42.1993853" lon="13.7201338"><ele>1067.2</ele><time>2026-05-02T10:08:30.135Z</time></trkpt><trkpt lat="42.1994096" lon="13.7200002"><ele>1066.4</ele><time>2026-05-02T10:08:31.135Z</time></trkpt><trkpt lat="42.1994392" lon="13.7198741"><ele>1065.6000000000001</ele><time>2026-05-02T10:08:32.136Z</time></trkpt><trkpt lat="42.1994695" lon="13.7197492"><ele>1064.8</ele><time>2026-05-02T10:08:33.135Z</time></trkpt><trkpt lat="42.1995086" lon="13.7196284"><ele>1064.0</ele><time>2026-05-02T10:08:34.135Z</time></trkpt><trkpt lat="42.1995605" lon="13.7195015"><ele>1065.25</ele><time>2026-05-02T10:08:35.136Z</time></trkpt><trkpt lat="42.1996155" lon="13.7193491"><ele>1066.5</ele><time>2026-05-02T10:08:36.136Z</time></trkpt><trkpt lat="42.1996701" lon="13.7191655"><ele>1067.75</ele><time>2026-05-02T10:08:37.135Z</time></trkpt><trkpt lat="42.199724" lon="13.719008"><ele>1069.0</ele><time>2026-05-02T10:08:38.135Z</time></trkpt><trkpt lat="42.1997923" lon="13.7188821"><ele>1066.5</ele><time>2026-05-02T10:08:39.135Z</time></trkpt><trkpt lat="42.1998928" lon="13.7187462"><ele>1064.0</ele><time>2026-05-02T10:08:40.135Z</time></trkpt><trkpt lat="42.1999701" lon="13.7186135"><ele>1061.5</ele><time>2026-05-02T10:08:41.135Z</time></trkpt><trkpt lat="42.2000363" lon="13.7184851"><ele>1059.0</ele><time>2026-05-02T10:08:42.136Z</time></trkpt><trkpt lat="42.200099" lon="13.7183599"><ele>1059.0</ele><time>2026-05-02T10:08:43.135Z</time></trkpt><trkpt lat="42.2001533" lon="13.7182425"><ele>1059.0</ele><time>2026-05-02T10:08:44.136Z</time></trkpt><trkpt lat="42.2002028" lon="13.718165"><ele>1059.0</ele><time>2026-05-02T10:08:45.136Z</time></trkpt><trkpt lat="42.2002491" lon="13.7180757"><ele>1059.0</ele><time>2026-05-02T10:08:47.136Z</time></trkpt><trkpt lat="42.2002704" lon="13.7179479"><ele>1059.0</ele><time>2026-05-02T10:08:49.135Z</time></trkpt><trkpt lat="42.2002957" lon="13.7177865"><ele>1058.8</ele><time>2026-05-02T10:08:51.136Z</time></trkpt><trkpt lat="42.2002995" lon="13.7176235"><ele>1058.6000000000001</ele><time>2026-05-02T10:08:53.136Z</time></trkpt><trkpt lat="42.2002669" lon="13.7175241"><ele>1058.4</ele><time>2026-05-02T10:08:54.136Z</time></trkpt><trkpt lat="42.2002163" lon="13.7173967"><ele>1058.2</ele><time>2026-05-02T10:08:55.136Z</time></trkpt><trkpt lat="42.2001534" lon="13.7172476"><ele>1058.0</ele><time>2026-05-02T10:08:56.136Z</time></trkpt><trkpt lat="42.2001033" lon="13.7171143"><ele>1058.0</ele><time>2026-05-02T10:08:57.135Z</time></trkpt><trkpt lat="42.2000698" lon="13.7169692"><ele>1058.0</ele><time>2026-05-02T10:08:58.135Z</time></trkpt><trkpt lat="42.2000276" lon="13.7167912"><ele>1058.0</ele><time>2026-05-02T10:08:59.137Z</time></trkpt><trkpt lat="42.1999876" lon="13.7166326"><ele>1058.0</ele><time>2026-05-02T10:09:00.136Z</time></trkpt><trkpt lat="42.1999589" lon="13.7164995"><ele>1058.2</ele><time>2026-05-02T10:09:01.136Z</time></trkpt><trkpt lat="42.1999466" lon="13.7163884"><ele>1058.4</ele><time>2026-05-02T10:09:02.135Z</time></trkpt><trkpt lat="42.1999309" lon="13.7162788"><ele>1058.6000000000001</ele><time>2026-05-02T10:09:03.136Z</time></trkpt><trkpt lat="42.199998" lon="13.7161393"><ele>1058.8</ele><time>2026-05-02T10:09:04.137Z</time></trkpt><trkpt lat="42.2000554" lon="13.7159852"><ele>1059.0</ele><time>2026-05-02T10:09:05.135Z</time></trkpt><trkpt lat="42.2001292" lon="13.7158347"><ele>1059.25</ele><time>2026-05-02T10:09:06.135Z</time></trkpt><trkpt lat="42.200186" lon="13.7157039"><ele>1059.5</ele><time>2026-05-02T10:09:07.135Z</time></trkpt><trkpt lat="42.2002259" lon="13.7155523"><ele>1059.75</ele><time>2026-05-02T10:09:08.136Z</time></trkpt><trkpt lat="42.2002657" lon="13.7153934"><ele>1060.0</ele><time>2026-05-02T10:09:09.135Z</time></trkpt><trkpt lat="42.2003103" lon="13.7152224"><ele>1060.25</ele><time>2026-05-02T10:09:10.135Z</time></trkpt><trkpt lat="42.2003098" lon="13.715062"><ele>1060.5</ele><time>2026-05-02T10:09:11.137Z</time></trkpt><trkpt lat="42.2003442" lon="13.7149064"><ele>1060.75</ele><time>2026-05-02T10:09:12.135Z</time></trkpt><trkpt lat="42.2003818" lon="13.7147736"><ele>1061.0</ele><time>2026-05-02T10:09:13.136Z</time></trkpt><trkpt lat="42.2004291" lon="13.7146453"><ele>1061.0</ele><time>2026-05-02T10:09:14.136Z</time></trkpt><trkpt lat="42.2004421" lon="13.7145316"><ele>1061.0</ele><time>2026-05-02T10:09:15.135Z</time></trkpt><trkpt lat="42.2004557" lon="13.7143899"><ele>1061.0</ele><time>2026-05-02T10:09:16.135Z</time></trkpt><trkpt lat="42.2004658" lon="13.7142042"><ele>1061.0</ele><time>2026-05-02T10:09:17.136Z</time></trkpt><trkpt lat="42.2004812" lon="13.714017"><ele>1060.75</ele><time>2026-05-02T10:09:18.135Z</time></trkpt><trkpt lat="42.2005225" lon="13.7138308"><ele>1060.5</ele><time>2026-05-02T10:09:19.135Z</time></trkpt><trkpt lat="42.2005515" lon="13.7136407"><ele>1060.25</ele><time>2026-05-02T10:09:20.136Z</time></trkpt><trkpt lat="42.2005885" lon="13.7134555"><ele>1060.0</ele><time>2026-05-02T10:09:21.135Z</time></trkpt><trkpt lat="42.2006257" lon="13.7132776"><ele>1054.75</ele><time>2026-05-02T10:09:22.136Z</time></trkpt><trkpt lat="42.2006682" lon="13.7131203"><ele>1049.5</ele><time>2026-05-02T10:09:23.136Z</time></trkpt><trkpt lat="42.2007391" lon="13.7129625"><ele>1044.25</ele><time>2026-05-02T10:09:24.135Z</time></trkpt><trkpt lat="42.2008003" lon="13.7128082"><ele>1039.0</ele><time>2026-05-02T10:09:25.135Z</time></trkpt><trkpt lat="42.2008704" lon="13.7126256"><ele>1038.25</ele><time>2026-05-02T10:09:26.136Z</time></trkpt><trkpt lat="42.2009238" lon="13.7124784"><ele>1037.5</ele><time>2026-05-02T10:09:27.136Z</time></trkpt><trkpt lat="42.2009732" lon="13.7123357"><ele>1036.75</ele><time>2026-05-02T10:09:28.135Z</time></trkpt><trkpt lat="42.2010062" lon="13.7121759"><ele>1036.0</ele><time>2026-05-02T10:09:29.136Z</time></trkpt><trkpt lat="42.201039" lon="13.7120072"><ele>1035.3999999999999</ele><time>2026-05-02T10:09:30.135Z</time></trkpt><trkpt lat="42.2010732" lon="13.7118694"><ele>1034.8</ele><time>2026-05-02T10:09:31.135Z</time></trkpt><trkpt lat="42.201106" lon="13.7117403"><ele>1034.1999999999998</ele><time>2026-05-02T10:09:32.136Z</time></trkpt><trkpt lat="42.2011274" lon="13.7116182"><ele>1033.6</ele><time>2026-05-02T10:09:33.135Z</time></trkpt><trkpt lat="42.2011322" lon="13.7114951"><ele>1033.0</ele><time>2026-05-02T10:09:34.135Z</time></trkpt><trkpt lat="42.201127" lon="13.711369"><ele>1033.0</ele><time>2026-05-02T10:09:35.136Z</time></trkpt><trkpt lat="42.2011091" lon="13.711228"><ele>1033.0</ele><time>2026-05-02T10:09:36.135Z</time></trkpt><trkpt lat="42.2010894" lon="13.7110672"><ele>1033.0</ele><time>2026-05-02T10:09:37.137Z</time></trkpt><trkpt lat="42.2010746" lon="13.71091"><ele>1033.0</ele><time>2026-05-02T10:09:38.135Z</time></trkpt><trkpt lat="42.2010605" lon="13.7107535"><ele>1032.0</ele><time>2026-05-02T10:09:39.137Z</time></trkpt><trkpt lat="42.201061" lon="13.7106015"><ele>1031.0</ele><time>2026-05-02T10:09:40.135Z</time></trkpt><trkpt lat="42.2010638" lon="13.7104409"><ele>1030.0</ele><time>2026-05-02T10:09:41.135Z</time></trkpt><trkpt lat="42.2010981" lon="13.7102827"><ele>1029.0</ele><time>2026-05-02T10:09:42.136Z</time></trkpt><trkpt lat="42.2011301" lon="13.7101264"><ele>1028.75</ele><time>2026-05-02T10:09:43.136Z</time></trkpt><trkpt lat="42.2011668" lon="13.7099701"><ele>1028.5</ele><time>2026-05-02T10:09:44.136Z</time></trkpt><trkpt lat="42.2011981" lon="13.70981"><ele>1028.25</ele><time>2026-05-02T10:09:45.135Z</time></trkpt><trkpt lat="42.2012342" lon="13.7096389"><ele>1028.0</ele><time>2026-05-02T10:09:46.136Z</time></trkpt><trkpt lat="42.2012771" lon="13.7094673"><ele>1028.5</ele><time>2026-05-02T10:09:47.135Z</time></trkpt><trkpt lat="42.2013125" lon="13.7092979"><ele>1029.0</ele><time>2026-05-02T10:09:48.135Z</time></trkpt><trkpt lat="42.2013344" lon="13.7091316"><ele>1029.5</ele><time>2026-05-02T10:09:49.136Z</time></trkpt><trkpt lat="42.2013595" lon="13.7089837"><ele>1030.0</ele><time>2026-05-02T10:09:50.137Z</time></trkpt><trkpt lat="42.2013984" lon="13.7088446"><ele>1030.0</ele><time>2026-05-02T10:09:51.135Z</time></trkpt><trkpt lat="42.2014276" lon="13.7086914"><ele>1030.0</ele><time>2026-05-02T10:09:52.135Z</time></trkpt><trkpt lat="42.2014736" lon="13.7085385"><ele>1030.0</ele><time>2026-05-02T10:09:53.135Z</time></trkpt><trkpt lat="42.2015034" lon="13.7084078"><ele>1030.0</ele><time>2026-05-02T10:09:54.135Z</time></trkpt><trkpt lat="42.2015307" lon="13.7082755"><ele>1030.0</ele><time>2026-05-02T10:09:55.135Z</time></trkpt><trkpt lat="42.2015488" lon="13.7081422"><ele>1025.2</ele><time>2026-05-02T10:09:56.136Z</time></trkpt><trkpt lat="42.2015634" lon="13.7080101"><ele>1020.4</ele><time>2026-05-02T10:09:57.136Z</time></trkpt><trkpt lat="42.2015762" lon="13.7078898"><ele>1015.5999999999999</ele><time>2026-05-02T10:09:58.136Z</time></trkpt><trkpt lat="42.2015958" lon="13.7077715"><ele>1010.8</ele><time>2026-05-02T10:09:59.136Z</time></trkpt><trkpt lat="42.2016261" lon="13.7076586"><ele>1006.0</ele><time>2026-05-02T10:10:00.136Z</time></trkpt><trkpt lat="42.2016642" lon="13.7075428"><ele>1004.6666666666666</ele><time>2026-05-02T10:10:01.135Z</time></trkpt><trkpt lat="42.2016925" lon="13.7074259"><ele>1003.3333333333333</ele><time>2026-05-02T10:10:02.135Z</time></trkpt><trkpt lat="42.2017133" lon="13.7073003"><ele>1002.0</ele><time>2026-05-02T10:10:03.135Z</time></trkpt><trkpt lat="42.2017216" lon="13.7071776"><ele>1000.6666666666667</ele><time>2026-05-02T10:10:04.136Z</time></trkpt><trkpt lat="42.201731" lon="13.707061"><ele>999.3333333333334</ele><time>2026-05-02T10:10:05.136Z</time></trkpt><trkpt lat="42.2017608" lon="13.7069632"><ele>998.0</ele><time>2026-05-02T10:10:06.136Z</time></trkpt><trkpt lat="42.2018007" lon="13.7068644"><ele>996.5999999999999</ele><time>2026-05-02T10:10:07.135Z</time></trkpt><trkpt lat="42.2018379" lon="13.7067873"><ele>995.1999999999999</ele><time>2026-05-02T10:10:08.135Z</time></trkpt><trkpt lat="42.2018565" lon="13.7066453"><ele>993.8</ele><time>2026-05-02T10:10:10.136Z</time></trkpt><trkpt lat="42.2018339" lon="13.7065156"><ele>992.4</ele><time>2026-05-02T10:10:12.135Z</time></trkpt><trkpt lat="42.2018065" lon="13.7063646"><ele>991.0</ele><time>2026-05-02T10:10:14.135Z</time></trkpt><trkpt lat="42.2017569" lon="13.7062287"><ele>991.0</ele><time>2026-05-02T10:10:16.135Z</time></trkpt><trkpt lat="42.2016668" lon="13.7061446"><ele>990.9999999999999</ele><time>2026-05-02T10:10:18.135Z</time></trkpt><trkpt lat="42.2015677" lon="13.7061019"><ele>990.9999999999999</ele><time>2026-05-02T10:10:20.136Z</time></trkpt><trkpt lat="42.2015202" lon="13.7060291"><ele>991.0</ele><time>2026-05-02T10:10:22.135Z</time></trkpt><trkpt lat="42.2015086" lon="13.705892"><ele>991.0</ele><time>2026-05-02T10:10:24.135Z</time></trkpt><trkpt lat="42.2015348" lon="13.7057742"><ele>990.1999999999999</ele><time>2026-05-02T10:10:26.135Z</time></trkpt><trkpt lat="42.2015037" lon="13.7056455"><ele>989.3999999999999</ele><time>2026-05-02T10:10:28.135Z</time></trkpt><trkpt lat="42.2014657" lon="13.7055489"><ele>988.6</ele><time>2026-05-02T10:10:29.135Z</time></trkpt><trkpt lat="42.2014238" lon="13.705428"><ele>987.8</ele><time>2026-05-02T10:10:30.135Z</time></trkpt><trkpt lat="42.2013862" lon="13.705314"><ele>987.0</ele><time>2026-05-02T10:10:31.136Z</time></trkpt><trkpt lat="42.2013562" lon="13.7051975"><ele>985.2</ele><time>2026-05-02T10:10:32.135Z</time></trkpt><trkpt lat="42.201338" lon="13.7050879"><ele>983.4000000000001</ele><time>2026-05-02T10:10:33.135Z</time></trkpt><trkpt lat="42.2013311" lon="13.7049588"><ele>981.5999999999999</ele><time>2026-05-02T10:10:34.135Z</time></trkpt><trkpt lat="42.2013335" lon="13.7048181"><ele>979.8</ele><time>2026-05-02T10:10:35.136Z</time></trkpt><trkpt lat="42.2013354" lon="13.7046782"><ele>978.0</ele><time>2026-05-02T10:10:36.135Z</time></trkpt><trkpt lat="42.2013436" lon="13.7045424"><ele>978.0</ele><time>2026-05-02T10:10:37.137Z</time></trkpt><trkpt lat="42.2013514" lon="13.704416"><ele>978.0</ele><time>2026-05-02T10:10:38.136Z</time></trkpt><trkpt lat="42.2013538" lon="13.704297"><ele>978.0</ele><time>2026-05-02T10:10:39.137Z</time></trkpt><trkpt lat="42.2013557" lon="13.7041879"><ele>978.0</ele><time>2026-05-02T10:10:40.135Z</time></trkpt><trkpt lat="42.2013664" lon="13.7040729"><ele>978.0</ele><time>2026-05-02T10:10:41.135Z</time></trkpt><trkpt lat="42.2013835" lon="13.7039585"><ele>978.0</ele><time>2026-05-02T10:10:42.135Z</time></trkpt><trkpt lat="42.2014102" lon="13.703846"><ele>974.5</ele><time>2026-05-02T10:10:43.135Z</time></trkpt><trkpt lat="42.2014356" lon="13.7037384"><ele>971.0</ele><time>2026-05-02T10:10:44.136Z</time></trkpt><trkpt lat="42.2014568" lon="13.7036228"><ele>967.5</ele><time>2026-05-02T10:10:45.136Z</time></trkpt><trkpt lat="42.2014741" lon="13.7035117"><ele>964.0</ele><time>2026-05-02T10:10:46.135Z</time></trkpt><trkpt lat="42.2014846" lon="13.7034096"><ele>960.5</ele><time>2026-05-02T10:10:47.135Z</time></trkpt><trkpt lat="42.2014931" lon="13.7033061"><ele>957.0</ele><time>2026-05-02T10:10:48.135Z</time></trkpt><trkpt lat="42.201498" lon="13.703214"><ele>953.0</ele><time>2026-05-02T10:10:49.135Z</time></trkpt><trkpt lat="42.2014701" lon="13.7030594"><ele>949.0</ele><time>2026-05-02T10:10:51.135Z</time></trkpt><trkpt lat="42.2014083" lon="13.7029446"><ele>945.0</ele><time>2026-05-02T10:10:53.135Z</time></trkpt><trkpt lat="42.2013265" lon="13.702844"><ele>941.0</ele><time>2026-05-02T10:10:55.135Z</time></trkpt><trkpt lat="42.201279" lon="13.7027832"><ele>937.0</ele><time>2026-05-02T10:10:56.136Z</time></trkpt><trkpt lat="42.2012287" lon="13.7027207"><ele>937.0</ele><time>2026-05-02T10:10:57.136Z</time></trkpt><trkpt lat="42.2011697" lon="13.7026696"><ele>937.0</ele><time>2026-05-02T10:10:58.135Z</time></trkpt><trkpt lat="42.2011083" lon="13.7026243"><ele>937.0</ele><time>2026-05-02T10:10:59.135Z</time></trkpt><trkpt lat="42.2010496" lon="13.7025735"><ele>937.0</ele><time>2026-05-02T10:11:00.136Z</time></trkpt><trkpt lat="42.2009896" lon="13.702509"><ele>937.0</ele><time>2026-05-02T10:11:01.135Z</time></trkpt><trkpt lat="42.2009236" lon="13.7024537"><ele>937.0</ele><time>2026-05-02T10:11:02.135Z</time></trkpt><trkpt lat="42.2008541" lon="13.7024091"><ele>937.0</ele><time>2026-05-02T10:11:03.137Z</time></trkpt><trkpt lat="42.200784" lon="13.7023647"><ele>936.9999999999999</ele><time>2026-05-02T10:11:04.135Z</time></trkpt><trkpt lat="42.2007141" lon="13.702321"><ele>937.0</ele><time>2026-05-02T10:11:05.135Z</time></trkpt><trkpt lat="42.2006444" lon="13.7022872"><ele>937.0</ele><time>2026-05-02T10:11:06.135Z</time></trkpt><trkpt lat="42.200574" lon="13.7022668"><ele>937.0</ele><time>2026-05-02T10:11:07.136Z</time></trkpt><trkpt lat="42.2005032" lon="13.7022432"><ele>936.9999999999999</ele><time>2026-05-02T10:11:08.136Z</time></trkpt><trkpt lat="42.2004326" lon="13.7022272"><ele>937.0</ele><time>2026-05-02T10:11:09.136Z</time></trkpt><trkpt lat="42.2003137" lon="13.7022204"><ele>931.6</ele><time>2026-05-02T10:11:11.137Z</time></trkpt><trkpt lat="42.2002198" lon="13.7021993"><ele>926.2</ele><time>2026-05-02T10:11:13.136Z</time></trkpt><trkpt lat="42.2001585" lon="13.7021204"><ele>920.8</ele><time>2026-05-02T10:11:15.136Z</time></trkpt><trkpt lat="42.2001354" lon="13.7020036"><ele>915.4</ele><time>2026-05-02T10:11:17.137Z</time></trkpt><trkpt lat="42.2001102" lon="13.7018713"><ele>910.0</ele><time>2026-05-02T10:11:19.136Z</time></trkpt><trkpt lat="42.2000809" lon="13.7017414"><ele>910.0</ele><time>2026-05-02T10:11:21.135Z</time></trkpt><trkpt lat="42.2000492" lon="13.7016302"><ele>910.0</ele><time>2026-05-02T10:11:23.136Z</time></trkpt><trkpt lat="42.2000114" lon="13.7015517"><ele>910.0</ele><time>2026-05-02T10:11:25.136Z</time></trkpt><trkpt lat="42.1999566" lon="13.7015046"><ele>910.0</ele><time>2026-05-02T10:11:29.136Z</time></trkpt><trkpt lat="42.2" lon="13.7014286"><ele>910.0</ele><time>2026-05-02T10:23:22.133Z</time></trkpt><trkpt lat="42.2000224" lon="13.7013439"><ele>910.0</ele><time>2026-05-02T10:23:33.132Z</time></trkpt><trkpt lat="42.2000249" lon="13.7012526"><ele>910.0</ele><time>2026-05-02T10:23:35.132Z</time></trkpt><trkpt lat="42.2000358" lon="13.7011063"><ele>908.8</ele><time>2026-05-02T10:23:37.134Z</time></trkpt><trkpt lat="42.2000515" lon="13.7009579"><ele>907.6</ele><time>2026-05-02T10:23:39.133Z</time></trkpt><trkpt lat="42.2000714" lon="13.7008099"><ele>906.4000000000001</ele><time>2026-05-02T10:23:41.132Z</time></trkpt><trkpt lat="42.2000845" lon="13.7006774"><ele>905.2</ele><time>2026-05-02T10:23:43.133Z</time></trkpt><trkpt lat="42.2000554" lon="13.7005571"><ele>904.0</ele><time>2026-05-02T10:23:45.132Z</time></trkpt><trkpt lat="42.2000251" lon="13.7004017"><ele>903.9999999999999</ele><time>2026-05-02T10:23:47.133Z</time></trkpt><trkpt lat="42.2000216" lon="13.7003093"><ele>904.0</ele><time>2026-05-02T10:23:48.132Z</time></trkpt><trkpt lat="42.2000251" lon="13.7002183"><ele>904.0</ele><time>2026-05-02T10:23:49.133Z</time></trkpt><trkpt lat="42.2000377" lon="13.7001343"><ele>904.0</ele><time>2026-05-02T10:23:50.132Z</time></trkpt><trkpt lat="42.2000569" lon="13.6999931"><ele>903.9999999999999</ele><time>2026-05-02T10:23:52.132Z</time></trkpt><trkpt lat="42.2000298" lon="13.6999081"><ele>904.0</ele><time>2026-05-02T10:23:54.132Z</time></trkpt><trkpt lat="42.1999487" lon="13.6998419"><ele>903.8333333333333</ele><time>2026-05-02T10:23:56.132Z</time></trkpt><trkpt lat="42.1998517" lon="13.6997871"><ele>903.6666666666666</ele><time>2026-05-02T10:23:58.132Z</time></trkpt><trkpt lat="42.1997698" lon="13.6996769"><ele>903.5</ele><time>2026-05-02T10:24:00.133Z</time></trkpt><trkpt lat="42.1997392" lon="13.6996006"><ele>903.3333333333333</ele><time>2026-05-02T10:24:01.133Z</time></trkpt><trkpt lat="42.1997102" lon="13.6995099"><ele>903.1666666666666</ele><time>2026-05-02T10:24:02.132Z</time></trkpt><trkpt lat="42.1996856" lon="13.6994126"><ele>903.0</ele><time>2026-05-02T10:24:03.133Z</time></trkpt><trkpt lat="42.1996674" lon="13.6993237"><ele>892.5999999999999</ele><time>2026-05-02T10:24:04.133Z</time></trkpt><trkpt lat="42.1996201" lon="13.6991795"><ele>882.1999999999999</ele><time>2026-05-02T10:24:06.132Z</time></trkpt><trkpt lat="42.1995525" lon="13.6990507"><ele>871.8</ele><time>2026-05-02T10:24:08.133Z</time></trkpt><trkpt lat="42.199514" lon="13.6988937"><ele>861.4</ele><time>2026-05-02T10:24:10.132Z</time></trkpt><trkpt lat="42.199502" lon="13.6988079"><ele>851.0</ele><time>2026-05-02T10:24:11.133Z</time></trkpt><trkpt lat="42.1994956" lon="13.698644"><ele>851.8</ele><time>2026-05-02T10:24:13.132Z</time></trkpt><trkpt lat="42.1994876" lon="13.6985449"><ele>852.5999999999999</ele><time>2026-05-02T10:24:14.132Z</time></trkpt><trkpt lat="42.1994623" lon="13.6983899"><ele>853.4</ele><time>2026-05-02T10:24:16.134Z</time></trkpt><trkpt lat="42.1994631" lon="13.6982216"><ele>854.2</ele><time>2026-05-02T10:24:18.132Z</time></trkpt><trkpt lat="42.1994729" lon="13.6981255"><ele>855.0</ele><time>2026-05-02T10:24:19.133Z</time></trkpt><trkpt lat="42.1994924" lon="13.6980152"><ele>855.0</ele><time>2026-05-02T10:24:20.133Z</time></trkpt><trkpt lat="42.1995177" lon="13.6979082"><ele>855.0</ele><time>2026-05-02T10:24:21.132Z</time></trkpt><trkpt lat="42.1995491" lon="13.6978028"><ele>855.0</ele><time>2026-05-02T10:24:22.132Z</time></trkpt><trkpt lat="42.1995847" lon="13.697702"><ele>855.0</ele><time>2026-05-02T10:24:23.132Z</time></trkpt><trkpt lat="42.1996157" lon="13.6976096"><ele>855.0</ele><time>2026-05-02T10:24:24.133Z</time></trkpt><trkpt lat="42.1996421" lon="13.6975307"><ele>855.0</ele><time>2026-05-02T10:24:25.133Z</time></trkpt><trkpt lat="42.1996797" lon="13.6974611"><ele>852.6</ele><time>2026-05-02T10:24:26.133Z</time></trkpt><trkpt lat="42.1997558" lon="13.6973355"><ele>850.2</ele><time>2026-05-02T10:24:28.132Z</time></trkpt><trkpt lat="42.1998152" lon="13.6972219"><ele>847.8</ele><time>2026-05-02T10:24:30.132Z</time></trkpt><trkpt lat="42.1998864" lon="13.6971527"><ele>845.4</ele><time>2026-05-02T10:24:32.133Z</time></trkpt><trkpt lat="42.2000091" lon="13.6971136"><ele>843.0</ele><time>2026-05-02T10:24:34.133Z</time></trkpt><trkpt lat="42.2000801" lon="13.6970978"><ele>843.5999999999999</ele><time>2026-05-02T10:24:35.133Z</time></trkpt><trkpt lat="42.2001501" lon="13.6970739"><ele>844.1999999999999</ele><time>2026-05-02T10:24:36.132Z</time></trkpt><trkpt lat="42.2002189" lon="13.697036"><ele>844.8</ele><time>2026-05-02T10:24:37.133Z</time></trkpt><trkpt lat="42.2003297" lon="13.6969778"><ele>845.4</ele><time>2026-05-02T10:24:39.133Z</time></trkpt><trkpt lat="42.2004442" lon="13.6969583"><ele>846.0</ele><time>2026-05-02T10:24:41.132Z</time></trkpt><trkpt lat="42.2005693" lon="13.6968964"><ele>846.0</ele><time>2026-05-02T10:24:43.132Z</time></trkpt><trkpt lat="42.2006347" lon="13.696862"><ele>846.0</ele><time>2026-05-02T10:24:44.132Z</time></trkpt><trkpt lat="42.2006954" lon="13.6968169"><ele>846.0</ele><time>2026-05-02T10:24:45.133Z</time></trkpt><trkpt lat="42.2007564" lon="13.6967721"><ele>846.0</ele><time>2026-05-02T10:24:46.132Z</time></trkpt><trkpt lat="42.2008393" lon="13.6966716"><ele>846.0</ele><time>2026-05-02T10:24:48.134Z</time></trkpt><trkpt lat="42.2008273" lon="13.6965766"><ele>846.0</ele><time>2026-05-02T10:24:50.132Z</time></trkpt><trkpt lat="42.2007655" lon="13.6965551"><ele>846.0</ele><time>2026-05-02T10:24:52.133Z</time></trkpt><trkpt lat="42.2006781" lon="13.696577"><ele>846.0</ele><time>2026-05-02T10:24:54.132Z</time></trkpt><trkpt lat="42.2006035" lon="13.6965193"><ele>846.0</ele><time>2026-05-02T10:24:56.132Z</time></trkpt><trkpt lat="42.2005356" lon="13.6964668"><ele>846.0</ele><time>2026-05-02T10:24:58.133Z</time></trkpt><trkpt lat="42.2004392" lon="13.6965196"><ele>846.0</ele><time>2026-05-02T10:25:01.132Z</time></trkpt><trkpt lat="42.2003712" lon="13.6965175"><ele>846.0</ele><time>2026-05-02T10:25:03.133Z</time></trkpt><trkpt lat="42.2002975" lon="13.6964615"><ele>846.0</ele><time>2026-05-02T10:25:05.132Z</time></trkpt><trkpt lat="42.2002093" lon="13.6963479"><ele>846.0</ele><time>2026-05-02T10:25:07.132Z</time></trkpt><trkpt lat="42.2001614" lon="13.6962781"><ele>846.0</ele><time>2026-05-02T10:25:08.132Z</time></trkpt><trkpt lat="42.2000577" lon="13.696259"><ele>846.0</ele><time>2026-05-02T10:25:10.132Z</time></trkpt><trkpt lat="42.199966" lon="13.6963331"><ele>846.0</ele><time>2026-05-02T10:25:12.132Z</time></trkpt><trkpt lat="42.1998778" lon="13.6964034"><ele>840.8</ele><time>2026-05-02T10:25:14.132Z</time></trkpt><trkpt lat="42.1997759" lon="13.6963684"><ele>835.5999999999999</ele><time>2026-05-02T10:25:16.132Z</time></trkpt><trkpt lat="42.1996858" lon="13.6962561"><ele>830.4</ele><time>2026-05-02T10:25:18.133Z</time></trkpt><trkpt lat="42.1996442" lon="13.69618"><ele>825.2</ele><time>2026-05-02T10:25:19.133Z</time></trkpt><trkpt lat="42.1995963" lon="13.6960912"><ele>820.0</ele><time>2026-05-02T10:25:20.132Z</time></trkpt><trkpt lat="42.1995437" lon="13.6959968"><ele>816.8</ele><time>2026-05-02T10:25:21.132Z</time></trkpt><trkpt lat="42.1994835" lon="13.6959006"><ele>813.6</ele><time>2026-05-02T10:25:22.132Z</time></trkpt><trkpt lat="42.1994196" lon="13.6958023"><ele>810.4000000000001</ele><time>2026-05-02T10:25:23.134Z</time></trkpt><trkpt lat="42.1993552" lon="13.6957086"><ele>807.2</ele><time>2026-05-02T10:25:24.134Z</time></trkpt><trkpt lat="42.1993076" lon="13.6956089"><ele>804.0</ele><time>2026-05-02T10:25:25.132Z</time></trkpt><trkpt lat="42.1992628" lon="13.6955175"><ele>804.0</ele><time>2026-05-02T10:25:26.132Z</time></trkpt><trkpt lat="42.1992261" lon="13.6954127"><ele>804.0</ele><time>2026-05-02T10:25:27.132Z</time></trkpt><trkpt lat="42.1991967" lon="13.6952947"><ele>804.0</ele><time>2026-05-02T10:25:28.132Z</time></trkpt><trkpt lat="42.1991659" lon="13.6951812"><ele>804.0</ele><time>2026-05-02T10:25:29.132Z</time></trkpt><trkpt lat="42.1991205" lon="13.6950837"><ele>804.0</ele><time>2026-05-02T10:25:30.132Z</time></trkpt><trkpt lat="42.1990767" lon="13.6950131"><ele>804.0</ele><time>2026-05-02T10:25:31.132Z</time></trkpt><trkpt lat="42.19903" lon="13.694951"><ele>800.5</ele><time>2026-05-02T10:25:32.132Z</time></trkpt><trkpt lat="42.1989411" lon="13.6949078"><ele>797.0</ele><time>2026-05-02T10:25:34.132Z</time></trkpt><trkpt lat="42.1988534" lon="13.6949866"><ele>793.5</ele><time>2026-05-02T10:25:36.132Z</time></trkpt><trkpt lat="42.1988191" lon="13.6950638"><ele>790.0</ele><time>2026-05-02T10:25:37.132Z</time></trkpt><trkpt lat="42.1987825" lon="13.6951604"><ele>786.5</ele><time>2026-05-02T10:25:38.132Z</time></trkpt><trkpt lat="42.1987354" lon="13.6952571"><ele>783.0</ele><time>2026-05-02T10:25:39.132Z</time></trkpt><trkpt lat="42.1986809" lon="13.695348"><ele>783.0</ele><time>2026-05-02T10:25:40.132Z</time></trkpt><trkpt lat="42.1986359" lon="13.6954313"><ele>783.0</ele><time>2026-05-02T10:25:41.132Z</time></trkpt><trkpt lat="42.1985996" lon="13.6955013"><ele>783.0</ele><time>2026-05-02T10:25:42.132Z</time></trkpt><trkpt lat="42.1985431" lon="13.6955855"><ele>783.0</ele><time>2026-05-02T10:25:44.132Z</time></trkpt><trkpt lat="42.1984582" lon="13.6955757"><ele>783.0</ele><time>2026-05-02T10:25:46.132Z</time></trkpt><trkpt lat="42.1983535" lon="13.6954982"><ele>783.0</ele><time>2026-05-02T10:25:48.132Z</time></trkpt><trkpt lat="42.1982344" lon="13.6954738"><ele>779.2</ele><time>2026-05-02T10:25:50.133Z</time></trkpt><trkpt lat="42.1981279" lon="13.6955303"><ele>775.4</ele><time>2026-05-02T10:25:52.132Z</time></trkpt><trkpt lat="42.19803" lon="13.6956203"><ele>771.6</ele><time>2026-05-02T10:25:54.132Z</time></trkpt><trkpt lat="42.1979727" lon="13.695657"><ele>767.8000000000001</ele><time>2026-05-02T10:25:55.132Z</time></trkpt><trkpt lat="42.1978929" lon="13.6956847"><ele>764.0</ele><time>2026-05-02T10:25:56.133Z</time></trkpt><trkpt lat="42.1978039" lon="13.6957153"><ele>764.0</ele><time>2026-05-02T10:25:57.133Z</time></trkpt><trkpt lat="42.1977053" lon="13.6957467"><ele>764.0</ele><time>2026-05-02T10:25:58.132Z</time></trkpt><trkpt lat="42.1975973" lon="13.6957722"><ele>764.0</ele><time>2026-05-02T10:25:59.132Z</time></trkpt><trkpt lat="42.1974949" lon="13.6958017"><ele>764.0</ele><time>2026-05-02T10:26:00.132Z</time></trkpt><trkpt lat="42.1973934" lon="13.6958324"><ele>764.0</ele><time>2026-05-02T10:26:01.133Z</time></trkpt><trkpt lat="42.1972946" lon="13.6958647"><ele>761.0</ele><time>2026-05-02T10:26:02.133Z</time></trkpt><trkpt lat="42.1972053" lon="13.6958984"><ele>758.0</ele><time>2026-05-02T10:26:03.132Z</time></trkpt><trkpt lat="42.1971234" lon="13.6959287"><ele>755.0</ele><time>2026-05-02T10:26:04.133Z</time></trkpt><trkpt lat="42.197049" lon="13.6959519"><ele>752.0</ele><time>2026-05-02T10:26:05.132Z</time></trkpt><trkpt lat="42.1969842" lon="13.6959716"><ele>749.0</ele><time>2026-05-02T10:26:06.132Z</time></trkpt><trkpt lat="42.1969084" lon="13.6959908"><ele>746.0</ele><time>2026-05-02T10:26:07.132Z</time></trkpt><trkpt lat="42.1968419" lon="13.6960166"><ele>746.0</ele><time>2026-05-02T10:26:08.132Z</time></trkpt><trkpt lat="42.1967794" lon="13.6960415"><ele>746.0</ele><time>2026-05-02T10:26:09.132Z</time></trkpt><trkpt lat="42.1966731" lon="13.6960739"><ele>746.0</ele><time>2026-05-02T10:26:11.132Z</time></trkpt><trkpt lat="42.1965796" lon="13.69612"><ele>746.0</ele><time>2026-05-02T10:26:13.132Z</time></trkpt><trkpt lat="42.1965417" lon="13.6962014"><ele>746.0</ele><time>2026-05-02T10:26:15.133Z</time></trkpt><trkpt lat="42.196527" lon="13.6962903"><ele>746.0</ele><time>2026-05-02T10:26:17.132Z</time></trkpt><trkpt lat="42.1964536" lon="13.6962674"><ele>743.3333333333333</ele><time>2026-05-02T10:26:21.133Z</time></trkpt><trkpt lat="42.1964549" lon="13.6961596"><ele>740.6666666666666</ele><time>2026-05-02T10:26:23.132Z</time></trkpt><trkpt lat="42.1964468" lon="13.6960722"><ele>738.0</ele><time>2026-05-02T10:26:25.133Z</time></trkpt><trkpt lat="42.1964304" lon="13.6959707"><ele>735.3333333333334</ele><time>2026-05-02T10:26:27.132Z</time></trkpt><trkpt lat="42.1964055" lon="13.6958361"><ele>732.6666666666667</ele><time>2026-05-02T10:26:29.133Z</time></trkpt><trkpt lat="42.1963877" lon="13.6956747"><ele>730.0</ele><time>2026-05-02T10:26:31.133Z</time></trkpt><trkpt lat="42.1963748" lon="13.6955895"><ele>730.0000000000001</ele><time>2026-05-02T10:26:32.132Z</time></trkpt><trkpt lat="42.196354" lon="13.6955051"><ele>730.0</ele><time>2026-05-02T10:26:33.132Z</time></trkpt><trkpt lat="42.196336" lon="13.6954196"><ele>730.0</ele><time>2026-05-02T10:26:34.132Z</time></trkpt><trkpt lat="42.1963223" lon="13.6953286"><ele>730.0</ele><time>2026-05-02T10:26:35.132Z</time></trkpt><trkpt lat="42.1963052" lon="13.6952288"><ele>730.0</ele><time>2026-05-02T10:26:36.133Z</time></trkpt><trkpt lat="42.1962871" lon="13.6951189"><ele>730.0000000000001</ele><time>2026-05-02T10:26:37.132Z</time></trkpt><trkpt lat="42.1962739" lon="13.6950144"><ele>730.0</ele><time>2026-05-02T10:26:38.132Z</time></trkpt><trkpt lat="42.1962592" lon="13.6949013"><ele>730.1666666666667</ele><time>2026-05-02T10:26:39.132Z</time></trkpt><trkpt lat="42.1962469" lon="13.6947863"><ele>730.3333333333334</ele><time>2026-05-02T10:26:40.132Z</time></trkpt><trkpt lat="42.1962335" lon="13.6946811"><ele>730.5</ele><time>2026-05-02T10:26:41.133Z</time></trkpt><trkpt lat="42.1962129" lon="13.6945955"><ele>730.6666666666666</ele><time>2026-05-02T10:26:42.133Z</time></trkpt><trkpt lat="42.1961683" lon="13.6944447"><ele>730.8333333333333</ele><time>2026-05-02T10:26:44.134Z</time></trkpt><trkpt lat="42.1961425" lon="13.6943631"><ele>731.0</ele><time>2026-05-02T10:26:45.132Z</time></trkpt><trkpt lat="42.1961156" lon="13.6942736"><ele>731.0</ele><time>2026-05-02T10:26:46.133Z</time></trkpt><trkpt lat="42.1960925" lon="13.6941936"><ele>731.0</ele><time>2026-05-02T10:26:47.132Z</time></trkpt><trkpt lat="42.196067" lon="13.6941022"><ele>731.0</ele><time>2026-05-02T10:26:48.132Z</time></trkpt><trkpt lat="42.1960441" lon="13.6940006"><ele>731.0</ele><time>2026-05-02T10:26:49.133Z</time></trkpt><trkpt lat="42.1960262" lon="13.6938929"><ele>731.0</ele><time>2026-05-02T10:26:50.132Z</time></trkpt><trkpt lat="42.196008" lon="13.6937772"><ele>731.0</ele><time>2026-05-02T10:26:51.134Z</time></trkpt><trkpt lat="42.1959896" lon="13.6936675"><ele>729.5999999999999</ele><time>2026-05-02T10:26:52.132Z</time></trkpt><trkpt lat="42.1959678" lon="13.6935862"><ele>728.2</ele><time>2026-05-02T10:26:53.132Z</time></trkpt><trkpt lat="42.1959553" lon="13.6934949"><ele>726.8</ele><time>2026-05-02T10:26:54.132Z</time></trkpt><trkpt lat="42.1959386" lon="13.6933262"><ele>725.4000000000001</ele><time>2026-05-02T10:26:56.133Z</time></trkpt><trkpt lat="42.1959157" lon="13.6931598"><ele>724.0</ele><time>2026-05-02T10:26:58.132Z</time></trkpt><trkpt lat="42.1959001" lon="13.693069"><ele>724.0</ele><time>2026-05-02T10:26:59.132Z</time></trkpt><trkpt lat="42.1958804" lon="13.6929745"><ele>724.0</ele><time>2026-05-02T10:27:00.132Z</time></trkpt><trkpt lat="42.1958646" lon="13.6928681"><ele>724.0</ele><time>2026-05-02T10:27:01.133Z</time></trkpt><trkpt lat="42.1958483" lon="13.6927783"><ele>724.0</ele><time>2026-05-02T10:27:02.132Z</time></trkpt><trkpt lat="42.1958371" lon="13.6926767"><ele>724.0</ele><time>2026-05-02T10:27:03.133Z</time></trkpt><trkpt lat="42.1958279" lon="13.6925727"><ele>724.0</ele><time>2026-05-02T10:27:04.132Z</time></trkpt><trkpt lat="42.1958268" lon="13.6924682"><ele>722.0</ele><time>2026-05-02T10:27:05.133Z</time></trkpt><trkpt lat="42.1958295" lon="13.6923453"><ele>720.0</ele><time>2026-05-02T10:27:06.132Z</time></trkpt><trkpt lat="42.1958281" lon="13.6922127"><ele>718.0</ele><time>2026-05-02T10:27:07.133Z</time></trkpt><trkpt lat="42.1958245" lon="13.6920812"><ele>716.0</ele><time>2026-05-02T10:27:08.132Z</time></trkpt><trkpt lat="42.1958214" lon="13.6919474"><ele>714.0</ele><time>2026-05-02T10:27:09.133Z</time></trkpt><trkpt lat="42.195818" lon="13.6918064"><ele>713.0</ele><time>2026-05-02T10:27:10.134Z</time></trkpt><trkpt lat="42.1958233" lon="13.6917119"><ele>712.0</ele><time>2026-05-02T10:27:11.132Z</time></trkpt><trkpt lat="42.1958336" lon="13.6916186"><ele>711.0</ele><time>2026-05-02T10:27:12.133Z</time></trkpt><trkpt lat="42.1958277" lon="13.6915304"><ele>710.0</ele><time>2026-05-02T10:27:13.132Z</time></trkpt><trkpt lat="42.1958079" lon="13.6914451"><ele>709.0</ele><time>2026-05-02T10:27:14.132Z</time></trkpt><trkpt lat="42.1957748" lon="13.6913594"><ele>708.0</ele><time>2026-05-02T10:27:15.134Z</time></trkpt><trkpt lat="42.1957386" lon="13.691289"><ele>707.0</ele><time>2026-05-02T10:27:16.132Z</time></trkpt><trkpt lat="42.1957019" lon="13.6911905"><ele>705.1666666666666</ele><time>2026-05-02T10:27:17.132Z</time></trkpt><trkpt lat="42.1956658" lon="13.6910971"><ele>703.3333333333333</ele><time>2026-05-02T10:27:18.133Z</time></trkpt><trkpt lat="42.1956211" lon="13.6910072"><ele>701.5</ele><time>2026-05-02T10:27:19.132Z</time></trkpt><trkpt lat="42.1955795" lon="13.6909157"><ele>699.6666666666666</ele><time>2026-05-02T10:27:20.131Z</time></trkpt><trkpt lat="42.1955019" lon="13.6908546"><ele>697.8333333333334</ele><time>2026-05-02T10:27:21.132Z</time></trkpt><trkpt lat="42.1954321" lon="13.6908049"><ele>696.0</ele><time>2026-05-02T10:27:22.131Z</time></trkpt><trkpt lat="42.1953545" lon="13.6907584"><ele>695.1999999999999</ele><time>2026-05-02T10:27:23.131Z</time></trkpt><trkpt lat="42.1952662" lon="13.6907273"><ele>694.4</ele><time>2026-05-02T10:27:24.131Z</time></trkpt><trkpt lat="42.1951758" lon="13.6906991"><ele>693.6</ele><time>2026-05-02T10:27:25.132Z</time></trkpt><trkpt lat="42.1950886" lon="13.6906599"><ele>692.8</ele><time>2026-05-02T10:27:26.131Z</time></trkpt><trkpt lat="42.1949955" lon="13.6906235"><ele>692.0</ele><time>2026-05-02T10:27:27.132Z</time></trkpt><trkpt lat="42.1948971" lon="13.6905865"><ele>689.6</ele><time>2026-05-02T10:27:28.131Z</time></trkpt><trkpt lat="42.194795" lon="13.6905512"><ele>687.2</ele><time>2026-05-02T10:27:29.133Z</time></trkpt><trkpt lat="42.1946951" lon="13.6905261"><ele>684.8</ele><time>2026-05-02T10:27:30.131Z</time></trkpt><trkpt lat="42.1946027" lon="13.6904987"><ele>682.4</ele><time>2026-05-02T10:27:31.131Z</time></trkpt><trkpt lat="42.1945153" lon="13.6904644"><ele>680.0</ele><time>2026-05-02T10:27:32.133Z</time></trkpt><trkpt lat="42.1944298" lon="13.6904188"><ele>680.0</ele><time>2026-05-02T10:27:33.132Z</time></trkpt><trkpt lat="42.1943516" lon="13.6903585"><ele>680.0</ele><time>2026-05-02T10:27:34.131Z</time></trkpt><trkpt lat="42.194278" lon="13.6902887"><ele>680.0</ele><time>2026-05-02T10:27:35.132Z</time></trkpt><trkpt lat="42.1942112" lon="13.6901899"><ele>680.0</ele><time>2026-05-02T10:27:36.132Z</time></trkpt><trkpt lat="42.1941426" lon="13.6900922"><ele>680.0</ele><time>2026-05-02T10:27:37.132Z</time></trkpt><trkpt lat="42.1940765" lon="13.6899919"><ele>679.5</ele><time>2026-05-02T10:27:38.132Z</time></trkpt><trkpt lat="42.1940183" lon="13.6898947"><ele>679.0</ele><time>2026-05-02T10:27:39.131Z</time></trkpt><trkpt lat="42.1939689" lon="13.6897632"><ele>678.5</ele><time>2026-05-02T10:27:40.133Z</time></trkpt><trkpt lat="42.1939218" lon="13.6896397"><ele>678.0</ele><time>2026-05-02T10:27:41.131Z</time></trkpt><trkpt lat="42.1938824" lon="13.6895536"><ele>677.5</ele><time>2026-05-02T10:27:42.132Z</time></trkpt><trkpt lat="42.1938219" lon="13.6895125"><ele>677.0</ele><time>2026-05-02T10:27:43.131Z</time></trkpt><trkpt lat="42.1937647" lon="13.6894509"><ele>676.0</ele><time>2026-05-02T10:27:44.132Z</time></trkpt><trkpt lat="42.1936736" lon="13.6894462"><ele>675.0</ele><time>2026-05-02T10:27:45.131Z</time></trkpt><trkpt lat="42.1935712" lon="13.6894486"><ele>674.0</ele><time>2026-05-02T10:27:47.131Z</time></trkpt><trkpt lat="42.1934918" lon="13.6894513"><ele>673.0</ele><time>2026-05-02T10:27:49.131Z</time></trkpt><trkpt lat="42.1934328" lon="13.6893812"><ele>672.0</ele><time>2026-05-02T10:27:52.131Z</time></trkpt><trkpt lat="42.1933954" lon="13.6893115"><ele>671.0</ele><time>2026-05-02T10:27:56.131Z</time></trkpt><trkpt lat="42.1933515" lon="13.6892363"><ele>671.0</ele><time>2026-05-02T10:27:59.131Z</time></trkpt><trkpt lat="42.1933146" lon="13.6891671"><ele>671.0</ele><time>2026-05-02T10:28:02.133Z</time></trkpt><trkpt lat="42.193255" lon="13.6890913"><ele>671.0</ele><time>2026-05-02T10:28:04.132Z</time></trkpt><trkpt lat="42.1931765" lon="13.6889901"><ele>671.0</ele><time>2026-05-02T10:28:06.133Z</time></trkpt><trkpt lat="42.1931241" lon="13.6888411"><ele>671.0</ele><time>2026-05-02T10:28:08.133Z</time></trkpt><trkpt lat="42.193097" lon="13.6887445"><ele>670.0</ele><time>2026-05-02T10:28:09.132Z</time></trkpt><trkpt lat="42.1930706" lon="13.688629"><ele>669.0</ele><time>2026-05-02T10:28:10.131Z</time></trkpt><trkpt lat="42.193048" lon="13.6885054"><ele>668.0</ele><time>2026-05-02T10:28:11.132Z</time></trkpt><trkpt lat="42.1930279" lon="13.6883744"><ele>667.0</ele><time>2026-05-02T10:28:12.131Z</time></trkpt><trkpt lat="42.1930295" lon="13.6882452"><ele>666.0</ele><time>2026-05-02T10:28:13.133Z</time></trkpt><trkpt lat="42.1930416" lon="13.6881377"><ele>667.6666666666666</ele><time>2026-05-02T10:28:14.131Z</time></trkpt><trkpt lat="42.1930631" lon="13.6880342"><ele>669.3333333333334</ele><time>2026-05-02T10:28:15.131Z</time></trkpt><trkpt lat="42.1930876" lon="13.6879012"><ele>671.0</ele><time>2026-05-02T10:28:17.132Z</time></trkpt><trkpt lat="42.1930866" lon="13.6878118"><ele>672.6666666666667</ele><time>2026-05-02T10:28:25.132Z</time></trkpt><trkpt lat="42.193057" lon="13.6876566"><ele>674.3333333333334</ele><time>2026-05-02T10:28:27.131Z</time></trkpt><trkpt lat="42.1930274" lon="13.6875556"><ele>676.0</ele><time>2026-05-02T10:28:28.131Z</time></trkpt><trkpt lat="42.1930007" lon="13.6874519"><ele>676.1666666666667</ele><time>2026-05-02T10:28:29.132Z</time></trkpt><trkpt lat="42.1929776" lon="13.6873619"><ele>676.3333333333334</ele><time>2026-05-02T10:28:30.132Z</time></trkpt><trkpt lat="42.1929587" lon="13.6872692"><ele>676.5</ele><time>2026-05-02T10:28:31.131Z</time></trkpt><trkpt lat="42.1929442" lon="13.6871659"><ele>676.6666666666666</ele><time>2026-05-02T10:28:32.132Z</time></trkpt><trkpt lat="42.1929653" lon="13.6870483"><ele>676.8333333333333</ele><time>2026-05-02T10:28:33.131Z</time></trkpt><trkpt lat="42.1929924" lon="13.6869084"><ele>677.0</ele><time>2026-05-02T10:28:34.132Z</time></trkpt><trkpt lat="42.1930235" lon="13.6867614"><ele>676.5</ele><time>2026-05-02T10:28:35.132Z</time></trkpt><trkpt lat="42.1930734" lon="13.6865973"><ele>676.0</ele><time>2026-05-02T10:28:36.132Z</time></trkpt><trkpt lat="42.1931086" lon="13.686445"><ele>675.5</ele><time>2026-05-02T10:28:37.132Z</time></trkpt><trkpt lat="42.1931452" lon="13.686298"><ele>675.0</ele><time>2026-05-02T10:28:38.132Z</time></trkpt><trkpt lat="42.1931854" lon="13.6861639"><ele>675.0</ele><time>2026-05-02T10:28:39.131Z</time></trkpt><trkpt lat="42.1932167" lon="13.6860442"><ele>675.0</ele><time>2026-05-02T10:28:40.131Z</time></trkpt><trkpt lat="42.1932302" lon="13.6859318"><ele>675.0</ele><time>2026-05-02T10:28:41.131Z</time></trkpt><trkpt lat="42.1932267" lon="13.6858143"><ele>675.0</ele><time>2026-05-02T10:28:42.131Z</time></trkpt><trkpt lat="42.1932041" lon="13.6856725"><ele>675.0</ele><time>2026-05-02T10:28:43.131Z</time></trkpt><trkpt lat="42.1931822" lon="13.6855405"><ele>674.8</ele><time>2026-05-02T10:28:44.131Z</time></trkpt><trkpt lat="42.1931665" lon="13.685402"><ele>674.6</ele><time>2026-05-02T10:28:45.131Z</time></trkpt><trkpt lat="42.1931728" lon="13.6852562"><ele>674.4000000000001</ele><time>2026-05-02T10:28:46.131Z</time></trkpt><trkpt lat="42.1931895" lon="13.6850989"><ele>674.2</ele><time>2026-05-02T10:28:47.132Z</time></trkpt><trkpt lat="42.1931977" lon="13.6849549"><ele>674.0</ele><time>2026-05-02T10:28:48.131Z</time></trkpt><trkpt lat="42.193194" lon="13.6848119"><ele>671.0</ele><time>2026-05-02T10:28:49.131Z</time></trkpt><trkpt lat="42.1931715" lon="13.6846461"><ele>668.0</ele><time>2026-05-02T10:28:50.132Z</time></trkpt><trkpt lat="42.1931422" lon="13.6844837"><ele>665.0</ele><time>2026-05-02T10:28:51.132Z</time></trkpt><trkpt lat="42.1931029" lon="13.6843211"><ele>662.0</ele><time>2026-05-02T10:28:52.131Z</time></trkpt><trkpt lat="42.1930613" lon="13.6841506"><ele>661.75</ele><time>2026-05-02T10:28:53.131Z</time></trkpt><trkpt lat="42.1930272" lon="13.6839843"><ele>661.5</ele><time>2026-05-02T10:28:54.131Z</time></trkpt><trkpt lat="42.1929939" lon="13.6838328"><ele>661.25</ele><time>2026-05-02T10:28:55.132Z</time></trkpt><trkpt lat="42.1929606" lon="13.6836828"><ele>661.0</ele><time>2026-05-02T10:28:56.131Z</time></trkpt><trkpt lat="42.1929203" lon="13.6835412"><ele>661.75</ele><time>2026-05-02T10:28:57.131Z</time></trkpt><trkpt lat="42.192897" lon="13.6833953"><ele>662.5</ele><time>2026-05-02T10:28:58.131Z</time></trkpt><trkpt lat="42.1928676" lon="13.6832241"><ele>663.25</ele><time>2026-05-02T10:28:59.131Z</time></trkpt><trkpt lat="42.1928381" lon="13.6830437"><ele>664.0</ele><time>2026-05-02T10:29:00.132Z</time></trkpt><trkpt lat="42.1928087" lon="13.6828826"><ele>664.8333333333334</ele><time>2026-05-02T10:29:01.131Z</time></trkpt><trkpt lat="42.1927805" lon="13.6827446"><ele>665.6666666666667</ele><time>2026-05-02T10:29:02.131Z</time></trkpt><trkpt lat="42.1927587" lon="13.6826175"><ele>666.5</ele><time>2026-05-02T10:29:03.133Z</time></trkpt><trkpt lat="42.1927271" lon="13.6825052"><ele>667.3333333333334</ele><time>2026-05-02T10:29:04.131Z</time></trkpt><trkpt lat="42.1927066" lon="13.6824134"><ele>668.1666666666666</ele><time>2026-05-02T10:29:05.132Z</time></trkpt><trkpt lat="42.1926818" lon="13.6823264"><ele>669.0</ele><time>2026-05-02T10:29:06.132Z</time></trkpt><trkpt lat="42.1926529" lon="13.6821836"><ele>669.0</ele><time>2026-05-02T10:29:08.132Z</time></trkpt><trkpt lat="42.192648" lon="13.6820544"><ele>669.0</ele><time>2026-05-02T10:29:10.132Z</time></trkpt><trkpt lat="42.1926797" lon="13.681889"><ele>669.0</ele><time>2026-05-02T10:29:12.131Z</time></trkpt><trkpt lat="42.1927057" lon="13.6817971"><ele>669.0</ele><time>2026-05-02T10:29:13.131Z</time></trkpt><trkpt lat="42.1927286" lon="13.6817142"><ele>669.0</ele><time>2026-05-02T10:29:14.132Z</time></trkpt><trkpt lat="42.1927609" lon="13.6815858"><ele>668.3333333333334</ele><time>2026-05-02T10:29:16.131Z</time></trkpt><trkpt lat="42.1927504" lon="13.6814349"><ele>667.6666666666666</ele><time>2026-05-02T10:29:18.132Z</time></trkpt><trkpt lat="42.1927559" lon="13.6813394"><ele>667.0</ele><time>2026-05-02T10:29:19.132Z</time></trkpt><trkpt lat="42.1927583" lon="13.681239"><ele>666.3333333333333</ele><time>2026-05-02T10:29:20.131Z</time></trkpt><trkpt lat="42.1927909" lon="13.6811061"><ele>665.6666666666666</ele><time>2026-05-02T10:29:22.131Z</time></trkpt><trkpt lat="42.1928402" lon="13.6810497"><ele>665.0</ele><time>2026-05-02T10:29:23.132Z</time></trkpt><trkpt lat="42.1929056" lon="13.6809743"><ele>662.8333333333333</ele><time>2026-05-02T10:29:24.131Z</time></trkpt><trkpt lat="42.1929731" lon="13.6809028"><ele>660.6666666666666</ele><time>2026-05-02T10:29:25.132Z</time></trkpt><trkpt lat="42.1930265" lon="13.6808396"><ele>658.5</ele><time>2026-05-02T10:29:26.131Z</time></trkpt><trkpt lat="42.1930839" lon="13.6807411"><ele>656.3333333333334</ele><time>2026-05-02T10:29:28.131Z</time></trkpt><trkpt lat="42.1930575" lon="13.6806524"><ele>654.1666666666667</ele><time>2026-05-02T10:29:29.131Z</time></trkpt><trkpt lat="42.1930334" lon="13.6805556"><ele>652.0</ele><time>2026-05-02T10:29:30.132Z</time></trkpt><trkpt lat="42.1930104" lon="13.6804626"><ele>652.0</ele><time>2026-05-02T10:29:31.131Z</time></trkpt><trkpt lat="42.192989" lon="13.680351"><ele>652.0</ele><time>2026-05-02T10:29:32.132Z</time></trkpt><trkpt lat="42.1929633" lon="13.6802316"><ele>652.0</ele><time>2026-05-02T10:29:33.132Z</time></trkpt><trkpt lat="42.1929645" lon="13.6801323"><ele>652.0</ele><time>2026-05-02T10:29:34.132Z</time></trkpt><trkpt lat="42.1929457" lon="13.6799825"><ele>652.0</ele><time>2026-05-02T10:29:36.132Z</time></trkpt><trkpt lat="42.1929518" lon="13.6798828"><ele>652.0</ele><time>2026-05-02T10:29:37.131Z</time></trkpt><trkpt lat="42.1929763" lon="13.6797649"><ele>651.0</ele><time>2026-05-02T10:29:38.131Z</time></trkpt><trkpt lat="42.1930136" lon="13.679634"><ele>650.0</ele><time>2026-05-02T10:29:39.131Z</time></trkpt><trkpt lat="42.1930701" lon="13.679485"><ele>649.0</ele><time>2026-05-02T10:29:40.131Z</time></trkpt><trkpt lat="42.1931479" lon="13.6793327"><ele>648.0</ele><time>2026-05-02T10:29:41.133Z</time></trkpt><trkpt lat="42.1932465" lon="13.6791706"><ele>648.0</ele><time>2026-05-02T10:29:42.131Z</time></trkpt><trkpt lat="42.1933563" lon="13.6790026"><ele>648.0</ele><time>2026-05-02T10:29:43.132Z</time></trkpt><trkpt lat="42.193473" lon="13.6788247"><ele>648.0</ele><time>2026-05-02T10:29:44.132Z</time></trkpt><trkpt lat="42.1935974" lon="13.6786388"><ele>645.0</ele><time>2026-05-02T10:29:45.133Z</time></trkpt><trkpt lat="42.1937238" lon="13.6784438"><ele>642.0</ele><time>2026-05-02T10:29:46.132Z</time></trkpt><trkpt lat="42.1938571" lon="13.6782372"><ele>639.0</ele><time>2026-05-02T10:29:47.132Z</time></trkpt><trkpt lat="42.1939913" lon="13.6780361"><ele>640.3333333333334</ele><time>2026-05-02T10:29:48.132Z</time></trkpt><trkpt lat="42.1941288" lon="13.6778273"><ele>641.6666666666667</ele><time>2026-05-02T10:29:49.132Z</time></trkpt><trkpt lat="42.1942635" lon="13.6776164"><ele>643.0</ele><time>2026-05-02T10:29:50.131Z</time></trkpt><trkpt lat="42.194399" lon="13.6774052"><ele>643.0</ele><time>2026-05-02T10:29:51.132Z</time></trkpt><trkpt lat="42.194525" lon="13.6771936"><ele>643.0</ele><time>2026-05-02T10:29:52.131Z</time></trkpt><trkpt lat="42.194641" lon="13.6769766"><ele>643.0</ele><time>2026-05-02T10:29:53.131Z</time></trkpt><trkpt lat="42.1947516" lon="13.6767538"><ele>642.0</ele><time>2026-05-02T10:29:54.131Z</time></trkpt><trkpt lat="42.1948549" lon="13.676525"><ele>641.0</ele><time>2026-05-02T10:29:55.132Z</time></trkpt><trkpt lat="42.1949535" lon="13.6762981"><ele>640.0</ele><time>2026-05-02T10:29:56.131Z</time></trkpt><trkpt lat="42.1950509" lon="13.6760957"><ele>640.0</ele><time>2026-05-02T10:29:57.132Z</time></trkpt><trkpt lat="42.1951424" lon="13.6759108"><ele>640.0</ele><time>2026-05-02T10:29:58.132Z</time></trkpt><trkpt lat="42.195244" lon="13.6757491"><ele>640.0</ele><time>2026-05-02T10:29:59.132Z</time></trkpt><trkpt lat="42.1953551" lon="13.6756232"><ele>640.0</ele><time>2026-05-02T10:30:00.133Z</time></trkpt><trkpt lat="42.1954888" lon="13.6755077"><ele>640.0</ele><time>2026-05-02T10:30:01.131Z</time></trkpt><trkpt lat="42.1956396" lon="13.6753757"><ele>640.0</ele><time>2026-05-02T10:30:02.132Z</time></trkpt><trkpt lat="42.1958015" lon="13.6752383"><ele>639.6666666666667</ele><time>2026-05-02T10:30:03.131Z</time></trkpt><trkpt lat="42.1959655" lon="13.6750841"><ele>639.3333333333334</ele><time>2026-05-02T10:30:04.132Z</time></trkpt><trkpt lat="42.1961205" lon="13.6748992"><ele>639.0</ele><time>2026-05-02T10:30:05.132Z</time></trkpt><trkpt lat="42.1962664" lon="13.6746884"><ele>639.0</ele><time>2026-05-02T10:30:06.133Z</time></trkpt><trkpt lat="42.1964098" lon="13.6744547"><ele>639.0</ele><time>2026-05-02T10:30:07.131Z</time></trkpt><trkpt lat="42.1965533" lon="13.6742111"><ele>637.5</ele><time>2026-05-02T10:30:08.131Z</time></trkpt><trkpt lat="42.1966996" lon="13.6739653"><ele>636.0</ele><time>2026-05-02T10:30:09.132Z</time></trkpt><trkpt lat="42.196839" lon="13.6737319"><ele>633.0</ele><time>2026-05-02T10:30:10.132Z</time></trkpt><trkpt lat="42.1969637" lon="13.6735214"><ele>630.0</ele><time>2026-05-02T10:30:11.131Z</time></trkpt><trkpt lat="42.1970722" lon="13.6733208"><ele>627.0</ele><time>2026-05-02T10:30:12.131Z</time></trkpt><trkpt lat="42.1971584" lon="13.6731099"><ele>627.0</ele><time>2026-05-02T10:30:13.132Z</time></trkpt><trkpt lat="42.1972012" lon="13.6729244"><ele>627.0</ele><time>2026-05-02T10:30:14.132Z</time></trkpt><trkpt lat="42.1972578" lon="13.6727464"><ele>627.0</ele><time>2026-05-02T10:30:15.132Z</time></trkpt><trkpt lat="42.1973395" lon="13.6725971"><ele>627.0</ele><time>2026-05-02T10:30:16.132Z</time></trkpt><trkpt lat="42.1974057" lon="13.6724528"><ele>628.0</ele><time>2026-05-02T10:30:17.131Z</time></trkpt><trkpt lat="42.1975064" lon="13.672339"><ele>629.0</ele><time>2026-05-02T10:30:18.133Z</time></trkpt><trkpt lat="42.1976839" lon="13.6723369"><ele>630.0</ele><time>2026-05-02T10:30:19.131Z</time></trkpt><trkpt lat="42.1978065" lon="13.6723359"><ele>631.0</ele><time>2026-05-02T10:30:20.131Z</time></trkpt><trkpt lat="42.1979429" lon="13.6723735"><ele>631.0</ele><time>2026-05-02T10:30:21.131Z</time></trkpt><trkpt lat="42.1980866" lon="13.6724331"><ele>631.0</ele><time>2026-05-02T10:30:22.131Z</time></trkpt><trkpt lat="42.1982435" lon="13.6724723"><ele>631.0</ele><time>2026-05-02T10:30:23.131Z</time></trkpt><trkpt lat="42.1983908" lon="13.672514"><ele>632.5</ele><time>2026-05-02T10:30:24.132Z</time></trkpt><trkpt lat="42.1985192" lon="13.6724425"><ele>634.0</ele><time>2026-05-02T10:30:25.131Z</time></trkpt><trkpt lat="42.1986242" lon="13.6723684"><ele>635.5</ele><time>2026-05-02T10:30:26.131Z</time></trkpt><trkpt lat="42.1986887" lon="13.6722433"><ele>637.0</ele><time>2026-05-02T10:30:27.132Z</time></trkpt><trkpt lat="42.1987091" lon="13.6720941"><ele>633.0</ele><time>2026-05-02T10:30:28.131Z</time></trkpt><trkpt lat="42.1987274" lon="13.6719285"><ele>629.0</ele><time>2026-05-02T10:30:29.131Z</time></trkpt><trkpt lat="42.1987024" lon="13.6717487"><ele>625.0</ele><time>2026-05-02T10:30:30.131Z</time></trkpt><trkpt lat="42.1987332" lon="13.6715627"><ele>621.0</ele><time>2026-05-02T10:30:31.131Z</time></trkpt><trkpt lat="42.1987917" lon="13.6713819"><ele>621.0</ele><time>2026-05-02T10:30:32.131Z</time></trkpt><trkpt lat="42.1988905" lon="13.6712133"><ele>621.0</ele><time>2026-05-02T10:30:33.131Z</time></trkpt><trkpt lat="42.1990185" lon="13.671059"><ele>621.0</ele><time>2026-05-02T10:30:34.131Z</time></trkpt><trkpt lat="42.1991458" lon="13.6708839"><ele>620.6666666666666</ele><time>2026-05-02T10:30:35.132Z</time></trkpt><trkpt lat="42.1992547" lon="13.670664"><ele>620.3333333333333</ele><time>2026-05-02T10:30:36.132Z</time></trkpt><trkpt lat="42.199341" lon="13.6704359"><ele>620.0</ele><time>2026-05-02T10:30:37.131Z</time></trkpt><trkpt lat="42.1994285" lon="13.6702165"><ele>620.0</ele><time>2026-05-02T10:30:38.132Z</time></trkpt><trkpt lat="42.1995331" lon="13.6700237"><ele>620.0</ele><time>2026-05-02T10:30:39.131Z</time></trkpt><trkpt lat="42.1996606" lon="13.6698371"><ele>620.0</ele><time>2026-05-02T10:30:40.131Z</time></trkpt><trkpt lat="42.1998086" lon="13.6696571"><ele>623.3333333333333</ele><time>2026-05-02T10:30:41.131Z</time></trkpt><trkpt lat="42.1999476" lon="13.6694924"><ele>626.6666666666666</ele><time>2026-05-02T10:30:42.132Z</time></trkpt><trkpt lat="42.2000761" lon="13.6693434"><ele>630.0</ele><time>2026-05-02T10:30:43.131Z</time></trkpt><trkpt lat="42.200186" lon="13.669195"><ele>630.0</ele><time>2026-05-02T10:30:44.132Z</time></trkpt><trkpt lat="42.2002714" lon="13.6690445"><ele>630.0</ele><time>2026-05-02T10:30:45.132Z</time></trkpt><trkpt lat="42.2003393" lon="13.6688843"><ele>630.0</ele><time>2026-05-02T10:30:46.132Z</time></trkpt><trkpt lat="42.2003916" lon="13.6687369"><ele>630.0</ele><time>2026-05-02T10:30:47.131Z</time></trkpt><trkpt lat="42.2004321" lon="13.6686157"><ele>630.0</ele><time>2026-05-02T10:30:48.131Z</time></trkpt><trkpt lat="42.2004782" lon="13.6684846"><ele>630.0</ele><time>2026-05-02T10:30:50.131Z</time></trkpt><trkpt lat="42.2004083" lon="13.6684444"><ele>630.0</ele><time>2026-05-02T10:30:53.131Z</time></trkpt><trkpt lat="42.2002697" lon="13.6685361"><ele>630.0</ele><time>2026-05-02T10:30:55.132Z</time></trkpt><trkpt lat="42.2001756" lon="13.6685988"><ele>630.0</ele><time>2026-05-02T10:30:56.132Z</time></trkpt><trkpt lat="42.2000692" lon="13.6686964"><ele>630.0</ele><time>2026-05-02T10:30:57.132Z</time></trkpt><trkpt lat="42.1999661" lon="13.6688235"><ele>630.0</ele><time>2026-05-02T10:30:58.131Z</time></trkpt><trkpt lat="42.1998747" lon="13.6689456"><ele>630.0</ele><time>2026-05-02T10:30:59.132Z</time></trkpt><trkpt lat="42.1997903" lon="13.669058"><ele>630.0</ele><time>2026-05-02T10:31:00.132Z</time></trkpt><trkpt lat="42.1997142" lon="13.6691566"><ele>628.3333333333334</ele><time>2026-05-02T10:31:01.132Z</time></trkpt><trkpt lat="42.1996561" lon="13.6692368"><ele>626.6666666666666</ele><time>2026-05-02T10:31:02.131Z</time></trkpt><trkpt lat="42.199611" lon="13.6693234"><ele>625.0</ele><time>2026-05-02T10:31:03.131Z</time></trkpt><trkpt lat="42.1995718" lon="13.6694121"><ele>623.3333333333333</ele><time>2026-05-02T10:31:04.132Z</time></trkpt><trkpt lat="42.1995223" lon="13.6694787"><ele>621.6666666666666</ele><time>2026-05-02T10:31:05.131Z</time></trkpt><trkpt lat="42.1994265" lon="13.6694993"><ele>620.0</ele><time>2026-05-02T10:31:07.132Z</time></trkpt><trkpt lat="42.1993891" lon="13.6693616"><ele>616.5</ele><time>2026-05-02T10:31:09.132Z</time></trkpt><trkpt lat="42.199411" lon="13.6692281"><ele>613.0</ele><time>2026-05-02T10:31:10.131Z</time></trkpt><trkpt lat="42.1994313" lon="13.6690848"><ele>609.5</ele><time>2026-05-02T10:31:11.131Z</time></trkpt><trkpt lat="42.1994467" lon="13.668914"><ele>606.0</ele><time>2026-05-02T10:31:12.132Z</time></trkpt><trkpt lat="42.1994484" lon="13.6687449"><ele>605.0</ele><time>2026-05-02T10:31:13.132Z</time></trkpt><trkpt lat="42.1994296" lon="13.6685692"><ele>604.0</ele><time>2026-05-02T10:31:14.132Z</time></trkpt><trkpt lat="42.1993873" lon="13.6683757"><ele>603.0</ele><time>2026-05-02T10:31:15.131Z</time></trkpt><trkpt lat="42.1993372" lon="13.6681817"><ele>602.0</ele><time>2026-05-02T10:31:16.131Z</time></trkpt><trkpt lat="42.1992902" lon="13.6680059"><ele>602.0</ele><time>2026-05-02T10:31:17.131Z</time></trkpt><trkpt lat="42.1992513" lon="13.6678437"><ele>602.0</ele><time>2026-05-02T10:31:18.132Z</time></trkpt><trkpt lat="42.1992182" lon="13.6676856"><ele>602.0</ele><time>2026-05-02T10:31:19.131Z</time></trkpt><trkpt lat="42.1991932" lon="13.6675412"><ele>602.0</ele><time>2026-05-02T10:31:20.132Z</time></trkpt><trkpt lat="42.1991613" lon="13.6674107"><ele>603.2</ele><time>2026-05-02T10:31:21.132Z</time></trkpt><trkpt lat="42.1990961" lon="13.6673425"><ele>604.4000000000001</ele><time>2026-05-02T10:31:22.132Z</time></trkpt><trkpt lat="42.199062" lon="13.6672633"><ele>605.5999999999999</ele><time>2026-05-02T10:31:23.132Z</time></trkpt><trkpt lat="42.1990358" lon="13.6671223"><ele>606.8</ele><time>2026-05-02T10:31:25.131Z</time></trkpt><trkpt lat="42.1990381" lon="13.6669668"><ele>608.0</ele><time>2026-05-02T10:31:27.131Z</time></trkpt><trkpt lat="42.1990993" lon="13.6668531"><ele>608.1666666666666</ele><time>2026-05-02T10:31:29.133Z</time></trkpt><trkpt lat="42.1991883" lon="13.6667905"><ele>608.3333333333333</ele><time>2026-05-02T10:31:31.131Z</time></trkpt><trkpt lat="42.1992636" lon="13.6667442"><ele>608.5</ele><time>2026-05-02T10:31:33.132Z</time></trkpt><trkpt lat="42.1992635" lon="13.666633"><ele>608.6666666666666</ele><time>2026-05-02T10:31:35.131Z</time></trkpt><trkpt lat="42.1992529" lon="13.6665425"><ele>608.8333333333334</ele><time>2026-05-02T10:31:36.133Z</time></trkpt><trkpt lat="42.1992482" lon="13.6664276"><ele>609.0</ele><time>2026-05-02T10:31:37.132Z</time></trkpt><trkpt lat="42.1992446" lon="13.6663034"><ele>609.0</ele><time>2026-05-02T10:31:38.131Z</time></trkpt><trkpt lat="42.1992524" lon="13.6661692"><ele>609.0</ele><time>2026-05-02T10:31:39.132Z</time></trkpt><trkpt lat="42.1992709" lon="13.6660469"><ele>609.0</ele><time>2026-05-02T10:31:40.131Z</time></trkpt><trkpt lat="42.1992908" lon="13.6659188"><ele>609.0</ele><time>2026-05-02T10:31:41.132Z</time></trkpt><trkpt lat="42.1993452" lon="13.6658336"><ele>609.0</ele><time>2026-05-02T10:31:42.131Z</time></trkpt><trkpt lat="42.1993926" lon="13.6657269"><ele>608.3333333333334</ele><time>2026-05-02T10:31:43.131Z</time></trkpt><trkpt lat="42.1994428" lon="13.6656314"><ele>607.6666666666666</ele><time>2026-05-02T10:31:44.131Z</time></trkpt><trkpt lat="42.1995062" lon="13.6655563"><ele>607.0</ele><time>2026-05-02T10:31:45.132Z</time></trkpt><trkpt lat="42.1995475" lon="13.6654575"><ele>606.3333333333333</ele><time>2026-05-02T10:31:46.132Z</time></trkpt><trkpt lat="42.1995911" lon="13.6653578"><ele>605.6666666666666</ele><time>2026-05-02T10:31:47.131Z</time></trkpt><trkpt lat="42.1996426" lon="13.6652856"><ele>605.0</ele><time>2026-05-02T10:31:48.131Z</time></trkpt><trkpt lat="42.1996968" lon="13.6652082"><ele>605.0</ele><time>2026-05-02T10:31:49.132Z</time></trkpt><trkpt lat="42.1997573" lon="13.6651435"><ele>605.0</ele><time>2026-05-02T10:31:50.132Z</time></trkpt><trkpt lat="42.1998166" lon="13.6650838"><ele>605.0</ele><time>2026-05-02T10:31:51.132Z</time></trkpt><trkpt lat="42.1998762" lon="13.6650277"><ele>605.0</ele><time>2026-05-02T10:31:52.131Z</time></trkpt><trkpt lat="42.1999396" lon="13.664987"><ele>605.0</ele><time>2026-05-02T10:31:53.132Z</time></trkpt><trkpt lat="42.2000469" lon="13.6648977"><ele>605.0</ele><time>2026-05-02T10:31:55.132Z</time></trkpt><trkpt lat="42.2001026" lon="13.6648572"><ele>605.0</ele><time>2026-05-02T10:31:56.131Z</time></trkpt><trkpt lat="42.2002207" lon="13.6647931"><ele>605.0</ele><time>2026-05-02T10:31:58.131Z</time></trkpt><trkpt lat="42.2003381" lon="13.6647503"><ele>605.0</ele><time>2026-05-02T10:32:00.132Z</time></trkpt><trkpt lat="42.2004587" lon="13.6646951"><ele>605.0</ele><time>2026-05-02T10:32:02.131Z</time></trkpt><trkpt lat="42.2005725" lon="13.6646256"><ele>604.0</ele><time>2026-05-02T10:32:04.132Z</time></trkpt><trkpt lat="42.2006814" lon="13.6645559"><ele>603.0</ele><time>2026-05-02T10:32:06.131Z</time></trkpt><trkpt lat="42.2007875" lon="13.6644943"><ele>602.0</ele><time>2026-05-02T10:32:08.132Z</time></trkpt><trkpt lat="42.2008849" lon="13.6644073"><ele>601.0</ele><time>2026-05-02T10:32:10.132Z</time></trkpt><trkpt lat="42.2009334" lon="13.6643415"><ele>600.0</ele><time>2026-05-02T10:32:11.131Z</time></trkpt><trkpt lat="42.200982" lon="13.6642775"><ele>597.0</ele><time>2026-05-02T10:32:12.131Z</time></trkpt><trkpt lat="42.2010773" lon="13.6641499"><ele>594.0</ele><time>2026-05-02T10:32:14.132Z</time></trkpt><trkpt lat="42.2011341" lon="13.6641075"><ele>591.0</ele><time>2026-05-02T10:32:15.131Z</time></trkpt><trkpt lat="42.2012492" lon="13.6640382"><ele>588.0</ele><time>2026-05-02T10:32:17.132Z</time></trkpt><trkpt lat="42.2013267" lon="13.6640351"><ele>585.0</ele><time>2026-05-02T10:32:18.133Z</time></trkpt><trkpt lat="42.2014133" lon="13.6640078"><ele>584.3333333333334</ele><time>2026-05-02T10:32:19.131Z</time></trkpt><trkpt lat="42.2015042" lon="13.66399"><ele>583.6666666666666</ele><time>2026-05-02T10:32:20.131Z</time></trkpt><trkpt lat="42.2015946" lon="13.6639537"><ele>583.0</ele><time>2026-05-02T10:32:21.131Z</time></trkpt><trkpt lat="42.2016718" lon="13.6639224"><ele>582.3333333333333</ele><time>2026-05-02T10:32:22.132Z</time></trkpt><trkpt lat="42.2017402" lon="13.6638928"><ele>581.6666666666666</ele><time>2026-05-02T10:32:23.132Z</time></trkpt><trkpt lat="42.2018359" lon="13.6638274"><ele>581.0</ele><time>2026-05-02T10:32:25.132Z</time></trkpt><trkpt lat="42.2018997" lon="13.6637265"><ele>578.6</ele><time>2026-05-02T10:32:27.132Z</time></trkpt><trkpt lat="42.2019736" lon="13.6635737"><ele>576.2</ele><time>2026-05-02T10:32:29.132Z</time></trkpt><trkpt lat="42.2020117" lon="13.6634675"><ele>573.8</ele><time>2026-05-02T10:32:30.131Z</time></trkpt><trkpt lat="42.2020575" lon="13.6633618"><ele>571.4</ele><time>2026-05-02T10:32:31.131Z</time></trkpt><trkpt lat="42.2021033" lon="13.6632451"><ele>569.0</ele><time>2026-05-02T10:32:32.132Z</time></trkpt><trkpt lat="42.2021499" lon="13.6631381"><ele>569.0</ele><time>2026-05-02T10:32:33.131Z</time></trkpt><trkpt lat="42.2022046" lon="13.6630097"><ele>569.0</ele><time>2026-05-02T10:32:34.131Z</time></trkpt><trkpt lat="42.2022546" lon="13.6628821"><ele>569.0</ele><time>2026-05-02T10:32:35.131Z</time></trkpt><trkpt lat="42.2022928" lon="13.6627413"><ele>569.0</ele><time>2026-05-02T10:32:36.131Z</time></trkpt><trkpt lat="42.2023347" lon="13.6625983"><ele>569.0</ele><time>2026-05-02T10:32:37.131Z</time></trkpt><trkpt lat="42.2023775" lon="13.6624482"><ele>569.0</ele><time>2026-05-02T10:32:38.131Z</time></trkpt><trkpt lat="42.2024214" lon="13.6623012"><ele>569.0</ele><time>2026-05-02T10:32:39.131Z</time></trkpt><trkpt lat="42.2024637" lon="13.6621541"><ele>569.0</ele><time>2026-05-02T10:32:40.132Z</time></trkpt><trkpt lat="42.2025044" lon="13.6620078"><ele>569.0</ele><time>2026-05-02T10:32:41.132Z</time></trkpt><trkpt lat="42.2025453" lon="13.6618631"><ele>568.2</ele><time>2026-05-02T10:32:42.133Z</time></trkpt><trkpt lat="42.2025784" lon="13.6617153"><ele>567.4</ele><time>2026-05-02T10:32:43.131Z</time></trkpt><trkpt lat="42.2026118" lon="13.6615784"><ele>566.6</ele><time>2026-05-02T10:32:44.131Z</time></trkpt><trkpt lat="42.2026518" lon="13.6614551"><ele>565.8</ele><time>2026-05-02T10:32:45.131Z</time></trkpt><trkpt lat="42.2026993" lon="13.6613275"><ele>565.0</ele><time>2026-05-02T10:32:46.131Z</time></trkpt><trkpt lat="42.2027489" lon="13.6612087"><ele>564.2</ele><time>2026-05-02T10:32:47.131Z</time></trkpt><trkpt lat="42.202789" lon="13.6610845"><ele>563.4</ele><time>2026-05-02T10:32:48.131Z</time></trkpt><trkpt lat="42.202827" lon="13.6609624"><ele>562.6</ele><time>2026-05-02T10:32:49.132Z</time></trkpt><trkpt lat="42.2028593" lon="13.6608367"><ele>561.8</ele><time>2026-05-02T10:32:50.131Z</time></trkpt><trkpt lat="42.202888" lon="13.6607013"><ele>561.0</ele><time>2026-05-02T10:32:51.131Z</time></trkpt><trkpt lat="42.2029166" lon="13.6605683"><ele>561.0</ele><time>2026-05-02T10:32:52.132Z</time></trkpt><trkpt lat="42.2029362" lon="13.6604295"><ele>561.0</ele><time>2026-05-02T10:32:53.131Z</time></trkpt><trkpt lat="42.2029577" lon="13.6602916"><ele>561.0</ele><time>2026-05-02T10:32:54.131Z</time></trkpt><trkpt lat="42.2029845" lon="13.6601547"><ele>561.0</ele><time>2026-05-02T10:32:55.132Z</time></trkpt><trkpt lat="42.2030202" lon="13.6600169"><ele>561.0</ele><time>2026-05-02T10:32:56.131Z</time></trkpt><trkpt lat="42.2030678" lon="13.6598734"><ele>559.75</ele><time>2026-05-02T10:32:57.132Z</time></trkpt><trkpt lat="42.2031231" lon="13.6597403"><ele>558.5</ele><time>2026-05-02T10:32:58.131Z</time></trkpt><trkpt lat="42.2031682" lon="13.6595911"><ele>557.25</ele><time>2026-05-02T10:32:59.132Z</time></trkpt><trkpt lat="42.2032143" lon="13.6594545"><ele>556.0</ele><time>2026-05-02T10:33:00.132Z</time></trkpt><trkpt lat="42.2032586" lon="13.6593164"><ele>553.6</ele><time>2026-05-02T10:33:01.132Z</time></trkpt><trkpt lat="42.2033012" lon="13.6591747"><ele>551.2</ele><time>2026-05-02T10:33:02.133Z</time></trkpt><trkpt lat="42.2033534" lon="13.6590521"><ele>548.8</ele><time>2026-05-02T10:33:03.132Z</time></trkpt><trkpt lat="42.2034014" lon="13.6589476"><ele>546.4</ele><time>2026-05-02T10:33:04.132Z</time></trkpt><trkpt lat="42.2034462" lon="13.6588557"><ele>544.0</ele><time>2026-05-02T10:33:05.131Z</time></trkpt><trkpt lat="42.203477" lon="13.6587802"><ele>544.0</ele><time>2026-05-02T10:33:06.131Z</time></trkpt><trkpt lat="42.2035208" lon="13.6586768"><ele>544.0</ele><time>2026-05-02T10:33:08.131Z</time></trkpt><trkpt lat="42.2035375" lon="13.6585726"><ele>544.0</ele><time>2026-05-02T10:33:11.131Z</time></trkpt><trkpt lat="42.203483" lon="13.6585177"><ele>544.0</ele><time>2026-05-02T10:33:13.131Z</time></trkpt><trkpt lat="42.2033378" lon="13.6584762"><ele>544.0</ele><time>2026-05-02T10:33:15.133Z</time></trkpt><trkpt lat="42.2032324" lon="13.6584379"><ele>540.75</ele><time>2026-05-02T10:33:16.133Z</time></trkpt><trkpt lat="42.2031089" lon="13.6583866"><ele>537.5</ele><time>2026-05-02T10:33:17.131Z</time></trkpt><trkpt lat="42.2029745" lon="13.6583258"><ele>534.25</ele><time>2026-05-02T10:33:18.131Z</time></trkpt><trkpt lat="42.2028522" lon="13.6582436"><ele>531.0</ele><time>2026-05-02T10:33:19.131Z</time></trkpt><trkpt lat="42.2027258" lon="13.6581339"><ele>531.0</ele><time>2026-05-02T10:33:20.131Z</time></trkpt><trkpt lat="42.2025943" lon="13.6579962"><ele>531.0</ele><time>2026-05-02T10:33:21.131Z</time></trkpt><trkpt lat="42.2024506" lon="13.6578479"><ele>531.0</ele><time>2026-05-02T10:33:22.131Z</time></trkpt><trkpt lat="42.2023194" lon="13.6577157"><ele>527.5</ele><time>2026-05-02T10:33:23.131Z</time></trkpt><trkpt lat="42.2021987" lon="13.6575987"><ele>524.0</ele><time>2026-05-02T10:33:24.132Z</time></trkpt><trkpt lat="42.2020682" lon="13.6575145"><ele>520.5</ele><time>2026-05-02T10:33:25.132Z</time></trkpt><trkpt lat="42.2019321" lon="13.6574755"><ele>517.0</ele><time>2026-05-02T10:33:26.132Z</time></trkpt><trkpt lat="42.2017733" lon="13.6574678"><ele>517.0</ele><time>2026-05-02T10:33:27.132Z</time></trkpt><trkpt lat="42.2016027" lon="13.657487"><ele>517.0</ele><time>2026-05-02T10:33:28.132Z</time></trkpt><trkpt lat="42.2014333" lon="13.6575225"><ele>517.0</ele><time>2026-05-02T10:33:29.133Z</time></trkpt><trkpt lat="42.201283" lon="13.6575682"><ele>518.0</ele><time>2026-05-02T10:33:30.132Z</time></trkpt><trkpt lat="42.2011381" lon="13.6576481"><ele>519.0</ele><time>2026-05-02T10:33:31.131Z</time></trkpt><trkpt lat="42.2010038" lon="13.6577805"><ele>520.0</ele><time>2026-05-02T10:33:32.131Z</time></trkpt><trkpt lat="42.20088" lon="13.6579364"><ele>520.0</ele><time>2026-05-02T10:33:33.131Z</time></trkpt><trkpt lat="42.2007641" lon="13.6580715"><ele>520.0</ele><time>2026-05-02T10:33:34.131Z</time></trkpt><trkpt lat="42.2006427" lon="13.658175"><ele>520.0</ele><time>2026-05-02T10:33:35.133Z</time></trkpt><trkpt lat="42.2004903" lon="13.6582395"><ele>516.0</ele><time>2026-05-02T10:33:36.131Z</time></trkpt><trkpt lat="42.2003154" lon="13.6582871"><ele>512.0</ele><time>2026-05-02T10:33:37.132Z</time></trkpt><trkpt lat="42.2001283" lon="13.6583307"><ele>508.0</ele><time>2026-05-02T10:33:38.131Z</time></trkpt><trkpt lat="42.1999538" lon="13.6583715"><ele>508.0</ele><time>2026-05-02T10:33:39.131Z</time></trkpt><trkpt lat="42.1997837" lon="13.658421"><ele>508.0</ele><time>2026-05-02T10:33:40.132Z</time></trkpt><trkpt lat="42.1996206" lon="13.6585009"><ele>508.0</ele><time>2026-05-02T10:33:41.132Z</time></trkpt><trkpt lat="42.1994671" lon="13.6586349"><ele>508.0</ele><time>2026-05-02T10:33:42.132Z</time></trkpt><trkpt lat="42.1993162" lon="13.658789"><ele>508.0</ele><time>2026-05-02T10:33:43.132Z</time></trkpt><trkpt lat="42.1991712" lon="13.6589383"><ele>508.0</ele><time>2026-05-02T10:33:44.131Z</time></trkpt><trkpt lat="42.1990419" lon="13.6590743"><ele>505.25</ele><time>2026-05-02T10:33:45.131Z</time></trkpt><trkpt lat="42.1989216" lon="13.6591796"><ele>502.5</ele><time>2026-05-02T10:33:46.132Z</time></trkpt><trkpt lat="42.1988147" lon="13.6592534"><ele>499.75</ele><time>2026-05-02T10:33:47.132Z</time></trkpt><trkpt lat="42.1986993" lon="13.6593082"><ele>497.0</ele><time>2026-05-02T10:33:48.133Z</time></trkpt><trkpt lat="42.1985818" lon="13.6592819"><ele>497.0</ele><time>2026-05-02T10:33:49.131Z</time></trkpt><trkpt lat="42.1984644" lon="13.6592606"><ele>497.00000000000006</ele><time>2026-05-02T10:33:50.13Z</time></trkpt><trkpt lat="42.1983682" lon="13.6592315"><ele>497.00000000000006</ele><time>2026-05-02T10:33:51.132Z</time></trkpt><trkpt lat="42.198287" lon="13.6591997"><ele>497.0</ele><time>2026-05-02T10:33:52.131Z</time></trkpt><trkpt lat="42.1981957" lon="13.659131"><ele>497.0</ele><time>2026-05-02T10:33:54.131Z</time></trkpt><trkpt lat="42.1981429" lon="13.659012"><ele>496.6</ele><time>2026-05-02T10:33:56.13Z</time></trkpt><trkpt lat="42.1981147" lon="13.658917"><ele>496.20000000000005</ele><time>2026-05-02T10:33:57.13Z</time></trkpt><trkpt lat="42.1980772" lon="13.6588006"><ele>495.8</ele><time>2026-05-02T10:33:58.13Z</time></trkpt><trkpt lat="42.198032" lon="13.6586628"><ele>495.4</ele><time>2026-05-02T10:33:59.131Z</time></trkpt><trkpt lat="42.1979754" lon="13.658507"><ele>495.0</ele><time>2026-05-02T10:34:00.131Z</time></trkpt><trkpt lat="42.197896" lon="13.6583399"><ele>494.33333333333337</ele><time>2026-05-02T10:34:01.132Z</time></trkpt><trkpt lat="42.1977917" lon="13.6581616"><ele>493.6666666666667</ele><time>2026-05-02T10:34:02.13Z</time></trkpt><trkpt lat="42.1976718" lon="13.6579734"><ele>493.0</ele><time>2026-05-02T10:34:03.13Z</time></trkpt><trkpt lat="42.1975398" lon="13.6577682"><ele>493.0</ele><time>2026-05-02T10:34:04.131Z</time></trkpt><trkpt lat="42.1973988" lon="13.6575467"><ele>493.0</ele><time>2026-05-02T10:34:05.132Z</time></trkpt><trkpt lat="42.197256" lon="13.6573256"><ele>493.0</ele><time>2026-05-02T10:34:06.13Z</time></trkpt><trkpt lat="42.1971049" lon="13.6570972"><ele>493.0</ele><time>2026-05-02T10:34:07.13Z</time></trkpt><trkpt lat="42.1969553" lon="13.656865"><ele>493.0</ele><time>2026-05-02T10:34:08.13Z</time></trkpt><trkpt lat="42.196806" lon="13.6566304"><ele>493.0</ele><time>2026-05-02T10:34:09.132Z</time></trkpt><trkpt lat="42.196655" lon="13.6563933"><ele>493.0</ele><time>2026-05-02T10:34:10.13Z</time></trkpt><trkpt lat="42.1965014" lon="13.6561511"><ele>495.6666666666667</ele><time>2026-05-02T10:34:11.131Z</time></trkpt><trkpt lat="42.1963499" lon="13.6559136"><ele>498.33333333333337</ele><time>2026-05-02T10:34:12.13Z</time></trkpt><trkpt lat="42.1962118" lon="13.6556932"><ele>501.0</ele><time>2026-05-02T10:34:13.131Z</time></trkpt><trkpt lat="42.1960816" lon="13.6554919"><ele>501.0</ele><time>2026-05-02T10:34:14.131Z</time></trkpt><trkpt lat="42.1959621" lon="13.6553046"><ele>501.0</ele><time>2026-05-02T10:34:15.13Z</time></trkpt><trkpt lat="42.1958537" lon="13.6551379"><ele>501.0</ele><time>2026-05-02T10:34:16.131Z</time></trkpt><trkpt lat="42.1957613" lon="13.6549706"><ele>502.33333333333337</ele><time>2026-05-02T10:34:17.132Z</time></trkpt><trkpt lat="42.1956838" lon="13.6547855"><ele>503.6666666666667</ele><time>2026-05-02T10:34:18.131Z</time></trkpt><trkpt lat="42.1956286" lon="13.6545734"><ele>505.0</ele><time>2026-05-02T10:34:19.131Z</time></trkpt><trkpt lat="42.1956086" lon="13.6543511"><ele>510.33333333333337</ele><time>2026-05-02T10:34:20.13Z</time></trkpt><trkpt lat="42.19562" lon="13.6541143"><ele>515.6666666666666</ele><time>2026-05-02T10:34:21.131Z</time></trkpt><trkpt lat="42.1956524" lon="13.6538602"><ele>521.0</ele><time>2026-05-02T10:34:22.131Z</time></trkpt><trkpt lat="42.1956945" lon="13.6535844"><ele>521.0</ele><time>2026-05-02T10:34:23.13Z</time></trkpt><trkpt lat="42.1957417" lon="13.6532955"><ele>521.0</ele><time>2026-05-02T10:34:24.132Z</time></trkpt><trkpt lat="42.1957903" lon="13.6529959"><ele>521.0</ele><time>2026-05-02T10:34:25.13Z</time></trkpt><trkpt lat="42.195842" lon="13.6526913"><ele>523.5</ele><time>2026-05-02T10:34:26.13Z</time></trkpt><trkpt lat="42.1958932" lon="13.652373"><ele>526.0</ele><time>2026-05-02T10:34:27.13Z</time></trkpt><trkpt lat="42.1959435" lon="13.6520499"><ele>528.5</ele><time>2026-05-02T10:34:28.132Z</time></trkpt><trkpt lat="42.1959946" lon="13.6517197"><ele>531.0</ele><time>2026-05-02T10:34:29.131Z</time></trkpt><trkpt lat="42.1960486" lon="13.6513828"><ele>533.0</ele><time>2026-05-02T10:34:30.132Z</time></trkpt><trkpt lat="42.1961078" lon="13.6510409"><ele>535.0</ele><time>2026-05-02T10:34:31.13Z</time></trkpt><trkpt lat="42.1961659" lon="13.6506977"><ele>535.0</ele><time>2026-05-02T10:34:32.131Z</time></trkpt><trkpt lat="42.1962216" lon="13.6503521"><ele>535.0</ele><time>2026-05-02T10:34:33.13Z</time></trkpt><trkpt lat="42.1962784" lon="13.6500161"><ele>538.5</ele><time>2026-05-02T10:34:34.131Z</time></trkpt><trkpt lat="42.1963313" lon="13.6497055"><ele>542.0</ele><time>2026-05-02T10:34:35.131Z</time></trkpt><trkpt lat="42.1963821" lon="13.6494104"><ele>542.6666666666666</ele><time>2026-05-02T10:34:36.13Z</time></trkpt><trkpt lat="42.1964257" lon="13.6491409"><ele>543.3333333333334</ele><time>2026-05-02T10:34:37.13Z</time></trkpt><trkpt lat="42.1964706" lon="13.6488917"><ele>544.0</ele><time>2026-05-02T10:34:38.131Z</time></trkpt><trkpt lat="42.196516" lon="13.6486554"><ele>544.75</ele><time>2026-05-02T10:34:39.131Z</time></trkpt><trkpt lat="42.1965579" lon="13.6484564"><ele>545.5</ele><time>2026-05-02T10:34:40.131Z</time></trkpt><trkpt lat="42.196588" lon="13.6482889"><ele>546.25</ele><time>2026-05-02T10:34:41.131Z</time></trkpt><trkpt lat="42.1965983" lon="13.648159"><ele>547.0</ele><time>2026-05-02T10:34:42.13Z</time></trkpt><trkpt lat="42.1965815" lon="13.6480598"><ele>547.0</ele><time>2026-05-02T10:34:43.131Z</time></trkpt><trkpt lat="42.1965393" lon="13.6479927"><ele>547.0</ele><time>2026-05-02T10:34:44.131Z</time></trkpt><trkpt lat="42.1964521" lon="13.6479342"><ele>547.0</ele><time>2026-05-02T10:34:46.131Z</time></trkpt><trkpt lat="42.1963481" lon="13.647938"><ele>547.0</ele><time>2026-05-02T10:34:48.13Z</time></trkpt><trkpt lat="42.196281" lon="13.6479896"><ele>547.0</ele><time>2026-05-02T10:34:49.13Z</time></trkpt><trkpt lat="42.1962032" lon="13.6480832"><ele>547.0</ele><time>2026-05-02T10:34:50.13Z</time></trkpt><trkpt lat="42.1961112" lon="13.6482"><ele>550.6666666666667</ele><time>2026-05-02T10:34:51.131Z</time></trkpt><trkpt lat="42.1959958" lon="13.6483188"><ele>554.3333333333334</ele><time>2026-05-02T10:34:52.132Z</time></trkpt><trkpt lat="42.1958686" lon="13.6484296"><ele>558.0</ele><time>2026-05-02T10:34:53.131Z</time></trkpt><trkpt lat="42.1957148" lon="13.6485352"><ele>561.6666666666666</ele><time>2026-05-02T10:34:54.131Z</time></trkpt><trkpt lat="42.1955491" lon="13.6486371"><ele>565.3333333333333</ele><time>2026-05-02T10:34:55.13Z</time></trkpt><trkpt lat="42.1953923" lon="13.648746"><ele>569.0</ele><time>2026-05-02T10:34:56.13Z</time></trkpt><trkpt lat="42.1952635" lon="13.6488937"><ele>569.0</ele><time>2026-05-02T10:34:57.131Z</time></trkpt><trkpt lat="42.1951428" lon="13.6490839"><ele>569.0</ele><time>2026-05-02T10:34:58.131Z</time></trkpt><trkpt lat="42.1950393" lon="13.6493053"><ele>569.0</ele><time>2026-05-02T10:34:59.131Z</time></trkpt><trkpt lat="42.1949368" lon="13.6495248"><ele>566.3333333333333</ele><time>2026-05-02T10:35:00.131Z</time></trkpt><trkpt lat="42.1948412" lon="13.6497203"><ele>563.6666666666666</ele><time>2026-05-02T10:35:01.13Z</time></trkpt><trkpt lat="42.1947292" lon="13.6498936"><ele>561.0</ele><time>2026-05-02T10:35:02.13Z</time></trkpt><trkpt lat="42.1945942" lon="13.6500517"><ele>564.0</ele><time>2026-05-02T10:35:03.131Z</time></trkpt><trkpt lat="42.1944339" lon="13.6501877"><ele>567.0</ele><time>2026-05-02T10:35:04.13Z</time></trkpt><trkpt lat="42.1942568" lon="13.6503228"><ele>570.0</ele><time>2026-05-02T10:35:05.131Z</time></trkpt><trkpt lat="42.1940715" lon="13.6504567"><ele>577.3333333333334</ele><time>2026-05-02T10:35:06.131Z</time></trkpt><trkpt lat="42.193891" lon="13.650589"><ele>584.6666666666667</ele><time>2026-05-02T10:35:07.13Z</time></trkpt><trkpt lat="42.1937327" lon="13.650734"><ele>592.0</ele><time>2026-05-02T10:35:08.131Z</time></trkpt><trkpt lat="42.193583" lon="13.6508946"><ele>592.0</ele><time>2026-05-02T10:35:09.132Z</time></trkpt><trkpt lat="42.1934415" lon="13.6510538"><ele>592.0</ele><time>2026-05-02T10:35:10.131Z</time></trkpt><trkpt lat="42.1933628" lon="13.6512547"><ele>592.0</ele><time>2026-05-02T10:35:11.13Z</time></trkpt><trkpt lat="42.1932933" lon="13.6514479"><ele>590.75</ele><time>2026-05-02T10:35:12.131Z</time></trkpt><trkpt lat="42.1932608" lon="13.6516314"><ele>589.5</ele><time>2026-05-02T10:35:13.13Z</time></trkpt><trkpt lat="42.1932701" lon="13.651827"><ele>588.25</ele><time>2026-05-02T10:35:14.13Z</time></trkpt><trkpt lat="42.1933044" lon="13.6520301"><ele>587.0</ele><time>2026-05-02T10:35:15.13Z</time></trkpt><trkpt lat="42.1933243" lon="13.6522429"><ele>587.0</ele><time>2026-05-02T10:35:16.131Z</time></trkpt><trkpt lat="42.1933194" lon="13.6524725"><ele>587.0</ele><time>2026-05-02T10:35:17.132Z</time></trkpt><trkpt lat="42.1932945" lon="13.6526919"><ele>587.0</ele><time>2026-05-02T10:35:18.13Z</time></trkpt><trkpt lat="42.1932651" lon="13.6528804"><ele>586.0</ele><time>2026-05-02T10:35:19.131Z</time></trkpt><trkpt lat="42.1932228" lon="13.6530304"><ele>585.0</ele><time>2026-05-02T10:35:20.13Z</time></trkpt><trkpt lat="42.1931671" lon="13.6531387"><ele>584.0</ele><time>2026-05-02T10:35:21.13Z</time></trkpt><trkpt lat="42.1930941" lon="13.6531816"><ele>583.0</ele><time>2026-05-02T10:35:22.131Z</time></trkpt><trkpt lat="42.1930209" lon="13.6532093"><ele>582.0</ele><time>2026-05-02T10:35:23.131Z</time></trkpt><trkpt lat="42.192997" lon="13.6530772"><ele>584.75</ele><time>2026-05-02T10:35:24.13Z</time></trkpt><trkpt lat="42.1929834" lon="13.6529658"><ele>587.5</ele><time>2026-05-02T10:35:25.131Z</time></trkpt><trkpt lat="42.1929993" lon="13.6528271"><ele>590.25</ele><time>2026-05-02T10:35:26.131Z</time></trkpt><trkpt lat="42.1930315" lon="13.6526628"><ele>593.0</ele><time>2026-05-02T10:35:27.131Z</time></trkpt><trkpt lat="42.1930605" lon="13.652468"><ele>597.0</ele><time>2026-05-02T10:35:28.13Z</time></trkpt><trkpt lat="42.1930538" lon="13.6523052"><ele>601.0</ele><time>2026-05-02T10:35:29.13Z</time></trkpt><trkpt lat="42.1930156" lon="13.6521822"><ele>605.0</ele><time>2026-05-02T10:35:30.13Z</time></trkpt><trkpt lat="42.1929802" lon="13.6520614"><ele>609.0</ele><time>2026-05-02T10:35:31.13Z</time></trkpt><trkpt lat="42.1928758" lon="13.6520535"><ele>613.0</ele><time>2026-05-02T10:35:33.13Z</time></trkpt><trkpt lat="42.1928082" lon="13.6521929"><ele>613.0</ele><time>2026-05-02T10:35:34.13Z</time></trkpt><trkpt lat="42.1927821" lon="13.6525187"><ele>613.0</ele><time>2026-05-02T10:35:35.13Z</time></trkpt><trkpt lat="42.1927063" lon="13.6526785"><ele>613.0</ele><time>2026-05-02T10:35:36.13Z</time></trkpt><trkpt lat="42.1926038" lon="13.6527995"><ele>613.0</ele><time>2026-05-02T10:35:37.13Z</time></trkpt><trkpt lat="42.1924984" lon="13.6528556"><ele>613.0</ele><time>2026-05-02T10:35:38.13Z</time></trkpt><trkpt lat="42.1924193" lon="13.6528484"><ele>613.0</ele><time>2026-05-02T10:35:39.13Z</time></trkpt><trkpt lat="42.1923776" lon="13.6527292"><ele>613.0</ele><time>2026-05-02T10:35:41.131Z</time></trkpt><trkpt lat="42.1924278" lon="13.6526518"><ele>613.0</ele><time>2026-05-02T10:35:42.13Z</time></trkpt><trkpt lat="42.1925158" lon="13.6525742"><ele>613.0</ele><time>2026-05-02T10:35:43.13Z</time></trkpt><trkpt lat="42.1926038" lon="13.6524824"><ele>613.0</ele><time>2026-05-02T10:35:44.131Z</time></trkpt><trkpt lat="42.1926832" lon="13.6523964"><ele>613.0</ele><time>2026-05-02T10:35:45.13Z</time></trkpt><trkpt lat="42.1926252" lon="13.6522663"><ele>613.0</ele><time>2026-05-02T10:35:46.131Z</time></trkpt><trkpt lat="42.1925744" lon="13.6522079"><ele>613.0</ele><time>2026-05-02T10:35:47.131Z</time></trkpt><trkpt lat="42.1924957" lon="13.6522005"><ele>613.0</ele><time>2026-05-02T10:35:48.131Z</time></trkpt><trkpt lat="42.1924009" lon="13.6522635"><ele>613.0</ele><time>2026-05-02T10:35:49.131Z</time></trkpt><trkpt lat="42.1923027" lon="13.6523658"><ele>613.0</ele><time>2026-05-02T10:35:50.131Z</time></trkpt><trkpt lat="42.1921917" lon="13.6524886"><ele>613.0</ele><time>2026-05-02T10:35:51.132Z</time></trkpt><trkpt lat="42.1920744" lon="13.6525968"><ele>617.6666666666667</ele><time>2026-05-02T10:35:52.131Z</time></trkpt><trkpt lat="42.1919305" lon="13.6526755"><ele>622.3333333333334</ele><time>2026-05-02T10:35:53.13Z</time></trkpt><trkpt lat="42.1917657" lon="13.6527276"><ele>627.0</ele><time>2026-05-02T10:35:54.13Z</time></trkpt><trkpt lat="42.1915833" lon="13.6527534"><ele>628.0</ele><time>2026-05-02T10:35:55.131Z</time></trkpt><trkpt lat="42.1914165" lon="13.6528065"><ele>629.0</ele><time>2026-05-02T10:35:56.131Z</time></trkpt><trkpt lat="42.1912585" lon="13.6528971"><ele>630.0</ele><time>2026-05-02T10:35:57.131Z</time></trkpt><trkpt lat="42.1911073" lon="13.6530318"><ele>630.0</ele><time>2026-05-02T10:35:58.13Z</time></trkpt><trkpt lat="42.1909552" lon="13.65319"><ele>630.0</ele><time>2026-05-02T10:35:59.131Z</time></trkpt><trkpt lat="42.1907961" lon="13.6533192"><ele>630.0</ele><time>2026-05-02T10:36:00.131Z</time></trkpt><trkpt lat="42.1906101" lon="13.6534174"><ele>632.3333333333334</ele><time>2026-05-02T10:36:01.13Z</time></trkpt><trkpt lat="42.1904164" lon="13.6535076"><ele>634.6666666666667</ele><time>2026-05-02T10:36:02.13Z</time></trkpt><trkpt lat="42.1902142" lon="13.6535904"><ele>637.0</ele><time>2026-05-02T10:36:03.13Z</time></trkpt><trkpt lat="42.1900363" lon="13.6536662"><ele>637.0</ele><time>2026-05-02T10:36:04.13Z</time></trkpt><trkpt lat="42.1898958" lon="13.6537347"><ele>637.0</ele><time>2026-05-02T10:36:05.13Z</time></trkpt><trkpt lat="42.1897927" lon="13.6538135"><ele>637.0</ele><time>2026-05-02T10:36:06.13Z</time></trkpt><trkpt lat="42.1897255" lon="13.6539158"><ele>637.0</ele><time>2026-05-02T10:36:07.131Z</time></trkpt><trkpt lat="42.1897073" lon="13.6540515"><ele>638.5</ele><time>2026-05-02T10:36:08.131Z</time></trkpt><trkpt lat="42.1897317" lon="13.6542077"><ele>640.0</ele><time>2026-05-02T10:36:09.13Z</time></trkpt><trkpt lat="42.1897856" lon="13.6543752"><ele>641.5</ele><time>2026-05-02T10:36:10.13Z</time></trkpt><trkpt lat="42.1898482" lon="13.6545701"><ele>643.0</ele><time>2026-05-02T10:36:11.131Z</time></trkpt><trkpt lat="42.1899074" lon="13.6547529"><ele>643.0</ele><time>2026-05-02T10:36:12.131Z</time></trkpt><trkpt lat="42.1899521" lon="13.6548963"><ele>643.0</ele><time>2026-05-02T10:36:13.132Z</time></trkpt><trkpt lat="42.1899689" lon="13.6550313"><ele>643.0</ele><time>2026-05-02T10:36:14.131Z</time></trkpt><trkpt lat="42.1899386" lon="13.6551468"><ele>643.0</ele><time>2026-05-02T10:36:15.13Z</time></trkpt><trkpt lat="42.1898707" lon="13.6552286"><ele>643.0</ele><time>2026-05-02T10:36:16.13Z</time></trkpt><trkpt lat="42.1897608" lon="13.6552952"><ele>646.0</ele><time>2026-05-02T10:36:17.131Z</time></trkpt><trkpt lat="42.1896264" lon="13.6553677"><ele>649.0</ele><time>2026-05-02T10:36:18.131Z</time></trkpt><trkpt lat="42.1894755" lon="13.6554554"><ele>652.0</ele><time>2026-05-02T10:36:19.13Z</time></trkpt><trkpt lat="42.1892999" lon="13.6555537"><ele>652.0</ele><time>2026-05-02T10:36:20.13Z</time></trkpt><trkpt lat="42.1891067" lon="13.6556547"><ele>652.0</ele><time>2026-05-02T10:36:21.13Z</time></trkpt><trkpt lat="42.1889055" lon="13.6557466"><ele>652.0</ele><time>2026-05-02T10:36:22.131Z</time></trkpt><trkpt lat="42.1887027" lon="13.6558325"><ele>654.3333333333334</ele><time>2026-05-02T10:36:23.13Z</time></trkpt><trkpt lat="42.1885237" lon="13.6559025"><ele>656.6666666666666</ele><time>2026-05-02T10:36:24.13Z</time></trkpt><trkpt lat="42.1883751" lon="13.6559703"><ele>659.0</ele><time>2026-05-02T10:36:25.13Z</time></trkpt><trkpt lat="42.1882666" lon="13.6560326"><ele>659.0</ele><time>2026-05-02T10:36:26.13Z</time></trkpt><trkpt lat="42.1881946" lon="13.6561086"><ele>659.0</ele><time>2026-05-02T10:36:27.131Z</time></trkpt><trkpt lat="42.1881699" lon="13.6561985"><ele>659.0</ele><time>2026-05-02T10:36:28.131Z</time></trkpt><trkpt lat="42.1881953" lon="13.6562802"><ele>659.0</ele><time>2026-05-02T10:36:29.13Z</time></trkpt><trkpt lat="42.1882556" lon="13.6563348"><ele>659.0</ele><time>2026-05-02T10:36:30.13Z</time></trkpt><trkpt lat="42.1883524" lon="13.6563534"><ele>659.0</ele><time>2026-05-02T10:36:31.131Z</time></trkpt><trkpt lat="42.1884575" lon="13.6563682"><ele>661.0</ele><time>2026-05-02T10:36:32.132Z</time></trkpt><trkpt lat="42.1886435" lon="13.6563277"><ele>663.0</ele><time>2026-05-02T10:36:33.131Z</time></trkpt><trkpt lat="42.1888239" lon="13.6563136"><ele>665.0</ele><time>2026-05-02T10:36:34.13Z</time></trkpt><trkpt lat="42.189007" lon="13.656294"><ele>663.75</ele><time>2026-05-02T10:36:35.13Z</time></trkpt><trkpt lat="42.1891675" lon="13.6562749"><ele>662.5</ele><time>2026-05-02T10:36:36.131Z</time></trkpt><trkpt lat="42.1893014" lon="13.6562625"><ele>661.25</ele><time>2026-05-02T10:36:37.13Z</time></trkpt><trkpt lat="42.1893971" lon="13.6562674"><ele>660.0</ele><time>2026-05-02T10:36:38.13Z</time></trkpt><trkpt lat="42.1894653" lon="13.6563165"><ele>660.0</ele><time>2026-05-02T10:36:39.131Z</time></trkpt><trkpt lat="42.1894936" lon="13.6563938"><ele>660.0</ele><time>2026-05-02T10:36:40.131Z</time></trkpt><trkpt lat="42.1894708" lon="13.6564752"><ele>660.0</ele><time>2026-05-02T10:36:41.132Z</time></trkpt><trkpt lat="42.1894022" lon="13.6565242"><ele>660.0</ele><time>2026-05-02T10:36:42.13Z</time></trkpt><trkpt lat="42.1893014" lon="13.6565402"><ele>660.0</ele><time>2026-05-02T10:36:43.13Z</time></trkpt><trkpt lat="42.1891656" lon="13.6565408"><ele>660.0</ele><time>2026-05-02T10:36:44.131Z</time></trkpt><trkpt lat="42.1890088" lon="13.6565449"><ele>661.6666666666666</ele><time>2026-05-02T10:36:45.132Z</time></trkpt><trkpt lat="42.1888271" lon="13.6565611"><ele>663.3333333333333</ele><time>2026-05-02T10:36:46.13Z</time></trkpt><trkpt lat="42.1886238" lon="13.6565645"><ele>665.0</ele><time>2026-05-02T10:36:47.13Z</time></trkpt><trkpt lat="42.188411" lon="13.6565645"><ele>665.0</ele><time>2026-05-02T10:36:48.13Z</time></trkpt><trkpt lat="42.1881921" lon="13.6565774"><ele>665.0</ele><time>2026-05-02T10:36:49.131Z</time></trkpt><trkpt lat="42.1879691" lon="13.6566058"><ele>665.0</ele><time>2026-05-02T10:36:50.131Z</time></trkpt><trkpt lat="42.1877421" lon="13.6566454"><ele>667.0</ele><time>2026-05-02T10:36:51.131Z</time></trkpt><trkpt lat="42.1875072" lon="13.6566975"><ele>669.0</ele><time>2026-05-02T10:36:52.13Z</time></trkpt><trkpt lat="42.1872712" lon="13.6567629"><ele>672.5</ele><time>2026-05-02T10:36:53.13Z</time></trkpt><trkpt lat="42.1870271" lon="13.6568263"><ele>676.0</ele><time>2026-05-02T10:36:54.131Z</time></trkpt><trkpt lat="42.1867838" lon="13.6568876"><ele>686.0</ele><time>2026-05-02T10:36:55.131Z</time></trkpt><trkpt lat="42.1865413" lon="13.6569527"><ele>696.0</ele><time>2026-05-02T10:36:56.131Z</time></trkpt><trkpt lat="42.1863036" lon="13.6570132"><ele>696.0</ele><time>2026-05-02T10:36:57.132Z</time></trkpt><trkpt lat="42.1860863" lon="13.6570602"><ele>696.0</ele><time>2026-05-02T10:36:58.13Z</time></trkpt><trkpt lat="42.1858788" lon="13.6570999"><ele>696.0</ele><time>2026-05-02T10:36:59.131Z</time></trkpt><trkpt lat="42.1856764" lon="13.6571512"><ele>694.0</ele><time>2026-05-02T10:37:00.13Z</time></trkpt><trkpt lat="42.1854957" lon="13.6572039"><ele>692.0</ele><time>2026-05-02T10:37:01.131Z</time></trkpt><trkpt lat="42.1853207" lon="13.6572746"><ele>690.0</ele><time>2026-05-02T10:37:02.13Z</time></trkpt><trkpt lat="42.1851515" lon="13.6573907"><ele>690.0</ele><time>2026-05-02T10:37:03.13Z</time></trkpt><trkpt lat="42.184984" lon="13.657547"><ele>690.0</ele><time>2026-05-02T10:37:04.132Z</time></trkpt><trkpt lat="42.1848338" lon="13.657703"><ele>690.0</ele><time>2026-05-02T10:37:05.131Z</time></trkpt><trkpt lat="42.1846939" lon="13.6578552"><ele>688.6666666666666</ele><time>2026-05-02T10:37:06.131Z</time></trkpt><trkpt lat="42.1845441" lon="13.6580136"><ele>687.3333333333333</ele><time>2026-05-02T10:37:07.131Z</time></trkpt><trkpt lat="42.1843893" lon="13.6581738"><ele>686.0</ele><time>2026-05-02T10:37:08.13Z</time></trkpt><trkpt lat="42.1842219" lon="13.658331"><ele>686.0</ele><time>2026-05-02T10:37:09.131Z</time></trkpt><trkpt lat="42.1840344" lon="13.6584827"><ele>686.0</ele><time>2026-05-02T10:37:10.13Z</time></trkpt><trkpt lat="42.1838286" lon="13.6586229"><ele>686.0</ele><time>2026-05-02T10:37:11.13Z</time></trkpt><trkpt lat="42.1836073" lon="13.6587605"><ele>687.0</ele><time>2026-05-02T10:37:12.131Z</time></trkpt><trkpt lat="42.1833786" lon="13.6588898"><ele>688.0</ele><time>2026-05-02T10:37:13.131Z</time></trkpt><trkpt lat="42.183142" lon="13.6590216"><ele>688.0</ele><time>2026-05-02T10:37:14.131Z</time></trkpt><trkpt lat="42.1829026" lon="13.6591459"><ele>688.0</ele><time>2026-05-02T10:37:15.13Z</time></trkpt><trkpt lat="42.18267" lon="13.6592755"><ele>688.0</ele><time>2026-05-02T10:37:16.13Z</time></trkpt><trkpt lat="42.1824494" lon="13.6594071"><ele>688.0</ele><time>2026-05-02T10:37:17.13Z</time></trkpt><trkpt lat="42.1822446" lon="13.6595385"><ele>686.5</ele><time>2026-05-02T10:37:18.132Z</time></trkpt><trkpt lat="42.1820447" lon="13.6596935"><ele>685.0</ele><time>2026-05-02T10:37:19.13Z</time></trkpt><trkpt lat="42.1818536" lon="13.659877"><ele>685.0</ele><time>2026-05-02T10:37:20.131Z</time></trkpt><trkpt lat="42.1816627" lon="13.6600866"><ele>685.0</ele><time>2026-05-02T10:37:21.13Z</time></trkpt><trkpt lat="42.1814762" lon="13.6603035"><ele>687.0</ele><time>2026-05-02T10:37:22.131Z</time></trkpt><trkpt lat="42.1813038" lon="13.6605104"><ele>689.0</ele><time>2026-05-02T10:37:23.13Z</time></trkpt><trkpt lat="42.181143" lon="13.6607263"><ele>689.0</ele><time>2026-05-02T10:37:24.13Z</time></trkpt><trkpt lat="42.1810017" lon="13.6609281"><ele>689.0</ele><time>2026-05-02T10:37:25.13Z</time></trkpt><trkpt lat="42.1808764" lon="13.661117"><ele>689.0</ele><time>2026-05-02T10:37:26.131Z</time></trkpt><trkpt lat="42.1807597" lon="13.6612806"><ele>689.25</ele><time>2026-05-02T10:37:27.131Z</time></trkpt><trkpt lat="42.1806529" lon="13.661426"><ele>689.5</ele><time>2026-05-02T10:37:28.13Z</time></trkpt><trkpt lat="42.1805414" lon="13.6615488"><ele>689.75</ele><time>2026-05-02T10:37:29.132Z</time></trkpt><trkpt lat="42.1804217" lon="13.6616739"><ele>690.0</ele><time>2026-05-02T10:37:30.13Z</time></trkpt><trkpt lat="42.1802934" lon="13.6618118"><ele>687.6666666666666</ele><time>2026-05-02T10:37:31.131Z</time></trkpt><trkpt lat="42.1801518" lon="13.6619498"><ele>685.3333333333333</ele><time>2026-05-02T10:37:32.131Z</time></trkpt><trkpt lat="42.1800135" lon="13.6620783"><ele>683.0</ele><time>2026-05-02T10:37:33.131Z</time></trkpt><trkpt lat="42.1798746" lon="13.6622282"><ele>684.0</ele><time>2026-05-02T10:37:34.131Z</time></trkpt><trkpt lat="42.1797389" lon="13.6623928"><ele>685.0</ele><time>2026-05-02T10:37:35.131Z</time></trkpt><trkpt lat="42.1796159" lon="13.6625596"><ele>686.0</ele><time>2026-05-02T10:37:36.131Z</time></trkpt><trkpt lat="42.179497" lon="13.6627236"><ele>686.25</ele><time>2026-05-02T10:37:37.13Z</time></trkpt><trkpt lat="42.179385" lon="13.6628749"><ele>686.5</ele><time>2026-05-02T10:37:38.131Z</time></trkpt><trkpt lat="42.1792811" lon="13.6630182"><ele>686.75</ele><time>2026-05-02T10:37:39.132Z</time></trkpt><trkpt lat="42.1791802" lon="13.6631526"><ele>687.0</ele><time>2026-05-02T10:37:40.131Z</time></trkpt><trkpt lat="42.1790856" lon="13.6632823"><ele>688.6666666666666</ele><time>2026-05-02T10:37:41.13Z</time></trkpt><trkpt lat="42.1789886" lon="13.6634234"><ele>690.3333333333333</ele><time>2026-05-02T10:37:42.131Z</time></trkpt><trkpt lat="42.1788716" lon="13.6635608"><ele>692.0</ele><time>2026-05-02T10:37:43.13Z</time></trkpt><trkpt lat="42.1787428" lon="13.6636957"><ele>692.6666666666666</ele><time>2026-05-02T10:37:44.131Z</time></trkpt><trkpt lat="42.1785838" lon="13.6638551"><ele>693.3333333333334</ele><time>2026-05-02T10:37:45.13Z</time></trkpt><trkpt lat="42.1784191" lon="13.6640016"><ele>694.0</ele><time>2026-05-02T10:37:46.131Z</time></trkpt><trkpt lat="42.1782438" lon="13.664138"><ele>695.3333333333334</ele><time>2026-05-02T10:37:47.13Z</time></trkpt><trkpt lat="42.1780705" lon="13.6642699"><ele>696.6666666666666</ele><time>2026-05-02T10:37:48.131Z</time></trkpt><trkpt lat="42.1779067" lon="13.6643871"><ele>698.0</ele><time>2026-05-02T10:37:49.132Z</time></trkpt><trkpt lat="42.1777603" lon="13.6644929"><ele>699.3333333333333</ele><time>2026-05-02T10:37:50.13Z</time></trkpt><trkpt lat="42.1776224" lon="13.6646013"><ele>700.6666666666666</ele><time>2026-05-02T10:37:51.13Z</time></trkpt><trkpt lat="42.1774833" lon="13.6647211"><ele>702.0</ele><time>2026-05-02T10:37:52.131Z</time></trkpt><trkpt lat="42.1773545" lon="13.6648519"><ele>705.0</ele><time>2026-05-02T10:37:53.13Z</time></trkpt><trkpt lat="42.1772382" lon="13.6649976"><ele>708.0</ele><time>2026-05-02T10:37:54.13Z</time></trkpt><trkpt lat="42.1771189" lon="13.6651636"><ele>711.0</ele><time>2026-05-02T10:37:55.132Z</time></trkpt><trkpt lat="42.1769972" lon="13.6653279"><ele>711.75</ele><time>2026-05-02T10:37:56.13Z</time></trkpt><trkpt lat="42.1768803" lon="13.6654734"><ele>712.5</ele><time>2026-05-02T10:37:57.131Z</time></trkpt><trkpt lat="42.1767673" lon="13.6655986"><ele>713.25</ele><time>2026-05-02T10:37:58.13Z</time></trkpt><trkpt lat="42.1766606" lon="13.6657126"><ele>714.0</ele><time>2026-05-02T10:37:59.13Z</time></trkpt><trkpt lat="42.1765449" lon="13.665829"><ele>716.6</ele><time>2026-05-02T10:38:00.131Z</time></trkpt><trkpt lat="42.1764412" lon="13.6659355"><ele>719.2</ele><time>2026-05-02T10:38:01.13Z</time></trkpt><trkpt lat="42.1763521" lon="13.6660394"><ele>721.8000000000001</ele><time>2026-05-02T10:38:02.131Z</time></trkpt><trkpt lat="42.1762695" lon="13.6660679"><ele>724.4000000000001</ele><time>2026-05-02T10:38:03.131Z</time></trkpt><trkpt lat="42.1761723" lon="13.6660809"><ele>727.0</ele><time>2026-05-02T10:38:04.131Z</time></trkpt><trkpt lat="42.1760649" lon="13.6660624"><ele>727.0</ele><time>2026-05-02T10:38:05.131Z</time></trkpt><trkpt lat="42.1759414" lon="13.666019"><ele>727.0</ele><time>2026-05-02T10:38:06.13Z</time></trkpt><trkpt lat="42.1757991" lon="13.6659734"><ele>727.0</ele><time>2026-05-02T10:38:07.13Z</time></trkpt><trkpt lat="42.1756502" lon="13.6659227"><ele>727.0</ele><time>2026-05-02T10:38:08.131Z</time></trkpt><trkpt lat="42.1755128" lon="13.6658605"><ele>730.0</ele><time>2026-05-02T10:38:09.13Z</time></trkpt><trkpt lat="42.1753798" lon="13.66578"><ele>733.0</ele><time>2026-05-02T10:38:10.13Z</time></trkpt><trkpt lat="42.1752246" lon="13.6656839"><ele>736.0</ele><time>2026-05-02T10:38:11.13Z</time></trkpt><trkpt lat="42.1750599" lon="13.6655795"><ele>736.0</ele><time>2026-05-02T10:38:12.13Z</time></trkpt><trkpt lat="42.1748844" lon="13.6654674"><ele>736.0</ele><time>2026-05-02T10:38:13.13Z</time></trkpt><trkpt lat="42.174696" lon="13.6653415"><ele>736.0</ele><time>2026-05-02T10:38:14.131Z</time></trkpt><trkpt lat="42.1745044" lon="13.6652148"><ele>740.3333333333334</ele><time>2026-05-02T10:38:15.13Z</time></trkpt><trkpt lat="42.174323" lon="13.6650921"><ele>744.6666666666666</ele><time>2026-05-02T10:38:16.131Z</time></trkpt><trkpt lat="42.1741475" lon="13.664969"><ele>749.0</ele><time>2026-05-02T10:38:17.13Z</time></trkpt><trkpt lat="42.1739716" lon="13.6648472"><ele>754.0</ele><time>2026-05-02T10:38:18.13Z</time></trkpt><trkpt lat="42.1737936" lon="13.6647273"><ele>759.0</ele><time>2026-05-02T10:38:19.131Z</time></trkpt><trkpt lat="42.1736274" lon="13.664619"><ele>764.0</ele><time>2026-05-02T10:38:20.132Z</time></trkpt><trkpt lat="42.173472" lon="13.6645162"><ele>765.3333333333333</ele><time>2026-05-02T10:38:21.13Z</time></trkpt><trkpt lat="42.173319" lon="13.6644164"><ele>766.6666666666666</ele><time>2026-05-02T10:38:22.13Z</time></trkpt><trkpt lat="42.173158" lon="13.6643028"><ele>768.0</ele><time>2026-05-02T10:38:23.132Z</time></trkpt><trkpt lat="42.1730018" lon="13.6641804"><ele>771.3333333333333</ele><time>2026-05-02T10:38:24.131Z</time></trkpt><trkpt lat="42.1728375" lon="13.664031"><ele>774.6666666666666</ele><time>2026-05-02T10:38:25.13Z</time></trkpt><trkpt lat="42.1726888" lon="13.6638929"><ele>778.0</ele><time>2026-05-02T10:38:26.131Z</time></trkpt><trkpt lat="42.1725482" lon="13.6637536"><ele>778.0</ele><time>2026-05-02T10:38:27.13Z</time></trkpt><trkpt lat="42.17243" lon="13.6636227"><ele>778.0</ele><time>2026-05-02T10:38:28.131Z</time></trkpt><trkpt lat="42.1723203" lon="13.6634837"><ele>778.0</ele><time>2026-05-02T10:38:29.13Z</time></trkpt><trkpt lat="42.1722341" lon="13.6633393"><ele>778.0</ele><time>2026-05-02T10:38:30.131Z</time></trkpt><trkpt lat="42.1721559" lon="13.6631676"><ele>781.6666666666666</ele><time>2026-05-02T10:38:31.13Z</time></trkpt><trkpt lat="42.1720804" lon="13.6629691"><ele>785.3333333333333</ele><time>2026-05-02T10:38:32.13Z</time></trkpt><trkpt lat="42.1719963" lon="13.6627557"><ele>789.0</ele><time>2026-05-02T10:38:33.13Z</time></trkpt><trkpt lat="42.171899" lon="13.6625313"><ele>790.0</ele><time>2026-05-02T10:38:34.131Z</time></trkpt><trkpt lat="42.1717893" lon="13.6623006"><ele>791.0</ele><time>2026-05-02T10:38:35.13Z</time></trkpt><trkpt lat="42.1716877" lon="13.6620918"><ele>792.0</ele><time>2026-05-02T10:38:36.13Z</time></trkpt><trkpt lat="42.1715834" lon="13.6618612"><ele>801.3333333333333</ele><time>2026-05-02T10:38:37.13Z</time></trkpt><trkpt lat="42.1714961" lon="13.6616575"><ele>810.6666666666666</ele><time>2026-05-02T10:38:38.13Z</time></trkpt><trkpt lat="42.171415" lon="13.6614697"><ele>820.0</ele><time>2026-05-02T10:38:39.13Z</time></trkpt><trkpt lat="42.1713459" lon="13.6613108"><ele>820.0</ele><time>2026-05-02T10:38:40.132Z</time></trkpt><trkpt lat="42.1712832" lon="13.6611639"><ele>820.0</ele><time>2026-05-02T10:38:41.132Z</time></trkpt><trkpt lat="42.1712151" lon="13.6610382"><ele>820.0</ele><time>2026-05-02T10:38:42.13Z</time></trkpt><trkpt lat="42.1711163" lon="13.6609419"><ele>820.0</ele><time>2026-05-02T10:38:43.13Z</time></trkpt><trkpt lat="42.1709861" lon="13.6608617"><ele>819.6666666666666</ele><time>2026-05-02T10:38:44.132Z</time></trkpt><trkpt lat="42.1708362" lon="13.6607945"><ele>819.3333333333333</ele><time>2026-05-02T10:38:45.131Z</time></trkpt><trkpt lat="42.1706686" lon="13.6607363"><ele>819.0</ele><time>2026-05-02T10:38:46.132Z</time></trkpt><trkpt lat="42.1704925" lon="13.6606579"><ele>825.3333333333333</ele><time>2026-05-02T10:38:47.13Z</time></trkpt><trkpt lat="42.1703146" lon="13.6605671"><ele>831.6666666666666</ele><time>2026-05-02T10:38:48.13Z</time></trkpt><trkpt lat="42.1701555" lon="13.6604708"><ele>838.0</ele><time>2026-05-02T10:38:49.13Z</time></trkpt><trkpt lat="42.1700175" lon="13.6603811"><ele>838.0</ele><time>2026-05-02T10:38:50.13Z</time></trkpt><trkpt lat="42.1698944" lon="13.6603066"><ele>838.0</ele><time>2026-05-02T10:38:51.13Z</time></trkpt><trkpt lat="42.1697627" lon="13.6602591"><ele>838.0</ele><time>2026-05-02T10:38:52.131Z</time></trkpt><trkpt lat="42.1696126" lon="13.660238"><ele>838.0</ele><time>2026-05-02T10:38:53.131Z</time></trkpt><trkpt lat="42.1694677" lon="13.6601911"><ele>843.0</ele><time>2026-05-02T10:38:54.131Z</time></trkpt><trkpt lat="42.169338" lon="13.6601338"><ele>848.0</ele><time>2026-05-02T10:38:55.132Z</time></trkpt><trkpt lat="42.1691865" lon="13.6600709"><ele>853.0</ele><time>2026-05-02T10:38:56.13Z</time></trkpt><trkpt lat="42.1690434" lon="13.6600093"><ele>858.0</ele><time>2026-05-02T10:38:57.13Z</time></trkpt><trkpt lat="42.1689307" lon="13.6599483"><ele>861.5</ele><time>2026-05-02T10:38:58.131Z</time></trkpt><trkpt lat="42.1688255" lon="13.6599135"><ele>865.0</ele><time>2026-05-02T10:38:59.131Z</time></trkpt><trkpt lat="42.1687248" lon="13.659927"><ele>868.5</ele><time>2026-05-02T10:39:00.13Z</time></trkpt><trkpt lat="42.1686094" lon="13.6599794"><ele>872.0</ele><time>2026-05-02T10:39:01.131Z</time></trkpt><trkpt lat="42.168478" lon="13.6600559"><ele>872.0</ele><time>2026-05-02T10:39:02.131Z</time></trkpt><trkpt lat="42.168332" lon="13.6601491"><ele>872.0</ele><time>2026-05-02T10:39:03.13Z</time></trkpt><trkpt lat="42.168174" lon="13.6602684"><ele>872.0</ele><time>2026-05-02T10:39:04.13Z</time></trkpt><trkpt lat="42.1680243" lon="13.6603901"><ele>876.3333333333334</ele><time>2026-05-02T10:39:05.131Z</time></trkpt><trkpt lat="42.1678767" lon="13.6605158"><ele>880.6666666666667</ele><time>2026-05-02T10:39:06.131Z</time></trkpt><trkpt lat="42.167724" lon="13.6606493"><ele>885.0</ele><time>2026-05-02T10:39:07.131Z</time></trkpt><trkpt lat="42.1675922" lon="13.6607604"><ele>885.0</ele><time>2026-05-02T10:39:08.132Z</time></trkpt><trkpt lat="42.1674563" lon="13.6608628"><ele>885.0</ele><time>2026-05-02T10:39:09.13Z</time></trkpt><trkpt lat="42.1673112" lon="13.6609621"><ele>885.0</ele><time>2026-05-02T10:39:10.13Z</time></trkpt><trkpt lat="42.1671687" lon="13.6610642"><ele>888.6666666666667</ele><time>2026-05-02T10:39:11.132Z</time></trkpt><trkpt lat="42.1670399" lon="13.6611766"><ele>892.3333333333334</ele><time>2026-05-02T10:39:12.131Z</time></trkpt><trkpt lat="42.1669126" lon="13.6613047"><ele>896.0</ele><time>2026-05-02T10:39:13.13Z</time></trkpt><trkpt lat="42.1667914" lon="13.6614462"><ele>896.0</ele><time>2026-05-02T10:39:14.13Z</time></trkpt><trkpt lat="42.1666906" lon="13.6615961"><ele>896.0</ele><time>2026-05-02T10:39:15.132Z</time></trkpt><trkpt lat="42.1665876" lon="13.6617772"><ele>896.0</ele><time>2026-05-02T10:39:16.131Z</time></trkpt><trkpt lat="42.1664738" lon="13.6619655"><ele>897.6666666666667</ele><time>2026-05-02T10:39:17.132Z</time></trkpt><trkpt lat="42.1663538" lon="13.6621421"><ele>899.3333333333333</ele><time>2026-05-02T10:39:18.13Z</time></trkpt><trkpt lat="42.1662351" lon="13.6623276"><ele>901.0</ele><time>2026-05-02T10:39:19.131Z</time></trkpt><trkpt lat="42.1661707" lon="13.6624139"><ele>900.9999999999999</ele><time>2026-05-02T10:39:20.13Z</time></trkpt><trkpt lat="42.1660997" lon="13.6624902"><ele>901.0</ele><time>2026-05-02T10:39:21.128Z</time></trkpt><trkpt lat="42.1660146" lon="13.6625419"><ele>901.0</ele><time>2026-05-02T10:39:23.131Z</time></trkpt><trkpt lat="42.1659491" lon="13.6625704"><ele>901.0</ele><time>2026-05-02T10:39:28.131Z</time></trkpt><trkpt lat="42.165874" lon="13.6626575"><ele>900.9999999999999</ele><time>2026-05-02T10:39:30.13Z</time></trkpt><trkpt lat="42.1658176" lon="13.662711"><ele>901.0</ele><time>2026-05-02T10:39:31.13Z</time></trkpt><trkpt lat="42.165757" lon="13.6627692"><ele>904.0</ele><time>2026-05-02T10:39:32.131Z</time></trkpt><trkpt lat="42.1656866" lon="13.6628224"><ele>906.9999999999999</ele><time>2026-05-02T10:39:33.131Z</time></trkpt><trkpt lat="42.1655869" lon="13.6628556"><ele>909.9999999999999</ele><time>2026-05-02T10:39:34.131Z</time></trkpt><trkpt lat="42.1654798" lon="13.6628758"><ele>913.0</ele><time>2026-05-02T10:39:35.13Z</time></trkpt><trkpt lat="42.1653732" lon="13.6628836"><ele>916.0</ele><time>2026-05-02T10:39:36.13Z</time></trkpt><trkpt lat="42.1652666" lon="13.6629105"><ele>916.0</ele><time>2026-05-02T10:39:37.131Z</time></trkpt><trkpt lat="42.1651711" lon="13.6629388"><ele>915.9999999999999</ele><time>2026-05-02T10:39:38.13Z</time></trkpt><trkpt lat="42.165068" lon="13.66297"><ele>915.9999999999999</ele><time>2026-05-02T10:39:39.131Z</time></trkpt><trkpt lat="42.1649719" lon="13.6630495"><ele>916.0</ele><time>2026-05-02T10:39:41.13Z</time></trkpt><trkpt lat="42.1648551" lon="13.6631279"><ele>916.0</ele><time>2026-05-02T10:39:43.131Z</time></trkpt><trkpt lat="42.1647899" lon="13.6631663"><ele>917.1999999999999</ele><time>2026-05-02T10:39:44.13Z</time></trkpt><trkpt lat="42.16472" lon="13.6632019"><ele>918.3999999999999</ele><time>2026-05-02T10:39:45.131Z</time></trkpt><trkpt lat="42.1646601" lon="13.6632384"><ele>919.6</ele><time>2026-05-02T10:39:46.13Z</time></trkpt><trkpt lat="42.1645551" lon="13.663343"><ele>920.8</ele><time>2026-05-02T10:39:48.13Z</time></trkpt><trkpt lat="42.1644884" lon="13.6634204"><ele>922.0</ele><time>2026-05-02T10:39:49.132Z</time></trkpt><trkpt lat="42.1644143" lon="13.6635101"><ele>922.0</ele><time>2026-05-02T10:39:50.13Z</time></trkpt><trkpt lat="42.1643404" lon="13.6635878"><ele>922.0</ele><time>2026-05-02T10:39:51.131Z</time></trkpt><trkpt lat="42.1642633" lon="13.6636662"><ele>922.0</ele><time>2026-05-02T10:39:52.13Z</time></trkpt><trkpt lat="42.1641817" lon="13.6637165"><ele>922.0</ele><time>2026-05-02T10:39:53.13Z</time></trkpt><trkpt lat="42.1641006" lon="13.6637778"><ele>922.0</ele><time>2026-05-02T10:39:54.13Z</time></trkpt><trkpt lat="42.164031" lon="13.6638379"><ele>924.6</ele><time>2026-05-02T10:39:55.131Z</time></trkpt><trkpt lat="42.1639581" lon="13.6639124"><ele>927.2</ele><time>2026-05-02T10:39:56.131Z</time></trkpt><trkpt lat="42.1638804" lon="13.6639934"><ele>929.8</ele><time>2026-05-02T10:39:57.13Z</time></trkpt><trkpt lat="42.1638041" lon="13.6640797"><ele>932.4</ele><time>2026-05-02T10:39:58.13Z</time></trkpt><trkpt lat="42.1637187" lon="13.6641453"><ele>935.0</ele><time>2026-05-02T10:39:59.131Z</time></trkpt><trkpt lat="42.1636309" lon="13.6642174"><ele>935.0</ele><time>2026-05-02T10:40:00.131Z</time></trkpt><trkpt lat="42.1635482" lon="13.6642858"><ele>935.0</ele><time>2026-05-02T10:40:01.13Z</time></trkpt><trkpt lat="42.1634845" lon="13.6643772"><ele>935.0</ele><time>2026-05-02T10:40:02.13Z</time></trkpt><trkpt lat="42.1634141" lon="13.6644644"><ele>935.0</ele><time>2026-05-02T10:40:03.131Z</time></trkpt><trkpt lat="42.1633523" lon="13.6645614"><ele>935.0</ele><time>2026-05-02T10:40:04.13Z</time></trkpt><trkpt lat="42.1632689" lon="13.6646741"><ele>935.6</ele><time>2026-05-02T10:40:05.131Z</time></trkpt><trkpt lat="42.1631984" lon="13.6647853"><ele>936.2</ele><time>2026-05-02T10:40:06.13Z</time></trkpt><trkpt lat="42.1631294" lon="13.6648835"><ele>936.8</ele><time>2026-05-02T10:40:07.131Z</time></trkpt><trkpt lat="42.1630632" lon="13.6649647"><ele>937.4</ele><time>2026-05-02T10:40:08.13Z</time></trkpt><trkpt lat="42.1630066" lon="13.6650558"><ele>938.0</ele><time>2026-05-02T10:40:09.131Z</time></trkpt><trkpt lat="42.1629624" lon="13.6651611"><ele>937.8</ele><time>2026-05-02T10:40:10.13Z</time></trkpt><trkpt lat="42.1629138" lon="13.6652745"><ele>937.5999999999999</ele><time>2026-05-02T10:40:11.131Z</time></trkpt><trkpt lat="42.1628655" lon="13.6653849"><ele>937.4000000000001</ele><time>2026-05-02T10:40:12.13Z</time></trkpt><trkpt lat="42.1628065" lon="13.6655173"><ele>937.2</ele><time>2026-05-02T10:40:13.131Z</time></trkpt><trkpt lat="42.1627535" lon="13.6656537"><ele>937.0</ele><time>2026-05-02T10:40:14.131Z</time></trkpt><trkpt lat="42.162701" lon="13.6657845"><ele>937.0</ele><time>2026-05-02T10:40:15.131Z</time></trkpt><trkpt lat="42.1626557" lon="13.6658979"><ele>937.0</ele><time>2026-05-02T10:40:16.131Z</time></trkpt><trkpt lat="42.1626063" lon="13.6659921"><ele>937.0</ele><time>2026-05-02T10:40:17.131Z</time></trkpt><trkpt lat="42.1625435" lon="13.6660601"><ele>937.0</ele><time>2026-05-02T10:40:18.13Z</time></trkpt><trkpt lat="42.1624646" lon="13.6661359"><ele>937.0</ele><time>2026-05-02T10:40:19.13Z</time></trkpt><trkpt lat="42.1623756" lon="13.6662072"><ele>939.2</ele><time>2026-05-02T10:40:20.13Z</time></trkpt><trkpt lat="42.1622761" lon="13.6662704"><ele>941.4000000000001</ele><time>2026-05-02T10:40:21.13Z</time></trkpt><trkpt lat="42.1621751" lon="13.6663207"><ele>943.5999999999999</ele><time>2026-05-02T10:40:22.131Z</time></trkpt><trkpt lat="42.1620713" lon="13.6663705"><ele>945.8</ele><time>2026-05-02T10:40:23.131Z</time></trkpt><trkpt lat="42.1619767" lon="13.6664417"><ele>948.0</ele><time>2026-05-02T10:40:24.13Z</time></trkpt><trkpt lat="42.1618856" lon="13.6665182"><ele>948.0</ele><time>2026-05-02T10:40:25.131Z</time></trkpt><trkpt lat="42.1618024" lon="13.6666047"><ele>948.0</ele><time>2026-05-02T10:40:26.131Z</time></trkpt><trkpt lat="42.1617177" lon="13.6666895"><ele>948.0</ele><time>2026-05-02T10:40:27.131Z</time></trkpt><trkpt lat="42.1616263" lon="13.6667647"><ele>948.0</ele><time>2026-05-02T10:40:28.13Z</time></trkpt><trkpt lat="42.1615477" lon="13.6668278"><ele>948.0</ele><time>2026-05-02T10:40:29.131Z</time></trkpt><trkpt lat="42.1614918" lon="13.6668808"><ele>950.8333333333334</ele><time>2026-05-02T10:40:30.131Z</time></trkpt><trkpt lat="42.161413" lon="13.6669337"><ele>953.6666666666667</ele><time>2026-05-02T10:40:32.13Z</time></trkpt><trkpt lat="42.1613532" lon="13.666876"><ele>956.5</ele><time>2026-05-02T10:40:35.131Z</time></trkpt><trkpt lat="42.1614061" lon="13.666783"><ele>959.3333333333334</ele><time>2026-05-02T10:40:38.13Z</time></trkpt><trkpt lat="42.161364" lon="13.666708"><ele>962.1666666666667</ele><time>2026-05-02T10:40:54.13Z</time></trkpt><trkpt lat="42.1613296" lon="13.6667972"><ele>965.0</ele><time>2026-05-02T10:40:57.13Z</time></trkpt><trkpt lat="42.1612742" lon="13.6669263"><ele>963.0</ele><time>2026-05-02T10:40:59.131Z</time></trkpt><trkpt lat="42.161243" lon="13.6670095"><ele>961.0</ele><time>2026-05-02T10:41:00.13Z</time></trkpt><trkpt lat="42.1611737" lon="13.6671558"><ele>959.0</ele><time>2026-05-02T10:41:02.131Z</time></trkpt><trkpt lat="42.1611134" lon="13.6672433"><ele>957.0</ele><time>2026-05-02T10:41:03.13Z</time></trkpt><trkpt lat="42.16104" lon="13.6673453"><ele>955.0</ele><time>2026-05-02T10:41:04.13Z</time></trkpt><trkpt lat="42.1609586" lon="13.6674597"><ele>954.9999999999999</ele><time>2026-05-02T10:41:05.131Z</time></trkpt><trkpt lat="42.1608835" lon="13.6675845"><ele>955.0</ele><time>2026-05-02T10:41:06.131Z</time></trkpt><trkpt lat="42.1608072" lon="13.6676347"><ele>955.0</ele><time>2026-05-02T10:41:07.131Z</time></trkpt><trkpt lat="42.1607368" lon="13.6677113"><ele>955.0</ele><time>2026-05-02T10:41:08.13Z</time></trkpt><trkpt lat="42.1606727" lon="13.6677846"><ele>954.9999999999999</ele><time>2026-05-02T10:41:09.13Z</time></trkpt><trkpt lat="42.160609" lon="13.6678125"><ele>955.0</ele><time>2026-05-02T10:41:10.13Z</time></trkpt><trkpt lat="42.1605401" lon="13.667867"><ele>954.4</ele><time>2026-05-02T10:41:11.13Z</time></trkpt><trkpt lat="42.1604722" lon="13.667939"><ele>953.8</ele><time>2026-05-02T10:41:12.13Z</time></trkpt><trkpt lat="42.1603961" lon="13.6680203"><ele>953.2</ele><time>2026-05-02T10:41:13.13Z</time></trkpt><trkpt lat="42.1603193" lon="13.6680931"><ele>952.6</ele><time>2026-05-02T10:41:14.13Z</time></trkpt><trkpt lat="42.1602447" lon="13.668172"><ele>952.0</ele><time>2026-05-02T10:41:15.131Z</time></trkpt><trkpt lat="42.1601685" lon="13.6682601"><ele>952.0</ele><time>2026-05-02T10:41:16.131Z</time></trkpt><trkpt lat="42.1600954" lon="13.6683527"><ele>952.0</ele><time>2026-05-02T10:41:17.132Z</time></trkpt><trkpt lat="42.1600196" lon="13.6684429"><ele>952.0</ele><time>2026-05-02T10:41:18.13Z</time></trkpt><trkpt lat="42.1599396" lon="13.6685267"><ele>952.0</ele><time>2026-05-02T10:41:19.13Z</time></trkpt><trkpt lat="42.1598543" lon="13.6686023"><ele>952.0</ele><time>2026-05-02T10:41:20.131Z</time></trkpt><trkpt lat="42.1597722" lon="13.6686855"><ele>949.8</ele><time>2026-05-02T10:41:21.132Z</time></trkpt><trkpt lat="42.1596925" lon="13.6687629"><ele>947.6</ele><time>2026-05-02T10:41:22.131Z</time></trkpt><trkpt lat="42.1596195" lon="13.6688339"><ele>945.3999999999999</ele><time>2026-05-02T10:41:23.132Z</time></trkpt><trkpt lat="42.159568" lon="13.6689023"><ele>943.1999999999999</ele><time>2026-05-02T10:41:24.13Z</time></trkpt><trkpt lat="42.1595348" lon="13.668977"><ele>941.0</ele><time>2026-05-02T10:41:25.131Z</time></trkpt><trkpt lat="42.1595203" lon="13.6691556"><ele>941.0</ele><time>2026-05-02T10:41:27.13Z</time></trkpt><trkpt lat="42.1595267" lon="13.6692773"><ele>940.9999999999999</ele><time>2026-05-02T10:41:28.131Z</time></trkpt><trkpt lat="42.1595181" lon="13.669409"><ele>940.9999999999999</ele><time>2026-05-02T10:41:29.132Z</time></trkpt><trkpt lat="42.1594988" lon="13.6695632"><ele>941.0</ele><time>2026-05-02T10:41:30.131Z</time></trkpt><trkpt lat="42.1594788" lon="13.6696947"><ele>941.0</ele><time>2026-05-02T10:41:31.13Z</time></trkpt><trkpt lat="42.1594479" lon="13.6698062"><ele>941.1999999999999</ele><time>2026-05-02T10:41:32.13Z</time></trkpt><trkpt lat="42.1594083" lon="13.6699128"><ele>941.3999999999999</ele><time>2026-05-02T10:41:33.13Z</time></trkpt><trkpt lat="42.1593545" lon="13.6700113"><ele>941.6</ele><time>2026-05-02T10:41:34.131Z</time></trkpt><trkpt lat="42.1592993" lon="13.6700969"><ele>941.8</ele><time>2026-05-02T10:41:35.131Z</time></trkpt><trkpt lat="42.1592589" lon="13.6701922"><ele>942.0</ele><time>2026-05-02T10:41:36.131Z</time></trkpt><trkpt lat="42.1592211" lon="13.6703304"><ele>942.0</ele><time>2026-05-02T10:41:37.13Z</time></trkpt><trkpt lat="42.1591921" lon="13.6704649"><ele>942.0</ele><time>2026-05-02T10:41:38.131Z</time></trkpt><trkpt lat="42.1591834" lon="13.6705896"><ele>942.0</ele><time>2026-05-02T10:41:39.131Z</time></trkpt><trkpt lat="42.1591771" lon="13.6707488"><ele>942.0</ele><time>2026-05-02T10:41:40.13Z</time></trkpt><trkpt lat="42.1591799" lon="13.6709025"><ele>942.0</ele><time>2026-05-02T10:41:41.13Z</time></trkpt><trkpt lat="42.1591887" lon="13.6710605"><ele>942.2</ele><time>2026-05-02T10:41:42.131Z</time></trkpt><trkpt lat="42.1591967" lon="13.6712003"><ele>942.4000000000001</ele><time>2026-05-02T10:41:43.13Z</time></trkpt><trkpt lat="42.1592107" lon="13.6713524"><ele>942.5999999999999</ele><time>2026-05-02T10:41:44.13Z</time></trkpt><trkpt lat="42.1592141" lon="13.6714896"><ele>942.8</ele><time>2026-05-02T10:41:45.13Z</time></trkpt><trkpt lat="42.1592229" lon="13.6716031"><ele>943.0</ele><time>2026-05-02T10:41:46.13Z</time></trkpt><trkpt lat="42.1592395" lon="13.6717041"><ele>942.9999999999999</ele><time>2026-05-02T10:41:47.13Z</time></trkpt><trkpt lat="42.1592789" lon="13.6718131"><ele>943.0</ele><time>2026-05-02T10:41:48.131Z</time></trkpt><trkpt lat="42.1593322" lon="13.6718916"><ele>943.0</ele><time>2026-05-02T10:41:49.13Z</time></trkpt><trkpt lat="42.159394" lon="13.6719474"><ele>943.0</ele><time>2026-05-02T10:41:50.13Z</time></trkpt><trkpt lat="42.1594616" lon="13.6719886"><ele>942.9999999999999</ele><time>2026-05-02T10:41:51.13Z</time></trkpt><trkpt lat="42.1595146" lon="13.6720374"><ele>943.0</ele><time>2026-05-02T10:41:52.13Z</time></trkpt><trkpt lat="42.1595779" lon="13.6721744"><ele>941.8</ele><time>2026-05-02T10:41:54.13Z</time></trkpt><trkpt lat="42.1595943" lon="13.6722886"><ele>940.5999999999999</ele><time>2026-05-02T10:41:55.13Z</time></trkpt><trkpt lat="42.1596215" lon="13.6724257"><ele>939.4000000000001</ele><time>2026-05-02T10:41:56.131Z</time></trkpt><trkpt lat="42.1596518" lon="13.6725627"><ele>938.2</ele><time>2026-05-02T10:41:57.131Z</time></trkpt><trkpt lat="42.1596981" lon="13.6726966"><ele>937.0</ele><time>2026-05-02T10:41:58.131Z</time></trkpt><trkpt lat="42.1597531" lon="13.6728472"><ele>934.75</ele><time>2026-05-02T10:41:59.131Z</time></trkpt><trkpt lat="42.1598023" lon="13.6729867"><ele>932.5</ele><time>2026-05-02T10:42:00.13Z</time></trkpt><trkpt lat="42.1598609" lon="13.6731352"><ele>930.25</ele><time>2026-05-02T10:42:01.13Z</time></trkpt><trkpt lat="42.159928" lon="13.6732813"><ele>928.0</ele><time>2026-05-02T10:42:02.131Z</time></trkpt><trkpt lat="42.1599953" lon="13.6734294"><ele>933.5</ele><time>2026-05-02T10:42:03.131Z</time></trkpt><trkpt lat="42.1600605" lon="13.6735808"><ele>939.0</ele><time>2026-05-02T10:42:04.131Z</time></trkpt><trkpt lat="42.160125" lon="13.6737437"><ele>944.5</ele><time>2026-05-02T10:42:05.13Z</time></trkpt><trkpt lat="42.1601777" lon="13.6738879"><ele>950.0</ele><time>2026-05-02T10:42:06.132Z</time></trkpt><trkpt lat="42.1602362" lon="13.674034"><ele>950.0000000000001</ele><time>2026-05-02T10:42:07.13Z</time></trkpt><trkpt lat="42.1602894" lon="13.6741474"><ele>950.0</ele><time>2026-05-02T10:42:08.131Z</time></trkpt><trkpt lat="42.1603365" lon="13.6742425"><ele>950.0</ele><time>2026-05-02T10:42:09.132Z</time></trkpt><trkpt lat="42.160387" lon="13.6743098"><ele>950.0</ele><time>2026-05-02T10:42:10.13Z</time></trkpt><trkpt lat="42.1604472" lon="13.6743541"><ele>950.0000000000001</ele><time>2026-05-02T10:42:11.13Z</time></trkpt><trkpt lat="42.1605254" lon="13.674392"><ele>950.0</ele><time>2026-05-02T10:42:12.131Z</time></trkpt><trkpt lat="42.1606136" lon="13.6744296"><ele>949.6</ele><time>2026-05-02T10:42:13.131Z</time></trkpt><trkpt lat="42.1606935" lon="13.6744759"><ele>949.2</ele><time>2026-05-02T10:42:14.131Z</time></trkpt><trkpt lat="42.1607594" lon="13.6745432"><ele>948.8</ele><time>2026-05-02T10:42:15.13Z</time></trkpt><trkpt lat="42.160825" lon="13.6746334"><ele>948.4</ele><time>2026-05-02T10:42:16.131Z</time></trkpt><trkpt lat="42.1608904" lon="13.6747397"><ele>948.0</ele><time>2026-05-02T10:42:17.13Z</time></trkpt><trkpt lat="42.1609739" lon="13.6748676"><ele>951.25</ele><time>2026-05-02T10:42:18.13Z</time></trkpt><trkpt lat="42.1610536" lon="13.6749984"><ele>954.5</ele><time>2026-05-02T10:42:19.131Z</time></trkpt><trkpt lat="42.1611254" lon="13.6751243"><ele>957.75</ele><time>2026-05-02T10:42:20.13Z</time></trkpt><trkpt lat="42.1611899" lon="13.6752612"><ele>961.0</ele><time>2026-05-02T10:42:21.13Z</time></trkpt><trkpt lat="42.1612521" lon="13.6753828"><ele>962.4</ele><time>2026-05-02T10:42:22.13Z</time></trkpt><trkpt lat="42.1613153" lon="13.6755085"><ele>963.8</ele><time>2026-05-02T10:42:23.13Z</time></trkpt><trkpt lat="42.1613886" lon="13.6756547"><ele>965.1999999999999</ele><time>2026-05-02T10:42:24.131Z</time></trkpt><trkpt lat="42.1614538" lon="13.6757755"><ele>966.5999999999999</ele><time>2026-05-02T10:42:25.131Z</time></trkpt><trkpt lat="42.1615023" lon="13.6758778"><ele>968.0</ele><time>2026-05-02T10:42:26.13Z</time></trkpt><trkpt lat="42.161538" lon="13.6759956"><ele>968.0</ele><time>2026-05-02T10:42:27.13Z</time></trkpt><trkpt lat="42.1615724" lon="13.6761073"><ele>968.0</ele><time>2026-05-02T10:42:28.13Z</time></trkpt><trkpt lat="42.1616138" lon="13.6762288"><ele>968.0</ele><time>2026-05-02T10:42:29.13Z</time></trkpt><trkpt lat="42.1616381" lon="13.6763619"><ele>968.0</ele><time>2026-05-02T10:42:30.131Z</time></trkpt><trkpt lat="42.1616702" lon="13.6764836"><ele>968.0</ele><time>2026-05-02T10:42:31.13Z</time></trkpt><trkpt lat="42.1616991" lon="13.6765843"><ele>968.0000000000001</ele><time>2026-05-02T10:42:32.13Z</time></trkpt><trkpt lat="42.1617247" lon="13.6766758"><ele>968.0</ele><time>2026-05-02T10:42:33.13Z</time></trkpt><trkpt lat="42.1617499" lon="13.676763"><ele>968.0</ele><time>2026-05-02T10:42:34.13Z</time></trkpt><trkpt lat="42.161768" lon="13.6768453"><ele>968.0</ele><time>2026-05-02T10:42:35.13Z</time></trkpt><trkpt lat="42.1617794" lon="13.6769486"><ele>968.0000000000001</ele><time>2026-05-02T10:42:36.13Z</time></trkpt><trkpt lat="42.1617901" lon="13.6770719"><ele>968.0</ele><time>2026-05-02T10:42:37.132Z</time></trkpt><trkpt lat="42.161799" lon="13.6772101"><ele>966.25</ele><time>2026-05-02T10:42:38.131Z</time></trkpt><trkpt lat="42.1618174" lon="13.6773604"><ele>964.5</ele><time>2026-05-02T10:42:39.132Z</time></trkpt><trkpt lat="42.1618328" lon="13.6775097"><ele>962.75</ele><time>2026-05-02T10:42:40.131Z</time></trkpt><trkpt lat="42.1618486" lon="13.6776588"><ele>961.0</ele><time>2026-05-02T10:42:41.13Z</time></trkpt><trkpt lat="42.161845" lon="13.6778163"><ele>958.4</ele><time>2026-05-02T10:42:42.13Z</time></trkpt><trkpt lat="42.1618513" lon="13.6779703"><ele>955.8</ele><time>2026-05-02T10:42:43.131Z</time></trkpt><trkpt lat="42.1618652" lon="13.6781239"><ele>953.1999999999999</ele><time>2026-05-02T10:42:44.131Z</time></trkpt><trkpt lat="42.1618754" lon="13.6782674"><ele>950.5999999999999</ele><time>2026-05-02T10:42:45.131Z</time></trkpt><trkpt lat="42.1618844" lon="13.6784163"><ele>948.0</ele><time>2026-05-02T10:42:46.131Z</time></trkpt><trkpt lat="42.1618926" lon="13.6785658"><ele>946.0</ele><time>2026-05-02T10:42:47.131Z</time></trkpt><trkpt lat="42.1618999" lon="13.6787037"><ele>944.0</ele><time>2026-05-02T10:42:48.13Z</time></trkpt><trkpt lat="42.1619037" lon="13.6788452"><ele>942.0</ele><time>2026-05-02T10:42:49.131Z</time></trkpt><trkpt lat="42.1618987" lon="13.6789786"><ele>940.0</ele><time>2026-05-02T10:42:50.132Z</time></trkpt><trkpt lat="42.1618889" lon="13.6791081"><ele>938.0</ele><time>2026-05-02T10:42:51.131Z</time></trkpt><trkpt lat="42.1618682" lon="13.6792478"><ele>938.0000000000001</ele><time>2026-05-02T10:42:52.131Z</time></trkpt><trkpt lat="42.1618402" lon="13.6793809"><ele>938.0</ele><time>2026-05-02T10:42:53.13Z</time></trkpt><trkpt lat="42.1618195" lon="13.6795077"><ele>938.0</ele><time>2026-05-02T10:42:54.13Z</time></trkpt><trkpt lat="42.1617983" lon="13.6796142"><ele>938.0</ele><time>2026-05-02T10:42:55.131Z</time></trkpt><trkpt lat="42.1617807" lon="13.6797117"><ele>938.0000000000001</ele><time>2026-05-02T10:42:56.13Z</time></trkpt><trkpt lat="42.1617677" lon="13.6798015"><ele>938.0</ele><time>2026-05-02T10:42:57.13Z</time></trkpt><trkpt lat="42.1617587" lon="13.6798909"><ele>936.6666666666667</ele><time>2026-05-02T10:42:58.131Z</time></trkpt><trkpt lat="42.1617302" lon="13.6800177"><ele>935.3333333333334</ele><time>2026-05-02T10:43:00.13Z</time></trkpt><trkpt lat="42.1616731" lon="13.6800942"><ele>934.0</ele><time>2026-05-02T10:43:03.131Z</time></trkpt><trkpt lat="42.1616028" lon="13.6800869"><ele>932.6666666666667</ele><time>2026-05-02T10:43:07.132Z</time></trkpt><trkpt lat="42.1615642" lon="13.6799588"><ele>931.3333333333334</ele><time>2026-05-02T10:43:09.131Z</time></trkpt><trkpt lat="42.1615517" lon="13.6798719"><ele>930.0</ele><time>2026-05-02T10:43:10.13Z</time></trkpt><trkpt lat="42.1615359" lon="13.6797799"><ele>931.0</ele><time>2026-05-02T10:43:11.13Z</time></trkpt><trkpt lat="42.1615179" lon="13.6796705"><ele>932.0</ele><time>2026-05-02T10:43:12.13Z</time></trkpt><trkpt lat="42.1615047" lon="13.6795659"><ele>933.0</ele><time>2026-05-02T10:43:13.132Z</time></trkpt><trkpt lat="42.1614966" lon="13.6794665"><ele>934.0</ele><time>2026-05-02T10:43:14.13Z</time></trkpt><trkpt lat="42.1614903" lon="13.6793776"><ele>935.0</ele><time>2026-05-02T10:43:15.131Z</time></trkpt><trkpt lat="42.1614332" lon="13.679254"><ele>936.0</ele><time>2026-05-02T10:43:17.13Z</time></trkpt><trkpt lat="42.16137" lon="13.6792433"><ele>936.0</ele><time>2026-05-02T10:43:18.13Z</time></trkpt><trkpt lat="42.1612937" lon="13.6792567"><ele>935.9999999999999</ele><time>2026-05-02T10:43:19.13Z</time></trkpt><trkpt lat="42.1611925" lon="13.679296"><ele>935.9999999999999</ele><time>2026-05-02T10:43:20.131Z</time></trkpt><trkpt lat="42.1610921" lon="13.6793369"><ele>936.0</ele><time>2026-05-02T10:43:21.131Z</time></trkpt><trkpt lat="42.1609892" lon="13.679375"><ele>936.0</ele><time>2026-05-02T10:43:22.131Z</time></trkpt><trkpt lat="42.1608864" lon="13.6793966"><ele>936.0</ele><time>2026-05-02T10:43:23.13Z</time></trkpt><trkpt lat="42.1607748" lon="13.679409"><ele>935.9999999999999</ele><time>2026-05-02T10:43:24.132Z</time></trkpt><trkpt lat="42.1606623" lon="13.6794214"><ele>935.9999999999999</ele><time>2026-05-02T10:43:25.132Z</time></trkpt><trkpt lat="42.1605581" lon="13.6794407"><ele>936.0</ele><time>2026-05-02T10:43:26.131Z</time></trkpt><trkpt lat="42.1604668" lon="13.6794778"><ele>936.0</ele><time>2026-05-02T10:43:27.13Z</time></trkpt><trkpt lat="42.1603847" lon="13.6795272"><ele>932.1666666666666</ele><time>2026-05-02T10:43:28.13Z</time></trkpt><trkpt lat="42.1603051" lon="13.6795775"><ele>928.3333333333333</ele><time>2026-05-02T10:43:29.13Z</time></trkpt><trkpt lat="42.160225" lon="13.6796234"><ele>924.5</ele><time>2026-05-02T10:43:30.131Z</time></trkpt><trkpt lat="42.1601507" lon="13.6796604"><ele>920.6666666666666</ele><time>2026-05-02T10:43:31.131Z</time></trkpt><trkpt lat="42.1600831" lon="13.6797006"><ele>916.8333333333333</ele><time>2026-05-02T10:43:32.13Z</time></trkpt><trkpt lat="42.1600179" lon="13.6797462"><ele>913.0</ele><time>2026-05-02T10:43:33.13Z</time></trkpt><trkpt lat="42.1599616" lon="13.6798015"><ele>912.9999999999999</ele><time>2026-05-02T10:43:34.131Z</time></trkpt><trkpt lat="42.1599109" lon="13.6798653"><ele>913.0</ele><time>2026-05-02T10:43:35.13Z</time></trkpt><trkpt lat="42.1598686" lon="13.6799295"><ele>913.0</ele><time>2026-05-02T10:43:36.131Z</time></trkpt><trkpt lat="42.1597945" lon="13.6800348"><ele>913.0</ele><time>2026-05-02T10:43:38.13Z</time></trkpt><trkpt lat="42.1597114" lon="13.6800547"><ele>912.9999999999999</ele><time>2026-05-02T10:43:41.13Z</time></trkpt><trkpt lat="42.1596405" lon="13.679999"><ele>913.0</ele><time>2026-05-02T10:43:43.131Z</time></trkpt><trkpt lat="42.1595765" lon="13.6799064"><ele>909.8</ele><time>2026-05-02T10:43:45.131Z</time></trkpt><trkpt lat="42.1595193" lon="13.6798171"><ele>906.5999999999999</ele><time>2026-05-02T10:43:47.13Z</time></trkpt><trkpt lat="42.1594708" lon="13.6797178"><ele>903.4000000000001</ele><time>2026-05-02T10:43:49.131Z</time></trkpt><trkpt lat="42.1594159" lon="13.6795981"><ele>900.2</ele><time>2026-05-02T10:43:51.132Z</time></trkpt><trkpt lat="42.1593687" lon="13.6794607"><ele>897.0</ele><time>2026-05-02T10:43:53.13Z</time></trkpt><trkpt lat="42.1593465" lon="13.6793809"><ele>897.0</ele><time>2026-05-02T10:43:54.131Z</time></trkpt><trkpt lat="42.1593255" lon="13.6792887"><ele>897.0</ele><time>2026-05-02T10:43:55.13Z</time></trkpt><trkpt lat="42.1593003" lon="13.6791948"><ele>897.0</ele><time>2026-05-02T10:43:56.132Z</time></trkpt><trkpt lat="42.1592786" lon="13.6791005"><ele>897.0</ele><time>2026-05-02T10:43:57.131Z</time></trkpt><trkpt lat="42.1592555" lon="13.6790056"><ele>897.0</ele><time>2026-05-02T10:43:58.131Z</time></trkpt><trkpt lat="42.1592294" lon="13.6789151"><ele>897.0</ele><time>2026-05-02T10:43:59.13Z</time></trkpt><trkpt lat="42.1592012" lon="13.6788221"><ele>897.0</ele><time>2026-05-02T10:44:00.131Z</time></trkpt><trkpt lat="42.1591707" lon="13.6787281"><ele>897.0</ele><time>2026-05-02T10:44:01.13Z</time></trkpt><trkpt lat="42.1591359" lon="13.6786232"><ele>897.0</ele><time>2026-05-02T10:44:02.13Z</time></trkpt><trkpt lat="42.1590992" lon="13.6785214"><ele>897.0</ele><time>2026-05-02T10:44:03.131Z</time></trkpt><trkpt lat="42.1590623" lon="13.678423"><ele>897.0</ele><time>2026-05-02T10:44:04.13Z</time></trkpt><trkpt lat="42.1590295" lon="13.6783178"><ele>897.0</ele><time>2026-05-02T10:44:05.132Z</time></trkpt><trkpt lat="42.1589987" lon="13.6782049"><ele>897.0</ele><time>2026-05-02T10:44:06.13Z</time></trkpt><trkpt lat="42.1589672" lon="13.6780787"><ele>892.6666666666666</ele><time>2026-05-02T10:44:07.13Z</time></trkpt><trkpt lat="42.1589321" lon="13.677951"><ele>888.3333333333333</ele><time>2026-05-02T10:44:08.131Z</time></trkpt><trkpt lat="42.158897" lon="13.677833"><ele>884.0</ele><time>2026-05-02T10:44:09.13Z</time></trkpt><trkpt lat="42.1588597" lon="13.6777251"><ele>879.6666666666666</ele><time>2026-05-02T10:44:10.131Z</time></trkpt><trkpt lat="42.1588264" lon="13.6776273"><ele>875.3333333333333</ele><time>2026-05-02T10:44:11.131Z</time></trkpt><trkpt lat="42.1587973" lon="13.6775338"><ele>871.0</ele><time>2026-05-02T10:44:12.131Z</time></trkpt><trkpt lat="42.1587705" lon="13.6774351"><ele>870.9999999999999</ele><time>2026-05-02T10:44:13.13Z</time></trkpt><trkpt lat="42.1587366" lon="13.6773347"><ele>871.0</ele><time>2026-05-02T10:44:14.131Z</time></trkpt><trkpt lat="42.1586992" lon="13.6772456"><ele>871.0</ele><time>2026-05-02T10:44:15.131Z</time></trkpt><trkpt lat="42.1586616" lon="13.6771574"><ele>871.0</ele><time>2026-05-02T10:44:16.131Z</time></trkpt><trkpt lat="42.1586224" lon="13.6770676"><ele>870.9999999999999</ele><time>2026-05-02T10:44:17.131Z</time></trkpt><trkpt lat="42.1585814" lon="13.6769787"><ele>871.0</ele><time>2026-05-02T10:44:18.131Z</time></trkpt><trkpt lat="42.1585342" lon="13.6768862"><ele>874.0</ele><time>2026-05-02T10:44:19.131Z</time></trkpt><trkpt lat="42.1584799" lon="13.6767808"><ele>876.9999999999999</ele><time>2026-05-02T10:44:20.13Z</time></trkpt><trkpt lat="42.1584279" lon="13.6766764"><ele>879.9999999999999</ele><time>2026-05-02T10:44:21.132Z</time></trkpt><trkpt lat="42.1583723" lon="13.6765709"><ele>883.0</ele><time>2026-05-02T10:44:22.131Z</time></trkpt><trkpt lat="42.158315" lon="13.6764644"><ele>886.0</ele><time>2026-05-02T10:44:23.13Z</time></trkpt><trkpt lat="42.1582559" lon="13.6763616"><ele>879.8333333333333</ele><time>2026-05-02T10:44:24.131Z</time></trkpt><trkpt lat="42.1582009" lon="13.6762555"><ele>873.6666666666666</ele><time>2026-05-02T10:44:25.13Z</time></trkpt><trkpt lat="42.1581488" lon="13.676147"><ele>867.5</ele><time>2026-05-02T10:44:26.131Z</time></trkpt><trkpt lat="42.1581013" lon="13.676044"><ele>861.3333333333333</ele><time>2026-05-02T10:44:27.13Z</time></trkpt><trkpt lat="42.1580527" lon="13.6759461"><ele>855.1666666666666</ele><time>2026-05-02T10:44:28.131Z</time></trkpt><trkpt lat="42.1580096" lon="13.6758554"><ele>849.0</ele><time>2026-05-02T10:44:29.131Z</time></trkpt><trkpt lat="42.1579672" lon="13.6757707"><ele>849.0</ele><time>2026-05-02T10:44:30.13Z</time></trkpt><trkpt lat="42.1579258" lon="13.6756915"><ele>849.0</ele><time>2026-05-02T10:44:31.132Z</time></trkpt><trkpt lat="42.1578877" lon="13.6756197"><ele>849.0</ele><time>2026-05-02T10:44:32.131Z</time></trkpt><trkpt lat="42.1578118" lon="13.6754914"><ele>849.0</ele><time>2026-05-02T10:44:34.131Z</time></trkpt><trkpt lat="42.1577502" lon="13.6753426"><ele>849.0</ele><time>2026-05-02T10:44:36.13Z</time></trkpt><trkpt lat="42.1577133" lon="13.6752601"><ele>849.8571428571429</ele><time>2026-05-02T10:44:37.13Z</time></trkpt><trkpt lat="42.1576792" lon="13.6751696"><ele>850.7142857142858</ele><time>2026-05-02T10:44:38.13Z</time></trkpt><trkpt lat="42.1576523" lon="13.6750757"><ele>851.5714285714287</ele><time>2026-05-02T10:44:39.13Z</time></trkpt><trkpt lat="42.1576291" lon="13.6749852"><ele>852.4285714285714</ele><time>2026-05-02T10:44:40.13Z</time></trkpt><trkpt lat="42.1576157" lon="13.6748893"><ele>853.2857142857142</ele><time>2026-05-02T10:44:41.131Z</time></trkpt><trkpt lat="42.1576088" lon="13.6747868"><ele>854.1428571428572</ele><time>2026-05-02T10:44:42.131Z</time></trkpt><trkpt lat="42.1576093" lon="13.6746819"><ele>855.0</ele><time>2026-05-02T10:44:43.13Z</time></trkpt><trkpt lat="42.1576108" lon="13.6745867"><ele>854.2</ele><time>2026-05-02T10:44:44.131Z</time></trkpt><trkpt lat="42.1576198" lon="13.6744322"><ele>853.4</ele><time>2026-05-02T10:44:46.13Z</time></trkpt><trkpt lat="42.1576727" lon="13.6743049"><ele>852.5999999999999</ele><time>2026-05-02T10:44:48.13Z</time></trkpt><trkpt lat="42.1576779" lon="13.674218"><ele>851.8</ele><time>2026-05-02T10:44:50.132Z</time></trkpt><trkpt lat="42.1576096" lon="13.6742512"><ele>851.0</ele><time>2026-05-02T10:44:51.131Z</time></trkpt><trkpt lat="42.157532" lon="13.6743471"><ele>851.0000000000001</ele><time>2026-05-02T10:44:53.13Z</time></trkpt><trkpt lat="42.157491" lon="13.6744282"><ele>851.0</ele><time>2026-05-02T10:44:54.131Z</time></trkpt><trkpt lat="42.1574565" lon="13.6745023"><ele>851.0</ele><time>2026-05-02T10:44:55.13Z</time></trkpt><trkpt lat="42.1574254" lon="13.6745791"><ele>851.0</ele><time>2026-05-02T10:44:56.131Z</time></trkpt><trkpt lat="42.1574011" lon="13.6747454"><ele>851.0000000000001</ele><time>2026-05-02T10:44:58.13Z</time></trkpt><trkpt lat="42.1573914" lon="13.6748328"><ele>851.0</ele><time>2026-05-02T10:44:59.131Z</time></trkpt><trkpt lat="42.1573858" lon="13.6749223"><ele>844.3333333333334</ele><time>2026-05-02T10:45:00.13Z</time></trkpt><trkpt lat="42.1573537" lon="13.6750427"><ele>837.6666666666667</ele><time>2026-05-02T10:45:02.13Z</time></trkpt><trkpt lat="42.1572863" lon="13.6750174"><ele>831.0</ele><time>2026-05-02T10:45:04.13Z</time></trkpt><trkpt lat="42.15724" lon="13.6749114"><ele>824.3333333333333</ele><time>2026-05-02T10:45:06.131Z</time></trkpt><trkpt lat="42.1572229" lon="13.6748201"><ele>817.6666666666666</ele><time>2026-05-02T10:45:07.131Z</time></trkpt><trkpt lat="42.1572097" lon="13.6747236"><ele>811.0</ele><time>2026-05-02T10:45:08.13Z</time></trkpt><trkpt lat="42.1572004" lon="13.6746255"><ele>811.0</ele><time>2026-05-02T10:45:09.13Z</time></trkpt><trkpt lat="42.157195" lon="13.6745356"><ele>811.0</ele><time>2026-05-02T10:45:10.13Z</time></trkpt><trkpt lat="42.1571812" lon="13.6743793"><ele>811.0</ele><time>2026-05-02T10:45:12.131Z</time></trkpt><trkpt lat="42.1571837" lon="13.6742275"><ele>811.0</ele><time>2026-05-02T10:45:14.13Z</time></trkpt><trkpt lat="42.1572046" lon="13.6740957"><ele>811.0</ele><time>2026-05-02T10:45:16.131Z</time></trkpt><trkpt lat="42.15721" lon="13.6739911"><ele>812.6666666666666</ele><time>2026-05-02T10:45:18.131Z</time></trkpt><trkpt lat="42.1571624" lon="13.6739278"><ele>814.3333333333333</ele><time>2026-05-02T10:45:20.131Z</time></trkpt><trkpt lat="42.1570952" lon="13.6739008"><ele>816.0</ele><time>2026-05-02T10:45:22.13Z</time></trkpt><trkpt lat="42.1570207" lon="13.6739345"><ele>817.6666666666667</ele><time>2026-05-02T10:45:24.131Z</time></trkpt><trkpt lat="42.1569594" lon="13.6739997"><ele>819.3333333333334</ele><time>2026-05-02T10:45:26.13Z</time></trkpt><trkpt lat="42.1569022" lon="13.6740779"><ele>821.0</ele><time>2026-05-02T10:45:28.13Z</time></trkpt><trkpt lat="42.1568534" lon="13.6741686"><ele>821.0</ele><time>2026-05-02T10:45:30.131Z</time></trkpt><trkpt lat="42.156846" lon="13.6742629"><ele>821.0</ele><time>2026-05-02T10:45:32.131Z</time></trkpt><trkpt lat="42.1568682" lon="13.6743854"><ele>821.0</ele><time>2026-05-02T10:45:34.13Z</time></trkpt><trkpt lat="42.1568536" lon="13.6745116"><ele>821.0</ele><time>2026-05-02T10:45:36.131Z</time></trkpt><trkpt lat="42.1568085" lon="13.6746659"><ele>821.0</ele><time>2026-05-02T10:45:38.13Z</time></trkpt><trkpt lat="42.1567789" lon="13.6747539"><ele>819.5714285714287</ele><time>2026-05-02T10:45:39.13Z</time></trkpt><trkpt lat="42.1567505" lon="13.6748485"><ele>818.1428571428571</ele><time>2026-05-02T10:45:40.13Z</time></trkpt><trkpt lat="42.1567196" lon="13.6749339"><ele>816.7142857142858</ele><time>2026-05-02T10:45:41.131Z</time></trkpt><trkpt lat="42.1566896" lon="13.6750254"><ele>815.2857142857143</ele><time>2026-05-02T10:45:42.131Z</time></trkpt><trkpt lat="42.1566563" lon="13.675111"><ele>813.8571428571429</ele><time>2026-05-02T10:45:43.131Z</time></trkpt><trkpt lat="42.1566206" lon="13.6751995"><ele>812.4285714285714</ele><time>2026-05-02T10:45:44.131Z</time></trkpt><trkpt lat="42.1565872" lon="13.6752963"><ele>811.0</ele><time>2026-05-02T10:45:45.13Z</time></trkpt><trkpt lat="42.1565596" lon="13.6753976"><ele>812.3333333333333</ele><time>2026-05-02T10:45:46.13Z</time></trkpt><trkpt lat="42.1565317" lon="13.6755033"><ele>813.6666666666666</ele><time>2026-05-02T10:45:47.131Z</time></trkpt><trkpt lat="42.1565073" lon="13.6756131"><ele>815.0</ele><time>2026-05-02T10:45:48.13Z</time></trkpt><trkpt lat="42.1564838" lon="13.6757092"><ele>816.3333333333333</ele><time>2026-05-02T10:45:49.131Z</time></trkpt><trkpt lat="42.1564385" lon="13.6758395"><ele>817.6666666666666</ele><time>2026-05-02T10:45:51.132Z</time></trkpt><trkpt lat="42.1564018" lon="13.6759208"><ele>819.0</ele><time>2026-05-02T10:45:53.132Z</time></trkpt><trkpt lat="42.1563939" lon="13.6760768"><ele>818.25</ele><time>2026-05-02T10:45:55.131Z</time></trkpt><trkpt lat="42.1564002" lon="13.6762049"><ele>817.5</ele><time>2026-05-02T10:45:56.132Z</time></trkpt><trkpt lat="42.1564121" lon="13.6763666"><ele>816.75</ele><time>2026-05-02T10:45:57.13Z</time></trkpt><trkpt lat="42.1564303" lon="13.676523"><ele>816.0</ele><time>2026-05-02T10:45:58.131Z</time></trkpt><trkpt lat="42.1564552" lon="13.6766812"><ele>816.0</ele><time>2026-05-02T10:45:59.131Z</time></trkpt><trkpt lat="42.1564788" lon="13.6768154"><ele>816.0</ele><time>2026-05-02T10:46:00.13Z</time></trkpt><trkpt lat="42.156495" lon="13.6769132"><ele>816.0</ele><time>2026-05-02T10:46:01.13Z</time></trkpt><trkpt lat="42.1565466" lon="13.6770471"><ele>816.0</ele><time>2026-05-02T10:46:03.13Z</time></trkpt><trkpt lat="42.1565893" lon="13.6771162"><ele>816.0</ele><time>2026-05-02T10:46:04.13Z</time></trkpt><trkpt lat="42.1566326" lon="13.6771907"><ele>816.0</ele><time>2026-05-02T10:46:05.131Z</time></trkpt><trkpt lat="42.1566708" lon="13.6772761"><ele>809.0</ele><time>2026-05-02T10:46:06.132Z</time></trkpt><trkpt lat="42.1567107" lon="13.6773797"><ele>802.0</ele><time>2026-05-02T10:46:07.131Z</time></trkpt><trkpt lat="42.1567479" lon="13.6774909"><ele>795.0</ele><time>2026-05-02T10:46:08.131Z</time></trkpt><trkpt lat="42.1567792" lon="13.6776223"><ele>788.0</ele><time>2026-05-02T10:46:09.13Z</time></trkpt><trkpt lat="42.1568076" lon="13.6777755"><ele>781.0</ele><time>2026-05-02T10:46:10.13Z</time></trkpt><trkpt lat="42.1568411" lon="13.6779489"><ele>780.25</ele><time>2026-05-02T10:46:11.131Z</time></trkpt><trkpt lat="42.1568956" lon="13.6781292"><ele>779.5</ele><time>2026-05-02T10:46:12.132Z</time></trkpt><trkpt lat="42.1569515" lon="13.6783152"><ele>778.75</ele><time>2026-05-02T10:46:13.131Z</time></trkpt><trkpt lat="42.1569956" lon="13.6785124"><ele>778.0</ele><time>2026-05-02T10:46:14.131Z</time></trkpt><trkpt lat="42.157036" lon="13.6787063"><ele>778.0</ele><time>2026-05-02T10:46:15.131Z</time></trkpt><trkpt lat="42.1570725" lon="13.6788794"><ele>778.0</ele><time>2026-05-02T10:46:16.13Z</time></trkpt><trkpt lat="42.1571124" lon="13.6790293"><ele>778.0</ele><time>2026-05-02T10:46:17.131Z</time></trkpt><trkpt lat="42.1571585" lon="13.679172"><ele>778.0</ele><time>2026-05-02T10:46:18.132Z</time></trkpt><trkpt lat="42.1572032" lon="13.6792823"><ele>778.0</ele><time>2026-05-02T10:46:19.131Z</time></trkpt><trkpt lat="42.1572318" lon="13.6793827"><ele>778.0</ele><time>2026-05-02T10:46:20.131Z</time></trkpt><trkpt lat="42.1572368" lon="13.6794979"><ele>778.0</ele><time>2026-05-02T10:46:21.13Z</time></trkpt><trkpt lat="42.1572232" lon="13.6796421"><ele>778.0</ele><time>2026-05-02T10:46:22.13Z</time></trkpt><trkpt lat="42.1572002" lon="13.6798099"><ele>778.0</ele><time>2026-05-02T10:46:23.131Z</time></trkpt><trkpt lat="42.1571775" lon="13.6799849"><ele>774.5</ele><time>2026-05-02T10:46:24.131Z</time></trkpt><trkpt lat="42.1571549" lon="13.6801552"><ele>771.0</ele><time>2026-05-02T10:46:25.131Z</time></trkpt><trkpt lat="42.1571274" lon="13.6803221"><ele>767.5</ele><time>2026-05-02T10:46:26.131Z</time></trkpt><trkpt lat="42.1570823" lon="13.6804909"><ele>764.0</ele><time>2026-05-02T10:46:27.13Z</time></trkpt><trkpt lat="42.1570235" lon="13.6806591"><ele>759.25</ele><time>2026-05-02T10:46:28.13Z</time></trkpt><trkpt lat="42.1569661" lon="13.6808192"><ele>754.5</ele><time>2026-05-02T10:46:29.13Z</time></trkpt><trkpt lat="42.1568906" lon="13.6809612"><ele>749.75</ele><time>2026-05-02T10:46:30.13Z</time></trkpt><trkpt lat="42.1568065" lon="13.6811019"><ele>745.0</ele><time>2026-05-02T10:46:31.13Z</time></trkpt><trkpt lat="42.1567029" lon="13.6812459"><ele>743.0</ele><time>2026-05-02T10:46:32.13Z</time></trkpt><trkpt lat="42.1565915" lon="13.6813978"><ele>741.0</ele><time>2026-05-02T10:46:33.131Z</time></trkpt><trkpt lat="42.1564839" lon="13.6815392"><ele>739.0</ele><time>2026-05-02T10:46:34.131Z</time></trkpt><trkpt lat="42.1563634" lon="13.681674"><ele>736.6666666666667</ele><time>2026-05-02T10:46:35.131Z</time></trkpt><trkpt lat="42.1562305" lon="13.6818083"><ele>734.3333333333334</ele><time>2026-05-02T10:46:36.131Z</time></trkpt><trkpt lat="42.1560879" lon="13.6819465"><ele>732.0</ele><time>2026-05-02T10:46:37.131Z</time></trkpt><trkpt lat="42.1559542" lon="13.6820752"><ele>731.0</ele><time>2026-05-02T10:46:38.13Z</time></trkpt><trkpt lat="42.1558258" lon="13.6822007"><ele>730.0</ele><time>2026-05-02T10:46:39.13Z</time></trkpt><trkpt lat="42.1556937" lon="13.6823188"><ele>729.0</ele><time>2026-05-02T10:46:40.13Z</time></trkpt><trkpt lat="42.1555491" lon="13.6824446"><ele>724.3333333333334</ele><time>2026-05-02T10:46:41.13Z</time></trkpt><trkpt lat="42.1554148" lon="13.68256"><ele>719.6666666666667</ele><time>2026-05-02T10:46:42.131Z</time></trkpt><trkpt lat="42.1552832" lon="13.6826749"><ele>715.0</ele><time>2026-05-02T10:46:43.131Z</time></trkpt><trkpt lat="42.1551537" lon="13.6828053"><ele>715.0</ele><time>2026-05-02T10:46:44.131Z</time></trkpt><trkpt lat="42.1550239" lon="13.6829323"><ele>715.0</ele><time>2026-05-02T10:46:45.13Z</time></trkpt><trkpt lat="42.154917" lon="13.6830835"><ele>715.0</ele><time>2026-05-02T10:46:46.131Z</time></trkpt><trkpt lat="42.1548079" lon="13.6832108"><ele>712.8</ele><time>2026-05-02T10:46:47.131Z</time></trkpt><trkpt lat="42.1547065" lon="13.6833382"><ele>710.6</ele><time>2026-05-02T10:46:48.13Z</time></trkpt><trkpt lat="42.1546138" lon="13.6834459"><ele>708.4000000000001</ele><time>2026-05-02T10:46:49.13Z</time></trkpt><trkpt lat="42.1545337" lon="13.6835354"><ele>706.2</ele><time>2026-05-02T10:46:50.132Z</time></trkpt><trkpt lat="42.1544755" lon="13.6836061"><ele>704.0</ele><time>2026-05-02T10:46:51.132Z</time></trkpt><trkpt lat="42.1544035" lon="13.6837115"><ele>702.5</ele><time>2026-05-02T10:46:53.13Z</time></trkpt><trkpt lat="42.1543957" lon="13.683902"><ele>701.0</ele><time>2026-05-02T10:46:55.131Z</time></trkpt><trkpt lat="42.1543963" lon="13.6840329"><ele>699.5</ele><time>2026-05-02T10:46:56.131Z</time></trkpt><trkpt lat="42.1543943" lon="13.6841871"><ele>698.0</ele><time>2026-05-02T10:46:57.131Z</time></trkpt><trkpt lat="42.1543853" lon="13.6843528"><ele>697.5</ele><time>2026-05-02T10:46:58.13Z</time></trkpt><trkpt lat="42.1543732" lon="13.6845278"><ele>697.0</ele><time>2026-05-02T10:46:59.13Z</time></trkpt><trkpt lat="42.1543566" lon="13.6846881"><ele>696.5</ele><time>2026-05-02T10:47:00.131Z</time></trkpt><trkpt lat="42.1543391" lon="13.6848442"><ele>696.0</ele><time>2026-05-02T10:47:01.13Z</time></trkpt><trkpt lat="42.1543264" lon="13.6849953"><ele>696.0</ele><time>2026-05-02T10:47:02.131Z</time></trkpt><trkpt lat="42.1543127" lon="13.6851275"><ele>696.0</ele><time>2026-05-02T10:47:03.131Z</time></trkpt><trkpt lat="42.1543034" lon="13.6852317"><ele>696.0</ele><time>2026-05-02T10:47:04.131Z</time></trkpt><trkpt lat="42.1542943" lon="13.6853238"><ele>696.0</ele><time>2026-05-02T10:47:05.13Z</time></trkpt><trkpt lat="42.1542719" lon="13.685467"><ele>696.0</ele><time>2026-05-02T10:47:07.132Z</time></trkpt><trkpt lat="42.1543145" lon="13.6854008"><ele>696.0</ele><time>2026-05-02T10:47:11.131Z</time></trkpt><trkpt lat="42.1543173" lon="13.6852821"><ele>696.0</ele><time>2026-05-02T10:47:12.13Z</time></trkpt><trkpt lat="42.1543301" lon="13.6851346"><ele>696.0</ele><time>2026-05-02T10:47:13.13Z</time></trkpt><trkpt lat="42.1543486" lon="13.6849591"><ele>696.0</ele><time>2026-05-02T10:47:14.13Z</time></trkpt><trkpt lat="42.1543711" lon="13.6847571"><ele>696.0</ele><time>2026-05-02T10:47:15.13Z</time></trkpt><trkpt lat="42.1543865" lon="13.6845575"><ele>696.5</ele><time>2026-05-02T10:47:16.13Z</time></trkpt><trkpt lat="42.1544016" lon="13.6843729"><ele>697.0</ele><time>2026-05-02T10:47:17.13Z</time></trkpt><trkpt lat="42.1544064" lon="13.6841957"><ele>697.5</ele><time>2026-05-02T10:47:18.13Z</time></trkpt><trkpt lat="42.1544036" lon="13.6840279"><ele>698.0</ele><time>2026-05-02T10:47:19.13Z</time></trkpt><trkpt lat="42.1543937" lon="13.6838777"><ele>698.0</ele><time>2026-05-02T10:47:20.131Z</time></trkpt><trkpt lat="42.154371" lon="13.6837604"><ele>698.0</ele><time>2026-05-02T10:47:21.131Z</time></trkpt><trkpt lat="42.1543253" lon="13.6836722"><ele>698.0</ele><time>2026-05-02T10:47:22.13Z</time></trkpt><trkpt lat="42.1542581" lon="13.683632"><ele>698.0</ele><time>2026-05-02T10:47:23.131Z</time></trkpt><trkpt lat="42.1541925" lon="13.6836347"><ele>698.0</ele><time>2026-05-02T10:47:24.131Z</time></trkpt><trkpt lat="42.1541309" lon="13.6836686"><ele>698.0</ele><time>2026-05-02T10:47:25.132Z</time></trkpt><trkpt lat="42.1540465" lon="13.6837902"><ele>698.0</ele><time>2026-05-02T10:47:27.132Z</time></trkpt><trkpt lat="42.1540431" lon="13.6839226"><ele>698.0</ele><time>2026-05-02T10:47:29.131Z</time></trkpt><trkpt lat="42.1541034" lon="13.684067"><ele>698.0</ele><time>2026-05-02T10:47:31.131Z</time></trkpt><trkpt lat="42.1541328" lon="13.6841494"><ele>698.0</ele><time>2026-05-02T10:47:32.132Z</time></trkpt><trkpt lat="42.1541428" lon="13.6842337"><ele>698.0</ele><time>2026-05-02T10:47:33.132Z</time></trkpt><trkpt lat="42.1541323" lon="13.6843199"><ele>698.0</ele><time>2026-05-02T10:47:34.13Z</time></trkpt><trkpt lat="42.1541102" lon="13.6844071"><ele>697.5999999999999</ele><time>2026-05-02T10:47:35.13Z</time></trkpt><trkpt lat="42.1540864" lon="13.6845003"><ele>697.1999999999999</ele><time>2026-05-02T10:47:36.131Z</time></trkpt><trkpt lat="42.1540551" lon="13.684623"><ele>696.8</ele><time>2026-05-02T10:47:37.131Z</time></trkpt><trkpt lat="42.1540181" lon="13.6847721"><ele>696.4</ele><time>2026-05-02T10:47:38.13Z</time></trkpt><trkpt lat="42.1539725" lon="13.6849433"><ele>696.0</ele><time>2026-05-02T10:47:39.13Z</time></trkpt><trkpt lat="42.1539271" lon="13.6851328"><ele>695.0</ele><time>2026-05-02T10:47:40.13Z</time></trkpt><trkpt lat="42.1538761" lon="13.6853421"><ele>694.0</ele><time>2026-05-02T10:47:41.131Z</time></trkpt><trkpt lat="42.153819" lon="13.6855694"><ele>693.0</ele><time>2026-05-02T10:47:42.131Z</time></trkpt><trkpt lat="42.1537611" lon="13.6858155"><ele>693.0</ele><time>2026-05-02T10:47:43.131Z</time></trkpt><trkpt lat="42.1537021" lon="13.6860734"><ele>693.0</ele><time>2026-05-02T10:47:44.132Z</time></trkpt><trkpt lat="42.1536374" lon="13.6863493"><ele>693.0</ele><time>2026-05-02T10:47:45.131Z</time></trkpt><trkpt lat="42.1535759" lon="13.6866315"><ele>689.3333333333334</ele><time>2026-05-02T10:47:46.131Z</time></trkpt><trkpt lat="42.153513" lon="13.6869164"><ele>685.6666666666667</ele><time>2026-05-02T10:47:47.131Z</time></trkpt><trkpt lat="42.1534584" lon="13.687184"><ele>682.0</ele><time>2026-05-02T10:47:48.13Z</time></trkpt><trkpt lat="42.1534109" lon="13.6874439"><ele>680.25</ele><time>2026-05-02T10:47:49.131Z</time></trkpt><trkpt lat="42.1533687" lon="13.6876887"><ele>678.5</ele><time>2026-05-02T10:47:50.131Z</time></trkpt><trkpt lat="42.1533383" lon="13.6878778"><ele>676.75</ele><time>2026-05-02T10:47:51.13Z</time></trkpt><trkpt lat="42.1533136" lon="13.688027"><ele>675.0</ele><time>2026-05-02T10:47:52.13Z</time></trkpt><trkpt lat="42.1532944" lon="13.6881633"><ele>674.2</ele><time>2026-05-02T10:47:53.131Z</time></trkpt><trkpt lat="42.1532811" lon="13.6882698"><ele>673.4</ele><time>2026-05-02T10:47:54.131Z</time></trkpt><trkpt lat="42.1532721" lon="13.6884001"><ele>672.5999999999999</ele><time>2026-05-02T10:47:56.13Z</time></trkpt><trkpt lat="42.1533145" lon="13.6882528"><ele>671.8</ele><time>2026-05-02T10:48:00.131Z</time></trkpt><trkpt lat="42.1533151" lon="13.6881131"><ele>671.0</ele><time>2026-05-02T10:48:01.131Z</time></trkpt><trkpt lat="42.1533278" lon="13.6879657"><ele>671.0</ele><time>2026-05-02T10:48:02.131Z</time></trkpt><trkpt lat="42.1533359" lon="13.6878552"><ele>671.0</ele><time>2026-05-02T10:48:03.131Z</time></trkpt><trkpt lat="42.15329" lon="13.6877422"><ele>671.0</ele><time>2026-05-02T10:48:05.131Z</time></trkpt><trkpt lat="42.1531541" lon="13.6876966"><ele>671.0</ele><time>2026-05-02T10:48:07.13Z</time></trkpt><trkpt lat="42.153071" lon="13.6877145"><ele>671.0</ele><time>2026-05-02T10:48:08.13Z</time></trkpt><trkpt lat="42.1529925" lon="13.6877586"><ele>670.1999999999999</ele><time>2026-05-02T10:48:09.13Z</time></trkpt><trkpt lat="42.152901" lon="13.6878238"><ele>669.4</ele><time>2026-05-02T10:48:10.13Z</time></trkpt><trkpt lat="42.1527891" lon="13.6878876"><ele>668.6</ele><time>2026-05-02T10:48:11.13Z</time></trkpt><trkpt lat="42.1526841" lon="13.6879502"><ele>667.8</ele><time>2026-05-02T10:48:12.13Z</time></trkpt><trkpt lat="42.1525978" lon="13.6880308"><ele>667.0</ele><time>2026-05-02T10:48:13.13Z</time></trkpt><trkpt lat="42.1525264" lon="13.6881335"><ele>667.0</ele><time>2026-05-02T10:48:14.132Z</time></trkpt><trkpt lat="42.1524584" lon="13.6882721"><ele>667.0</ele><time>2026-05-02T10:48:15.132Z</time></trkpt><trkpt lat="42.1523862" lon="13.6884233"><ele>667.0</ele><time>2026-05-02T10:48:16.13Z</time></trkpt><trkpt lat="42.1523067" lon="13.6885727"><ele>667.0</ele><time>2026-05-02T10:48:17.131Z</time></trkpt><trkpt lat="42.1522223" lon="13.6886998"><ele>666.0</ele><time>2026-05-02T10:48:18.131Z</time></trkpt><trkpt lat="42.1521296" lon="13.6887995"><ele>665.0</ele><time>2026-05-02T10:48:19.13Z</time></trkpt><trkpt lat="42.1520088" lon="13.6889029"><ele>664.0</ele><time>2026-05-02T10:48:20.13Z</time></trkpt><trkpt lat="42.1518695" lon="13.6890203"><ele>663.0</ele><time>2026-05-02T10:48:21.13Z</time></trkpt><trkpt lat="42.1517342" lon="13.6891217"><ele>663.0</ele><time>2026-05-02T10:48:22.13Z</time></trkpt><trkpt lat="42.1516128" lon="13.6892075"><ele>663.0</ele><time>2026-05-02T10:48:23.131Z</time></trkpt><trkpt lat="42.1515023" lon="13.68928"><ele>663.0</ele><time>2026-05-02T10:48:24.13Z</time></trkpt><trkpt lat="42.1514024" lon="13.6893488"><ele>663.0</ele><time>2026-05-02T10:48:25.131Z</time></trkpt><trkpt lat="42.1513229" lon="13.6894074"><ele>662.5999999999999</ele><time>2026-05-02T10:48:26.131Z</time></trkpt><trkpt lat="42.1512609" lon="13.689455"><ele>662.1999999999999</ele><time>2026-05-02T10:48:27.132Z</time></trkpt><trkpt lat="42.1511722" lon="13.6895925"><ele>661.8</ele><time>2026-05-02T10:48:29.131Z</time></trkpt><trkpt lat="42.1511336" lon="13.6897105"><ele>661.4</ele><time>2026-05-02T10:48:30.131Z</time></trkpt><trkpt lat="42.1511006" lon="13.6898481"><ele>661.0</ele><time>2026-05-02T10:48:31.131Z</time></trkpt><trkpt lat="42.1510635" lon="13.6900499"><ele>661.3333333333334</ele><time>2026-05-02T10:48:32.132Z</time></trkpt><trkpt lat="42.1510096" lon="13.6902606"><ele>661.6666666666666</ele><time>2026-05-02T10:48:33.131Z</time></trkpt><trkpt lat="42.1509491" lon="13.6904808"><ele>662.0</ele><time>2026-05-02T10:48:34.13Z</time></trkpt><trkpt lat="42.1508754" lon="13.6907217"><ele>662.0</ele><time>2026-05-02T10:48:35.131Z</time></trkpt><trkpt lat="42.1508063" lon="13.690948"><ele>662.0</ele><time>2026-05-02T10:48:36.131Z</time></trkpt><trkpt lat="42.1507424" lon="13.6911467"><ele>662.0</ele><time>2026-05-02T10:48:37.13Z</time></trkpt><trkpt lat="42.1506838" lon="13.6913353"><ele>661.5</ele><time>2026-05-02T10:48:38.13Z</time></trkpt><trkpt lat="42.1506287" lon="13.691508"><ele>661.0</ele><time>2026-05-02T10:48:39.132Z</time></trkpt><trkpt lat="42.1505741" lon="13.6916564"><ele>660.5</ele><time>2026-05-02T10:48:40.131Z</time></trkpt><trkpt lat="42.150515" lon="13.6917991"><ele>660.0</ele><time>2026-05-02T10:48:41.13Z</time></trkpt><trkpt lat="42.1504394" lon="13.6919538"><ele>660.0</ele><time>2026-05-02T10:48:42.13Z</time></trkpt><trkpt lat="42.1503657" lon="13.6921286"><ele>660.0</ele><time>2026-05-02T10:48:43.13Z</time></trkpt><trkpt lat="42.1503009" lon="13.6923078"><ele>660.0</ele><time>2026-05-02T10:48:44.132Z</time></trkpt><trkpt lat="42.150245" lon="13.6924614"><ele>660.0</ele><time>2026-05-02T10:48:45.131Z</time></trkpt><trkpt lat="42.15019" lon="13.6925899"><ele>660.0</ele><time>2026-05-02T10:48:46.131Z</time></trkpt><trkpt lat="42.1501534" lon="13.6926868"><ele>660.0</ele><time>2026-05-02T10:48:47.132Z</time></trkpt><trkpt lat="42.1500802" lon="13.692794"><ele>660.0</ele><time>2026-05-02T10:48:49.131Z</time></trkpt><trkpt lat="42.1499698" lon="13.6928626"><ele>660.0</ele><time>2026-05-02T10:48:51.13Z</time></trkpt><trkpt lat="42.1499073" lon="13.6929076"><ele>660.0</ele><time>2026-05-02T10:48:52.131Z</time></trkpt><trkpt lat="42.1498554" lon="13.693002"><ele>657.5</ele><time>2026-05-02T10:48:53.13Z</time></trkpt><trkpt lat="42.1497989" lon="13.6931208"><ele>655.0</ele><time>2026-05-02T10:48:54.13Z</time></trkpt><trkpt lat="42.1497262" lon="13.6932589"><ele>652.5</ele><time>2026-05-02T10:48:55.13Z</time></trkpt><trkpt lat="42.1496463" lon="13.6934494"><ele>650.0</ele><time>2026-05-02T10:48:56.131Z</time></trkpt><trkpt lat="42.1495681" lon="13.6936252"><ele>650.0</ele><time>2026-05-02T10:48:57.132Z</time></trkpt><trkpt lat="42.1494924" lon="13.6937977"><ele>650.0</ele><time>2026-05-02T10:48:58.132Z</time></trkpt><trkpt lat="42.1494048" lon="13.6939744"><ele>650.0</ele><time>2026-05-02T10:48:59.13Z</time></trkpt><trkpt lat="42.1493225" lon="13.6941396"><ele>650.0</ele><time>2026-05-02T10:49:00.13Z</time></trkpt><trkpt lat="42.1492497" lon="13.6942797"><ele>650.0</ele><time>2026-05-02T10:49:01.131Z</time></trkpt><trkpt lat="42.1491792" lon="13.6943921"><ele>650.0</ele><time>2026-05-02T10:49:02.131Z</time></trkpt><trkpt lat="42.1491102" lon="13.6944882"><ele>650.0</ele><time>2026-05-02T10:49:03.13Z</time></trkpt><trkpt lat="42.1490361" lon="13.6945941"><ele>650.0</ele><time>2026-05-02T10:49:04.131Z</time></trkpt><trkpt lat="42.1489549" lon="13.6947351"><ele>650.0</ele><time>2026-05-02T10:49:05.13Z</time></trkpt><trkpt lat="42.1488871" lon="13.6948779"><ele>650.0</ele><time>2026-05-02T10:49:06.131Z</time></trkpt><trkpt lat="42.1488266" lon="13.6949997"><ele>650.0</ele><time>2026-05-02T10:49:07.13Z</time></trkpt><trkpt lat="42.1487531" lon="13.6950849"><ele>650.0</ele><time>2026-05-02T10:49:08.13Z</time></trkpt><trkpt lat="42.1486699" lon="13.6951706"><ele>650.0</ele><time>2026-05-02T10:49:09.13Z</time></trkpt><trkpt lat="42.148582" lon="13.6952432"><ele>650.4</ele><time>2026-05-02T10:49:10.131Z</time></trkpt><trkpt lat="42.1484982" lon="13.6952998"><ele>650.8</ele><time>2026-05-02T10:49:11.13Z</time></trkpt><trkpt lat="42.1484282" lon="13.6953637"><ele>651.2</ele><time>2026-05-02T10:49:12.131Z</time></trkpt><trkpt lat="42.1483735" lon="13.6954568"><ele>651.6</ele><time>2026-05-02T10:49:13.13Z</time></trkpt><trkpt lat="42.1483195" lon="13.6955803"><ele>652.0</ele><time>2026-05-02T10:49:14.131Z</time></trkpt><trkpt lat="42.1482604" lon="13.6957183"><ele>651.5</ele><time>2026-05-02T10:49:15.13Z</time></trkpt><trkpt lat="42.1482085" lon="13.6958232"><ele>651.0</ele><time>2026-05-02T10:49:16.132Z</time></trkpt><trkpt lat="42.1481484" lon="13.6958818"><ele>650.5</ele><time>2026-05-02T10:49:17.131Z</time></trkpt><trkpt lat="42.1480766" lon="13.6959308"><ele>650.0</ele><time>2026-05-02T10:49:18.131Z</time></trkpt><trkpt lat="42.1479851" lon="13.6959635"><ele>649.5</ele><time>2026-05-02T10:49:19.131Z</time></trkpt><trkpt lat="42.1478958" lon="13.6959993"><ele>649.0</ele><time>2026-05-02T10:49:20.13Z</time></trkpt><trkpt lat="42.1477709" lon="13.6960332"><ele>649.0</ele><time>2026-05-02T10:49:21.132Z</time></trkpt><trkpt lat="42.1476371" lon="13.6960599"><ele>649.0</ele><time>2026-05-02T10:49:22.131Z</time></trkpt><trkpt lat="42.1475139" lon="13.6960806"><ele>649.0</ele><time>2026-05-02T10:49:23.131Z</time></trkpt><trkpt lat="42.1473881" lon="13.6961022"><ele>649.0</ele><time>2026-05-02T10:49:24.131Z</time></trkpt><trkpt lat="42.1472759" lon="13.6961246"><ele>648.0</ele><time>2026-05-02T10:49:25.132Z</time></trkpt><trkpt lat="42.1471888" lon="13.6961363"><ele>647.0</ele><time>2026-05-02T10:49:26.132Z</time></trkpt><trkpt lat="42.1471077" lon="13.696125"><ele>646.0</ele><time>2026-05-02T10:49:27.131Z</time></trkpt><trkpt lat="42.1470225" lon="13.696084"><ele>645.0</ele><time>2026-05-02T10:49:28.131Z</time></trkpt><trkpt lat="42.1469122" lon="13.6960243"><ele>644.0</ele><time>2026-05-02T10:49:29.13Z</time></trkpt><trkpt lat="42.1467855" lon="13.6959655"><ele>644.0</ele><time>2026-05-02T10:49:30.131Z</time></trkpt><trkpt lat="42.1466657" lon="13.6959206"><ele>644.0</ele><time>2026-05-02T10:49:31.13Z</time></trkpt><trkpt lat="42.1465274" lon="13.6958824"><ele>644.0</ele><time>2026-05-02T10:49:32.13Z</time></trkpt><trkpt lat="42.1464113" lon="13.6958443"><ele>644.0</ele><time>2026-05-02T10:49:33.13Z</time></trkpt><trkpt lat="42.1463001" lon="13.6958248"><ele>640.0</ele><time>2026-05-02T10:49:34.13Z</time></trkpt><trkpt lat="42.1461731" lon="13.6958335"><ele>636.0</ele><time>2026-05-02T10:49:35.13Z</time></trkpt><trkpt lat="42.1460369" lon="13.6958637"><ele>632.0</ele><time>2026-05-02T10:49:36.13Z</time></trkpt><trkpt lat="42.1458559" lon="13.6959439"><ele>628.0</ele><time>2026-05-02T10:49:37.13Z</time></trkpt><trkpt lat="42.1456763" lon="13.6960154"><ele>624.0</ele><time>2026-05-02T10:49:38.13Z</time></trkpt><trkpt lat="42.145515" lon="13.6960871"><ele>620.0</ele><time>2026-05-02T10:49:39.131Z</time></trkpt><trkpt lat="42.1453627" lon="13.6961547"><ele>620.0</ele><time>2026-05-02T10:49:40.131Z</time></trkpt><trkpt lat="42.1452139" lon="13.6962156"><ele>620.0</ele><time>2026-05-02T10:49:41.131Z</time></trkpt><trkpt lat="42.1450649" lon="13.6962608"><ele>620.0</ele><time>2026-05-02T10:49:42.131Z</time></trkpt><trkpt lat="42.1448995" lon="13.6962918"><ele>617.25</ele><time>2026-05-02T10:49:43.13Z</time></trkpt><trkpt lat="42.1447411" lon="13.6963151"><ele>614.5</ele><time>2026-05-02T10:49:44.131Z</time></trkpt><trkpt lat="42.1446019" lon="13.6963351"><ele>611.75</ele><time>2026-05-02T10:49:45.13Z</time></trkpt><trkpt lat="42.1444784" lon="13.6963597"><ele>609.0</ele><time>2026-05-02T10:49:46.131Z</time></trkpt><trkpt lat="42.1443597" lon="13.6963994"><ele>609.0</ele><time>2026-05-02T10:49:47.13Z</time></trkpt><trkpt lat="42.1442505" lon="13.6964528"><ele>609.0</ele><time>2026-05-02T10:49:48.13Z</time></trkpt><trkpt lat="42.1441519" lon="13.6965262"><ele>609.0</ele><time>2026-05-02T10:49:49.13Z</time></trkpt><trkpt lat="42.144037" lon="13.6966287"><ele>609.0</ele><time>2026-05-02T10:49:50.131Z</time></trkpt><trkpt lat="42.1439105" lon="13.6967492"><ele>605.3333333333334</ele><time>2026-05-02T10:49:51.13Z</time></trkpt><trkpt lat="42.1437798" lon="13.6968464"><ele>601.6666666666667</ele><time>2026-05-02T10:49:52.131Z</time></trkpt><trkpt lat="42.1436359" lon="13.6969334"><ele>598.0</ele><time>2026-05-02T10:49:53.13Z</time></trkpt><trkpt lat="42.1434833" lon="13.6970164"><ele>597.0</ele><time>2026-05-02T10:49:54.131Z</time></trkpt><trkpt lat="42.1433312" lon="13.6971241"><ele>596.0</ele><time>2026-05-02T10:49:55.13Z</time></trkpt><trkpt lat="42.1431588" lon="13.6972667"><ele>595.0</ele><time>2026-05-02T10:49:56.131Z</time></trkpt><trkpt lat="42.1429944" lon="13.6974027"><ele>593.3333333333334</ele><time>2026-05-02T10:49:57.13Z</time></trkpt><trkpt lat="42.1428416" lon="13.6975229"><ele>591.6666666666666</ele><time>2026-05-02T10:49:58.13Z</time></trkpt><trkpt lat="42.1426864" lon="13.6976383"><ele>590.0</ele><time>2026-05-02T10:49:59.13Z</time></trkpt><trkpt lat="42.1425446" lon="13.6977468"><ele>588.0</ele><time>2026-05-02T10:50:00.13Z</time></trkpt><trkpt lat="42.1423891" lon="13.6978495"><ele>586.0</ele><time>2026-05-02T10:50:01.131Z</time></trkpt><trkpt lat="42.1422406" lon="13.6979388"><ele>584.0</ele><time>2026-05-02T10:50:02.131Z</time></trkpt><trkpt lat="42.1420988" lon="13.6980115"><ele>582.25</ele><time>2026-05-02T10:50:03.13Z</time></trkpt><trkpt lat="42.1419616" lon="13.6980663"><ele>580.5</ele><time>2026-05-02T10:50:04.13Z</time></trkpt><trkpt lat="42.1418316" lon="13.6980972"><ele>578.75</ele><time>2026-05-02T10:50:05.131Z</time></trkpt><trkpt lat="42.1417024" lon="13.698109"><ele>577.0</ele><time>2026-05-02T10:50:06.13Z</time></trkpt><trkpt lat="42.1415825" lon="13.6981048"><ele>574.0</ele><time>2026-05-02T10:50:07.13Z</time></trkpt><trkpt lat="42.1414656" lon="13.6980856"><ele>571.0</ele><time>2026-05-02T10:50:08.131Z</time></trkpt><trkpt lat="42.1413409" lon="13.6980505"><ele>568.0</ele><time>2026-05-02T10:50:09.13Z</time></trkpt><trkpt lat="42.141229" lon="13.6980044"><ele>565.0</ele><time>2026-05-02T10:50:10.131Z</time></trkpt><trkpt lat="42.1411338" lon="13.697946"><ele>565.0</ele><time>2026-05-02T10:50:11.131Z</time></trkpt><trkpt lat="42.141052" lon="13.6978782"><ele>565.0</ele><time>2026-05-02T10:50:12.131Z</time></trkpt><trkpt lat="42.1409906" lon="13.6978035"><ele>565.0</ele><time>2026-05-02T10:50:13.132Z</time></trkpt><trkpt lat="42.1409506" lon="13.6977299"><ele>565.0</ele><time>2026-05-02T10:50:14.131Z</time></trkpt><trkpt lat="42.1409205" lon="13.6976279"><ele>565.0</ele><time>2026-05-02T10:50:16.13Z</time></trkpt><trkpt lat="42.1409312" lon="13.6975296"><ele>565.0</ele><time>2026-05-02T10:50:18.13Z</time></trkpt><trkpt lat="42.1409633" lon="13.6973755"><ele>565.0</ele><time>2026-05-02T10:50:20.13Z</time></trkpt><trkpt lat="42.1409882" lon="13.6972637"><ele>565.0</ele><time>2026-05-02T10:50:22.131Z</time></trkpt><trkpt lat="42.1409426" lon="13.6974557"><ele>565.0</ele><time>2026-05-02T10:50:31.13Z</time></trkpt><trkpt lat="42.1409275" lon="13.6975627"><ele>565.0</ele><time>2026-05-02T10:50:32.13Z</time></trkpt><trkpt lat="42.1408638" lon="13.6976447"><ele>565.0</ele><time>2026-05-02T10:50:33.132Z</time></trkpt><trkpt lat="42.1408131" lon="13.6977544"><ele>565.0</ele><time>2026-05-02T10:50:34.131Z</time></trkpt><trkpt lat="42.1407535" lon="13.6978773"><ele>565.0</ele><time>2026-05-02T10:50:35.132Z</time></trkpt><trkpt lat="42.1407024" lon="13.6979771"><ele>565.0</ele><time>2026-05-02T10:50:36.13Z</time></trkpt><trkpt lat="42.1406599" lon="13.6980559"><ele>565.0</ele><time>2026-05-02T10:50:37.13Z</time></trkpt><trkpt lat="42.1405877" lon="13.6981451"><ele>565.0</ele><time>2026-05-02T10:50:39.13Z</time></trkpt><trkpt lat="42.1405155" lon="13.6981047"><ele>565.0</ele><time>2026-05-02T10:50:41.131Z</time></trkpt><trkpt lat="42.1404384" lon="13.697959"><ele>565.3333333333334</ele><time>2026-05-02T10:50:43.131Z</time></trkpt><trkpt lat="42.1403959" lon="13.69786"><ele>565.6666666666667</ele><time>2026-05-02T10:50:44.13Z</time></trkpt><trkpt lat="42.1403406" lon="13.6977594"><ele>566.0</ele><time>2026-05-02T10:50:45.13Z</time></trkpt><trkpt lat="42.1402849" lon="13.6976674"><ele>566.3333333333334</ele><time>2026-05-02T10:50:46.13Z</time></trkpt><trkpt lat="42.1402244" lon="13.6975915"><ele>566.6666666666666</ele><time>2026-05-02T10:50:47.13Z</time></trkpt><trkpt lat="42.1401576" lon="13.69751"><ele>567.0</ele><time>2026-05-02T10:50:48.131Z</time></trkpt><trkpt lat="42.1400934" lon="13.6974389"><ele>567.0</ele><time>2026-05-02T10:50:49.131Z</time></trkpt><trkpt lat="42.1400333" lon="13.697408"><ele>567.0</ele><time>2026-05-02T10:50:50.13Z</time></trkpt><trkpt lat="42.139908" lon="13.6973974"><ele>567.0</ele><time>2026-05-02T10:50:52.13Z</time></trkpt><trkpt lat="42.1398232" lon="13.6974074"><ele>567.0</ele><time>2026-05-02T10:50:53.131Z</time></trkpt><trkpt lat="42.1397435" lon="13.6974162"><ele>567.0</ele><time>2026-05-02T10:50:54.132Z</time></trkpt><trkpt lat="42.1396683" lon="13.69742"><ele>567.0</ele><time>2026-05-02T10:50:55.131Z</time></trkpt><trkpt lat="42.1396026" lon="13.6974143"><ele>568.4</ele><time>2026-05-02T10:50:56.131Z</time></trkpt><trkpt lat="42.1395279" lon="13.6973596"><ele>569.8000000000001</ele><time>2026-05-02T10:50:57.131Z</time></trkpt><trkpt lat="42.1394572" lon="13.6973132"><ele>571.2</ele><time>2026-05-02T10:50:58.131Z</time></trkpt><trkpt lat="42.1393304" lon="13.6973016"><ele>572.6</ele><time>2026-05-02T10:51:00.13Z</time></trkpt><trkpt lat="42.1392531" lon="13.6972995"><ele>574.0</ele><time>2026-05-02T10:51:01.13Z</time></trkpt><trkpt lat="42.1391543" lon="13.6972816"><ele>574.0</ele><time>2026-05-02T10:51:02.131Z</time></trkpt><trkpt lat="42.1390878" lon="13.6972534"><ele>574.0</ele><time>2026-05-02T10:51:03.13Z</time></trkpt><trkpt lat="42.1390195" lon="13.6972073"><ele>574.0</ele><time>2026-05-02T10:51:04.131Z</time></trkpt><trkpt lat="42.1389355" lon="13.6971444"><ele>574.0</ele><time>2026-05-02T10:51:05.131Z</time></trkpt><trkpt lat="42.1388531" lon="13.6970653"><ele>574.0</ele><time>2026-05-02T10:51:06.13Z</time></trkpt><trkpt lat="42.138796" lon="13.6969858"><ele>574.0</ele><time>2026-05-02T10:51:07.132Z</time></trkpt><trkpt lat="42.1387401" lon="13.6968961"><ele>576.2</ele><time>2026-05-02T10:51:08.13Z</time></trkpt><trkpt lat="42.1386861" lon="13.696836"><ele>578.4</ele><time>2026-05-02T10:51:09.13Z</time></trkpt><trkpt lat="42.1386113" lon="13.6967792"><ele>580.6</ele><time>2026-05-02T10:51:10.131Z</time></trkpt><trkpt lat="42.1385178" lon="13.6967146"><ele>582.8</ele><time>2026-05-02T10:51:11.13Z</time></trkpt><trkpt lat="42.1384078" lon="13.6966528"><ele>585.0</ele><time>2026-05-02T10:51:12.13Z</time></trkpt><trkpt lat="42.1383089" lon="13.6966016"><ele>586.0</ele><time>2026-05-02T10:51:13.13Z</time></trkpt><trkpt lat="42.1382154" lon="13.6965573"><ele>587.0</ele><time>2026-05-02T10:51:14.13Z</time></trkpt><trkpt lat="42.1381304" lon="13.6965216"><ele>588.0</ele><time>2026-05-02T10:51:15.13Z</time></trkpt><trkpt lat="42.1380298" lon="13.6964817"><ele>589.0</ele><time>2026-05-02T10:51:16.131Z</time></trkpt><trkpt lat="42.1379189" lon="13.6964417"><ele>590.0</ele><time>2026-05-02T10:51:17.131Z</time></trkpt><trkpt lat="42.1378282" lon="13.6964039"><ele>590.0000000000001</ele><time>2026-05-02T10:51:18.13Z</time></trkpt><trkpt lat="42.1377551" lon="13.6963712"><ele>590.0</ele><time>2026-05-02T10:51:19.13Z</time></trkpt><trkpt lat="42.1376933" lon="13.6963223"><ele>590.0</ele><time>2026-05-02T10:51:20.131Z</time></trkpt><trkpt lat="42.1376284" lon="13.6962743"><ele>590.0</ele><time>2026-05-02T10:51:21.131Z</time></trkpt><trkpt lat="42.1375677" lon="13.696222"><ele>590.0</ele><time>2026-05-02T10:51:22.13Z</time></trkpt><trkpt lat="42.1374979" lon="13.6961621"><ele>590.0000000000001</ele><time>2026-05-02T10:51:23.13Z</time></trkpt><trkpt lat="42.137441" lon="13.6961194"><ele>590.0</ele><time>2026-05-02T10:51:24.13Z</time></trkpt><trkpt lat="42.1373803" lon="13.6960959"><ele>590.6</ele><time>2026-05-02T10:51:25.13Z</time></trkpt><trkpt lat="42.1373024" lon="13.6960621"><ele>591.2</ele><time>2026-05-02T10:51:26.131Z</time></trkpt><trkpt lat="42.1371834" lon="13.6960395"><ele>591.8</ele><time>2026-05-02T10:51:28.13Z</time></trkpt><trkpt lat="42.1370525" lon="13.6960821"><ele>592.4</ele><time>2026-05-02T10:51:30.132Z</time></trkpt><trkpt lat="42.1369697" lon="13.6961095"><ele>593.0</ele><time>2026-05-02T10:51:31.132Z</time></trkpt><trkpt lat="42.1368727" lon="13.6961289"><ele>593.5</ele><time>2026-05-02T10:51:32.131Z</time></trkpt><trkpt lat="42.1367848" lon="13.6961402"><ele>594.0</ele><time>2026-05-02T10:51:33.131Z</time></trkpt><trkpt lat="42.1366907" lon="13.6961265"><ele>594.5</ele><time>2026-05-02T10:51:34.132Z</time></trkpt><trkpt lat="42.1366046" lon="13.6961185"><ele>595.0</ele><time>2026-05-02T10:51:35.131Z</time></trkpt><trkpt lat="42.136517" lon="13.6961061"><ele>595.5</ele><time>2026-05-02T10:51:36.13Z</time></trkpt><trkpt lat="42.1364376" lon="13.6960861"><ele>596.0</ele><time>2026-05-02T10:51:37.131Z</time></trkpt><trkpt lat="42.1363619" lon="13.6960803"><ele>597.4</ele><time>2026-05-02T10:51:38.132Z</time></trkpt><trkpt lat="42.1362688" lon="13.6960884"><ele>598.8</ele><time>2026-05-02T10:51:39.13Z</time></trkpt><trkpt lat="42.1361517" lon="13.6960951"><ele>600.1999999999999</ele><time>2026-05-02T10:51:40.13Z</time></trkpt><trkpt lat="42.1360359" lon="13.6961049"><ele>601.6</ele><time>2026-05-02T10:51:41.131Z</time></trkpt><trkpt lat="42.1359428" lon="13.696103"><ele>603.0</ele><time>2026-05-02T10:51:42.13Z</time></trkpt><trkpt lat="42.1358645" lon="13.6960895"><ele>602.1999999999999</ele><time>2026-05-02T10:51:43.13Z</time></trkpt><trkpt lat="42.1357757" lon="13.6960627"><ele>601.4</ele><time>2026-05-02T10:51:44.13Z</time></trkpt><trkpt lat="42.1356677" lon="13.6960233"><ele>600.5999999999999</ele><time>2026-05-02T10:51:45.13Z</time></trkpt><trkpt lat="42.1355737" lon="13.6959846"><ele>599.8</ele><time>2026-05-02T10:51:46.13Z</time></trkpt><trkpt lat="42.1354845" lon="13.6959427"><ele>599.0</ele><time>2026-05-02T10:51:47.13Z</time></trkpt><trkpt lat="42.1353846" lon="13.6959155"><ele>601.8</ele><time>2026-05-02T10:51:48.13Z</time></trkpt><trkpt lat="42.1352846" lon="13.6958824"><ele>604.5999999999999</ele><time>2026-05-02T10:51:49.13Z</time></trkpt><trkpt lat="42.1352057" lon="13.6958836"><ele>607.4</ele><time>2026-05-02T10:51:50.132Z</time></trkpt><trkpt lat="42.1351242" lon="13.6958956"><ele>610.1999999999999</ele><time>2026-05-02T10:51:51.13Z</time></trkpt><trkpt lat="42.1350279" lon="13.6959148"><ele>613.0</ele><time>2026-05-02T10:51:52.13Z</time></trkpt><trkpt lat="42.1349269" lon="13.6959419"><ele>614.0</ele><time>2026-05-02T10:51:53.132Z</time></trkpt><trkpt lat="42.1348474" lon="13.6959577"><ele>615.0</ele><time>2026-05-02T10:51:54.131Z</time></trkpt><trkpt lat="42.134782" lon="13.6959611"><ele>616.0</ele><time>2026-05-02T10:51:55.131Z</time></trkpt><trkpt lat="42.1346969" lon="13.6959603"><ele>617.0</ele><time>2026-05-02T10:51:56.13Z</time></trkpt><trkpt lat="42.1346102" lon="13.695967"><ele>618.0</ele><time>2026-05-02T10:51:57.13Z</time></trkpt><trkpt lat="42.1345463" lon="13.6959853"><ele>619.0</ele><time>2026-05-02T10:51:58.13Z</time></trkpt><trkpt lat="42.1344434" lon="13.6960397"><ele>618.0</ele><time>2026-05-02T10:52:00.131Z</time></trkpt><trkpt lat="42.1343814" lon="13.6960874"><ele>617.0</ele><time>2026-05-02T10:52:01.131Z</time></trkpt><trkpt lat="42.1343277" lon="13.6961569"><ele>616.0</ele><time>2026-05-02T10:52:02.13Z</time></trkpt><trkpt lat="42.1342666" lon="13.6962456"><ele>615.0</ele><time>2026-05-02T10:52:03.131Z</time></trkpt><trkpt lat="42.1342075" lon="13.6963446"><ele>614.0</ele><time>2026-05-02T10:52:04.132Z</time></trkpt><trkpt lat="42.1341429" lon="13.69643"><ele>613.0</ele><time>2026-05-02T10:52:05.13Z</time></trkpt><trkpt lat="42.1340804" lon="13.6965325"><ele>613.1999999999999</ele><time>2026-05-02T10:52:06.13Z</time></trkpt><trkpt lat="42.1340069" lon="13.6966182"><ele>613.4</ele><time>2026-05-02T10:52:07.13Z</time></trkpt><trkpt lat="42.1339214" lon="13.6966989"><ele>613.5999999999999</ele><time>2026-05-02T10:52:08.13Z</time></trkpt><trkpt lat="42.1338344" lon="13.6967915"><ele>613.8</ele><time>2026-05-02T10:52:09.13Z</time></trkpt><trkpt lat="42.1337577" lon="13.696891"><ele>614.0</ele><time>2026-05-02T10:52:10.131Z</time></trkpt><trkpt lat="42.1336764" lon="13.6970005"><ele>612.0</ele><time>2026-05-02T10:52:11.131Z</time></trkpt><trkpt lat="42.1335966" lon="13.6971069"><ele>610.0</ele><time>2026-05-02T10:52:12.13Z</time></trkpt><trkpt lat="42.1335199" lon="13.6972216"><ele>608.0</ele><time>2026-05-02T10:52:13.13Z</time></trkpt><trkpt lat="42.1334393" lon="13.6973328"><ele>606.0</ele><time>2026-05-02T10:52:14.13Z</time></trkpt><trkpt lat="42.133352" lon="13.6974524"><ele>606.0</ele><time>2026-05-02T10:52:15.13Z</time></trkpt><trkpt lat="42.1332587" lon="13.6975676"><ele>606.0</ele><time>2026-05-02T10:52:16.131Z</time></trkpt><trkpt lat="42.1331654" lon="13.6976722"><ele>606.0</ele><time>2026-05-02T10:52:17.13Z</time></trkpt><trkpt lat="42.1330565" lon="13.6978028"><ele>606.0</ele><time>2026-05-02T10:52:18.131Z</time></trkpt><trkpt lat="42.1329396" lon="13.6979462"><ele>607.75</ele><time>2026-05-02T10:52:19.13Z</time></trkpt><trkpt lat="42.1328398" lon="13.6980724"><ele>609.5</ele><time>2026-05-02T10:52:20.131Z</time></trkpt><trkpt lat="42.1327469" lon="13.6981795"><ele>611.25</ele><time>2026-05-02T10:52:21.131Z</time></trkpt><trkpt lat="42.1326554" lon="13.6982688"><ele>613.0</ele><time>2026-05-02T10:52:22.13Z</time></trkpt><trkpt lat="42.1325908" lon="13.6983591"><ele>613.0</ele><time>2026-05-02T10:52:23.13Z</time></trkpt><trkpt lat="42.1325373" lon="13.698482"><ele>613.0</ele><time>2026-05-02T10:52:24.13Z</time></trkpt><trkpt lat="42.1324898" lon="13.6986362"><ele>613.0</ele><time>2026-05-02T10:52:25.131Z</time></trkpt><trkpt lat="42.132441" lon="13.698784"><ele>613.0</ele><time>2026-05-02T10:52:26.13Z</time></trkpt><trkpt lat="42.1323998" lon="13.6989174"><ele>613.5</ele><time>2026-05-02T10:52:27.131Z</time></trkpt><trkpt lat="42.1323417" lon="13.6990581"><ele>614.0</ele><time>2026-05-02T10:52:28.13Z</time></trkpt><trkpt lat="42.1322743" lon="13.699195"><ele>614.5</ele><time>2026-05-02T10:52:29.13Z</time></trkpt><trkpt lat="42.1322012" lon="13.6993285"><ele>615.0</ele><time>2026-05-02T10:52:30.132Z</time></trkpt><trkpt lat="42.1321161" lon="13.6994555"><ele>615.0</ele><time>2026-05-02T10:52:31.131Z</time></trkpt><trkpt lat="42.1320206" lon="13.6996012"><ele>615.0</ele><time>2026-05-02T10:52:32.13Z</time></trkpt><trkpt lat="42.1319138" lon="13.6997591"><ele>615.0</ele><time>2026-05-02T10:52:33.131Z</time></trkpt><trkpt lat="42.1318091" lon="13.6999019"><ele>615.0</ele><time>2026-05-02T10:52:34.13Z</time></trkpt><trkpt lat="42.1317028" lon="13.7000226"><ele>615.0</ele><time>2026-05-02T10:52:35.13Z</time></trkpt><trkpt lat="42.1315942" lon="13.7001232"><ele>615.0</ele><time>2026-05-02T10:52:36.131Z</time></trkpt><trkpt lat="42.131492" lon="13.7002083"><ele>615.0</ele><time>2026-05-02T10:52:37.13Z</time></trkpt><trkpt lat="42.1314069" lon="13.7002857"><ele>615.4</ele><time>2026-05-02T10:52:38.13Z</time></trkpt><trkpt lat="42.1313393" lon="13.7003697"><ele>615.8</ele><time>2026-05-02T10:52:39.13Z</time></trkpt><trkpt lat="42.1312672" lon="13.7004845"><ele>616.2</ele><time>2026-05-02T10:52:40.13Z</time></trkpt><trkpt lat="42.1312019" lon="13.7006111"><ele>616.6</ele><time>2026-05-02T10:52:41.13Z</time></trkpt><trkpt lat="42.1311327" lon="13.7007294"><ele>617.0</ele><time>2026-05-02T10:52:42.13Z</time></trkpt><trkpt lat="42.1310491" lon="13.7008315"><ele>617.0</ele><time>2026-05-02T10:52:43.131Z</time></trkpt><trkpt lat="42.1309385" lon="13.7009418"><ele>617.0</ele><time>2026-05-02T10:52:44.132Z</time></trkpt><trkpt lat="42.1308194" lon="13.7010546"><ele>617.0</ele><time>2026-05-02T10:52:45.13Z</time></trkpt><trkpt lat="42.1307001" lon="13.7011662"><ele>617.0</ele><time>2026-05-02T10:52:46.131Z</time></trkpt><trkpt lat="42.1305782" lon="13.7012987"><ele>619.4</ele><time>2026-05-02T10:52:47.13Z</time></trkpt><trkpt lat="42.1304728" lon="13.7014288"><ele>621.8000000000001</ele><time>2026-05-02T10:52:48.13Z</time></trkpt><trkpt lat="42.1303927" lon="13.7015252"><ele>624.2</ele><time>2026-05-02T10:52:49.132Z</time></trkpt><trkpt lat="42.1303166" lon="13.7015972"><ele>626.6</ele><time>2026-05-02T10:52:50.131Z</time></trkpt><trkpt lat="42.1302548" lon="13.7016557"><ele>629.0</ele><time>2026-05-02T10:52:51.131Z</time></trkpt><trkpt lat="42.1301767" lon="13.7016975"><ele>629.0</ele><time>2026-05-02T10:52:53.131Z</time></trkpt><trkpt lat="42.1301183" lon="13.7016311"><ele>629.0</ele><time>2026-05-02T10:52:55.131Z</time></trkpt><trkpt lat="42.1300468" lon="13.7014733"><ele>629.0</ele><time>2026-05-02T10:52:57.13Z</time></trkpt><trkpt lat="42.1299933" lon="13.7013736"><ele>629.0</ele><time>2026-05-02T10:52:58.131Z</time></trkpt><trkpt lat="42.1299367" lon="13.7012608"><ele>629.0</ele><time>2026-05-02T10:52:59.131Z</time></trkpt><trkpt lat="42.1298802" lon="13.7011273"><ele>633.0</ele><time>2026-05-02T10:53:00.131Z</time></trkpt><trkpt lat="42.1298248" lon="13.7009808"><ele>637.0</ele><time>2026-05-02T10:53:01.13Z</time></trkpt><trkpt lat="42.1297574" lon="13.700821"><ele>641.0</ele><time>2026-05-02T10:53:02.13Z</time></trkpt><trkpt lat="42.1296952" lon="13.7006887"><ele>645.0</ele><time>2026-05-02T10:53:03.13Z</time></trkpt><trkpt lat="42.1296369" lon="13.7005735"><ele>645.0</ele><time>2026-05-02T10:53:04.132Z</time></trkpt><trkpt lat="42.1295873" lon="13.700478"><ele>645.0</ele><time>2026-05-02T10:53:05.131Z</time></trkpt><trkpt lat="42.1295437" lon="13.7004077"><ele>645.0</ele><time>2026-05-02T10:53:06.131Z</time></trkpt><trkpt lat="42.1294723" lon="13.7003436"><ele>645.0</ele><time>2026-05-02T10:53:08.131Z</time></trkpt><trkpt lat="42.1293816" lon="13.7003453"><ele>645.0</ele><time>2026-05-02T10:53:10.131Z</time></trkpt><trkpt lat="42.1292687" lon="13.7003029"><ele>645.0</ele><time>2026-05-02T10:53:12.13Z</time></trkpt><trkpt lat="42.1292" lon="13.700274"><ele>646.6666666666666</ele><time>2026-05-02T10:53:13.131Z</time></trkpt><trkpt lat="42.1291338" lon="13.7002364"><ele>648.3333333333334</ele><time>2026-05-02T10:53:14.13Z</time></trkpt><trkpt lat="42.1290698" lon="13.7001773"><ele>650.0</ele><time>2026-05-02T10:53:15.132Z</time></trkpt><trkpt lat="42.1289997" lon="13.7000727"><ele>651.6666666666667</ele><time>2026-05-02T10:53:17.132Z</time></trkpt><trkpt lat="42.1289656" lon="13.6999915"><ele>653.3333333333334</ele><time>2026-05-02T10:53:20.131Z</time></trkpt><trkpt lat="42.128899" lon="13.7000003"><ele>655.0</ele><time>2026-05-02T10:53:24.13Z</time></trkpt><trkpt lat="42.1287904" lon="13.7001112"><ele>654.5</ele><time>2026-05-02T10:53:26.13Z</time></trkpt><trkpt lat="42.1287106" lon="13.7001986"><ele>654.0</ele><time>2026-05-02T10:53:27.131Z</time></trkpt><trkpt lat="42.1286216" lon="13.7003063"><ele>653.5</ele><time>2026-05-02T10:53:28.131Z</time></trkpt><trkpt lat="42.1285271" lon="13.7004215"><ele>653.0</ele><time>2026-05-02T10:53:29.13Z</time></trkpt><trkpt lat="42.1284445" lon="13.7005148"><ele>653.0</ele><time>2026-05-02T10:53:30.131Z</time></trkpt><trkpt lat="42.1283738" lon="13.7005831"><ele>653.0</ele><time>2026-05-02T10:53:31.13Z</time></trkpt><trkpt lat="42.1283203" lon="13.700629"><ele>653.0</ele><time>2026-05-02T10:53:32.13Z</time></trkpt><trkpt lat="42.1282859" lon="13.7007008"><ele>653.0</ele><time>2026-05-02T10:53:34.13Z</time></trkpt><trkpt lat="42.1283665" lon="13.7006661"><ele>653.0</ele><time>2026-05-02T10:53:37.131Z</time></trkpt><trkpt lat="42.1284288" lon="13.7005859"><ele>653.0</ele><time>2026-05-02T10:53:38.131Z</time></trkpt><trkpt lat="42.1285123" lon="13.7004905"><ele>653.0</ele><time>2026-05-02T10:53:39.131Z</time></trkpt><trkpt lat="42.1286016" lon="13.7003788"><ele>653.0</ele><time>2026-05-02T10:53:40.13Z</time></trkpt><trkpt lat="42.1286913" lon="13.7002716"><ele>653.0</ele><time>2026-05-02T10:53:41.13Z</time></trkpt><trkpt lat="42.128759" lon="13.7001858"><ele>653.0</ele><time>2026-05-02T10:53:42.13Z</time></trkpt><trkpt lat="42.1288013" lon="13.7001093"><ele>653.0</ele><time>2026-05-02T10:53:43.131Z</time></trkpt><trkpt lat="42.1287886" lon="13.6999676"><ele>655.0</ele><time>2026-05-02T10:53:45.131Z</time></trkpt><trkpt lat="42.1286989" lon="13.6999014"><ele>657.0</ele><time>2026-05-02T10:53:47.13Z</time></trkpt><trkpt lat="42.1285668" lon="13.6999258"><ele>659.0</ele><time>2026-05-02T10:53:49.13Z</time></trkpt><trkpt lat="42.1284832" lon="13.6999596"><ele>661.0</ele><time>2026-05-02T10:53:50.13Z</time></trkpt><trkpt lat="42.1283851" lon="13.699998"><ele>663.0</ele><time>2026-05-02T10:53:51.131Z</time></trkpt><trkpt lat="42.128283" lon="13.7000363"><ele>665.5999999999999</ele><time>2026-05-02T10:53:52.131Z</time></trkpt><trkpt lat="42.1281772" lon="13.7000768"><ele>668.1999999999999</ele><time>2026-05-02T10:53:53.131Z</time></trkpt><trkpt lat="42.1280861" lon="13.7001026"><ele>670.8</ele><time>2026-05-02T10:53:54.131Z</time></trkpt><trkpt lat="42.1279954" lon="13.7001182"><ele>673.4</ele><time>2026-05-02T10:53:55.13Z</time></trkpt><trkpt lat="42.1279014" lon="13.700129"><ele>676.0</ele><time>2026-05-02T10:53:56.13Z</time></trkpt><trkpt lat="42.1278091" lon="13.7001435"><ele>676.0</ele><time>2026-05-02T10:53:57.13Z</time></trkpt><trkpt lat="42.1277211" lon="13.7001584"><ele>676.0</ele><time>2026-05-02T10:53:58.13Z</time></trkpt><trkpt lat="42.1276213" lon="13.7001603"><ele>676.0</ele><time>2026-05-02T10:53:59.131Z</time></trkpt><trkpt lat="42.1275316" lon="13.7001505"><ele>676.0</ele><time>2026-05-02T10:54:00.131Z</time></trkpt><trkpt lat="42.1274365" lon="13.7001556"><ele>676.0</ele><time>2026-05-02T10:54:01.13Z</time></trkpt><trkpt lat="42.127362" lon="13.7001649"><ele>676.0</ele><time>2026-05-02T10:54:02.13Z</time></trkpt><trkpt lat="42.1272646" lon="13.7001746"><ele>674.0</ele><time>2026-05-02T10:54:04.13Z</time></trkpt><trkpt lat="42.1271961" lon="13.7001952"><ele>672.0</ele><time>2026-05-02T10:54:09.13Z</time></trkpt><trkpt lat="42.1271045" lon="13.7001984"><ele>670.0</ele><time>2026-05-02T10:54:11.131Z</time></trkpt><trkpt lat="42.1270057" lon="13.700157"><ele>668.0</ele><time>2026-05-02T10:54:13.132Z</time></trkpt><trkpt lat="42.1269208" lon="13.7000661"><ele>666.0</ele><time>2026-05-02T10:54:15.13Z</time></trkpt><trkpt lat="42.1268451" lon="13.6999138"><ele>666.0</ele><time>2026-05-02T10:54:17.13Z</time></trkpt><trkpt lat="42.1268054" lon="13.6998293"><ele>666.0</ele><time>2026-05-02T10:54:18.13Z</time></trkpt><trkpt lat="42.1267528" lon="13.6996904"><ele>666.0</ele><time>2026-05-02T10:54:20.13Z</time></trkpt><trkpt lat="42.1266998" lon="13.6995535"><ele>666.0</ele><time>2026-05-02T10:54:22.13Z</time></trkpt><trkpt lat="42.1266805" lon="13.6994518"><ele>666.0</ele><time>2026-05-02T10:54:24.13Z</time></trkpt><trkpt lat="42.1266074" lon="13.699419"><ele>665.0</ele><time>2026-05-02T10:54:27.13Z</time></trkpt><trkpt lat="42.1265407" lon="13.6994332"><ele>664.0</ele><time>2026-05-02T10:54:29.13Z</time></trkpt><trkpt lat="42.1264502" lon="13.6994218"><ele>663.0</ele><time>2026-05-02T10:54:31.131Z</time></trkpt><trkpt lat="42.1263691" lon="13.6994215"><ele>662.0</ele><time>2026-05-02T10:54:33.132Z</time></trkpt><trkpt lat="42.1263093" lon="13.6993574"><ele>661.0</ele><time>2026-05-02T10:54:48.131Z</time></trkpt><trkpt lat="42.1262682" lon="13.6992422"><ele>660.0</ele><time>2026-05-02T10:54:50.13Z</time></trkpt><trkpt lat="42.1262214" lon="13.6991178"><ele>660.0</ele><time>2026-05-02T10:54:52.131Z</time></trkpt><trkpt lat="42.1261409" lon="13.6990261"><ele>660.0</ele><time>2026-05-02T10:54:54.131Z</time></trkpt><trkpt lat="42.1260967" lon="13.6989281"><ele>660.0</ele><time>2026-05-02T10:54:56.13Z</time></trkpt><trkpt lat="42.1260789" lon="13.6987883"><ele>660.0</ele><time>2026-05-02T10:54:58.13Z</time></trkpt><trkpt lat="42.1260725" lon="13.6986966"><ele>660.0</ele><time>2026-05-02T10:54:59.13Z</time></trkpt><trkpt lat="42.1260821" lon="13.698594"><ele>660.0</ele><time>2026-05-02T10:55:00.132Z</time></trkpt><trkpt lat="42.1260906" lon="13.6984909"><ele>661.0</ele><time>2026-05-02T10:55:01.131Z</time></trkpt><trkpt lat="42.1261043" lon="13.6983893"><ele>662.0</ele><time>2026-05-02T10:55:02.13Z</time></trkpt><trkpt lat="42.1261124" lon="13.6982742"><ele>663.0</ele><time>2026-05-02T10:55:03.131Z</time></trkpt><trkpt lat="42.126113" lon="13.6981546"><ele>664.0</ele><time>2026-05-02T10:55:04.131Z</time></trkpt><trkpt lat="42.1261094" lon="13.6980227"><ele>665.0</ele><time>2026-05-02T10:55:05.13Z</time></trkpt><trkpt lat="42.1261045" lon="13.6978884"><ele>666.0</ele><time>2026-05-02T10:55:06.131Z</time></trkpt><trkpt lat="42.126096" lon="13.6977485"><ele>668.75</ele><time>2026-05-02T10:55:07.13Z</time></trkpt><trkpt lat="42.1260799" lon="13.6976082"><ele>671.5</ele><time>2026-05-02T10:55:08.13Z</time></trkpt><trkpt lat="42.1260536" lon="13.6974666"><ele>674.25</ele><time>2026-05-02T10:55:09.132Z</time></trkpt><trkpt lat="42.1260205" lon="13.6973127"><ele>677.0</ele><time>2026-05-02T10:55:10.13Z</time></trkpt><trkpt lat="42.1259839" lon="13.6971499"><ele>677.0</ele><time>2026-05-02T10:55:11.131Z</time></trkpt><trkpt lat="42.1259455" lon="13.6969787"><ele>677.0</ele><time>2026-05-02T10:55:12.13Z</time></trkpt><trkpt lat="42.1259053" lon="13.696802"><ele>677.0</ele><time>2026-05-02T10:55:13.13Z</time></trkpt><trkpt lat="42.1258687" lon="13.6966189"><ele>677.0</ele><time>2026-05-02T10:55:14.131Z</time></trkpt><trkpt lat="42.1258308" lon="13.6964205"><ele>681.0</ele><time>2026-05-02T10:55:15.13Z</time></trkpt><trkpt lat="42.1257937" lon="13.6962079"><ele>685.0</ele><time>2026-05-02T10:55:16.131Z</time></trkpt><trkpt lat="42.1257536" lon="13.6959855"><ele>689.0</ele><time>2026-05-02T10:55:17.131Z</time></trkpt><trkpt lat="42.1257094" lon="13.695755"><ele>696.0</ele><time>2026-05-02T10:55:18.13Z</time></trkpt><trkpt lat="42.1256639" lon="13.6955196"><ele>703.0</ele><time>2026-05-02T10:55:19.131Z</time></trkpt><trkpt lat="42.1256194" lon="13.6952802"><ele>710.0</ele><time>2026-05-02T10:55:20.131Z</time></trkpt><trkpt lat="42.1255793" lon="13.6950567"><ele>716.3333333333333</ele><time>2026-05-02T10:55:21.13Z</time></trkpt><trkpt lat="42.1255419" lon="13.6948458"><ele>722.6666666666666</ele><time>2026-05-02T10:55:22.13Z</time></trkpt><trkpt lat="42.1255005" lon="13.6946529"><ele>729.0</ele><time>2026-05-02T10:55:23.13Z</time></trkpt><trkpt lat="42.1254553" lon="13.694471"><ele>730.0</ele><time>2026-05-02T10:55:24.13Z</time></trkpt><trkpt lat="42.1254139" lon="13.6943132"><ele>731.0</ele><time>2026-05-02T10:55:25.131Z</time></trkpt><trkpt lat="42.1253747" lon="13.6941866"><ele>732.0</ele><time>2026-05-02T10:55:26.131Z</time></trkpt><trkpt lat="42.1253406" lon="13.6940842"><ele>733.0</ele><time>2026-05-02T10:55:27.132Z</time></trkpt><trkpt lat="42.1253147" lon="13.6940043"><ele>734.0</ele><time>2026-05-02T10:55:28.131Z</time></trkpt><trkpt lat="42.1252873" lon="13.6939053"><ele>734.0</ele><time>2026-05-02T10:55:30.13Z</time></trkpt><trkpt lat="42.1252196" lon="13.6938491"><ele>734.0</ele><time>2026-05-02T10:57:35.131Z</time></trkpt><trkpt lat="42.1251668" lon="13.6937307"><ele>734.0</ele><time>2026-05-02T10:57:38.131Z</time></trkpt><trkpt lat="42.1251322" lon="13.6936184"><ele>734.0</ele><time>2026-05-02T10:57:40.132Z</time></trkpt><trkpt lat="42.1250699" lon="13.6934786"><ele>734.0</ele><time>2026-05-02T10:57:42.13Z</time></trkpt><trkpt lat="42.1250365" lon="13.6933981"><ele>735.3333333333333</ele><time>2026-05-02T10:57:43.131Z</time></trkpt><trkpt lat="42.125002" lon="13.6933238"><ele>736.6666666666666</ele><time>2026-05-02T10:57:44.13Z</time></trkpt><trkpt lat="42.1249606" lon="13.6932556"><ele>738.0</ele><time>2026-05-02T10:57:45.131Z</time></trkpt><trkpt lat="42.1249088" lon="13.6931884"><ele>739.3333333333334</ele><time>2026-05-02T10:57:46.13Z</time></trkpt><trkpt lat="42.1248488" lon="13.6931191"><ele>740.6666666666667</ele><time>2026-05-02T10:57:47.131Z</time></trkpt><trkpt lat="42.1247854" lon="13.6930305"><ele>742.0</ele><time>2026-05-02T10:57:48.132Z</time></trkpt><trkpt lat="42.1247221" lon="13.6929368"><ele>746.8</ele><time>2026-05-02T10:57:49.131Z</time></trkpt><trkpt lat="42.1246549" lon="13.6928443"><ele>751.6</ele><time>2026-05-02T10:57:50.13Z</time></trkpt><trkpt lat="42.1245832" lon="13.692754"><ele>756.4</ele><time>2026-05-02T10:57:51.131Z</time></trkpt><trkpt lat="42.1245137" lon="13.692639"><ele>761.1999999999999</ele><time>2026-05-02T10:57:52.13Z</time></trkpt><trkpt lat="42.1244439" lon="13.6925142"><ele>766.0</ele><time>2026-05-02T10:57:53.131Z</time></trkpt><trkpt lat="42.1243837" lon="13.6923761"><ele>766.1666666666667</ele><time>2026-05-02T10:57:54.13Z</time></trkpt><trkpt lat="42.1243388" lon="13.6922536"><ele>766.3333333333334</ele><time>2026-05-02T10:57:55.13Z</time></trkpt><trkpt lat="42.1243115" lon="13.6921517"><ele>766.5</ele><time>2026-05-02T10:57:56.132Z</time></trkpt><trkpt lat="42.1242709" lon="13.6920418"><ele>766.6666666666666</ele><time>2026-05-02T10:57:58.131Z</time></trkpt><trkpt lat="42.1241967" lon="13.6920026"><ele>766.8333333333333</ele><time>2026-05-02T10:58:02.132Z</time></trkpt><trkpt lat="42.1241258" lon="13.6920375"><ele>767.0</ele><time>2026-05-02T10:58:04.131Z</time></trkpt><trkpt lat="42.1240676" lon="13.6921211"><ele>774.0</ele><time>2026-05-02T10:58:06.13Z</time></trkpt><trkpt lat="42.1240553" lon="13.6922166"><ele>781.0</ele><time>2026-05-02T10:58:08.131Z</time></trkpt><trkpt lat="42.1240496" lon="13.692348"><ele>788.0</ele><time>2026-05-02T10:58:10.13Z</time></trkpt><trkpt lat="42.1240478" lon="13.6924457"><ele>795.0</ele><time>2026-05-02T10:58:11.132Z</time></trkpt><trkpt lat="42.124049" lon="13.6925948"><ele>802.0</ele><time>2026-05-02T10:58:12.131Z</time></trkpt><trkpt lat="42.1240504" lon="13.6927321"><ele>799.0</ele><time>2026-05-02T10:58:13.13Z</time></trkpt><trkpt lat="42.124043" lon="13.6928975"><ele>796.0</ele><time>2026-05-02T10:58:14.131Z</time></trkpt><trkpt lat="42.1240495" lon="13.6930512"><ele>793.0</ele><time>2026-05-02T10:58:15.131Z</time></trkpt><trkpt lat="42.1240532" lon="13.6931837"><ele>790.0</ele><time>2026-05-02T10:58:16.131Z</time></trkpt><trkpt lat="42.1240486" lon="13.693303"><ele>787.0</ele><time>2026-05-02T10:58:17.131Z</time></trkpt><trkpt lat="42.1240445" lon="13.6934048"><ele>787.0</ele><time>2026-05-02T10:58:18.13Z</time></trkpt><trkpt lat="42.1240284" lon="13.6935048"><ele>787.0</ele><time>2026-05-02T10:58:19.13Z</time></trkpt><trkpt lat="42.1239484" lon="13.6935839"><ele>787.0</ele><time>2026-05-02T10:58:20.131Z</time></trkpt><trkpt lat="42.1238822" lon="13.6936621"><ele>787.0</ele><time>2026-05-02T10:58:21.132Z</time></trkpt><trkpt lat="42.1238018" lon="13.6937288"><ele>787.0</ele><time>2026-05-02T10:58:22.131Z</time></trkpt><trkpt lat="42.1237253" lon="13.6938197"><ele>784.6</ele><time>2026-05-02T10:58:23.131Z</time></trkpt><trkpt lat="42.123613" lon="13.6938372"><ele>782.2</ele><time>2026-05-02T10:58:24.132Z</time></trkpt><trkpt lat="42.1235064" lon="13.6938855"><ele>779.8</ele><time>2026-05-02T10:58:25.13Z</time></trkpt><trkpt lat="42.1234103" lon="13.6939252"><ele>777.4</ele><time>2026-05-02T10:58:26.13Z</time></trkpt><trkpt lat="42.1233257" lon="13.6939685"><ele>775.0</ele><time>2026-05-02T10:58:27.13Z</time></trkpt><trkpt lat="42.1232513" lon="13.6940202"><ele>778.2</ele><time>2026-05-02T10:58:28.131Z</time></trkpt><trkpt lat="42.1231789" lon="13.6941"><ele>781.4</ele><time>2026-05-02T10:58:29.131Z</time></trkpt><trkpt lat="42.1230968" lon="13.6942032"><ele>784.5999999999999</ele><time>2026-05-02T10:58:30.13Z</time></trkpt><trkpt lat="42.1230214" lon="13.694294"><ele>787.8</ele><time>2026-05-02T10:58:31.132Z</time></trkpt><trkpt lat="42.1229424" lon="13.6943785"><ele>791.0</ele><time>2026-05-02T10:58:32.131Z</time></trkpt><trkpt lat="42.1228407" lon="13.6944515"><ele>791.0</ele><time>2026-05-02T10:58:33.13Z</time></trkpt><trkpt lat="42.122733" lon="13.6945311"><ele>791.0</ele><time>2026-05-02T10:58:34.13Z</time></trkpt><trkpt lat="42.1226311" lon="13.6945799"><ele>791.0</ele><time>2026-05-02T10:58:35.13Z</time></trkpt><trkpt lat="42.1225124" lon="13.6946126"><ele>791.0</ele><time>2026-05-02T10:58:36.131Z</time></trkpt><trkpt lat="42.122413" lon="13.6946384"><ele>792.0</ele><time>2026-05-02T10:58:37.131Z</time></trkpt><trkpt lat="42.122312" lon="13.6946423"><ele>793.0</ele><time>2026-05-02T10:58:38.131Z</time></trkpt><trkpt lat="42.1222023" lon="13.6946226"><ele>794.0</ele><time>2026-05-02T10:58:39.131Z</time></trkpt><trkpt lat="42.1221065" lon="13.6946007"><ele>795.0</ele><time>2026-05-02T10:58:40.132Z</time></trkpt><trkpt lat="42.1220228" lon="13.6945842"><ele>796.0</ele><time>2026-05-02T10:58:42.131Z</time></trkpt><trkpt lat="42.1219523" lon="13.6945895"><ele>795.9999999999999</ele><time>2026-05-02T10:58:46.13Z</time></trkpt><trkpt lat="42.1220116" lon="13.6945474"><ele>796.0</ele><time>2026-05-02T10:58:53.131Z</time></trkpt><trkpt lat="42.1220581" lon="13.6944788"><ele>796.0</ele><time>2026-05-02T10:58:54.13Z</time></trkpt><trkpt lat="42.1221142" lon="13.6943894"><ele>796.0</ele><time>2026-05-02T10:58:55.13Z</time></trkpt><trkpt lat="42.1221684" lon="13.6942832"><ele>795.9999999999999</ele><time>2026-05-02T10:58:56.13Z</time></trkpt><trkpt lat="42.1222226" lon="13.6941496"><ele>796.0</ele><time>2026-05-02T10:58:57.131Z</time></trkpt><trkpt lat="42.1222807" lon="13.6939782"><ele>799.6666666666666</ele><time>2026-05-02T10:58:58.131Z</time></trkpt><trkpt lat="42.1223397" lon="13.6937907"><ele>803.3333333333333</ele><time>2026-05-02T10:58:59.131Z</time></trkpt><trkpt lat="42.1224166" lon="13.6935818"><ele>807.0</ele><time>2026-05-02T10:59:00.131Z</time></trkpt><trkpt lat="42.1224775" lon="13.6934073"><ele>807.0</ele><time>2026-05-02T10:59:01.131Z</time></trkpt><trkpt lat="42.1225345" lon="13.6932453"><ele>807.0</ele><time>2026-05-02T10:59:02.13Z</time></trkpt><trkpt lat="42.122579" lon="13.6931045"><ele>807.0</ele><time>2026-05-02T10:59:03.13Z</time></trkpt><trkpt lat="42.1225971" lon="13.692981"><ele>807.0</ele><time>2026-05-02T10:59:04.13Z</time></trkpt><trkpt lat="42.1225836" lon="13.692884"><ele>807.0</ele><time>2026-05-02T10:59:05.131Z</time></trkpt><trkpt lat="42.1225396" lon="13.6928132"><ele>810.6</ele><time>2026-05-02T10:59:06.131Z</time></trkpt><trkpt lat="42.1224956" lon="13.6927355"><ele>814.2</ele><time>2026-05-02T10:59:07.132Z</time></trkpt><trkpt lat="42.122419" lon="13.6927331"><ele>817.8</ele><time>2026-05-02T10:59:08.131Z</time></trkpt><trkpt lat="42.1223184" lon="13.6928718"><ele>821.4</ele><time>2026-05-02T10:59:09.131Z</time></trkpt><trkpt lat="42.1222118" lon="13.6929368"><ele>825.0</ele><time>2026-05-02T10:59:10.131Z</time></trkpt><trkpt lat="42.1220862" lon="13.693024"><ele>825.5</ele><time>2026-05-02T10:59:11.13Z</time></trkpt><trkpt lat="42.1219527" lon="13.6931131"><ele>826.0</ele><time>2026-05-02T10:59:12.131Z</time></trkpt><trkpt lat="42.1218334" lon="13.6931981"><ele>826.5</ele><time>2026-05-02T10:59:13.13Z</time></trkpt><trkpt lat="42.1217162" lon="13.6932797"><ele>827.0</ele><time>2026-05-02T10:59:14.13Z</time></trkpt><trkpt lat="42.1215888" lon="13.6933561"><ele>834.0</ele><time>2026-05-02T10:59:15.132Z</time></trkpt><trkpt lat="42.1214463" lon="13.693423"><ele>841.0</ele><time>2026-05-02T10:59:16.13Z</time></trkpt><trkpt lat="42.1212901" lon="13.6934887"><ele>848.0</ele><time>2026-05-02T10:59:17.13Z</time></trkpt><trkpt lat="42.1211243" lon="13.69356"><ele>845.0</ele><time>2026-05-02T10:59:18.13Z</time></trkpt><trkpt lat="42.1209433" lon="13.6936261"><ele>842.0</ele><time>2026-05-02T10:59:19.13Z</time></trkpt><trkpt lat="42.1207512" lon="13.6936938"><ele>839.0</ele><time>2026-05-02T10:59:20.131Z</time></trkpt><trkpt lat="42.1205548" lon="13.6937659"><ele>839.0</ele><time>2026-05-02T10:59:21.131Z</time></trkpt><trkpt lat="42.1203701" lon="13.6938457"><ele>839.0</ele><time>2026-05-02T10:59:22.13Z</time></trkpt><trkpt lat="42.1201881" lon="13.6939211"><ele>839.0</ele><time>2026-05-02T10:59:23.131Z</time></trkpt><trkpt lat="42.120014" lon="13.6940006"><ele>847.3333333333334</ele><time>2026-05-02T10:59:24.13Z</time></trkpt><trkpt lat="42.1198599" lon="13.6940701"><ele>855.6666666666667</ele><time>2026-05-02T10:59:25.131Z</time></trkpt><trkpt lat="42.1197098" lon="13.694135"><ele>864.0</ele><time>2026-05-02T10:59:26.131Z</time></trkpt><trkpt lat="42.1195517" lon="13.6942007"><ele>864.0</ele><time>2026-05-02T10:59:27.131Z</time></trkpt><trkpt lat="42.1193897" lon="13.6942589"><ele>864.0</ele><time>2026-05-02T10:59:28.13Z</time></trkpt><trkpt lat="42.1192421" lon="13.6942948"><ele>864.0</ele><time>2026-05-02T10:59:29.13Z</time></trkpt><trkpt lat="42.1190895" lon="13.6943346"><ele>861.6666666666667</ele><time>2026-05-02T10:59:30.13Z</time></trkpt><trkpt lat="42.1189394" lon="13.6943915"><ele>859.3333333333334</ele><time>2026-05-02T10:59:31.13Z</time></trkpt><trkpt lat="42.1187908" lon="13.6944728"><ele>857.0</ele><time>2026-05-02T10:59:32.131Z</time></trkpt><trkpt lat="42.1186396" lon="13.6945643"><ele>857.0</ele><time>2026-05-02T10:59:33.13Z</time></trkpt><trkpt lat="42.1184816" lon="13.694663"><ele>857.0</ele><time>2026-05-02T10:59:34.131Z</time></trkpt><trkpt lat="42.1183146" lon="13.6947682"><ele>857.0</ele><time>2026-05-02T10:59:35.13Z</time></trkpt><trkpt lat="42.1181404" lon="13.6948808"><ele>867.0</ele><time>2026-05-02T10:59:36.13Z</time></trkpt><trkpt lat="42.117981" lon="13.6949788"><ele>877.0</ele><time>2026-05-02T10:59:37.131Z</time></trkpt><trkpt lat="42.1178284" lon="13.6950725"><ele>887.0</ele><time>2026-05-02T10:59:38.131Z</time></trkpt><trkpt lat="42.117681" lon="13.6951446"><ele>887.0</ele><time>2026-05-02T10:59:39.13Z</time></trkpt><trkpt lat="42.1175219" lon="13.6951994"><ele>887.0</ele><time>2026-05-02T10:59:40.131Z</time></trkpt><trkpt lat="42.1173478" lon="13.6952365"><ele>887.0</ele><time>2026-05-02T10:59:41.13Z</time></trkpt><trkpt lat="42.1171636" lon="13.6952667"><ele>886.0</ele><time>2026-05-02T10:59:42.131Z</time></trkpt><trkpt lat="42.1169719" lon="13.6953136"><ele>885.0</ele><time>2026-05-02T10:59:43.132Z</time></trkpt><trkpt lat="42.1167682" lon="13.6953598"><ele>884.0</ele><time>2026-05-02T10:59:44.132Z</time></trkpt><trkpt lat="42.1165687" lon="13.6954043"><ele>884.0</ele><time>2026-05-02T10:59:45.13Z</time></trkpt><trkpt lat="42.1163931" lon="13.6954453"><ele>884.0</ele><time>2026-05-02T10:59:46.13Z</time></trkpt><trkpt lat="42.1162151" lon="13.6954957"><ele>884.0</ele><time>2026-05-02T10:59:47.132Z</time></trkpt><trkpt lat="42.1160305" lon="13.6955474"><ele>884.0</ele><time>2026-05-02T10:59:48.131Z</time></trkpt><trkpt lat="42.1158385" lon="13.6956021"><ele>884.0</ele><time>2026-05-02T10:59:49.132Z</time></trkpt><trkpt lat="42.1156402" lon="13.6956578"><ele>884.0</ele><time>2026-05-02T10:59:50.131Z</time></trkpt><trkpt lat="42.1154364" lon="13.6957105"><ele>890.6666666666667</ele><time>2026-05-02T10:59:51.131Z</time></trkpt><trkpt lat="42.1152297" lon="13.6957611"><ele>897.3333333333333</ele><time>2026-05-02T10:59:52.13Z</time></trkpt><trkpt lat="42.1150164" lon="13.6958136"><ele>904.0</ele><time>2026-05-02T10:59:53.131Z</time></trkpt><trkpt lat="42.1148094" lon="13.6958603"><ele>910.0</ele><time>2026-05-02T10:59:54.131Z</time></trkpt><trkpt lat="42.1146091" lon="13.6959042"><ele>916.0</ele><time>2026-05-02T10:59:55.13Z</time></trkpt><trkpt lat="42.1144141" lon="13.6959491"><ele>922.0</ele><time>2026-05-02T10:59:56.131Z</time></trkpt><trkpt lat="42.1142154" lon="13.6960005"><ele>927.3333333333333</ele><time>2026-05-02T10:59:57.131Z</time></trkpt><trkpt lat="42.1140333" lon="13.696052"><ele>932.6666666666667</ele><time>2026-05-02T10:59:58.131Z</time></trkpt><trkpt lat="42.1138644" lon="13.6961048"><ele>938.0</ele><time>2026-05-02T10:59:59.131Z</time></trkpt><trkpt lat="42.1137031" lon="13.6961597"><ele>931.3333333333334</ele><time>2026-05-02T11:00:00.131Z</time></trkpt><trkpt lat="42.1135476" lon="13.6962109"><ele>924.6666666666667</ele><time>2026-05-02T11:00:01.13Z</time></trkpt><trkpt lat="42.1133776" lon="13.6962578"><ele>918.0</ele><time>2026-05-02T11:00:02.131Z</time></trkpt><trkpt lat="42.1132183" lon="13.6963018"><ele>918.0</ele><time>2026-05-02T11:00:03.13Z</time></trkpt><trkpt lat="42.1130688" lon="13.6963475"><ele>918.0</ele><time>2026-05-02T11:00:04.13Z</time></trkpt><trkpt lat="42.1129238" lon="13.6964102"><ele>918.0</ele><time>2026-05-02T11:00:05.13Z</time></trkpt><trkpt lat="42.1127677" lon="13.6964922"><ele>918.0</ele><time>2026-05-02T11:00:06.13Z</time></trkpt><trkpt lat="42.1126006" lon="13.6965968"><ele>918.0</ele><time>2026-05-02T11:00:07.13Z</time></trkpt><trkpt lat="42.1124139" lon="13.6967084"><ele>918.0</ele><time>2026-05-02T11:00:08.13Z</time></trkpt><trkpt lat="42.1122205" lon="13.6968147"><ele>914.6666666666667</ele><time>2026-05-02T11:00:09.132Z</time></trkpt><trkpt lat="42.1120549" lon="13.6969099"><ele>911.3333333333334</ele><time>2026-05-02T11:00:10.131Z</time></trkpt><trkpt lat="42.1119048" lon="13.6970019"><ele>908.0</ele><time>2026-05-02T11:00:11.132Z</time></trkpt><trkpt lat="42.1117611" lon="13.6970948"><ele>908.0</ele><time>2026-05-02T11:00:12.131Z</time></trkpt><trkpt lat="42.1115998" lon="13.6971823"><ele>908.0</ele><time>2026-05-02T11:00:13.13Z</time></trkpt><trkpt lat="42.111425" lon="13.6972645"><ele>908.0</ele><time>2026-05-02T11:00:14.13Z</time></trkpt><trkpt lat="42.111246" lon="13.6973483"><ele>918.0</ele><time>2026-05-02T11:00:15.13Z</time></trkpt><trkpt lat="42.1110843" lon="13.6974272"><ele>928.0</ele><time>2026-05-02T11:00:16.131Z</time></trkpt><trkpt lat="42.1109246" lon="13.6975131"><ele>938.0</ele><time>2026-05-02T11:00:17.131Z</time></trkpt><trkpt lat="42.1107676" lon="13.6976131"><ele>936.3333333333334</ele><time>2026-05-02T11:00:18.13Z</time></trkpt><trkpt lat="42.1106208" lon="13.6977196"><ele>934.6666666666667</ele><time>2026-05-02T11:00:19.13Z</time></trkpt><trkpt lat="42.110473" lon="13.6978198"><ele>933.0</ele><time>2026-05-02T11:00:20.13Z</time></trkpt><trkpt lat="42.1103116" lon="13.6979151"><ele>933.0</ele><time>2026-05-02T11:00:21.13Z</time></trkpt><trkpt lat="42.110165" lon="13.6979955"><ele>933.0</ele><time>2026-05-02T11:00:22.131Z</time></trkpt><trkpt lat="42.1100093" lon="13.6980643"><ele>933.0</ele><time>2026-05-02T11:00:23.131Z</time></trkpt><trkpt lat="42.1098452" lon="13.6981434"><ele>941.3333333333333</ele><time>2026-05-02T11:00:24.131Z</time></trkpt><trkpt lat="42.1096951" lon="13.6982186"><ele>949.6666666666666</ele><time>2026-05-02T11:00:25.13Z</time></trkpt><trkpt lat="42.1095588" lon="13.6982856"><ele>958.0</ele><time>2026-05-02T11:00:26.13Z</time></trkpt><trkpt lat="42.1094098" lon="13.6983528"><ele>958.0</ele><time>2026-05-02T11:00:27.13Z</time></trkpt><trkpt lat="42.1092697" lon="13.6984039"><ele>958.0</ele><time>2026-05-02T11:00:28.13Z</time></trkpt><trkpt lat="42.1091161" lon="13.6984501"><ele>958.0</ele><time>2026-05-02T11:00:29.132Z</time></trkpt><trkpt lat="42.1089561" lon="13.6984887"><ele>957.75</ele><time>2026-05-02T11:00:30.131Z</time></trkpt><trkpt lat="42.1088169" lon="13.6985233"><ele>957.5</ele><time>2026-05-02T11:00:31.131Z</time></trkpt><trkpt lat="42.108701" lon="13.6985512"><ele>957.25</ele><time>2026-05-02T11:00:32.131Z</time></trkpt><trkpt lat="42.1085978" lon="13.6985566"><ele>957.0</ele><time>2026-05-02T11:00:33.131Z</time></trkpt><trkpt lat="42.1085036" lon="13.6985314"><ele>957.0</ele><time>2026-05-02T11:00:34.13Z</time></trkpt><trkpt lat="42.1084272" lon="13.6984688"><ele>957.0</ele><time>2026-05-02T11:00:35.13Z</time></trkpt><trkpt lat="42.1083709" lon="13.6983632"><ele>957.0</ele><time>2026-05-02T11:00:36.131Z</time></trkpt><trkpt lat="42.1083257" lon="13.6982209"><ele>957.0</ele><time>2026-05-02T11:00:37.131Z</time></trkpt><trkpt lat="42.1082715" lon="13.6980435"><ele>957.0</ele><time>2026-05-02T11:00:38.13Z</time></trkpt><trkpt lat="42.1082065" lon="13.6978831"><ele>955.8</ele><time>2026-05-02T11:00:39.13Z</time></trkpt><trkpt lat="42.1081451" lon="13.6977464"><ele>954.6</ele><time>2026-05-02T11:00:40.13Z</time></trkpt><trkpt lat="42.1080974" lon="13.6976148"><ele>953.3999999999999</ele><time>2026-05-02T11:00:41.13Z</time></trkpt><trkpt lat="42.1080726" lon="13.6974737"><ele>952.1999999999999</ele><time>2026-05-02T11:00:42.131Z</time></trkpt><trkpt lat="42.1080749" lon="13.6973197"><ele>951.0</ele><time>2026-05-02T11:00:43.13Z</time></trkpt><trkpt lat="42.1080975" lon="13.6971527"><ele>951.0</ele><time>2026-05-02T11:00:44.132Z</time></trkpt><trkpt lat="42.1081409" lon="13.6969838"><ele>951.0</ele><time>2026-05-02T11:00:45.131Z</time></trkpt><trkpt lat="42.1082002" lon="13.6968057"><ele>951.0</ele><time>2026-05-02T11:00:46.131Z</time></trkpt><trkpt lat="42.1082713" lon="13.6966412"><ele>951.0</ele><time>2026-05-02T11:00:47.13Z</time></trkpt><trkpt lat="42.1083335" lon="13.6965017"><ele>954.5</ele><time>2026-05-02T11:00:48.13Z</time></trkpt><trkpt lat="42.1083904" lon="13.6963834"><ele>958.0</ele><time>2026-05-02T11:00:49.13Z</time></trkpt><trkpt lat="42.1084344" lon="13.69629"><ele>961.5</ele><time>2026-05-02T11:00:50.13Z</time></trkpt><trkpt lat="42.1084823" lon="13.6961873"><ele>965.0</ele><time>2026-05-02T11:00:52.13Z</time></trkpt><trkpt lat="42.1085108" lon="13.6961051"><ele>968.5</ele><time>2026-05-02T11:00:55.13Z</time></trkpt><trkpt lat="42.1084559" lon="13.6961476"><ele>972.0</ele><time>2026-05-02T11:00:58.13Z</time></trkpt><trkpt lat="42.108409" lon="13.6963076"><ele>972.0</ele><time>2026-05-02T11:01:00.13Z</time></trkpt><trkpt lat="42.1083572" lon="13.6964125"><ele>972.0</ele><time>2026-05-02T11:01:01.13Z</time></trkpt><trkpt lat="42.108298" lon="13.6965361"><ele>972.0</ele><time>2026-05-02T11:01:02.132Z</time></trkpt><trkpt lat="42.1082395" lon="13.6966709"><ele>972.0</ele><time>2026-05-02T11:01:03.132Z</time></trkpt><trkpt lat="42.1081874" lon="13.6967988"><ele>972.0</ele><time>2026-05-02T11:01:04.13Z</time></trkpt><trkpt lat="42.1081408" lon="13.6969281"><ele>968.5</ele><time>2026-05-02T11:01:05.13Z</time></trkpt><trkpt lat="42.1081026" lon="13.6970587"><ele>965.0</ele><time>2026-05-02T11:01:06.131Z</time></trkpt><trkpt lat="42.1080745" lon="13.6971842"><ele>961.5</ele><time>2026-05-02T11:01:07.131Z</time></trkpt><trkpt lat="42.1080565" lon="13.6972969"><ele>958.0</ele><time>2026-05-02T11:01:08.132Z</time></trkpt><trkpt lat="42.1080471" lon="13.6973855"><ele>954.5</ele><time>2026-05-02T11:01:09.13Z</time></trkpt><trkpt lat="42.1080265" lon="13.697476"><ele>951.0</ele><time>2026-05-02T11:01:11.131Z</time></trkpt><trkpt lat="42.1079617" lon="13.6973855"><ele>951.0</ele><time>2026-05-02T11:01:14.13Z</time></trkpt><trkpt lat="42.107945" lon="13.6973007"><ele>950.9999999999999</ele><time>2026-05-02T11:01:15.131Z</time></trkpt><trkpt lat="42.107926" lon="13.6971739"><ele>950.9999999999999</ele><time>2026-05-02T11:01:16.131Z</time></trkpt><trkpt lat="42.1079063" lon="13.6970383"><ele>951.0</ele><time>2026-05-02T11:01:17.131Z</time></trkpt><trkpt lat="42.1078796" lon="13.6969092"><ele>951.0</ele><time>2026-05-02T11:01:18.13Z</time></trkpt><trkpt lat="42.1078483" lon="13.6967558"><ele>950.5</ele><time>2026-05-02T11:01:19.13Z</time></trkpt><trkpt lat="42.1078249" lon="13.6965942"><ele>950.0</ele><time>2026-05-02T11:01:20.132Z</time></trkpt><trkpt lat="42.10779" lon="13.6964207"><ele>949.5</ele><time>2026-05-02T11:01:21.13Z</time></trkpt><trkpt lat="42.1077574" lon="13.696249"><ele>949.0</ele><time>2026-05-02T11:01:22.13Z</time></trkpt><trkpt lat="42.1077302" lon="13.6960786"><ele>948.0</ele><time>2026-05-02T11:01:23.13Z</time></trkpt><trkpt lat="42.107701" lon="13.6959144"><ele>947.0</ele><time>2026-05-02T11:01:24.13Z</time></trkpt><trkpt lat="42.1076719" lon="13.6957507"><ele>946.0</ele><time>2026-05-02T11:01:25.13Z</time></trkpt><trkpt lat="42.1076461" lon="13.695587"><ele>945.0</ele><time>2026-05-02T11:01:26.13Z</time></trkpt><trkpt lat="42.1076185" lon="13.6954153"><ele>944.5</ele><time>2026-05-02T11:01:27.132Z</time></trkpt><trkpt lat="42.1075843" lon="13.6952437"><ele>944.0</ele><time>2026-05-02T11:01:28.13Z</time></trkpt><trkpt lat="42.1075556" lon="13.6950826"><ele>943.5</ele><time>2026-05-02T11:01:29.13Z</time></trkpt><trkpt lat="42.107532" lon="13.6949293"><ele>943.0</ele><time>2026-05-02T11:01:30.13Z</time></trkpt><trkpt lat="42.1075079" lon="13.6947848"><ele>942.9999999999999</ele><time>2026-05-02T11:01:31.131Z</time></trkpt><trkpt lat="42.1074869" lon="13.6946518"><ele>943.0</ele><time>2026-05-02T11:01:32.131Z</time></trkpt><trkpt lat="42.1074634" lon="13.6945445"><ele>943.0</ele><time>2026-05-02T11:01:33.13Z</time></trkpt><trkpt lat="42.1074287" lon="13.6944675"><ele>943.0</ele><time>2026-05-02T11:01:34.13Z</time></trkpt><trkpt lat="42.1073777" lon="13.6944052"><ele>942.9999999999999</ele><time>2026-05-02T11:01:35.131Z</time></trkpt><trkpt lat="42.107307" lon="13.6943617"><ele>943.0</ele><time>2026-05-02T11:01:36.13Z</time></trkpt><trkpt lat="42.1072108" lon="13.69435"><ele>938.75</ele><time>2026-05-02T11:01:37.13Z</time></trkpt><trkpt lat="42.1070928" lon="13.6943367"><ele>934.5</ele><time>2026-05-02T11:01:38.131Z</time></trkpt><trkpt lat="42.1069701" lon="13.6943257"><ele>930.25</ele><time>2026-05-02T11:01:39.13Z</time></trkpt><trkpt lat="42.106848" lon="13.6943097"><ele>926.0</ele><time>2026-05-02T11:01:40.13Z</time></trkpt><trkpt lat="42.1067254" lon="13.6942841"><ele>926.0</ele><time>2026-05-02T11:01:41.13Z</time></trkpt><trkpt lat="42.1066064" lon="13.6942433"><ele>926.0</ele><time>2026-05-02T11:01:42.13Z</time></trkpt><trkpt lat="42.1064874" lon="13.6942058"><ele>926.0</ele><time>2026-05-02T11:01:43.13Z</time></trkpt><trkpt lat="42.1063601" lon="13.6941802"><ele>926.0</ele><time>2026-05-02T11:01:44.132Z</time></trkpt><trkpt lat="42.1062287" lon="13.6941521"><ele>923.0</ele><time>2026-05-02T11:01:45.13Z</time></trkpt><trkpt lat="42.1061069" lon="13.6941208"><ele>920.0</ele><time>2026-05-02T11:01:46.13Z</time></trkpt><trkpt lat="42.1059854" lon="13.6940948"><ele>917.0</ele><time>2026-05-02T11:01:47.13Z</time></trkpt><trkpt lat="42.10586" lon="13.6940732"><ele>914.0</ele><time>2026-05-02T11:01:48.131Z</time></trkpt><trkpt lat="42.1057326" lon="13.6940457"><ele>912.4000000000001</ele><time>2026-05-02T11:01:49.132Z</time></trkpt><trkpt lat="42.1056078" lon="13.694006"><ele>910.8000000000001</ele><time>2026-05-02T11:01:50.13Z</time></trkpt><trkpt lat="42.1054936" lon="13.6939734"><ele>909.1999999999999</ele><time>2026-05-02T11:01:51.13Z</time></trkpt><trkpt lat="42.1053888" lon="13.6939464"><ele>907.5999999999999</ele><time>2026-05-02T11:01:52.131Z</time></trkpt><trkpt lat="42.1052975" lon="13.6939147"><ele>906.0</ele><time>2026-05-02T11:01:53.131Z</time></trkpt><trkpt lat="42.105216" lon="13.6938845"><ele>906.0</ele><time>2026-05-02T11:01:54.13Z</time></trkpt><trkpt lat="42.1051579" lon="13.6938507"><ele>906.0</ele><time>2026-05-02T11:01:55.132Z</time></trkpt><trkpt lat="42.1050945" lon="13.6937759"><ele>906.0</ele><time>2026-05-02T11:01:57.131Z</time></trkpt><trkpt lat="42.1050155" lon="13.6936407"><ele>906.0</ele><time>2026-05-02T11:01:59.13Z</time></trkpt><trkpt lat="42.1049695" lon="13.6935498"><ele>906.0</ele><time>2026-05-02T11:02:00.13Z</time></trkpt><trkpt lat="42.1049176" lon="13.6934469"><ele>906.0</ele><time>2026-05-02T11:02:01.13Z</time></trkpt><trkpt lat="42.1048719" lon="13.6933687"><ele>908.5999999999999</ele><time>2026-05-02T11:02:02.13Z</time></trkpt><trkpt lat="42.1047766" lon="13.6932858"><ele>911.1999999999999</ele><time>2026-05-02T11:02:04.131Z</time></trkpt><trkpt lat="42.1047084" lon="13.6932834"><ele>913.8000000000001</ele><time>2026-05-02T11:02:05.13Z</time></trkpt><trkpt lat="42.1046208" lon="13.6932963"><ele>916.4000000000001</ele><time>2026-05-02T11:02:06.13Z</time></trkpt><trkpt lat="42.1045165" lon="13.6932975"><ele>919.0</ele><time>2026-05-02T11:02:07.13Z</time></trkpt><trkpt lat="42.1044083" lon="13.6932743"><ele>918.9999999999999</ele><time>2026-05-02T11:02:08.131Z</time></trkpt><trkpt lat="42.1043128" lon="13.6932542"><ele>919.0</ele><time>2026-05-02T11:02:09.13Z</time></trkpt><trkpt lat="42.1042305" lon="13.6932696"><ele>919.0</ele><time>2026-05-02T11:02:10.131Z</time></trkpt><trkpt lat="42.1041694" lon="13.6933099"><ele>919.0</ele><time>2026-05-02T11:02:11.13Z</time></trkpt><trkpt lat="42.1041197" lon="13.6933783"><ele>918.9999999999999</ele><time>2026-05-02T11:02:12.131Z</time></trkpt><trkpt lat="42.104079" lon="13.6934867"><ele>919.0</ele><time>2026-05-02T11:02:13.13Z</time></trkpt><trkpt lat="42.1040536" lon="13.6936215"><ele>919.6666666666666</ele><time>2026-05-02T11:02:14.129Z</time></trkpt><trkpt lat="42.1040265" lon="13.6937455"><ele>920.3333333333333</ele><time>2026-05-02T11:02:15.13Z</time></trkpt><trkpt lat="42.1039949" lon="13.6938449"><ele>921.0</ele><time>2026-05-02T11:02:16.13Z</time></trkpt><trkpt lat="42.1039604" lon="13.6939178"><ele>921.6666666666667</ele><time>2026-05-02T11:02:17.131Z</time></trkpt><trkpt lat="42.1039193" lon="13.6939951"><ele>922.3333333333334</ele><time>2026-05-02T11:02:18.129Z</time></trkpt><trkpt lat="42.1038614" lon="13.694056"><ele>923.0</ele><time>2026-05-02T11:02:19.129Z</time></trkpt><trkpt lat="42.1037835" lon="13.6940956"><ele>923.0</ele><time>2026-05-02T11:02:20.13Z</time></trkpt><trkpt lat="42.1036875" lon="13.694119"><ele>923.0</ele><time>2026-05-02T11:02:21.13Z</time></trkpt><trkpt lat="42.1035914" lon="13.6941137"><ele>923.0</ele><time>2026-05-02T11:02:22.13Z</time></trkpt><trkpt lat="42.1034801" lon="13.6940888"><ele>923.0</ele><time>2026-05-02T11:02:23.13Z</time></trkpt><trkpt lat="42.1033912" lon="13.6940735"><ele>923.0</ele><time>2026-05-02T11:02:24.129Z</time></trkpt><trkpt lat="42.103324" lon="13.6940612"><ele>923.8</ele><time>2026-05-02T11:02:25.13Z</time></trkpt><trkpt lat="42.1032116" lon="13.6940724"><ele>924.5999999999999</ele><time>2026-05-02T11:02:27.131Z</time></trkpt><trkpt lat="42.1031345" lon="13.6940751"><ele>925.4000000000001</ele><time>2026-05-02T11:02:28.129Z</time></trkpt><trkpt lat="42.1030382" lon="13.6940807"><ele>926.2</ele><time>2026-05-02T11:02:29.13Z</time></trkpt><trkpt lat="42.1029185" lon="13.6940923"><ele>927.0</ele><time>2026-05-02T11:02:30.129Z</time></trkpt><trkpt lat="42.102785" lon="13.6941086"><ele>927.0</ele><time>2026-05-02T11:02:31.13Z</time></trkpt><trkpt lat="42.1026596" lon="13.6941173"><ele>927.0</ele><time>2026-05-02T11:02:32.13Z</time></trkpt><trkpt lat="42.1025455" lon="13.6941153"><ele>927.0</ele><time>2026-05-02T11:02:33.129Z</time></trkpt><trkpt lat="42.1024274" lon="13.6941018"><ele>927.0</ele><time>2026-05-02T11:02:34.13Z</time></trkpt><trkpt lat="42.1023055" lon="13.6940883"><ele>928.0</ele><time>2026-05-02T11:02:35.13Z</time></trkpt><trkpt lat="42.1021942" lon="13.6940707"><ele>929.0</ele><time>2026-05-02T11:02:36.13Z</time></trkpt><trkpt lat="42.1020969" lon="13.6940491"><ele>930.0</ele><time>2026-05-02T11:02:37.129Z</time></trkpt><trkpt lat="42.1020123" lon="13.6940171"><ele>931.0</ele><time>2026-05-02T11:02:38.13Z</time></trkpt><trkpt lat="42.1019476" lon="13.6939704"><ele>932.0</ele><time>2026-05-02T11:02:39.129Z</time></trkpt><trkpt lat="42.1018875" lon="13.6939078"><ele>933.0</ele><time>2026-05-02T11:02:40.129Z</time></trkpt><trkpt lat="42.1018415" lon="13.6938367"><ele>933.0</ele><time>2026-05-02T11:02:41.13Z</time></trkpt><trkpt lat="42.1017847" lon="13.6937449"><ele>933.0</ele><time>2026-05-02T11:02:42.13Z</time></trkpt><trkpt lat="42.1017311" lon="13.6936704"><ele>933.0</ele><time>2026-05-02T11:02:43.13Z</time></trkpt><trkpt lat="42.101674" lon="13.6936067"><ele>933.0</ele><time>2026-05-02T11:02:44.13Z</time></trkpt><trkpt lat="42.101599" lon="13.6935533"><ele>933.0</ele><time>2026-05-02T11:02:45.129Z</time></trkpt><trkpt lat="42.1015062" lon="13.6935049"><ele>933.0</ele><time>2026-05-02T11:02:46.13Z</time></trkpt><trkpt lat="42.1014312" lon="13.6934872"><ele>935.8</ele><time>2026-05-02T11:02:47.13Z</time></trkpt><trkpt lat="42.1013669" lon="13.6935023"><ele>938.5999999999999</ele><time>2026-05-02T11:02:48.13Z</time></trkpt><trkpt lat="42.1012614" lon="13.6936219"><ele>941.4000000000001</ele><time>2026-05-02T11:02:50.129Z</time></trkpt><trkpt lat="42.1012014" lon="13.6937265"><ele>944.2</ele><time>2026-05-02T11:02:51.131Z</time></trkpt><trkpt lat="42.1011452" lon="13.6938156"><ele>947.0</ele><time>2026-05-02T11:02:52.131Z</time></trkpt><trkpt lat="42.1010629" lon="13.6939288"><ele>947.0</ele><time>2026-05-02T11:02:53.13Z</time></trkpt><trkpt lat="42.1009994" lon="13.6940121"><ele>947.0</ele><time>2026-05-02T11:02:54.129Z</time></trkpt><trkpt lat="42.1009217" lon="13.694086"><ele>947.0</ele><time>2026-05-02T11:02:55.129Z</time></trkpt><trkpt lat="42.1008455" lon="13.6941671"><ele>947.0</ele><time>2026-05-02T11:02:56.129Z</time></trkpt><trkpt lat="42.1007644" lon="13.694255"><ele>947.0</ele><time>2026-05-02T11:02:57.13Z</time></trkpt><trkpt lat="42.1006997" lon="13.694314"><ele>949.0</ele><time>2026-05-02T11:02:58.129Z</time></trkpt><trkpt lat="42.1006334" lon="13.6943489"><ele>950.9999999999999</ele><time>2026-05-02T11:02:59.13Z</time></trkpt><trkpt lat="42.1005684" lon="13.6943668"><ele>953.0</ele><time>2026-05-02T11:03:00.13Z</time></trkpt><trkpt lat="42.1005051" lon="13.6943557"><ele>955.0</ele><time>2026-05-02T11:03:01.13Z</time></trkpt><trkpt lat="42.1004302" lon="13.6943178"><ele>956.9999999999999</ele><time>2026-05-02T11:03:02.129Z</time></trkpt><trkpt lat="42.1003533" lon="13.6942758"><ele>959.0</ele><time>2026-05-02T11:03:03.13Z</time></trkpt><trkpt lat="42.1002897" lon="13.6942565"><ele>961.0</ele><time>2026-05-02T11:03:04.13Z</time></trkpt><trkpt lat="42.1002201" lon="13.6942609"><ele>961.0</ele><time>2026-05-02T11:03:05.13Z</time></trkpt><trkpt lat="42.1000984" lon="13.6942418"><ele>960.9999999999999</ele><time>2026-05-02T11:03:07.13Z</time></trkpt><trkpt lat="42.1000204" lon="13.6942021"><ele>960.9999999999999</ele><time>2026-05-02T11:03:08.13Z</time></trkpt><trkpt lat="42.0999214" lon="13.6941535"><ele>961.0</ele><time>2026-05-02T11:03:09.13Z</time></trkpt><trkpt lat="42.099832" lon="13.6941086"><ele>961.0</ele><time>2026-05-02T11:03:10.129Z</time></trkpt><trkpt lat="42.0997711" lon="13.6940563"><ele>964.4</ele><time>2026-05-02T11:03:11.129Z</time></trkpt><trkpt lat="42.099702" lon="13.6938901"><ele>967.8</ele><time>2026-05-02T11:03:13.13Z</time></trkpt><trkpt lat="42.0996677" lon="13.6937755"><ele>971.1999999999999</ele><time>2026-05-02T11:03:14.129Z</time></trkpt><trkpt lat="42.0996228" lon="13.6936443"><ele>974.5999999999999</ele><time>2026-05-02T11:03:15.129Z</time></trkpt><trkpt lat="42.0995821" lon="13.6935175"><ele>978.0</ele><time>2026-05-02T11:03:16.13Z</time></trkpt><trkpt lat="42.0995499" lon="13.6934192"><ele>980.25</ele><time>2026-05-02T11:03:17.13Z</time></trkpt><trkpt lat="42.0994548" lon="13.6933077"><ele>982.5</ele><time>2026-05-02T11:03:19.131Z</time></trkpt><trkpt lat="42.09939" lon="13.6932471"><ele>984.75</ele><time>2026-05-02T11:03:20.129Z</time></trkpt><trkpt lat="42.0993228" lon="13.6931931"><ele>987.0</ele><time>2026-05-02T11:03:21.129Z</time></trkpt><trkpt lat="42.1015062" lon="13.6935049"><ele>981.6</ele><time>2026-05-02T11:02:46.13Z</time></trkpt><trkpt lat="42.1014312" lon="13.6934872"><ele>976.2</ele><time>2026-05-02T11:02:47.13Z</time></trkpt><trkpt lat="42.1013669" lon="13.6935023"><ele>970.8</ele><time>2026-05-02T11:02:48.13Z</time></trkpt><trkpt lat="42.1012614" lon="13.6936219"><ele>965.4</ele><time>2026-05-02T11:02:50.129Z</time></trkpt><trkpt lat="42.1012014" lon="13.6937265"><ele>960.0</ele><time>2026-05-02T11:02:51.131Z</time></trkpt><trkpt lat="42.1011452" lon="13.6938156"><ele>957.4</ele><time>2026-05-02T11:02:52.131Z</time></trkpt><trkpt lat="42.1010629" lon="13.6939288"><ele>954.8</ele><time>2026-05-02T11:02:53.13Z</time></trkpt><trkpt lat="42.1009994" lon="13.6940121"><ele>952.2</ele><time>2026-05-02T11:02:54.129Z</time></trkpt><trkpt lat="42.1009217" lon="13.694086"><ele>949.6</ele><time>2026-05-02T11:02:55.129Z</time></trkpt><trkpt lat="42.1008455" lon="13.6941671"><ele>947.0</ele><time>2026-05-02T11:02:56.129Z</time></trkpt><trkpt lat="42.1007644" lon="13.694255"><ele>949.0</ele><time>2026-05-02T11:02:57.13Z</time></trkpt><trkpt lat="42.1006997" lon="13.694314"><ele>950.9999999999999</ele><time>2026-05-02T11:02:58.129Z</time></trkpt><trkpt lat="42.1006334" lon="13.6943489"><ele>953.0</ele><time>2026-05-02T11:02:59.13Z</time></trkpt><trkpt lat="42.1005684" lon="13.6943668"><ele>955.0</ele><time>2026-05-02T11:03:00.13Z</time></trkpt><trkpt lat="42.1005051" lon="13.6943557"><ele>956.9999999999999</ele><time>2026-05-02T11:03:01.13Z</time></trkpt><trkpt lat="42.1004302" lon="13.6943178"><ele>959.0</ele><time>2026-05-02T11:03:02.129Z</time></trkpt><trkpt lat="42.1003533" lon="13.6942758"><ele>961.0</ele><time>2026-05-02T11:03:03.13Z</time></trkpt><trkpt lat="42.1002897" lon="13.6942565"><ele>961.0</ele><time>2026-05-02T11:03:04.13Z</time></trkpt><trkpt lat="42.1002201" lon="13.6942609"><ele>960.9999999999999</ele><time>2026-05-02T11:03:05.13Z</time></trkpt><trkpt lat="42.1000984" lon="13.6942418"><ele>960.9999999999999</ele><time>2026-05-02T11:03:07.13Z</time></trkpt><trkpt lat="42.1000204" lon="13.6942021"><ele>961.0</ele><time>2026-05-02T11:03:08.13Z</time></trkpt><trkpt lat="42.0999214" lon="13.6941535"><ele>961.0</ele><time>2026-05-02T11:03:09.13Z</time></trkpt><trkpt lat="42.099832" lon="13.6941086"><ele>964.4</ele><time>2026-05-02T11:03:10.129Z</time></trkpt><trkpt lat="42.0997711" lon="13.6940563"><ele>967.8</ele><time>2026-05-02T11:03:11.129Z</time></trkpt><trkpt lat="42.099702" lon="13.6938901"><ele>971.1999999999999</ele><time>2026-05-02T11:03:13.13Z</time></trkpt><trkpt lat="42.0996677" lon="13.6937755"><ele>974.5999999999999</ele><time>2026-05-02T11:03:14.129Z</time></trkpt><trkpt lat="42.0996228" lon="13.6936443"><ele>978.0</ele><time>2026-05-02T11:03:15.129Z</time></trkpt><trkpt lat="42.0995821" lon="13.6935175"><ele>979.8</ele><time>2026-05-02T11:03:16.13Z</time></trkpt><trkpt lat="42.0995499" lon="13.6934192"><ele>981.5999999999999</ele><time>2026-05-02T11:03:17.13Z</time></trkpt><trkpt lat="42.0994548" lon="13.6933077"><ele>983.4000000000001</ele><time>2026-05-02T11:03:19.131Z</time></trkpt><trkpt lat="42.09939" lon="13.6932471"><ele>985.2</ele><time>2026-05-02T11:03:20.129Z</time></trkpt><trkpt lat="42.0993228" lon="13.6931931"><ele>987.0</ele><time>2026-05-02T11:03:21.129Z</time></trkpt><trkpt lat="42.0992072" lon="13.6931804"><ele>990.4000000000001</ele><time>2026-05-02T11:03:23.129Z</time></trkpt><trkpt lat="42.0990543" lon="13.6932487"><ele>993.8000000000001</ele><time>2026-05-02T11:03:25.131Z</time></trkpt><trkpt lat="42.0989895" lon="13.6932699"><ele>997.2</ele><time>2026-05-02T11:03:26.129Z</time></trkpt><trkpt lat="42.0989239" lon="13.6933479"><ele>1000.6</ele><time>2026-05-02T11:03:27.129Z</time></trkpt><trkpt lat="42.0989321" lon="13.693483"><ele>1004.0</ele><time>2026-05-02T11:03:28.13Z</time></trkpt><trkpt lat="42.0989172" lon="13.6935922"><ele>1004.0000000000001</ele><time>2026-05-02T11:03:29.131Z</time></trkpt><trkpt lat="42.09892" lon="13.6936994"><ele>1004.0</ele><time>2026-05-02T11:03:30.129Z</time></trkpt><trkpt lat="42.09892" lon="13.6938123"><ele>1004.0</ele><time>2026-05-02T11:03:31.129Z</time></trkpt><trkpt lat="42.0989065" lon="13.6939094"><ele>1004.0</ele><time>2026-05-02T11:03:32.129Z</time></trkpt><trkpt lat="42.0988864" lon="13.6939994"><ele>1004.0000000000001</ele><time>2026-05-02T11:03:33.129Z</time></trkpt><trkpt lat="42.0988177" lon="13.6941236"><ele>1004.0</ele><time>2026-05-02T11:03:35.129Z</time></trkpt><trkpt lat="42.0986929" lon="13.6942017"><ele>1004.0</ele><time>2026-05-02T11:03:37.129Z</time></trkpt><trkpt lat="42.0986254" lon="13.6942532"><ele>1004.0000000000001</ele><time>2026-05-02T11:03:38.129Z</time></trkpt><trkpt lat="42.0985491" lon="13.6943338"><ele>1004.0000000000001</ele><time>2026-05-02T11:03:39.13Z</time></trkpt><trkpt lat="42.0984593" lon="13.6944338"><ele>1004.0</ele><time>2026-05-02T11:03:40.13Z</time></trkpt><trkpt lat="42.0983942" lon="13.6945316"><ele>1004.0</ele><time>2026-05-02T11:03:41.13Z</time></trkpt><trkpt lat="42.0983428" lon="13.6946275"><ele>1004.0</ele><time>2026-05-02T11:03:42.129Z</time></trkpt><trkpt lat="42.0983009" lon="13.6947291"><ele>1004.0000000000001</ele><time>2026-05-02T11:03:43.13Z</time></trkpt><trkpt lat="42.098258" lon="13.6948363"><ele>1004.0000000000001</ele><time>2026-05-02T11:03:44.129Z</time></trkpt><trkpt lat="42.0982115" lon="13.6949315"><ele>1004.0</ele><time>2026-05-02T11:03:45.129Z</time></trkpt><trkpt lat="42.0981515" lon="13.6950368"><ele>1004.0</ele><time>2026-05-02T11:03:46.129Z</time></trkpt><trkpt lat="42.0980879" lon="13.6951471"><ele>1004.0</ele><time>2026-05-02T11:03:47.13Z</time></trkpt><trkpt lat="42.0980405" lon="13.6952351"><ele>1004.0000000000001</ele><time>2026-05-02T11:03:48.13Z</time></trkpt><trkpt lat="42.0980005" lon="13.6953065"><ele>1004.0000000000001</ele><time>2026-05-02T11:03:49.13Z</time></trkpt><trkpt lat="42.097927" lon="13.6954174"><ele>1004.0</ele><time>2026-05-02T11:03:51.13Z</time></trkpt><trkpt lat="42.0978633" lon="13.6954805"><ele>1004.0</ele><time>2026-05-02T11:03:53.129Z</time></trkpt><trkpt lat="42.0977599" lon="13.6955427"><ele>1003.0000000000001</ele><time>2026-05-02T11:03:55.129Z</time></trkpt><trkpt lat="42.0976982" lon="13.6955678"><ele>1002.0</ele><time>2026-05-02T11:03:56.129Z</time></trkpt><trkpt lat="42.0975769" lon="13.6956188"><ele>1001.0</ele><time>2026-05-02T11:03:58.129Z</time></trkpt><trkpt lat="42.097505" lon="13.6956428"><ele>1000.0</ele><time>2026-05-02T11:03:59.129Z</time></trkpt><trkpt lat="42.0974406" lon="13.6956675"><ele>999.0000000000001</ele><time>2026-05-02T11:04:00.129Z</time></trkpt><trkpt lat="42.0973754" lon="13.6956978"><ele>998.0</ele><time>2026-05-02T11:04:01.129Z</time></trkpt><trkpt lat="42.0973136" lon="13.6957286"><ele>998.0</ele><time>2026-05-02T11:04:02.129Z</time></trkpt><trkpt lat="42.0971955" lon="13.6958074"><ele>998.0</ele><time>2026-05-02T11:04:04.13Z</time></trkpt><trkpt lat="42.0971229" lon="13.6958419"><ele>998.0</ele><time>2026-05-02T11:04:05.131Z</time></trkpt><trkpt lat="42.0970331" lon="13.6958674"><ele>998.0</ele><time>2026-05-02T11:04:06.129Z</time></trkpt><trkpt lat="42.0969517" lon="13.6958824"><ele>998.0</ele><time>2026-05-02T11:04:07.13Z</time></trkpt><trkpt lat="42.0968744" lon="13.6958921"><ele>998.0000000000001</ele><time>2026-05-02T11:04:08.13Z</time></trkpt><trkpt lat="42.096803" lon="13.6958848"><ele>998.0</ele><time>2026-05-02T11:04:09.13Z</time></trkpt><trkpt lat="42.0967393" lon="13.6958671"><ele>998.0000000000001</ele><time>2026-05-02T11:04:10.13Z</time></trkpt><trkpt lat="42.0966734" lon="13.695831"><ele>998.0000000000001</ele><time>2026-05-02T11:04:11.13Z</time></trkpt><trkpt lat="42.0966137" lon="13.6957842"><ele>998.0</ele><time>2026-05-02T11:04:12.131Z</time></trkpt><trkpt lat="42.0965582" lon="13.6957372"><ele>998.0000000000001</ele><time>2026-05-02T11:04:13.129Z</time></trkpt><trkpt lat="42.0965036" lon="13.6956925"><ele>998.0000000000001</ele><time>2026-05-02T11:04:14.13Z</time></trkpt><trkpt lat="42.0963949" lon="13.6956719"><ele>997.6666666666667</ele><time>2026-05-02T11:04:16.129Z</time></trkpt><trkpt lat="42.0962884" lon="13.6957377"><ele>997.3333333333334</ele><time>2026-05-02T11:04:18.129Z</time></trkpt><trkpt lat="42.0962141" lon="13.6957814"><ele>997.0</ele><time>2026-05-02T11:04:19.13Z</time></trkpt><trkpt lat="42.0961346" lon="13.6958276"><ele>996.6666666666667</ele><time>2026-05-02T11:04:20.13Z</time></trkpt><trkpt lat="42.0960617" lon="13.6958731"><ele>996.3333333333334</ele><time>2026-05-02T11:04:21.129Z</time></trkpt><trkpt lat="42.0959926" lon="13.6959013"><ele>996.0</ele><time>2026-05-02T11:04:22.129Z</time></trkpt><trkpt lat="42.0958763" lon="13.6958852"><ele>996.0</ele><time>2026-05-02T11:04:24.129Z</time></trkpt><trkpt lat="42.0958142" lon="13.6958536"><ele>995.9999999999999</ele><time>2026-05-02T11:04:25.129Z</time></trkpt><trkpt lat="42.0957393" lon="13.6958091"><ele>996.0</ele><time>2026-05-02T11:04:26.131Z</time></trkpt><trkpt lat="42.0956611" lon="13.6957655"><ele>996.0</ele><time>2026-05-02T11:04:27.129Z</time></trkpt><trkpt lat="42.095594" lon="13.6957335"><ele>995.9999999999999</ele><time>2026-05-02T11:04:28.129Z</time></trkpt><trkpt lat="42.0955313" lon="13.6957199"><ele>996.0</ele><time>2026-05-02T11:04:29.13Z</time></trkpt><trkpt lat="42.0954674" lon="13.6957194"><ele>996.0</ele><time>2026-05-02T11:04:30.13Z</time></trkpt><trkpt lat="42.0953907" lon="13.6957282"><ele>997.1666666666666</ele><time>2026-05-02T11:04:31.129Z</time></trkpt><trkpt lat="42.0953136" lon="13.6957462"><ele>998.3333333333333</ele><time>2026-05-02T11:04:32.13Z</time></trkpt><trkpt lat="42.0952428" lon="13.6957726"><ele>999.5</ele><time>2026-05-02T11:04:33.129Z</time></trkpt><trkpt lat="42.095183" lon="13.6958085"><ele>1000.6666666666666</ele><time>2026-05-02T11:04:34.129Z</time></trkpt><trkpt lat="42.0950652" lon="13.6958823"><ele>1001.8333333333333</ele><time>2026-05-02T11:04:36.129Z</time></trkpt><trkpt lat="42.0949748" lon="13.6959361"><ele>1003.0</ele><time>2026-05-02T11:04:37.13Z</time></trkpt><trkpt lat="42.0948686" lon="13.695986"><ele>1003.8</ele><time>2026-05-02T11:04:38.129Z</time></trkpt><trkpt lat="42.0947671" lon="13.6960287"><ele>1004.5999999999999</ele><time>2026-05-02T11:04:39.13Z</time></trkpt><trkpt lat="42.0946605" lon="13.6960741"><ele>1005.4000000000001</ele><time>2026-05-02T11:04:40.129Z</time></trkpt><trkpt lat="42.0945627" lon="13.6961356"><ele>1006.2</ele><time>2026-05-02T11:04:41.129Z</time></trkpt><trkpt lat="42.0944714" lon="13.6961933"><ele>1007.0</ele><time>2026-05-02T11:04:42.129Z</time></trkpt><trkpt lat="42.0943764" lon="13.6962498"><ele>1007.25</ele><time>2026-05-02T11:04:43.129Z</time></trkpt><trkpt lat="42.0942643" lon="13.6962933"><ele>1007.5</ele><time>2026-05-02T11:04:44.129Z</time></trkpt><trkpt lat="42.0941323" lon="13.6963401"><ele>1007.75</ele><time>2026-05-02T11:04:45.13Z</time></trkpt><trkpt lat="42.0940128" lon="13.6963808"><ele>1008.0</ele><time>2026-05-02T11:04:46.13Z</time></trkpt><trkpt lat="42.0939018" lon="13.6964074"><ele>1008.0</ele><time>2026-05-02T11:04:47.129Z</time></trkpt><trkpt lat="42.0938072" lon="13.6964642"><ele>1008.0</ele><time>2026-05-02T11:04:48.129Z</time></trkpt><trkpt lat="42.0937181" lon="13.6965459"><ele>1008.0</ele><time>2026-05-02T11:04:49.129Z</time></trkpt><trkpt lat="42.0936253" lon="13.6966584"><ele>1008.0</ele><time>2026-05-02T11:04:50.129Z</time></trkpt><trkpt lat="42.093537" lon="13.6967882"><ele>1007.0</ele><time>2026-05-02T11:04:51.13Z</time></trkpt><trkpt lat="42.0934483" lon="13.696936"><ele>1006.0</ele><time>2026-05-02T11:04:52.129Z</time></trkpt><trkpt lat="42.0933625" lon="13.6970856"><ele>1005.0</ele><time>2026-05-02T11:04:53.131Z</time></trkpt><trkpt lat="42.0932961" lon="13.6972106"><ele>1004.0</ele><time>2026-05-02T11:04:54.13Z</time></trkpt><trkpt lat="42.0932319" lon="13.6973371"><ele>1003.8000000000001</ele><time>2026-05-02T11:04:55.13Z</time></trkpt><trkpt lat="42.093167" lon="13.6974743"><ele>1003.6000000000001</ele><time>2026-05-02T11:04:56.129Z</time></trkpt><trkpt lat="42.0931084" lon="13.6975893"><ele>1003.4</ele><time>2026-05-02T11:04:57.131Z</time></trkpt><trkpt lat="42.0930469" lon="13.6976895"><ele>1003.2</ele><time>2026-05-02T11:04:58.129Z</time></trkpt><trkpt lat="42.0929808" lon="13.6977568"><ele>1003.0</ele><time>2026-05-02T11:04:59.13Z</time></trkpt><trkpt lat="42.0929085" lon="13.6977904"><ele>1002.9999999999999</ele><time>2026-05-02T11:05:00.13Z</time></trkpt><trkpt lat="42.0928341" lon="13.6977881"><ele>1003.0</ele><time>2026-05-02T11:05:01.13Z</time></trkpt><trkpt lat="42.0927516" lon="13.697761"><ele>1003.0</ele><time>2026-05-02T11:05:02.129Z</time></trkpt><trkpt lat="42.0926734" lon="13.6977251"><ele>1003.0</ele><time>2026-05-02T11:05:03.129Z</time></trkpt><trkpt lat="42.0925891" lon="13.697701"><ele>1002.9999999999999</ele><time>2026-05-02T11:05:04.131Z</time></trkpt><trkpt lat="42.0924945" lon="13.6977015"><ele>1003.0</ele><time>2026-05-02T11:05:05.13Z</time></trkpt><trkpt lat="42.0923851" lon="13.6977224"><ele>1002.2</ele><time>2026-05-02T11:05:06.13Z</time></trkpt><trkpt lat="42.0922845" lon="13.697748"><ele>1001.4</ele><time>2026-05-02T11:05:07.129Z</time></trkpt><trkpt lat="42.0921854" lon="13.6977781"><ele>1000.6000000000001</ele><time>2026-05-02T11:05:08.13Z</time></trkpt><trkpt lat="42.0920879" lon="13.6978095"><ele>999.8000000000001</ele><time>2026-05-02T11:05:09.13Z</time></trkpt><trkpt lat="42.0919924" lon="13.6978078"><ele>999.0</ele><time>2026-05-02T11:05:10.13Z</time></trkpt><trkpt lat="42.0918977" lon="13.6978016"><ele>998.2</ele><time>2026-05-02T11:05:11.13Z</time></trkpt><trkpt lat="42.0917903" lon="13.6978094"><ele>997.4000000000001</ele><time>2026-05-02T11:05:12.129Z</time></trkpt><trkpt lat="42.0916899" lon="13.697835"><ele>996.6</ele><time>2026-05-02T11:05:13.13Z</time></trkpt><trkpt lat="42.0915969" lon="13.6978947"><ele>995.8</ele><time>2026-05-02T11:05:14.129Z</time></trkpt><trkpt lat="42.0914956" lon="13.6979822"><ele>995.0</ele><time>2026-05-02T11:05:15.129Z</time></trkpt><trkpt lat="42.0913898" lon="13.6980572"><ele>994.4</ele><time>2026-05-02T11:05:16.13Z</time></trkpt><trkpt lat="42.0912869" lon="13.6981142"><ele>993.8</ele><time>2026-05-02T11:05:17.13Z</time></trkpt><trkpt lat="42.091189" lon="13.6981823"><ele>993.2</ele><time>2026-05-02T11:05:18.129Z</time></trkpt><trkpt lat="42.0910996" lon="13.6982403"><ele>992.6</ele><time>2026-05-02T11:05:19.13Z</time></trkpt><trkpt lat="42.0910191" lon="13.6982791"><ele>992.0</ele><time>2026-05-02T11:05:20.13Z</time></trkpt><trkpt lat="42.0909521" lon="13.6983257"><ele>992.0</ele><time>2026-05-02T11:05:21.13Z</time></trkpt><trkpt lat="42.0909066" lon="13.69839"><ele>992.0</ele><time>2026-05-02T11:05:22.129Z</time></trkpt><trkpt lat="42.0908489" lon="13.69855"><ele>992.0</ele><time>2026-05-02T11:05:24.129Z</time></trkpt><trkpt lat="42.0908518" lon="13.6986891"><ele>992.0</ele><time>2026-05-02T11:05:25.129Z</time></trkpt><trkpt lat="42.0908348" lon="13.6987984"><ele>992.0</ele><time>2026-05-02T11:05:26.129Z</time></trkpt><trkpt lat="42.0908013" lon="13.6988856"><ele>992.6</ele><time>2026-05-02T11:05:27.131Z</time></trkpt><trkpt lat="42.0907647" lon="13.6989558"><ele>993.2</ele><time>2026-05-02T11:05:28.131Z</time></trkpt><trkpt lat="42.090646" lon="13.6990479"><ele>993.8</ele><time>2026-05-02T11:05:30.13Z</time></trkpt><trkpt lat="42.0905769" lon="13.6991278"><ele>994.4</ele><time>2026-05-02T11:05:31.129Z</time></trkpt><trkpt lat="42.0904853" lon="13.699207"><ele>995.0</ele><time>2026-05-02T11:05:32.129Z</time></trkpt><trkpt lat="42.090374" lon="13.6992751"><ele>995.5</ele><time>2026-05-02T11:05:33.129Z</time></trkpt><trkpt lat="42.0902489" lon="13.6993565"><ele>996.0</ele><time>2026-05-02T11:05:34.13Z</time></trkpt><trkpt lat="42.0901274" lon="13.6994597"><ele>996.5</ele><time>2026-05-02T11:05:35.13Z</time></trkpt><trkpt lat="42.0900152" lon="13.6995484"><ele>997.0</ele><time>2026-05-02T11:05:36.13Z</time></trkpt><trkpt lat="42.089914" lon="13.6996014"><ele>997.6</ele><time>2026-05-02T11:05:37.13Z</time></trkpt><trkpt lat="42.0898285" lon="13.699617"><ele>998.2</ele><time>2026-05-02T11:05:38.13Z</time></trkpt><trkpt lat="42.0897628" lon="13.6995989"><ele>998.8</ele><time>2026-05-02T11:05:39.13Z</time></trkpt><trkpt lat="42.0896737" lon="13.6994664"><ele>999.4</ele><time>2026-05-02T11:05:41.13Z</time></trkpt><trkpt lat="42.0896299" lon="13.6993416"><ele>1000.0</ele><time>2026-05-02T11:05:42.129Z</time></trkpt><trkpt lat="42.0895835" lon="13.6991957"><ele>1000.0</ele><time>2026-05-02T11:05:43.13Z</time></trkpt><trkpt lat="42.089555" lon="13.6990572"><ele>1000.0</ele><time>2026-05-02T11:05:44.129Z</time></trkpt><trkpt lat="42.0895412" lon="13.698913"><ele>1000.0</ele><time>2026-05-02T11:05:45.129Z</time></trkpt><trkpt lat="42.0895341" lon="13.6987746"><ele>1000.0</ele><time>2026-05-02T11:05:46.13Z</time></trkpt><trkpt lat="42.0895396" lon="13.698647"><ele>1000.0</ele><time>2026-05-02T11:05:47.129Z</time></trkpt><trkpt lat="42.0895469" lon="13.6985252"><ele>999.0</ele><time>2026-05-02T11:05:48.13Z</time></trkpt><trkpt lat="42.0895389" lon="13.6984072"><ele>998.0</ele><time>2026-05-02T11:05:49.13Z</time></trkpt><trkpt lat="42.089512" lon="13.6983019"><ele>997.0</ele><time>2026-05-02T11:05:50.129Z</time></trkpt><trkpt lat="42.0894644" lon="13.698206"><ele>996.0</ele><time>2026-05-02T11:05:51.13Z</time></trkpt><trkpt lat="42.0894206" lon="13.6981194"><ele>995.0</ele><time>2026-05-02T11:05:52.13Z</time></trkpt><trkpt lat="42.089324" lon="13.6980332"><ele>995.0</ele><time>2026-05-02T11:05:54.13Z</time></trkpt><trkpt lat="42.0891947" lon="13.6980609"><ele>995.0</ele><time>2026-05-02T11:05:56.129Z</time></trkpt><trkpt lat="42.0891144" lon="13.6980939"><ele>995.0</ele><time>2026-05-02T11:05:57.129Z</time></trkpt><trkpt lat="42.0890418" lon="13.6981367"><ele>995.0</ele><time>2026-05-02T11:05:58.13Z</time></trkpt><trkpt lat="42.0889687" lon="13.6981979"><ele>995.0</ele><time>2026-05-02T11:05:59.13Z</time></trkpt><trkpt lat="42.0888862" lon="13.6982864"><ele>995.0</ele><time>2026-05-02T11:06:00.131Z</time></trkpt><trkpt lat="42.0888125" lon="13.6983533"><ele>995.0</ele><time>2026-05-02T11:06:01.129Z</time></trkpt><trkpt lat="42.0887262" lon="13.6984052"><ele>995.0</ele><time>2026-05-02T11:06:02.13Z</time></trkpt><trkpt lat="42.0886136" lon="13.6984783"><ele>995.0</ele><time>2026-05-02T11:06:03.131Z</time></trkpt><trkpt lat="42.0884948" lon="13.6985553"><ele>995.0</ele><time>2026-05-02T11:06:04.13Z</time></trkpt><trkpt lat="42.0883889" lon="13.6986202"><ele>994.8</ele><time>2026-05-02T11:06:05.13Z</time></trkpt><trkpt lat="42.0882942" lon="13.6986792"><ele>994.6</ele><time>2026-05-02T11:06:06.129Z</time></trkpt><trkpt lat="42.0882059" lon="13.6987464"><ele>994.4000000000001</ele><time>2026-05-02T11:06:07.131Z</time></trkpt><trkpt lat="42.0881221" lon="13.6988505"><ele>994.2</ele><time>2026-05-02T11:06:08.129Z</time></trkpt><trkpt lat="42.0880342" lon="13.6989765"><ele>994.0</ele><time>2026-05-02T11:06:09.129Z</time></trkpt><trkpt lat="42.0879608" lon="13.6991014"><ele>993.4000000000001</ele><time>2026-05-02T11:06:10.129Z</time></trkpt><trkpt lat="42.087905" lon="13.6992276"><ele>992.8000000000001</ele><time>2026-05-02T11:06:11.129Z</time></trkpt><trkpt lat="42.0878739" lon="13.6993474"><ele>992.1999999999999</ele><time>2026-05-02T11:06:12.129Z</time></trkpt><trkpt lat="42.0878734" lon="13.699488"><ele>991.5999999999999</ele><time>2026-05-02T11:06:13.129Z</time></trkpt><trkpt lat="42.0878873" lon="13.6996488"><ele>991.0</ele><time>2026-05-02T11:06:14.129Z</time></trkpt><trkpt lat="42.0878771" lon="13.6998016"><ele>989.0</ele><time>2026-05-02T11:06:15.13Z</time></trkpt><trkpt lat="42.0878419" lon="13.6999302"><ele>986.9999999999999</ele><time>2026-05-02T11:06:16.13Z</time></trkpt><trkpt lat="42.0877882" lon="13.7000255"><ele>984.9999999999999</ele><time>2026-05-02T11:06:17.13Z</time></trkpt><trkpt lat="42.0877154" lon="13.7000802"><ele>983.0</ele><time>2026-05-02T11:06:18.131Z</time></trkpt><trkpt lat="42.0876227" lon="13.7001324"><ele>981.0</ele><time>2026-05-02T11:06:19.129Z</time></trkpt><trkpt lat="42.0875106" lon="13.7001639"><ele>981.5</ele><time>2026-05-02T11:06:20.13Z</time></trkpt><trkpt lat="42.0874081" lon="13.7002007"><ele>982.0</ele><time>2026-05-02T11:06:21.129Z</time></trkpt><trkpt lat="42.0873089" lon="13.7002542"><ele>982.5</ele><time>2026-05-02T11:06:22.13Z</time></trkpt><trkpt lat="42.0872068" lon="13.7003373"><ele>983.0</ele><time>2026-05-02T11:06:23.13Z</time></trkpt><trkpt lat="42.0870995" lon="13.7004279"><ele>981.75</ele><time>2026-05-02T11:06:24.13Z</time></trkpt><trkpt lat="42.087003" lon="13.7005095"><ele>980.5</ele><time>2026-05-02T11:06:25.13Z</time></trkpt><trkpt lat="42.0869079" lon="13.7005963"><ele>979.25</ele><time>2026-05-02T11:06:26.13Z</time></trkpt><trkpt lat="42.0868102" lon="13.7006736"><ele>978.0</ele><time>2026-05-02T11:06:27.13Z</time></trkpt><trkpt lat="42.0867119" lon="13.7007572"><ele>978.0</ele><time>2026-05-02T11:06:28.13Z</time></trkpt><trkpt lat="42.0866303" lon="13.7008523"><ele>978.0</ele><time>2026-05-02T11:06:29.129Z</time></trkpt><trkpt lat="42.0865549" lon="13.7009506"><ele>978.0</ele><time>2026-05-02T11:06:30.13Z</time></trkpt><trkpt lat="42.0864894" lon="13.7010405"><ele>978.0</ele><time>2026-05-02T11:06:31.129Z</time></trkpt><trkpt lat="42.0864333" lon="13.7011457"><ele>978.0</ele><time>2026-05-02T11:06:32.13Z</time></trkpt><trkpt lat="42.0863919" lon="13.7012699"><ele>977.0</ele><time>2026-05-02T11:06:33.129Z</time></trkpt><trkpt lat="42.0863554" lon="13.7013889"><ele>976.0</ele><time>2026-05-02T11:06:34.129Z</time></trkpt><trkpt lat="42.0862812" lon="13.7015629"><ele>975.0</ele><time>2026-05-02T11:06:35.13Z</time></trkpt><trkpt lat="42.0862084" lon="13.7017076"><ele>974.0</ele><time>2026-05-02T11:06:36.13Z</time></trkpt><trkpt lat="42.0861357" lon="13.7018618"><ele>973.25</ele><time>2026-05-02T11:06:37.13Z</time></trkpt><trkpt lat="42.0860675" lon="13.702021"><ele>972.5</ele><time>2026-05-02T11:06:38.129Z</time></trkpt><trkpt lat="42.0859953" lon="13.7021921"><ele>971.75</ele><time>2026-05-02T11:06:39.129Z</time></trkpt><trkpt lat="42.08591" lon="13.7023762"><ele>971.0</ele><time>2026-05-02T11:06:40.129Z</time></trkpt><trkpt lat="42.0858297" lon="13.7025632"><ele>970.3333333333334</ele><time>2026-05-02T11:06:41.13Z</time></trkpt><trkpt lat="42.0857577" lon="13.7027374"><ele>969.6666666666667</ele><time>2026-05-02T11:06:42.13Z</time></trkpt><trkpt lat="42.0856677" lon="13.7029039"><ele>969.0</ele><time>2026-05-02T11:06:43.129Z</time></trkpt><trkpt lat="42.0855664" lon="13.7030556"><ele>968.0</ele><time>2026-05-02T11:06:44.129Z</time></trkpt><trkpt lat="42.0854614" lon="13.703209"><ele>967.0</ele><time>2026-05-02T11:06:45.13Z</time></trkpt><trkpt lat="42.0853535" lon="13.7033468"><ele>966.0</ele><time>2026-05-02T11:06:46.129Z</time></trkpt><trkpt lat="42.0852496" lon="13.7034663"><ele>965.0</ele><time>2026-05-02T11:06:47.13Z</time></trkpt><trkpt lat="42.085138" lon="13.7035722"><ele>965.25</ele><time>2026-05-02T11:06:48.13Z</time></trkpt><trkpt lat="42.0850161" lon="13.7036732"><ele>965.5</ele><time>2026-05-02T11:06:49.129Z</time></trkpt><trkpt lat="42.0848939" lon="13.7037777"><ele>965.75</ele><time>2026-05-02T11:06:50.129Z</time></trkpt><trkpt lat="42.0847728" lon="13.7038877"><ele>966.0</ele><time>2026-05-02T11:06:51.129Z</time></trkpt><trkpt lat="42.0846454" lon="13.7040011"><ele>966.0</ele><time>2026-05-02T11:06:52.13Z</time></trkpt><trkpt lat="42.0845331" lon="13.70412"><ele>966.0</ele><time>2026-05-02T11:06:53.13Z</time></trkpt><trkpt lat="42.0844228" lon="13.7042469"><ele>966.0</ele><time>2026-05-02T11:06:54.129Z</time></trkpt><trkpt lat="42.0843107" lon="13.7043639"><ele>966.0</ele><time>2026-05-02T11:06:55.13Z</time></trkpt><trkpt lat="42.0842108" lon="13.7044734"><ele>966.5</ele><time>2026-05-02T11:06:56.129Z</time></trkpt><trkpt lat="42.0841144" lon="13.7045843"><ele>967.0</ele><time>2026-05-02T11:06:57.129Z</time></trkpt><trkpt lat="42.0840187" lon="13.7047082"><ele>967.5</ele><time>2026-05-02T11:06:58.129Z</time></trkpt><trkpt lat="42.0839216" lon="13.7048369"><ele>968.0</ele><time>2026-05-02T11:06:59.129Z</time></trkpt><trkpt lat="42.083807" lon="13.7049583"><ele>968.0</ele><time>2026-05-02T11:07:00.13Z</time></trkpt><trkpt lat="42.0836891" lon="13.7050599"><ele>968.0</ele><time>2026-05-02T11:07:01.129Z</time></trkpt><trkpt lat="42.0835774" lon="13.7051456"><ele>968.0</ele><time>2026-05-02T11:07:02.129Z</time></trkpt><trkpt lat="42.0834816" lon="13.7052354"><ele>968.0</ele><time>2026-05-02T11:07:03.13Z</time></trkpt><trkpt lat="42.0833963" lon="13.7053181"><ele>967.2</ele><time>2026-05-02T11:07:04.129Z</time></trkpt><trkpt lat="42.0833206" lon="13.7054145"><ele>966.4</ele><time>2026-05-02T11:07:05.129Z</time></trkpt><trkpt lat="42.0832536" lon="13.7055188"><ele>965.6000000000001</ele><time>2026-05-02T11:07:06.13Z</time></trkpt><trkpt lat="42.083195" lon="13.7056272"><ele>964.8000000000001</ele><time>2026-05-02T11:07:07.131Z</time></trkpt><trkpt lat="42.0831459" lon="13.7057398"><ele>964.0</ele><time>2026-05-02T11:07:08.13Z</time></trkpt><trkpt lat="42.0830971" lon="13.7058424"><ele>964.8333333333333</ele><time>2026-05-02T11:07:09.13Z</time></trkpt><trkpt lat="42.083043" lon="13.7059321"><ele>965.6666666666666</ele><time>2026-05-02T11:07:10.129Z</time></trkpt><trkpt lat="42.0829893" lon="13.706019"><ele>966.5</ele><time>2026-05-02T11:07:11.129Z</time></trkpt><trkpt lat="42.08294" lon="13.7061049"><ele>967.3333333333333</ele><time>2026-05-02T11:07:12.131Z</time></trkpt><trkpt lat="42.0829019" lon="13.7061797"><ele>968.1666666666666</ele><time>2026-05-02T11:07:13.13Z</time></trkpt><trkpt lat="42.0828595" lon="13.7062436"><ele>969.0</ele><time>2026-05-02T11:07:14.13Z</time></trkpt><trkpt lat="42.0827707" lon="13.7063613"><ele>969.0</ele><time>2026-05-02T11:07:16.131Z</time></trkpt><trkpt lat="42.082712" lon="13.7064428"><ele>969.0000000000001</ele><time>2026-05-02T11:07:17.13Z</time></trkpt><trkpt lat="42.0826483" lon="13.7065421"><ele>969.0000000000001</ele><time>2026-05-02T11:07:18.129Z</time></trkpt><trkpt lat="42.0825737" lon="13.7066675"><ele>969.0</ele><time>2026-05-02T11:07:19.129Z</time></trkpt><trkpt lat="42.0824926" lon="13.7068073"><ele>969.0</ele><time>2026-05-02T11:07:20.13Z</time></trkpt><trkpt lat="42.08241" lon="13.7069595"><ele>974.6666666666667</ele><time>2026-05-02T11:07:21.129Z</time></trkpt><trkpt lat="42.0823141" lon="13.7071259"><ele>980.3333333333334</ele><time>2026-05-02T11:07:22.129Z</time></trkpt><trkpt lat="42.0822012" lon="13.7073102"><ele>986.0</ele><time>2026-05-02T11:07:23.13Z</time></trkpt><trkpt lat="42.0820884" lon="13.707488"><ele>986.0</ele><time>2026-05-02T11:07:24.13Z</time></trkpt><trkpt lat="42.0819647" lon="13.7076693"><ele>986.0</ele><time>2026-05-02T11:07:25.13Z</time></trkpt><trkpt lat="42.0818368" lon="13.7078541"><ele>986.0</ele><time>2026-05-02T11:07:26.129Z</time></trkpt><trkpt lat="42.0817152" lon="13.7080183"><ele>987.3333333333334</ele><time>2026-05-02T11:07:27.129Z</time></trkpt><trkpt lat="42.0815958" lon="13.7081751"><ele>988.6666666666667</ele><time>2026-05-02T11:07:28.13Z</time></trkpt><trkpt lat="42.0814778" lon="13.7083027"><ele>990.0</ele><time>2026-05-02T11:07:29.131Z</time></trkpt><trkpt lat="42.0813402" lon="13.7084154"><ele>990.0</ele><time>2026-05-02T11:07:30.129Z</time></trkpt><trkpt lat="42.0811875" lon="13.7085095"><ele>990.0</ele><time>2026-05-02T11:07:31.129Z</time></trkpt><trkpt lat="42.0810209" lon="13.7086097"><ele>990.0</ele><time>2026-05-02T11:07:32.129Z</time></trkpt><trkpt lat="42.0808372" lon="13.7087184"><ele>985.6666666666667</ele><time>2026-05-02T11:07:33.129Z</time></trkpt><trkpt lat="42.08064" lon="13.7088368"><ele>981.3333333333334</ele><time>2026-05-02T11:07:34.13Z</time></trkpt><trkpt lat="42.0804325" lon="13.7089578"><ele>977.0</ele><time>2026-05-02T11:07:35.13Z</time></trkpt><trkpt lat="42.0802232" lon="13.7090853"><ele>977.0</ele><time>2026-05-02T11:07:36.13Z</time></trkpt><trkpt lat="42.0800275" lon="13.7092059"><ele>977.0</ele><time>2026-05-02T11:07:37.129Z</time></trkpt><trkpt lat="42.0798518" lon="13.709309"><ele>977.0</ele><time>2026-05-02T11:07:38.129Z</time></trkpt><trkpt lat="42.079691" lon="13.7094005"><ele>973.25</ele><time>2026-05-02T11:07:39.13Z</time></trkpt><trkpt lat="42.0795522" lon="13.7094686"><ele>969.5</ele><time>2026-05-02T11:07:40.129Z</time></trkpt><trkpt lat="42.0794292" lon="13.7094988"><ele>965.75</ele><time>2026-05-02T11:07:41.129Z</time></trkpt><trkpt lat="42.0792965" lon="13.7094923"><ele>962.0</ele><time>2026-05-02T11:07:42.13Z</time></trkpt><trkpt lat="42.079172" lon="13.7094427"><ele>961.0</ele><time>2026-05-02T11:07:43.13Z</time></trkpt><trkpt lat="42.0790672" lon="13.7093474"><ele>960.0</ele><time>2026-05-02T11:07:44.13Z</time></trkpt><trkpt lat="42.0789723" lon="13.7092018"><ele>959.0</ele><time>2026-05-02T11:07:45.129Z</time></trkpt><trkpt lat="42.0788839" lon="13.7090129"><ele>958.0</ele><time>2026-05-02T11:07:46.131Z</time></trkpt><trkpt lat="42.0787959" lon="13.7087905"><ele>963.6666666666666</ele><time>2026-05-02T11:07:47.13Z</time></trkpt><trkpt lat="42.0787164" lon="13.708544"><ele>969.3333333333333</ele><time>2026-05-02T11:07:48.129Z</time></trkpt><trkpt lat="42.0786429" lon="13.7082793"><ele>975.0</ele><time>2026-05-02T11:07:49.129Z</time></trkpt><trkpt lat="42.0785871" lon="13.7080087"><ele>979.6666666666667</ele><time>2026-05-02T11:07:50.13Z</time></trkpt><trkpt lat="42.0785468" lon="13.7077322"><ele>984.3333333333334</ele><time>2026-05-02T11:07:51.129Z</time></trkpt><trkpt lat="42.0785063" lon="13.7074841"><ele>989.0</ele><time>2026-05-02T11:07:52.13Z</time></trkpt><trkpt lat="42.0784698" lon="13.707272"><ele>989.0</ele><time>2026-05-02T11:07:53.129Z</time></trkpt><trkpt lat="42.0784392" lon="13.7070951"><ele>989.0000000000001</ele><time>2026-05-02T11:07:54.13Z</time></trkpt><trkpt lat="42.078401" lon="13.7069457"><ele>989.0000000000001</ele><time>2026-05-02T11:07:55.129Z</time></trkpt><trkpt lat="42.0783407" lon="13.706838"><ele>989.0</ele><time>2026-05-02T11:07:56.13Z</time></trkpt><trkpt lat="42.0782538" lon="13.7067826"><ele>989.0</ele><time>2026-05-02T11:07:57.13Z</time></trkpt><trkpt lat="42.0781589" lon="13.7067807"><ele>992.0</ele><time>2026-05-02T11:07:58.13Z</time></trkpt><trkpt lat="42.0780743" lon="13.7068381"><ele>995.0</ele><time>2026-05-02T11:07:59.13Z</time></trkpt><trkpt lat="42.0779927" lon="13.7069561"><ele>998.0</ele><time>2026-05-02T11:08:00.13Z</time></trkpt><trkpt lat="42.0779075" lon="13.7071077"><ele>1001.0</ele><time>2026-05-02T11:08:01.13Z</time></trkpt><trkpt lat="42.0778013" lon="13.7072798"><ele>1001.0</ele><time>2026-05-02T11:08:02.129Z</time></trkpt><trkpt lat="42.0776804" lon="13.7074712"><ele>1001.0</ele><time>2026-05-02T11:08:03.129Z</time></trkpt><trkpt lat="42.0775765" lon="13.7076418"><ele>1001.0</ele><time>2026-05-02T11:08:04.13Z</time></trkpt><trkpt lat="42.0774895" lon="13.7077854"><ele>995.75</ele><time>2026-05-02T11:08:05.13Z</time></trkpt><trkpt lat="42.0773978" lon="13.7078898"><ele>990.5</ele><time>2026-05-02T11:08:06.13Z</time></trkpt><trkpt lat="42.0772929" lon="13.7079505"><ele>985.25</ele><time>2026-05-02T11:08:07.13Z</time></trkpt><trkpt lat="42.0771793" lon="13.7079619"><ele>980.0</ele><time>2026-05-02T11:08:08.129Z</time></trkpt><trkpt lat="42.0770429" lon="13.7079399"><ele>980.0</ele><time>2026-05-02T11:08:09.13Z</time></trkpt><trkpt lat="42.0768873" lon="13.7079033"><ele>980.0</ele><time>2026-05-02T11:08:10.13Z</time></trkpt><trkpt lat="42.0767114" lon="13.7078541"><ele>980.0</ele><time>2026-05-02T11:08:11.129Z</time></trkpt><trkpt lat="42.0765203" lon="13.7077887"><ele>989.6666666666667</ele><time>2026-05-02T11:08:12.13Z</time></trkpt><trkpt lat="42.0763136" lon="13.7077231"><ele>999.3333333333333</ele><time>2026-05-02T11:08:13.13Z</time></trkpt><trkpt lat="42.0760989" lon="13.7076593"><ele>1009.0</ele><time>2026-05-02T11:08:14.129Z</time></trkpt><trkpt lat="42.0759029" lon="13.7076004"><ele>1004.6666666666666</ele><time>2026-05-02T11:08:15.129Z</time></trkpt><trkpt lat="42.0757207" lon="13.7075371"><ele>1000.3333333333333</ele><time>2026-05-02T11:08:16.129Z</time></trkpt><trkpt lat="42.075545" lon="13.707441"><ele>996.0</ele><time>2026-05-02T11:08:17.13Z</time></trkpt><trkpt lat="42.0753672" lon="13.7073081"><ele>996.0</ele><time>2026-05-02T11:08:18.129Z</time></trkpt><trkpt lat="42.0751791" lon="13.7071511"><ele>996.0</ele><time>2026-05-02T11:08:19.129Z</time></trkpt><trkpt lat="42.0749877" lon="13.7069835"><ele>998.3333333333333</ele><time>2026-05-02T11:08:20.13Z</time></trkpt><trkpt lat="42.0748132" lon="13.7068221"><ele>1000.6666666666666</ele><time>2026-05-02T11:08:21.13Z</time></trkpt><trkpt lat="42.0746341" lon="13.7066278"><ele>1003.0</ele><time>2026-05-02T11:08:22.13Z</time></trkpt><trkpt lat="42.0744767" lon="13.7064185"><ele>1003.0</ele><time>2026-05-02T11:08:23.129Z</time></trkpt><trkpt lat="42.0743229" lon="13.7061998"><ele>1003.0</ele><time>2026-05-02T11:08:24.129Z</time></trkpt><trkpt lat="42.0741628" lon="13.7059755"><ele>1006.6666666666666</ele><time>2026-05-02T11:08:25.129Z</time></trkpt><trkpt lat="42.0740169" lon="13.7057727"><ele>1010.3333333333333</ele><time>2026-05-02T11:08:26.13Z</time></trkpt><trkpt lat="42.0738819" lon="13.7055855"><ele>1014.0</ele><time>2026-05-02T11:08:27.13Z</time></trkpt><trkpt lat="42.0737613" lon="13.7054205"><ele>1014.0</ele><time>2026-05-02T11:08:28.13Z</time></trkpt><trkpt lat="42.0736539" lon="13.7052923"><ele>1014.0</ele><time>2026-05-02T11:08:29.129Z</time></trkpt><trkpt lat="42.0735349" lon="13.7052143"><ele>1014.0</ele><time>2026-05-02T11:08:30.129Z</time></trkpt><trkpt lat="42.0733964" lon="13.7051964"><ele>1014.0</ele><time>2026-05-02T11:08:31.129Z</time></trkpt><trkpt lat="42.0732456" lon="13.705206"><ele>1014.0</ele><time>2026-05-02T11:08:32.129Z</time></trkpt><trkpt lat="42.0730795" lon="13.7052261"><ele>1014.0</ele><time>2026-05-02T11:08:33.129Z</time></trkpt><trkpt lat="42.072897" lon="13.7052431"><ele>1014.0</ele><time>2026-05-02T11:08:34.129Z</time></trkpt><trkpt lat="42.0727156" lon="13.7052574"><ele>1014.0</ele><time>2026-05-02T11:08:35.13Z</time></trkpt><trkpt lat="42.0725234" lon="13.7052673"><ele>1014.0</ele><time>2026-05-02T11:08:36.13Z</time></trkpt><trkpt lat="42.072321" lon="13.7052806"><ele>1014.0</ele><time>2026-05-02T11:08:37.13Z</time></trkpt><trkpt lat="42.0721209" lon="13.7053031"><ele>1017.6666666666667</ele><time>2026-05-02T11:08:38.129Z</time></trkpt><trkpt lat="42.0719393" lon="13.7053301"><ele>1021.3333333333334</ele><time>2026-05-02T11:08:39.13Z</time></trkpt><trkpt lat="42.0717711" lon="13.7053817"><ele>1025.0</ele><time>2026-05-02T11:08:40.13Z</time></trkpt><trkpt lat="42.0715967" lon="13.7054501"><ele>1030.3333333333335</ele><time>2026-05-02T11:08:41.13Z</time></trkpt><trkpt lat="42.0714939" lon="13.7056184"><ele>1035.6666666666667</ele><time>2026-05-02T11:08:42.131Z</time></trkpt><trkpt lat="42.0713924" lon="13.7057862"><ele>1041.0</ele><time>2026-05-02T11:08:43.129Z</time></trkpt><trkpt lat="42.0712988" lon="13.7059464"><ele>1041.0</ele><time>2026-05-02T11:08:44.129Z</time></trkpt><trkpt lat="42.0712013" lon="13.7060729"><ele>1041.0</ele><time>2026-05-02T11:08:45.13Z</time></trkpt><trkpt lat="42.0710812" lon="13.7061699"><ele>1041.0</ele><time>2026-05-02T11:08:46.13Z</time></trkpt><trkpt lat="42.0709439" lon="13.7062375"><ele>1041.0</ele><time>2026-05-02T11:08:47.129Z</time></trkpt><trkpt lat="42.0707874" lon="13.7062875"><ele>1036.6666666666667</ele><time>2026-05-02T11:08:48.129Z</time></trkpt><trkpt lat="42.070616" lon="13.7063143"><ele>1032.3333333333335</ele><time>2026-05-02T11:08:49.131Z</time></trkpt><trkpt lat="42.0704604" lon="13.7063163"><ele>1028.0</ele><time>2026-05-02T11:08:50.129Z</time></trkpt><trkpt lat="42.0703303" lon="13.7063008"><ele>1028.0</ele><time>2026-05-02T11:08:51.13Z</time></trkpt><trkpt lat="42.0702405" lon="13.7062616"><ele>1028.0</ele><time>2026-05-02T11:08:52.129Z</time></trkpt><trkpt lat="42.0701845" lon="13.7062099"><ele>1028.0</ele><time>2026-05-02T11:08:53.129Z</time></trkpt><trkpt lat="42.0701342" lon="13.7060965"><ele>1028.0</ele><time>2026-05-02T11:08:55.13Z</time></trkpt><trkpt lat="42.0700745" lon="13.7060355"><ele>1028.0</ele><time>2026-05-02T11:08:57.129Z</time></trkpt><trkpt lat="42.0699704" lon="13.7060683"><ele>1028.0</ele><time>2026-05-02T11:08:59.129Z</time></trkpt><trkpt lat="42.0698935" lon="13.7061298"><ele>1031.25</ele><time>2026-05-02T11:09:00.13Z</time></trkpt><trkpt lat="42.0698033" lon="13.7061958"><ele>1034.5</ele><time>2026-05-02T11:09:01.13Z</time></trkpt><trkpt lat="42.0696983" lon="13.7062768"><ele>1037.75</ele><time>2026-05-02T11:09:02.129Z</time></trkpt><trkpt lat="42.0695798" lon="13.7063842"><ele>1041.0</ele><time>2026-05-02T11:09:03.13Z</time></trkpt><trkpt lat="42.0694591" lon="13.7065411"><ele>1041.0</ele><time>2026-05-02T11:09:04.13Z</time></trkpt><trkpt lat="42.069348" lon="13.7067193"><ele>1041.0</ele><time>2026-05-02T11:09:05.131Z</time></trkpt><trkpt lat="42.06924" lon="13.7068866"><ele>1041.0</ele><time>2026-05-02T11:09:06.129Z</time></trkpt><trkpt lat="42.0691135" lon="13.7070541"><ele>1037.3333333333333</ele><time>2026-05-02T11:09:07.13Z</time></trkpt><trkpt lat="42.0689746" lon="13.7072094"><ele>1033.6666666666665</ele><time>2026-05-02T11:09:08.129Z</time></trkpt><trkpt lat="42.0688377" lon="13.7073618"><ele>1030.0</ele><time>2026-05-02T11:09:09.13Z</time></trkpt><trkpt lat="42.0687053" lon="13.7074936"><ele>1030.0</ele><time>2026-05-02T11:09:10.13Z</time></trkpt><trkpt lat="42.068576" lon="13.7076048"><ele>1030.0</ele><time>2026-05-02T11:09:11.129Z</time></trkpt><trkpt lat="42.06844" lon="13.7077044"><ele>1030.0</ele><time>2026-05-02T11:09:12.13Z</time></trkpt><trkpt lat="42.0683205" lon="13.7077968"><ele>1030.0</ele><time>2026-05-02T11:09:13.129Z</time></trkpt><trkpt lat="42.068223" lon="13.7079015"><ele>1030.0</ele><time>2026-05-02T11:09:14.129Z</time></trkpt><trkpt lat="42.0681494" lon="13.7080297"><ele>1030.0</ele><time>2026-05-02T11:09:15.131Z</time></trkpt><trkpt lat="42.0680991" lon="13.7081906"><ele>1030.0</ele><time>2026-05-02T11:09:16.13Z</time></trkpt><trkpt lat="42.06807" lon="13.7083798"><ele>1030.0</ele><time>2026-05-02T11:09:17.129Z</time></trkpt><trkpt lat="42.0680764" lon="13.7085908"><ele>1029.6666666666665</ele><time>2026-05-02T11:09:18.13Z</time></trkpt><trkpt lat="42.0681079" lon="13.7088285"><ele>1029.3333333333333</ele><time>2026-05-02T11:09:19.13Z</time></trkpt><trkpt lat="42.0681635" lon="13.7090816"><ele>1029.0</ele><time>2026-05-02T11:09:20.129Z</time></trkpt><trkpt lat="42.0682248" lon="13.7093048"><ele>1023.75</ele><time>2026-05-02T11:09:21.131Z</time></trkpt><trkpt lat="42.0682805" lon="13.7094982"><ele>1018.5</ele><time>2026-05-02T11:09:22.13Z</time></trkpt><trkpt lat="42.0683181" lon="13.7096562"><ele>1013.25</ele><time>2026-05-02T11:09:23.13Z</time></trkpt><trkpt lat="42.0683416" lon="13.7097844"><ele>1008.0</ele><time>2026-05-02T11:09:24.13Z</time></trkpt><trkpt lat="42.0683495" lon="13.7098911"><ele>1008.0</ele><time>2026-05-02T11:09:25.129Z</time></trkpt><trkpt lat="42.0683609" lon="13.7100253"><ele>1008.0</ele><time>2026-05-02T11:09:27.129Z</time></trkpt><trkpt lat="42.0683952" lon="13.7099344"><ele>1008.0</ele><time>2026-05-02T11:09:31.129Z</time></trkpt><trkpt lat="42.068378" lon="13.7098346"><ele>1008.0</ele><time>2026-05-02T11:09:32.13Z</time></trkpt><trkpt lat="42.0683567" lon="13.7097214"><ele>1008.0</ele><time>2026-05-02T11:09:33.129Z</time></trkpt><trkpt lat="42.0683289" lon="13.7095906"><ele>1008.0</ele><time>2026-05-02T11:09:34.129Z</time></trkpt><trkpt lat="42.0682926" lon="13.709439"><ele>1013.25</ele><time>2026-05-02T11:09:35.129Z</time></trkpt><trkpt lat="42.068244" lon="13.7092679"><ele>1018.5</ele><time>2026-05-02T11:09:36.129Z</time></trkpt><trkpt lat="42.0681917" lon="13.7090822"><ele>1023.75</ele><time>2026-05-02T11:09:37.13Z</time></trkpt><trkpt lat="42.0681478" lon="13.7089028"><ele>1029.0</ele><time>2026-05-02T11:09:38.129Z</time></trkpt><trkpt lat="42.068118" lon="13.7087513"><ele>1029.0</ele><time>2026-05-02T11:09:39.13Z</time></trkpt><trkpt lat="42.0681026" lon="13.7086145"><ele>1029.0</ele><time>2026-05-02T11:09:40.13Z</time></trkpt><trkpt lat="42.0680837" lon="13.7084653"><ele>1029.0</ele><time>2026-05-02T11:09:41.129Z</time></trkpt><trkpt lat="42.0680339" lon="13.7083928"><ele>1029.0</ele><time>2026-05-02T11:09:45.129Z</time></trkpt><trkpt lat="42.0679203" lon="13.7083923"><ele>1029.0</ele><time>2026-05-02T11:09:47.131Z</time></trkpt><trkpt lat="42.0678537" lon="13.7083724"><ele>1029.1666666666667</ele><time>2026-05-02T11:09:48.129Z</time></trkpt><trkpt lat="42.0677808" lon="13.708347"><ele>1029.3333333333333</ele><time>2026-05-02T11:09:49.129Z</time></trkpt><trkpt lat="42.0677189" lon="13.7083228"><ele>1029.5</ele><time>2026-05-02T11:09:50.13Z</time></trkpt><trkpt lat="42.067651" lon="13.7082982"><ele>1029.6666666666665</ele><time>2026-05-02T11:09:51.13Z</time></trkpt><trkpt lat="42.0675617" lon="13.7082583"><ele>1029.8333333333333</ele><time>2026-05-02T11:09:52.13Z</time></trkpt><trkpt lat="42.0674592" lon="13.7082119"><ele>1030.0</ele><time>2026-05-02T11:09:53.129Z</time></trkpt><trkpt lat="42.0673375" lon="13.7081536"><ele>1033.25</ele><time>2026-05-02T11:09:54.129Z</time></trkpt><trkpt lat="42.0672077" lon="13.708098"><ele>1036.5</ele><time>2026-05-02T11:09:55.129Z</time></trkpt><trkpt lat="42.0670976" lon="13.7080525"><ele>1039.75</ele><time>2026-05-02T11:09:56.13Z</time></trkpt><trkpt lat="42.066995" lon="13.7080073"><ele>1043.0</ele><time>2026-05-02T11:09:57.13Z</time></trkpt><trkpt lat="42.0669" lon="13.7079588"><ele>1043.0</ele><time>2026-05-02T11:09:58.131Z</time></trkpt><trkpt lat="42.0668138" lon="13.7079193"><ele>1043.0</ele><time>2026-05-02T11:09:59.129Z</time></trkpt><trkpt lat="42.0667335" lon="13.7078771"><ele>1043.0</ele><time>2026-05-02T11:10:00.13Z</time></trkpt><trkpt lat="42.0666582" lon="13.7078191"><ele>1043.0</ele><time>2026-05-02T11:10:01.13Z</time></trkpt><trkpt lat="42.0666019" lon="13.7077672"><ele>1043.0</ele><time>2026-05-02T11:10:02.129Z</time></trkpt><trkpt lat="42.0665151" lon="13.7077034"><ele>1043.0</ele><time>2026-05-02T11:10:04.129Z</time></trkpt><trkpt lat="42.0664376" lon="13.7076622"><ele>1047.8</ele><time>2026-05-02T11:10:06.129Z</time></trkpt><trkpt lat="42.0663565" lon="13.7076274"><ele>1052.6</ele><time>2026-05-02T11:10:08.129Z</time></trkpt><trkpt lat="42.0662724" lon="13.7076015"><ele>1057.4</ele><time>2026-05-02T11:10:10.13Z</time></trkpt><trkpt lat="42.0661772" lon="13.707558"><ele>1062.2</ele><time>2026-05-02T11:10:12.13Z</time></trkpt><trkpt lat="42.0660857" lon="13.7075169"><ele>1067.0</ele><time>2026-05-02T11:10:14.13Z</time></trkpt><trkpt lat="42.0659604" lon="13.7074924"><ele>1067.0</ele><time>2026-05-02T11:10:16.129Z</time></trkpt><trkpt lat="42.0658873" lon="13.7074984"><ele>1067.0</ele><time>2026-05-02T11:10:17.129Z</time></trkpt><trkpt lat="42.0657943" lon="13.7075088"><ele>1067.0</ele><time>2026-05-02T11:10:18.13Z</time></trkpt><trkpt lat="42.0657073" lon="13.707506"><ele>1067.0</ele><time>2026-05-02T11:10:19.13Z</time></trkpt><trkpt lat="42.0655909" lon="13.7074554"><ele>1067.0</ele><time>2026-05-02T11:10:21.129Z</time></trkpt><trkpt lat="42.0655276" lon="13.7073962"><ele>1069.7142857142856</ele><time>2026-05-02T11:10:22.129Z</time></trkpt><trkpt lat="42.0654778" lon="13.7073284"><ele>1072.4285714285713</ele><time>2026-05-02T11:10:23.13Z</time></trkpt><trkpt lat="42.0654333" lon="13.7072534"><ele>1075.142857142857</ele><time>2026-05-02T11:10:24.131Z</time></trkpt><trkpt lat="42.0653927" lon="13.7071721"><ele>1077.8571428571427</ele><time>2026-05-02T11:10:25.129Z</time></trkpt><trkpt lat="42.0653578" lon="13.707091"><ele>1080.5714285714284</ele><time>2026-05-02T11:10:26.131Z</time></trkpt><trkpt lat="42.0653242" lon="13.7070032"><ele>1083.2857142857142</ele><time>2026-05-02T11:10:27.13Z</time></trkpt><trkpt lat="42.0652847" lon="13.7069216"><ele>1086.0</ele><time>2026-05-02T11:10:28.13Z</time></trkpt><trkpt lat="42.0652374" lon="13.7068381"><ele>1087.3333333333333</ele><time>2026-05-02T11:10:29.13Z</time></trkpt><trkpt lat="42.0651829" lon="13.7067536"><ele>1088.6666666666667</ele><time>2026-05-02T11:10:30.129Z</time></trkpt><trkpt lat="42.065133" lon="13.7066968"><ele>1090.0</ele><time>2026-05-02T11:10:31.129Z</time></trkpt><trkpt lat="42.065043" lon="13.7066242"><ele>1091.3333333333335</ele><time>2026-05-02T11:10:33.131Z</time></trkpt><trkpt lat="42.0649853" lon="13.7065892"><ele>1092.6666666666667</ele><time>2026-05-02T11:10:34.131Z</time></trkpt><trkpt lat="42.0649197" lon="13.7065538"><ele>1094.0</ele><time>2026-05-02T11:10:35.131Z</time></trkpt><trkpt lat="42.0648455" lon="13.7065075"><ele>1098.4</ele><time>2026-05-02T11:10:36.13Z</time></trkpt><trkpt lat="42.0647617" lon="13.7064534"><ele>1102.8000000000002</ele><time>2026-05-02T11:10:37.129Z</time></trkpt><trkpt lat="42.0646848" lon="13.7064116"><ele>1107.1999999999998</ele><time>2026-05-02T11:10:38.129Z</time></trkpt><trkpt lat="42.0645904" lon="13.7063771"><ele>1111.6</ele><time>2026-05-02T11:10:39.129Z</time></trkpt><trkpt lat="42.0644881" lon="13.7063414"><ele>1116.0</ele><time>2026-05-02T11:10:40.129Z</time></trkpt><trkpt lat="42.0643986" lon="13.7063088"><ele>1116.0</ele><time>2026-05-02T11:10:41.13Z</time></trkpt><trkpt lat="42.0643331" lon="13.7062799"><ele>1116.0</ele><time>2026-05-02T11:10:42.13Z</time></trkpt><trkpt lat="42.0642382" lon="13.7062271"><ele>1116.0</ele><time>2026-05-02T11:10:44.129Z</time></trkpt><trkpt lat="42.0641209" lon="13.7061683"><ele>1116.0</ele><time>2026-05-02T11:10:46.129Z</time></trkpt><trkpt lat="42.0640536" lon="13.706125"><ele>1116.0</ele><time>2026-05-02T11:10:47.129Z</time></trkpt><trkpt lat="42.0639993" lon="13.7060782"><ele>1116.0</ele><time>2026-05-02T11:10:48.131Z</time></trkpt><trkpt lat="42.0638993" lon="13.7059885"><ele>1115.3333333333333</ele><time>2026-05-02T11:10:50.129Z</time></trkpt><trkpt lat="42.0638215" lon="13.7059185"><ele>1114.6666666666667</ele><time>2026-05-02T11:10:52.129Z</time></trkpt><trkpt lat="42.063768" lon="13.7058608"><ele>1114.0</ele><time>2026-05-02T11:10:54.13Z</time></trkpt><trkpt lat="42.0636993" lon="13.7058213"><ele>1113.3333333333335</ele><time>2026-05-02T11:10:57.129Z</time></trkpt><trkpt lat="42.0636325" lon="13.7057641"><ele>1112.6666666666667</ele><time>2026-05-02T11:11:00.129Z</time></trkpt><trkpt lat="42.0635628" lon="13.70566"><ele>1112.0</ele><time>2026-05-02T11:11:02.13Z</time></trkpt><trkpt lat="42.0635118" lon="13.70559"><ele>1112.0</ele><time>2026-05-02T11:11:03.129Z</time></trkpt><trkpt lat="42.0634131" lon="13.705476"><ele>1112.0</ele><time>2026-05-02T11:11:05.13Z</time></trkpt><trkpt lat="42.0633552" lon="13.705412"><ele>1112.0</ele><time>2026-05-02T11:11:06.13Z</time></trkpt><trkpt lat="42.0632933" lon="13.7053534"><ele>1112.0</ele><time>2026-05-02T11:11:07.129Z</time></trkpt><trkpt lat="42.0632367" lon="13.7052943"><ele>1112.0</ele><time>2026-05-02T11:11:08.129Z</time></trkpt><trkpt lat="42.0631829" lon="13.7052396"><ele>1112.0</ele><time>2026-05-02T11:11:09.129Z</time></trkpt><trkpt lat="42.0630793" lon="13.7051637"><ele>1106.4</ele><time>2026-05-02T11:11:11.131Z</time></trkpt><trkpt lat="42.0629778" lon="13.7050961"><ele>1100.8000000000002</ele><time>2026-05-02T11:11:13.131Z</time></trkpt><trkpt lat="42.0628706" lon="13.7050226"><ele>1095.2</ele><time>2026-05-02T11:11:15.129Z</time></trkpt><trkpt lat="42.0628065" lon="13.7049933"><ele>1089.6000000000001</ele><time>2026-05-02T11:11:16.129Z</time></trkpt><trkpt lat="42.0627342" lon="13.7049766"><ele>1084.0</ele><time>2026-05-02T11:11:17.13Z</time></trkpt><trkpt lat="42.0626557" lon="13.7049621"><ele>1084.0</ele><time>2026-05-02T11:11:18.13Z</time></trkpt><trkpt lat="42.0625766" lon="13.7049505"><ele>1084.0</ele><time>2026-05-02T11:11:19.129Z</time></trkpt><trkpt lat="42.0624947" lon="13.7049432"><ele>1084.0</ele><time>2026-05-02T11:11:20.129Z</time></trkpt><trkpt lat="42.0624099" lon="13.704937"><ele>1084.0</ele><time>2026-05-02T11:11:21.131Z</time></trkpt><trkpt lat="42.0623236" lon="13.7049361"><ele>1084.0</ele><time>2026-05-02T11:11:22.129Z</time></trkpt><trkpt lat="42.062237" lon="13.7049268"><ele>1084.0</ele><time>2026-05-02T11:11:23.13Z</time></trkpt><trkpt lat="42.0621388" lon="13.7049199"><ele>1082.0</ele><time>2026-05-02T11:11:24.13Z</time></trkpt><trkpt lat="42.0619553" lon="13.7048966"><ele>1080.0</ele><time>2026-05-02T11:11:26.129Z</time></trkpt><trkpt lat="42.0618769" lon="13.7048852"><ele>1078.0</ele><time>2026-05-02T11:11:27.13Z</time></trkpt><trkpt lat="42.0618124" lon="13.7048576"><ele>1076.0</ele><time>2026-05-02T11:11:28.129Z</time></trkpt><trkpt lat="42.0617558" lon="13.7048076"><ele>1074.0</ele><time>2026-05-02T11:11:29.129Z</time></trkpt><trkpt lat="42.0616861" lon="13.7047324"><ele>1074.0</ele><time>2026-05-02T11:11:30.129Z</time></trkpt><trkpt lat="42.0616074" lon="13.7046348"><ele>1074.0</ele><time>2026-05-02T11:11:31.129Z</time></trkpt><trkpt lat="42.0615199" lon="13.7045199"><ele>1074.0</ele><time>2026-05-02T11:11:32.129Z</time></trkpt><trkpt lat="42.0614376" lon="13.7043876"><ele>1074.0</ele><time>2026-05-02T11:11:33.129Z</time></trkpt><trkpt lat="42.0613599" lon="13.7042412"><ele>1072.5</ele><time>2026-05-02T11:11:34.13Z</time></trkpt><trkpt lat="42.0612792" lon="13.7040966"><ele>1071.0</ele><time>2026-05-02T11:11:35.129Z</time></trkpt><trkpt lat="42.0611929" lon="13.703948"><ele>1069.5</ele><time>2026-05-02T11:11:36.13Z</time></trkpt><trkpt lat="42.0611162" lon="13.7038099"><ele>1068.0</ele><time>2026-05-02T11:11:37.129Z</time></trkpt><trkpt lat="42.0610336" lon="13.7036707"><ele>1068.75</ele><time>2026-05-02T11:11:38.129Z</time></trkpt><trkpt lat="42.0609568" lon="13.7035347"><ele>1069.5</ele><time>2026-05-02T11:11:39.13Z</time></trkpt><trkpt lat="42.060882" lon="13.7034098"><ele>1070.25</ele><time>2026-05-02T11:11:40.129Z</time></trkpt><trkpt lat="42.0608135" lon="13.7032877"><ele>1071.0</ele><time>2026-05-02T11:11:41.13Z</time></trkpt><trkpt lat="42.0607525" lon="13.7031728"><ele>1071.0</ele><time>2026-05-02T11:11:42.13Z</time></trkpt><trkpt lat="42.060688" lon="13.7030604"><ele>1071.0</ele><time>2026-05-02T11:11:43.129Z</time></trkpt><trkpt lat="42.0606257" lon="13.7029532"><ele>1071.0</ele><time>2026-05-02T11:11:44.13Z</time></trkpt><trkpt lat="42.0605634" lon="13.70284"><ele>1071.0</ele><time>2026-05-02T11:11:45.129Z</time></trkpt><trkpt lat="42.0605001" lon="13.7027223"><ele>1071.0</ele><time>2026-05-02T11:11:46.13Z</time></trkpt><trkpt lat="42.0604419" lon="13.7026041"><ele>1069.8</ele><time>2026-05-02T11:11:47.13Z</time></trkpt><trkpt lat="42.0603829" lon="13.7024924"><ele>1068.6</ele><time>2026-05-02T11:11:48.13Z</time></trkpt><trkpt lat="42.0603218" lon="13.7023808"><ele>1067.4</ele><time>2026-05-02T11:11:49.13Z</time></trkpt><trkpt lat="42.0602476" lon="13.7022563"><ele>1066.2</ele><time>2026-05-02T11:11:50.129Z</time></trkpt><trkpt lat="42.0601779" lon="13.7021419"><ele>1065.0</ele><time>2026-05-02T11:11:51.13Z</time></trkpt><trkpt lat="42.0601075" lon="13.7020283"><ele>1064.0</ele><time>2026-05-02T11:11:52.129Z</time></trkpt><trkpt lat="42.0600347" lon="13.7019112"><ele>1063.0</ele><time>2026-05-02T11:11:53.129Z</time></trkpt><trkpt lat="42.0599623" lon="13.7017825"><ele>1062.0</ele><time>2026-05-02T11:11:54.13Z</time></trkpt><trkpt lat="42.0598946" lon="13.7016528"><ele>1061.0</ele><time>2026-05-02T11:11:55.129Z</time></trkpt><trkpt lat="42.0598294" lon="13.7015377"><ele>1061.0</ele><time>2026-05-02T11:11:56.129Z</time></trkpt><trkpt lat="42.0597632" lon="13.7014306"><ele>1061.0</ele><time>2026-05-02T11:11:57.13Z</time></trkpt><trkpt lat="42.0597013" lon="13.7013242"><ele>1061.0</ele><time>2026-05-02T11:11:58.131Z</time></trkpt><trkpt lat="42.0596393" lon="13.7012235"><ele>1061.0</ele><time>2026-05-02T11:11:59.129Z</time></trkpt><trkpt lat="42.0595674" lon="13.7010968"><ele>1061.0</ele><time>2026-05-02T11:12:00.129Z</time></trkpt><trkpt lat="42.0594988" lon="13.7009835"><ele>1061.0</ele><time>2026-05-02T11:12:01.129Z</time></trkpt><trkpt lat="42.0594279" lon="13.7008799"><ele>1061.0</ele><time>2026-05-02T11:12:02.13Z</time></trkpt><trkpt lat="42.0593577" lon="13.7007962"><ele>1061.0</ele><time>2026-05-02T11:12:03.13Z</time></trkpt><trkpt lat="42.0592934" lon="13.7007217"><ele>1061.0</ele><time>2026-05-02T11:12:04.129Z</time></trkpt><trkpt lat="42.0592342" lon="13.7006712"><ele>1061.0</ele><time>2026-05-02T11:12:05.13Z</time></trkpt><trkpt lat="42.0591622" lon="13.7006163"><ele>1061.0</ele><time>2026-05-02T11:12:06.129Z</time></trkpt><trkpt lat="42.0590658" lon="13.7005562"><ele>1060.2</ele><time>2026-05-02T11:12:07.131Z</time></trkpt><trkpt lat="42.0589599" lon="13.7005094"><ele>1059.3999999999999</ele><time>2026-05-02T11:12:08.129Z</time></trkpt><trkpt lat="42.0588556" lon="13.7004684"><ele>1058.6</ele><time>2026-05-02T11:12:09.13Z</time></trkpt><trkpt lat="42.0587502" lon="13.7004442"><ele>1057.8</ele><time>2026-05-02T11:12:10.129Z</time></trkpt><trkpt lat="42.0586416" lon="13.7004277"><ele>1057.0</ele><time>2026-05-02T11:12:11.13Z</time></trkpt><trkpt lat="42.0585319" lon="13.7004191"><ele>1057.0</ele><time>2026-05-02T11:12:12.13Z</time></trkpt><trkpt lat="42.0584219" lon="13.7004064"><ele>1057.0</ele><time>2026-05-02T11:12:13.13Z</time></trkpt><trkpt lat="42.0583181" lon="13.7003948"><ele>1057.0</ele><time>2026-05-02T11:12:14.13Z</time></trkpt><trkpt lat="42.0582204" lon="13.7003847"><ele>1057.0</ele><time>2026-05-02T11:12:15.13Z</time></trkpt><trkpt lat="42.0581305" lon="13.7003749"><ele>1057.0</ele><time>2026-05-02T11:12:16.13Z</time></trkpt><trkpt lat="42.0580435" lon="13.7003699"><ele>1056.2857142857142</ele><time>2026-05-02T11:12:17.129Z</time></trkpt><trkpt lat="42.0579594" lon="13.700364"><ele>1055.5714285714284</ele><time>2026-05-02T11:12:18.129Z</time></trkpt><trkpt lat="42.0578856" lon="13.7003542"><ele>1054.857142857143</ele><time>2026-05-02T11:12:19.129Z</time></trkpt><trkpt lat="42.0578214" lon="13.7003451"><ele>1054.142857142857</ele><time>2026-05-02T11:12:20.129Z</time></trkpt><trkpt lat="42.0577555" lon="13.7003343"><ele>1053.4285714285713</ele><time>2026-05-02T11:12:21.13Z</time></trkpt><trkpt lat="42.0576832" lon="13.7003205"><ele>1052.7142857142858</ele><time>2026-05-02T11:12:22.129Z</time></trkpt><trkpt lat="42.0576066" lon="13.7003124"><ele>1052.0</ele><time>2026-05-02T11:12:23.129Z</time></trkpt><trkpt lat="42.0575324" lon="13.7003065"><ele>1052.0</ele><time>2026-05-02T11:12:24.129Z</time></trkpt><trkpt lat="42.0574523" lon="13.7002933"><ele>1052.0</ele><time>2026-05-02T11:12:25.13Z</time></trkpt><trkpt lat="42.0573648" lon="13.7002817"><ele>1052.0</ele><time>2026-05-02T11:12:26.13Z</time></trkpt><trkpt lat="42.0572754" lon="13.7002644"><ele>1052.0</ele><time>2026-05-02T11:12:27.13Z</time></trkpt><trkpt lat="42.0571572" lon="13.7002443"><ele>1052.0</ele><time>2026-05-02T11:12:28.13Z</time></trkpt><trkpt lat="42.0570295" lon="13.7002184"><ele>1052.0</ele><time>2026-05-02T11:12:29.129Z</time></trkpt><trkpt lat="42.0569006" lon="13.7001842"><ele>1052.0</ele><time>2026-05-02T11:12:30.129Z</time></trkpt><trkpt lat="42.0567659" lon="13.7001616"><ele>1052.0</ele><time>2026-05-02T11:12:31.129Z</time></trkpt><trkpt lat="42.0566308" lon="13.7001529"><ele>1052.0</ele><time>2026-05-02T11:12:32.131Z</time></trkpt><trkpt lat="42.056485" lon="13.7001392"><ele>1052.0</ele><time>2026-05-02T11:12:33.129Z</time></trkpt><trkpt lat="42.0563386" lon="13.7001178"><ele>1052.0</ele><time>2026-05-02T11:12:34.13Z</time></trkpt><trkpt lat="42.0561938" lon="13.7000922"><ele>1052.0</ele><time>2026-05-02T11:12:35.13Z</time></trkpt><trkpt lat="42.0560594" lon="13.7000698"><ele>1052.0</ele><time>2026-05-02T11:12:36.13Z</time></trkpt><trkpt lat="42.0559398" lon="13.700047"><ele>1052.0</ele><time>2026-05-02T11:12:37.129Z</time></trkpt><trkpt lat="42.0558257" lon="13.7000256"><ele>1052.0</ele><time>2026-05-02T11:12:38.129Z</time></trkpt><trkpt lat="42.0556975" lon="13.7000011"><ele>1052.0</ele><time>2026-05-02T11:12:39.129Z</time></trkpt><trkpt lat="42.0555748" lon="13.6999775"><ele>1052.0</ele><time>2026-05-02T11:12:40.13Z</time></trkpt><trkpt lat="42.0554517" lon="13.6999613"><ele>1051.5</ele><time>2026-05-02T11:12:41.13Z</time></trkpt><trkpt lat="42.055325" lon="13.6999364"><ele>1051.0</ele><time>2026-05-02T11:12:42.13Z</time></trkpt><trkpt lat="42.0552112" lon="13.6999057"><ele>1050.5</ele><time>2026-05-02T11:12:43.129Z</time></trkpt><trkpt lat="42.055101" lon="13.6998729"><ele>1050.0</ele><time>2026-05-02T11:12:44.13Z</time></trkpt><trkpt lat="42.0549986" lon="13.6998292"><ele>1049.6666666666667</ele><time>2026-05-02T11:12:45.129Z</time></trkpt><trkpt lat="42.0549061" lon="13.6997825"><ele>1049.3333333333333</ele><time>2026-05-02T11:12:46.129Z</time></trkpt><trkpt lat="42.0548264" lon="13.6997467"><ele>1049.0</ele><time>2026-05-02T11:12:47.13Z</time></trkpt><trkpt lat="42.0547492" lon="13.6997139"><ele>1048.6666666666665</ele><time>2026-05-02T11:12:48.13Z</time></trkpt><trkpt lat="42.054683" lon="13.6996815"><ele>1048.3333333333333</ele><time>2026-05-02T11:12:49.129Z</time></trkpt><trkpt lat="42.0546212" lon="13.6996625"><ele>1048.0</ele><time>2026-05-02T11:12:50.129Z</time></trkpt><trkpt lat="42.0545136" lon="13.6996205"><ele>1048.0</ele><time>2026-05-02T11:12:52.129Z</time></trkpt><trkpt lat="42.0544373" lon="13.6995876"><ele>1048.0</ele><time>2026-05-02T11:12:54.13Z</time></trkpt><trkpt lat="42.0543372" lon="13.6995587"><ele>1048.0</ele><time>2026-05-02T11:12:56.131Z</time></trkpt><trkpt lat="42.0542638" lon="13.6995257"><ele>1048.0</ele><time>2026-05-02T11:12:57.129Z</time></trkpt><trkpt lat="42.054173" lon="13.69948"><ele>1048.0</ele><time>2026-05-02T11:12:58.129Z</time></trkpt><trkpt lat="42.0540678" lon="13.6994211"><ele>1049.0</ele><time>2026-05-02T11:12:59.13Z</time></trkpt><trkpt lat="42.0539459" lon="13.6993605"><ele>1050.0</ele><time>2026-05-02T11:13:00.13Z</time></trkpt><trkpt lat="42.053827" lon="13.6992975"><ele>1051.0</ele><time>2026-05-02T11:13:01.13Z</time></trkpt><trkpt lat="42.0537193" lon="13.6992391"><ele>1052.0</ele><time>2026-05-02T11:13:02.129Z</time></trkpt><trkpt lat="42.0536056" lon="13.6991748"><ele>1052.0</ele><time>2026-05-02T11:13:03.129Z</time></trkpt><trkpt lat="42.0534919" lon="13.6991109"><ele>1052.0</ele><time>2026-05-02T11:13:04.13Z</time></trkpt><trkpt lat="42.0533746" lon="13.6990594"><ele>1052.0</ele><time>2026-05-02T11:13:05.13Z</time></trkpt><trkpt lat="42.0532689" lon="13.6990055"><ele>1052.0</ele><time>2026-05-02T11:13:06.129Z</time></trkpt><trkpt lat="42.0531735" lon="13.6989353"><ele>1052.5</ele><time>2026-05-02T11:13:07.13Z</time></trkpt><trkpt lat="42.0530796" lon="13.6988573"><ele>1053.0</ele><time>2026-05-02T11:13:08.129Z</time></trkpt><trkpt lat="42.0529917" lon="13.698775"><ele>1053.5</ele><time>2026-05-02T11:13:09.129Z</time></trkpt><trkpt lat="42.0529018" lon="13.6986774"><ele>1054.0</ele><time>2026-05-02T11:13:10.13Z</time></trkpt><trkpt lat="42.0528107" lon="13.6985663"><ele>1054.5</ele><time>2026-05-02T11:13:11.13Z</time></trkpt><trkpt lat="42.0527087" lon="13.6984617"><ele>1055.0</ele><time>2026-05-02T11:13:12.13Z</time></trkpt><trkpt lat="42.0525971" lon="13.6983532"><ele>1055.5</ele><time>2026-05-02T11:13:13.13Z</time></trkpt><trkpt lat="42.0524959" lon="13.6982499"><ele>1056.0</ele><time>2026-05-02T11:13:14.13Z</time></trkpt><trkpt lat="42.0523996" lon="13.6981533"><ele>1056.0</ele><time>2026-05-02T11:13:15.131Z</time></trkpt><trkpt lat="42.0523045" lon="13.6980528"><ele>1056.0</ele><time>2026-05-02T11:13:16.13Z</time></trkpt><trkpt lat="42.0522077" lon="13.6979405"><ele>1056.0</ele><time>2026-05-02T11:13:17.13Z</time></trkpt><trkpt lat="42.0521118" lon="13.6978275"><ele>1056.0</ele><time>2026-05-02T11:13:18.131Z</time></trkpt><trkpt lat="42.0520191" lon="13.6977129"><ele>1056.0</ele><time>2026-05-02T11:13:19.129Z</time></trkpt><trkpt lat="42.0519279" lon="13.6975905"><ele>1056.0</ele><time>2026-05-02T11:13:20.129Z</time></trkpt><trkpt lat="42.0518315" lon="13.6974654"><ele>1056.0</ele><time>2026-05-02T11:13:21.13Z</time></trkpt><trkpt lat="42.0517292" lon="13.6973522"><ele>1056.0</ele><time>2026-05-02T11:13:22.131Z</time></trkpt><trkpt lat="42.0516394" lon="13.697251"><ele>1055.75</ele><time>2026-05-02T11:13:23.129Z</time></trkpt><trkpt lat="42.051544" lon="13.6971441"><ele>1055.5</ele><time>2026-05-02T11:13:24.129Z</time></trkpt><trkpt lat="42.0514477" lon="13.6970353"><ele>1055.25</ele><time>2026-05-02T11:13:25.129Z</time></trkpt><trkpt lat="42.0513531" lon="13.6969394"><ele>1055.0</ele><time>2026-05-02T11:13:26.131Z</time></trkpt><trkpt lat="42.0512601" lon="13.6968367"><ele>1055.0</ele><time>2026-05-02T11:13:27.13Z</time></trkpt><trkpt lat="42.0511652" lon="13.6967267"><ele>1055.0</ele><time>2026-05-02T11:13:28.129Z</time></trkpt><trkpt lat="42.05107" lon="13.6966116"><ele>1055.0</ele><time>2026-05-02T11:13:29.129Z</time></trkpt><trkpt lat="42.0509759" lon="13.6964966"><ele>1055.0</ele><time>2026-05-02T11:13:30.129Z</time></trkpt><trkpt lat="42.0508822" lon="13.6963904"><ele>1055.0</ele><time>2026-05-02T11:13:31.13Z</time></trkpt><trkpt lat="42.0507964" lon="13.6962774"><ele>1055.0</ele><time>2026-05-02T11:13:32.129Z</time></trkpt><trkpt lat="42.0507116" lon="13.6961553"><ele>1055.0</ele><time>2026-05-02T11:13:33.13Z</time></trkpt><trkpt lat="42.0506206" lon="13.6960358"><ele>1055.0</ele><time>2026-05-02T11:13:34.129Z</time></trkpt><trkpt lat="42.0505355" lon="13.6959184"><ele>1054.2</ele><time>2026-05-02T11:13:35.129Z</time></trkpt><trkpt lat="42.0504552" lon="13.6958112"><ele>1053.4</ele><time>2026-05-02T11:13:36.13Z</time></trkpt><trkpt lat="42.0503741" lon="13.695707"><ele>1052.6</ele><time>2026-05-02T11:13:37.129Z</time></trkpt><trkpt lat="42.0502954" lon="13.6956059"><ele>1051.8</ele><time>2026-05-02T11:13:38.129Z</time></trkpt><trkpt lat="42.0502132" lon="13.6954987"><ele>1051.0</ele><time>2026-05-02T11:13:39.13Z</time></trkpt><trkpt lat="42.0501224" lon="13.6953801"><ele>1051.0</ele><time>2026-05-02T11:13:40.129Z</time></trkpt><trkpt lat="42.0500285" lon="13.6952546"><ele>1051.0</ele><time>2026-05-02T11:13:41.129Z</time></trkpt><trkpt lat="42.0499397" lon="13.6951304"><ele>1051.0</ele><time>2026-05-02T11:13:42.13Z</time></trkpt><trkpt lat="42.049852" lon="13.695002"><ele>1051.0</ele><time>2026-05-02T11:13:43.129Z</time></trkpt><trkpt lat="42.0497679" lon="13.6948837"><ele>1052.25</ele><time>2026-05-02T11:13:44.13Z</time></trkpt><trkpt lat="42.0496866" lon="13.6947665"><ele>1053.5</ele><time>2026-05-02T11:13:45.129Z</time></trkpt><trkpt lat="42.0496059" lon="13.6946568"><ele>1054.75</ele><time>2026-05-02T11:13:46.129Z</time></trkpt><trkpt lat="42.0495301" lon="13.6945451"><ele>1056.0</ele><time>2026-05-02T11:13:47.13Z</time></trkpt><trkpt lat="42.049454" lon="13.6944317"><ele>1055.75</ele><time>2026-05-02T11:13:48.129Z</time></trkpt><trkpt lat="42.0493733" lon="13.6943311"><ele>1055.5</ele><time>2026-05-02T11:13:49.129Z</time></trkpt><trkpt lat="42.0492858" lon="13.6942413"><ele>1055.25</ele><time>2026-05-02T11:13:50.129Z</time></trkpt><trkpt lat="42.04919" lon="13.6941385"><ele>1055.0</ele><time>2026-05-02T11:13:51.13Z</time></trkpt><trkpt lat="42.0490941" lon="13.6940483"><ele>1055.0</ele><time>2026-05-02T11:13:52.129Z</time></trkpt><trkpt lat="42.0489841" lon="13.6939132"><ele>1055.0</ele><time>2026-05-02T11:13:53.129Z</time></trkpt><trkpt lat="42.0488888" lon="13.6938079"><ele>1055.0</ele><time>2026-05-02T11:13:54.129Z</time></trkpt><trkpt lat="42.0487948" lon="13.693697"><ele>1055.0</ele><time>2026-05-02T11:13:55.129Z</time></trkpt><trkpt lat="42.0487044" lon="13.6935899"><ele>1050.75</ele><time>2026-05-02T11:13:56.13Z</time></trkpt><trkpt lat="42.0486067" lon="13.693489"><ele>1046.5</ele><time>2026-05-02T11:13:57.13Z</time></trkpt><trkpt lat="42.0485022" lon="13.693393"><ele>1042.25</ele><time>2026-05-02T11:13:58.129Z</time></trkpt><trkpt lat="42.048396" lon="13.6932893"><ele>1038.0</ele><time>2026-05-02T11:13:59.13Z</time></trkpt><trkpt lat="42.0482955" lon="13.6931856"><ele>1036.5</ele><time>2026-05-02T11:14:00.13Z</time></trkpt><trkpt lat="42.0481983" lon="13.6930805"><ele>1035.0</ele><time>2026-05-02T11:14:01.129Z</time></trkpt><trkpt lat="42.0481011" lon="13.6929799"><ele>1033.5</ele><time>2026-05-02T11:14:02.13Z</time></trkpt><trkpt lat="42.0479984" lon="13.6928596"><ele>1032.0</ele><time>2026-05-02T11:14:03.129Z</time></trkpt><trkpt lat="42.0478927" lon="13.6927419"><ele>1032.0</ele><time>2026-05-02T11:14:04.13Z</time></trkpt><trkpt lat="42.0477852" lon="13.6926257"><ele>1032.0</ele><time>2026-05-02T11:14:05.13Z</time></trkpt><trkpt lat="42.047671" lon="13.6925064"><ele>1032.0</ele><time>2026-05-02T11:14:06.129Z</time></trkpt><trkpt lat="42.0475573" lon="13.6923897"><ele>1032.0</ele><time>2026-05-02T11:14:07.129Z</time></trkpt><trkpt lat="42.0474456" lon="13.6922784"><ele>1033.75</ele><time>2026-05-02T11:14:08.13Z</time></trkpt><trkpt lat="42.0473347" lon="13.6921707"><ele>1035.5</ele><time>2026-05-02T11:14:09.129Z</time></trkpt><trkpt lat="42.0472217" lon="13.692063"><ele>1037.25</ele><time>2026-05-02T11:14:10.13Z</time></trkpt><trkpt lat="42.0471099" lon="13.6919646"><ele>1039.0</ele><time>2026-05-02T11:14:11.129Z</time></trkpt><trkpt lat="42.046994" lon="13.6918705"><ele>1035.0</ele><time>2026-05-02T11:14:12.131Z</time></trkpt><trkpt lat="42.0468803" lon="13.691785"><ele>1031.0</ele><time>2026-05-02T11:14:13.13Z</time></trkpt><trkpt lat="42.0467642" lon="13.6917051"><ele>1027.0</ele><time>2026-05-02T11:14:14.13Z</time></trkpt><trkpt lat="42.0466535" lon="13.6916168"><ele>1023.0</ele><time>2026-05-02T11:14:15.13Z</time></trkpt><trkpt lat="42.0465584" lon="13.6915399"><ele>1023.0</ele><time>2026-05-02T11:14:16.129Z</time></trkpt><trkpt lat="42.0464706" lon="13.6914714"><ele>1023.0</ele><time>2026-05-02T11:14:17.129Z</time></trkpt><trkpt lat="42.0463784" lon="13.6913996"><ele>1023.0</ele><time>2026-05-02T11:14:18.131Z</time></trkpt><trkpt lat="42.046284" lon="13.6913259"><ele>1023.0</ele><time>2026-05-02T11:14:19.13Z</time></trkpt><trkpt lat="42.0461895" lon="13.6912476"><ele>1023.0</ele><time>2026-05-02T11:14:20.13Z</time></trkpt><trkpt lat="42.0460945" lon="13.6911661"><ele>1021.8</ele><time>2026-05-02T11:14:21.13Z</time></trkpt><trkpt lat="42.0460047" lon="13.6910723"><ele>1020.5999999999999</ele><time>2026-05-02T11:14:22.129Z</time></trkpt><trkpt lat="42.045918" lon="13.6909772"><ele>1019.4000000000001</ele><time>2026-05-02T11:14:23.129Z</time></trkpt><trkpt lat="42.0458275" lon="13.6908936"><ele>1018.2</ele><time>2026-05-02T11:14:24.129Z</time></trkpt><trkpt lat="42.0457379" lon="13.6908035"><ele>1017.0</ele><time>2026-05-02T11:14:25.129Z</time></trkpt><trkpt lat="42.0456577" lon="13.6907112"><ele>1017.0</ele><time>2026-05-02T11:14:26.129Z</time></trkpt><trkpt lat="42.0455802" lon="13.6906188"><ele>1017.0</ele><time>2026-05-02T11:14:27.129Z</time></trkpt><trkpt lat="42.0455098" lon="13.6905245"><ele>1017.0</ele><time>2026-05-02T11:14:28.129Z</time></trkpt><trkpt lat="42.0454403" lon="13.6904264"><ele>1017.0</ele><time>2026-05-02T11:14:29.13Z</time></trkpt><trkpt lat="42.0453744" lon="13.6903118"><ele>1017.0</ele><time>2026-05-02T11:14:30.129Z</time></trkpt><trkpt lat="42.0453137" lon="13.6901815"><ele>1014.4000000000001</ele><time>2026-05-02T11:14:31.129Z</time></trkpt><trkpt lat="42.045251" lon="13.6900525"><ele>1011.8000000000001</ele><time>2026-05-02T11:14:32.129Z</time></trkpt><trkpt lat="42.0451874" lon="13.689934"><ele>1009.2</ele><time>2026-05-02T11:14:33.129Z</time></trkpt><trkpt lat="42.0451315" lon="13.6898139"><ele>1006.6</ele><time>2026-05-02T11:14:34.129Z</time></trkpt><trkpt lat="42.0450785" lon="13.6896911"><ele>1004.0</ele><time>2026-05-02T11:14:35.13Z</time></trkpt><trkpt lat="42.0450285" lon="13.6895621"><ele>1003.75</ele><time>2026-05-02T11:14:36.13Z</time></trkpt><trkpt lat="42.0449794" lon="13.6894242"><ele>1003.5</ele><time>2026-05-02T11:14:37.129Z</time></trkpt><trkpt lat="42.0449362" lon="13.6892836"><ele>1003.25</ele><time>2026-05-02T11:14:38.13Z</time></trkpt><trkpt lat="42.0448973" lon="13.689148"><ele>1003.0</ele><time>2026-05-02T11:14:39.13Z</time></trkpt><trkpt lat="42.0448446" lon="13.6890052"><ele>1001.75</ele><time>2026-05-02T11:14:40.129Z</time></trkpt><trkpt lat="42.0447966" lon="13.6888736"><ele>1000.5</ele><time>2026-05-02T11:14:41.13Z</time></trkpt><trkpt lat="42.0447384" lon="13.6887351"><ele>999.25</ele><time>2026-05-02T11:14:42.129Z</time></trkpt><trkpt lat="42.0446811" lon="13.6886069"><ele>998.0</ele><time>2026-05-02T11:14:43.13Z</time></trkpt><trkpt lat="42.0446262" lon="13.6884695"><ele>998.0</ele><time>2026-05-02T11:14:44.13Z</time></trkpt><trkpt lat="42.044579" lon="13.6883304"><ele>998.0</ele><time>2026-05-02T11:14:45.13Z</time></trkpt><trkpt lat="42.0445258" lon="13.6882095"><ele>998.0</ele><time>2026-05-02T11:14:46.129Z</time></trkpt><trkpt lat="42.0444631" lon="13.6880981"><ele>998.0</ele><time>2026-05-02T11:14:47.13Z</time></trkpt><trkpt lat="42.0444024" lon="13.6879865"><ele>998.0</ele><time>2026-05-02T11:14:48.13Z</time></trkpt><trkpt lat="42.044339" lon="13.6878838"><ele>998.0</ele><time>2026-05-02T11:14:49.13Z</time></trkpt><trkpt lat="42.0442785" lon="13.6877841"><ele>998.0</ele><time>2026-05-02T11:14:50.129Z</time></trkpt><trkpt lat="42.0442246" lon="13.6876745"><ele>998.0</ele><time>2026-05-02T11:14:51.129Z</time></trkpt><trkpt lat="42.0441832" lon="13.687555"><ele>998.0</ele><time>2026-05-02T11:14:52.13Z</time></trkpt><trkpt lat="42.0441369" lon="13.6874403"><ele>998.0</ele><time>2026-05-02T11:14:53.13Z</time></trkpt><trkpt lat="42.0440826" lon="13.6873376"><ele>997.5999999999999</ele><time>2026-05-02T11:14:54.131Z</time></trkpt><trkpt lat="42.0440261" lon="13.6872444"><ele>997.1999999999999</ele><time>2026-05-02T11:14:55.13Z</time></trkpt><trkpt lat="42.0439795" lon="13.6871634"><ele>996.8</ele><time>2026-05-02T11:14:56.129Z</time></trkpt><trkpt lat="42.0439368" lon="13.6870898"><ele>996.4</ele><time>2026-05-02T11:14:57.13Z</time></trkpt><trkpt lat="42.0438528" lon="13.6869796"><ele>996.0</ele><time>2026-05-02T11:14:59.129Z</time></trkpt><trkpt lat="42.0437762" lon="13.6868441"><ele>992.0</ele><time>2026-05-02T11:15:01.13Z</time></trkpt><trkpt lat="42.0437312" lon="13.6867735"><ele>988.0</ele><time>2026-05-02T11:15:02.129Z</time></trkpt><trkpt lat="42.0436843" lon="13.6867032"><ele>984.0</ele><time>2026-05-02T11:15:03.13Z</time></trkpt><trkpt lat="42.0436348" lon="13.6866448"><ele>980.0</ele><time>2026-05-02T11:15:04.13Z</time></trkpt><trkpt lat="42.0435564" lon="13.6865196"><ele>976.0</ele><time>2026-05-02T11:15:06.129Z</time></trkpt><trkpt lat="42.0435233" lon="13.6864369"><ele>972.0</ele><time>2026-05-02T11:15:07.129Z</time></trkpt><trkpt lat="42.0434914" lon="13.6863394"><ele>972.0</ele><time>2026-05-02T11:15:08.13Z</time></trkpt><trkpt lat="42.0434546" lon="13.6862409"><ele>972.0</ele><time>2026-05-02T11:15:09.13Z</time></trkpt><trkpt lat="42.0434147" lon="13.6861418"><ele>972.0</ele><time>2026-05-02T11:15:10.13Z</time></trkpt><trkpt lat="42.0433828" lon="13.6860405"><ele>972.0</ele><time>2026-05-02T11:15:11.13Z</time></trkpt><trkpt lat="42.0433509" lon="13.6859536"><ele>972.0</ele><time>2026-05-02T11:15:12.129Z</time></trkpt><trkpt lat="42.0433138" lon="13.685883"><ele>972.0</ele><time>2026-05-02T11:15:13.129Z</time></trkpt><trkpt lat="42.0432761" lon="13.6858121"><ele>972.0</ele><time>2026-05-02T11:15:14.129Z</time></trkpt><trkpt lat="42.0432057" lon="13.6856796"><ele>973.2</ele><time>2026-05-02T11:15:16.129Z</time></trkpt><trkpt lat="42.0431314" lon="13.6855636"><ele>974.4000000000001</ele><time>2026-05-02T11:15:18.13Z</time></trkpt><trkpt lat="42.0431057" lon="13.6854844"><ele>975.5999999999999</ele><time>2026-05-02T11:15:19.129Z</time></trkpt><trkpt lat="42.0430327" lon="13.6853666"><ele>976.8</ele><time>2026-05-02T11:15:21.131Z</time></trkpt><trkpt lat="42.0429487" lon="13.6852407"><ele>978.0</ele><time>2026-05-02T11:15:23.131Z</time></trkpt><trkpt lat="42.0429041" lon="13.6851627"><ele>974.0</ele><time>2026-05-02T11:15:24.129Z</time></trkpt><trkpt lat="42.0428609" lon="13.6850824"><ele>970.0000000000001</ele><time>2026-05-02T11:15:25.13Z</time></trkpt><trkpt lat="42.0428196" lon="13.6849993"><ele>966.0</ele><time>2026-05-02T11:15:26.13Z</time></trkpt><trkpt lat="42.042781" lon="13.6849228"><ele>962.0</ele><time>2026-05-02T11:15:27.13Z</time></trkpt><trkpt lat="42.0427468" lon="13.6848512"><ele>958.0000000000001</ele><time>2026-05-02T11:15:28.13Z</time></trkpt><trkpt lat="42.0427149" lon="13.684776"><ele>954.0</ele><time>2026-05-02T11:15:29.129Z</time></trkpt><trkpt lat="42.0426784" lon="13.6847059"><ele>950.0</ele><time>2026-05-02T11:15:30.13Z</time></trkpt><trkpt lat="42.0426284" lon="13.6846308"><ele>950.0000000000001</ele><time>2026-05-02T11:15:31.129Z</time></trkpt><trkpt lat="42.0425699" lon="13.6845546"><ele>950.0</ele><time>2026-05-02T11:15:32.13Z</time></trkpt><trkpt lat="42.0425072" lon="13.684478"><ele>950.0</ele><time>2026-05-02T11:15:33.13Z</time></trkpt><trkpt lat="42.0424455" lon="13.6843923"><ele>950.0</ele><time>2026-05-02T11:15:34.129Z</time></trkpt><trkpt lat="42.0423945" lon="13.6842951"><ele>950.0000000000001</ele><time>2026-05-02T11:15:35.129Z</time></trkpt><trkpt lat="42.0423367" lon="13.6842069"><ele>950.0</ele><time>2026-05-02T11:15:36.13Z</time></trkpt><trkpt lat="42.0422748" lon="13.6841223"><ele>948.5000000000001</ele><time>2026-05-02T11:15:37.13Z</time></trkpt><trkpt lat="42.0422158" lon="13.6840367"><ele>947.0</ele><time>2026-05-02T11:15:38.129Z</time></trkpt><trkpt lat="42.0421603" lon="13.6839553"><ele>945.5</ele><time>2026-05-02T11:15:39.129Z</time></trkpt><trkpt lat="42.0421026" lon="13.6838839"><ele>944.0</ele><time>2026-05-02T11:15:40.13Z</time></trkpt><trkpt lat="42.0420424" lon="13.6838134"><ele>942.5000000000001</ele><time>2026-05-02T11:15:41.13Z</time></trkpt><trkpt lat="42.0419933" lon="13.6837334"><ele>941.0</ele><time>2026-05-02T11:15:42.13Z</time></trkpt><trkpt lat="42.0419422" lon="13.6836412"><ele>935.8</ele><time>2026-05-02T11:15:43.13Z</time></trkpt><trkpt lat="42.0418897" lon="13.683553"><ele>930.5999999999999</ele><time>2026-05-02T11:15:44.13Z</time></trkpt><trkpt lat="42.0418346" lon="13.6834566"><ele>925.4</ele><time>2026-05-02T11:15:45.129Z</time></trkpt><trkpt lat="42.0417759" lon="13.6833616"><ele>920.2</ele><time>2026-05-02T11:15:46.129Z</time></trkpt><trkpt lat="42.041715" lon="13.6832656"><ele>915.0</ele><time>2026-05-02T11:15:47.13Z</time></trkpt><trkpt lat="42.0416578" lon="13.6831724"><ele>912.6</ele><time>2026-05-02T11:15:48.129Z</time></trkpt><trkpt lat="42.0416023" lon="13.6830773"><ele>910.2</ele><time>2026-05-02T11:15:49.129Z</time></trkpt><trkpt lat="42.0415443" lon="13.6829844"><ele>907.8</ele><time>2026-05-02T11:15:50.13Z</time></trkpt><trkpt lat="42.0414847" lon="13.6828825"><ele>905.4</ele><time>2026-05-02T11:15:51.13Z</time></trkpt><trkpt lat="42.0414246" lon="13.6827839"><ele>903.0</ele><time>2026-05-02T11:15:52.131Z</time></trkpt><trkpt lat="42.0413629" lon="13.6826845"><ele>903.0</ele><time>2026-05-02T11:15:53.129Z</time></trkpt><trkpt lat="42.041305" lon="13.6825832"><ele>903.0</ele><time>2026-05-02T11:15:54.13Z</time></trkpt><trkpt lat="42.0412505" lon="13.6824769"><ele>903.0</ele><time>2026-05-02T11:15:55.129Z</time></trkpt><trkpt lat="42.0411996" lon="13.6823679"><ele>903.0</ele><time>2026-05-02T11:15:56.13Z</time></trkpt><trkpt lat="42.041153" lon="13.682257"><ele>903.0</ele><time>2026-05-02T11:15:57.13Z</time></trkpt><trkpt lat="42.0410973" lon="13.6821628"><ele>903.0</ele><time>2026-05-02T11:15:58.13Z</time></trkpt><trkpt lat="42.0410358" lon="13.682066"><ele>903.0</ele><time>2026-05-02T11:15:59.13Z</time></trkpt><trkpt lat="42.0409639" lon="13.6819595"><ele>903.0</ele><time>2026-05-02T11:16:00.129Z</time></trkpt><trkpt lat="42.0408932" lon="13.6818574"><ele>903.0</ele><time>2026-05-02T11:16:01.129Z</time></trkpt><trkpt lat="42.0408107" lon="13.681744"><ele>903.0</ele><time>2026-05-02T11:16:02.129Z</time></trkpt><trkpt lat="42.0407304" lon="13.6816298"><ele>901.5</ele><time>2026-05-02T11:16:03.129Z</time></trkpt><trkpt lat="42.040652" lon="13.6815093"><ele>900.0</ele><time>2026-05-02T11:16:04.129Z</time></trkpt><trkpt lat="42.0405742" lon="13.6813856"><ele>898.5</ele><time>2026-05-02T11:16:05.129Z</time></trkpt><trkpt lat="42.0404906" lon="13.6812642"><ele>897.0</ele><time>2026-05-02T11:16:06.129Z</time></trkpt><trkpt lat="42.0404057" lon="13.6811458"><ele>893.0</ele><time>2026-05-02T11:16:07.129Z</time></trkpt><trkpt lat="42.0403245" lon="13.6810196"><ele>889.0</ele><time>2026-05-02T11:16:08.13Z</time></trkpt><trkpt lat="42.0402462" lon="13.6808885"><ele>885.0</ele><time>2026-05-02T11:16:09.13Z</time></trkpt><trkpt lat="42.0401756" lon="13.6807593"><ele>881.0</ele><time>2026-05-02T11:16:10.129Z</time></trkpt><trkpt lat="42.0401042" lon="13.6806289"><ele>881.0</ele><time>2026-05-02T11:16:11.13Z</time></trkpt><trkpt lat="42.0400348" lon="13.6804936"><ele>881.0</ele><time>2026-05-02T11:16:12.13Z</time></trkpt><trkpt lat="42.0399654" lon="13.6803625"><ele>881.0</ele><time>2026-05-02T11:16:13.129Z</time></trkpt><trkpt lat="42.0398918" lon="13.6802378"><ele>881.0</ele><time>2026-05-02T11:16:14.129Z</time></trkpt><trkpt lat="42.0398164" lon="13.6801131"><ele>882.25</ele><time>2026-05-02T11:16:15.13Z</time></trkpt><trkpt lat="42.0397456" lon="13.6799879"><ele>883.5</ele><time>2026-05-02T11:16:16.13Z</time></trkpt><trkpt lat="42.0396722" lon="13.6798679"><ele>884.75</ele><time>2026-05-02T11:16:17.129Z</time></trkpt><trkpt lat="42.0396029" lon="13.6797405"><ele>886.0</ele><time>2026-05-02T11:16:18.13Z</time></trkpt><trkpt lat="42.0395352" lon="13.6796156"><ele>886.0</ele><time>2026-05-02T11:16:19.13Z</time></trkpt><trkpt lat="42.0394671" lon="13.6794912"><ele>886.0</ele><time>2026-05-02T11:16:20.129Z</time></trkpt><trkpt lat="42.039401" lon="13.6793685"><ele>886.0</ele><time>2026-05-02T11:16:21.13Z</time></trkpt><trkpt lat="42.0393375" lon="13.6792482"><ele>886.0</ele><time>2026-05-02T11:16:22.13Z</time></trkpt><trkpt lat="42.0392751" lon="13.6791178"><ele>886.75</ele><time>2026-05-02T11:16:23.13Z</time></trkpt><trkpt lat="42.0392059" lon="13.6789921"><ele>887.5</ele><time>2026-05-02T11:16:24.129Z</time></trkpt><trkpt lat="42.0391363" lon="13.67886"><ele>888.25</ele><time>2026-05-02T11:16:25.13Z</time></trkpt><trkpt lat="42.0390596" lon="13.6787214"><ele>889.0</ele><time>2026-05-02T11:16:26.129Z</time></trkpt><trkpt lat="42.038981" lon="13.6785794"><ele>884.75</ele><time>2026-05-02T11:16:27.129Z</time></trkpt><trkpt lat="42.0389018" lon="13.6784383"><ele>880.5</ele><time>2026-05-02T11:16:28.129Z</time></trkpt><trkpt lat="42.0388214" lon="13.6783017"><ele>876.25</ele><time>2026-05-02T11:16:29.13Z</time></trkpt><trkpt lat="42.0387426" lon="13.6781684"><ele>872.0</ele><time>2026-05-02T11:16:30.13Z</time></trkpt><trkpt lat="42.0386634" lon="13.6780354"><ele>872.0</ele><time>2026-05-02T11:16:31.13Z</time></trkpt><trkpt lat="42.0385843" lon="13.6779068"><ele>872.0</ele><time>2026-05-02T11:16:32.129Z</time></trkpt><trkpt lat="42.0385011" lon="13.6777796"><ele>872.0</ele><time>2026-05-02T11:16:33.129Z</time></trkpt><trkpt lat="42.038419" lon="13.6776543"><ele>872.0</ele><time>2026-05-02T11:16:34.129Z</time></trkpt><trkpt lat="42.0383436" lon="13.6775319"><ele>869.5</ele><time>2026-05-02T11:16:35.13Z</time></trkpt><trkpt lat="42.0382691" lon="13.6774066"><ele>867.0</ele><time>2026-05-02T11:16:36.13Z</time></trkpt><trkpt lat="42.0381871" lon="13.6772948"><ele>864.5</ele><time>2026-05-02T11:16:37.129Z</time></trkpt><trkpt lat="42.0380975" lon="13.6771988"><ele>862.0</ele><time>2026-05-02T11:16:38.129Z</time></trkpt><trkpt lat="42.0380073" lon="13.6771031"><ele>862.0</ele><time>2026-05-02T11:16:39.131Z</time></trkpt><trkpt lat="42.037925" lon="13.6769946"><ele>862.0</ele><time>2026-05-02T11:16:40.13Z</time></trkpt><trkpt lat="42.0378449" lon="13.6768881"><ele>862.0</ele><time>2026-05-02T11:16:41.129Z</time></trkpt><trkpt lat="42.037761" lon="13.6767892"><ele>862.0</ele><time>2026-05-02T11:16:42.13Z</time></trkpt><trkpt lat="42.0376807" lon="13.6766892"><ele>862.0</ele><time>2026-05-02T11:16:43.129Z</time></trkpt><trkpt lat="42.0376125" lon="13.6765901"><ele>859.8333333333333</ele><time>2026-05-02T11:16:44.129Z</time></trkpt><trkpt lat="42.0375463" lon="13.6765135"><ele>857.6666666666666</ele><time>2026-05-02T11:16:45.13Z</time></trkpt><trkpt lat="42.0374783" lon="13.6764469"><ele>855.5</ele><time>2026-05-02T11:16:46.13Z</time></trkpt><trkpt lat="42.0374231" lon="13.6763763"><ele>853.3333333333333</ele><time>2026-05-02T11:16:47.129Z</time></trkpt><trkpt lat="42.0373757" lon="13.6762881"><ele>851.1666666666666</ele><time>2026-05-02T11:16:48.129Z</time></trkpt><trkpt lat="42.0373329" lon="13.6761978"><ele>849.0</ele><time>2026-05-02T11:16:49.129Z</time></trkpt><trkpt lat="42.0372826" lon="13.6761116"><ele>846.6</ele><time>2026-05-02T11:16:50.129Z</time></trkpt><trkpt lat="42.0372122" lon="13.6760285"><ele>844.2</ele><time>2026-05-02T11:16:51.13Z</time></trkpt><trkpt lat="42.0371382" lon="13.6759567"><ele>841.8000000000001</ele><time>2026-05-02T11:16:52.13Z</time></trkpt><trkpt lat="42.0370588" lon="13.6758767"><ele>839.4000000000001</ele><time>2026-05-02T11:16:53.131Z</time></trkpt><trkpt lat="42.0369778" lon="13.6757962"><ele>837.0</ele><time>2026-05-02T11:16:54.129Z</time></trkpt><trkpt lat="42.0368997" lon="13.6757218"><ele>837.0</ele><time>2026-05-02T11:16:55.129Z</time></trkpt><trkpt lat="42.0368259" lon="13.6756554"><ele>837.0</ele><time>2026-05-02T11:16:56.13Z</time></trkpt><trkpt lat="42.0367578" lon="13.6755669"><ele>837.0</ele><time>2026-05-02T11:16:58.129Z</time></trkpt><trkpt lat="42.0367033" lon="13.675459"><ele>837.0</ele><time>2026-05-02T11:17:00.129Z</time></trkpt><trkpt lat="42.0366607" lon="13.6753954"><ele>837.0</ele><time>2026-05-02T11:17:01.13Z</time></trkpt><trkpt lat="42.036607" lon="13.6753185"><ele>837.0</ele><time>2026-05-02T11:17:02.129Z</time></trkpt><trkpt lat="42.0365458" lon="13.6752215"><ele>835.4000000000001</ele><time>2026-05-02T11:17:03.129Z</time></trkpt><trkpt lat="42.0364704" lon="13.6751014"><ele>833.8000000000001</ele><time>2026-05-02T11:17:04.131Z</time></trkpt><trkpt lat="42.0364003" lon="13.6749959"><ele>832.2</ele><time>2026-05-02T11:17:05.129Z</time></trkpt><trkpt lat="42.0363388" lon="13.6749033"><ele>830.6</ele><time>2026-05-02T11:17:06.129Z</time></trkpt><trkpt lat="42.0362879" lon="13.6748166"><ele>829.0</ele><time>2026-05-02T11:17:07.131Z</time></trkpt><trkpt lat="42.0362468" lon="13.6747296"><ele>828.9999999999999</ele><time>2026-05-02T11:17:08.13Z</time></trkpt><trkpt lat="42.0362137" lon="13.6746408"><ele>829.0</ele><time>2026-05-02T11:17:09.13Z</time></trkpt><trkpt lat="42.0361927" lon="13.6745551"><ele>829.0</ele><time>2026-05-02T11:17:10.13Z</time></trkpt><trkpt lat="42.0361497" lon="13.6744187"><ele>829.0</ele><time>2026-05-02T11:17:12.131Z</time></trkpt><trkpt lat="42.0361197" lon="13.6743392"><ele>828.9999999999999</ele><time>2026-05-02T11:17:13.129Z</time></trkpt><trkpt lat="42.0360902" lon="13.6742574"><ele>829.0</ele><time>2026-05-02T11:17:14.13Z</time></trkpt><trkpt lat="42.0360547" lon="13.6741632"><ele>830.6666666666666</ele><time>2026-05-02T11:17:15.131Z</time></trkpt><trkpt lat="42.036016" lon="13.6740722"><ele>832.3333333333333</ele><time>2026-05-02T11:17:16.129Z</time></trkpt><trkpt lat="42.0359796" lon="13.6739916"><ele>834.0</ele><time>2026-05-02T11:17:17.13Z</time></trkpt><trkpt lat="42.0359503" lon="13.673898"><ele>835.6666666666667</ele><time>2026-05-02T11:17:18.13Z</time></trkpt><trkpt lat="42.0359315" lon="13.6737778"><ele>837.3333333333334</ele><time>2026-05-02T11:17:19.131Z</time></trkpt><trkpt lat="42.0359244" lon="13.6736518"><ele>839.0</ele><time>2026-05-02T11:17:20.131Z</time></trkpt><trkpt lat="42.0359181" lon="13.6735442"><ele>839.3333333333334</ele><time>2026-05-02T11:17:21.129Z</time></trkpt><trkpt lat="42.0359023" lon="13.673428"><ele>839.6666666666667</ele><time>2026-05-02T11:17:22.13Z</time></trkpt><trkpt lat="42.0358825" lon="13.6733178"><ele>840.0</ele><time>2026-05-02T11:17:23.13Z</time></trkpt><trkpt lat="42.0358712" lon="13.6732205"><ele>840.3333333333333</ele><time>2026-05-02T11:17:24.129Z</time></trkpt><trkpt lat="42.0358756" lon="13.6731275"><ele>840.6666666666666</ele><time>2026-05-02T11:17:25.129Z</time></trkpt><trkpt lat="42.0358999" lon="13.6730313"><ele>841.0</ele><time>2026-05-02T11:17:26.13Z</time></trkpt><trkpt lat="42.0359339" lon="13.672941"><ele>840.9999999999999</ele><time>2026-05-02T11:17:27.129Z</time></trkpt><trkpt lat="42.0359809" lon="13.6728411"><ele>841.0</ele><time>2026-05-02T11:17:28.129Z</time></trkpt><trkpt lat="42.0360392" lon="13.6727264"><ele>841.0</ele><time>2026-05-02T11:17:29.13Z</time></trkpt><trkpt lat="42.0360798" lon="13.6726189"><ele>841.0</ele><time>2026-05-02T11:17:30.13Z</time></trkpt><trkpt lat="42.036097" lon="13.6725077"><ele>840.9999999999999</ele><time>2026-05-02T11:17:31.13Z</time></trkpt><trkpt lat="42.0361029" lon="13.6724019"><ele>841.0</ele><time>2026-05-02T11:17:32.129Z</time></trkpt><trkpt lat="42.0361166" lon="13.6723057"><ele>840.1999999999999</ele><time>2026-05-02T11:17:33.129Z</time></trkpt><trkpt lat="42.0361413" lon="13.6722169"><ele>839.4</ele><time>2026-05-02T11:17:34.13Z</time></trkpt><trkpt lat="42.0361798" lon="13.6721002"><ele>838.6</ele><time>2026-05-02T11:17:35.129Z</time></trkpt><trkpt lat="42.0362322" lon="13.6719638"><ele>837.8</ele><time>2026-05-02T11:17:36.129Z</time></trkpt><trkpt lat="42.0362867" lon="13.671821"><ele>837.0</ele><time>2026-05-02T11:17:37.129Z</time></trkpt><trkpt lat="42.0363329" lon="13.6717002"><ele>836.2</ele><time>2026-05-02T11:17:38.13Z</time></trkpt><trkpt lat="42.0363669" lon="13.6715911"><ele>835.4000000000001</ele><time>2026-05-02T11:17:39.13Z</time></trkpt><trkpt lat="42.0363864" lon="13.6715031"><ele>834.5999999999999</ele><time>2026-05-02T11:17:40.13Z</time></trkpt><trkpt lat="42.0363488" lon="13.6713829"><ele>833.8</ele><time>2026-05-02T11:17:42.13Z</time></trkpt><trkpt lat="42.0362432" lon="13.6713015"><ele>833.0</ele><time>2026-05-02T11:17:44.129Z</time></trkpt><trkpt lat="42.0361602" lon="13.6712406"><ele>833.0</ele><time>2026-05-02T11:17:45.131Z</time></trkpt><trkpt lat="42.0360499" lon="13.6711662"><ele>833.0</ele><time>2026-05-02T11:17:46.13Z</time></trkpt><trkpt lat="42.0359419" lon="13.6710875"><ele>833.0</ele><time>2026-05-02T11:17:47.129Z</time></trkpt><trkpt lat="42.0358488" lon="13.6710228"><ele>833.0</ele><time>2026-05-02T11:17:48.129Z</time></trkpt><trkpt lat="42.0357678" lon="13.6709614"><ele>833.0</ele><time>2026-05-02T11:17:49.129Z</time></trkpt><trkpt lat="42.0357059" lon="13.6709137"><ele>834.5999999999999</ele><time>2026-05-02T11:17:50.129Z</time></trkpt><trkpt lat="42.035618" lon="13.6708325"><ele>836.1999999999999</ele><time>2026-05-02T11:17:52.131Z</time></trkpt><trkpt lat="42.0355894" lon="13.6707383"><ele>837.8</ele><time>2026-05-02T11:17:54.13Z</time></trkpt><trkpt lat="42.0355903" lon="13.670565"><ele>839.4</ele><time>2026-05-02T11:17:56.129Z</time></trkpt><trkpt lat="42.0356102" lon="13.6704325"><ele>841.0</ele><time>2026-05-02T11:17:57.13Z</time></trkpt><trkpt lat="42.0356284" lon="13.6703053"><ele>841.4</ele><time>2026-05-02T11:17:58.13Z</time></trkpt><trkpt lat="42.0356367" lon="13.6701915"><ele>841.8</ele><time>2026-05-02T11:17:59.13Z</time></trkpt><trkpt lat="42.0356368" lon="13.6700753"><ele>842.1999999999999</ele><time>2026-05-02T11:18:00.13Z</time></trkpt><trkpt lat="42.0356259" lon="13.6699375"><ele>842.5999999999999</ele><time>2026-05-02T11:18:01.129Z</time></trkpt><trkpt lat="42.0356079" lon="13.6697837"><ele>843.0</ele><time>2026-05-02T11:18:02.129Z</time></trkpt><trkpt lat="42.0355835" lon="13.6696318"><ele>843.0</ele><time>2026-05-02T11:18:03.129Z</time></trkpt><trkpt lat="42.0355729" lon="13.669508"><ele>843.0</ele><time>2026-05-02T11:18:04.13Z</time></trkpt><trkpt lat="42.0355816" lon="13.6693959"><ele>843.0</ele><time>2026-05-02T11:18:05.13Z</time></trkpt><trkpt lat="42.0356131" lon="13.6693094"><ele>843.0</ele><time>2026-05-02T11:18:06.131Z</time></trkpt><trkpt lat="42.0356691" lon="13.6692239"><ele>843.0</ele><time>2026-05-02T11:18:07.13Z</time></trkpt><trkpt lat="42.0357422" lon="13.6691361"><ele>843.0</ele><time>2026-05-02T11:18:08.13Z</time></trkpt><trkpt lat="42.0358271" lon="13.6690408"><ele>842.5999999999999</ele><time>2026-05-02T11:18:09.13Z</time></trkpt><trkpt lat="42.0359242" lon="13.6689432"><ele>842.1999999999999</ele><time>2026-05-02T11:18:10.13Z</time></trkpt><trkpt lat="42.0360212" lon="13.6688444"><ele>841.8</ele><time>2026-05-02T11:18:11.13Z</time></trkpt><trkpt lat="42.0361023" lon="13.6687759"><ele>841.4</ele><time>2026-05-02T11:18:12.129Z</time></trkpt><trkpt lat="42.0361753" lon="13.6687246"><ele>841.0</ele><time>2026-05-02T11:18:13.13Z</time></trkpt><trkpt lat="42.036233" lon="13.6686843"><ele>841.0</ele><time>2026-05-02T11:18:14.129Z</time></trkpt><trkpt lat="42.0362946" lon="13.6686217"><ele>841.0</ele><time>2026-05-02T11:18:16.129Z</time></trkpt><trkpt lat="42.0363669" lon="13.668558"><ele>841.0</ele><time>2026-05-02T11:18:20.129Z</time></trkpt><trkpt lat="42.0364477" lon="13.6685859"><ele>841.0</ele><time>2026-05-02T11:18:22.13Z</time></trkpt><trkpt lat="42.0365789" lon="13.6686376"><ele>841.0</ele><time>2026-05-02T11:18:24.13Z</time></trkpt><trkpt lat="42.0366647" lon="13.6686689"><ele>842.8</ele><time>2026-05-02T11:18:25.13Z</time></trkpt><trkpt lat="42.0367585" lon="13.6687047"><ele>844.5999999999999</ele><time>2026-05-02T11:18:26.129Z</time></trkpt><trkpt lat="42.0368627" lon="13.6687442"><ele>846.4</ele><time>2026-05-02T11:18:27.13Z</time></trkpt><trkpt lat="42.0369711" lon="13.6687822"><ele>848.2</ele><time>2026-05-02T11:18:28.13Z</time></trkpt><trkpt lat="42.0370635" lon="13.6688161"><ele>850.0</ele><time>2026-05-02T11:18:29.129Z</time></trkpt><trkpt lat="42.0371291" lon="13.6688377"><ele>849.9999999999999</ele><time>2026-05-02T11:18:30.129Z</time></trkpt><trkpt lat="42.0371901" lon="13.6687942"><ele>850.0</ele><time>2026-05-02T11:18:32.129Z</time></trkpt><trkpt lat="42.0372473" lon="13.6686571"><ele>850.0</ele><time>2026-05-02T11:18:34.129Z</time></trkpt><trkpt lat="42.0372768" lon="13.6685644"><ele>850.0</ele><time>2026-05-02T11:18:35.129Z</time></trkpt><trkpt lat="42.037302" lon="13.6684617"><ele>849.9999999999999</ele><time>2026-05-02T11:18:36.13Z</time></trkpt><trkpt lat="42.0373248" lon="13.6683473"><ele>850.0</ele><time>2026-05-02T11:18:37.13Z</time></trkpt><trkpt lat="42.0373477" lon="13.6682184"><ele>850.2</ele><time>2026-05-02T11:18:38.13Z</time></trkpt><trkpt lat="42.0373739" lon="13.6680637"><ele>850.4</ele><time>2026-05-02T11:18:39.131Z</time></trkpt><trkpt lat="42.037407" lon="13.667909"><ele>850.5999999999999</ele><time>2026-05-02T11:18:40.13Z</time></trkpt><trkpt lat="42.0374363" lon="13.6677714"><ele>850.8</ele><time>2026-05-02T11:18:41.13Z</time></trkpt><trkpt lat="42.0374512" lon="13.6676406"><ele>851.0</ele><time>2026-05-02T11:18:42.131Z</time></trkpt><trkpt lat="42.0374631" lon="13.6675222"><ele>851.4</ele><time>2026-05-02T11:18:43.129Z</time></trkpt><trkpt lat="42.0374732" lon="13.6674085"><ele>851.8</ele><time>2026-05-02T11:18:44.129Z</time></trkpt><trkpt lat="42.037485" lon="13.6672986"><ele>852.1999999999999</ele><time>2026-05-02T11:18:45.13Z</time></trkpt><trkpt lat="42.0375049" lon="13.6671782"><ele>852.5999999999999</ele><time>2026-05-02T11:18:46.13Z</time></trkpt><trkpt lat="42.0375364" lon="13.6670492"><ele>853.0</ele><time>2026-05-02T11:18:47.129Z</time></trkpt><trkpt lat="42.0375782" lon="13.6669296"><ele>853.0</ele><time>2026-05-02T11:18:48.13Z</time></trkpt><trkpt lat="42.0376302" lon="13.6668239"><ele>853.0</ele><time>2026-05-02T11:18:49.129Z</time></trkpt><trkpt lat="42.0376922" lon="13.6667272"><ele>853.0</ele><time>2026-05-02T11:18:50.13Z</time></trkpt><trkpt lat="42.0377522" lon="13.666634"><ele>853.0</ele><time>2026-05-02T11:18:51.129Z</time></trkpt><trkpt lat="42.0377994" lon="13.666534"><ele>853.0</ele><time>2026-05-02T11:18:52.13Z</time></trkpt><trkpt lat="42.0378347" lon="13.6664201"><ele>853.0</ele><time>2026-05-02T11:18:53.129Z</time></trkpt><trkpt lat="42.0378696" lon="13.6662944"><ele>853.0</ele><time>2026-05-02T11:18:54.13Z</time></trkpt><trkpt lat="42.0378987" lon="13.6661589"><ele>853.0</ele><time>2026-05-02T11:18:55.13Z</time></trkpt><trkpt lat="42.0379273" lon="13.6660333"><ele>853.0</ele><time>2026-05-02T11:18:56.13Z</time></trkpt><trkpt lat="42.0379525" lon="13.6659213"><ele>853.0</ele><time>2026-05-02T11:18:57.13Z</time></trkpt><trkpt lat="42.0379762" lon="13.6658234"><ele>852.9999999999999</ele><time>2026-05-02T11:18:58.13Z</time></trkpt><trkpt lat="42.0379935" lon="13.6657375"><ele>853.0</ele><time>2026-05-02T11:18:59.13Z</time></trkpt><trkpt lat="42.0380327" lon="13.6656346"><ele>853.0</ele><time>2026-05-02T11:19:01.129Z</time></trkpt><trkpt lat="42.0381099" lon="13.6656671"><ele>853.0</ele><time>2026-05-02T11:19:04.13Z</time></trkpt><trkpt lat="42.0381918" lon="13.6657089"><ele>852.9999999999999</ele><time>2026-05-02T11:19:07.129Z</time></trkpt><trkpt lat="42.0382942" lon="13.6657212"><ele>853.0</ele><time>2026-05-02T11:19:10.13Z</time></trkpt><trkpt lat="42.03836" lon="13.6656834"><ele>853.2</ele><time>2026-05-02T11:19:12.13Z</time></trkpt><trkpt lat="42.0383799" lon="13.6655942"><ele>853.4</ele><time>2026-05-02T11:19:14.129Z</time></trkpt><trkpt lat="42.0383987" lon="13.6653741"><ele>853.6000000000001</ele><time>2026-05-02T11:19:16.13Z</time></trkpt><trkpt lat="42.0384221" lon="13.6652301"><ele>853.8000000000001</ele><time>2026-05-02T11:19:17.129Z</time></trkpt><trkpt lat="42.0384466" lon="13.6651039"><ele>854.0</ele><time>2026-05-02T11:19:18.13Z</time></trkpt><trkpt lat="42.0384667" lon="13.6649854"><ele>854.0</ele><time>2026-05-02T11:19:19.129Z</time></trkpt><trkpt lat="42.0384875" lon="13.6648642"><ele>854.0000000000001</ele><time>2026-05-02T11:19:20.129Z</time></trkpt><trkpt lat="42.0385121" lon="13.6647427"><ele>854.0000000000001</ele><time>2026-05-02T11:19:21.13Z</time></trkpt><trkpt lat="42.0385377" lon="13.6646206"><ele>854.0</ele><time>2026-05-02T11:19:22.129Z</time></trkpt><trkpt lat="42.038562" lon="13.6644992"><ele>854.0</ele><time>2026-05-02T11:19:23.129Z</time></trkpt><trkpt lat="42.0385842" lon="13.6643774"><ele>854.4000000000001</ele><time>2026-05-02T11:19:24.13Z</time></trkpt><trkpt lat="42.0386083" lon="13.6642521"><ele>854.8000000000001</ele><time>2026-05-02T11:19:25.129Z</time></trkpt><trkpt lat="42.0386334" lon="13.6641149"><ele>855.1999999999999</ele><time>2026-05-02T11:19:26.129Z</time></trkpt><trkpt lat="42.0386588" lon="13.6639755"><ele>855.5999999999999</ele><time>2026-05-02T11:19:27.129Z</time></trkpt><trkpt lat="42.0386828" lon="13.663844"><ele>856.0</ele><time>2026-05-02T11:19:28.129Z</time></trkpt><trkpt lat="42.038711" lon="13.6637218"><ele>856.0</ele><time>2026-05-02T11:19:29.129Z</time></trkpt><trkpt lat="42.0387445" lon="13.6636159"><ele>855.9999999999999</ele><time>2026-05-02T11:19:30.131Z</time></trkpt><trkpt lat="42.0387818" lon="13.663511"><ele>855.9999999999999</ele><time>2026-05-02T11:19:31.129Z</time></trkpt><trkpt lat="42.0388194" lon="13.6633972"><ele>856.0</ele><time>2026-05-02T11:19:32.13Z</time></trkpt><trkpt lat="42.0388605" lon="13.6632798"><ele>856.0</ele><time>2026-05-02T11:19:33.129Z</time></trkpt><trkpt lat="42.0389052" lon="13.663166"><ele>856.1999999999999</ele><time>2026-05-02T11:19:34.13Z</time></trkpt><trkpt lat="42.0389449" lon="13.6630482"><ele>856.3999999999999</ele><time>2026-05-02T11:19:35.13Z</time></trkpt><trkpt lat="42.0389796" lon="13.6629318"><ele>856.6</ele><time>2026-05-02T11:19:36.13Z</time></trkpt><trkpt lat="42.0390097" lon="13.6628066"><ele>856.8</ele><time>2026-05-02T11:19:37.13Z</time></trkpt><trkpt lat="42.0390347" lon="13.6626765"><ele>857.0</ele><time>2026-05-02T11:19:38.13Z</time></trkpt><trkpt lat="42.0390595" lon="13.6625503"><ele>857.6</ele><time>2026-05-02T11:19:39.13Z</time></trkpt><trkpt lat="42.03909" lon="13.6624146"><ele>858.2</ele><time>2026-05-02T11:19:40.131Z</time></trkpt><trkpt lat="42.0391216" lon="13.6622776"><ele>858.8</ele><time>2026-05-02T11:19:41.13Z</time></trkpt><trkpt lat="42.039154" lon="13.6621339"><ele>859.4</ele><time>2026-05-02T11:19:42.129Z</time></trkpt><trkpt lat="42.0391922" lon="13.66199"><ele>860.0</ele><time>2026-05-02T11:19:43.129Z</time></trkpt><trkpt lat="42.0392398" lon="13.6618453"><ele>860.75</ele><time>2026-05-02T11:19:44.129Z</time></trkpt><trkpt lat="42.039288" lon="13.6616966"><ele>861.5</ele><time>2026-05-02T11:19:45.129Z</time></trkpt><trkpt lat="42.0393395" lon="13.6615522"><ele>862.25</ele><time>2026-05-02T11:19:46.131Z</time></trkpt><trkpt lat="42.0393857" lon="13.6614227"><ele>863.0</ele><time>2026-05-02T11:19:47.13Z</time></trkpt><trkpt lat="42.0394356" lon="13.661291"><ele>863.0</ele><time>2026-05-02T11:19:48.131Z</time></trkpt><trkpt lat="42.0394852" lon="13.6611653"><ele>863.0</ele><time>2026-05-02T11:19:49.129Z</time></trkpt><trkpt lat="42.0395379" lon="13.6610466"><ele>863.0</ele><time>2026-05-02T11:19:50.129Z</time></trkpt><trkpt lat="42.0395851" lon="13.6609269"><ele>863.0</ele><time>2026-05-02T11:19:51.129Z</time></trkpt><trkpt lat="42.0396355" lon="13.6608143"><ele>863.0</ele><time>2026-05-02T11:19:52.129Z</time></trkpt><trkpt lat="42.0396904" lon="13.6607004"><ele>862.2</ele><time>2026-05-02T11:19:53.13Z</time></trkpt><trkpt lat="42.039744" lon="13.6605816"><ele>861.4</ele><time>2026-05-02T11:19:54.13Z</time></trkpt><trkpt lat="42.0397973" lon="13.6604563"><ele>860.6000000000001</ele><time>2026-05-02T11:19:55.131Z</time></trkpt><trkpt lat="42.0398507" lon="13.6603321"><ele>859.8000000000001</ele><time>2026-05-02T11:19:56.129Z</time></trkpt><trkpt lat="42.0398981" lon="13.6602005"><ele>859.0</ele><time>2026-05-02T11:19:57.129Z</time></trkpt><trkpt lat="42.0399406" lon="13.6600733"><ele>858.6</ele><time>2026-05-02T11:19:58.13Z</time></trkpt><trkpt lat="42.0399846" lon="13.659955"><ele>858.2</ele><time>2026-05-02T11:19:59.129Z</time></trkpt><trkpt lat="42.0400427" lon="13.6598429"><ele>857.8000000000001</ele><time>2026-05-02T11:20:00.129Z</time></trkpt><trkpt lat="42.0401105" lon="13.6597339"><ele>857.4000000000001</ele><time>2026-05-02T11:20:01.13Z</time></trkpt><trkpt lat="42.0401848" lon="13.6596234"><ele>857.0</ele><time>2026-05-02T11:20:02.129Z</time></trkpt><trkpt lat="42.0402629" lon="13.6595203"><ele>857.2</ele><time>2026-05-02T11:20:03.13Z</time></trkpt><trkpt lat="42.0403429" lon="13.6594299"><ele>857.4000000000001</ele><time>2026-05-02T11:20:04.129Z</time></trkpt><trkpt lat="42.0404283" lon="13.6593466"><ele>857.5999999999999</ele><time>2026-05-02T11:20:05.129Z</time></trkpt><trkpt lat="42.0405229" lon="13.6592708"><ele>857.8</ele><time>2026-05-02T11:20:06.13Z</time></trkpt><trkpt lat="42.0406197" lon="13.6592052"><ele>858.0</ele><time>2026-05-02T11:20:07.13Z</time></trkpt><trkpt lat="42.0407057" lon="13.6591489"><ele>858.0</ele><time>2026-05-02T11:20:08.13Z</time></trkpt><trkpt lat="42.0407752" lon="13.6590871"><ele>858.0</ele><time>2026-05-02T11:20:09.129Z</time></trkpt><trkpt lat="42.0408351" lon="13.6590152"><ele>858.0</ele><time>2026-05-02T11:20:10.129Z</time></trkpt><trkpt lat="42.0408909" lon="13.6589454"><ele>858.0</ele><time>2026-05-02T11:20:11.129Z</time></trkpt><trkpt lat="42.040957" lon="13.6588745"><ele>858.0</ele><time>2026-05-02T11:20:12.13Z</time></trkpt><trkpt lat="42.0410446" lon="13.6587895"><ele>858.0</ele><time>2026-05-02T11:20:13.13Z</time></trkpt><trkpt lat="42.041151" lon="13.6586906"><ele>858.5</ele><time>2026-05-02T11:20:14.13Z</time></trkpt><trkpt lat="42.0412567" lon="13.6585897"><ele>859.0</ele><time>2026-05-02T11:20:15.13Z</time></trkpt><trkpt lat="42.0413543" lon="13.6585051"><ele>859.5</ele><time>2026-05-02T11:20:16.129Z</time></trkpt><trkpt lat="42.0414465" lon="13.6584365"><ele>860.0</ele><time>2026-05-02T11:20:17.129Z</time></trkpt><trkpt lat="42.0415498" lon="13.6583748"><ele>860.25</ele><time>2026-05-02T11:20:18.129Z</time></trkpt><trkpt lat="42.0416618" lon="13.6583066"><ele>860.5</ele><time>2026-05-02T11:20:19.129Z</time></trkpt><trkpt lat="42.0417765" lon="13.6582235"><ele>860.75</ele><time>2026-05-02T11:20:20.13Z</time></trkpt><trkpt lat="42.0418858" lon="13.6581429"><ele>861.0</ele><time>2026-05-02T11:20:21.131Z</time></trkpt><trkpt lat="42.0419842" lon="13.6580813"><ele>861.0</ele><time>2026-05-02T11:20:22.131Z</time></trkpt><trkpt lat="42.0420815" lon="13.6580298"><ele>860.9999999999999</ele><time>2026-05-02T11:20:23.131Z</time></trkpt><trkpt lat="42.0421897" lon="13.6579845"><ele>860.9999999999999</ele><time>2026-05-02T11:20:24.13Z</time></trkpt><trkpt lat="42.0422991" lon="13.6579403"><ele>861.0</ele><time>2026-05-02T11:20:25.13Z</time></trkpt><trkpt lat="42.0423902" lon="13.6578982"><ele>861.0</ele><time>2026-05-02T11:20:26.129Z</time></trkpt><trkpt lat="42.0424688" lon="13.6578655"><ele>860.6666666666666</ele><time>2026-05-02T11:20:27.131Z</time></trkpt><trkpt lat="42.0425307" lon="13.6578427"><ele>860.3333333333333</ele><time>2026-05-02T11:20:28.13Z</time></trkpt><trkpt lat="42.0425939" lon="13.6578438"><ele>860.0</ele><time>2026-05-02T11:20:30.13Z</time></trkpt><trkpt lat="42.0426531" lon="13.6579493"><ele>859.6666666666666</ele><time>2026-05-02T11:20:33.129Z</time></trkpt><trkpt lat="42.042679" lon="13.6580765"><ele>859.3333333333333</ele><time>2026-05-02T11:20:35.13Z</time></trkpt><trkpt lat="42.0427229" lon="13.6581406"><ele>859.0</ele><time>2026-05-02T11:20:37.129Z</time></trkpt><trkpt lat="42.0428181" lon="13.6581175"><ele>859.0</ele><time>2026-05-02T11:20:40.129Z</time></trkpt><trkpt lat="42.0428959" lon="13.6580736"><ele>859.0000000000001</ele><time>2026-05-02T11:20:42.129Z</time></trkpt><trkpt lat="42.0429576" lon="13.6580374"><ele>859.0000000000001</ele><time>2026-05-02T11:20:43.131Z</time></trkpt><trkpt lat="42.0430343" lon="13.6579866"><ele>859.0</ele><time>2026-05-02T11:20:44.129Z</time></trkpt><trkpt lat="42.0431263" lon="13.6579225"><ele>859.0</ele><time>2026-05-02T11:20:45.13Z</time></trkpt><trkpt lat="42.043243" lon="13.6578497"><ele>858.6666666666666</ele><time>2026-05-02T11:20:46.13Z</time></trkpt><trkpt lat="42.0433811" lon="13.6577751"><ele>858.3333333333333</ele><time>2026-05-02T11:20:47.131Z</time></trkpt><trkpt lat="42.0435335" lon="13.6576917"><ele>858.0</ele><time>2026-05-02T11:20:48.13Z</time></trkpt><trkpt lat="42.0436668" lon="13.6576233"><ele>858.0</ele><time>2026-05-02T11:20:49.129Z</time></trkpt><trkpt lat="42.0437877" lon="13.6575683"><ele>858.0</ele><time>2026-05-02T11:20:50.13Z</time></trkpt><trkpt lat="42.0438893" lon="13.6575266"><ele>858.0</ele><time>2026-05-02T11:20:51.129Z</time></trkpt><trkpt lat="42.0439833" lon="13.6575009"><ele>858.0</ele><time>2026-05-02T11:20:52.129Z</time></trkpt><trkpt lat="42.0440699" lon="13.6575076"><ele>858.0</ele><time>2026-05-02T11:20:53.129Z</time></trkpt><trkpt lat="42.0441539" lon="13.6575306"><ele>858.5</ele><time>2026-05-02T11:20:54.129Z</time></trkpt><trkpt lat="42.0442378" lon="13.6575368"><ele>859.0</ele><time>2026-05-02T11:20:55.129Z</time></trkpt><trkpt lat="42.0443229" lon="13.6575218"><ele>859.5</ele><time>2026-05-02T11:20:56.129Z</time></trkpt><trkpt lat="42.0444089" lon="13.6575015"><ele>860.0</ele><time>2026-05-02T11:20:57.129Z</time></trkpt><trkpt lat="42.0444892" lon="13.657469"><ele>860.5</ele><time>2026-05-02T11:20:58.129Z</time></trkpt><trkpt lat="42.044571" lon="13.6574383"><ele>861.0</ele><time>2026-05-02T11:20:59.13Z</time></trkpt><trkpt lat="42.0446577" lon="13.6574035"><ele>861.0</ele><time>2026-05-02T11:21:00.129Z</time></trkpt><trkpt lat="42.0447359" lon="13.6573634"><ele>860.9999999999999</ele><time>2026-05-02T11:21:01.129Z</time></trkpt><trkpt lat="42.0448215" lon="13.6573234"><ele>860.9999999999999</ele><time>2026-05-02T11:21:02.129Z</time></trkpt><trkpt lat="42.0449177" lon="13.6572994"><ele>861.0</ele><time>2026-05-02T11:21:03.129Z</time></trkpt><trkpt lat="42.0450155" lon="13.6572753"><ele>861.0</ele><time>2026-05-02T11:21:04.131Z</time></trkpt><trkpt lat="42.0451058" lon="13.6572471"><ele>861.5</ele><time>2026-05-02T11:21:05.13Z</time></trkpt><trkpt lat="42.0451945" lon="13.6572336"><ele>862.0</ele><time>2026-05-02T11:21:06.13Z</time></trkpt><trkpt lat="42.0453028" lon="13.6572286"><ele>862.5</ele><time>2026-05-02T11:21:07.13Z</time></trkpt><trkpt lat="42.0453986" lon="13.6572004"><ele>863.0</ele><time>2026-05-02T11:21:08.129Z</time></trkpt><trkpt lat="42.0455634" lon="13.6571441"><ele>863.0</ele><time>2026-05-02T11:21:09.129Z</time></trkpt><trkpt lat="42.0456941" lon="13.6570807"><ele>863.0</ele><time>2026-05-02T11:21:10.13Z</time></trkpt><trkpt lat="42.0458183" lon="13.6570216"><ele>863.0</ele><time>2026-05-02T11:21:11.129Z</time></trkpt><trkpt lat="42.0459252" lon="13.6569601"><ele>863.0</ele><time>2026-05-02T11:21:12.129Z</time></trkpt><trkpt lat="42.0460201" lon="13.6568844"><ele>862.0</ele><time>2026-05-02T11:21:13.129Z</time></trkpt><trkpt lat="42.0461011" lon="13.6567973"><ele>861.0</ele><time>2026-05-02T11:21:14.129Z</time></trkpt><trkpt lat="42.0461869" lon="13.656727"><ele>860.0</ele><time>2026-05-02T11:21:15.13Z</time></trkpt><trkpt lat="42.0462991" lon="13.6566593"><ele>859.0</ele><time>2026-05-02T11:21:16.131Z</time></trkpt><trkpt lat="42.0463979" lon="13.6565959"><ele>858.0</ele><time>2026-05-02T11:21:17.129Z</time></trkpt><trkpt lat="42.0464851" lon="13.6565032"><ele>858.0</ele><time>2026-05-02T11:21:18.13Z</time></trkpt><trkpt lat="42.0465845" lon="13.656399"><ele>858.0</ele><time>2026-05-02T11:21:19.129Z</time></trkpt><trkpt lat="42.046687" lon="13.6563247"><ele>858.0</ele><time>2026-05-02T11:21:20.13Z</time></trkpt><trkpt lat="42.0467899" lon="13.6562493"><ele>858.0</ele><time>2026-05-02T11:21:21.129Z</time></trkpt><trkpt lat="42.0469043" lon="13.6561791"><ele>857.75</ele><time>2026-05-02T11:21:22.131Z</time></trkpt><trkpt lat="42.0470201" lon="13.6561117"><ele>857.5</ele><time>2026-05-02T11:21:23.13Z</time></trkpt><trkpt lat="42.0471453" lon="13.6560524"><ele>857.25</ele><time>2026-05-02T11:21:24.129Z</time></trkpt><trkpt lat="42.0472425" lon="13.6559641"><ele>857.0</ele><time>2026-05-02T11:21:25.129Z</time></trkpt><trkpt lat="42.0473498" lon="13.6558694"><ele>857.0</ele><time>2026-05-02T11:21:26.129Z</time></trkpt><trkpt lat="42.0474512" lon="13.6557793"><ele>857.0</ele><time>2026-05-02T11:21:27.129Z</time></trkpt><trkpt lat="42.047545" lon="13.6556958"><ele>857.0</ele><time>2026-05-02T11:21:28.129Z</time></trkpt><trkpt lat="42.0476256" lon="13.6556114"><ele>857.0</ele><time>2026-05-02T11:21:29.13Z</time></trkpt><trkpt lat="42.0477112" lon="13.6555207"><ele>857.0</ele><time>2026-05-02T11:21:30.13Z</time></trkpt><trkpt lat="42.0477971" lon="13.655406"><ele>857.0</ele><time>2026-05-02T11:21:31.13Z</time></trkpt><trkpt lat="42.0478835" lon="13.655283"><ele>857.0</ele><time>2026-05-02T11:21:32.129Z</time></trkpt><trkpt lat="42.0479688" lon="13.6551649"><ele>857.0</ele><time>2026-05-02T11:21:33.129Z</time></trkpt><trkpt lat="42.0480458" lon="13.6550517"><ele>857.0</ele><time>2026-05-02T11:21:34.129Z</time></trkpt><trkpt lat="42.0481242" lon="13.6549455"><ele>857.0</ele><time>2026-05-02T11:21:35.129Z</time></trkpt><trkpt lat="42.0481996" lon="13.6548418"><ele>857.0</ele><time>2026-05-02T11:21:36.13Z</time></trkpt><trkpt lat="42.0482729" lon="13.6547287"><ele>857.0</ele><time>2026-05-02T11:21:37.13Z</time></trkpt><trkpt lat="42.0483414" lon="13.6546081"><ele>857.0</ele><time>2026-05-02T11:21:38.13Z</time></trkpt><trkpt lat="42.0484135" lon="13.6544886"><ele>857.0</ele><time>2026-05-02T11:21:39.13Z</time></trkpt><trkpt lat="42.0484811" lon="13.6543755"><ele>857.3333333333334</ele><time>2026-05-02T11:21:40.131Z</time></trkpt><trkpt lat="42.0485632" lon="13.6542927"><ele>857.6666666666667</ele><time>2026-05-02T11:21:41.13Z</time></trkpt><trkpt lat="42.0486365" lon="13.6542255"><ele>858.0</ele><time>2026-05-02T11:21:42.13Z</time></trkpt><trkpt lat="42.0486885" lon="13.6541685"><ele>858.3333333333333</ele><time>2026-05-02T11:21:43.131Z</time></trkpt><trkpt lat="42.0487387" lon="13.6540926"><ele>858.6666666666666</ele><time>2026-05-02T11:21:44.131Z</time></trkpt><trkpt lat="42.0487912" lon="13.6540112"><ele>859.0</ele><time>2026-05-02T11:21:45.13Z</time></trkpt><trkpt lat="42.0488495" lon="13.6539325"><ele>859.0</ele><time>2026-05-02T11:21:46.13Z</time></trkpt><trkpt lat="42.0489326" lon="13.6538388"><ele>859.0</ele><time>2026-05-02T11:21:47.13Z</time></trkpt><trkpt lat="42.0490421" lon="13.6537367"><ele>859.0</ele><time>2026-05-02T11:21:48.13Z</time></trkpt><trkpt lat="42.0491554" lon="13.6536488"><ele>859.0</ele><time>2026-05-02T11:21:49.13Z</time></trkpt><trkpt lat="42.0492342" lon="13.6535668"><ele>858.5</ele><time>2026-05-02T11:21:50.13Z</time></trkpt><trkpt lat="42.049323" lon="13.6534406"><ele>858.0</ele><time>2026-05-02T11:21:51.13Z</time></trkpt><trkpt lat="42.0494095" lon="13.6533011"><ele>857.5</ele><time>2026-05-02T11:21:52.131Z</time></trkpt><trkpt lat="42.0494952" lon="13.6531883"><ele>857.0</ele><time>2026-05-02T11:21:53.13Z</time></trkpt><trkpt lat="42.0495796" lon="13.6530927"><ele>857.0000000000001</ele><time>2026-05-02T11:21:54.131Z</time></trkpt><trkpt lat="42.04964" lon="13.6529977"><ele>857.0</ele><time>2026-05-02T11:21:55.129Z</time></trkpt><trkpt lat="42.0496881" lon="13.6528829"><ele>857.0</ele><time>2026-05-02T11:21:56.129Z</time></trkpt><trkpt lat="42.0497353" lon="13.6527804"><ele>857.0</ele><time>2026-05-02T11:21:57.129Z</time></trkpt><trkpt lat="42.049772" lon="13.6527099"><ele>857.0000000000001</ele><time>2026-05-02T11:21:58.129Z</time></trkpt><trkpt lat="42.0498144" lon="13.6526064"><ele>857.0</ele><time>2026-05-02T11:22:00.129Z</time></trkpt><trkpt lat="42.0498882" lon="13.65247"><ele>857.2</ele><time>2026-05-02T11:22:02.129Z</time></trkpt><trkpt lat="42.0499575" lon="13.6523775"><ele>857.4000000000001</ele><time>2026-05-02T11:22:03.13Z</time></trkpt><trkpt lat="42.0500428" lon="13.6522637"><ele>857.5999999999999</ele><time>2026-05-02T11:22:04.13Z</time></trkpt><trkpt lat="42.0501272" lon="13.6521673"><ele>857.8</ele><time>2026-05-02T11:22:05.13Z</time></trkpt><trkpt lat="42.0502138" lon="13.6520896"><ele>858.0</ele><time>2026-05-02T11:22:06.13Z</time></trkpt><trkpt lat="42.0502956" lon="13.6520175"><ele>857.4</ele><time>2026-05-02T11:22:07.129Z</time></trkpt><trkpt lat="42.0503687" lon="13.6519483"><ele>856.8</ele><time>2026-05-02T11:22:08.129Z</time></trkpt><trkpt lat="42.0504382" lon="13.6518924"><ele>856.2</ele><time>2026-05-02T11:22:09.129Z</time></trkpt><trkpt lat="42.0505226" lon="13.6518467"><ele>855.6</ele><time>2026-05-02T11:22:10.129Z</time></trkpt><trkpt lat="42.0506243" lon="13.6517886"><ele>855.0</ele><time>2026-05-02T11:22:11.13Z</time></trkpt><trkpt lat="42.050723" lon="13.6517203"><ele>856.4</ele><time>2026-05-02T11:22:12.129Z</time></trkpt><trkpt lat="42.050794" lon="13.6516354"><ele>857.8</ele><time>2026-05-02T11:22:13.13Z</time></trkpt><trkpt lat="42.0508451" lon="13.6515318"><ele>859.2</ele><time>2026-05-02T11:22:14.129Z</time></trkpt><trkpt lat="42.0508922" lon="13.6514084"><ele>860.6</ele><time>2026-05-02T11:22:15.129Z</time></trkpt><trkpt lat="42.0509299" lon="13.6512925"><ele>862.0</ele><time>2026-05-02T11:22:16.129Z</time></trkpt><trkpt lat="42.0509526" lon="13.6511737"><ele>861.0</ele><time>2026-05-02T11:22:17.129Z</time></trkpt><trkpt lat="42.0509457" lon="13.6510431"><ele>860.0</ele><time>2026-05-02T11:22:18.129Z</time></trkpt><trkpt lat="42.050913" lon="13.6508829"><ele>859.0</ele><time>2026-05-02T11:22:19.13Z</time></trkpt><trkpt lat="42.0508735" lon="13.6507097"><ele>858.0</ele><time>2026-05-02T11:22:20.129Z</time></trkpt><trkpt lat="42.0508458" lon="13.6505794"><ele>858.0</ele><time>2026-05-02T11:22:21.13Z</time></trkpt><trkpt lat="42.0508375" lon="13.6504698"><ele>858.0</ele><time>2026-05-02T11:22:22.129Z</time></trkpt><trkpt lat="42.0508538" lon="13.6503631"><ele>858.0</ele><time>2026-05-02T11:22:23.129Z</time></trkpt><trkpt lat="42.0509025" lon="13.6502483"><ele>858.0</ele><time>2026-05-02T11:22:24.129Z</time></trkpt><trkpt lat="42.0509886" lon="13.6501232"><ele>858.0</ele><time>2026-05-02T11:22:25.13Z</time></trkpt><trkpt lat="42.0510944" lon="13.6499763"><ele>856.3333333333333</ele><time>2026-05-02T11:22:26.13Z</time></trkpt><trkpt lat="42.051205" lon="13.6498044"><ele>854.6666666666666</ele><time>2026-05-02T11:22:27.13Z</time></trkpt><trkpt lat="42.0513067" lon="13.6496587"><ele>853.0</ele><time>2026-05-02T11:22:28.13Z</time></trkpt><trkpt lat="42.0513999" lon="13.6495162"><ele>852.75</ele><time>2026-05-02T11:22:29.129Z</time></trkpt><trkpt lat="42.0514796" lon="13.6493676"><ele>852.5</ele><time>2026-05-02T11:22:30.129Z</time></trkpt><trkpt lat="42.0515524" lon="13.6491873"><ele>852.25</ele><time>2026-05-02T11:22:31.13Z</time></trkpt><trkpt lat="42.051604" lon="13.6490122"><ele>852.0</ele><time>2026-05-02T11:22:32.131Z</time></trkpt><trkpt lat="42.0516444" lon="13.6488694"><ele>852.0</ele><time>2026-05-02T11:22:33.129Z</time></trkpt><trkpt lat="42.0516986" lon="13.6487397"><ele>852.0</ele><time>2026-05-02T11:22:34.129Z</time></trkpt><trkpt lat="42.0517766" lon="13.648608"><ele>852.0</ele><time>2026-05-02T11:22:35.129Z</time></trkpt><trkpt lat="42.0518775" lon="13.6484716"><ele>852.0</ele><time>2026-05-02T11:22:36.13Z</time></trkpt><trkpt lat="42.0519962" lon="13.6483178"><ele>852.0</ele><time>2026-05-02T11:22:37.129Z</time></trkpt><trkpt lat="42.0521146" lon="13.648168"><ele>852.0</ele><time>2026-05-02T11:22:38.129Z</time></trkpt><trkpt lat="42.0522366" lon="13.6480281"><ele>852.0</ele><time>2026-05-02T11:22:39.129Z</time></trkpt><trkpt lat="42.0523548" lon="13.647901"><ele>852.25</ele><time>2026-05-02T11:22:40.13Z</time></trkpt><trkpt lat="42.0524743" lon="13.6477743"><ele>852.5</ele><time>2026-05-02T11:22:41.13Z</time></trkpt><trkpt lat="42.052585" lon="13.6476644"><ele>852.75</ele><time>2026-05-02T11:22:42.13Z</time></trkpt><trkpt lat="42.0526558" lon="13.6475222"><ele>853.0</ele><time>2026-05-02T11:22:43.131Z</time></trkpt><trkpt lat="42.0527502" lon="13.6474138"><ele>853.0</ele><time>2026-05-02T11:22:44.129Z</time></trkpt><trkpt lat="42.0528401" lon="13.6472991"><ele>853.0</ele><time>2026-05-02T11:22:45.13Z</time></trkpt><trkpt lat="42.0529484" lon="13.6471848"><ele>853.0</ele><time>2026-05-02T11:22:46.129Z</time></trkpt><trkpt lat="42.0530738" lon="13.6470753"><ele>853.0</ele><time>2026-05-02T11:22:47.129Z</time></trkpt><trkpt lat="42.0531855" lon="13.6469878"><ele>852.75</ele><time>2026-05-02T11:22:48.129Z</time></trkpt><trkpt lat="42.0532879" lon="13.6468912"><ele>852.5</ele><time>2026-05-02T11:22:49.131Z</time></trkpt><trkpt lat="42.0533992" lon="13.646776"><ele>852.25</ele><time>2026-05-02T11:22:50.13Z</time></trkpt><trkpt lat="42.0535167" lon="13.6466532"><ele>852.0</ele><time>2026-05-02T11:22:51.13Z</time></trkpt><trkpt lat="42.053636" lon="13.6465239"><ele>852.3333333333333</ele><time>2026-05-02T11:22:52.13Z</time></trkpt><trkpt lat="42.0537568" lon="13.6463889"><ele>852.6666666666666</ele><time>2026-05-02T11:22:53.129Z</time></trkpt><trkpt lat="42.0538672" lon="13.6462582"><ele>853.0</ele><time>2026-05-02T11:22:54.129Z</time></trkpt><trkpt lat="42.0539771" lon="13.6461263"><ele>853.0</ele><time>2026-05-02T11:22:55.13Z</time></trkpt><trkpt lat="42.0540951" lon="13.6459873"><ele>853.0</ele><time>2026-05-02T11:22:56.13Z</time></trkpt><trkpt lat="42.0542256" lon="13.6458471"><ele>853.0</ele><time>2026-05-02T11:22:57.129Z</time></trkpt><trkpt lat="42.0543503" lon="13.6457057"><ele>853.0</ele><time>2026-05-02T11:22:58.129Z</time></trkpt><trkpt lat="42.0544619" lon="13.6455805"><ele>853.0</ele><time>2026-05-02T11:22:59.13Z</time></trkpt><trkpt lat="42.0545635" lon="13.6454609"><ele>853.0</ele><time>2026-05-02T11:23:00.129Z</time></trkpt><trkpt lat="42.0546594" lon="13.645325"><ele>853.0</ele><time>2026-05-02T11:23:01.13Z</time></trkpt><trkpt lat="42.0547468" lon="13.6451957"><ele>853.25</ele><time>2026-05-02T11:23:02.129Z</time></trkpt><trkpt lat="42.054821" lon="13.6450662"><ele>853.5</ele><time>2026-05-02T11:23:03.13Z</time></trkpt><trkpt lat="42.0548773" lon="13.6449347"><ele>853.75</ele><time>2026-05-02T11:23:04.129Z</time></trkpt><trkpt lat="42.0549281" lon="13.6447907"><ele>854.0</ele><time>2026-05-02T11:23:05.13Z</time></trkpt><trkpt lat="42.0549738" lon="13.6446218"><ele>853.4000000000001</ele><time>2026-05-02T11:23:06.129Z</time></trkpt><trkpt lat="42.0550035" lon="13.6444417"><ele>852.8000000000001</ele><time>2026-05-02T11:23:07.129Z</time></trkpt><trkpt lat="42.0550288" lon="13.6442944"><ele>852.2</ele><time>2026-05-02T11:23:08.129Z</time></trkpt><trkpt lat="42.0550614" lon="13.6441777"><ele>851.5999999999999</ele><time>2026-05-02T11:23:09.129Z</time></trkpt><trkpt lat="42.0551041" lon="13.6440831"><ele>851.0</ele><time>2026-05-02T11:23:10.129Z</time></trkpt><trkpt lat="42.0551433" lon="13.6439703"><ele>851.0</ele><time>2026-05-02T11:23:11.13Z</time></trkpt><trkpt lat="42.0551834" lon="13.6438367"><ele>851.0</ele><time>2026-05-02T11:23:12.13Z</time></trkpt><trkpt lat="42.0552215" lon="13.6436759"><ele>851.0</ele><time>2026-05-02T11:23:13.13Z</time></trkpt><trkpt lat="42.0552573" lon="13.6434804"><ele>851.0</ele><time>2026-05-02T11:23:14.13Z</time></trkpt><trkpt lat="42.0552879" lon="13.6432886"><ele>851.0</ele><time>2026-05-02T11:23:15.129Z</time></trkpt><trkpt lat="42.0553176" lon="13.6431233"><ele>851.0</ele><time>2026-05-02T11:23:16.129Z</time></trkpt><trkpt lat="42.0553537" lon="13.6429745"><ele>851.0</ele><time>2026-05-02T11:23:17.13Z</time></trkpt><trkpt lat="42.0553979" lon="13.6428211"><ele>851.0</ele><time>2026-05-02T11:23:18.13Z</time></trkpt><trkpt lat="42.055458" lon="13.642657"><ele>851.0000000000001</ele><time>2026-05-02T11:23:19.131Z</time></trkpt><trkpt lat="42.0555124" lon="13.6425268"><ele>851.0</ele><time>2026-05-02T11:23:20.13Z</time></trkpt><trkpt lat="42.0555559" lon="13.6424237"><ele>851.0</ele><time>2026-05-02T11:23:21.13Z</time></trkpt><trkpt lat="42.0556009" lon="13.6423499"><ele>851.0</ele><time>2026-05-02T11:23:22.131Z</time></trkpt><trkpt lat="42.0556534" lon="13.6422853"><ele>851.0000000000001</ele><time>2026-05-02T11:23:23.129Z</time></trkpt><trkpt lat="42.0557276" lon="13.6422253"><ele>851.0</ele><time>2026-05-02T11:23:24.129Z</time></trkpt><trkpt lat="42.0558142" lon="13.6421767"><ele>852.5</ele><time>2026-05-02T11:23:25.13Z</time></trkpt><trkpt lat="42.0559143" lon="13.642134"><ele>854.0</ele><time>2026-05-02T11:23:26.13Z</time></trkpt><trkpt lat="42.0560361" lon="13.6420949"><ele>855.5</ele><time>2026-05-02T11:23:27.13Z</time></trkpt><trkpt lat="42.056147" lon="13.6420457"><ele>857.0</ele><time>2026-05-02T11:23:28.131Z</time></trkpt><trkpt lat="42.0562572" lon="13.6419852"><ele>856.0</ele><time>2026-05-02T11:23:29.13Z</time></trkpt><trkpt lat="42.0563794" lon="13.6419297"><ele>855.0</ele><time>2026-05-02T11:23:30.13Z</time></trkpt><trkpt lat="42.0565107" lon="13.6418722"><ele>854.0</ele><time>2026-05-02T11:23:31.129Z</time></trkpt><trkpt lat="42.0566462" lon="13.6418191"><ele>853.0</ele><time>2026-05-02T11:23:32.129Z</time></trkpt><trkpt lat="42.0567636" lon="13.6417722"><ele>853.0</ele><time>2026-05-02T11:23:33.129Z</time></trkpt><trkpt lat="42.0568712" lon="13.6417348"><ele>853.0</ele><time>2026-05-02T11:23:34.131Z</time></trkpt><trkpt lat="42.0569774" lon="13.641713"><ele>853.0</ele><time>2026-05-02T11:23:35.13Z</time></trkpt><trkpt lat="42.0570823" lon="13.6417256"><ele>853.0</ele><time>2026-05-02T11:23:36.129Z</time></trkpt><trkpt lat="42.0572054" lon="13.6417579"><ele>853.0</ele><time>2026-05-02T11:23:37.13Z</time></trkpt><trkpt lat="42.0573394" lon="13.6417734"><ele>853.5</ele><time>2026-05-02T11:23:38.13Z</time></trkpt><trkpt lat="42.0574721" lon="13.6417737"><ele>854.0</ele><time>2026-05-02T11:23:39.129Z</time></trkpt><trkpt lat="42.0575949" lon="13.6417536"><ele>854.5</ele><time>2026-05-02T11:23:40.13Z</time></trkpt><trkpt lat="42.0577288" lon="13.6417012"><ele>855.0</ele><time>2026-05-02T11:23:41.13Z</time></trkpt><trkpt lat="42.057876" lon="13.6416259"><ele>855.0</ele><time>2026-05-02T11:23:42.129Z</time></trkpt><trkpt lat="42.0580256" lon="13.6415528"><ele>855.0</ele><time>2026-05-02T11:23:43.129Z</time></trkpt><trkpt lat="42.0581518" lon="13.6414934"><ele>855.0</ele><time>2026-05-02T11:23:44.129Z</time></trkpt><trkpt lat="42.0582701" lon="13.6414322"><ele>855.0</ele><time>2026-05-02T11:23:45.129Z</time></trkpt><trkpt lat="42.0583954" lon="13.6413675"><ele>855.5</ele><time>2026-05-02T11:23:46.129Z</time></trkpt><trkpt lat="42.0585153" lon="13.6413107"><ele>856.0</ele><time>2026-05-02T11:23:47.129Z</time></trkpt><trkpt lat="42.0586311" lon="13.6412572"><ele>856.5</ele><time>2026-05-02T11:23:48.129Z</time></trkpt><trkpt lat="42.0587524" lon="13.6412208"><ele>857.0</ele><time>2026-05-02T11:23:49.129Z</time></trkpt><trkpt lat="42.0588958" lon="13.6411934"><ele>857.0</ele><time>2026-05-02T11:23:50.131Z</time></trkpt><trkpt lat="42.0590625" lon="13.6411735"><ele>857.0</ele><time>2026-05-02T11:23:51.129Z</time></trkpt><trkpt lat="42.0592438" lon="13.6411531"><ele>857.0</ele><time>2026-05-02T11:23:52.129Z</time></trkpt><trkpt lat="42.0594182" lon="13.6411417"><ele>857.5</ele><time>2026-05-02T11:23:53.129Z</time></trkpt><trkpt lat="42.0595789" lon="13.6411321"><ele>858.0</ele><time>2026-05-02T11:23:54.13Z</time></trkpt><trkpt lat="42.0597228" lon="13.6411338"><ele>858.5</ele><time>2026-05-02T11:23:55.129Z</time></trkpt><trkpt lat="42.0598508" lon="13.6411352"><ele>859.0</ele><time>2026-05-02T11:23:56.129Z</time></trkpt><trkpt lat="42.0599635" lon="13.6411362"><ele>859.25</ele><time>2026-05-02T11:23:57.13Z</time></trkpt><trkpt lat="42.060073" lon="13.6411532"><ele>859.5</ele><time>2026-05-02T11:23:58.13Z</time></trkpt><trkpt lat="42.0601968" lon="13.6411769"><ele>859.75</ele><time>2026-05-02T11:23:59.13Z</time></trkpt><trkpt lat="42.0603245" lon="13.6411969"><ele>860.0</ele><time>2026-05-02T11:24:00.129Z</time></trkpt><trkpt lat="42.0604615" lon="13.6412053"><ele>860.0</ele><time>2026-05-02T11:24:01.129Z</time></trkpt><trkpt lat="42.0606095" lon="13.6412019"><ele>860.0</ele><time>2026-05-02T11:24:02.13Z</time></trkpt><trkpt lat="42.0607697" lon="13.6411886"><ele>860.0</ele><time>2026-05-02T11:24:03.131Z</time></trkpt><trkpt lat="42.060918" lon="13.641165"><ele>860.0</ele><time>2026-05-02T11:24:04.129Z</time></trkpt><trkpt lat="42.0610518" lon="13.6411358"><ele>860.0</ele><time>2026-05-02T11:24:05.13Z</time></trkpt><trkpt lat="42.0611792" lon="13.6410995"><ele>860.0</ele><time>2026-05-02T11:24:06.129Z</time></trkpt><trkpt lat="42.061294" lon="13.6410669"><ele>860.0</ele><time>2026-05-02T11:24:07.129Z</time></trkpt><trkpt lat="42.0613982" lon="13.6410306"><ele>860.0</ele><time>2026-05-02T11:24:08.13Z</time></trkpt><trkpt lat="42.0615068" lon="13.6409963"><ele>860.0</ele><time>2026-05-02T11:24:09.131Z</time></trkpt><trkpt lat="42.0615886" lon="13.6409734"><ele>860.0</ele><time>2026-05-02T11:24:10.129Z</time></trkpt><trkpt lat="42.0616864" lon="13.6409486"><ele>860.0</ele><time>2026-05-02T11:24:11.129Z</time></trkpt><trkpt lat="42.0617763" lon="13.6408739"><ele>860.0</ele><time>2026-05-02T11:24:13.129Z</time></trkpt><trkpt lat="42.0618555" lon="13.6408056"><ele>861.75</ele><time>2026-05-02T11:24:14.129Z</time></trkpt><trkpt lat="42.0619545" lon="13.6407125"><ele>863.5</ele><time>2026-05-02T11:24:15.129Z</time></trkpt><trkpt lat="42.0620696" lon="13.6405926"><ele>865.25</ele><time>2026-05-02T11:24:16.129Z</time></trkpt><trkpt lat="42.0621954" lon="13.6404669"><ele>867.0</ele><time>2026-05-02T11:24:17.129Z</time></trkpt><trkpt lat="42.0623109" lon="13.6403268"><ele>867.0</ele><time>2026-05-02T11:24:18.129Z</time></trkpt><trkpt lat="42.0624144" lon="13.6402029"><ele>867.0</ele><time>2026-05-02T11:24:19.129Z</time></trkpt><trkpt lat="42.0625063" lon="13.6400856"><ele>867.0</ele><time>2026-05-02T11:24:20.13Z</time></trkpt><trkpt lat="42.0625919" lon="13.6399805"><ele>867.0</ele><time>2026-05-02T11:24:21.13Z</time></trkpt><trkpt lat="42.062676" lon="13.6398953"><ele>867.0</ele><time>2026-05-02T11:24:22.13Z</time></trkpt><trkpt lat="42.0627753" lon="13.6398117"><ele>867.0</ele><time>2026-05-02T11:24:23.13Z</time></trkpt><trkpt lat="42.0628978" lon="13.6397231"><ele>867.0</ele><time>2026-05-02T11:24:24.131Z</time></trkpt><trkpt lat="42.0630473" lon="13.6396169"><ele>867.0</ele><time>2026-05-02T11:24:25.129Z</time></trkpt><trkpt lat="42.0632123" lon="13.6394982"><ele>866.3333333333333</ele><time>2026-05-02T11:24:26.129Z</time></trkpt><trkpt lat="42.0633665" lon="13.6393798"><ele>865.6666666666666</ele><time>2026-05-02T11:24:27.129Z</time></trkpt><trkpt lat="42.0635138" lon="13.6392651"><ele>865.0</ele><time>2026-05-02T11:24:28.13Z</time></trkpt><trkpt lat="42.0636493" lon="13.6391601"><ele>865.0</ele><time>2026-05-02T11:24:29.129Z</time></trkpt><trkpt lat="42.0637779" lon="13.6390417"><ele>865.0</ele><time>2026-05-02T11:24:30.129Z</time></trkpt><trkpt lat="42.0639128" lon="13.6388992"><ele>865.0</ele><time>2026-05-02T11:24:31.129Z</time></trkpt><trkpt lat="42.0640482" lon="13.63878"><ele>864.6666666666666</ele><time>2026-05-02T11:24:32.129Z</time></trkpt><trkpt lat="42.0641903" lon="13.6386553"><ele>864.3333333333333</ele><time>2026-05-02T11:24:33.13Z</time></trkpt><trkpt lat="42.064314" lon="13.6385311"><ele>864.0</ele><time>2026-05-02T11:24:34.131Z</time></trkpt><trkpt lat="42.0644286" lon="13.6384165"><ele>864.0</ele><time>2026-05-02T11:24:35.13Z</time></trkpt><trkpt lat="42.0645506" lon="13.6383023"><ele>864.0</ele><time>2026-05-02T11:24:36.13Z</time></trkpt><trkpt lat="42.0646773" lon="13.6381691"><ele>864.0</ele><time>2026-05-02T11:24:37.13Z</time></trkpt><trkpt lat="42.0647953" lon="13.6380431"><ele>864.0</ele><time>2026-05-02T11:24:38.13Z</time></trkpt><trkpt lat="42.0649304" lon="13.6379018"><ele>864.0</ele><time>2026-05-02T11:24:39.131Z</time></trkpt><trkpt lat="42.0650518" lon="13.6377678"><ele>864.0</ele><time>2026-05-02T11:24:40.13Z</time></trkpt><trkpt lat="42.0651602" lon="13.637644"><ele>864.25</ele><time>2026-05-02T11:24:41.13Z</time></trkpt><trkpt lat="42.0652602" lon="13.6375221"><ele>864.5</ele><time>2026-05-02T11:24:42.129Z</time></trkpt><trkpt lat="42.0653647" lon="13.6374017"><ele>864.75</ele><time>2026-05-02T11:24:43.129Z</time></trkpt><trkpt lat="42.0654651" lon="13.6372951"><ele>865.0</ele><time>2026-05-02T11:24:44.129Z</time></trkpt><trkpt lat="42.0655773" lon="13.6371973"><ele>865.0</ele><time>2026-05-02T11:24:45.13Z</time></trkpt><trkpt lat="42.0657036" lon="13.6370929"><ele>865.0</ele><time>2026-05-02T11:24:46.13Z</time></trkpt><trkpt lat="42.0658414" lon="13.6369809"><ele>865.0</ele><time>2026-05-02T11:24:47.129Z</time></trkpt><trkpt lat="42.0659896" lon="13.6368618"><ele>865.3333333333333</ele><time>2026-05-02T11:24:48.129Z</time></trkpt><trkpt lat="42.0661571" lon="13.6367323"><ele>865.6666666666667</ele><time>2026-05-02T11:24:49.13Z</time></trkpt><trkpt lat="42.0663342" lon="13.6365963"><ele>866.0</ele><time>2026-05-02T11:24:50.129Z</time></trkpt><trkpt lat="42.0664953" lon="13.6364574"><ele>867.6666666666667</ele><time>2026-05-02T11:24:51.129Z</time></trkpt><trkpt lat="42.0666533" lon="13.636331"><ele>869.3333333333333</ele><time>2026-05-02T11:24:52.13Z</time></trkpt><trkpt lat="42.0667906" lon="13.6362153"><ele>871.0</ele><time>2026-05-02T11:24:53.13Z</time></trkpt><trkpt lat="42.0669129" lon="13.6361091"><ele>871.0</ele><time>2026-05-02T11:24:54.13Z</time></trkpt><trkpt lat="42.0670187" lon="13.6360156"><ele>870.9999999999999</ele><time>2026-05-02T11:24:55.131Z</time></trkpt><trkpt lat="42.0671102" lon="13.635933"><ele>870.9999999999999</ele><time>2026-05-02T11:24:56.131Z</time></trkpt><trkpt lat="42.0671929" lon="13.6358812"><ele>871.0</ele><time>2026-05-02T11:24:57.13Z</time></trkpt><trkpt lat="42.0672786" lon="13.6358532"><ele>871.0</ele><time>2026-05-02T11:24:58.131Z</time></trkpt><trkpt lat="42.0673817" lon="13.6358349"><ele>873.0</ele><time>2026-05-02T11:24:59.131Z</time></trkpt><trkpt lat="42.0674776" lon="13.6357914"><ele>875.0</ele><time>2026-05-02T11:25:00.129Z</time></trkpt><trkpt lat="42.0675783" lon="13.635718"><ele>877.0</ele><time>2026-05-02T11:25:01.13Z</time></trkpt><trkpt lat="42.0676961" lon="13.635625"><ele>879.0</ele><time>2026-05-02T11:25:02.129Z</time></trkpt><trkpt lat="42.0678268" lon="13.6355159"><ele>879.0</ele><time>2026-05-02T11:25:03.129Z</time></trkpt><trkpt lat="42.067959" lon="13.6353891"><ele>879.0</ele><time>2026-05-02T11:25:04.129Z</time></trkpt><trkpt lat="42.0681038" lon="13.6352428"><ele>879.0</ele><time>2026-05-02T11:25:05.129Z</time></trkpt><trkpt lat="42.0682415" lon="13.6350901"><ele>880.5</ele><time>2026-05-02T11:25:06.13Z</time></trkpt><trkpt lat="42.0683627" lon="13.6349612"><ele>882.0</ele><time>2026-05-02T11:25:07.13Z</time></trkpt><trkpt lat="42.0684742" lon="13.6348443"><ele>883.5</ele><time>2026-05-02T11:25:08.131Z</time></trkpt><trkpt lat="42.0685729" lon="13.6347326"><ele>885.0</ele><time>2026-05-02T11:25:09.13Z</time></trkpt><trkpt lat="42.0686813" lon="13.6346074"><ele>884.25</ele><time>2026-05-02T11:25:10.13Z</time></trkpt><trkpt lat="42.0688006" lon="13.6344677"><ele>883.5</ele><time>2026-05-02T11:25:11.129Z</time></trkpt><trkpt lat="42.0689136" lon="13.6343329"><ele>882.75</ele><time>2026-05-02T11:25:12.129Z</time></trkpt><trkpt lat="42.0690147" lon="13.6342077"><ele>882.0</ele><time>2026-05-02T11:25:13.129Z</time></trkpt><trkpt lat="42.0690961" lon="13.6340929"><ele>883.0</ele><time>2026-05-02T11:25:14.129Z</time></trkpt><trkpt lat="42.0691584" lon="13.633995"><ele>884.0</ele><time>2026-05-02T11:25:15.129Z</time></trkpt><trkpt lat="42.0692192" lon="13.6339251"><ele>885.0</ele><time>2026-05-02T11:25:16.129Z</time></trkpt><trkpt lat="42.0692777" lon="13.6338692"><ele>886.0</ele><time>2026-05-02T11:25:17.129Z</time></trkpt><trkpt lat="42.0693878" lon="13.6338361"><ele>887.0</ele><time>2026-05-02T11:25:19.129Z</time></trkpt><trkpt lat="42.0694492" lon="13.6338559"><ele>888.0</ele><time>2026-05-02T11:25:20.13Z</time></trkpt><trkpt lat="42.0695185" lon="13.6339003"><ele>888.0</ele><time>2026-05-02T11:25:21.129Z</time></trkpt><trkpt lat="42.0695793" lon="13.6339521"><ele>888.0</ele><time>2026-05-02T11:25:22.13Z</time></trkpt><trkpt lat="42.069661" lon="13.6340862"><ele>888.0</ele><time>2026-05-02T11:25:24.129Z</time></trkpt><trkpt lat="42.0696931" lon="13.6341908"><ele>888.0</ele><time>2026-05-02T11:25:25.13Z</time></trkpt><trkpt lat="42.0697336" lon="13.6343098"><ele>888.0</ele><time>2026-05-02T11:25:26.129Z</time></trkpt><trkpt lat="42.0697944" lon="13.6344612"><ele>888.3333333333333</ele><time>2026-05-02T11:25:27.13Z</time></trkpt><trkpt lat="42.0698774" lon="13.6346414"><ele>888.6666666666666</ele><time>2026-05-02T11:25:28.13Z</time></trkpt><trkpt lat="42.0699829" lon="13.6348368"><ele>889.0</ele><time>2026-05-02T11:25:29.129Z</time></trkpt><trkpt lat="42.0701018" lon="13.6350411"><ele>889.0</ele><time>2026-05-02T11:25:30.13Z</time></trkpt><trkpt lat="42.0702355" lon="13.6352684"><ele>889.0</ele><time>2026-05-02T11:25:31.13Z</time></trkpt><trkpt lat="42.0703763" lon="13.6355121"><ele>889.0</ele><time>2026-05-02T11:25:32.129Z</time></trkpt><trkpt lat="42.0704994" lon="13.6357297"><ele>894.3333333333333</ele><time>2026-05-02T11:25:33.129Z</time></trkpt><trkpt lat="42.0706214" lon="13.6359533"><ele>899.6666666666667</ele><time>2026-05-02T11:25:34.129Z</time></trkpt><trkpt lat="42.0707442" lon="13.636183"><ele>905.0</ele><time>2026-05-02T11:25:35.129Z</time></trkpt><trkpt lat="42.0708668" lon="13.6363953"><ele>905.0</ele><time>2026-05-02T11:25:36.129Z</time></trkpt><trkpt lat="42.071" lon="13.6365763"><ele>905.0</ele><time>2026-05-02T11:25:37.129Z</time></trkpt><trkpt lat="42.0711515" lon="13.6367408"><ele>905.0</ele><time>2026-05-02T11:25:38.129Z</time></trkpt><trkpt lat="42.0713111" lon="13.6369128"><ele>904.3333333333334</ele><time>2026-05-02T11:25:39.129Z</time></trkpt><trkpt lat="42.0714674" lon="13.6371044"><ele>903.6666666666667</ele><time>2026-05-02T11:25:40.13Z</time></trkpt><trkpt lat="42.0716177" lon="13.6372871"><ele>903.0</ele><time>2026-05-02T11:25:41.129Z</time></trkpt><trkpt lat="42.0717771" lon="13.637457"><ele>903.0</ele><time>2026-05-02T11:25:42.129Z</time></trkpt><trkpt lat="42.0719552" lon="13.6376223"><ele>903.0</ele><time>2026-05-02T11:25:43.13Z</time></trkpt><trkpt lat="42.0721492" lon="13.6377742"><ele>903.0</ele><time>2026-05-02T11:25:44.13Z</time></trkpt><trkpt lat="42.0723423" lon="13.6379003"><ele>905.3333333333333</ele><time>2026-05-02T11:25:45.13Z</time></trkpt><trkpt lat="42.0725272" lon="13.6380028"><ele>907.6666666666666</ele><time>2026-05-02T11:25:46.13Z</time></trkpt><trkpt lat="42.0726913" lon="13.638094"><ele>910.0</ele><time>2026-05-02T11:25:47.129Z</time></trkpt><trkpt lat="42.0728301" lon="13.6381801"><ele>910.0</ele><time>2026-05-02T11:25:48.129Z</time></trkpt><trkpt lat="42.0729534" lon="13.6382749"><ele>910.0</ele><time>2026-05-02T11:25:49.131Z</time></trkpt><trkpt lat="42.0730709" lon="13.6383993"><ele>910.0</ele><time>2026-05-02T11:25:50.13Z</time></trkpt><trkpt lat="42.0731832" lon="13.6385588"><ele>912.3333333333333</ele><time>2026-05-02T11:25:51.13Z</time></trkpt><trkpt lat="42.0732898" lon="13.6387411"><ele>914.6666666666667</ele><time>2026-05-02T11:25:52.13Z</time></trkpt><trkpt lat="42.0734136" lon="13.6389417"><ele>917.0</ele><time>2026-05-02T11:25:53.13Z</time></trkpt><trkpt lat="42.0735543" lon="13.6391443"><ele>917.0</ele><time>2026-05-02T11:25:54.13Z</time></trkpt><trkpt lat="42.0737179" lon="13.6393502"><ele>917.0</ele><time>2026-05-02T11:25:55.129Z</time></trkpt><trkpt lat="42.0738963" lon="13.6395525"><ele>919.5</ele><time>2026-05-02T11:25:56.131Z</time></trkpt><trkpt lat="42.0740837" lon="13.6397571"><ele>922.0</ele><time>2026-05-02T11:25:57.13Z</time></trkpt><trkpt lat="42.074267" lon="13.6399675"><ele>922.0</ele><time>2026-05-02T11:25:58.13Z</time></trkpt><trkpt lat="42.07444" lon="13.6401722"><ele>922.0</ele><time>2026-05-02T11:25:59.13Z</time></trkpt><trkpt lat="42.0746057" lon="13.640381"><ele>933.5</ele><time>2026-05-02T11:26:00.129Z</time></trkpt><trkpt lat="42.0747687" lon="13.6406"><ele>945.0</ele><time>2026-05-02T11:26:01.13Z</time></trkpt><trkpt lat="42.0749332" lon="13.6408308"><ele>940.5</ele><time>2026-05-02T11:26:02.129Z</time></trkpt><trkpt lat="42.0750944" lon="13.6410703"><ele>936.0</ele><time>2026-05-02T11:26:03.129Z</time></trkpt><trkpt lat="42.075251" lon="13.6413143"><ele>936.0</ele><time>2026-05-02T11:26:04.13Z</time></trkpt><trkpt lat="42.0754026" lon="13.641548"><ele>936.0</ele><time>2026-05-02T11:26:05.129Z</time></trkpt><trkpt lat="42.0755454" lon="13.6417576"><ele>936.0</ele><time>2026-05-02T11:26:06.129Z</time></trkpt><trkpt lat="42.0757002" lon="13.6419554"><ele>936.0</ele><time>2026-05-02T11:26:07.129Z</time></trkpt><trkpt lat="42.0758607" lon="13.642144"><ele>936.0</ele><time>2026-05-02T11:26:08.129Z</time></trkpt><trkpt lat="42.0760319" lon="13.6423341"><ele>936.0</ele><time>2026-05-02T11:26:09.13Z</time></trkpt><trkpt lat="42.0762069" lon="13.6425322"><ele>936.0</ele><time>2026-05-02T11:26:10.129Z</time></trkpt><trkpt lat="42.0763776" lon="13.6427402"><ele>936.0</ele><time>2026-05-02T11:26:11.13Z</time></trkpt><trkpt lat="42.0765445" lon="13.6429578"><ele>939.0</ele><time>2026-05-02T11:26:12.129Z</time></trkpt><trkpt lat="42.0767048" lon="13.6431854"><ele>942.0</ele><time>2026-05-02T11:26:13.13Z</time></trkpt><trkpt lat="42.0768618" lon="13.6434181"><ele>951.0</ele><time>2026-05-02T11:26:14.129Z</time></trkpt><trkpt lat="42.077016" lon="13.6436319"><ele>960.0</ele><time>2026-05-02T11:26:15.13Z</time></trkpt><trkpt lat="42.0771892" lon="13.6438605"><ele>960.0</ele><time>2026-05-02T11:26:16.131Z</time></trkpt><trkpt lat="42.0773581" lon="13.6440603"><ele>960.0</ele><time>2026-05-02T11:26:17.13Z</time></trkpt><trkpt lat="42.0775159" lon="13.6442235"><ele>960.0</ele><time>2026-05-02T11:26:18.129Z</time></trkpt><trkpt lat="42.0776608" lon="13.6443658"><ele>960.6666666666667</ele><time>2026-05-02T11:26:19.129Z</time></trkpt><trkpt lat="42.0777967" lon="13.6445273"><ele>961.3333333333334</ele><time>2026-05-02T11:26:20.129Z</time></trkpt><trkpt lat="42.0779139" lon="13.6447118"><ele>962.0</ele><time>2026-05-02T11:26:21.13Z</time></trkpt><trkpt lat="42.0780406" lon="13.6448954"><ele>962.0</ele><time>2026-05-02T11:26:22.129Z</time></trkpt><trkpt lat="42.0781537" lon="13.6451456"><ele>962.0</ele><time>2026-05-02T11:26:23.129Z</time></trkpt><trkpt lat="42.0782641" lon="13.6453449"><ele>962.0</ele><time>2026-05-02T11:26:24.129Z</time></trkpt><trkpt lat="42.0783704" lon="13.6455317"><ele>961.3333333333334</ele><time>2026-05-02T11:26:25.129Z</time></trkpt><trkpt lat="42.0784822" lon="13.6457036"><ele>960.6666666666667</ele><time>2026-05-02T11:26:26.129Z</time></trkpt><trkpt lat="42.0786152" lon="13.6458414"><ele>960.0</ele><time>2026-05-02T11:26:27.13Z</time></trkpt><trkpt lat="42.0787657" lon="13.6459752"><ele>960.0</ele><time>2026-05-02T11:26:28.129Z</time></trkpt><trkpt lat="42.0789139" lon="13.6461259"><ele>960.0</ele><time>2026-05-02T11:26:29.129Z</time></trkpt><trkpt lat="42.0790554" lon="13.6463047"><ele>960.0</ele><time>2026-05-02T11:26:30.129Z</time></trkpt><trkpt lat="42.0791794" lon="13.6465014"><ele>960.3333333333333</ele><time>2026-05-02T11:26:31.129Z</time></trkpt><trkpt lat="42.0792857" lon="13.6467131"><ele>960.6666666666666</ele><time>2026-05-02T11:26:32.13Z</time></trkpt><trkpt lat="42.0793722" lon="13.6469057"><ele>961.0</ele><time>2026-05-02T11:26:33.13Z</time></trkpt><trkpt lat="42.0794545" lon="13.6470833"><ele>963.75</ele><time>2026-05-02T11:26:34.13Z</time></trkpt><trkpt lat="42.0795307" lon="13.6472417"><ele>966.5</ele><time>2026-05-02T11:26:35.129Z</time></trkpt><trkpt lat="42.0795989" lon="13.6473649"><ele>969.25</ele><time>2026-05-02T11:26:36.13Z</time></trkpt><trkpt lat="42.0796569" lon="13.6474496"><ele>972.0</ele><time>2026-05-02T11:26:37.129Z</time></trkpt><trkpt lat="42.0797667" lon="13.6475425"><ele>972.0</ele><time>2026-05-02T11:26:39.13Z</time></trkpt><trkpt lat="42.0798399" lon="13.6475782"><ele>972.0</ele><time>2026-05-02T11:26:40.131Z</time></trkpt><trkpt lat="42.0799066" lon="13.6476089"><ele>972.0</ele><time>2026-05-02T11:26:41.129Z</time></trkpt><trkpt lat="42.0799861" lon="13.6476541"><ele>972.0</ele><time>2026-05-02T11:26:42.129Z</time></trkpt><trkpt lat="42.0800743" lon="13.6477081"><ele>972.0</ele><time>2026-05-02T11:26:43.13Z</time></trkpt><trkpt lat="42.0801687" lon="13.6477637"><ele>972.0</ele><time>2026-05-02T11:26:44.13Z</time></trkpt><trkpt lat="42.0802582" lon="13.6478032"><ele>970.4000000000001</ele><time>2026-05-02T11:26:45.129Z</time></trkpt><trkpt lat="42.0803514" lon="13.6478236"><ele>968.8000000000001</ele><time>2026-05-02T11:26:46.13Z</time></trkpt><trkpt lat="42.0804448" lon="13.6478179"><ele>967.2</ele><time>2026-05-02T11:26:47.129Z</time></trkpt><trkpt lat="42.080549" lon="13.6477902"><ele>965.6</ele><time>2026-05-02T11:26:48.129Z</time></trkpt><trkpt lat="42.0806677" lon="13.6477435"><ele>964.0</ele><time>2026-05-02T11:26:49.13Z</time></trkpt><trkpt lat="42.0808027" lon="13.6476764"><ele>964.0</ele><time>2026-05-02T11:26:50.129Z</time></trkpt><trkpt lat="42.0809479" lon="13.6476044"><ele>964.0</ele><time>2026-05-02T11:26:51.131Z</time></trkpt><trkpt lat="42.0811003" lon="13.6475351"><ele>964.0</ele><time>2026-05-02T11:26:52.129Z</time></trkpt><trkpt lat="42.0812377" lon="13.6474644"><ele>964.0</ele><time>2026-05-02T11:26:53.13Z</time></trkpt><trkpt lat="42.0813651" lon="13.6473738"><ele>964.0</ele><time>2026-05-02T11:26:54.129Z</time></trkpt><trkpt lat="42.0814822" lon="13.6472702"><ele>964.0</ele><time>2026-05-02T11:26:55.129Z</time></trkpt><trkpt lat="42.0815916" lon="13.6471529"><ele>964.0</ele><time>2026-05-02T11:26:56.129Z</time></trkpt><trkpt lat="42.0817114" lon="13.6470086"><ele>967.3333333333333</ele><time>2026-05-02T11:26:57.129Z</time></trkpt><trkpt lat="42.0818343" lon="13.6468387"><ele>970.6666666666667</ele><time>2026-05-02T11:26:58.129Z</time></trkpt><trkpt lat="42.0819597" lon="13.6466612"><ele>974.0</ele><time>2026-05-02T11:26:59.13Z</time></trkpt><trkpt lat="42.0820707" lon="13.6464959"><ele>974.0</ele><time>2026-05-02T11:27:00.129Z</time></trkpt><trkpt lat="42.082176" lon="13.6463586"><ele>974.0</ele><time>2026-05-02T11:27:01.13Z</time></trkpt><trkpt lat="42.0822873" lon="13.6462505"><ele>974.0</ele><time>2026-05-02T11:27:02.129Z</time></trkpt><trkpt lat="42.0824175" lon="13.6461539"><ele>974.0</ele><time>2026-05-02T11:27:03.13Z</time></trkpt><trkpt lat="42.0825402" lon="13.6460857"><ele>976.25</ele><time>2026-05-02T11:27:04.131Z</time></trkpt><trkpt lat="42.0826746" lon="13.6460295"><ele>978.5</ele><time>2026-05-02T11:27:05.129Z</time></trkpt><trkpt lat="42.082794" lon="13.6459837"><ele>980.75</ele><time>2026-05-02T11:27:06.129Z</time></trkpt><trkpt lat="42.0829132" lon="13.6459267"><ele>983.0</ele><time>2026-05-02T11:27:07.129Z</time></trkpt><trkpt lat="42.0830382" lon="13.6458488"><ele>983.0</ele><time>2026-05-02T11:27:08.129Z</time></trkpt><trkpt lat="42.0831699" lon="13.6457483"><ele>983.0</ele><time>2026-05-02T11:27:09.129Z</time></trkpt><trkpt lat="42.0833132" lon="13.6456282"><ele>983.0</ele><time>2026-05-02T11:27:10.129Z</time></trkpt><trkpt lat="42.083463" lon="13.6454821"><ele>986.3333333333334</ele><time>2026-05-02T11:27:11.129Z</time></trkpt><trkpt lat="42.0836035" lon="13.6453346"><ele>989.6666666666667</ele><time>2026-05-02T11:27:12.13Z</time></trkpt><trkpt lat="42.0837285" lon="13.6452021"><ele>993.0</ele><time>2026-05-02T11:27:13.129Z</time></trkpt><trkpt lat="42.083839" lon="13.6450692"><ele>994.0</ele><time>2026-05-02T11:27:14.129Z</time></trkpt><trkpt lat="42.083927" lon="13.6449247"><ele>995.0</ele><time>2026-05-02T11:27:15.13Z</time></trkpt><trkpt lat="42.0839953" lon="13.6447762"><ele>996.0</ele><time>2026-05-02T11:27:16.13Z</time></trkpt><trkpt lat="42.0840502" lon="13.6446086"><ele>997.0</ele><time>2026-05-02T11:27:17.13Z</time></trkpt><trkpt lat="42.0840935" lon="13.6444105"><ele>999.6666666666666</ele><time>2026-05-02T11:27:18.129Z</time></trkpt><trkpt lat="42.0841271" lon="13.6441917"><ele>1002.3333333333333</ele><time>2026-05-02T11:27:19.129Z</time></trkpt><trkpt lat="42.0841746" lon="13.6440073"><ele>1005.0</ele><time>2026-05-02T11:27:20.129Z</time></trkpt><trkpt lat="42.0842403" lon="13.6438191"><ele>1007.0</ele><time>2026-05-02T11:27:21.129Z</time></trkpt><trkpt lat="42.0843234" lon="13.64361"><ele>1009.0</ele><time>2026-05-02T11:27:22.129Z</time></trkpt><trkpt lat="42.0843902" lon="13.643406"><ele>1011.0</ele><time>2026-05-02T11:27:23.129Z</time></trkpt><trkpt lat="42.0844505" lon="13.6432115"><ele>1011.0</ele><time>2026-05-02T11:27:24.13Z</time></trkpt><trkpt lat="42.0845326" lon="13.6430166"><ele>1011.0</ele><time>2026-05-02T11:27:25.13Z</time></trkpt><trkpt lat="42.0846279" lon="13.6428269"><ele>1011.0</ele><time>2026-05-02T11:27:26.129Z</time></trkpt><trkpt lat="42.0847112" lon="13.6426692"><ele>1012.0</ele><time>2026-05-02T11:27:27.13Z</time></trkpt><trkpt lat="42.0847844" lon="13.6425183"><ele>1013.0</ele><time>2026-05-02T11:27:28.13Z</time></trkpt><trkpt lat="42.0848389" lon="13.6423755"><ele>1014.0</ele><time>2026-05-02T11:27:29.13Z</time></trkpt><trkpt lat="42.0848742" lon="13.6422373"><ele>1015.0</ele><time>2026-05-02T11:27:30.13Z</time></trkpt><trkpt lat="42.0849023" lon="13.6420875"><ele>1018.5</ele><time>2026-05-02T11:27:31.13Z</time></trkpt><trkpt lat="42.0849302" lon="13.6419119"><ele>1022.0</ele><time>2026-05-02T11:27:32.131Z</time></trkpt><trkpt lat="42.0849639" lon="13.6417151"><ele>1025.5</ele><time>2026-05-02T11:27:33.13Z</time></trkpt><trkpt lat="42.0850101" lon="13.6415038"><ele>1029.0</ele><time>2026-05-02T11:27:34.129Z</time></trkpt><trkpt lat="42.0850732" lon="13.6412891"><ele>1030.75</ele><time>2026-05-02T11:27:35.13Z</time></trkpt><trkpt lat="42.0851313" lon="13.6411023"><ele>1032.5</ele><time>2026-05-02T11:27:36.129Z</time></trkpt><trkpt lat="42.0851769" lon="13.6409298"><ele>1034.25</ele><time>2026-05-02T11:27:37.13Z</time></trkpt><trkpt lat="42.0852144" lon="13.6407714"><ele>1036.0</ele><time>2026-05-02T11:27:38.13Z</time></trkpt><trkpt lat="42.0852311" lon="13.6406271"><ele>1036.0</ele><time>2026-05-02T11:27:39.129Z</time></trkpt><trkpt lat="42.0852339" lon="13.6404884"><ele>1036.0</ele><time>2026-05-02T11:27:40.129Z</time></trkpt><trkpt lat="42.0852194" lon="13.6403585"><ele>1036.0</ele><time>2026-05-02T11:27:41.13Z</time></trkpt><trkpt lat="42.0851884" lon="13.6402263"><ele>1036.0</ele><time>2026-05-02T11:27:42.129Z</time></trkpt><trkpt lat="42.085165" lon="13.6401046"><ele>1036.0</ele><time>2026-05-02T11:27:43.129Z</time></trkpt><trkpt lat="42.085161" lon="13.6399905"><ele>1037.0</ele><time>2026-05-02T11:27:44.13Z</time></trkpt><trkpt lat="42.0851844" lon="13.6398747"><ele>1038.0</ele><time>2026-05-02T11:27:45.13Z</time></trkpt><trkpt lat="42.0852346" lon="13.6397551"><ele>1039.0</ele><time>2026-05-02T11:27:46.13Z</time></trkpt><trkpt lat="42.0853011" lon="13.639611"><ele>1040.0</ele><time>2026-05-02T11:27:47.129Z</time></trkpt><trkpt lat="42.0853478" lon="13.6394826"><ele>1041.0</ele><time>2026-05-02T11:27:48.129Z</time></trkpt><trkpt lat="42.0853759" lon="13.639355"><ele>1042.3999999999999</ele><time>2026-05-02T11:27:49.129Z</time></trkpt><trkpt lat="42.0853816" lon="13.6392418"><ele>1043.8</ele><time>2026-05-02T11:27:50.129Z</time></trkpt><trkpt lat="42.0853665" lon="13.6391292"><ele>1045.1999999999998</ele><time>2026-05-02T11:27:51.13Z</time></trkpt><trkpt lat="42.0853344" lon="13.6390106"><ele>1046.6</ele><time>2026-05-02T11:27:52.131Z</time></trkpt><trkpt lat="42.0852905" lon="13.6388726"><ele>1048.0</ele><time>2026-05-02T11:27:53.13Z</time></trkpt><trkpt lat="42.0852478" lon="13.638706"><ele>1051.0</ele><time>2026-05-02T11:27:54.13Z</time></trkpt><trkpt lat="42.0852135" lon="13.6385197"><ele>1054.0</ele><time>2026-05-02T11:27:55.129Z</time></trkpt><trkpt lat="42.085178" lon="13.6383123"><ele>1057.0</ele><time>2026-05-02T11:27:56.129Z</time></trkpt><trkpt lat="42.085134" lon="13.6381045"><ele>1057.0</ele><time>2026-05-02T11:27:57.129Z</time></trkpt><trkpt lat="42.0850959" lon="13.6379229"><ele>1057.0</ele><time>2026-05-02T11:27:58.13Z</time></trkpt><trkpt lat="42.0850689" lon="13.6377461"><ele>1057.0</ele><time>2026-05-02T11:27:59.129Z</time></trkpt><trkpt lat="42.0850532" lon="13.6375812"><ele>1057.0</ele><time>2026-05-02T11:28:00.13Z</time></trkpt><trkpt lat="42.0850478" lon="13.6373984"><ele>1058.5</ele><time>2026-05-02T11:28:01.129Z</time></trkpt><trkpt lat="42.0850436" lon="13.6372106"><ele>1060.0</ele><time>2026-05-02T11:28:02.129Z</time></trkpt><trkpt lat="42.0850285" lon="13.637036"><ele>1061.5</ele><time>2026-05-02T11:28:03.129Z</time></trkpt><trkpt lat="42.0849904" lon="13.6368765"><ele>1063.0</ele><time>2026-05-02T11:28:04.13Z</time></trkpt><trkpt lat="42.0849273" lon="13.6367254"><ele>1065.6666666666665</ele><time>2026-05-02T11:28:05.13Z</time></trkpt><trkpt lat="42.0848485" lon="13.6365801"><ele>1068.3333333333333</ele><time>2026-05-02T11:28:06.129Z</time></trkpt><trkpt lat="42.0847562" lon="13.6364163"><ele>1071.0</ele><time>2026-05-02T11:28:07.13Z</time></trkpt><trkpt lat="42.0846528" lon="13.6362341"><ele>1072.75</ele><time>2026-05-02T11:28:08.13Z</time></trkpt><trkpt lat="42.0845525" lon="13.6360808"><ele>1074.5</ele><time>2026-05-02T11:28:09.13Z</time></trkpt><trkpt lat="42.0844535" lon="13.6359452"><ele>1076.25</ele><time>2026-05-02T11:28:10.131Z</time></trkpt><trkpt lat="42.0843635" lon="13.6358304"><ele>1078.0</ele><time>2026-05-02T11:28:11.129Z</time></trkpt><trkpt lat="42.0842848" lon="13.6357376"><ele>1078.0</ele><time>2026-05-02T11:28:12.129Z</time></trkpt><trkpt lat="42.0842163" lon="13.6356536"><ele>1078.0</ele><time>2026-05-02T11:28:13.129Z</time></trkpt><trkpt lat="42.0841723" lon="13.6355554"><ele>1078.0</ele><time>2026-05-02T11:28:14.13Z</time></trkpt><trkpt lat="42.0841505" lon="13.6354297"><ele>1078.0</ele><time>2026-05-02T11:28:15.129Z</time></trkpt><trkpt lat="42.0841376" lon="13.6352869"><ele>1078.0</ele><time>2026-05-02T11:28:16.129Z</time></trkpt><trkpt lat="42.0841246" lon="13.6351607"><ele>1079.5</ele><time>2026-05-02T11:28:17.13Z</time></trkpt><trkpt lat="42.0841004" lon="13.6350291"><ele>1081.0</ele><time>2026-05-02T11:28:18.13Z</time></trkpt><trkpt lat="42.0840603" lon="13.6348955"><ele>1082.5</ele><time>2026-05-02T11:28:19.13Z</time></trkpt><trkpt lat="42.0840099" lon="13.6347328"><ele>1084.0</ele><time>2026-05-02T11:28:20.129Z</time></trkpt><trkpt lat="42.0839708" lon="13.6345753"><ele>1083.4</ele><time>2026-05-02T11:28:21.129Z</time></trkpt><trkpt lat="42.083947" lon="13.6344352"><ele>1082.8000000000002</ele><time>2026-05-02T11:28:22.13Z</time></trkpt><trkpt lat="42.0839395" lon="13.6343076"><ele>1082.1999999999998</ele><time>2026-05-02T11:28:23.13Z</time></trkpt><trkpt lat="42.0839478" lon="13.6342101"><ele>1081.6</ele><time>2026-05-02T11:28:24.129Z</time></trkpt><trkpt lat="42.0839731" lon="13.6340712"><ele>1081.0</ele><time>2026-05-02T11:28:26.129Z</time></trkpt><trkpt lat="42.0839801" lon="13.6339594"><ele>1081.0</ele><time>2026-05-02T11:28:28.13Z</time></trkpt><trkpt lat="42.0839587" lon="13.6338257"><ele>1081.0</ele><time>2026-05-02T11:28:30.131Z</time></trkpt><trkpt lat="42.0839038" lon="13.6337224"><ele>1081.0</ele><time>2026-05-02T11:28:32.129Z</time></trkpt><trkpt lat="42.0838033" lon="13.633701"><ele>1081.0</ele><time>2026-05-02T11:28:34.129Z</time></trkpt><trkpt lat="42.0836813" lon="13.6337434"><ele>1081.0</ele><time>2026-05-02T11:28:36.129Z</time></trkpt><trkpt lat="42.0836114" lon="13.6337762"><ele>1080.9999999999998</ele><time>2026-05-02T11:28:37.129Z</time></trkpt><trkpt lat="42.0835447" lon="13.6338038"><ele>1081.0</ele><time>2026-05-02T11:28:38.129Z</time></trkpt><trkpt lat="42.0834794" lon="13.6338119"><ele>1081.0</ele><time>2026-05-02T11:28:39.13Z</time></trkpt><trkpt lat="42.0834099" lon="13.6338099"><ele>1081.0</ele><time>2026-05-02T11:28:40.129Z</time></trkpt><trkpt lat="42.0833416" lon="13.6338054"><ele>1081.0</ele><time>2026-05-02T11:28:41.129Z</time></trkpt><trkpt lat="42.083276" lon="13.6337926"><ele>1080.9999999999998</ele><time>2026-05-02T11:28:42.13Z</time></trkpt><trkpt lat="42.0832129" lon="13.6337674"><ele>1081.0</ele><time>2026-05-02T11:28:43.13Z</time></trkpt><trkpt lat="42.0831562" lon="13.6337267"><ele>1080.5714285714284</ele><time>2026-05-02T11:28:44.129Z</time></trkpt><trkpt lat="42.0831091" lon="13.6336641"><ele>1080.142857142857</ele><time>2026-05-02T11:28:45.129Z</time></trkpt><trkpt lat="42.0830812" lon="13.6335836"><ele>1079.7142857142858</ele><time>2026-05-02T11:28:46.129Z</time></trkpt><trkpt lat="42.0830763" lon="13.6334947"><ele>1079.2857142857142</ele><time>2026-05-02T11:28:47.13Z</time></trkpt><trkpt lat="42.0830802" lon="13.6333926"><ele>1078.857142857143</ele><time>2026-05-02T11:28:48.13Z</time></trkpt><trkpt lat="42.0830779" lon="13.6332959"><ele>1078.4285714285713</ele><time>2026-05-02T11:28:49.13Z</time></trkpt><trkpt lat="42.0830584" lon="13.6332065"><ele>1078.0</ele><time>2026-05-02T11:28:50.129Z</time></trkpt><trkpt lat="42.0830222" lon="13.6331098"><ele>1077.8</ele><time>2026-05-02T11:28:51.13Z</time></trkpt><trkpt lat="42.0829729" lon="13.6330051"><ele>1077.6</ele><time>2026-05-02T11:28:52.129Z</time></trkpt><trkpt lat="42.0829107" lon="13.6328869"><ele>1077.4</ele><time>2026-05-02T11:28:53.129Z</time></trkpt><trkpt lat="42.0828423" lon="13.6327603"><ele>1077.2</ele><time>2026-05-02T11:28:54.129Z</time></trkpt><trkpt lat="42.0827691" lon="13.6326462"><ele>1077.0</ele><time>2026-05-02T11:28:55.129Z</time></trkpt><trkpt lat="42.0826961" lon="13.6325409"><ele>1077.0</ele><time>2026-05-02T11:28:56.131Z</time></trkpt><trkpt lat="42.0826318" lon="13.6324337"><ele>1077.0</ele><time>2026-05-02T11:28:57.129Z</time></trkpt><trkpt lat="42.0825714" lon="13.632325"><ele>1077.0</ele><time>2026-05-02T11:28:58.13Z</time></trkpt><trkpt lat="42.0825119" lon="13.6322124"><ele>1077.0</ele><time>2026-05-02T11:28:59.129Z</time></trkpt><trkpt lat="42.0824491" lon="13.6321015"><ele>1077.0</ele><time>2026-05-02T11:29:00.131Z</time></trkpt><trkpt lat="42.0823826" lon="13.631998"><ele>1077.8</ele><time>2026-05-02T11:29:01.13Z</time></trkpt><trkpt lat="42.082322" lon="13.6319055"><ele>1078.6</ele><time>2026-05-02T11:29:02.13Z</time></trkpt><trkpt lat="42.0822604" lon="13.6318127"><ele>1079.3999999999999</ele><time>2026-05-02T11:29:03.129Z</time></trkpt><trkpt lat="42.0822137" lon="13.6317186"><ele>1080.2</ele><time>2026-05-02T11:29:04.13Z</time></trkpt><trkpt lat="42.0821758" lon="13.6316078"><ele>1081.0</ele><time>2026-05-02T11:29:05.13Z</time></trkpt><trkpt lat="42.0821417" lon="13.6314876"><ele>1081.0</ele><time>2026-05-02T11:29:06.13Z</time></trkpt><trkpt lat="42.0821169" lon="13.6313512"><ele>1081.0</ele><time>2026-05-02T11:29:07.13Z</time></trkpt><trkpt lat="42.0820871" lon="13.6312007"><ele>1081.0</ele><time>2026-05-02T11:29:08.129Z</time></trkpt><trkpt lat="42.0820574" lon="13.6310274"><ele>1081.0</ele><time>2026-05-02T11:29:09.13Z</time></trkpt><trkpt lat="42.0820235" lon="13.6308626"><ele>1083.3999999999999</ele><time>2026-05-02T11:29:10.13Z</time></trkpt><trkpt lat="42.0819899" lon="13.6307124"><ele>1085.8</ele><time>2026-05-02T11:29:11.13Z</time></trkpt><trkpt lat="42.081957" lon="13.6305896"><ele>1088.1999999999998</ele><time>2026-05-02T11:29:12.129Z</time></trkpt><trkpt lat="42.0819182" lon="13.6304828"><ele>1090.6</ele><time>2026-05-02T11:29:13.13Z</time></trkpt><trkpt lat="42.081878" lon="13.6303909"><ele>1093.0</ele><time>2026-05-02T11:29:14.129Z</time></trkpt><trkpt lat="42.0818456" lon="13.6303008"><ele>1094.3333333333333</ele><time>2026-05-02T11:29:15.13Z</time></trkpt><trkpt lat="42.0818231" lon="13.6302101"><ele>1095.6666666666665</ele><time>2026-05-02T11:29:16.13Z</time></trkpt><trkpt lat="42.0818102" lon="13.6301182"><ele>1097.0</ele><time>2026-05-02T11:29:17.13Z</time></trkpt><trkpt lat="42.0818128" lon="13.6300331"><ele>1098.3333333333333</ele><time>2026-05-02T11:29:18.129Z</time></trkpt><trkpt lat="42.0818031" lon="13.6298723"><ele>1099.6666666666667</ele><time>2026-05-02T11:29:20.13Z</time></trkpt><trkpt lat="42.0817811" lon="13.6297841"><ele>1101.0</ele><time>2026-05-02T11:29:21.129Z</time></trkpt><trkpt lat="42.081747" lon="13.6296903"><ele>1101.0</ele><time>2026-05-02T11:29:22.129Z</time></trkpt><trkpt lat="42.0817084" lon="13.6295867"><ele>1101.0</ele><time>2026-05-02T11:29:23.13Z</time></trkpt><trkpt lat="42.0816551" lon="13.6294688"><ele>1101.0</ele><time>2026-05-02T11:29:24.129Z</time></trkpt><trkpt lat="42.081605" lon="13.6293508"><ele>1101.0</ele><time>2026-05-02T11:29:25.13Z</time></trkpt><trkpt lat="42.0815588" lon="13.629243"><ele>1101.0</ele><time>2026-05-02T11:29:26.131Z</time></trkpt><trkpt lat="42.0815147" lon="13.629146"><ele>1101.1666666666667</ele><time>2026-05-02T11:29:27.13Z</time></trkpt><trkpt lat="42.0814671" lon="13.6290534"><ele>1101.3333333333333</ele><time>2026-05-02T11:29:28.13Z</time></trkpt><trkpt lat="42.0814155" lon="13.6289779"><ele>1101.5</ele><time>2026-05-02T11:29:29.129Z</time></trkpt><trkpt lat="42.0813573" lon="13.6289013"><ele>1101.6666666666665</ele><time>2026-05-02T11:29:30.129Z</time></trkpt><trkpt lat="42.0812974" lon="13.6288192"><ele>1101.8333333333333</ele><time>2026-05-02T11:29:31.129Z</time></trkpt><trkpt lat="42.0812368" lon="13.6287257"><ele>1102.0</ele><time>2026-05-02T11:29:32.129Z</time></trkpt><trkpt lat="42.0811701" lon="13.628619"><ele>1102.0</ele><time>2026-05-02T11:29:33.129Z</time></trkpt><trkpt lat="42.0811013" lon="13.6284907"><ele>1102.0</ele><time>2026-05-02T11:29:34.129Z</time></trkpt><trkpt lat="42.0810331" lon="13.6283565"><ele>1102.0</ele><time>2026-05-02T11:29:35.129Z</time></trkpt><trkpt lat="42.0809709" lon="13.6282288"><ele>1102.0</ele><time>2026-05-02T11:29:36.129Z</time></trkpt><trkpt lat="42.0809218" lon="13.6281133"><ele>1102.0</ele><time>2026-05-02T11:29:37.129Z</time></trkpt><trkpt lat="42.0808824" lon="13.6280061"><ele>1102.0</ele><time>2026-05-02T11:29:38.129Z</time></trkpt><trkpt lat="42.0808494" lon="13.627917"><ele>1102.0</ele><time>2026-05-02T11:29:39.129Z</time></trkpt><trkpt lat="42.0808109" lon="13.6278423"><ele>1102.0</ele><time>2026-05-02T11:29:40.13Z</time></trkpt><trkpt lat="42.0807548" lon="13.6277565"><ele>1102.0</ele><time>2026-05-02T11:29:41.129Z</time></trkpt><trkpt lat="42.0806805" lon="13.6276445"><ele>1102.0</ele><time>2026-05-02T11:29:42.129Z</time></trkpt><trkpt lat="42.0806099" lon="13.6275287"><ele>1100.0</ele><time>2026-05-02T11:29:43.131Z</time></trkpt><trkpt lat="42.0805512" lon="13.6274268"><ele>1098.0</ele><time>2026-05-02T11:29:44.131Z</time></trkpt><trkpt lat="42.0804939" lon="13.6273283"><ele>1096.0</ele><time>2026-05-02T11:29:45.129Z</time></trkpt><trkpt lat="42.0804398" lon="13.6272279"><ele>1094.0</ele><time>2026-05-02T11:29:46.131Z</time></trkpt><trkpt lat="42.0803963" lon="13.6271237"><ele>1092.0</ele><time>2026-05-02T11:29:47.129Z</time></trkpt><trkpt lat="42.0803636" lon="13.6270212"><ele>1092.4</ele><time>2026-05-02T11:29:48.131Z</time></trkpt><trkpt lat="42.0803454" lon="13.6269153"><ele>1092.8000000000002</ele><time>2026-05-02T11:29:49.131Z</time></trkpt><trkpt lat="42.0803384" lon="13.6267958"><ele>1093.2</ele><time>2026-05-02T11:29:50.13Z</time></trkpt><trkpt lat="42.0803437" lon="13.6266717"><ele>1093.6000000000001</ele><time>2026-05-02T11:29:51.13Z</time></trkpt><trkpt lat="42.0803624" lon="13.6265466"><ele>1094.0</ele><time>2026-05-02T11:29:52.13Z</time></trkpt><trkpt lat="42.0803953" lon="13.6264058"><ele>1094.0</ele><time>2026-05-02T11:29:53.13Z</time></trkpt><trkpt lat="42.0804304" lon="13.6262625"><ele>1094.0</ele><time>2026-05-02T11:29:54.129Z</time></trkpt><trkpt lat="42.0804524" lon="13.6261359"><ele>1094.0</ele><time>2026-05-02T11:29:55.131Z</time></trkpt><trkpt lat="42.0804552" lon="13.6260243"><ele>1094.0</ele><time>2026-05-02T11:29:56.129Z</time></trkpt><trkpt lat="42.0804402" lon="13.6259066"><ele>1094.0</ele><time>2026-05-02T11:29:57.13Z</time></trkpt><trkpt lat="42.0804115" lon="13.6257608"><ele>1094.5</ele><time>2026-05-02T11:29:58.13Z</time></trkpt><trkpt lat="42.0803852" lon="13.6255956"><ele>1095.0</ele><time>2026-05-02T11:29:59.13Z</time></trkpt><trkpt lat="42.0803705" lon="13.6254218"><ele>1095.5</ele><time>2026-05-02T11:30:00.129Z</time></trkpt><trkpt lat="42.0803645" lon="13.6252267"><ele>1096.0</ele><time>2026-05-02T11:30:01.13Z</time></trkpt><trkpt lat="42.0803588" lon="13.6250031"><ele>1096.75</ele><time>2026-05-02T11:30:02.129Z</time></trkpt><trkpt lat="42.0803561" lon="13.6247894"><ele>1097.5</ele><time>2026-05-02T11:30:03.129Z</time></trkpt><trkpt lat="42.0803613" lon="13.6246178"><ele>1098.25</ele><time>2026-05-02T11:30:04.129Z</time></trkpt><trkpt lat="42.0803772" lon="13.6244767"><ele>1099.0</ele><time>2026-05-02T11:30:05.129Z</time></trkpt><trkpt lat="42.0804054" lon="13.6243467"><ele>1099.0</ele><time>2026-05-02T11:30:06.129Z</time></trkpt><trkpt lat="42.0804413" lon="13.6242186"><ele>1099.0</ele><time>2026-05-02T11:30:07.129Z</time></trkpt><trkpt lat="42.0804666" lon="13.6240889"><ele>1099.0</ele><time>2026-05-02T11:30:08.129Z</time></trkpt><trkpt lat="42.0804606" lon="13.6239549"><ele>1099.0</ele><time>2026-05-02T11:30:09.13Z</time></trkpt><trkpt lat="42.0804385" lon="13.6237885"><ele>1099.0</ele><time>2026-05-02T11:30:10.131Z</time></trkpt><trkpt lat="42.0804141" lon="13.6236034"><ele>1100.0</ele><time>2026-05-02T11:30:11.129Z</time></trkpt><trkpt lat="42.080397" lon="13.623433"><ele>1101.0</ele><time>2026-05-02T11:30:12.129Z</time></trkpt><trkpt lat="42.0803939" lon="13.6232725"><ele>1102.0</ele><time>2026-05-02T11:30:13.129Z</time></trkpt><trkpt lat="42.0804034" lon="13.6231012"><ele>1103.0</ele><time>2026-05-02T11:30:14.129Z</time></trkpt><trkpt lat="42.0804187" lon="13.6229394"><ele>1102.6</ele><time>2026-05-02T11:30:15.129Z</time></trkpt><trkpt lat="42.0804365" lon="13.6227881"><ele>1102.1999999999998</ele><time>2026-05-02T11:30:16.129Z</time></trkpt><trkpt lat="42.0804584" lon="13.6226349"><ele>1101.8</ele><time>2026-05-02T11:30:17.13Z</time></trkpt><trkpt lat="42.0804737" lon="13.622505"><ele>1101.3999999999999</ele><time>2026-05-02T11:30:18.129Z</time></trkpt><trkpt lat="42.0804905" lon="13.6223975"><ele>1101.0</ele><time>2026-05-02T11:30:19.129Z</time></trkpt><trkpt lat="42.0805197" lon="13.6223016"><ele>1101.0</ele><time>2026-05-02T11:30:20.129Z</time></trkpt><trkpt lat="42.0805682" lon="13.6221896"><ele>1101.0</ele><time>2026-05-02T11:30:21.129Z</time></trkpt><trkpt lat="42.0806338" lon="13.6220513"><ele>1101.0</ele><time>2026-05-02T11:30:22.129Z</time></trkpt><trkpt lat="42.0807081" lon="13.6219206"><ele>1101.0</ele><time>2026-05-02T11:30:23.13Z</time></trkpt><trkpt lat="42.0807831" lon="13.6218138"><ele>1101.0</ele><time>2026-05-02T11:30:24.13Z</time></trkpt><trkpt lat="42.0808574" lon="13.621726"><ele>1104.0</ele><time>2026-05-02T11:30:25.13Z</time></trkpt><trkpt lat="42.0809146" lon="13.6216403"><ele>1107.0</ele><time>2026-05-02T11:30:26.129Z</time></trkpt><trkpt lat="42.0809573" lon="13.6215214"><ele>1110.0</ele><time>2026-05-02T11:30:27.129Z</time></trkpt><trkpt lat="42.0810035" lon="13.6213632"><ele>1113.0</ele><time>2026-05-02T11:30:28.129Z</time></trkpt><trkpt lat="42.081067" lon="13.6211953"><ele>1112.0</ele><time>2026-05-02T11:30:29.13Z</time></trkpt><trkpt lat="42.0811334" lon="13.6210326"><ele>1111.0</ele><time>2026-05-02T11:30:30.129Z</time></trkpt><trkpt lat="42.0811851" lon="13.6208829"><ele>1110.0</ele><time>2026-05-02T11:30:31.13Z</time></trkpt><trkpt lat="42.0812254" lon="13.6207395"><ele>1109.0</ele><time>2026-05-02T11:30:32.129Z</time></trkpt><trkpt lat="42.0812584" lon="13.62059"><ele>1109.0</ele><time>2026-05-02T11:30:33.13Z</time></trkpt><trkpt lat="42.0812898" lon="13.6204401"><ele>1109.0</ele><time>2026-05-02T11:30:34.129Z</time></trkpt><trkpt lat="42.0813252" lon="13.6203003"><ele>1109.0</ele><time>2026-05-02T11:30:35.13Z</time></trkpt><trkpt lat="42.0813642" lon="13.6201644"><ele>1109.0</ele><time>2026-05-02T11:30:36.129Z</time></trkpt><trkpt lat="42.0814076" lon="13.6200164"><ele>1107.25</ele><time>2026-05-02T11:30:37.129Z</time></trkpt><trkpt lat="42.0814468" lon="13.6198585"><ele>1105.5</ele><time>2026-05-02T11:30:38.13Z</time></trkpt><trkpt lat="42.0814814" lon="13.619708"><ele>1103.75</ele><time>2026-05-02T11:30:39.13Z</time></trkpt><trkpt lat="42.0815191" lon="13.6195624"><ele>1102.0</ele><time>2026-05-02T11:30:40.131Z</time></trkpt><trkpt lat="42.0815607" lon="13.619415"><ele>1103.75</ele><time>2026-05-02T11:30:41.129Z</time></trkpt><trkpt lat="42.0816075" lon="13.6192702"><ele>1105.5</ele><time>2026-05-02T11:30:42.129Z</time></trkpt><trkpt lat="42.0816462" lon="13.6191215"><ele>1107.25</ele><time>2026-05-02T11:30:43.13Z</time></trkpt><trkpt lat="42.0816902" lon="13.6189749"><ele>1109.0</ele><time>2026-05-02T11:30:44.13Z</time></trkpt><trkpt lat="42.0817409" lon="13.6188278"><ele>1109.0</ele><time>2026-05-02T11:30:45.13Z</time></trkpt><trkpt lat="42.0817891" lon="13.6186747"><ele>1109.0</ele><time>2026-05-02T11:30:46.129Z</time></trkpt><trkpt lat="42.0818333" lon="13.6185259"><ele>1109.0</ele><time>2026-05-02T11:30:47.13Z</time></trkpt><trkpt lat="42.0818818" lon="13.6183758"><ele>1109.0</ele><time>2026-05-02T11:30:48.13Z</time></trkpt><trkpt lat="42.0819335" lon="13.6182204"><ele>1106.25</ele><time>2026-05-02T11:30:49.129Z</time></trkpt><trkpt lat="42.0819826" lon="13.6180586"><ele>1103.5</ele><time>2026-05-02T11:30:50.13Z</time></trkpt><trkpt lat="42.0820262" lon="13.617899"><ele>1100.75</ele><time>2026-05-02T11:30:51.129Z</time></trkpt><trkpt lat="42.0820671" lon="13.6177377"><ele>1098.0</ele><time>2026-05-02T11:30:52.129Z</time></trkpt><trkpt lat="42.0821033" lon="13.6175746"><ele>1095.25</ele><time>2026-05-02T11:30:53.13Z</time></trkpt><trkpt lat="42.0821321" lon="13.6174147"><ele>1092.5</ele><time>2026-05-02T11:30:54.129Z</time></trkpt><trkpt lat="42.082161" lon="13.6172598"><ele>1089.75</ele><time>2026-05-02T11:30:55.13Z</time></trkpt><trkpt lat="42.0821895" lon="13.6171059"><ele>1087.0</ele><time>2026-05-02T11:30:56.131Z</time></trkpt><trkpt lat="42.0822196" lon="13.6169651"><ele>1085.6</ele><time>2026-05-02T11:30:57.13Z</time></trkpt><trkpt lat="42.0822426" lon="13.6168415"><ele>1084.2</ele><time>2026-05-02T11:30:58.13Z</time></trkpt><trkpt lat="42.0822448" lon="13.6167263"><ele>1082.8</ele><time>2026-05-02T11:30:59.129Z</time></trkpt><trkpt lat="42.0822385" lon="13.6165943"><ele>1081.4</ele><time>2026-05-02T11:31:00.129Z</time></trkpt><trkpt lat="42.0822313" lon="13.6164446"><ele>1080.0</ele><time>2026-05-02T11:31:01.13Z</time></trkpt><trkpt lat="42.0822292" lon="13.6162848"><ele>1078.0</ele><time>2026-05-02T11:31:02.129Z</time></trkpt><trkpt lat="42.0822238" lon="13.6161155"><ele>1076.0</ele><time>2026-05-02T11:31:03.13Z</time></trkpt><trkpt lat="42.0822215" lon="13.6159469"><ele>1074.0</ele><time>2026-05-02T11:31:04.129Z</time></trkpt><trkpt lat="42.0822226" lon="13.615782"><ele>1072.0</ele><time>2026-05-02T11:31:05.13Z</time></trkpt><trkpt lat="42.0822222" lon="13.6156186"><ele>1072.0</ele><time>2026-05-02T11:31:06.129Z</time></trkpt><trkpt lat="42.0822163" lon="13.6154546"><ele>1072.0</ele><time>2026-05-02T11:31:07.13Z</time></trkpt><trkpt lat="42.0822053" lon="13.6152887"><ele>1072.0</ele><time>2026-05-02T11:31:08.13Z</time></trkpt><trkpt lat="42.0822002" lon="13.6151245"><ele>1072.0</ele><time>2026-05-02T11:31:09.129Z</time></trkpt><trkpt lat="42.0821935" lon="13.6149562"><ele>1070.5</ele><time>2026-05-02T11:31:10.129Z</time></trkpt><trkpt lat="42.0821865" lon="13.614777"><ele>1069.0</ele><time>2026-05-02T11:31:11.129Z</time></trkpt><trkpt lat="42.0821844" lon="13.6146013"><ele>1067.5</ele><time>2026-05-02T11:31:12.129Z</time></trkpt><trkpt lat="42.0821772" lon="13.6144291"><ele>1066.0</ele><time>2026-05-02T11:31:13.131Z</time></trkpt><trkpt lat="42.0821648" lon="13.6142631"><ele>1064.25</ele><time>2026-05-02T11:31:14.13Z</time></trkpt><trkpt lat="42.0821592" lon="13.6140997"><ele>1062.5</ele><time>2026-05-02T11:31:15.131Z</time></trkpt><trkpt lat="42.0821521" lon="13.6139325"><ele>1060.75</ele><time>2026-05-02T11:31:16.129Z</time></trkpt><trkpt lat="42.082142" lon="13.6137596"><ele>1059.0</ele><time>2026-05-02T11:31:17.131Z</time></trkpt><trkpt lat="42.0821276" lon="13.6135915"><ele>1057.75</ele><time>2026-05-02T11:31:18.129Z</time></trkpt><trkpt lat="42.0821152" lon="13.6134213"><ele>1056.5</ele><time>2026-05-02T11:31:19.129Z</time></trkpt><trkpt lat="42.0821121" lon="13.613249"><ele>1055.25</ele><time>2026-05-02T11:31:20.13Z</time></trkpt><trkpt lat="42.0821049" lon="13.6130747"><ele>1054.0</ele><time>2026-05-02T11:31:21.13Z</time></trkpt><trkpt lat="42.0820964" lon="13.6129024"><ele>1052.75</ele><time>2026-05-02T11:31:22.129Z</time></trkpt><trkpt lat="42.082092" lon="13.6127321"><ele>1051.5</ele><time>2026-05-02T11:31:23.13Z</time></trkpt><trkpt lat="42.08209" lon="13.6125766"><ele>1050.25</ele><time>2026-05-02T11:31:24.13Z</time></trkpt><trkpt lat="42.0820786" lon="13.6124262"><ele>1049.0</ele><time>2026-05-02T11:31:25.129Z</time></trkpt><trkpt lat="42.0820624" lon="13.6122749"><ele>1049.0</ele><time>2026-05-02T11:31:26.13Z</time></trkpt><trkpt lat="42.08205" lon="13.6121154"><ele>1049.0</ele><time>2026-05-02T11:31:27.13Z</time></trkpt><trkpt lat="42.0820416" lon="13.6119672"><ele>1049.0</ele><time>2026-05-02T11:31:28.13Z</time></trkpt><trkpt lat="42.082035" lon="13.6118019"><ele>1049.0</ele><time>2026-05-02T11:31:29.129Z</time></trkpt><trkpt lat="42.0820262" lon="13.611639"><ele>1047.6000000000001</ele><time>2026-05-02T11:31:30.13Z</time></trkpt><trkpt lat="42.0820209" lon="13.6114786"><ele>1046.2</ele><time>2026-05-02T11:31:31.129Z</time></trkpt><trkpt lat="42.0820189" lon="13.6113256"><ele>1044.8000000000002</ele><time>2026-05-02T11:31:32.13Z</time></trkpt><trkpt lat="42.0820203" lon="13.6111816"><ele>1043.4</ele><time>2026-05-02T11:31:33.131Z</time></trkpt><trkpt lat="42.0820301" lon="13.6110482"><ele>1042.0</ele><time>2026-05-02T11:31:34.129Z</time></trkpt><trkpt lat="42.0820485" lon="13.6109249"><ele>1039.8</ele><time>2026-05-02T11:31:35.13Z</time></trkpt><trkpt lat="42.0820673" lon="13.6108199"><ele>1037.6</ele><time>2026-05-02T11:31:36.13Z</time></trkpt><trkpt lat="42.0820923" lon="13.6107317"><ele>1035.3999999999999</ele><time>2026-05-02T11:31:37.129Z</time></trkpt><trkpt lat="42.0821277" lon="13.6106473"><ele>1033.2</ele><time>2026-05-02T11:31:38.129Z</time></trkpt><trkpt lat="42.0822104" lon="13.6105342"><ele>1031.0</ele><time>2026-05-02T11:31:40.13Z</time></trkpt><trkpt lat="42.0823236" lon="13.6104686"><ele>1031.0</ele><time>2026-05-02T11:31:42.13Z</time></trkpt><trkpt lat="42.082401" lon="13.610454"><ele>1031.0</ele><time>2026-05-02T11:31:43.13Z</time></trkpt><trkpt lat="42.0824956" lon="13.6104472"><ele>1031.0</ele><time>2026-05-02T11:31:44.131Z</time></trkpt><trkpt lat="42.0825747" lon="13.6104413"><ele>1031.0</ele><time>2026-05-02T11:31:45.129Z</time></trkpt><trkpt lat="42.082691" lon="13.6104059"><ele>1031.0</ele><time>2026-05-02T11:31:47.129Z</time></trkpt><trkpt lat="42.0827682" lon="13.610347"><ele>1031.8</ele><time>2026-05-02T11:31:49.129Z</time></trkpt><trkpt lat="42.0828175" lon="13.6102626"><ele>1032.6</ele><time>2026-05-02T11:31:51.13Z</time></trkpt><trkpt lat="42.082807" lon="13.6101651"><ele>1033.4</ele><time>2026-05-02T11:31:54.13Z</time></trkpt><trkpt lat="42.0827412" lon="13.6101493"><ele>1034.2</ele><time>2026-05-02T11:31:56.129Z</time></trkpt><trkpt lat="42.0826353" lon="13.6101003"><ele>1035.0</ele><time>2026-05-02T11:31:58.13Z</time></trkpt><trkpt lat="42.0825092" lon="13.6100759"><ele>1035.0</ele><time>2026-05-02T11:32:00.129Z</time></trkpt><trkpt lat="42.0824409" lon="13.610053"><ele>1035.0</ele><time>2026-05-02T11:32:01.129Z</time></trkpt><trkpt lat="42.0823667" lon="13.6100341"><ele>1035.0</ele><time>2026-05-02T11:32:02.129Z</time></trkpt><trkpt lat="42.082284" lon="13.6100206"><ele>1035.0</ele><time>2026-05-02T11:32:03.13Z</time></trkpt><trkpt lat="42.0821914" lon="13.6100063"><ele>1035.0</ele><time>2026-05-02T11:32:04.13Z</time></trkpt><trkpt lat="42.0821079" lon="13.6099941"><ele>1035.0</ele><time>2026-05-02T11:32:05.129Z</time></trkpt><trkpt lat="42.0820199" lon="13.6099954"><ele>1032.6666666666667</ele><time>2026-05-02T11:32:06.13Z</time></trkpt><trkpt lat="42.0819301" lon="13.610011"><ele>1030.3333333333333</ele><time>2026-05-02T11:32:07.129Z</time></trkpt><trkpt lat="42.0818411" lon="13.6100166"><ele>1028.0</ele><time>2026-05-02T11:32:08.129Z</time></trkpt><trkpt lat="42.0817649" lon="13.6100136"><ele>1025.6666666666665</ele><time>2026-05-02T11:32:09.13Z</time></trkpt><trkpt lat="42.0816921" lon="13.6100125"><ele>1023.3333333333333</ele><time>2026-05-02T11:32:10.13Z</time></trkpt><trkpt lat="42.0816233" lon="13.6100233"><ele>1021.0</ele><time>2026-05-02T11:32:11.13Z</time></trkpt><trkpt lat="42.0815521" lon="13.6100496"><ele>1018.9999999999999</ele><time>2026-05-02T11:32:12.131Z</time></trkpt><trkpt lat="42.0814706" lon="13.6100839"><ele>1017.0</ele><time>2026-05-02T11:32:13.129Z</time></trkpt><trkpt lat="42.0813911" lon="13.6101383"><ele>1015.0</ele><time>2026-05-02T11:32:14.129Z</time></trkpt><trkpt lat="42.0813136" lon="13.6101953"><ele>1013.0</ele><time>2026-05-02T11:32:15.129Z</time></trkpt><trkpt lat="42.0812408" lon="13.6102485"><ele>1010.9999999999999</ele><time>2026-05-02T11:32:16.13Z</time></trkpt><trkpt lat="42.0811797" lon="13.6102769"><ele>1009.0</ele><time>2026-05-02T11:32:17.13Z</time></trkpt><trkpt lat="42.08105" lon="13.6102781"><ele>1009.0</ele><time>2026-05-02T11:32:19.129Z</time></trkpt><trkpt lat="42.0809849" lon="13.6102537"><ele>1009.0</ele><time>2026-05-02T11:32:20.129Z</time></trkpt><trkpt lat="42.0809172" lon="13.6102238"><ele>1009.0</ele><time>2026-05-02T11:32:21.13Z</time></trkpt><trkpt lat="42.0808468" lon="13.6102149"><ele>1009.0</ele><time>2026-05-02T11:32:22.131Z</time></trkpt><trkpt lat="42.0807737" lon="13.6102181"><ele>1009.0</ele><time>2026-05-02T11:32:23.129Z</time></trkpt><trkpt lat="42.080699" lon="13.6102252"><ele>1009.0</ele><time>2026-05-02T11:32:24.13Z</time></trkpt><trkpt lat="42.0806243" lon="13.6102428"><ele>1009.0</ele><time>2026-05-02T11:32:25.129Z</time></trkpt><trkpt lat="42.0805462" lon="13.6102579"><ele>1007.3333333333333</ele><time>2026-05-02T11:32:26.129Z</time></trkpt><trkpt lat="42.0804689" lon="13.610282"><ele>1005.6666666666666</ele><time>2026-05-02T11:32:27.129Z</time></trkpt><trkpt lat="42.0803892" lon="13.6103047"><ele>1004.0</ele><time>2026-05-02T11:32:28.13Z</time></trkpt><trkpt lat="42.0803077" lon="13.6103264"><ele>1002.3333333333333</ele><time>2026-05-02T11:32:29.129Z</time></trkpt><trkpt lat="42.0802265" lon="13.6103361"><ele>1000.6666666666666</ele><time>2026-05-02T11:32:30.13Z</time></trkpt><trkpt lat="42.0801455" lon="13.6103292"><ele>999.0</ele><time>2026-05-02T11:32:31.13Z</time></trkpt><trkpt lat="42.0800602" lon="13.6103266"><ele>999.0</ele><time>2026-05-02T11:32:32.129Z</time></trkpt><trkpt lat="42.079961" lon="13.6103465"><ele>999.0</ele><time>2026-05-02T11:32:33.13Z</time></trkpt><trkpt lat="42.0798618" lon="13.6103706"><ele>999.0</ele><time>2026-05-02T11:32:34.129Z</time></trkpt><trkpt lat="42.0797707" lon="13.6103979"><ele>999.0</ele><time>2026-05-02T11:32:35.129Z</time></trkpt><trkpt lat="42.0796907" lon="13.6104182"><ele>999.0</ele><time>2026-05-02T11:32:36.129Z</time></trkpt><trkpt lat="42.0796198" lon="13.6104246"><ele>999.0</ele><time>2026-05-02T11:32:37.129Z</time></trkpt><trkpt lat="42.0795488" lon="13.6104176"><ele>996.8333333333334</ele><time>2026-05-02T11:32:38.13Z</time></trkpt><trkpt lat="42.0794762" lon="13.6103913"><ele>994.6666666666667</ele><time>2026-05-02T11:32:39.13Z</time></trkpt><trkpt lat="42.0793984" lon="13.6103535"><ele>992.5</ele><time>2026-05-02T11:32:40.129Z</time></trkpt><trkpt lat="42.0793066" lon="13.6103175"><ele>990.3333333333334</ele><time>2026-05-02T11:32:41.129Z</time></trkpt><trkpt lat="42.0792121" lon="13.6102834"><ele>988.1666666666667</ele><time>2026-05-02T11:32:42.129Z</time></trkpt><trkpt lat="42.0791236" lon="13.6102571"><ele>986.0</ele><time>2026-05-02T11:32:43.131Z</time></trkpt><trkpt lat="42.0790411" lon="13.6102381"><ele>983.0</ele><time>2026-05-02T11:32:44.13Z</time></trkpt><trkpt lat="42.0789649" lon="13.6102332"><ele>979.9999999999999</ele><time>2026-05-02T11:32:45.129Z</time></trkpt><trkpt lat="42.078876" lon="13.6102422"><ele>976.9999999999999</ele><time>2026-05-02T11:32:46.13Z</time></trkpt><trkpt lat="42.0787749" lon="13.6102574"><ele>974.0</ele><time>2026-05-02T11:32:47.129Z</time></trkpt><trkpt lat="42.0786751" lon="13.6102581"><ele>971.0</ele><time>2026-05-02T11:32:48.13Z</time></trkpt><trkpt lat="42.078575" lon="13.6102437"><ele>971.0</ele><time>2026-05-02T11:32:49.129Z</time></trkpt><trkpt lat="42.0784741" lon="13.610235"><ele>970.9999999999999</ele><time>2026-05-02T11:32:50.129Z</time></trkpt><trkpt lat="42.078372" lon="13.6102258"><ele>970.9999999999999</ele><time>2026-05-02T11:32:51.129Z</time></trkpt><trkpt lat="42.0782805" lon="13.6102338"><ele>971.0</ele><time>2026-05-02T11:32:52.129Z</time></trkpt><trkpt lat="42.0781934" lon="13.6102553"><ele>971.0</ele><time>2026-05-02T11:32:53.13Z</time></trkpt><trkpt lat="42.078109" lon="13.6102844"><ele>969.1666666666667</ele><time>2026-05-02T11:32:54.131Z</time></trkpt><trkpt lat="42.0780251" lon="13.6102924"><ele>967.3333333333334</ele><time>2026-05-02T11:32:55.129Z</time></trkpt><trkpt lat="42.0779368" lon="13.6102912"><ele>965.5</ele><time>2026-05-02T11:32:56.129Z</time></trkpt><trkpt lat="42.0778487" lon="13.6102835"><ele>963.6666666666667</ele><time>2026-05-02T11:32:57.13Z</time></trkpt><trkpt lat="42.0777672" lon="13.6102734"><ele>961.8333333333334</ele><time>2026-05-02T11:32:58.13Z</time></trkpt><trkpt lat="42.0776938" lon="13.6102786"><ele>960.0</ele><time>2026-05-02T11:32:59.129Z</time></trkpt><trkpt lat="42.0776218" lon="13.6103001"><ele>960.0</ele><time>2026-05-02T11:33:00.13Z</time></trkpt><trkpt lat="42.0775506" lon="13.6103178"><ele>960.0</ele><time>2026-05-02T11:33:01.129Z</time></trkpt><trkpt lat="42.0774738" lon="13.6103186"><ele>960.0</ele><time>2026-05-02T11:33:02.129Z</time></trkpt><trkpt lat="42.0773922" lon="13.6103264"><ele>960.0</ele><time>2026-05-02T11:33:03.129Z</time></trkpt><trkpt lat="42.0773133" lon="13.6103447"><ele>960.0</ele><time>2026-05-02T11:33:04.129Z</time></trkpt><trkpt lat="42.0772336" lon="13.6103746"><ele>960.0</ele><time>2026-05-02T11:33:05.129Z</time></trkpt><trkpt lat="42.0771529" lon="13.610405"><ele>957.4</ele><time>2026-05-02T11:33:06.129Z</time></trkpt><trkpt lat="42.0770752" lon="13.6104138"><ele>954.8</ele><time>2026-05-02T11:33:07.13Z</time></trkpt><trkpt lat="42.0769987" lon="13.6104002"><ele>952.2</ele><time>2026-05-02T11:33:08.13Z</time></trkpt><trkpt lat="42.0768996" lon="13.610389"><ele>949.6</ele><time>2026-05-02T11:33:09.131Z</time></trkpt><trkpt lat="42.0767837" lon="13.6103852"><ele>947.0</ele><time>2026-05-02T11:33:10.131Z</time></trkpt><trkpt lat="42.0766734" lon="13.6103902"><ele>943.8</ele><time>2026-05-02T11:33:11.13Z</time></trkpt><trkpt lat="42.0765668" lon="13.6103863"><ele>940.6</ele><time>2026-05-02T11:33:12.129Z</time></trkpt><trkpt lat="42.076466" lon="13.6103939"><ele>937.3999999999999</ele><time>2026-05-02T11:33:13.13Z</time></trkpt><trkpt lat="42.0763752" lon="13.6104184"><ele>934.1999999999999</ele><time>2026-05-02T11:33:14.129Z</time></trkpt><trkpt lat="42.076295" lon="13.6104236"><ele>931.0</ele><time>2026-05-02T11:33:15.129Z</time></trkpt><trkpt lat="42.0762235" lon="13.6104413"><ele>930.9999999999999</ele><time>2026-05-02T11:33:16.129Z</time></trkpt><trkpt lat="42.0761647" lon="13.6104813"><ele>931.0</ele><time>2026-05-02T11:33:17.129Z</time></trkpt><trkpt lat="42.0760657" lon="13.6105849"><ele>931.0</ele><time>2026-05-02T11:33:19.13Z</time></trkpt><trkpt lat="42.0760137" lon="13.610647"><ele>931.0</ele><time>2026-05-02T11:33:20.13Z</time></trkpt><trkpt lat="42.0759533" lon="13.6107024"><ele>930.9999999999999</ele><time>2026-05-02T11:33:21.129Z</time></trkpt><trkpt lat="42.0758547" lon="13.6107784"><ele>931.0</ele><time>2026-05-02T11:33:23.13Z</time></trkpt><trkpt lat="42.0758005" lon="13.6108303"><ele>931.0</ele><time>2026-05-02T11:33:25.129Z</time></trkpt><trkpt lat="42.0757459" lon="13.6108884"><ele>919.0</ele><time>2026-05-02T11:33:29.13Z</time></trkpt><trkpt lat="42.0756701" lon="13.6108875"><ele>919.0</ele><time>2026-05-02T11:33:35.13Z</time></trkpt></trkseg><trkseg><trkpt lat="42.0755913" lon="13.6107883"><ele>919.0</ele><time>2026-05-02T12:09:57.128Z</time></trkpt><trkpt lat="42.0755502" lon="13.6107228"><ele>918.9999999999999</ele><time>2026-05-02T12:10:02.12Z</time></trkpt><trkpt lat="42.0754967" lon="13.6106781"><ele>919.0</ele><time>2026-05-02T12:10:38.129Z</time></trkpt><trkpt lat="42.0754389" lon="13.6106168"><ele>919.0</ele><time>2026-05-02T12:10:41.129Z</time></trkpt><trkpt lat="42.0753714" lon="13.6105394"><ele>918.9999999999999</ele><time>2026-05-02T12:10:44.129Z</time></trkpt><trkpt lat="42.075413" lon="13.6106251"><ele>919.0</ele><time>2026-05-02T12:10:51.129Z</time></trkpt><trkpt lat="42.0754901" lon="13.6106559"><ele>919.0</ele><time>2026-05-02T12:10:54.129Z</time></trkpt><trkpt lat="42.0755442" lon="13.6107254"><ele>919.0</ele><time>2026-05-02T12:10:57.129Z</time></trkpt><trkpt lat="42.0756046" lon="13.6107776"><ele>918.9999999999999</ele><time>2026-05-02T12:11:00.129Z</time></trkpt><trkpt lat="42.0756614" lon="13.6108358"><ele>919.0</ele><time>2026-05-02T12:11:03.128Z</time></trkpt><trkpt lat="42.0756621" lon="13.6109334"><ele>919.0</ele><time>2026-05-02T12:11:08.128Z</time></trkpt><trkpt lat="42.0756064" lon="13.6109776"><ele>918.9999999999999</ele><time>2026-05-02T12:11:10.129Z</time></trkpt><trkpt lat="42.0755431" lon="13.6110093"><ele>919.0</ele><time>2026-05-02T12:11:12.129Z</time></trkpt><trkpt lat="42.0754827" lon="13.6110393"><ele>919.0</ele><time>2026-05-02T12:11:14.129Z</time></trkpt><trkpt lat="42.0753998" lon="13.6110826"><ele>918.9999999999999</ele><time>2026-05-02T12:11:17.128Z</time></trkpt><trkpt lat="42.0753236" lon="13.6111488"><ele>919.0</ele><time>2026-05-02T12:11:20.128Z</time></trkpt><trkpt lat="42.0752577" lon="13.6112266"><ele>919.0</ele><time>2026-05-02T12:11:23.128Z</time></trkpt><trkpt lat="42.0752012" lon="13.6112649"><ele>919.0</ele><time>2026-05-02T12:11:25.128Z</time></trkpt><trkpt lat="42.0751378" lon="13.6113029"><ele>918.9999999999999</ele><time>2026-05-02T12:11:27.129Z</time></trkpt><trkpt lat="42.0750478" lon="13.6113206"><ele>919.0</ele><time>2026-05-02T12:11:29.129Z</time></trkpt><trkpt lat="42.0749464" lon="13.6113163"><ele>917.2</ele><time>2026-05-02T12:11:31.128Z</time></trkpt><trkpt lat="42.0748782" lon="13.6113091"><ele>915.4000000000001</ele><time>2026-05-02T12:11:32.128Z</time></trkpt><trkpt lat="42.0747973" lon="13.6112943"><ele>913.6</ele><time>2026-05-02T12:11:33.128Z</time></trkpt><trkpt lat="42.0747081" lon="13.6112693"><ele>911.8</ele><time>2026-05-02T12:11:34.128Z</time></trkpt><trkpt lat="42.0746069" lon="13.6112279"><ele>910.0</ele><time>2026-05-02T12:11:35.129Z</time></trkpt><trkpt lat="42.0744995" lon="13.6111751"><ele>909.75</ele><time>2026-05-02T12:11:36.128Z</time></trkpt><trkpt lat="42.074389" lon="13.6111222"><ele>909.5</ele><time>2026-05-02T12:11:37.128Z</time></trkpt><trkpt lat="42.0742777" lon="13.6110668"><ele>909.25</ele><time>2026-05-02T12:11:38.129Z</time></trkpt><trkpt lat="42.0741736" lon="13.6110089"><ele>909.0</ele><time>2026-05-02T12:11:39.129Z</time></trkpt><trkpt lat="42.0740747" lon="13.6109465"><ele>907.6</ele><time>2026-05-02T12:11:40.129Z</time></trkpt><trkpt lat="42.0739785" lon="13.6108802"><ele>906.2</ele><time>2026-05-02T12:11:41.128Z</time></trkpt><trkpt lat="42.0738874" lon="13.6108162"><ele>904.8000000000001</ele><time>2026-05-02T12:11:42.129Z</time></trkpt><trkpt lat="42.0738055" lon="13.6107534"><ele>903.4000000000001</ele><time>2026-05-02T12:11:43.128Z</time></trkpt><trkpt lat="42.073726" lon="13.6106948"><ele>902.0</ele><time>2026-05-02T12:11:44.128Z</time></trkpt><trkpt lat="42.0736464" lon="13.6106349"><ele>902.0</ele><time>2026-05-02T12:11:45.129Z</time></trkpt><trkpt lat="42.0735634" lon="13.6105635"><ele>902.0</ele><time>2026-05-02T12:11:46.128Z</time></trkpt><trkpt lat="42.0734886" lon="13.6104871"><ele>902.0</ele><time>2026-05-02T12:11:47.128Z</time></trkpt><trkpt lat="42.0734087" lon="13.6103996"><ele>902.0</ele><time>2026-05-02T12:11:48.128Z</time></trkpt><trkpt lat="42.0733189" lon="13.610307"><ele>902.0</ele><time>2026-05-02T12:11:49.129Z</time></trkpt><trkpt lat="42.073221" lon="13.6102033"><ele>899.25</ele><time>2026-05-02T12:11:50.129Z</time></trkpt><trkpt lat="42.0731236" lon="13.6100984"><ele>896.5</ele><time>2026-05-02T12:11:51.129Z</time></trkpt><trkpt lat="42.07303" lon="13.6099896"><ele>893.75</ele><time>2026-05-02T12:11:52.128Z</time></trkpt><trkpt lat="42.0729406" lon="13.609881"><ele>891.0</ele><time>2026-05-02T12:11:53.129Z</time></trkpt><trkpt lat="42.072849" lon="13.6097721"><ele>891.0</ele><time>2026-05-02T12:11:54.13Z</time></trkpt><trkpt lat="42.0727517" lon="13.6096558"><ele>891.0</ele><time>2026-05-02T12:11:55.129Z</time></trkpt><trkpt lat="42.0726586" lon="13.6095464"><ele>891.0</ele><time>2026-05-02T12:11:56.129Z</time></trkpt><trkpt lat="42.0725733" lon="13.6094427"><ele>891.0</ele><time>2026-05-02T12:11:57.128Z</time></trkpt><trkpt lat="42.0724916" lon="13.6093443"><ele>889.3333333333334</ele><time>2026-05-02T12:11:58.129Z</time></trkpt><trkpt lat="42.0724161" lon="13.6092588"><ele>887.6666666666667</ele><time>2026-05-02T12:11:59.13Z</time></trkpt><trkpt lat="42.0723489" lon="13.6091835"><ele>886.0</ele><time>2026-05-02T12:12:00.128Z</time></trkpt><trkpt lat="42.0722912" lon="13.6091125"><ele>884.3333333333334</ele><time>2026-05-02T12:12:01.128Z</time></trkpt><trkpt lat="42.072248" lon="13.6090357"><ele>882.6666666666667</ele><time>2026-05-02T12:12:02.128Z</time></trkpt><trkpt lat="42.0722164" lon="13.6089477"><ele>881.0</ele><time>2026-05-02T12:12:03.129Z</time></trkpt><trkpt lat="42.0721981" lon="13.6088456"><ele>881.0</ele><time>2026-05-02T12:12:04.129Z</time></trkpt><trkpt lat="42.0721831" lon="13.6087293"><ele>880.9999999999999</ele><time>2026-05-02T12:12:05.129Z</time></trkpt><trkpt lat="42.0721606" lon="13.6085929"><ele>880.9999999999999</ele><time>2026-05-02T12:12:06.129Z</time></trkpt><trkpt lat="42.0721372" lon="13.6084366"><ele>881.0</ele><time>2026-05-02T12:12:07.128Z</time></trkpt><trkpt lat="42.0721143" lon="13.6082759"><ele>881.0</ele><time>2026-05-02T12:12:08.128Z</time></trkpt><trkpt lat="42.072094" lon="13.6081188"><ele>880.4</ele><time>2026-05-02T12:12:09.128Z</time></trkpt><trkpt lat="42.0720857" lon="13.6079652"><ele>879.8</ele><time>2026-05-02T12:12:10.129Z</time></trkpt><trkpt lat="42.0720804" lon="13.607816"><ele>879.1999999999999</ele><time>2026-05-02T12:12:11.128Z</time></trkpt><trkpt lat="42.0720811" lon="13.6076682"><ele>878.5999999999999</ele><time>2026-05-02T12:12:12.128Z</time></trkpt><trkpt lat="42.0720822" lon="13.6075335"><ele>878.0</ele><time>2026-05-02T12:12:13.128Z</time></trkpt><trkpt lat="42.0720831" lon="13.6074066"><ele>877.0000000000001</ele><time>2026-05-02T12:12:14.129Z</time></trkpt><trkpt lat="42.0720782" lon="13.6072809"><ele>876.0</ele><time>2026-05-02T12:12:15.128Z</time></trkpt><trkpt lat="42.0720733" lon="13.6071599"><ele>875.0</ele><time>2026-05-02T12:12:16.128Z</time></trkpt><trkpt lat="42.0720632" lon="13.6070467"><ele>874.0</ele><time>2026-05-02T12:12:17.128Z</time></trkpt><trkpt lat="42.0720463" lon="13.6069444"><ele>873.0000000000001</ele><time>2026-05-02T12:12:18.128Z</time></trkpt><trkpt lat="42.0720235" lon="13.606857"><ele>872.0</ele><time>2026-05-02T12:12:19.128Z</time></trkpt><trkpt lat="42.071989" lon="13.6067646"><ele>870.2</ele><time>2026-05-02T12:12:20.128Z</time></trkpt><trkpt lat="42.0719424" lon="13.6066657"><ele>868.4000000000001</ele><time>2026-05-02T12:12:21.129Z</time></trkpt><trkpt lat="42.0718788" lon="13.6065616"><ele>866.5999999999999</ele><time>2026-05-02T12:12:22.13Z</time></trkpt><trkpt lat="42.0717988" lon="13.6064548"><ele>864.8</ele><time>2026-05-02T12:12:23.13Z</time></trkpt><trkpt lat="42.0717099" lon="13.6063453"><ele>863.0</ele><time>2026-05-02T12:12:24.128Z</time></trkpt><trkpt lat="42.0716162" lon="13.6062447"><ele>859.25</ele><time>2026-05-02T12:12:25.128Z</time></trkpt><trkpt lat="42.071517" lon="13.6061611"><ele>855.5</ele><time>2026-05-02T12:12:26.128Z</time></trkpt><trkpt lat="42.0714115" lon="13.606096"><ele>851.75</ele><time>2026-05-02T12:12:27.128Z</time></trkpt><trkpt lat="42.0713011" lon="13.6060454"><ele>848.0</ele><time>2026-05-02T12:12:28.129Z</time></trkpt><trkpt lat="42.0711909" lon="13.6059794"><ele>848.0</ele><time>2026-05-02T12:12:29.13Z</time></trkpt><trkpt lat="42.0710854" lon="13.6058836"><ele>848.0</ele><time>2026-05-02T12:12:30.129Z</time></trkpt><trkpt lat="42.0709862" lon="13.605782"><ele>848.0</ele><time>2026-05-02T12:12:31.128Z</time></trkpt><trkpt lat="42.0708826" lon="13.6056757"><ele>848.0</ele><time>2026-05-02T12:12:32.128Z</time></trkpt><trkpt lat="42.0707745" lon="13.6055766"><ele>845.25</ele><time>2026-05-02T12:12:33.128Z</time></trkpt><trkpt lat="42.0706589" lon="13.6054778"><ele>842.5</ele><time>2026-05-02T12:12:34.128Z</time></trkpt><trkpt lat="42.0705439" lon="13.605374"><ele>839.75</ele><time>2026-05-02T12:12:35.128Z</time></trkpt><trkpt lat="42.0704348" lon="13.6052751"><ele>837.0</ele><time>2026-05-02T12:12:36.128Z</time></trkpt><trkpt lat="42.0703237" lon="13.6051702"><ele>835.75</ele><time>2026-05-02T12:12:37.128Z</time></trkpt><trkpt lat="42.0702194" lon="13.6050685"><ele>834.5</ele><time>2026-05-02T12:12:38.128Z</time></trkpt><trkpt lat="42.0701159" lon="13.6049687"><ele>833.25</ele><time>2026-05-02T12:12:39.128Z</time></trkpt><trkpt lat="42.07001" lon="13.6048653"><ele>832.0</ele><time>2026-05-02T12:12:40.128Z</time></trkpt><trkpt lat="42.0698973" lon="13.6047593"><ele>829.0</ele><time>2026-05-02T12:12:41.128Z</time></trkpt><trkpt lat="42.0697835" lon="13.6046543"><ele>826.0</ele><time>2026-05-02T12:12:42.128Z</time></trkpt><trkpt lat="42.0696655" lon="13.6045459"><ele>823.0</ele><time>2026-05-02T12:12:43.128Z</time></trkpt><trkpt lat="42.0695479" lon="13.6044391"><ele>820.0</ele><time>2026-05-02T12:12:44.128Z</time></trkpt><trkpt lat="42.0694348" lon="13.6043311"><ele>818.25</ele><time>2026-05-02T12:12:45.128Z</time></trkpt><trkpt lat="42.0693206" lon="13.6042139"><ele>816.5</ele><time>2026-05-02T12:12:46.128Z</time></trkpt><trkpt lat="42.0692101" lon="13.6040918"><ele>814.75</ele><time>2026-05-02T12:12:47.128Z</time></trkpt><trkpt lat="42.0691017" lon="13.6039772"><ele>813.0</ele><time>2026-05-02T12:12:48.128Z</time></trkpt><trkpt lat="42.0689965" lon="13.6038655"><ele>811.75</ele><time>2026-05-02T12:12:49.128Z</time></trkpt><trkpt lat="42.0688969" lon="13.6037606"><ele>810.5</ele><time>2026-05-02T12:12:50.128Z</time></trkpt><trkpt lat="42.0688" lon="13.6036577"><ele>809.25</ele><time>2026-05-02T12:12:51.128Z</time></trkpt><trkpt lat="42.0687118" lon="13.6035615"><ele>808.0</ele><time>2026-05-02T12:12:52.129Z</time></trkpt><trkpt lat="42.0686376" lon="13.6034824"><ele>807.9999999999999</ele><time>2026-05-02T12:12:53.128Z</time></trkpt><trkpt lat="42.068566" lon="13.6034107"><ele>808.0</ele><time>2026-05-02T12:12:54.129Z</time></trkpt><trkpt lat="42.0684643" lon="13.6033703"><ele>808.0</ele><time>2026-05-02T12:12:56.128Z</time></trkpt><trkpt lat="42.0683974" lon="13.6033833"><ele>808.0</ele><time>2026-05-02T12:12:57.129Z</time></trkpt><trkpt lat="42.0683262" lon="13.6034184"><ele>807.9999999999999</ele><time>2026-05-02T12:12:58.128Z</time></trkpt><trkpt lat="42.0682641" lon="13.6034809"><ele>808.0</ele><time>2026-05-02T12:12:59.13Z</time></trkpt><trkpt lat="42.0681915" lon="13.6035386"><ele>809.8</ele><time>2026-05-02T12:13:00.129Z</time></trkpt><trkpt lat="42.0681117" lon="13.6035672"><ele>811.5999999999999</ele><time>2026-05-02T12:13:01.129Z</time></trkpt><trkpt lat="42.0680249" lon="13.6035675"><ele>813.4000000000001</ele><time>2026-05-02T12:13:02.129Z</time></trkpt><trkpt lat="42.0679303" lon="13.6035644"><ele>815.2</ele><time>2026-05-02T12:13:03.128Z</time></trkpt><trkpt lat="42.0678403" lon="13.6035726"><ele>817.0</ele><time>2026-05-02T12:13:04.128Z</time></trkpt><trkpt lat="42.0677263" lon="13.6035628"><ele>817.0</ele><time>2026-05-02T12:13:05.129Z</time></trkpt><trkpt lat="42.067622" lon="13.6035501"><ele>817.0</ele><time>2026-05-02T12:13:06.129Z</time></trkpt><trkpt lat="42.0675099" lon="13.603541"><ele>817.0</ele><time>2026-05-02T12:13:07.129Z</time></trkpt><trkpt lat="42.0673866" lon="13.6035328"><ele>817.0</ele><time>2026-05-02T12:13:08.129Z</time></trkpt><trkpt lat="42.0672581" lon="13.6035194"><ele>818.0</ele><time>2026-05-02T12:13:09.129Z</time></trkpt><trkpt lat="42.0671258" lon="13.6034989"><ele>819.0</ele><time>2026-05-02T12:13:10.129Z</time></trkpt><trkpt lat="42.067009" lon="13.6034749"><ele>820.0</ele><time>2026-05-02T12:13:11.13Z</time></trkpt><trkpt lat="42.0668891" lon="13.6034409"><ele>821.0</ele><time>2026-05-02T12:13:12.129Z</time></trkpt><trkpt lat="42.0667668" lon="13.6033904"><ele>821.0</ele><time>2026-05-02T12:13:13.13Z</time></trkpt><trkpt lat="42.066641" lon="13.6033458"><ele>821.0</ele><time>2026-05-02T12:13:14.128Z</time></trkpt><trkpt lat="42.0665172" lon="13.6033066"><ele>821.0</ele><time>2026-05-02T12:13:15.128Z</time></trkpt><trkpt lat="42.0664049" lon="13.6032971"><ele>821.0</ele><time>2026-05-02T12:13:16.129Z</time></trkpt><trkpt lat="42.0663014" lon="13.6032956"><ele>822.1666666666667</ele><time>2026-05-02T12:13:17.129Z</time></trkpt><trkpt lat="42.0662076" lon="13.6033051"><ele>823.3333333333334</ele><time>2026-05-02T12:13:18.129Z</time></trkpt><trkpt lat="42.0661215" lon="13.6033122"><ele>824.5</ele><time>2026-05-02T12:13:19.128Z</time></trkpt><trkpt lat="42.0660417" lon="13.603326"><ele>825.6666666666667</ele><time>2026-05-02T12:13:20.129Z</time></trkpt><trkpt lat="42.0659406" lon="13.6033269"><ele>826.8333333333334</ele><time>2026-05-02T12:13:22.129Z</time></trkpt><trkpt lat="42.0658737" lon="13.6033303"><ele>828.0</ele><time>2026-05-02T12:13:24.129Z</time></trkpt><trkpt lat="42.0658002" lon="13.6033209"><ele>828.2</ele><time>2026-05-02T12:13:26.128Z</time></trkpt><trkpt lat="42.065754" lon="13.6032373"><ele>828.4</ele><time>2026-05-02T12:13:28.129Z</time></trkpt><trkpt lat="42.0657265" lon="13.6030732"><ele>828.6</ele><time>2026-05-02T12:13:30.129Z</time></trkpt><trkpt lat="42.0657127" lon="13.6029823"><ele>828.8000000000001</ele><time>2026-05-02T12:13:31.128Z</time></trkpt><trkpt lat="42.0656889" lon="13.602889"><ele>829.0</ele><time>2026-05-02T12:13:32.128Z</time></trkpt><trkpt lat="42.0656869" lon="13.6027336"><ele>829.4000000000001</ele><time>2026-05-02T12:13:34.129Z</time></trkpt><trkpt lat="42.0657423" lon="13.6026206"><ele>829.8</ele><time>2026-05-02T12:13:36.129Z</time></trkpt><trkpt lat="42.0658214" lon="13.6025543"><ele>830.2</ele><time>2026-05-02T12:13:38.129Z</time></trkpt><trkpt lat="42.0658609" lon="13.6024118"><ele>830.5999999999999</ele><time>2026-05-02T12:13:40.129Z</time></trkpt><trkpt lat="42.0658796" lon="13.6023053"><ele>831.0</ele><time>2026-05-02T12:13:41.128Z</time></trkpt><trkpt lat="42.0659046" lon="13.6021771"><ele>831.0</ele><time>2026-05-02T12:13:42.128Z</time></trkpt><trkpt lat="42.0659312" lon="13.60204"><ele>831.0</ele><time>2026-05-02T12:13:43.128Z</time></trkpt><trkpt lat="42.0659641" lon="13.6018888"><ele>831.0</ele><time>2026-05-02T12:13:44.128Z</time></trkpt><trkpt lat="42.065996" lon="13.6017318"><ele>831.0</ele><time>2026-05-02T12:13:45.128Z</time></trkpt><trkpt lat="42.0660231" lon="13.6015847"><ele>830.6666666666666</ele><time>2026-05-02T12:13:46.129Z</time></trkpt><trkpt lat="42.0660475" lon="13.6014444"><ele>830.3333333333333</ele><time>2026-05-02T12:13:47.13Z</time></trkpt><trkpt lat="42.0660557" lon="13.6013161"><ele>830.0</ele><time>2026-05-02T12:13:48.128Z</time></trkpt><trkpt lat="42.0660594" lon="13.6011965"><ele>829.6666666666666</ele><time>2026-05-02T12:13:49.128Z</time></trkpt><trkpt lat="42.0660645" lon="13.6010861"><ele>829.3333333333333</ele><time>2026-05-02T12:13:50.128Z</time></trkpt><trkpt lat="42.0660691" lon="13.6009961"><ele>829.0</ele><time>2026-05-02T12:13:51.128Z</time></trkpt><trkpt lat="42.0660831" lon="13.6008301"><ele>828.9999999999999</ele><time>2026-05-02T12:13:53.128Z</time></trkpt><trkpt lat="42.0661" lon="13.6006819"><ele>829.0</ele><time>2026-05-02T12:13:55.129Z</time></trkpt><trkpt lat="42.0661137" lon="13.6005985"><ele>829.0</ele><time>2026-05-02T12:13:56.129Z</time></trkpt><trkpt lat="42.0661276" lon="13.6005054"><ele>829.0</ele><time>2026-05-02T12:13:57.129Z</time></trkpt><trkpt lat="42.0661392" lon="13.6004137"><ele>828.9999999999999</ele><time>2026-05-02T12:13:58.128Z</time></trkpt><trkpt lat="42.0661383" lon="13.6002722"><ele>829.0</ele><time>2026-05-02T12:14:00.128Z</time></trkpt><trkpt lat="42.0660629" lon="13.6002137"><ele>828.8333333333333</ele><time>2026-05-02T12:14:02.128Z</time></trkpt><trkpt lat="42.0659945" lon="13.600207"><ele>828.6666666666666</ele><time>2026-05-02T12:14:03.129Z</time></trkpt><trkpt lat="42.0659102" lon="13.6002029"><ele>828.5</ele><time>2026-05-02T12:14:04.129Z</time></trkpt><trkpt lat="42.0658151" lon="13.6001998"><ele>828.3333333333333</ele><time>2026-05-02T12:14:05.129Z</time></trkpt><trkpt lat="42.0657192" lon="13.6001969"><ele>828.1666666666666</ele><time>2026-05-02T12:14:06.129Z</time></trkpt><trkpt lat="42.0656234" lon="13.6001949"><ele>828.0</ele><time>2026-05-02T12:14:07.128Z</time></trkpt><trkpt lat="42.0655356" lon="13.6001908"><ele>826.2</ele><time>2026-05-02T12:14:08.129Z</time></trkpt><trkpt lat="42.0654486" lon="13.6001828"><ele>824.4</ele><time>2026-05-02T12:14:09.129Z</time></trkpt><trkpt lat="42.0653489" lon="13.6001721"><ele>822.6</ele><time>2026-05-02T12:14:10.128Z</time></trkpt><trkpt lat="42.0652418" lon="13.6001684"><ele>820.8000000000001</ele><time>2026-05-02T12:14:11.128Z</time></trkpt><trkpt lat="42.0651399" lon="13.600163"><ele>819.0</ele><time>2026-05-02T12:14:12.129Z</time></trkpt><trkpt lat="42.0650482" lon="13.6001597"><ele>819.0</ele><time>2026-05-02T12:14:13.128Z</time></trkpt><trkpt lat="42.0649572" lon="13.6001565"><ele>819.0</ele><time>2026-05-02T12:14:14.128Z</time></trkpt><trkpt lat="42.0648648" lon="13.6001581"><ele>819.0</ele><time>2026-05-02T12:14:15.129Z</time></trkpt><trkpt lat="42.0647781" lon="13.6001605"><ele>819.0</ele><time>2026-05-02T12:14:16.128Z</time></trkpt><trkpt lat="42.0646915" lon="13.600161"><ele>819.0</ele><time>2026-05-02T12:14:17.129Z</time></trkpt><trkpt lat="42.064611" lon="13.6001629"><ele>819.0</ele><time>2026-05-02T12:14:18.13Z</time></trkpt><trkpt lat="42.0645359" lon="13.6001649"><ele>817.2</ele><time>2026-05-02T12:14:19.128Z</time></trkpt><trkpt lat="42.0644646" lon="13.6001683"><ele>815.4000000000001</ele><time>2026-05-02T12:14:20.128Z</time></trkpt><trkpt lat="42.0643582" lon="13.6001575"><ele>813.6</ele><time>2026-05-02T12:14:22.129Z</time></trkpt><trkpt lat="42.0642573" lon="13.6001364"><ele>811.8</ele><time>2026-05-02T12:14:25.129Z</time></trkpt><trkpt lat="42.0641575" lon="13.6001052"><ele>810.0</ele><time>2026-05-02T12:14:27.129Z</time></trkpt><trkpt lat="42.0640815" lon="13.6000854"><ele>808.6666666666666</ele><time>2026-05-02T12:14:29.128Z</time></trkpt><trkpt lat="42.0639636" lon="13.6000454"><ele>807.3333333333333</ele><time>2026-05-02T12:14:31.128Z</time></trkpt><trkpt lat="42.0638974" lon="13.6000223"><ele>806.0</ele><time>2026-05-02T12:14:32.128Z</time></trkpt><trkpt lat="42.063798" lon="13.5999981"><ele>804.6666666666666</ele><time>2026-05-02T12:14:34.128Z</time></trkpt><trkpt lat="42.0637317" lon="13.5999688"><ele>803.3333333333333</ele><time>2026-05-02T12:14:36.128Z</time></trkpt><trkpt lat="42.0637211" lon="13.599874"><ele>802.0</ele><time>2026-05-02T12:14:38.129Z</time></trkpt><trkpt lat="42.063754" lon="13.5997675"><ele>801.9999999999999</ele><time>2026-05-02T12:14:40.128Z</time></trkpt><trkpt lat="42.0638018" lon="13.5996507"><ele>802.0</ele><time>2026-05-02T12:14:42.128Z</time></trkpt><trkpt lat="42.0638305" lon="13.5995724"><ele>802.0</ele><time>2026-05-02T12:14:43.13Z</time></trkpt><trkpt lat="42.0638796" lon="13.5994175"><ele>802.0</ele><time>2026-05-02T12:14:45.128Z</time></trkpt><trkpt lat="42.0639097" lon="13.5993266"><ele>801.9999999999999</ele><time>2026-05-02T12:14:46.127Z</time></trkpt><trkpt lat="42.0639405" lon="13.5992334"><ele>802.0</ele><time>2026-05-02T12:14:47.128Z</time></trkpt><trkpt lat="42.0639676" lon="13.5991516"><ele>802.3333333333333</ele><time>2026-05-02T12:14:48.128Z</time></trkpt><trkpt lat="42.0640116" lon="13.5990215"><ele>802.6666666666666</ele><time>2026-05-02T12:14:50.128Z</time></trkpt><trkpt lat="42.0640751" lon="13.5989423"><ele>803.0</ele><time>2026-05-02T12:14:52.128Z</time></trkpt><trkpt lat="42.0641402" lon="13.5989513"><ele>803.3333333333333</ele><time>2026-05-02T12:14:53.127Z</time></trkpt><trkpt lat="42.0642106" lon="13.5989562"><ele>803.6666666666666</ele><time>2026-05-02T12:14:54.129Z</time></trkpt><trkpt lat="42.0642902" lon="13.5989582"><ele>804.0</ele><time>2026-05-02T12:14:55.127Z</time></trkpt><trkpt lat="42.0643823" lon="13.5989629"><ele>804.0</ele><time>2026-05-02T12:14:56.127Z</time></trkpt><trkpt lat="42.0644851" lon="13.598959"><ele>804.0</ele><time>2026-05-02T12:14:57.129Z</time></trkpt><trkpt lat="42.0645981" lon="13.5989639"><ele>804.0</ele><time>2026-05-02T12:14:58.128Z</time></trkpt><trkpt lat="42.0647201" lon="13.5989679"><ele>804.0</ele><time>2026-05-02T12:14:59.127Z</time></trkpt><trkpt lat="42.0648492" lon="13.5989744"><ele>806.75</ele><time>2026-05-02T12:15:00.128Z</time></trkpt><trkpt lat="42.0649805" lon="13.5989846"><ele>809.5</ele><time>2026-05-02T12:15:01.128Z</time></trkpt><trkpt lat="42.0651132" lon="13.5989819"><ele>812.25</ele><time>2026-05-02T12:15:02.127Z</time></trkpt><trkpt lat="42.0652355" lon="13.598985"><ele>815.0</ele><time>2026-05-02T12:15:03.127Z</time></trkpt><trkpt lat="42.0653609" lon="13.598991"><ele>815.0</ele><time>2026-05-02T12:15:04.128Z</time></trkpt><trkpt lat="42.0654837" lon="13.5989977"><ele>815.0</ele><time>2026-05-02T12:15:05.127Z</time></trkpt><trkpt lat="42.0656081" lon="13.5990005"><ele>815.0</ele><time>2026-05-02T12:15:06.128Z</time></trkpt><trkpt lat="42.0657358" lon="13.599009"><ele>815.0</ele><time>2026-05-02T12:15:07.128Z</time></trkpt><trkpt lat="42.065862" lon="13.5990156"><ele>817.0</ele><time>2026-05-02T12:15:08.127Z</time></trkpt><trkpt lat="42.0659898" lon="13.5990245"><ele>819.0</ele><time>2026-05-02T12:15:09.127Z</time></trkpt><trkpt lat="42.0661082" lon="13.5990329"><ele>821.0</ele><time>2026-05-02T12:15:10.128Z</time></trkpt><trkpt lat="42.0662071" lon="13.5990439"><ele>823.0</ele><time>2026-05-02T12:15:11.127Z</time></trkpt><trkpt lat="42.0662848" lon="13.5990502"><ele>825.0</ele><time>2026-05-02T12:15:12.127Z</time></trkpt><trkpt lat="42.0663742" lon="13.5990304"><ele>825.0</ele><time>2026-05-02T12:15:14.128Z</time></trkpt><trkpt lat="42.0664311" lon="13.5989676"><ele>825.0</ele><time>2026-05-02T12:15:16.127Z</time></trkpt><trkpt lat="42.0664799" lon="13.5988075"><ele>825.0</ele><time>2026-05-02T12:15:18.128Z</time></trkpt><trkpt lat="42.0665111" lon="13.5986917"><ele>825.0</ele><time>2026-05-02T12:15:19.127Z</time></trkpt><trkpt lat="42.0665523" lon="13.5985703"><ele>825.0</ele><time>2026-05-02T12:15:20.127Z</time></trkpt><trkpt lat="42.0665995" lon="13.5984613"><ele>825.6666666666666</ele><time>2026-05-02T12:15:21.129Z</time></trkpt><trkpt lat="42.0666395" lon="13.5983804"><ele>826.3333333333333</ele><time>2026-05-02T12:15:22.129Z</time></trkpt><trkpt lat="42.0666881" lon="13.5983018"><ele>827.0</ele><time>2026-05-02T12:15:24.128Z</time></trkpt><trkpt lat="42.0667503" lon="13.5982785"><ele>827.6666666666666</ele><time>2026-05-02T12:15:28.127Z</time></trkpt><trkpt lat="42.0667194" lon="13.5983914"><ele>828.3333333333333</ele><time>2026-05-02T12:15:31.129Z</time></trkpt><trkpt lat="42.0666842" lon="13.5984976"><ele>829.0</ele><time>2026-05-02T12:15:33.128Z</time></trkpt><trkpt lat="42.0666573" lon="13.598576"><ele>828.9999999999999</ele><time>2026-05-02T12:15:35.128Z</time></trkpt><trkpt lat="42.0667084" lon="13.5984701"><ele>829.0</ele><time>2026-05-02T12:15:41.128Z</time></trkpt><trkpt lat="42.066728" lon="13.5983856"><ele>829.0</ele><time>2026-05-02T12:15:42.128Z</time></trkpt><trkpt lat="42.0667554" lon="13.5982883"><ele>829.0</ele><time>2026-05-02T12:15:43.128Z</time></trkpt><trkpt lat="42.0667823" lon="13.5981734"><ele>828.9999999999999</ele><time>2026-05-02T12:15:44.128Z</time></trkpt><trkpt lat="42.0668061" lon="13.5980779"><ele>829.0</ele><time>2026-05-02T12:15:45.127Z</time></trkpt><trkpt lat="42.0668487" lon="13.5979579"><ele>828.9999999999999</ele><time>2026-05-02T12:15:47.127Z</time></trkpt><trkpt lat="42.066924" lon="13.597909"><ele>829.0</ele><time>2026-05-02T12:15:49.127Z</time></trkpt><trkpt lat="42.0669936" lon="13.5979092"><ele>829.0</ele><time>2026-05-02T12:15:50.127Z</time></trkpt><trkpt lat="42.0670842" lon="13.5979196"><ele>829.0</ele><time>2026-05-02T12:15:51.127Z</time></trkpt><trkpt lat="42.067176" lon="13.5979196"><ele>828.9999999999999</ele><time>2026-05-02T12:15:52.127Z</time></trkpt><trkpt lat="42.0672731" lon="13.5979255"><ele>829.0</ele><time>2026-05-02T12:15:53.127Z</time></trkpt><trkpt lat="42.0673815" lon="13.5979425"><ele>831.75</ele><time>2026-05-02T12:15:54.127Z</time></trkpt><trkpt lat="42.0674941" lon="13.5979728"><ele>834.5</ele><time>2026-05-02T12:15:55.128Z</time></trkpt><trkpt lat="42.0676048" lon="13.5980069"><ele>837.25</ele><time>2026-05-02T12:15:56.127Z</time></trkpt><trkpt lat="42.0677192" lon="13.5980425"><ele>840.0</ele><time>2026-05-02T12:15:57.129Z</time></trkpt><trkpt lat="42.0678372" lon="13.5980807"><ele>840.0</ele><time>2026-05-02T12:15:58.128Z</time></trkpt><trkpt lat="42.0679593" lon="13.5981134"><ele>840.0</ele><time>2026-05-02T12:15:59.128Z</time></trkpt><trkpt lat="42.0680896" lon="13.5981482"><ele>840.0</ele><time>2026-05-02T12:16:00.128Z</time></trkpt><trkpt lat="42.0682132" lon="13.5981839"><ele>840.0</ele><time>2026-05-02T12:16:01.127Z</time></trkpt><trkpt lat="42.0683421" lon="13.5982187"><ele>842.0</ele><time>2026-05-02T12:16:02.127Z</time></trkpt><trkpt lat="42.0684776" lon="13.5982532"><ele>844.0</ele><time>2026-05-02T12:16:03.127Z</time></trkpt><trkpt lat="42.0686173" lon="13.5982855"><ele>846.0</ele><time>2026-05-02T12:16:04.127Z</time></trkpt><trkpt lat="42.0687608" lon="13.5983194"><ele>848.0</ele><time>2026-05-02T12:16:05.129Z</time></trkpt><trkpt lat="42.0688984" lon="13.5983632"><ele>848.0</ele><time>2026-05-02T12:16:06.128Z</time></trkpt><trkpt lat="42.0690285" lon="13.598397"><ele>848.0</ele><time>2026-05-02T12:16:07.128Z</time></trkpt><trkpt lat="42.0691382" lon="13.5984262"><ele>848.0</ele><time>2026-05-02T12:16:08.128Z</time></trkpt><trkpt lat="42.0692254" lon="13.5984494"><ele>848.0</ele><time>2026-05-02T12:16:09.128Z</time></trkpt><trkpt lat="42.0692897" lon="13.5984821"><ele>848.0</ele><time>2026-05-02T12:16:10.128Z</time></trkpt><trkpt lat="42.0693546" lon="13.5985764"><ele>850.1666666666667</ele><time>2026-05-02T12:16:12.128Z</time></trkpt><trkpt lat="42.0693603" lon="13.5986924"><ele>852.3333333333334</ele><time>2026-05-02T12:16:14.127Z</time></trkpt><trkpt lat="42.0693425" lon="13.5987802"><ele>854.5</ele><time>2026-05-02T12:16:15.127Z</time></trkpt><trkpt lat="42.0693201" lon="13.5988848"><ele>856.6666666666667</ele><time>2026-05-02T12:16:16.128Z</time></trkpt><trkpt lat="42.0693074" lon="13.5990072"><ele>858.8333333333334</ele><time>2026-05-02T12:16:17.129Z</time></trkpt><trkpt lat="42.0693079" lon="13.5991406"><ele>861.0</ele><time>2026-05-02T12:16:18.127Z</time></trkpt><trkpt lat="42.0693067" lon="13.5992845"><ele>861.0</ele><time>2026-05-02T12:16:19.128Z</time></trkpt><trkpt lat="42.0693119" lon="13.5994252"><ele>860.9999999999999</ele><time>2026-05-02T12:16:20.128Z</time></trkpt><trkpt lat="42.0693232" lon="13.599544"><ele>860.9999999999999</ele><time>2026-05-02T12:16:21.128Z</time></trkpt><trkpt lat="42.0693379" lon="13.5996503"><ele>861.0</ele><time>2026-05-02T12:16:22.129Z</time></trkpt><trkpt lat="42.069365" lon="13.5997499"><ele>861.0</ele><time>2026-05-02T12:16:23.128Z</time></trkpt><trkpt lat="42.0694096" lon="13.5998775"><ele>861.4</ele><time>2026-05-02T12:16:25.127Z</time></trkpt><trkpt lat="42.0694767" lon="13.5999147"><ele>861.8</ele><time>2026-05-02T12:16:27.127Z</time></trkpt><trkpt lat="42.0696101" lon="13.599873"><ele>862.1999999999999</ele><time>2026-05-02T12:16:29.128Z</time></trkpt><trkpt lat="42.0696959" lon="13.5998287"><ele>862.5999999999999</ele><time>2026-05-02T12:16:30.128Z</time></trkpt><trkpt lat="42.0697947" lon="13.5997837"><ele>863.0</ele><time>2026-05-02T12:16:31.127Z</time></trkpt><trkpt lat="42.0699061" lon="13.5997559"><ele>864.75</ele><time>2026-05-02T12:16:32.127Z</time></trkpt><trkpt lat="42.070021" lon="13.5997481"><ele>866.5</ele><time>2026-05-02T12:16:33.127Z</time></trkpt><trkpt lat="42.070144" lon="13.5997462"><ele>868.25</ele><time>2026-05-02T12:16:34.128Z</time></trkpt><trkpt lat="42.0702752" lon="13.5997429"><ele>870.0</ele><time>2026-05-02T12:16:35.127Z</time></trkpt><trkpt lat="42.0704073" lon="13.5997307"><ele>870.0</ele><time>2026-05-02T12:16:36.127Z</time></trkpt><trkpt lat="42.0705471" lon="13.5996968"><ele>870.0</ele><time>2026-05-02T12:16:37.128Z</time></trkpt><trkpt lat="42.0706912" lon="13.5996496"><ele>870.0</ele><time>2026-05-02T12:16:38.128Z</time></trkpt><trkpt lat="42.0708374" lon="13.5995904"><ele>870.0</ele><time>2026-05-02T12:16:39.127Z</time></trkpt><trkpt lat="42.0709877" lon="13.5995206"><ele>872.0</ele><time>2026-05-02T12:16:40.127Z</time></trkpt><trkpt lat="42.0711394" lon="13.5994512"><ele>874.0</ele><time>2026-05-02T12:16:41.127Z</time></trkpt><trkpt lat="42.071296" lon="13.5993836"><ele>876.0</ele><time>2026-05-02T12:16:42.128Z</time></trkpt><trkpt lat="42.0714503" lon="13.5993154"><ele>878.3333333333333</ele><time>2026-05-02T12:16:43.128Z</time></trkpt><trkpt lat="42.0716088" lon="13.5992467"><ele>880.6666666666666</ele><time>2026-05-02T12:16:44.127Z</time></trkpt><trkpt lat="42.0717665" lon="13.5991761"><ele>883.0</ele><time>2026-05-02T12:16:45.127Z</time></trkpt><trkpt lat="42.0719259" lon="13.5991073"><ele>883.0</ele><time>2026-05-02T12:16:46.128Z</time></trkpt><trkpt lat="42.0720812" lon="13.5990336"><ele>883.0</ele><time>2026-05-02T12:16:47.127Z</time></trkpt><trkpt lat="42.0722393" lon="13.5989578"><ele>883.0</ele><time>2026-05-02T12:16:48.127Z</time></trkpt><trkpt lat="42.0723996" lon="13.5988837"><ele>885.3333333333333</ele><time>2026-05-02T12:16:49.127Z</time></trkpt><trkpt lat="42.072563" lon="13.5988102"><ele>887.6666666666667</ele><time>2026-05-02T12:16:50.128Z</time></trkpt><trkpt lat="42.0727247" lon="13.5987373"><ele>890.0</ele><time>2026-05-02T12:16:51.128Z</time></trkpt><trkpt lat="42.0728872" lon="13.5986672"><ele>892.0</ele><time>2026-05-02T12:16:52.129Z</time></trkpt><trkpt lat="42.0730465" lon="13.5985965"><ele>894.0</ele><time>2026-05-02T12:16:53.127Z</time></trkpt><trkpt lat="42.07321" lon="13.5985194"><ele>896.0</ele><time>2026-05-02T12:16:54.127Z</time></trkpt><trkpt lat="42.0733777" lon="13.5984432"><ele>898.6666666666667</ele><time>2026-05-02T12:16:55.128Z</time></trkpt><trkpt lat="42.0735433" lon="13.5983612"><ele>901.3333333333333</ele><time>2026-05-02T12:16:56.127Z</time></trkpt><trkpt lat="42.0736954" lon="13.5982873"><ele>904.0</ele><time>2026-05-02T12:16:57.127Z</time></trkpt><trkpt lat="42.0738454" lon="13.5982259"><ele>904.0</ele><time>2026-05-02T12:16:58.127Z</time></trkpt><trkpt lat="42.0740049" lon="13.5981811"><ele>904.0</ele><time>2026-05-02T12:16:59.128Z</time></trkpt><trkpt lat="42.0741713" lon="13.5981543"><ele>904.0</ele><time>2026-05-02T12:17:00.128Z</time></trkpt><trkpt lat="42.0743408" lon="13.5981427"><ele>907.0</ele><time>2026-05-02T12:17:01.127Z</time></trkpt><trkpt lat="42.0745151" lon="13.5981476"><ele>910.0</ele><time>2026-05-02T12:17:02.128Z</time></trkpt><trkpt lat="42.07469" lon="13.5981567"><ele>913.0</ele><time>2026-05-02T12:17:03.127Z</time></trkpt><trkpt lat="42.0748645" lon="13.5981689"><ele>916.6666666666666</ele><time>2026-05-02T12:17:04.127Z</time></trkpt><trkpt lat="42.0750373" lon="13.5981859"><ele>920.3333333333333</ele><time>2026-05-02T12:17:05.127Z</time></trkpt><trkpt lat="42.075209" lon="13.5982027"><ele>924.0</ele><time>2026-05-02T12:17:06.127Z</time></trkpt><trkpt lat="42.0753752" lon="13.5982073"><ele>924.0</ele><time>2026-05-02T12:17:07.127Z</time></trkpt><trkpt lat="42.0755407" lon="13.5982122"><ele>924.0</ele><time>2026-05-02T12:17:08.129Z</time></trkpt><trkpt lat="42.0757083" lon="13.5982167"><ele>924.0</ele><time>2026-05-02T12:17:09.127Z</time></trkpt><trkpt lat="42.0758743" lon="13.5982143"><ele>927.3333333333333</ele><time>2026-05-02T12:17:10.127Z</time></trkpt><trkpt lat="42.076038" lon="13.5981924"><ele>930.6666666666666</ele><time>2026-05-02T12:17:11.127Z</time></trkpt><trkpt lat="42.0761847" lon="13.5981623"><ele>934.0</ele><time>2026-05-02T12:17:12.127Z</time></trkpt><trkpt lat="42.076318" lon="13.5981094"><ele>934.0</ele><time>2026-05-02T12:17:13.129Z</time></trkpt><trkpt lat="42.07643" lon="13.5980228"><ele>934.0</ele><time>2026-05-02T12:17:14.128Z</time></trkpt><trkpt lat="42.0765226" lon="13.5978984"><ele>934.0</ele><time>2026-05-02T12:17:15.128Z</time></trkpt><trkpt lat="42.0766029" lon="13.5977605"><ele>934.0</ele><time>2026-05-02T12:17:16.128Z</time></trkpt><trkpt lat="42.0766825" lon="13.5976121"><ele>937.5</ele><time>2026-05-02T12:17:17.127Z</time></trkpt><trkpt lat="42.0767669" lon="13.5974718"><ele>941.0</ele><time>2026-05-02T12:17:18.128Z</time></trkpt><trkpt lat="42.0768727" lon="13.5973712"><ele>944.5</ele><time>2026-05-02T12:17:19.128Z</time></trkpt><trkpt lat="42.076991" lon="13.5973203"><ele>948.0</ele><time>2026-05-02T12:17:20.128Z</time></trkpt><trkpt lat="42.0771032" lon="13.5973048"><ele>948.0</ele><time>2026-05-02T12:17:21.127Z</time></trkpt><trkpt lat="42.0772058" lon="13.5973325"><ele>948.0</ele><time>2026-05-02T12:17:22.128Z</time></trkpt><trkpt lat="42.0772547" lon="13.5974579"><ele>948.0</ele><time>2026-05-02T12:17:23.127Z</time></trkpt><trkpt lat="42.0773041" lon="13.5975912"><ele>948.0</ele><time>2026-05-02T12:17:24.127Z</time></trkpt><trkpt lat="42.077356" lon="13.5977369"><ele>948.0</ele><time>2026-05-02T12:17:25.127Z</time></trkpt><trkpt lat="42.0774087" lon="13.5978732"><ele>949.1666666666666</ele><time>2026-05-02T12:17:26.127Z</time></trkpt><trkpt lat="42.0774687" lon="13.5979611"><ele>950.3333333333333</ele><time>2026-05-02T12:17:27.128Z</time></trkpt><trkpt lat="42.07754" lon="13.5979973"><ele>951.5</ele><time>2026-05-02T12:17:28.128Z</time></trkpt><trkpt lat="42.0776062" lon="13.5979791"><ele>952.6666666666666</ele><time>2026-05-02T12:17:29.128Z</time></trkpt><trkpt lat="42.0776476" lon="13.597913"><ele>953.8333333333333</ele><time>2026-05-02T12:17:30.128Z</time></trkpt><trkpt lat="42.0776577" lon="13.5978156"><ele>955.0</ele><time>2026-05-02T12:17:31.128Z</time></trkpt><trkpt lat="42.0776309" lon="13.5977076"><ele>953.25</ele><time>2026-05-02T12:17:32.128Z</time></trkpt><trkpt lat="42.0775838" lon="13.5975905"><ele>951.5</ele><time>2026-05-02T12:17:33.127Z</time></trkpt><trkpt lat="42.0775323" lon="13.5974546"><ele>949.75</ele><time>2026-05-02T12:17:34.127Z</time></trkpt><trkpt lat="42.0774741" lon="13.5973114"><ele>948.0</ele><time>2026-05-02T12:17:35.128Z</time></trkpt><trkpt lat="42.0774156" lon="13.5971552"><ele>950.0</ele><time>2026-05-02T12:17:36.127Z</time></trkpt><trkpt lat="42.0773512" lon="13.596989"><ele>952.0</ele><time>2026-05-02T12:17:37.127Z</time></trkpt><trkpt lat="42.0772867" lon="13.5968212"><ele>954.0</ele><time>2026-05-02T12:17:38.127Z</time></trkpt><trkpt lat="42.077222" lon="13.5966524"><ele>956.0</ele><time>2026-05-02T12:17:39.127Z</time></trkpt><trkpt lat="42.0771591" lon="13.5964854"><ele>956.0</ele><time>2026-05-02T12:17:40.128Z</time></trkpt><trkpt lat="42.0771099" lon="13.5963408"><ele>955.9999999999999</ele><time>2026-05-02T12:17:41.128Z</time></trkpt><trkpt lat="42.0770838" lon="13.5962074"><ele>955.9999999999999</ele><time>2026-05-02T12:17:42.128Z</time></trkpt><trkpt lat="42.0770891" lon="13.5960735"><ele>956.0</ele><time>2026-05-02T12:17:43.127Z</time></trkpt><trkpt lat="42.0771213" lon="13.5959398"><ele>956.0</ele><time>2026-05-02T12:17:44.128Z</time></trkpt><trkpt lat="42.0771723" lon="13.5958055"><ele>955.75</ele><time>2026-05-02T12:17:45.128Z</time></trkpt><trkpt lat="42.0772405" lon="13.5956737"><ele>955.5</ele><time>2026-05-02T12:17:46.128Z</time></trkpt><trkpt lat="42.0773247" lon="13.5955455"><ele>955.25</ele><time>2026-05-02T12:17:47.128Z</time></trkpt><trkpt lat="42.0774025" lon="13.5954088"><ele>955.0</ele><time>2026-05-02T12:17:48.127Z</time></trkpt><trkpt lat="42.0775319" lon="13.5953089"><ele>958.5</ele><time>2026-05-02T12:17:49.129Z</time></trkpt><trkpt lat="42.0776446" lon="13.5951834"><ele>962.0</ele><time>2026-05-02T12:17:50.128Z</time></trkpt><trkpt lat="42.0777608" lon="13.5950572"><ele>965.5</ele><time>2026-05-02T12:17:51.127Z</time></trkpt><trkpt lat="42.0778775" lon="13.5949259"><ele>969.0</ele><time>2026-05-02T12:17:52.127Z</time></trkpt><trkpt lat="42.0779957" lon="13.5948026"><ele>969.0</ele><time>2026-05-02T12:17:53.127Z</time></trkpt><trkpt lat="42.0781112" lon="13.5947233"><ele>969.0</ele><time>2026-05-02T12:17:54.127Z</time></trkpt><trkpt lat="42.0782139" lon="13.5946515"><ele>969.0</ele><time>2026-05-02T12:17:55.127Z</time></trkpt><trkpt lat="42.0782966" lon="13.5945564"><ele>969.0</ele><time>2026-05-02T12:17:56.127Z</time></trkpt><trkpt lat="42.0783398" lon="13.5944249"><ele>972.4000000000001</ele><time>2026-05-02T12:17:57.127Z</time></trkpt><trkpt lat="42.0783448" lon="13.5942773"><ele>975.8000000000001</ele><time>2026-05-02T12:17:58.127Z</time></trkpt><trkpt lat="42.0783263" lon="13.5941279"><ele>979.1999999999999</ele><time>2026-05-02T12:17:59.127Z</time></trkpt><trkpt lat="42.0783056" lon="13.5939817"><ele>982.5999999999999</ele><time>2026-05-02T12:18:00.127Z</time></trkpt><trkpt lat="42.0783189" lon="13.5938472"><ele>986.0</ele><time>2026-05-02T12:18:01.127Z</time></trkpt><trkpt lat="42.07837" lon="13.5937221"><ele>983.5</ele><time>2026-05-02T12:18:02.128Z</time></trkpt><trkpt lat="42.0784471" lon="13.593614"><ele>981.0</ele><time>2026-05-02T12:18:03.128Z</time></trkpt><trkpt lat="42.0785447" lon="13.5935116"><ele>978.5</ele><time>2026-05-02T12:18:04.128Z</time></trkpt><trkpt lat="42.0786447" lon="13.5934082"><ele>976.0</ele><time>2026-05-02T12:18:05.127Z</time></trkpt><trkpt lat="42.0787372" lon="13.5933169"><ele>976.0</ele><time>2026-05-02T12:18:06.127Z</time></trkpt><trkpt lat="42.0788293" lon="13.5932251"><ele>976.0</ele><time>2026-05-02T12:18:07.127Z</time></trkpt><trkpt lat="42.0789283" lon="13.5931305"><ele>976.0</ele><time>2026-05-02T12:18:08.128Z</time></trkpt><trkpt lat="42.0790313" lon="13.5930363"><ele>976.0</ele><time>2026-05-02T12:18:09.128Z</time></trkpt><trkpt lat="42.0791355" lon="13.5929405"><ele>979.5</ele><time>2026-05-02T12:18:10.128Z</time></trkpt><trkpt lat="42.0792452" lon="13.5928454"><ele>983.0</ele><time>2026-05-02T12:18:11.128Z</time></trkpt><trkpt lat="42.0793558" lon="13.5927498"><ele>986.5</ele><time>2026-05-02T12:18:12.129Z</time></trkpt><trkpt lat="42.079462" lon="13.5926532"><ele>990.0</ele><time>2026-05-02T12:18:13.127Z</time></trkpt><trkpt lat="42.0795647" lon="13.5925609"><ele>990.0</ele><time>2026-05-02T12:18:14.129Z</time></trkpt><trkpt lat="42.0796647" lon="13.5924694"><ele>990.0</ele><time>2026-05-02T12:18:15.128Z</time></trkpt><trkpt lat="42.0797608" lon="13.5923745"><ele>990.0</ele><time>2026-05-02T12:18:16.129Z</time></trkpt><trkpt lat="42.079846" lon="13.5922879"><ele>990.0</ele><time>2026-05-02T12:18:17.127Z</time></trkpt><trkpt lat="42.0799183" lon="13.5922178"><ele>990.0</ele><time>2026-05-02T12:18:18.127Z</time></trkpt><trkpt lat="42.0799866" lon="13.5921561"><ele>992.3333333333334</ele><time>2026-05-02T12:18:19.127Z</time></trkpt><trkpt lat="42.0800537" lon="13.5921024"><ele>994.6666666666667</ele><time>2026-05-02T12:18:20.128Z</time></trkpt><trkpt lat="42.0801255" lon="13.5920434"><ele>997.0</ele><time>2026-05-02T12:18:21.128Z</time></trkpt><trkpt lat="42.0802008" lon="13.5919796"><ele>999.3333333333334</ele><time>2026-05-02T12:18:22.127Z</time></trkpt><trkpt lat="42.0802787" lon="13.5919153"><ele>1001.6666666666667</ele><time>2026-05-02T12:18:23.127Z</time></trkpt><trkpt lat="42.0803609" lon="13.5918546"><ele>1004.0</ele><time>2026-05-02T12:18:24.127Z</time></trkpt><trkpt lat="42.0804477" lon="13.5917922"><ele>1004.0000000000001</ele><time>2026-05-02T12:18:25.128Z</time></trkpt><trkpt lat="42.0805345" lon="13.5917263"><ele>1004.0</ele><time>2026-05-02T12:18:26.127Z</time></trkpt><trkpt lat="42.0806115" lon="13.5916479"><ele>1004.0</ele><time>2026-05-02T12:18:27.127Z</time></trkpt><trkpt lat="42.0806686" lon="13.5915696"><ele>1004.0</ele><time>2026-05-02T12:18:28.127Z</time></trkpt><trkpt lat="42.080703" lon="13.5914951"><ele>1004.0000000000001</ele><time>2026-05-02T12:18:29.128Z</time></trkpt><trkpt lat="42.0807307" lon="13.5913701"><ele>1004.0</ele><time>2026-05-02T12:18:31.127Z</time></trkpt><trkpt lat="42.0806826" lon="13.5912322"><ele>1005.0</ele><time>2026-05-02T12:18:33.127Z</time></trkpt><trkpt lat="42.0806266" lon="13.591168"><ele>1006.0000000000001</ele><time>2026-05-02T12:18:34.128Z</time></trkpt><trkpt lat="42.0805456" lon="13.5911138"><ele>1007.0000000000001</ele><time>2026-05-02T12:18:35.127Z</time></trkpt><trkpt lat="42.0804552" lon="13.5910562"><ele>1008.0</ele><time>2026-05-02T12:18:36.128Z</time></trkpt><trkpt lat="42.0803708" lon="13.5909951"><ele>1009.0</ele><time>2026-05-02T12:18:37.128Z</time></trkpt><trkpt lat="42.0802822" lon="13.5909331"><ele>1009.0</ele><time>2026-05-02T12:18:38.127Z</time></trkpt><trkpt lat="42.0801983" lon="13.5908724"><ele>1009.0000000000001</ele><time>2026-05-02T12:18:39.127Z</time></trkpt><trkpt lat="42.0801238" lon="13.5908133"><ele>1009.0000000000001</ele><time>2026-05-02T12:18:40.128Z</time></trkpt><trkpt lat="42.0800596" lon="13.5907638"><ele>1009.0</ele><time>2026-05-02T12:18:41.128Z</time></trkpt><trkpt lat="42.0799607" lon="13.5906883"><ele>1009.0</ele><time>2026-05-02T12:18:43.127Z</time></trkpt><trkpt lat="42.0798862" lon="13.5906308"><ele>1008.9999999999999</ele><time>2026-05-02T12:18:45.129Z</time></trkpt><trkpt lat="42.0798142" lon="13.5905934"><ele>1009.0</ele><time>2026-05-02T12:18:49.129Z</time></trkpt><trkpt lat="42.0798605" lon="13.5906685"><ele>1009.0</ele><time>2026-05-02T12:18:53.128Z</time></trkpt><trkpt lat="42.0799614" lon="13.5907134"><ele>1009.0</ele><time>2026-05-02T12:18:55.127Z</time></trkpt><trkpt lat="42.0800283" lon="13.5907558"><ele>1008.9999999999999</ele><time>2026-05-02T12:18:56.128Z</time></trkpt><trkpt lat="42.0800958" lon="13.590804"><ele>1009.0</ele><time>2026-05-02T12:18:57.127Z</time></trkpt><trkpt lat="42.0801688" lon="13.5908649"><ele>1008.9999999999999</ele><time>2026-05-02T12:18:58.128Z</time></trkpt><trkpt lat="42.0802448" lon="13.5909215"><ele>1009.0</ele><time>2026-05-02T12:18:59.128Z</time></trkpt><trkpt lat="42.080317" lon="13.5909688"><ele>1009.0</ele><time>2026-05-02T12:19:00.127Z</time></trkpt><trkpt lat="42.0803775" lon="13.5910151"><ele>1009.0</ele><time>2026-05-02T12:19:01.127Z</time></trkpt><trkpt lat="42.0804383" lon="13.5910613"><ele>1008.9999999999999</ele><time>2026-05-02T12:19:02.127Z</time></trkpt><trkpt lat="42.0805012" lon="13.5911039"><ele>1009.0</ele><time>2026-05-02T12:19:03.127Z</time></trkpt><trkpt lat="42.0806" lon="13.5911774"><ele>1008.9999999999999</ele><time>2026-05-02T12:19:05.127Z</time></trkpt><trkpt lat="42.0806603" lon="13.5912317"><ele>1009.0</ele><time>2026-05-02T12:19:07.128Z</time></trkpt><trkpt lat="42.0807345" lon="13.5912716"><ele>1009.0</ele><time>2026-05-02T12:19:19.127Z</time></trkpt><trkpt lat="42.0806823" lon="13.591197"><ele>1009.0</ele><time>2026-05-02T12:19:26.129Z</time></trkpt><trkpt lat="42.0806217" lon="13.5911634"><ele>1008.9999999999999</ele><time>2026-05-02T12:19:29.128Z</time></trkpt><trkpt lat="42.080554" lon="13.5911543"><ele>1009.0</ele><time>2026-05-02T12:19:34.128Z</time></trkpt><trkpt lat="42.0806621" lon="13.591211"><ele>1008.9999999999999</ele><time>2026-05-02T12:19:37.127Z</time></trkpt><trkpt lat="42.0807331" lon="13.5912354"><ele>1009.0</ele><time>2026-05-02T12:19:39.127Z</time></trkpt><trkpt lat="42.0807859" lon="13.591167"><ele>1009.0</ele><time>2026-05-02T12:19:42.128Z</time></trkpt><trkpt lat="42.0807842" lon="13.5910677"><ele>1009.0</ele><time>2026-05-02T12:19:44.128Z</time></trkpt><trkpt lat="42.0807233" lon="13.5909549"><ele>1008.9999999999999</ele><time>2026-05-02T12:19:46.127Z</time></trkpt><trkpt lat="42.0806702" lon="13.5909032"><ele>1009.0</ele><time>2026-05-02T12:19:47.128Z</time></trkpt><trkpt lat="42.0806089" lon="13.5908538"><ele>1008.9999999999999</ele><time>2026-05-02T12:19:48.127Z</time></trkpt><trkpt lat="42.0805455" lon="13.590803"><ele>1009.0</ele><time>2026-05-02T12:19:49.129Z</time></trkpt><trkpt lat="42.0804747" lon="13.5907443"><ele>1009.0</ele><time>2026-05-02T12:19:50.128Z</time></trkpt><trkpt lat="42.0803992" lon="13.5906804"><ele>1009.0</ele><time>2026-05-02T12:19:51.128Z</time></trkpt><trkpt lat="42.0803218" lon="13.5906198"><ele>1008.9999999999999</ele><time>2026-05-02T12:19:52.128Z</time></trkpt><trkpt lat="42.0802413" lon="13.5905503"><ele>1009.0</ele><time>2026-05-02T12:19:53.128Z</time></trkpt><trkpt lat="42.080174" lon="13.5904855"><ele>1008.9999999999999</ele><time>2026-05-02T12:19:54.129Z</time></trkpt><trkpt lat="42.0801277" lon="13.5904116"><ele>1009.0</ele><time>2026-05-02T12:19:55.127Z</time></trkpt><trkpt lat="42.0801189" lon="13.590289"><ele>1009.0</ele><time>2026-05-02T12:19:57.128Z</time></trkpt><trkpt lat="42.0801615" lon="13.59021"><ele>1009.0</ele><time>2026-05-02T12:19:59.127Z</time></trkpt><trkpt lat="42.0802121" lon="13.5900571"><ele>1008.9999999999999</ele><time>2026-05-02T12:20:01.128Z</time></trkpt><trkpt lat="42.0802394" lon="13.5899585"><ele>1009.0</ele><time>2026-05-02T12:20:02.128Z</time></trkpt><trkpt lat="42.0802669" lon="13.5898666"><ele>1009.3333333333333</ele><time>2026-05-02T12:20:03.127Z</time></trkpt><trkpt lat="42.0803003" lon="13.5897445"><ele>1009.6666666666666</ele><time>2026-05-02T12:20:05.128Z</time></trkpt><trkpt lat="42.0803278" lon="13.5896611"><ele>1010.0</ele><time>2026-05-02T12:20:08.128Z</time></trkpt><trkpt lat="42.0803027" lon="13.5897436"><ele>1010.3333333333333</ele><time>2026-05-02T12:20:17.127Z</time></trkpt><trkpt lat="42.0802579" lon="13.5898969"><ele>1010.6666666666666</ele><time>2026-05-02T12:20:19.127Z</time></trkpt><trkpt lat="42.080225" lon="13.5899919"><ele>1011.0</ele><time>2026-05-02T12:20:20.127Z</time></trkpt><trkpt lat="42.0801978" lon="13.5900686"><ele>1011.0</ele><time>2026-05-02T12:20:21.129Z</time></trkpt><trkpt lat="42.0801873" lon="13.5902007"><ele>1011.0</ele><time>2026-05-02T12:20:23.127Z</time></trkpt><trkpt lat="42.0802495" lon="13.5903055"><ele>1011.0</ele><time>2026-05-02T12:20:25.128Z</time></trkpt><trkpt lat="42.0803087" lon="13.5903457"><ele>1011.0</ele><time>2026-05-02T12:20:26.128Z</time></trkpt><trkpt lat="42.080374" lon="13.5903741"><ele>1011.0</ele><time>2026-05-02T12:20:27.127Z</time></trkpt><trkpt lat="42.0804375" lon="13.590397"><ele>1011.0</ele><time>2026-05-02T12:20:28.127Z</time></trkpt><trkpt lat="42.0805508" lon="13.5904303"><ele>1010.6666666666666</ele><time>2026-05-02T12:20:30.127Z</time></trkpt><trkpt lat="42.0806188" lon="13.5904444"><ele>1010.3333333333333</ele><time>2026-05-02T12:20:31.129Z</time></trkpt><trkpt lat="42.0806945" lon="13.5904571"><ele>1010.0</ele><time>2026-05-02T12:20:32.127Z</time></trkpt><trkpt lat="42.080773" lon="13.5904765"><ele>1009.6666666666666</ele><time>2026-05-02T12:20:33.127Z</time></trkpt><trkpt lat="42.0808504" lon="13.590504"><ele>1009.3333333333333</ele><time>2026-05-02T12:20:34.128Z</time></trkpt><trkpt lat="42.0809251" lon="13.5905303"><ele>1009.0</ele><time>2026-05-02T12:20:35.128Z</time></trkpt><trkpt lat="42.0810102" lon="13.5905579"><ele>1010.8333333333333</ele><time>2026-05-02T12:20:36.127Z</time></trkpt><trkpt lat="42.0810912" lon="13.5905855"><ele>1012.6666666666666</ele><time>2026-05-02T12:20:37.127Z</time></trkpt><trkpt lat="42.0811625" lon="13.5906088"><ele>1014.5</ele><time>2026-05-02T12:20:38.128Z</time></trkpt><trkpt lat="42.0812646" lon="13.5906219"><ele>1016.3333333333333</ele><time>2026-05-02T12:20:40.127Z</time></trkpt><trkpt lat="42.0813144" lon="13.5905512"><ele>1018.1666666666666</ele><time>2026-05-02T12:20:42.127Z</time></trkpt><trkpt lat="42.0813435" lon="13.5904692"><ele>1020.0</ele><time>2026-05-02T12:20:44.129Z</time></trkpt><trkpt lat="42.0813524" lon="13.5903639"><ele>1020.75</ele><time>2026-05-02T12:20:47.127Z</time></trkpt><trkpt lat="42.0813617" lon="13.590279"><ele>1021.5</ele><time>2026-05-02T12:20:49.127Z</time></trkpt><trkpt lat="42.0813556" lon="13.5901817"><ele>1022.25</ele><time>2026-05-02T12:20:51.128Z</time></trkpt><trkpt lat="42.0813873" lon="13.5900895"><ele>1023.0</ele><time>2026-05-02T12:20:54.127Z</time></trkpt><trkpt lat="42.0802495" lon="13.5903055"><ele>1020.6666666666666</ele><time>2026-05-02T12:20:25.128Z</time></trkpt><trkpt lat="42.0803087" lon="13.5903457"><ele>1018.3333333333333</ele><time>2026-05-02T12:20:26.128Z</time></trkpt><trkpt lat="42.080374" lon="13.5903741"><ele>1016.0</ele><time>2026-05-02T12:20:27.127Z</time></trkpt><trkpt lat="42.0804375" lon="13.590397"><ele>1013.6666666666666</ele><time>2026-05-02T12:20:28.127Z</time></trkpt><trkpt lat="42.0805508" lon="13.5904303"><ele>1011.3333333333333</ele><time>2026-05-02T12:20:30.127Z</time></trkpt><trkpt lat="42.0806188" lon="13.5904444"><ele>1009.0</ele><time>2026-05-02T12:20:31.129Z</time></trkpt><trkpt lat="42.0806945" lon="13.5904571"><ele>1010.8333333333333</ele><time>2026-05-02T12:20:32.127Z</time></trkpt><trkpt lat="42.080773" lon="13.5904765"><ele>1012.6666666666666</ele><time>2026-05-02T12:20:33.127Z</time></trkpt><trkpt lat="42.0808504" lon="13.590504"><ele>1014.5</ele><time>2026-05-02T12:20:34.128Z</time></trkpt><trkpt lat="42.0809251" lon="13.5905303"><ele>1016.3333333333333</ele><time>2026-05-02T12:20:35.128Z</time></trkpt><trkpt lat="42.0810102" lon="13.5905579"><ele>1018.1666666666666</ele><time>2026-05-02T12:20:36.127Z</time></trkpt><trkpt lat="42.0810912" lon="13.5905855"><ele>1020.0</ele><time>2026-05-02T12:20:37.127Z</time></trkpt><trkpt lat="42.0811625" lon="13.5906088"><ele>1020.0</ele><time>2026-05-02T12:20:38.128Z</time></trkpt><trkpt lat="42.0812646" lon="13.5906219"><ele>1020.0</ele><time>2026-05-02T12:20:40.127Z</time></trkpt><trkpt lat="42.0813144" lon="13.5905512"><ele>1020.0</ele><time>2026-05-02T12:20:42.127Z</time></trkpt><trkpt lat="42.0813435" lon="13.5904692"><ele>1020.0</ele><time>2026-05-02T12:20:44.129Z</time></trkpt><trkpt lat="42.0813524" lon="13.5903639"><ele>1020.0</ele><time>2026-05-02T12:20:47.127Z</time></trkpt><trkpt lat="42.0813617" lon="13.590279"><ele>1020.0</ele><time>2026-05-02T12:20:49.127Z</time></trkpt><trkpt lat="42.0813556" lon="13.5901817"><ele>1020.6</ele><time>2026-05-02T12:20:51.128Z</time></trkpt><trkpt lat="42.0813873" lon="13.5900895"><ele>1021.2</ele><time>2026-05-02T12:20:54.127Z</time></trkpt><trkpt lat="42.0814992" lon="13.590084"><ele>1021.8</ele><time>2026-05-02T12:20:56.128Z</time></trkpt><trkpt lat="42.0816093" lon="13.590037"><ele>1022.4</ele><time>2026-05-02T12:20:58.126Z</time></trkpt><trkpt lat="42.0817093" lon="13.5899176"><ele>1023.0</ele><time>2026-05-02T12:21:00.127Z</time></trkpt><trkpt lat="42.0817665" lon="13.5898546"><ele>1023.3333333333334</ele><time>2026-05-02T12:21:01.126Z</time></trkpt><trkpt lat="42.0818271" lon="13.5898169"><ele>1023.6666666666667</ele><time>2026-05-02T12:21:02.126Z</time></trkpt><trkpt lat="42.0818915" lon="13.5897865"><ele>1024.0</ele><time>2026-05-02T12:21:03.126Z</time></trkpt><trkpt lat="42.0819874" lon="13.5897613"><ele>1024.3333333333335</ele><time>2026-05-02T12:21:05.126Z</time></trkpt><trkpt lat="42.0820639" lon="13.5897329"><ele>1024.6666666666667</ele><time>2026-05-02T12:21:07.127Z</time></trkpt><trkpt lat="42.0821667" lon="13.589709"><ele>1025.0</ele><time>2026-05-02T12:21:09.128Z</time></trkpt><trkpt lat="42.0822856" lon="13.5896954"><ele>1024.9999999999998</ele><time>2026-05-02T12:21:11.127Z</time></trkpt><trkpt lat="42.08235" lon="13.5896987"><ele>1025.0</ele><time>2026-05-02T12:21:12.126Z</time></trkpt><trkpt lat="42.0824134" lon="13.5896948"><ele>1025.0</ele><time>2026-05-02T12:21:13.126Z</time></trkpt><trkpt lat="42.0824806" lon="13.5896917"><ele>1025.0</ele><time>2026-05-02T12:21:14.127Z</time></trkpt><trkpt lat="42.0825435" lon="13.5896995"><ele>1025.0</ele><time>2026-05-02T12:21:15.127Z</time></trkpt><trkpt lat="42.0826116" lon="13.5897009"><ele>1024.9999999999998</ele><time>2026-05-02T12:21:16.127Z</time></trkpt><trkpt lat="42.0827082" lon="13.5897314"><ele>1025.0</ele><time>2026-05-02T12:21:18.126Z</time></trkpt><trkpt lat="42.0827839" lon="13.5897641"><ele>1025.5</ele><time>2026-05-02T12:21:20.127Z</time></trkpt><trkpt lat="42.0827704" lon="13.5896648"><ele>1026.0</ele><time>2026-05-02T12:21:24.126Z</time></trkpt><trkpt lat="42.082702" lon="13.5895754"><ele>1026.5</ele><time>2026-05-02T12:21:26.127Z</time></trkpt><trkpt lat="42.0827031" lon="13.5894731"><ele>1027.0</ele><time>2026-05-02T12:21:27.127Z</time></trkpt><trkpt lat="42.0826887" lon="13.5893723"><ele>1027.5</ele><time>2026-05-02T12:21:28.126Z</time></trkpt><trkpt lat="42.0826687" lon="13.5892805"><ele>1028.0</ele><time>2026-05-02T12:21:29.126Z</time></trkpt><trkpt lat="42.0826256" lon="13.5891184"><ele>1024.6666666666667</ele><time>2026-05-02T12:21:31.127Z</time></trkpt><trkpt lat="42.0826053" lon="13.5889659"><ele>1021.3333333333334</ele><time>2026-05-02T12:21:33.126Z</time></trkpt><trkpt lat="42.0825861" lon="13.5888681"><ele>1018.0</ele><time>2026-05-02T12:21:35.126Z</time></trkpt><trkpt lat="42.0825721" lon="13.5887678"><ele>1014.6666666666667</ele><time>2026-05-02T12:21:42.126Z</time></trkpt><trkpt lat="42.0825323" lon="13.5886822"><ele>1011.3333333333334</ele><time>2026-05-02T12:21:45.128Z</time></trkpt><trkpt lat="42.0826076" lon="13.5886817"><ele>1008.0</ele><time>2026-05-02T12:21:47.127Z</time></trkpt><trkpt lat="42.0827208" lon="13.5887056"><ele>1008.0</ele><time>2026-05-02T12:21:49.126Z</time></trkpt><trkpt lat="42.0827981" lon="13.5887219"><ele>1008.0</ele><time>2026-05-02T12:21:50.127Z</time></trkpt><trkpt lat="42.0828927" lon="13.5887471"><ele>1008.0</ele><time>2026-05-02T12:21:51.128Z</time></trkpt><trkpt lat="42.0829857" lon="13.5887761"><ele>1008.0</ele><time>2026-05-02T12:21:52.126Z</time></trkpt><trkpt lat="42.0830889" lon="13.5887913"><ele>1008.0</ele><time>2026-05-02T12:21:53.127Z</time></trkpt><trkpt lat="42.0831837" lon="13.5888112"><ele>1005.75</ele><time>2026-05-02T12:21:54.127Z</time></trkpt><trkpt lat="42.0833003" lon="13.5888203"><ele>1003.5</ele><time>2026-05-02T12:21:55.127Z</time></trkpt><trkpt lat="42.0834082" lon="13.5888311"><ele>1001.25</ele><time>2026-05-02T12:21:56.126Z</time></trkpt><trkpt lat="42.0835233" lon="13.5888315"><ele>999.0</ele><time>2026-05-02T12:21:57.126Z</time></trkpt><trkpt lat="42.0836359" lon="13.5888305"><ele>999.0</ele><time>2026-05-02T12:21:58.127Z</time></trkpt><trkpt lat="42.0837459" lon="13.58883"><ele>999.0000000000001</ele><time>2026-05-02T12:21:59.126Z</time></trkpt><trkpt lat="42.0838507" lon="13.5888382"><ele>999.0000000000001</ele><time>2026-05-02T12:22:00.127Z</time></trkpt><trkpt lat="42.0839568" lon="13.5888574"><ele>999.0</ele><time>2026-05-02T12:22:01.127Z</time></trkpt><trkpt lat="42.0840604" lon="13.5888532"><ele>999.0</ele><time>2026-05-02T12:22:02.126Z</time></trkpt><trkpt lat="42.084163" lon="13.5888281"><ele>997.0</ele><time>2026-05-02T12:22:03.128Z</time></trkpt><trkpt lat="42.0842623" lon="13.5888161"><ele>995.0000000000001</ele><time>2026-05-02T12:22:04.127Z</time></trkpt><trkpt lat="42.084362" lon="13.588812"><ele>993.0000000000001</ele><time>2026-05-02T12:22:05.127Z</time></trkpt><trkpt lat="42.0844624" lon="13.5888013"><ele>991.0</ele><time>2026-05-02T12:22:06.127Z</time></trkpt><trkpt lat="42.0845606" lon="13.588781"><ele>989.0</ele><time>2026-05-02T12:22:07.126Z</time></trkpt><trkpt lat="42.0846433" lon="13.5887693"><ele>989.0</ele><time>2026-05-02T12:22:08.127Z</time></trkpt><trkpt lat="42.0847089" lon="13.5887593"><ele>989.0000000000001</ele><time>2026-05-02T12:22:09.126Z</time></trkpt><trkpt lat="42.0847875" lon="13.5887204"><ele>989.0000000000001</ele><time>2026-05-02T12:22:11.127Z</time></trkpt><trkpt lat="42.084749" lon="13.5886155"><ele>989.0</ele><time>2026-05-02T12:22:14.126Z</time></trkpt><trkpt lat="42.0846052" lon="13.588626"><ele>989.0</ele><time>2026-05-02T12:22:16.127Z</time></trkpt><trkpt lat="42.084529" lon="13.5886096"><ele>985.5000000000001</ele><time>2026-05-02T12:22:17.126Z</time></trkpt><trkpt lat="42.0844614" lon="13.5885544"><ele>982.0</ele><time>2026-05-02T12:22:18.127Z</time></trkpt><trkpt lat="42.0843905" lon="13.5885151"><ele>978.5</ele><time>2026-05-02T12:22:19.126Z</time></trkpt><trkpt lat="42.0843053" lon="13.5884083"><ele>975.0</ele><time>2026-05-02T12:22:20.127Z</time></trkpt><trkpt lat="42.0842477" lon="13.5883466"><ele>971.5000000000001</ele><time>2026-05-02T12:22:21.126Z</time></trkpt><trkpt lat="42.0842013" lon="13.5882732"><ele>968.0</ele><time>2026-05-02T12:22:22.126Z</time></trkpt><trkpt lat="42.0841733" lon="13.5881439"><ele>968.0</ele><time>2026-05-02T12:22:24.126Z</time></trkpt><trkpt lat="42.0842336" lon="13.5880344"><ele>968.0</ele><time>2026-05-02T12:22:26.127Z</time></trkpt><trkpt lat="42.0843418" lon="13.5879518"><ele>968.0</ele><time>2026-05-02T12:22:28.127Z</time></trkpt><trkpt lat="42.0844288" lon="13.5878517"><ele>968.0</ele><time>2026-05-02T12:22:30.127Z</time></trkpt><trkpt lat="42.0844726" lon="13.5877904"><ele>968.0</ele><time>2026-05-02T12:22:31.126Z</time></trkpt><trkpt lat="42.0845178" lon="13.5877189"><ele>965.4</ele><time>2026-05-02T12:22:32.126Z</time></trkpt><trkpt lat="42.0845696" lon="13.5876287"><ele>962.8</ele><time>2026-05-02T12:22:33.127Z</time></trkpt><trkpt lat="42.0846283" lon="13.5875334"><ele>960.2</ele><time>2026-05-02T12:22:34.127Z</time></trkpt><trkpt lat="42.0846997" lon="13.587438"><ele>957.6</ele><time>2026-05-02T12:22:35.126Z</time></trkpt><trkpt lat="42.0847723" lon="13.5873514"><ele>955.0</ele><time>2026-05-02T12:22:36.126Z</time></trkpt><trkpt lat="42.0848539" lon="13.5872656"><ele>954.2</ele><time>2026-05-02T12:22:37.127Z</time></trkpt><trkpt lat="42.0849474" lon="13.587194"><ele>953.4</ele><time>2026-05-02T12:22:38.127Z</time></trkpt><trkpt lat="42.0850467" lon="13.5871398"><ele>952.5999999999999</ele><time>2026-05-02T12:22:39.126Z</time></trkpt><trkpt lat="42.0851509" lon="13.5871009"><ele>951.8</ele><time>2026-05-02T12:22:40.127Z</time></trkpt><trkpt lat="42.0852472" lon="13.5870577"><ele>951.0</ele><time>2026-05-02T12:22:41.126Z</time></trkpt><trkpt lat="42.0853392" lon="13.5870152"><ele>950.1428571428571</ele><time>2026-05-02T12:22:42.126Z</time></trkpt><trkpt lat="42.0854028" lon="13.5869705"><ele>949.2857142857143</ele><time>2026-05-02T12:22:43.126Z</time></trkpt><trkpt lat="42.0854712" lon="13.5869238"><ele>948.4285714285714</ele><time>2026-05-02T12:22:44.127Z</time></trkpt><trkpt lat="42.0854953" lon="13.586824"><ele>947.5714285714286</ele><time>2026-05-02T12:22:45.126Z</time></trkpt><trkpt lat="42.0855232" lon="13.5867323"><ele>946.7142857142858</ele><time>2026-05-02T12:22:46.126Z</time></trkpt><trkpt lat="42.0855255" lon="13.5866375"><ele>945.8571428571429</ele><time>2026-05-02T12:22:47.127Z</time></trkpt><trkpt lat="42.0855053" lon="13.5865475"><ele>945.0</ele><time>2026-05-02T12:22:48.126Z</time></trkpt><trkpt lat="42.0854727" lon="13.586471"><ele>945.0</ele><time>2026-05-02T12:22:49.126Z</time></trkpt><trkpt lat="42.0854169" lon="13.5863365"><ele>945.0</ele><time>2026-05-02T12:22:51.126Z</time></trkpt><trkpt lat="42.0853843" lon="13.5862495"><ele>945.0</ele><time>2026-05-02T12:22:53.126Z</time></trkpt><trkpt lat="42.0853615" lon="13.5861548"><ele>945.0</ele><time>2026-05-02T12:22:56.127Z</time></trkpt><trkpt lat="42.0853412" lon="13.5860305"><ele>945.0</ele><time>2026-05-02T12:22:58.127Z</time></trkpt><trkpt lat="42.0853435" lon="13.5859042"><ele>945.0</ele><time>2026-05-02T12:23:00.126Z</time></trkpt><trkpt lat="42.0853618" lon="13.585806"><ele>944.8</ele><time>2026-05-02T12:23:03.126Z</time></trkpt><trkpt lat="42.0853891" lon="13.585724"><ele>944.6</ele><time>2026-05-02T12:23:05.128Z</time></trkpt><trkpt lat="42.0854491" lon="13.5855834"><ele>944.4000000000001</ele><time>2026-05-02T12:23:07.128Z</time></trkpt><trkpt lat="42.0854832" lon="13.5854835"><ele>944.2</ele><time>2026-05-02T12:23:08.126Z</time></trkpt><trkpt lat="42.0855224" lon="13.585366"><ele>944.0</ele><time>2026-05-02T12:23:09.127Z</time></trkpt><trkpt lat="42.0855721" lon="13.5852338"><ele>943.5</ele><time>2026-05-02T12:23:10.126Z</time></trkpt><trkpt lat="42.0856242" lon="13.5850886"><ele>943.0</ele><time>2026-05-02T12:23:11.127Z</time></trkpt><trkpt lat="42.0856803" lon="13.5849358"><ele>942.5</ele><time>2026-05-02T12:23:12.126Z</time></trkpt><trkpt lat="42.0857403" lon="13.5847777"><ele>942.0</ele><time>2026-05-02T12:23:13.127Z</time></trkpt><trkpt lat="42.0857923" lon="13.5846451"><ele>945.1666666666666</ele><time>2026-05-02T12:23:14.127Z</time></trkpt><trkpt lat="42.0858436" lon="13.5845525"><ele>948.3333333333333</ele><time>2026-05-02T12:23:15.126Z</time></trkpt><trkpt lat="42.0858968" lon="13.5844816"><ele>951.5</ele><time>2026-05-02T12:23:16.126Z</time></trkpt><trkpt lat="42.0859576" lon="13.5844044"><ele>954.6666666666666</ele><time>2026-05-02T12:23:17.127Z</time></trkpt><trkpt lat="42.0860104" lon="13.5843581"><ele>957.8333333333333</ele><time>2026-05-02T12:23:18.126Z</time></trkpt><trkpt lat="42.0860874" lon="13.5843188"><ele>961.0</ele><time>2026-05-02T12:23:20.128Z</time></trkpt><trkpt lat="42.0861308" lon="13.5842493"><ele>961.5999999999999</ele><time>2026-05-02T12:23:23.127Z</time></trkpt><trkpt lat="42.0861148" lon="13.5841335"><ele>962.1999999999999</ele><time>2026-05-02T12:23:25.127Z</time></trkpt><trkpt lat="42.0860948" lon="13.5840274"><ele>962.8000000000001</ele><time>2026-05-02T12:23:26.127Z</time></trkpt><trkpt lat="42.0860682" lon="13.5838941"><ele>963.4000000000001</ele><time>2026-05-02T12:23:27.126Z</time></trkpt><trkpt lat="42.0860282" lon="13.5837291"><ele>964.0</ele><time>2026-05-02T12:23:28.126Z</time></trkpt><trkpt lat="42.0859732" lon="13.5835506"><ele>964.75</ele><time>2026-05-02T12:23:29.128Z</time></trkpt><trkpt lat="42.0859094" lon="13.5833898"><ele>965.5</ele><time>2026-05-02T12:23:30.127Z</time></trkpt><trkpt lat="42.0858394" lon="13.5832405"><ele>966.25</ele><time>2026-05-02T12:23:31.126Z</time></trkpt><trkpt lat="42.0857703" lon="13.5830983"><ele>967.0</ele><time>2026-05-02T12:23:32.126Z</time></trkpt><trkpt lat="42.0856892" lon="13.5829465"><ele>965.25</ele><time>2026-05-02T12:23:33.126Z</time></trkpt><trkpt lat="42.0856166" lon="13.5828019"><ele>963.5</ele><time>2026-05-02T12:23:34.128Z</time></trkpt><trkpt lat="42.0855446" lon="13.5826494"><ele>961.75</ele><time>2026-05-02T12:23:35.127Z</time></trkpt><trkpt lat="42.0854991" lon="13.5824776"><ele>960.0</ele><time>2026-05-02T12:23:36.126Z</time></trkpt><trkpt lat="42.0854387" lon="13.582293"><ele>960.0</ele><time>2026-05-02T12:23:37.126Z</time></trkpt><trkpt lat="42.0853858" lon="13.5821022"><ele>960.0</ele><time>2026-05-02T12:23:38.127Z</time></trkpt><trkpt lat="42.085334" lon="13.581928"><ele>960.0</ele><time>2026-05-02T12:23:39.126Z</time></trkpt><trkpt lat="42.0852587" lon="13.5817432"><ele>960.0</ele><time>2026-05-02T12:23:40.126Z</time></trkpt><trkpt lat="42.0851936" lon="13.5815528"><ele>962.25</ele><time>2026-05-02T12:23:41.126Z</time></trkpt><trkpt lat="42.08513" lon="13.5813842"><ele>964.5</ele><time>2026-05-02T12:23:42.126Z</time></trkpt><trkpt lat="42.0850773" lon="13.5812288"><ele>966.75</ele><time>2026-05-02T12:23:43.126Z</time></trkpt><trkpt lat="42.0850285" lon="13.5810806"><ele>969.0</ele><time>2026-05-02T12:23:44.126Z</time></trkpt><trkpt lat="42.0849852" lon="13.5809335"><ele>970.0</ele><time>2026-05-02T12:23:45.126Z</time></trkpt><trkpt lat="42.0849491" lon="13.5808054"><ele>971.0</ele><time>2026-05-02T12:23:46.126Z</time></trkpt><trkpt lat="42.0849193" lon="13.5806905"><ele>972.0</ele><time>2026-05-02T12:23:47.126Z</time></trkpt><trkpt lat="42.0848886" lon="13.5805849"><ele>973.0</ele><time>2026-05-02T12:23:48.126Z</time></trkpt><trkpt lat="42.0848672" lon="13.5804863"><ele>974.0</ele><time>2026-05-02T12:23:49.127Z</time></trkpt><trkpt lat="42.0848571" lon="13.5804003"><ele>975.0</ele><time>2026-05-02T12:23:50.127Z</time></trkpt><trkpt lat="42.0848517" lon="13.5803122"><ele>975.8333333333334</ele><time>2026-05-02T12:23:51.128Z</time></trkpt><trkpt lat="42.0848426" lon="13.580223"><ele>976.6666666666667</ele><time>2026-05-02T12:23:52.128Z</time></trkpt><trkpt lat="42.0848345" lon="13.5801145"><ele>977.5</ele><time>2026-05-02T12:23:53.127Z</time></trkpt><trkpt lat="42.0848358" lon="13.5799941"><ele>978.3333333333334</ele><time>2026-05-02T12:23:54.127Z</time></trkpt><trkpt lat="42.084847" lon="13.5798925"><ele>979.1666666666667</ele><time>2026-05-02T12:23:55.126Z</time></trkpt><trkpt lat="42.0848656" lon="13.5797888"><ele>980.0</ele><time>2026-05-02T12:23:56.126Z</time></trkpt><trkpt lat="42.0848972" lon="13.5796974"><ele>979.6666666666667</ele><time>2026-05-02T12:23:57.126Z</time></trkpt><trkpt lat="42.0849375" lon="13.5796113"><ele>979.3333333333334</ele><time>2026-05-02T12:23:58.126Z</time></trkpt><trkpt lat="42.0849862" lon="13.5795195"><ele>979.0</ele><time>2026-05-02T12:23:59.126Z</time></trkpt><trkpt lat="42.0850285" lon="13.579433"><ele>978.6666666666667</ele><time>2026-05-02T12:24:00.127Z</time></trkpt><trkpt lat="42.0850766" lon="13.5793594"><ele>978.3333333333334</ele><time>2026-05-02T12:24:01.127Z</time></trkpt><trkpt lat="42.0851361" lon="13.5792827"><ele>978.0</ele><time>2026-05-02T12:24:02.126Z</time></trkpt><trkpt lat="42.0852161" lon="13.5791771"><ele>975.2</ele><time>2026-05-02T12:24:03.127Z</time></trkpt><trkpt lat="42.0853005" lon="13.5790727"><ele>972.4</ele><time>2026-05-02T12:24:04.127Z</time></trkpt><trkpt lat="42.0853811" lon="13.5789741"><ele>969.6000000000001</ele><time>2026-05-02T12:24:05.126Z</time></trkpt><trkpt lat="42.0854533" lon="13.5788658"><ele>966.8000000000001</ele><time>2026-05-02T12:24:06.126Z</time></trkpt><trkpt lat="42.0855243" lon="13.5787541"><ele>964.0</ele><time>2026-05-02T12:24:07.127Z</time></trkpt><trkpt lat="42.0855944" lon="13.5786495"><ele>963.6</ele><time>2026-05-02T12:24:08.126Z</time></trkpt><trkpt lat="42.0856648" lon="13.578542"><ele>963.2</ele><time>2026-05-02T12:24:09.127Z</time></trkpt><trkpt lat="42.085725" lon="13.5784287"><ele>962.8000000000001</ele><time>2026-05-02T12:24:10.126Z</time></trkpt><trkpt lat="42.0857818" lon="13.5783148"><ele>962.4000000000001</ele><time>2026-05-02T12:24:11.127Z</time></trkpt><trkpt lat="42.0858402" lon="13.5782023"><ele>962.0</ele><time>2026-05-02T12:24:12.127Z</time></trkpt><trkpt lat="42.0858834" lon="13.5781047"><ele>962.0000000000001</ele><time>2026-05-02T12:24:13.126Z</time></trkpt><trkpt lat="42.085917" lon="13.5780031"><ele>962.0</ele><time>2026-05-02T12:24:14.127Z</time></trkpt><trkpt lat="42.0859357" lon="13.5779013"><ele>962.0</ele><time>2026-05-02T12:24:15.127Z</time></trkpt><trkpt lat="42.0859515" lon="13.5777913"><ele>962.0</ele><time>2026-05-02T12:24:16.127Z</time></trkpt><trkpt lat="42.0859774" lon="13.5776916"><ele>962.0000000000001</ele><time>2026-05-02T12:24:17.127Z</time></trkpt><trkpt lat="42.0860025" lon="13.5776076"><ele>962.0</ele><time>2026-05-02T12:24:18.126Z</time></trkpt><trkpt lat="42.0860368" lon="13.5774976"><ele>959.5000000000001</ele><time>2026-05-02T12:24:20.126Z</time></trkpt><trkpt lat="42.0860264" lon="13.5774089"><ele>957.0</ele><time>2026-05-02T12:24:23.126Z</time></trkpt><trkpt lat="42.0859481" lon="13.577369"><ele>954.5</ele><time>2026-05-02T12:24:26.127Z</time></trkpt><trkpt lat="42.0858305" lon="13.577364"><ele>952.0</ele><time>2026-05-02T12:24:28.126Z</time></trkpt><trkpt lat="42.0857623" lon="13.5773627"><ele>949.5000000000001</ele><time>2026-05-02T12:24:29.127Z</time></trkpt><trkpt lat="42.0856926" lon="13.5773598"><ele>947.0</ele><time>2026-05-02T12:24:30.126Z</time></trkpt><trkpt lat="42.0856197" lon="13.5773551"><ele>945.0</ele><time>2026-05-02T12:24:31.127Z</time></trkpt><trkpt lat="42.0855502" lon="13.5773516"><ele>942.9999999999999</ele><time>2026-05-02T12:24:32.127Z</time></trkpt><trkpt lat="42.0854739" lon="13.577352"><ele>941.0</ele><time>2026-05-02T12:24:33.127Z</time></trkpt><trkpt lat="42.0853972" lon="13.5773562"><ele>939.0</ele><time>2026-05-02T12:24:34.126Z</time></trkpt><trkpt lat="42.085323" lon="13.577362"><ele>936.9999999999999</ele><time>2026-05-02T12:24:35.128Z</time></trkpt><trkpt lat="42.0852489" lon="13.5773571"><ele>935.0</ele><time>2026-05-02T12:24:36.127Z</time></trkpt><trkpt lat="42.0851827" lon="13.5773578"><ele>933.0</ele><time>2026-05-02T12:24:37.126Z</time></trkpt><trkpt lat="42.085092" lon="13.577364"><ele>933.0</ele><time>2026-05-02T12:24:38.127Z</time></trkpt><trkpt lat="42.0850011" lon="13.5772869"><ele>933.0</ele><time>2026-05-02T12:24:40.126Z</time></trkpt><trkpt lat="42.0849737" lon="13.5772037"><ele>933.0</ele><time>2026-05-02T12:24:41.127Z</time></trkpt><trkpt lat="42.0850136" lon="13.577047"><ele>933.0</ele><time>2026-05-02T12:24:43.127Z</time></trkpt><trkpt lat="42.0850547" lon="13.5769827"><ele>933.0</ele><time>2026-05-02T12:24:44.127Z</time></trkpt><trkpt lat="42.085104" lon="13.5769289"><ele>933.0</ele><time>2026-05-02T12:24:45.128Z</time></trkpt><trkpt lat="42.0851975" lon="13.5768235"><ele>930.0</ele><time>2026-05-02T12:24:47.126Z</time></trkpt><trkpt lat="42.0852926" lon="13.5767255"><ele>927.0</ele><time>2026-05-02T12:24:49.127Z</time></trkpt><trkpt lat="42.0853675" lon="13.5766142"><ele>924.0</ele><time>2026-05-02T12:24:51.126Z</time></trkpt><trkpt lat="42.0854014" lon="13.576527"><ele>921.0</ele><time>2026-05-02T12:24:53.126Z</time></trkpt><trkpt lat="42.0853318" lon="13.5764533"><ele>918.0</ele><time>2026-05-02T12:24:56.127Z</time></trkpt><trkpt lat="42.0852344" lon="13.5764717"><ele>918.0</ele><time>2026-05-02T12:24:58.126Z</time></trkpt><trkpt lat="42.0851255" lon="13.5764789"><ele>918.0</ele><time>2026-05-02T12:25:00.127Z</time></trkpt><trkpt lat="42.0850596" lon="13.5764361"><ele>918.0</ele><time>2026-05-02T12:25:01.127Z</time></trkpt><trkpt lat="42.0849917" lon="13.5763873"><ele>918.0</ele><time>2026-05-02T12:25:02.127Z</time></trkpt><trkpt lat="42.0849166" lon="13.5763461"><ele>918.0</ele><time>2026-05-02T12:25:03.127Z</time></trkpt><trkpt lat="42.0848434" lon="13.5763176"><ele>918.0</ele><time>2026-05-02T12:25:04.127Z</time></trkpt><trkpt lat="42.0847652" lon="13.5762706"><ele>916.8333333333334</ele><time>2026-05-02T12:25:05.127Z</time></trkpt><trkpt lat="42.0846985" lon="13.576264"><ele>915.6666666666667</ele><time>2026-05-02T12:25:06.127Z</time></trkpt><trkpt lat="42.084618" lon="13.5762435"><ele>914.5</ele><time>2026-05-02T12:25:07.127Z</time></trkpt><trkpt lat="42.0845245" lon="13.5762494"><ele>913.3333333333334</ele><time>2026-05-02T12:25:08.127Z</time></trkpt><trkpt lat="42.0844239" lon="13.576237"><ele>912.1666666666667</ele><time>2026-05-02T12:25:09.127Z</time></trkpt><trkpt lat="42.0843322" lon="13.5762155"><ele>911.0</ele><time>2026-05-02T12:25:10.127Z</time></trkpt><trkpt lat="42.0842581" lon="13.5762058"><ele>908.0</ele><time>2026-05-02T12:25:11.127Z</time></trkpt><trkpt lat="42.0841771" lon="13.576147"><ele>904.9999999999999</ele><time>2026-05-02T12:25:12.128Z</time></trkpt><trkpt lat="42.0840739" lon="13.5761308"><ele>901.9999999999999</ele><time>2026-05-02T12:25:14.128Z</time></trkpt><trkpt lat="42.08401" lon="13.5761129"><ele>899.0</ele><time>2026-05-02T12:25:15.127Z</time></trkpt><trkpt lat="42.0838864" lon="13.5760971"><ele>896.0</ele><time>2026-05-02T12:25:17.127Z</time></trkpt><trkpt lat="42.0838033" lon="13.5760883"><ele>895.5000000000001</ele><time>2026-05-02T12:25:18.126Z</time></trkpt><trkpt lat="42.0837214" lon="13.576094"><ele>895.0</ele><time>2026-05-02T12:25:19.126Z</time></trkpt><trkpt lat="42.0836439" lon="13.5760768"><ele>894.5</ele><time>2026-05-02T12:25:20.127Z</time></trkpt><trkpt lat="42.0835956" lon="13.5760107"><ele>894.0</ele><time>2026-05-02T12:25:21.127Z</time></trkpt><trkpt lat="42.0835347" lon="13.5759628"><ele>893.5000000000001</ele><time>2026-05-02T12:25:22.126Z</time></trkpt><trkpt lat="42.0834806" lon="13.5758862"><ele>893.0</ele><time>2026-05-02T12:25:23.126Z</time></trkpt><trkpt lat="42.0834279" lon="13.57582"><ele>893.0</ele><time>2026-05-02T12:25:24.127Z</time></trkpt><trkpt lat="42.0833848" lon="13.5757549"><ele>893.0</ele><time>2026-05-02T12:25:25.126Z</time></trkpt><trkpt lat="42.0833389" lon="13.5756869"><ele>893.0</ele><time>2026-05-02T12:25:26.127Z</time></trkpt><trkpt lat="42.0832966" lon="13.5756089"><ele>893.0</ele><time>2026-05-02T12:25:27.127Z</time></trkpt><trkpt lat="42.0832665" lon="13.5755307"><ele>893.0</ele><time>2026-05-02T12:25:28.127Z</time></trkpt><trkpt lat="42.0832197" lon="13.5754487"><ele>893.0</ele><time>2026-05-02T12:25:29.126Z</time></trkpt><trkpt lat="42.0831839" lon="13.5753534"><ele>893.0</ele><time>2026-05-02T12:25:30.126Z</time></trkpt><trkpt lat="42.0831399" lon="13.5752347"><ele>891.4</ele><time>2026-05-02T12:25:31.127Z</time></trkpt><trkpt lat="42.0831015" lon="13.5751075"><ele>889.8</ele><time>2026-05-02T12:25:32.127Z</time></trkpt><trkpt lat="42.0830503" lon="13.5749686"><ele>888.2</ele><time>2026-05-02T12:25:33.126Z</time></trkpt><trkpt lat="42.0830041" lon="13.5748312"><ele>886.6</ele><time>2026-05-02T12:25:34.126Z</time></trkpt><trkpt lat="42.0829661" lon="13.5747174"><ele>885.0</ele><time>2026-05-02T12:25:35.127Z</time></trkpt><trkpt lat="42.0829184" lon="13.5745961"><ele>883.8</ele><time>2026-05-02T12:25:36.126Z</time></trkpt><trkpt lat="42.0828659" lon="13.5744922"><ele>882.6</ele><time>2026-05-02T12:25:37.127Z</time></trkpt><trkpt lat="42.0828092" lon="13.5743678"><ele>881.4000000000001</ele><time>2026-05-02T12:25:38.126Z</time></trkpt><trkpt lat="42.0827546" lon="13.5742531"><ele>880.2</ele><time>2026-05-02T12:25:39.126Z</time></trkpt><trkpt lat="42.0826925" lon="13.5741461"><ele>879.0</ele><time>2026-05-02T12:25:40.127Z</time></trkpt><trkpt lat="42.082633" lon="13.5740291"><ele>879.0</ele><time>2026-05-02T12:25:41.126Z</time></trkpt><trkpt lat="42.0825727" lon="13.573907"><ele>879.0000000000001</ele><time>2026-05-02T12:25:42.126Z</time></trkpt><trkpt lat="42.0825035" lon="13.573791"><ele>879.0000000000001</ele><time>2026-05-02T12:25:43.127Z</time></trkpt><trkpt lat="42.0824431" lon="13.5736826"><ele>879.0</ele><time>2026-05-02T12:25:44.126Z</time></trkpt><trkpt lat="42.0823774" lon="13.5735725"><ele>879.0</ele><time>2026-05-02T12:25:45.126Z</time></trkpt><trkpt lat="42.0823275" lon="13.5734706"><ele>878.3333333333334</ele><time>2026-05-02T12:25:46.127Z</time></trkpt><trkpt lat="42.082273" lon="13.5733751"><ele>877.6666666666667</ele><time>2026-05-02T12:25:47.126Z</time></trkpt><trkpt lat="42.0822213" lon="13.5732938"><ele>877.0</ele><time>2026-05-02T12:25:48.127Z</time></trkpt><trkpt lat="42.0821601" lon="13.5732164"><ele>876.3333333333334</ele><time>2026-05-02T12:25:49.126Z</time></trkpt><trkpt lat="42.0820989" lon="13.5731411"><ele>875.6666666666667</ele><time>2026-05-02T12:25:50.126Z</time></trkpt><trkpt lat="42.0820268" lon="13.5730521"><ele>875.0</ele><time>2026-05-02T12:25:51.126Z</time></trkpt><trkpt lat="42.0819459" lon="13.5729784"><ele>875.0</ele><time>2026-05-02T12:25:52.126Z</time></trkpt><trkpt lat="42.0818713" lon="13.5729069"><ele>875.0</ele><time>2026-05-02T12:25:53.127Z</time></trkpt><trkpt lat="42.0818074" lon="13.5728269"><ele>875.0</ele><time>2026-05-02T12:25:54.127Z</time></trkpt><trkpt lat="42.0817472" lon="13.5727292"><ele>875.0</ele><time>2026-05-02T12:25:55.128Z</time></trkpt><trkpt lat="42.0816778" lon="13.5726667"><ele>875.0</ele><time>2026-05-02T12:25:56.127Z</time></trkpt><trkpt lat="42.0816373" lon="13.572532"><ele>874.6</ele><time>2026-05-02T12:25:57.126Z</time></trkpt><trkpt lat="42.0815852" lon="13.5724495"><ele>874.2</ele><time>2026-05-02T12:25:58.126Z</time></trkpt><trkpt lat="42.0815436" lon="13.5723712"><ele>873.8</ele><time>2026-05-02T12:25:59.127Z</time></trkpt><trkpt lat="42.0814332" lon="13.5722535"><ele>873.4</ele><time>2026-05-02T12:26:01.127Z</time></trkpt><trkpt lat="42.0814193" lon="13.5721313"><ele>873.0</ele><time>2026-05-02T12:26:03.127Z</time></trkpt><trkpt lat="42.0814692" lon="13.5719905"><ele>871.4</ele><time>2026-05-02T12:26:05.126Z</time></trkpt><trkpt lat="42.0814891" lon="13.5718963"><ele>869.8</ele><time>2026-05-02T12:26:07.127Z</time></trkpt><trkpt lat="42.0814489" lon="13.5717673"><ele>868.2</ele><time>2026-05-02T12:26:09.128Z</time></trkpt><trkpt lat="42.0814038" lon="13.5716364"><ele>866.6</ele><time>2026-05-02T12:26:11.126Z</time></trkpt><trkpt lat="42.0813256" lon="13.5715821"><ele>865.0</ele><time>2026-05-02T12:26:12.126Z</time></trkpt><trkpt lat="42.0812415" lon="13.5715245"><ele>864.9999999999999</ele><time>2026-05-02T12:26:13.126Z</time></trkpt><trkpt lat="42.0811881" lon="13.5714686"><ele>865.0</ele><time>2026-05-02T12:26:14.127Z</time></trkpt><trkpt lat="42.0811228" lon="13.571413"><ele>865.0</ele><time>2026-05-02T12:26:15.126Z</time></trkpt><trkpt lat="42.0810731" lon="13.5713497"><ele>865.0</ele><time>2026-05-02T12:26:16.126Z</time></trkpt><trkpt lat="42.0810069" lon="13.5712902"><ele>864.9999999999999</ele><time>2026-05-02T12:26:17.127Z</time></trkpt><trkpt lat="42.0809296" lon="13.5712"><ele>865.0</ele><time>2026-05-02T12:26:18.126Z</time></trkpt><trkpt lat="42.0808636" lon="13.5711301"><ele>862.5</ele><time>2026-05-02T12:26:19.126Z</time></trkpt><trkpt lat="42.080803" lon="13.5710204"><ele>860.0</ele><time>2026-05-02T12:26:20.127Z</time></trkpt><trkpt lat="42.0807361" lon="13.5709148"><ele>857.5</ele><time>2026-05-02T12:26:21.127Z</time></trkpt><trkpt lat="42.0806914" lon="13.5707687"><ele>855.0</ele><time>2026-05-02T12:26:22.126Z</time></trkpt><trkpt lat="42.0806392" lon="13.5705955"><ele>858.25</ele><time>2026-05-02T12:26:23.127Z</time></trkpt><trkpt lat="42.0805765" lon="13.5704568"><ele>861.5</ele><time>2026-05-02T12:26:24.126Z</time></trkpt><trkpt lat="42.0805196" lon="13.5703291"><ele>864.75</ele><time>2026-05-02T12:26:25.127Z</time></trkpt><trkpt lat="42.0804658" lon="13.5701663"><ele>868.0</ele><time>2026-05-02T12:26:26.126Z</time></trkpt><trkpt lat="42.0804301" lon="13.5700333"><ele>868.0</ele><time>2026-05-02T12:26:27.126Z</time></trkpt><trkpt lat="42.0804064" lon="13.569891"><ele>868.0</ele><time>2026-05-02T12:26:28.127Z</time></trkpt><trkpt lat="42.0803716" lon="13.5697588"><ele>868.0</ele><time>2026-05-02T12:26:29.127Z</time></trkpt><trkpt lat="42.0803522" lon="13.5696281"><ele>868.0</ele><time>2026-05-02T12:26:30.126Z</time></trkpt><trkpt lat="42.0803303" lon="13.5694928"><ele>868.0</ele><time>2026-05-02T12:26:31.126Z</time></trkpt><trkpt lat="42.0803238" lon="13.569363"><ele>865.8</ele><time>2026-05-02T12:26:32.127Z</time></trkpt><trkpt lat="42.0803099" lon="13.5692394"><ele>863.5999999999999</ele><time>2026-05-02T12:26:33.126Z</time></trkpt><trkpt lat="42.0802844" lon="13.5691247"><ele>861.4000000000001</ele><time>2026-05-02T12:26:34.128Z</time></trkpt><trkpt lat="42.0802385" lon="13.5690127"><ele>859.2</ele><time>2026-05-02T12:26:35.126Z</time></trkpt><trkpt lat="42.0801901" lon="13.5688929"><ele>857.0</ele><time>2026-05-02T12:26:36.126Z</time></trkpt><trkpt lat="42.0801452" lon="13.5687595"><ele>853.75</ele><time>2026-05-02T12:26:37.126Z</time></trkpt><trkpt lat="42.0801011" lon="13.5686158"><ele>850.5</ele><time>2026-05-02T12:26:38.126Z</time></trkpt><trkpt lat="42.0800623" lon="13.5684555"><ele>847.25</ele><time>2026-05-02T12:26:39.127Z</time></trkpt><trkpt lat="42.0800372" lon="13.56827"><ele>844.0</ele><time>2026-05-02T12:26:40.127Z</time></trkpt><trkpt lat="42.0800267" lon="13.5681274"><ele>844.0</ele><time>2026-05-02T12:26:41.127Z</time></trkpt><trkpt lat="42.0800014" lon="13.5679662"><ele>844.0</ele><time>2026-05-02T12:26:42.127Z</time></trkpt><trkpt lat="42.0799882" lon="13.5678286"><ele>844.0</ele><time>2026-05-02T12:26:43.126Z</time></trkpt><trkpt lat="42.0799948" lon="13.5676695"><ele>844.0</ele><time>2026-05-02T12:26:44.127Z</time></trkpt><trkpt lat="42.0800292" lon="13.5675167"><ele>842.5</ele><time>2026-05-02T12:26:45.126Z</time></trkpt><trkpt lat="42.0801394" lon="13.5673656"><ele>841.0</ele><time>2026-05-02T12:26:46.126Z</time></trkpt><trkpt lat="42.0802248" lon="13.5672338"><ele>839.5</ele><time>2026-05-02T12:26:47.126Z</time></trkpt><trkpt lat="42.0803017" lon="13.5671197"><ele>838.0</ele><time>2026-05-02T12:26:48.127Z</time></trkpt><trkpt lat="42.0803735" lon="13.5670204"><ele>837.9999999999999</ele><time>2026-05-02T12:26:49.128Z</time></trkpt><trkpt lat="42.080439" lon="13.5669257"><ele>838.0</ele><time>2026-05-02T12:26:50.127Z</time></trkpt><trkpt lat="42.0805077" lon="13.5668629"><ele>838.0</ele><time>2026-05-02T12:26:51.126Z</time></trkpt><trkpt lat="42.0805547" lon="13.5668019"><ele>838.0</ele><time>2026-05-02T12:26:52.127Z</time></trkpt><trkpt lat="42.0805863" lon="13.5666466"><ele>837.9999999999999</ele><time>2026-05-02T12:26:54.127Z</time></trkpt><trkpt lat="42.080579" lon="13.5665575"><ele>838.0</ele><time>2026-05-02T12:26:55.126Z</time></trkpt><trkpt lat="42.080568" lon="13.5664515"><ele>838.0</ele><time>2026-05-02T12:26:56.126Z</time></trkpt><trkpt lat="42.0805122" lon="13.5663509"><ele>838.0</ele><time>2026-05-02T12:26:57.127Z</time></trkpt><trkpt lat="42.080488" lon="13.5662102"><ele>838.0</ele><time>2026-05-02T12:26:58.126Z</time></trkpt><trkpt lat="42.0804878" lon="13.5660324"><ele>838.0</ele><time>2026-05-02T12:26:59.127Z</time></trkpt><trkpt lat="42.0804673" lon="13.5658767"><ele>838.0</ele><time>2026-05-02T12:27:00.127Z</time></trkpt><trkpt lat="42.0804528" lon="13.565724"><ele>838.0</ele><time>2026-05-02T12:27:01.126Z</time></trkpt><trkpt lat="42.0804391" lon="13.5655793"><ele>838.0</ele><time>2026-05-02T12:27:02.126Z</time></trkpt><trkpt lat="42.0804231" lon="13.565443"><ele>838.0</ele><time>2026-05-02T12:27:03.126Z</time></trkpt><trkpt lat="42.0803527" lon="13.5653372"><ele>838.0</ele><time>2026-05-02T12:27:04.127Z</time></trkpt><trkpt lat="42.0802701" lon="13.5651494"><ele>835.0</ele><time>2026-05-02T12:27:05.126Z</time></trkpt><trkpt lat="42.0802032" lon="13.5649937"><ele>832.0</ele><time>2026-05-02T12:27:06.127Z</time></trkpt><trkpt lat="42.0801359" lon="13.5648182"><ele>829.0</ele><time>2026-05-02T12:27:07.126Z</time></trkpt><trkpt lat="42.0801022" lon="13.5646375"><ele>826.0</ele><time>2026-05-02T12:27:08.127Z</time></trkpt><trkpt lat="42.0800715" lon="13.5644861"><ele>824.0</ele><time>2026-05-02T12:27:09.126Z</time></trkpt><trkpt lat="42.0800466" lon="13.5643367"><ele>822.0</ele><time>2026-05-02T12:27:10.126Z</time></trkpt><trkpt lat="42.0800263" lon="13.5641837"><ele>820.0</ele><time>2026-05-02T12:27:11.126Z</time></trkpt><trkpt lat="42.0800359" lon="13.5639698"><ele>818.0</ele><time>2026-05-02T12:27:12.126Z</time></trkpt><trkpt lat="42.0800306" lon="13.5637467"><ele>817.75</ele><time>2026-05-02T12:27:13.126Z</time></trkpt><trkpt lat="42.0800245" lon="13.5635295"><ele>817.5</ele><time>2026-05-02T12:27:14.128Z</time></trkpt><trkpt lat="42.0800143" lon="13.5633281"><ele>817.25</ele><time>2026-05-02T12:27:15.127Z</time></trkpt><trkpt lat="42.0799995" lon="13.5631507"><ele>817.0</ele><time>2026-05-02T12:27:16.127Z</time></trkpt><trkpt lat="42.0800006" lon="13.5630128"><ele>817.0</ele><time>2026-05-02T12:27:17.126Z</time></trkpt><trkpt lat="42.0800159" lon="13.5628804"><ele>817.0</ele><time>2026-05-02T12:27:18.126Z</time></trkpt><trkpt lat="42.0800407" lon="13.5627614"><ele>817.0</ele><time>2026-05-02T12:27:19.126Z</time></trkpt><trkpt lat="42.0800526" lon="13.5626484"><ele>817.0</ele><time>2026-05-02T12:27:20.126Z</time></trkpt><trkpt lat="42.0800438" lon="13.5625263"><ele>817.0</ele><time>2026-05-02T12:27:21.126Z</time></trkpt><trkpt lat="42.0800129" lon="13.5623919"><ele>815.2</ele><time>2026-05-02T12:27:22.126Z</time></trkpt><trkpt lat="42.0799661" lon="13.5622693"><ele>813.4000000000001</ele><time>2026-05-02T12:27:23.128Z</time></trkpt><trkpt lat="42.0799158" lon="13.5621584"><ele>811.5999999999999</ele><time>2026-05-02T12:27:24.126Z</time></trkpt><trkpt lat="42.0798861" lon="13.5620556"><ele>809.8</ele><time>2026-05-02T12:27:25.127Z</time></trkpt><trkpt lat="42.0798664" lon="13.5619341"><ele>808.0</ele><time>2026-05-02T12:27:26.127Z</time></trkpt><trkpt lat="42.0798548" lon="13.5618076"><ele>805.2</ele><time>2026-05-02T12:27:27.126Z</time></trkpt><trkpt lat="42.0798559" lon="13.5616517"><ele>802.4</ele><time>2026-05-02T12:27:28.126Z</time></trkpt><trkpt lat="42.0798629" lon="13.561507"><ele>799.6</ele><time>2026-05-02T12:27:29.127Z</time></trkpt><trkpt lat="42.0798818" lon="13.5613894"><ele>796.8000000000001</ele><time>2026-05-02T12:27:30.127Z</time></trkpt><trkpt lat="42.0799248" lon="13.5612832"><ele>794.0</ele><time>2026-05-02T12:27:31.127Z</time></trkpt><trkpt lat="42.0799874" lon="13.561196"><ele>794.0000000000001</ele><time>2026-05-02T12:27:32.127Z</time></trkpt><trkpt lat="42.0800579" lon="13.5610967"><ele>794.0</ele><time>2026-05-02T12:27:33.126Z</time></trkpt><trkpt lat="42.0800969" lon="13.5610018"><ele>794.0</ele><time>2026-05-02T12:27:34.127Z</time></trkpt><trkpt lat="42.0801211" lon="13.5609086"><ele>794.0</ele><time>2026-05-02T12:27:35.126Z</time></trkpt><trkpt lat="42.0801237" lon="13.5608019"><ele>794.0000000000001</ele><time>2026-05-02T12:27:36.127Z</time></trkpt><trkpt lat="42.0801128" lon="13.5606718"><ele>794.0</ele><time>2026-05-02T12:27:37.126Z</time></trkpt><trkpt lat="42.0800976" lon="13.5605439"><ele>794.0</ele><time>2026-05-02T12:27:38.126Z</time></trkpt><trkpt lat="42.0800398" lon="13.5604153"><ele>794.0</ele><time>2026-05-02T12:27:39.127Z</time></trkpt><trkpt lat="42.0799972" lon="13.5603003"><ele>794.0</ele><time>2026-05-02T12:27:40.126Z</time></trkpt><trkpt lat="42.07995" lon="13.5601893"><ele>794.0</ele><time>2026-05-02T12:27:41.126Z</time></trkpt><trkpt lat="42.0798988" lon="13.5600827"><ele>794.0</ele><time>2026-05-02T12:27:42.127Z</time></trkpt><trkpt lat="42.0798433" lon="13.5599752"><ele>797.0</ele><time>2026-05-02T12:27:43.127Z</time></trkpt><trkpt lat="42.0797631" lon="13.5598556"><ele>800.0</ele><time>2026-05-02T12:27:44.127Z</time></trkpt><trkpt lat="42.0796939" lon="13.5597314"><ele>803.0</ele><time>2026-05-02T12:27:45.127Z</time></trkpt><trkpt lat="42.079624" lon="13.559586"><ele>806.0</ele><time>2026-05-02T12:27:46.127Z</time></trkpt><trkpt lat="42.0795513" lon="13.5594458"><ele>800.0</ele><time>2026-05-02T12:27:47.127Z</time></trkpt><trkpt lat="42.0794798" lon="13.5593027"><ele>794.0</ele><time>2026-05-02T12:27:48.127Z</time></trkpt><trkpt lat="42.0794134" lon="13.5591611"><ele>788.0</ele><time>2026-05-02T12:27:49.127Z</time></trkpt><trkpt lat="42.0793508" lon="13.5590193"><ele>782.0</ele><time>2026-05-02T12:27:50.126Z</time></trkpt><trkpt lat="42.0792865" lon="13.5588817"><ele>782.0</ele><time>2026-05-02T12:27:51.126Z</time></trkpt><trkpt lat="42.0792085" lon="13.5587521"><ele>782.0</ele><time>2026-05-02T12:27:52.128Z</time></trkpt><trkpt lat="42.0791235" lon="13.5586126"><ele>782.0</ele><time>2026-05-02T12:27:53.127Z</time></trkpt><trkpt lat="42.0790234" lon="13.5584607"><ele>782.0</ele><time>2026-05-02T12:27:54.127Z</time></trkpt><trkpt lat="42.0789403" lon="13.5583165"><ele>782.5</ele><time>2026-05-02T12:27:55.127Z</time></trkpt><trkpt lat="42.0788625" lon="13.5581661"><ele>783.0</ele><time>2026-05-02T12:27:56.126Z</time></trkpt><trkpt lat="42.0787934" lon="13.5580087"><ele>783.5</ele><time>2026-05-02T12:27:57.126Z</time></trkpt><trkpt lat="42.0787189" lon="13.5578628"><ele>784.0</ele><time>2026-05-02T12:27:58.127Z</time></trkpt><trkpt lat="42.0786494" lon="13.5577126"><ele>779.0</ele><time>2026-05-02T12:27:59.127Z</time></trkpt><trkpt lat="42.0785821" lon="13.5575465"><ele>774.0</ele><time>2026-05-02T12:28:00.127Z</time></trkpt><trkpt lat="42.0785047" lon="13.5573675"><ele>769.0</ele><time>2026-05-02T12:28:01.126Z</time></trkpt><trkpt lat="42.078436" lon="13.5571931"><ele>764.0</ele><time>2026-05-02T12:28:02.128Z</time></trkpt><trkpt lat="42.0783746" lon="13.5570584"><ele>762.0</ele><time>2026-05-02T12:28:03.126Z</time></trkpt><trkpt lat="42.0783157" lon="13.5569575"><ele>760.0</ele><time>2026-05-02T12:28:04.127Z</time></trkpt><trkpt lat="42.0782668" lon="13.5568581"><ele>758.0</ele><time>2026-05-02T12:28:05.126Z</time></trkpt><trkpt lat="42.0782262" lon="13.5567312"><ele>756.0</ele><time>2026-05-02T12:28:06.127Z</time></trkpt><trkpt lat="42.0781973" lon="13.5565799"><ele>754.0</ele><time>2026-05-02T12:28:07.125Z</time></trkpt><trkpt lat="42.0781723" lon="13.5564269"><ele>757.8000000000001</ele><time>2026-05-02T12:28:08.126Z</time></trkpt><trkpt lat="42.0781547" lon="13.5562846"><ele>761.6</ele><time>2026-05-02T12:28:09.126Z</time></trkpt><trkpt lat="42.0781349" lon="13.5561492"><ele>765.4</ele><time>2026-05-02T12:28:10.125Z</time></trkpt><trkpt lat="42.0781079" lon="13.5560236"><ele>769.2</ele><time>2026-05-02T12:28:11.126Z</time></trkpt><trkpt lat="42.0780657" lon="13.5559123"><ele>773.0</ele><time>2026-05-02T12:28:12.127Z</time></trkpt><trkpt lat="42.0780066" lon="13.5557978"><ele>773.0</ele><time>2026-05-02T12:28:13.126Z</time></trkpt><trkpt lat="42.0779474" lon="13.5556825"><ele>773.0</ele><time>2026-05-02T12:28:14.126Z</time></trkpt><trkpt lat="42.0778816" lon="13.5555562"><ele>773.0</ele><time>2026-05-02T12:28:15.125Z</time></trkpt><trkpt lat="42.0778392" lon="13.5554483"><ele>773.0</ele><time>2026-05-02T12:28:16.125Z</time></trkpt><trkpt lat="42.0778186" lon="13.5553389"><ele>773.0</ele><time>2026-05-02T12:28:17.126Z</time></trkpt><trkpt lat="42.0778123" lon="13.5552121"><ele>770.0</ele><time>2026-05-02T12:28:18.125Z</time></trkpt><trkpt lat="42.0778191" lon="13.5550939"><ele>767.0</ele><time>2026-05-02T12:28:19.126Z</time></trkpt><trkpt lat="42.0778257" lon="13.5549708"><ele>764.0</ele><time>2026-05-02T12:28:20.125Z</time></trkpt><trkpt lat="42.0778163" lon="13.554858"><ele>761.0</ele><time>2026-05-02T12:28:21.127Z</time></trkpt><trkpt lat="42.0777563" lon="13.5547489"><ele>758.0</ele><time>2026-05-02T12:28:22.126Z</time></trkpt><trkpt lat="42.0776974" lon="13.5546315"><ele>758.8</ele><time>2026-05-02T12:28:23.125Z</time></trkpt><trkpt lat="42.0776277" lon="13.5545196"><ele>759.5999999999999</ele><time>2026-05-02T12:28:24.126Z</time></trkpt><trkpt lat="42.0775418" lon="13.5544178"><ele>760.4000000000001</ele><time>2026-05-02T12:28:25.125Z</time></trkpt><trkpt lat="42.0774512" lon="13.5543279"><ele>761.2</ele><time>2026-05-02T12:28:26.125Z</time></trkpt><trkpt lat="42.0773552" lon="13.5542579"><ele>762.0</ele><time>2026-05-02T12:28:27.127Z</time></trkpt><trkpt lat="42.077288" lon="13.5541862"><ele>762.0</ele><time>2026-05-02T12:28:28.125Z</time></trkpt><trkpt lat="42.0772282" lon="13.5540936"><ele>762.0</ele><time>2026-05-02T12:28:29.126Z</time></trkpt><trkpt lat="42.0771795" lon="13.5539896"><ele>762.0</ele><time>2026-05-02T12:28:30.125Z</time></trkpt><trkpt lat="42.0771491" lon="13.5538795"><ele>762.0</ele><time>2026-05-02T12:28:31.126Z</time></trkpt><trkpt lat="42.0771212" lon="13.553763"><ele>762.0</ele><time>2026-05-02T12:28:32.125Z</time></trkpt><trkpt lat="42.077096" lon="13.5536676"><ele>762.0</ele><time>2026-05-02T12:28:33.126Z</time></trkpt><trkpt lat="42.0770662" lon="13.5535884"><ele>758.6</ele><time>2026-05-02T12:28:34.125Z</time></trkpt><trkpt lat="42.0770228" lon="13.5534647"><ele>755.2</ele><time>2026-05-02T12:28:36.127Z</time></trkpt><trkpt lat="42.077072" lon="13.5533613"><ele>751.8</ele><time>2026-05-02T12:28:39.126Z</time></trkpt><trkpt lat="42.0772127" lon="13.5533274"><ele>748.4</ele><time>2026-05-02T12:28:41.126Z</time></trkpt><trkpt lat="42.0773028" lon="13.5532831"><ele>745.0</ele><time>2026-05-02T12:28:42.125Z</time></trkpt><trkpt lat="42.0773899" lon="13.5532331"><ele>745.4</ele><time>2026-05-02T12:28:43.125Z</time></trkpt><trkpt lat="42.0774666" lon="13.5531609"><ele>745.8</ele><time>2026-05-02T12:28:44.126Z</time></trkpt><trkpt lat="42.0775254" lon="13.5530639"><ele>746.2</ele><time>2026-05-02T12:28:45.127Z</time></trkpt><trkpt lat="42.0775603" lon="13.5529426"><ele>746.6</ele><time>2026-05-02T12:28:46.126Z</time></trkpt><trkpt lat="42.0775678" lon="13.5528043"><ele>747.0</ele><time>2026-05-02T12:28:47.126Z</time></trkpt><trkpt lat="42.0775411" lon="13.552655"><ele>747.0</ele><time>2026-05-02T12:28:48.125Z</time></trkpt><trkpt lat="42.0775052" lon="13.5525052"><ele>747.0</ele><time>2026-05-02T12:28:49.126Z</time></trkpt><trkpt lat="42.077466" lon="13.552348"><ele>747.0</ele><time>2026-05-02T12:28:50.125Z</time></trkpt><trkpt lat="42.0774219" lon="13.5521707"><ele>747.0</ele><time>2026-05-02T12:28:51.125Z</time></trkpt><trkpt lat="42.0773751" lon="13.551993"><ele>747.0</ele><time>2026-05-02T12:28:52.125Z</time></trkpt><trkpt lat="42.0773219" lon="13.5518187"><ele>747.0</ele><time>2026-05-02T12:28:53.126Z</time></trkpt><trkpt lat="42.0772585" lon="13.5516509"><ele>747.0</ele><time>2026-05-02T12:28:54.126Z</time></trkpt><trkpt lat="42.0771767" lon="13.5514916"><ele>747.0</ele><time>2026-05-02T12:28:55.125Z</time></trkpt><trkpt lat="42.0770813" lon="13.5513485"><ele>747.0</ele><time>2026-05-02T12:28:56.125Z</time></trkpt><trkpt lat="42.0769837" lon="13.5512314"><ele>747.0</ele><time>2026-05-02T12:28:57.125Z</time></trkpt><trkpt lat="42.0768886" lon="13.5511401"><ele>747.0</ele><time>2026-05-02T12:28:58.126Z</time></trkpt><trkpt lat="42.0767997" lon="13.5510634"><ele>747.0</ele><time>2026-05-02T12:28:59.126Z</time></trkpt><trkpt lat="42.07671" lon="13.5509793"><ele>746.0</ele><time>2026-05-02T12:29:00.126Z</time></trkpt><trkpt lat="42.0766414" lon="13.5509421"><ele>745.0</ele><time>2026-05-02T12:29:01.126Z</time></trkpt><trkpt lat="42.0765683" lon="13.5508114"><ele>744.0</ele><time>2026-05-02T12:29:03.125Z</time></trkpt><trkpt lat="42.0765473" lon="13.5507252"><ele>743.0</ele><time>2026-05-02T12:29:05.125Z</time></trkpt><trkpt lat="42.0765641" lon="13.5506229"><ele>742.0</ele><time>2026-05-02T12:29:09.125Z</time></trkpt><trkpt lat="42.0765682" lon="13.5505263"><ele>741.0</ele><time>2026-05-02T12:29:11.125Z</time></trkpt><trkpt lat="42.0766237" lon="13.5504564"><ele>742.8</ele><time>2026-05-02T12:29:13.127Z</time></trkpt><trkpt lat="42.076706" lon="13.5504021"><ele>744.5999999999999</ele><time>2026-05-02T12:29:15.125Z</time></trkpt><trkpt lat="42.0767993" lon="13.5503562"><ele>746.4</ele><time>2026-05-02T12:29:17.125Z</time></trkpt><trkpt lat="42.0769264" lon="13.5502962"><ele>748.2</ele><time>2026-05-02T12:29:19.125Z</time></trkpt><trkpt lat="42.0770003" lon="13.5502649"><ele>750.0</ele><time>2026-05-02T12:29:20.125Z</time></trkpt><trkpt lat="42.0770845" lon="13.5502297"><ele>750.0</ele><time>2026-05-02T12:29:21.125Z</time></trkpt><trkpt lat="42.0771706" lon="13.5501884"><ele>750.0</ele><time>2026-05-02T12:29:22.126Z</time></trkpt><trkpt lat="42.0772564" lon="13.5501489"><ele>750.0</ele><time>2026-05-02T12:29:23.125Z</time></trkpt><trkpt lat="42.0773293" lon="13.5501229"><ele>750.0</ele><time>2026-05-02T12:29:24.125Z</time></trkpt><trkpt lat="42.0774341" lon="13.5500849"><ele>750.0</ele><time>2026-05-02T12:29:26.125Z</time></trkpt><trkpt lat="42.0775063" lon="13.5500584"><ele>750.0</ele><time>2026-05-02T12:29:28.126Z</time></trkpt><trkpt lat="42.0774405" lon="13.5500406"><ele>750.0</ele><time>2026-05-02T12:29:32.126Z</time></trkpt><trkpt lat="42.0773725" lon="13.5500697"><ele>750.0</ele><time>2026-05-02T12:29:33.126Z</time></trkpt><trkpt lat="42.0772891" lon="13.5501136"><ele>750.0</ele><time>2026-05-02T12:29:34.125Z</time></trkpt><trkpt lat="42.0771931" lon="13.5501606"><ele>750.0</ele><time>2026-05-02T12:29:35.125Z</time></trkpt><trkpt lat="42.077086" lon="13.5502046"><ele>750.0</ele><time>2026-05-02T12:29:36.125Z</time></trkpt><trkpt lat="42.0769744" lon="13.5502468"><ele>750.0</ele><time>2026-05-02T12:29:37.126Z</time></trkpt><trkpt lat="42.0768761" lon="13.5502915"><ele>750.0</ele><time>2026-05-02T12:29:38.125Z</time></trkpt><trkpt lat="42.0767837" lon="13.5503342"><ele>750.0</ele><time>2026-05-02T12:29:39.125Z</time></trkpt><trkpt lat="42.0767004" lon="13.550383"><ele>750.0</ele><time>2026-05-02T12:29:40.126Z</time></trkpt><trkpt lat="42.0766352" lon="13.5504376"><ele>750.0</ele><time>2026-05-02T12:29:41.127Z</time></trkpt><trkpt lat="42.0765897" lon="13.5505004"><ele>750.0</ele><time>2026-05-02T12:29:42.126Z</time></trkpt><trkpt lat="42.0765845" lon="13.5506103"><ele>751.0</ele><time>2026-05-02T12:29:44.125Z</time></trkpt><trkpt lat="42.076687" lon="13.550681"><ele>752.0</ele><time>2026-05-02T12:29:46.126Z</time></trkpt><trkpt lat="42.0767633" lon="13.5506845"><ele>753.0</ele><time>2026-05-02T12:29:47.125Z</time></trkpt><trkpt lat="42.0768592" lon="13.5506609"><ele>754.0</ele><time>2026-05-02T12:29:48.125Z</time></trkpt><trkpt lat="42.076973" lon="13.5506237"><ele>755.0</ele><time>2026-05-02T12:29:49.126Z</time></trkpt><trkpt lat="42.077104" lon="13.5505599"><ele>755.0</ele><time>2026-05-02T12:29:50.125Z</time></trkpt><trkpt lat="42.0772433" lon="13.5504967"><ele>755.0</ele><time>2026-05-02T12:29:51.127Z</time></trkpt><trkpt lat="42.077396" lon="13.5504306"><ele>755.0</ele><time>2026-05-02T12:29:52.126Z</time></trkpt><trkpt lat="42.0775608" lon="13.5503582"><ele>757.6666666666666</ele><time>2026-05-02T12:29:53.125Z</time></trkpt><trkpt lat="42.07773" lon="13.5502832"><ele>760.3333333333334</ele><time>2026-05-02T12:29:54.126Z</time></trkpt><trkpt lat="42.0779018" lon="13.5502108"><ele>763.0</ele><time>2026-05-02T12:29:55.125Z</time></trkpt><trkpt lat="42.0780648" lon="13.5501447"><ele>763.0</ele><time>2026-05-02T12:29:56.125Z</time></trkpt><trkpt lat="42.0782192" lon="13.5500804"><ele>763.0</ele><time>2026-05-02T12:29:57.126Z</time></trkpt><trkpt lat="42.0783797" lon="13.550014"><ele>763.0</ele><time>2026-05-02T12:29:58.125Z</time></trkpt><trkpt lat="42.0785452" lon="13.5499425"><ele>767.6666666666667</ele><time>2026-05-02T12:29:59.126Z</time></trkpt><trkpt lat="42.0787002" lon="13.549872"><ele>772.3333333333334</ele><time>2026-05-02T12:30:00.125Z</time></trkpt><trkpt lat="42.0788368" lon="13.5498129"><ele>777.0</ele><time>2026-05-02T12:30:01.126Z</time></trkpt><trkpt lat="42.0789834" lon="13.5497512"><ele>780.25</ele><time>2026-05-02T12:30:02.126Z</time></trkpt><trkpt lat="42.0791233" lon="13.5496878"><ele>783.5</ele><time>2026-05-02T12:30:03.125Z</time></trkpt><trkpt lat="42.079244" lon="13.5496286"><ele>786.75</ele><time>2026-05-02T12:30:04.125Z</time></trkpt><trkpt lat="42.079345" lon="13.5495844"><ele>790.0</ele><time>2026-05-02T12:30:05.126Z</time></trkpt><trkpt lat="42.079426" lon="13.5495438"><ele>788.0</ele><time>2026-05-02T12:30:06.126Z</time></trkpt><trkpt lat="42.079533" lon="13.5495128"><ele>786.0</ele><time>2026-05-02T12:30:08.125Z</time></trkpt><trkpt lat="42.0796298" lon="13.549519"><ele>784.0</ele><time>2026-05-02T12:30:10.125Z</time></trkpt><trkpt lat="42.0797478" lon="13.5494952"><ele>782.0</ele><time>2026-05-02T12:30:12.125Z</time></trkpt><trkpt lat="42.0798155" lon="13.5494529"><ele>780.0</ele><time>2026-05-02T12:30:13.126Z</time></trkpt><trkpt lat="42.0798885" lon="13.5494023"><ele>781.8</ele><time>2026-05-02T12:30:14.125Z</time></trkpt><trkpt lat="42.0799771" lon="13.5493594"><ele>783.6</ele><time>2026-05-02T12:30:15.125Z</time></trkpt><trkpt lat="42.0800715" lon="13.5493319"><ele>785.4000000000001</ele><time>2026-05-02T12:30:16.127Z</time></trkpt><trkpt lat="42.0801674" lon="13.5493125"><ele>787.2</ele><time>2026-05-02T12:30:17.125Z</time></trkpt><trkpt lat="42.0802656" lon="13.5492937"><ele>789.0</ele><time>2026-05-02T12:30:18.126Z</time></trkpt><trkpt lat="42.0803632" lon="13.5492892"><ele>789.0</ele><time>2026-05-02T12:30:19.125Z</time></trkpt><trkpt lat="42.080468" lon="13.5492885"><ele>789.0</ele><time>2026-05-02T12:30:20.126Z</time></trkpt><trkpt lat="42.0805614" lon="13.549289"><ele>789.0</ele><time>2026-05-02T12:30:21.126Z</time></trkpt><trkpt lat="42.080632" lon="13.5492951"><ele>789.0</ele><time>2026-05-02T12:30:22.126Z</time></trkpt><trkpt lat="42.0807331" lon="13.5493092"><ele>789.0</ele><time>2026-05-02T12:30:24.126Z</time></trkpt><trkpt lat="42.0806209" lon="13.549259"><ele>789.0</ele><time>2026-05-02T12:30:30.125Z</time></trkpt><trkpt lat="42.080519" lon="13.5492692"><ele>789.0</ele><time>2026-05-02T12:30:31.125Z</time></trkpt><trkpt lat="42.0804113" lon="13.549274"><ele>789.0</ele><time>2026-05-02T12:30:32.126Z</time></trkpt><trkpt lat="42.0802929" lon="13.5492819"><ele>789.0</ele><time>2026-05-02T12:30:33.126Z</time></trkpt><trkpt lat="42.0801773" lon="13.5492997"><ele>789.0</ele><time>2026-05-02T12:30:34.125Z</time></trkpt><trkpt lat="42.0800715" lon="13.5493261"><ele>789.0</ele><time>2026-05-02T12:30:35.126Z</time></trkpt><trkpt lat="42.0799748" lon="13.5493619"><ele>789.0</ele><time>2026-05-02T12:30:36.125Z</time></trkpt><trkpt lat="42.0798868" lon="13.5494134"><ele>789.0</ele><time>2026-05-02T12:30:37.126Z</time></trkpt><trkpt lat="42.0798167" lon="13.5494585"><ele>789.0</ele><time>2026-05-02T12:30:38.126Z</time></trkpt><trkpt lat="42.0797341" lon="13.549508"><ele>789.0</ele><time>2026-05-02T12:30:40.126Z</time></trkpt><trkpt lat="42.0797586" lon="13.5493792"><ele>789.0</ele><time>2026-05-02T12:30:44.126Z</time></trkpt><trkpt lat="42.079826" lon="13.5493145"><ele>789.0</ele><time>2026-05-02T12:30:45.125Z</time></trkpt><trkpt lat="42.0798999" lon="13.5492419"><ele>789.0</ele><time>2026-05-02T12:30:46.126Z</time></trkpt><trkpt lat="42.0799894" lon="13.5491506"><ele>789.0</ele><time>2026-05-02T12:30:47.125Z</time></trkpt><trkpt lat="42.0800861" lon="13.5490473"><ele>789.0</ele><time>2026-05-02T12:30:48.127Z</time></trkpt><trkpt lat="42.0801885" lon="13.5489333"><ele>789.0</ele><time>2026-05-02T12:30:49.126Z</time></trkpt><trkpt lat="42.0802897" lon="13.5488229"><ele>789.0</ele><time>2026-05-02T12:30:50.127Z</time></trkpt><trkpt lat="42.0803828" lon="13.548728"><ele>789.0</ele><time>2026-05-02T12:30:51.126Z</time></trkpt><trkpt lat="42.0804687" lon="13.548637"><ele>789.0</ele><time>2026-05-02T12:30:52.125Z</time></trkpt><trkpt lat="42.0805416" lon="13.5485626"><ele>789.0</ele><time>2026-05-02T12:30:53.125Z</time></trkpt><trkpt lat="42.0806079" lon="13.5484937"><ele>788.2</ele><time>2026-05-02T12:30:54.126Z</time></trkpt><trkpt lat="42.0806764" lon="13.5484215"><ele>787.4000000000001</ele><time>2026-05-02T12:30:55.126Z</time></trkpt><trkpt lat="42.0807529" lon="13.5483414"><ele>786.6</ele><time>2026-05-02T12:30:56.125Z</time></trkpt><trkpt lat="42.0808362" lon="13.5482484"><ele>785.8</ele><time>2026-05-02T12:30:57.125Z</time></trkpt><trkpt lat="42.0809229" lon="13.5481566"><ele>785.0</ele><time>2026-05-02T12:30:58.126Z</time></trkpt><trkpt lat="42.0810148" lon="13.5480574"><ele>785.0</ele><time>2026-05-02T12:30:59.126Z</time></trkpt><trkpt lat="42.0811083" lon="13.5479522"><ele>785.0</ele><time>2026-05-02T12:31:00.126Z</time></trkpt><trkpt lat="42.0811978" lon="13.5478484"><ele>785.0</ele><time>2026-05-02T12:31:01.125Z</time></trkpt><trkpt lat="42.0812897" lon="13.5477502"><ele>785.0</ele><time>2026-05-02T12:31:02.125Z</time></trkpt><trkpt lat="42.08139" lon="13.5476501"><ele>782.0</ele><time>2026-05-02T12:31:03.127Z</time></trkpt><trkpt lat="42.081491" lon="13.5475592"><ele>779.0</ele><time>2026-05-02T12:31:04.125Z</time></trkpt><trkpt lat="42.0815971" lon="13.5474839"><ele>776.0</ele><time>2026-05-02T12:31:05.125Z</time></trkpt><trkpt lat="42.0817079" lon="13.5474229"><ele>773.0</ele><time>2026-05-02T12:31:06.126Z</time></trkpt><trkpt lat="42.0818237" lon="13.5473694"><ele>773.0</ele><time>2026-05-02T12:31:07.126Z</time></trkpt><trkpt lat="42.0819379" lon="13.5473137"><ele>773.0</ele><time>2026-05-02T12:31:08.125Z</time></trkpt><trkpt lat="42.0820476" lon="13.5472533"><ele>773.0</ele><time>2026-05-02T12:31:09.125Z</time></trkpt><trkpt lat="42.0821544" lon="13.5471784"><ele>773.0</ele><time>2026-05-02T12:31:10.126Z</time></trkpt><trkpt lat="42.0822443" lon="13.5470773"><ele>773.5999999999999</ele><time>2026-05-02T12:31:11.125Z</time></trkpt><trkpt lat="42.0823151" lon="13.546962"><ele>774.1999999999999</ele><time>2026-05-02T12:31:12.125Z</time></trkpt><trkpt lat="42.0823706" lon="13.546836"><ele>774.8</ele><time>2026-05-02T12:31:13.126Z</time></trkpt><trkpt lat="42.0824168" lon="13.5467082"><ele>775.4</ele><time>2026-05-02T12:31:14.125Z</time></trkpt><trkpt lat="42.0824497" lon="13.546575"><ele>776.0</ele><time>2026-05-02T12:31:15.126Z</time></trkpt><trkpt lat="42.0824767" lon="13.5464368"><ele>776.0</ele><time>2026-05-02T12:31:16.125Z</time></trkpt><trkpt lat="42.082501" lon="13.5462992"><ele>776.0</ele><time>2026-05-02T12:31:17.126Z</time></trkpt><trkpt lat="42.0825178" lon="13.5461577"><ele>776.0</ele><time>2026-05-02T12:31:18.125Z</time></trkpt><trkpt lat="42.0825351" lon="13.5460154"><ele>776.0</ele><time>2026-05-02T12:31:19.126Z</time></trkpt><trkpt lat="42.0825454" lon="13.5458632"><ele>776.0</ele><time>2026-05-02T12:31:20.125Z</time></trkpt><trkpt lat="42.0825511" lon="13.5457121"><ele>774.5</ele><time>2026-05-02T12:31:21.125Z</time></trkpt><trkpt lat="42.0825474" lon="13.5455608"><ele>773.0</ele><time>2026-05-02T12:31:22.125Z</time></trkpt><trkpt lat="42.0825367" lon="13.5454073"><ele>771.5</ele><time>2026-05-02T12:31:23.125Z</time></trkpt><trkpt lat="42.0825138" lon="13.545246"><ele>770.0</ele><time>2026-05-02T12:31:24.125Z</time></trkpt><trkpt lat="42.0824916" lon="13.5450845"><ele>769.5</ele><time>2026-05-02T12:31:25.126Z</time></trkpt><trkpt lat="42.0824641" lon="13.5449249"><ele>769.0</ele><time>2026-05-02T12:31:26.126Z</time></trkpt><trkpt lat="42.0824339" lon="13.5447726"><ele>768.5</ele><time>2026-05-02T12:31:27.127Z</time></trkpt><trkpt lat="42.0824023" lon="13.5446204"><ele>768.0</ele><time>2026-05-02T12:31:28.126Z</time></trkpt><trkpt lat="42.0823738" lon="13.5444668"><ele>765.2</ele><time>2026-05-02T12:31:29.125Z</time></trkpt><trkpt lat="42.0823545" lon="13.5443154"><ele>762.4</ele><time>2026-05-02T12:31:30.125Z</time></trkpt><trkpt lat="42.0823552" lon="13.5441694"><ele>759.6</ele><time>2026-05-02T12:31:31.126Z</time></trkpt><trkpt lat="42.0823598" lon="13.5440291"><ele>756.8000000000001</ele><time>2026-05-02T12:31:32.125Z</time></trkpt><trkpt lat="42.0823603" lon="13.543898"><ele>754.0</ele><time>2026-05-02T12:31:33.125Z</time></trkpt><trkpt lat="42.0823546" lon="13.5437801"><ele>753.4000000000001</ele><time>2026-05-02T12:31:34.127Z</time></trkpt><trkpt lat="42.0823434" lon="13.5436818"><ele>752.8</ele><time>2026-05-02T12:31:35.126Z</time></trkpt><trkpt lat="42.0823086" lon="13.5435551"><ele>752.2</ele><time>2026-05-02T12:31:37.126Z</time></trkpt><trkpt lat="42.082236" lon="13.5434949"><ele>751.5999999999999</ele><time>2026-05-02T12:31:42.125Z</time></trkpt><trkpt lat="42.0821155" lon="13.5435163"><ele>751.0</ele><time>2026-05-02T12:31:44.125Z</time></trkpt><trkpt lat="42.0820355" lon="13.5435181"><ele>751.0</ele><time>2026-05-02T12:31:45.125Z</time></trkpt><trkpt lat="42.0819476" lon="13.5435164"><ele>751.0</ele><time>2026-05-02T12:31:46.125Z</time></trkpt><trkpt lat="42.0818509" lon="13.5435179"><ele>751.0</ele><time>2026-05-02T12:31:47.125Z</time></trkpt><trkpt lat="42.081745" lon="13.5435161"><ele>751.0</ele><time>2026-05-02T12:31:48.126Z</time></trkpt><trkpt lat="42.0816342" lon="13.5435178"><ele>751.0</ele><time>2026-05-02T12:31:49.125Z</time></trkpt><trkpt lat="42.0815273" lon="13.5435173"><ele>750.3333333333334</ele><time>2026-05-02T12:31:50.126Z</time></trkpt><trkpt lat="42.0814233" lon="13.5435133"><ele>749.6666666666667</ele><time>2026-05-02T12:31:51.125Z</time></trkpt><trkpt lat="42.0813246" lon="13.5435074"><ele>749.0</ele><time>2026-05-02T12:31:52.126Z</time></trkpt><trkpt lat="42.0812362" lon="13.54351"><ele>748.3333333333334</ele><time>2026-05-02T12:31:53.126Z</time></trkpt><trkpt lat="42.0811577" lon="13.5435107"><ele>747.6666666666666</ele><time>2026-05-02T12:31:54.125Z</time></trkpt><trkpt lat="42.0810837" lon="13.5435111"><ele>747.0</ele><time>2026-05-02T12:31:55.125Z</time></trkpt><trkpt lat="42.0810105" lon="13.5435111"><ele>747.0</ele><time>2026-05-02T12:31:56.125Z</time></trkpt><trkpt lat="42.0809375" lon="13.5435064"><ele>747.0</ele><time>2026-05-02T12:31:57.125Z</time></trkpt><trkpt lat="42.0808641" lon="13.543505"><ele>747.0</ele><time>2026-05-02T12:31:58.126Z</time></trkpt><trkpt lat="42.0807857" lon="13.5435076"><ele>747.0</ele><time>2026-05-02T12:31:59.126Z</time></trkpt><trkpt lat="42.0806991" lon="13.5435123"><ele>747.0</ele><time>2026-05-02T12:32:00.125Z</time></trkpt><trkpt lat="42.0806038" lon="13.5435156"><ele>747.0</ele><time>2026-05-02T12:32:01.125Z</time></trkpt><trkpt lat="42.0805061" lon="13.5435123"><ele>746.4000000000001</ele><time>2026-05-02T12:32:02.126Z</time></trkpt><trkpt lat="42.080405" lon="13.5435122"><ele>745.8000000000001</ele><time>2026-05-02T12:32:03.125Z</time></trkpt><trkpt lat="42.0803031" lon="13.5435069"><ele>745.2</ele><time>2026-05-02T12:32:04.126Z</time></trkpt><trkpt lat="42.0802017" lon="13.5435069"><ele>744.6</ele><time>2026-05-02T12:32:05.127Z</time></trkpt><trkpt lat="42.0800927" lon="13.5435077"><ele>744.0</ele><time>2026-05-02T12:32:06.126Z</time></trkpt><trkpt lat="42.0799843" lon="13.5435063"><ele>743.3333333333334</ele><time>2026-05-02T12:32:07.125Z</time></trkpt><trkpt lat="42.0798963" lon="13.5434996"><ele>742.6666666666666</ele><time>2026-05-02T12:32:08.126Z</time></trkpt><trkpt lat="42.0798111" lon="13.543465"><ele>742.0</ele><time>2026-05-02T12:32:10.126Z</time></trkpt><trkpt lat="42.0797607" lon="13.5433402"><ele>741.3333333333333</ele><time>2026-05-02T12:32:12.125Z</time></trkpt><trkpt lat="42.0797313" lon="13.5432592"><ele>740.6666666666666</ele><time>2026-05-02T12:32:13.125Z</time></trkpt><trkpt lat="42.0797006" lon="13.543169"><ele>740.0</ele><time>2026-05-02T12:32:14.125Z</time></trkpt><trkpt lat="42.0796704" lon="13.5430787"><ele>740.0</ele><time>2026-05-02T12:32:15.125Z</time></trkpt><trkpt lat="42.0796131" lon="13.5429616"><ele>740.0</ele><time>2026-05-02T12:32:17.125Z</time></trkpt><trkpt lat="42.0795532" lon="13.5429118"><ele>740.0</ele><time>2026-05-02T12:32:20.126Z</time></trkpt><trkpt lat="42.0794677" lon="13.5428679"><ele>740.0</ele><time>2026-05-02T12:32:23.126Z</time></trkpt><trkpt lat="42.0793374" lon="13.5428415"><ele>740.0</ele><time>2026-05-02T12:32:25.126Z</time></trkpt><trkpt lat="42.079254" lon="13.5428227"><ele>740.2</ele><time>2026-05-02T12:32:26.126Z</time></trkpt><trkpt lat="42.0791582" lon="13.5427952"><ele>740.4</ele><time>2026-05-02T12:32:27.125Z</time></trkpt><trkpt lat="42.0790589" lon="13.5427439"><ele>740.5999999999999</ele><time>2026-05-02T12:32:28.125Z</time></trkpt><trkpt lat="42.0789657" lon="13.5426741"><ele>740.8</ele><time>2026-05-02T12:32:29.127Z</time></trkpt><trkpt lat="42.0788835" lon="13.5425885"><ele>741.0</ele><time>2026-05-02T12:32:30.125Z</time></trkpt><trkpt lat="42.0788158" lon="13.5424958"><ele>740.4</ele><time>2026-05-02T12:32:31.126Z</time></trkpt><trkpt lat="42.0787526" lon="13.5424056"><ele>739.8</ele><time>2026-05-02T12:32:32.127Z</time></trkpt><trkpt lat="42.0786831" lon="13.5423112"><ele>739.1999999999999</ele><time>2026-05-02T12:32:33.125Z</time></trkpt><trkpt lat="42.0786096" lon="13.5422176"><ele>738.5999999999999</ele><time>2026-05-02T12:32:34.125Z</time></trkpt><trkpt lat="42.0785428" lon="13.5421343"><ele>738.0</ele><time>2026-05-02T12:32:35.125Z</time></trkpt><trkpt lat="42.0784824" lon="13.5420615"><ele>738.3333333333334</ele><time>2026-05-02T12:32:36.126Z</time></trkpt><trkpt lat="42.0784" lon="13.5419818"><ele>738.6666666666666</ele><time>2026-05-02T12:32:38.127Z</time></trkpt><trkpt lat="42.0783353" lon="13.541946"><ele>739.0</ele><time>2026-05-02T12:32:40.125Z</time></trkpt><trkpt lat="42.0782347" lon="13.5418943"><ele>739.3333333333333</ele><time>2026-05-02T12:32:42.126Z</time></trkpt><trkpt lat="42.0781661" lon="13.5418604"><ele>739.6666666666666</ele><time>2026-05-02T12:32:43.125Z</time></trkpt><trkpt lat="42.0780866" lon="13.5418257"><ele>740.0</ele><time>2026-05-02T12:32:44.127Z</time></trkpt><trkpt lat="42.0779936" lon="13.5417908"><ele>738.3333333333333</ele><time>2026-05-02T12:32:45.126Z</time></trkpt><trkpt lat="42.0778987" lon="13.5417476"><ele>736.6666666666666</ele><time>2026-05-02T12:32:46.125Z</time></trkpt><trkpt lat="42.077829" lon="13.5417066"><ele>735.0</ele><time>2026-05-02T12:32:47.125Z</time></trkpt><trkpt lat="42.0777614" lon="13.5416821"><ele>733.3333333333334</ele><time>2026-05-02T12:32:49.126Z</time></trkpt><trkpt lat="42.0778241" lon="13.5417331"><ele>731.6666666666667</ele><time>2026-05-02T12:32:52.125Z</time></trkpt><trkpt lat="42.0779431" lon="13.5417803"><ele>730.0</ele><time>2026-05-02T12:32:54.126Z</time></trkpt><trkpt lat="42.0780138" lon="13.5418125"><ele>730.0</ele><time>2026-05-02T12:32:55.125Z</time></trkpt><trkpt lat="42.0780972" lon="13.5418429"><ele>730.0</ele><time>2026-05-02T12:32:56.125Z</time></trkpt><trkpt lat="42.07818" lon="13.5418723"><ele>730.0</ele><time>2026-05-02T12:32:57.125Z</time></trkpt><trkpt lat="42.0782476" lon="13.5419071"><ele>730.0</ele><time>2026-05-02T12:32:58.125Z</time></trkpt><trkpt lat="42.0783438" lon="13.5419498"><ele>730.0</ele><time>2026-05-02T12:33:00.126Z</time></trkpt><trkpt lat="42.0783445" lon="13.5418299"><ele>730.0</ele><time>2026-05-02T12:33:03.126Z</time></trkpt><trkpt lat="42.0783564" lon="13.5417045"><ele>732.0</ele><time>2026-05-02T12:33:05.126Z</time></trkpt><trkpt lat="42.0784114" lon="13.5416063"><ele>734.0</ele><time>2026-05-02T12:33:07.127Z</time></trkpt><trkpt lat="42.0784114" lon="13.5414694"><ele>736.0</ele><time>2026-05-02T12:33:10.125Z</time></trkpt><trkpt lat="42.0783386" lon="13.5413281"><ele>738.0</ele><time>2026-05-02T12:33:12.126Z</time></trkpt><trkpt lat="42.0783238" lon="13.5412231"><ele>740.0</ele><time>2026-05-02T12:33:14.126Z</time></trkpt><trkpt lat="42.0783765" lon="13.5411306"><ele>740.4</ele><time>2026-05-02T12:33:16.126Z</time></trkpt><trkpt lat="42.0783716" lon="13.5410113"><ele>740.8</ele><time>2026-05-02T12:33:18.126Z</time></trkpt><trkpt lat="42.078301" lon="13.5408502"><ele>741.2</ele><time>2026-05-02T12:33:20.125Z</time></trkpt><trkpt lat="42.0782536" lon="13.5407581"><ele>741.6</ele><time>2026-05-02T12:33:21.125Z</time></trkpt><trkpt lat="42.078195" lon="13.5406574"><ele>742.0</ele><time>2026-05-02T12:33:22.125Z</time></trkpt><trkpt lat="42.078134" lon="13.5405495"><ele>740.5</ele><time>2026-05-02T12:33:23.125Z</time></trkpt><trkpt lat="42.0780781" lon="13.5404503"><ele>739.0</ele><time>2026-05-02T12:33:24.125Z</time></trkpt><trkpt lat="42.0780318" lon="13.5403696"><ele>737.5</ele><time>2026-05-02T12:33:25.126Z</time></trkpt><trkpt lat="42.0779939" lon="13.5402985"><ele>736.0</ele><time>2026-05-02T12:33:26.126Z</time></trkpt><trkpt lat="42.0779934" lon="13.5401766"><ele>734.5</ele><time>2026-05-02T12:33:28.127Z</time></trkpt><trkpt lat="42.078075" lon="13.5400572"><ele>733.0</ele><time>2026-05-02T12:33:30.126Z</time></trkpt><trkpt lat="42.0781391" lon="13.5400052"><ele>733.0</ele><time>2026-05-02T12:33:31.126Z</time></trkpt><trkpt lat="42.0781979" lon="13.5399614"><ele>733.0</ele><time>2026-05-02T12:33:32.126Z</time></trkpt><trkpt lat="42.0782808" lon="13.5399017"><ele>733.0</ele><time>2026-05-02T12:33:34.125Z</time></trkpt><trkpt lat="42.0783287" lon="13.5398303"><ele>733.0</ele><time>2026-05-02T12:33:37.126Z</time></trkpt><trkpt lat="42.0783142" lon="13.539713"><ele>733.0</ele><time>2026-05-02T12:33:40.126Z</time></trkpt><trkpt lat="42.0782707" lon="13.5395886"><ele>733.0</ele><time>2026-05-02T12:33:42.125Z</time></trkpt><trkpt lat="42.0782281" lon="13.5395219"><ele>733.0</ele><time>2026-05-02T12:33:43.126Z</time></trkpt><trkpt lat="42.0781837" lon="13.5394536"><ele>733.0</ele><time>2026-05-02T12:33:44.126Z</time></trkpt><trkpt lat="42.078133" lon="13.5393116"><ele>733.0</ele><time>2026-05-02T12:33:46.126Z</time></trkpt><trkpt lat="42.0781149" lon="13.5392278"><ele>733.0</ele><time>2026-05-02T12:33:48.125Z</time></trkpt><trkpt lat="42.0781382" lon="13.5393172"><ele>733.0</ele><time>2026-05-02T12:33:52.125Z</time></trkpt><trkpt lat="42.0781894" lon="13.5394444"><ele>733.0</ele><time>2026-05-02T12:33:54.125Z</time></trkpt><trkpt lat="42.0782479" lon="13.5395445"><ele>734.6666666666667</ele><time>2026-05-02T12:33:56.125Z</time></trkpt><trkpt lat="42.0783077" lon="13.5396436"><ele>736.3333333333334</ele><time>2026-05-02T12:33:58.125Z</time></trkpt><trkpt lat="42.0783352" lon="13.5397566"><ele>738.0</ele><time>2026-05-02T12:34:00.125Z</time></trkpt><trkpt lat="42.0783415" lon="13.5398529"><ele>739.6666666666666</ele><time>2026-05-02T12:34:02.126Z</time></trkpt><trkpt lat="42.0783537" lon="13.539963"><ele>741.3333333333333</ele><time>2026-05-02T12:34:04.126Z</time></trkpt><trkpt lat="42.0784168" lon="13.5400001"><ele>743.0</ele><time>2026-05-02T12:34:06.125Z</time></trkpt><trkpt lat="42.0785329" lon="13.5400042"><ele>743.0</ele><time>2026-05-02T12:34:08.125Z</time></trkpt><trkpt lat="42.0786281" lon="13.5399861"><ele>743.0</ele><time>2026-05-02T12:34:09.126Z</time></trkpt><trkpt lat="42.0787107" lon="13.5399836"><ele>743.0</ele><time>2026-05-02T12:34:10.127Z</time></trkpt><trkpt lat="42.0787896" lon="13.5399781"><ele>743.0</ele><time>2026-05-02T12:34:11.125Z</time></trkpt><trkpt lat="42.07886" lon="13.5399754"><ele>743.0</ele><time>2026-05-02T12:34:12.125Z</time></trkpt><trkpt lat="42.078925" lon="13.5399749"><ele>743.0</ele><time>2026-05-02T12:34:13.125Z</time></trkpt><trkpt lat="42.0790212" lon="13.5399708"><ele>743.0</ele><time>2026-05-02T12:34:15.125Z</time></trkpt><trkpt lat="42.0790917" lon="13.5399988"><ele>743.0</ele><time>2026-05-02T12:34:17.127Z</time></trkpt><trkpt lat="42.0791409" lon="13.5401011"><ele>743.0</ele><time>2026-05-02T12:34:19.126Z</time></trkpt><trkpt lat="42.0791834" lon="13.5402518"><ele>743.0</ele><time>2026-05-02T12:34:21.126Z</time></trkpt><trkpt lat="42.0792582" lon="13.5403488"><ele>743.0</ele><time>2026-05-02T12:34:23.125Z</time></trkpt><trkpt lat="42.0793648" lon="13.5403312"><ele>743.0</ele><time>2026-05-02T12:34:25.125Z</time></trkpt><trkpt lat="42.0794268" lon="13.540316"><ele>743.0</ele><time>2026-05-02T12:34:26.125Z</time></trkpt><trkpt lat="42.0795179" lon="13.5402963"><ele>743.0</ele><time>2026-05-02T12:34:28.125Z</time></trkpt><trkpt lat="42.0795836" lon="13.5403325"><ele>743.0</ele><time>2026-05-02T12:34:30.125Z</time></trkpt><trkpt lat="42.0796151" lon="13.54046"><ele>743.0</ele><time>2026-05-02T12:34:32.125Z</time></trkpt><trkpt lat="42.0796368" lon="13.5405583"><ele>743.0</ele><time>2026-05-02T12:34:33.126Z</time></trkpt><trkpt lat="42.0796686" lon="13.5406618"><ele>743.0</ele><time>2026-05-02T12:34:34.125Z</time></trkpt><trkpt lat="42.0797168" lon="13.5407655"><ele>743.0</ele><time>2026-05-02T12:34:35.125Z</time></trkpt><trkpt lat="42.0797839" lon="13.5408508"><ele>743.0</ele><time>2026-05-02T12:34:36.127Z</time></trkpt><trkpt lat="42.0798649" lon="13.5409224"><ele>743.0</ele><time>2026-05-02T12:34:37.125Z</time></trkpt><trkpt lat="42.0799553" lon="13.5409783"><ele>743.0</ele><time>2026-05-02T12:34:38.126Z</time></trkpt><trkpt lat="42.0800416" lon="13.5410158"><ele>743.1666666666666</ele><time>2026-05-02T12:34:39.126Z</time></trkpt><trkpt lat="42.0801191" lon="13.5410361"><ele>743.3333333333333</ele><time>2026-05-02T12:34:40.126Z</time></trkpt><trkpt lat="42.0801932" lon="13.5410453"><ele>743.5</ele><time>2026-05-02T12:34:41.125Z</time></trkpt><trkpt lat="42.0802687" lon="13.5410449"><ele>743.6666666666666</ele><time>2026-05-02T12:34:42.125Z</time></trkpt><trkpt lat="42.0803481" lon="13.5410415"><ele>743.8333333333334</ele><time>2026-05-02T12:34:43.126Z</time></trkpt><trkpt lat="42.0804265" lon="13.5410365"><ele>744.0</ele><time>2026-05-02T12:34:44.125Z</time></trkpt><trkpt lat="42.0805005" lon="13.5410373"><ele>744.0</ele><time>2026-05-02T12:34:45.125Z</time></trkpt><trkpt lat="42.0805749" lon="13.5410314"><ele>744.0</ele><time>2026-05-02T12:34:46.125Z</time></trkpt><trkpt lat="42.080656" lon="13.5410289"><ele>744.0</ele><time>2026-05-02T12:34:47.125Z</time></trkpt><trkpt lat="42.0807389" lon="13.5410292"><ele>744.0</ele><time>2026-05-02T12:34:48.126Z</time></trkpt><trkpt lat="42.0808298" lon="13.5410289"><ele>744.0</ele><time>2026-05-02T12:34:49.126Z</time></trkpt><trkpt lat="42.0809307" lon="13.5410276"><ele>744.0</ele><time>2026-05-02T12:34:50.126Z</time></trkpt><trkpt lat="42.0810343" lon="13.5410273"><ele>744.25</ele><time>2026-05-02T12:34:51.126Z</time></trkpt><trkpt lat="42.0811425" lon="13.5410215"><ele>744.5</ele><time>2026-05-02T12:34:52.125Z</time></trkpt><trkpt lat="42.0812574" lon="13.5410301"><ele>744.75</ele><time>2026-05-02T12:34:53.126Z</time></trkpt><trkpt lat="42.0813754" lon="13.5410475"><ele>745.0</ele><time>2026-05-02T12:34:54.127Z</time></trkpt><trkpt lat="42.081491" lon="13.5410716"><ele>745.2</ele><time>2026-05-02T12:34:55.126Z</time></trkpt><trkpt lat="42.0816006" lon="13.5411057"><ele>745.4</ele><time>2026-05-02T12:34:56.125Z</time></trkpt><trkpt lat="42.0816991" lon="13.5411371"><ele>745.5999999999999</ele><time>2026-05-02T12:34:57.126Z</time></trkpt><trkpt lat="42.081786" lon="13.5411768"><ele>745.8</ele><time>2026-05-02T12:34:58.125Z</time></trkpt><trkpt lat="42.0818599" lon="13.541233"><ele>746.0</ele><time>2026-05-02T12:34:59.126Z</time></trkpt><trkpt lat="42.0819242" lon="13.5412962"><ele>746.0</ele><time>2026-05-02T12:35:00.125Z</time></trkpt><trkpt lat="42.0819807" lon="13.5413525"><ele>746.0</ele><time>2026-05-02T12:35:01.125Z</time></trkpt><trkpt lat="42.0820789" lon="13.5414264"><ele>746.0</ele><time>2026-05-02T12:35:03.125Z</time></trkpt><trkpt lat="42.0821518" lon="13.5414434"><ele>746.0</ele><time>2026-05-02T12:35:05.126Z</time></trkpt><trkpt lat="42.0822277" lon="13.5414187"><ele>746.0</ele><time>2026-05-02T12:35:19.125Z</time></trkpt><trkpt lat="42.0822778" lon="13.5415258"><ele>746.0</ele><time>2026-05-02T12:39:08.124Z</time></trkpt><trkpt lat="42.0823199" lon="13.5414593"><ele>746.0</ele><time>2026-05-02T12:39:16.125Z</time></trkpt><trkpt lat="42.0823458" lon="13.5413318"><ele>746.0</ele><time>2026-05-02T12:50:41.124Z</time></trkpt><trkpt lat="42.0822772" lon="13.5412698"><ele>746.0</ele><time>2026-05-02T12:50:43.124Z</time></trkpt><trkpt lat="42.0821989" lon="13.5412903"><ele>746.0</ele><time>2026-05-02T12:50:45.123Z</time></trkpt><trkpt lat="42.082147" lon="13.5413759"><ele>746.0</ele><time>2026-05-02T12:50:47.124Z</time></trkpt><trkpt lat="42.0821108" lon="13.5414535"><ele>746.0</ele><time>2026-05-02T12:50:49.124Z</time></trkpt><trkpt lat="42.082097" lon="13.5415508"><ele>746.0</ele><time>2026-05-02T12:50:51.125Z</time></trkpt><trkpt lat="42.0821374" lon="13.5416921"><ele>746.0</ele><time>2026-05-02T12:50:53.123Z</time></trkpt><trkpt lat="42.0822024" lon="13.5418089"><ele>746.0</ele><time>2026-05-02T12:50:55.123Z</time></trkpt><trkpt lat="42.0822685" lon="13.5419342"><ele>746.0</ele><time>2026-05-02T12:50:57.124Z</time></trkpt><trkpt lat="42.0823213" lon="13.5420623"><ele>746.0</ele><time>2026-05-02T12:50:59.124Z</time></trkpt><trkpt lat="42.08237" lon="13.5421761"><ele>746.1666666666666</ele><time>2026-05-02T12:51:01.123Z</time></trkpt><trkpt lat="42.0824296" lon="13.5423048"><ele>746.3333333333333</ele><time>2026-05-02T12:51:03.123Z</time></trkpt><trkpt lat="42.082462" lon="13.5423852"><ele>746.5</ele><time>2026-05-02T12:51:04.124Z</time></trkpt><trkpt lat="42.0825136" lon="13.5425054"><ele>746.6666666666666</ele><time>2026-05-02T12:51:06.124Z</time></trkpt><trkpt lat="42.0825109" lon="13.5425939"><ele>746.8333333333334</ele><time>2026-05-02T12:51:09.123Z</time></trkpt><trkpt lat="42.0824616" lon="13.5426747"><ele>747.0</ele><time>2026-05-02T12:51:11.123Z</time></trkpt><trkpt lat="42.0823941" lon="13.5427836"><ele>746.9999999999999</ele><time>2026-05-02T12:51:13.123Z</time></trkpt><trkpt lat="42.0823617" lon="13.5428625"><ele>747.0</ele><time>2026-05-02T12:51:14.123Z</time></trkpt><trkpt lat="42.0823386" lon="13.5429521"><ele>747.0</ele><time>2026-05-02T12:51:15.125Z</time></trkpt><trkpt lat="42.0823224" lon="13.543047"><ele>747.0</ele><time>2026-05-02T12:51:16.124Z</time></trkpt><trkpt lat="42.0823211" lon="13.5431324"><ele>747.0</ele><time>2026-05-02T12:51:17.124Z</time></trkpt><trkpt lat="42.082335" lon="13.5432538"><ele>746.9999999999999</ele><time>2026-05-02T12:51:19.125Z</time></trkpt><trkpt lat="42.0823855" lon="13.5433407"><ele>747.0</ele><time>2026-05-02T12:51:22.124Z</time></trkpt><trkpt lat="42.0824517" lon="13.5432444"><ele>749.8</ele><time>2026-05-02T12:51:25.123Z</time></trkpt><trkpt lat="42.0825233" lon="13.5431191"><ele>752.6</ele><time>2026-05-02T12:51:27.124Z</time></trkpt><trkpt lat="42.0825693" lon="13.5430496"><ele>755.4</ele><time>2026-05-02T12:51:28.124Z</time></trkpt><trkpt lat="42.082625" lon="13.5429944"><ele>758.1999999999999</ele><time>2026-05-02T12:51:29.125Z</time></trkpt><trkpt lat="42.0827325" lon="13.5429519"><ele>761.0</ele><time>2026-05-02T12:51:31.124Z</time></trkpt><trkpt lat="42.0828768" lon="13.5429792"><ele>761.0</ele><time>2026-05-02T12:51:33.125Z</time></trkpt><trkpt lat="42.0829652" lon="13.5429994"><ele>761.0</ele><time>2026-05-02T12:51:34.125Z</time></trkpt><trkpt lat="42.0830726" lon="13.5430221"><ele>761.0</ele><time>2026-05-02T12:51:35.123Z</time></trkpt><trkpt lat="42.0831913" lon="13.5430398"><ele>761.0</ele><time>2026-05-02T12:51:36.123Z</time></trkpt><trkpt lat="42.0833182" lon="13.5430529"><ele>761.0</ele><time>2026-05-02T12:51:37.124Z</time></trkpt><trkpt lat="42.0834525" lon="13.5430588"><ele>765.0</ele><time>2026-05-02T12:51:38.125Z</time></trkpt><trkpt lat="42.0835932" lon="13.5430689"><ele>769.0</ele><time>2026-05-02T12:51:39.125Z</time></trkpt><trkpt lat="42.0837401" lon="13.5430622"><ele>773.0</ele><time>2026-05-02T12:51:40.123Z</time></trkpt><trkpt lat="42.0838822" lon="13.54303"><ele>777.0</ele><time>2026-05-02T12:51:41.123Z</time></trkpt><trkpt lat="42.084014" lon="13.5429853"><ele>779.25</ele><time>2026-05-02T12:51:42.123Z</time></trkpt><trkpt lat="42.0841332" lon="13.5429478"><ele>781.5</ele><time>2026-05-02T12:51:43.123Z</time></trkpt><trkpt lat="42.0842629" lon="13.5429267"><ele>783.75</ele><time>2026-05-02T12:51:44.123Z</time></trkpt><trkpt lat="42.0843958" lon="13.5429225"><ele>786.0</ele><time>2026-05-02T12:51:45.124Z</time></trkpt><trkpt lat="42.0845349" lon="13.5429339"><ele>786.0</ele><time>2026-05-02T12:51:46.124Z</time></trkpt><trkpt lat="42.0846768" lon="13.5429459"><ele>786.0</ele><time>2026-05-02T12:51:47.123Z</time></trkpt><trkpt lat="42.0847978" lon="13.5429584"><ele>786.0</ele><time>2026-05-02T12:51:48.123Z</time></trkpt><trkpt lat="42.0849012" lon="13.5429693"><ele>786.0</ele><time>2026-05-02T12:51:49.124Z</time></trkpt><trkpt lat="42.0850002" lon="13.542979"><ele>788.25</ele><time>2026-05-02T12:51:50.124Z</time></trkpt><trkpt lat="42.0851079" lon="13.542995"><ele>790.5</ele><time>2026-05-02T12:51:51.123Z</time></trkpt><trkpt lat="42.0852151" lon="13.5430276"><ele>792.75</ele><time>2026-05-02T12:51:52.123Z</time></trkpt><trkpt lat="42.0853306" lon="13.5430733"><ele>795.0</ele><time>2026-05-02T12:51:53.124Z</time></trkpt><trkpt lat="42.0854479" lon="13.5431362"><ele>795.0</ele><time>2026-05-02T12:51:54.124Z</time></trkpt><trkpt lat="42.085564" lon="13.5431964"><ele>795.0</ele><time>2026-05-02T12:51:55.123Z</time></trkpt><trkpt lat="42.0856674" lon="13.5432537"><ele>795.0</ele><time>2026-05-02T12:51:56.123Z</time></trkpt><trkpt lat="42.0857774" lon="13.5433131"><ele>795.0</ele><time>2026-05-02T12:51:57.123Z</time></trkpt><trkpt lat="42.0858997" lon="13.5433694"><ele>794.75</ele><time>2026-05-02T12:51:58.123Z</time></trkpt><trkpt lat="42.0860234" lon="13.5434238"><ele>794.5</ele><time>2026-05-02T12:51:59.124Z</time></trkpt><trkpt lat="42.0861544" lon="13.5434537"><ele>794.25</ele><time>2026-05-02T12:52:00.124Z</time></trkpt><trkpt lat="42.0862771" lon="13.5434802"><ele>794.0</ele><time>2026-05-02T12:52:01.124Z</time></trkpt><trkpt lat="42.0863891" lon="13.5435067"><ele>794.0</ele><time>2026-05-02T12:52:02.124Z</time></trkpt><trkpt lat="42.0864956" lon="13.5435357"><ele>794.0</ele><time>2026-05-02T12:52:03.124Z</time></trkpt><trkpt lat="42.0866107" lon="13.5435558"><ele>794.0</ele><time>2026-05-02T12:52:04.124Z</time></trkpt><trkpt lat="42.0867261" lon="13.5435651"><ele>794.0</ele><time>2026-05-02T12:52:05.124Z</time></trkpt><trkpt lat="42.0868287" lon="13.543565"><ele>794.0</ele><time>2026-05-02T12:52:06.124Z</time></trkpt><trkpt lat="42.0869256" lon="13.5435492"><ele>793.5</ele><time>2026-05-02T12:52:07.125Z</time></trkpt><trkpt lat="42.0870225" lon="13.5434992"><ele>793.0</ele><time>2026-05-02T12:52:08.123Z</time></trkpt><trkpt lat="42.0871251" lon="13.5434175"><ele>792.5</ele><time>2026-05-02T12:52:09.124Z</time></trkpt><trkpt lat="42.0872238" lon="13.5433207"><ele>792.0</ele><time>2026-05-02T12:52:10.124Z</time></trkpt><trkpt lat="42.0873023" lon="13.5432138"><ele>792.0</ele><time>2026-05-02T12:52:11.124Z</time></trkpt><trkpt lat="42.0873599" lon="13.5431305"><ele>792.0</ele><time>2026-05-02T12:52:12.124Z</time></trkpt><trkpt lat="42.0874372" lon="13.5430133"><ele>792.0</ele><time>2026-05-02T12:52:14.124Z</time></trkpt><trkpt lat="42.0874833" lon="13.5429366"><ele>792.0</ele><time>2026-05-02T12:52:15.125Z</time></trkpt><trkpt lat="42.0875361" lon="13.5428423"><ele>792.0</ele><time>2026-05-02T12:52:16.124Z</time></trkpt><trkpt lat="42.0875834" lon="13.5427495"><ele>792.0</ele><time>2026-05-02T12:52:17.124Z</time></trkpt><trkpt lat="42.0876306" lon="13.5426529"><ele>792.0</ele><time>2026-05-02T12:52:19.124Z</time></trkpt><trkpt lat="42.0877007" lon="13.5425723"><ele>792.0</ele><time>2026-05-02T12:52:21.123Z</time></trkpt><trkpt lat="42.0877472" lon="13.5425013"><ele>792.0</ele><time>2026-05-02T12:52:22.123Z</time></trkpt><trkpt lat="42.0878011" lon="13.5423978"><ele>792.0</ele><time>2026-05-02T12:52:23.123Z</time></trkpt><trkpt lat="42.0878665" lon="13.5422977"><ele>792.0</ele><time>2026-05-02T12:52:24.124Z</time></trkpt><trkpt lat="42.0879629" lon="13.5422059"><ele>792.0</ele><time>2026-05-02T12:52:25.123Z</time></trkpt><trkpt lat="42.0880673" lon="13.5421257"><ele>792.0</ele><time>2026-05-02T12:52:26.123Z</time></trkpt><trkpt lat="42.0881761" lon="13.5420562"><ele>792.0</ele><time>2026-05-02T12:52:27.123Z</time></trkpt><trkpt lat="42.0882809" lon="13.5419896"><ele>792.0</ele><time>2026-05-02T12:52:28.123Z</time></trkpt><trkpt lat="42.0883786" lon="13.541932"><ele>792.8</ele><time>2026-05-02T12:52:29.124Z</time></trkpt><trkpt lat="42.0884752" lon="13.5418777"><ele>793.6</ele><time>2026-05-02T12:52:30.125Z</time></trkpt><trkpt lat="42.0885649" lon="13.5418106"><ele>794.4</ele><time>2026-05-02T12:52:31.124Z</time></trkpt><trkpt lat="42.0886375" lon="13.5417274"><ele>795.1999999999999</ele><time>2026-05-02T12:52:32.123Z</time></trkpt><trkpt lat="42.0886767" lon="13.5416213"><ele>796.0</ele><time>2026-05-02T12:52:33.125Z</time></trkpt><trkpt lat="42.0886903" lon="13.5415034"><ele>795.9999999999999</ele><time>2026-05-02T12:52:34.124Z</time></trkpt><trkpt lat="42.0886812" lon="13.5413707"><ele>796.0</ele><time>2026-05-02T12:52:35.123Z</time></trkpt><trkpt lat="42.0886635" lon="13.5412511"><ele>796.0</ele><time>2026-05-02T12:52:36.124Z</time></trkpt><trkpt lat="42.0886345" lon="13.5411499"><ele>796.0</ele><time>2026-05-02T12:52:37.125Z</time></trkpt><trkpt lat="42.0885965" lon="13.5410612"><ele>795.9999999999999</ele><time>2026-05-02T12:52:38.124Z</time></trkpt><trkpt lat="42.0885477" lon="13.5409821"><ele>796.0</ele><time>2026-05-02T12:52:39.123Z</time></trkpt><trkpt lat="42.0884942" lon="13.540889"><ele>795.8</ele><time>2026-05-02T12:52:40.124Z</time></trkpt><trkpt lat="42.0884522" lon="13.5407965"><ele>795.5999999999999</ele><time>2026-05-02T12:52:41.123Z</time></trkpt><trkpt lat="42.08839" lon="13.5406798"><ele>795.4</ele><time>2026-05-02T12:52:42.123Z</time></trkpt><trkpt lat="42.0883517" lon="13.5405689"><ele>795.2</ele><time>2026-05-02T12:52:43.123Z</time></trkpt><trkpt lat="42.0883242" lon="13.54044"><ele>795.0</ele><time>2026-05-02T12:52:44.123Z</time></trkpt><trkpt lat="42.0883071" lon="13.5402949"><ele>794.75</ele><time>2026-05-02T12:52:45.123Z</time></trkpt><trkpt lat="42.0883" lon="13.5401386"><ele>794.5</ele><time>2026-05-02T12:52:46.123Z</time></trkpt><trkpt lat="42.0882978" lon="13.5399861"><ele>794.25</ele><time>2026-05-02T12:52:47.124Z</time></trkpt><trkpt lat="42.0883009" lon="13.5398398"><ele>794.0</ele><time>2026-05-02T12:52:48.125Z</time></trkpt><trkpt lat="42.088309" lon="13.5396884"><ele>794.0</ele><time>2026-05-02T12:52:49.123Z</time></trkpt><trkpt lat="42.088322" lon="13.5395336"><ele>794.0</ele><time>2026-05-02T12:52:50.124Z</time></trkpt><trkpt lat="42.0883412" lon="13.5393725"><ele>794.0</ele><time>2026-05-02T12:52:51.124Z</time></trkpt><trkpt lat="42.0883618" lon="13.5392061"><ele>794.0</ele><time>2026-05-02T12:52:52.124Z</time></trkpt><trkpt lat="42.0883598" lon="13.5390396"><ele>794.0</ele><time>2026-05-02T12:52:53.123Z</time></trkpt><trkpt lat="42.0883555" lon="13.5388959"><ele>794.0</ele><time>2026-05-02T12:52:54.124Z</time></trkpt><trkpt lat="42.0883456" lon="13.5387641"><ele>794.0</ele><time>2026-05-02T12:52:55.123Z</time></trkpt><trkpt lat="42.0883306" lon="13.5386372"><ele>794.0</ele><time>2026-05-02T12:52:56.123Z</time></trkpt><trkpt lat="42.0883147" lon="13.5385099"><ele>794.0</ele><time>2026-05-02T12:52:57.124Z</time></trkpt><trkpt lat="42.0883048" lon="13.5384006"><ele>794.0000000000001</ele><time>2026-05-02T12:52:58.123Z</time></trkpt><trkpt lat="42.088295" lon="13.5383092"><ele>794.0</ele><time>2026-05-02T12:52:59.123Z</time></trkpt><trkpt lat="42.0882815" lon="13.5382222"><ele>794.0</ele><time>2026-05-02T12:53:00.124Z</time></trkpt><trkpt lat="42.0882727" lon="13.5381354"><ele>794.0</ele><time>2026-05-02T12:53:01.125Z</time></trkpt><trkpt lat="42.0882611" lon="13.5380268"><ele>794.0000000000001</ele><time>2026-05-02T12:53:03.124Z</time></trkpt><trkpt lat="42.0882437" lon="13.538153"><ele>794.0</ele><time>2026-05-02T12:53:08.123Z</time></trkpt><trkpt lat="42.0882635" lon="13.5383034"><ele>794.0000000000001</ele><time>2026-05-02T12:53:10.124Z</time></trkpt><trkpt lat="42.0882899" lon="13.5384452"><ele>794.0</ele><time>2026-05-02T12:53:12.124Z</time></trkpt><trkpt lat="42.0882922" lon="13.5385432"><ele>794.0</ele><time>2026-05-02T12:53:14.124Z</time></trkpt><trkpt lat="42.0883386" lon="13.5386245"><ele>794.0</ele><time>2026-05-02T12:53:17.123Z</time></trkpt><trkpt lat="42.0884338" lon="13.5385899"><ele>794.0000000000001</ele><time>2026-05-02T12:53:19.125Z</time></trkpt><trkpt lat="42.0885003" lon="13.5385426"><ele>794.0</ele><time>2026-05-02T12:53:20.124Z</time></trkpt><trkpt lat="42.0885976" lon="13.5384981"><ele>794.0</ele><time>2026-05-02T12:53:21.124Z</time></trkpt><trkpt lat="42.0887058" lon="13.5384458"><ele>794.0</ele><time>2026-05-02T12:53:22.123Z</time></trkpt><trkpt lat="42.0887851" lon="13.5383983"><ele>794.0</ele><time>2026-05-02T12:53:23.123Z</time></trkpt><trkpt lat="42.0888876" lon="13.5383372"><ele>794.0</ele><time>2026-05-02T12:53:24.123Z</time></trkpt><trkpt lat="42.0889222" lon="13.5382431"><ele>794.0</ele><time>2026-05-02T12:53:25.123Z</time></trkpt><trkpt lat="42.0889934" lon="13.5381289"><ele>794.0</ele><time>2026-05-02T12:53:26.123Z</time></trkpt><trkpt lat="42.0890579" lon="13.5379961"><ele>794.0</ele><time>2026-05-02T12:53:27.124Z</time></trkpt><trkpt lat="42.0891316" lon="13.5378399"><ele>794.0</ele><time>2026-05-02T12:53:28.123Z</time></trkpt><trkpt lat="42.0892011" lon="13.5377143"><ele>794.0</ele><time>2026-05-02T12:53:29.123Z</time></trkpt><trkpt lat="42.0892801" lon="13.5375954"><ele>797.0</ele><time>2026-05-02T12:53:30.124Z</time></trkpt><trkpt lat="42.0893877" lon="13.537469"><ele>800.0</ele><time>2026-05-02T12:53:31.123Z</time></trkpt><trkpt lat="42.0895132" lon="13.5373331"><ele>803.0</ele><time>2026-05-02T12:53:32.125Z</time></trkpt><trkpt lat="42.0896474" lon="13.5371895"><ele>803.0</ele><time>2026-05-02T12:53:33.123Z</time></trkpt><trkpt lat="42.0897563" lon="13.5370651"><ele>803.0</ele><time>2026-05-02T12:53:34.124Z</time></trkpt><trkpt lat="42.0898594" lon="13.5369382"><ele>803.0</ele><time>2026-05-02T12:53:35.125Z</time></trkpt><trkpt lat="42.0899684" lon="13.5368105"><ele>803.0</ele><time>2026-05-02T12:53:36.125Z</time></trkpt><trkpt lat="42.0900549" lon="13.536703"><ele>803.8333333333334</ele><time>2026-05-02T12:53:37.124Z</time></trkpt><trkpt lat="42.0901335" lon="13.5366122"><ele>804.6666666666667</ele><time>2026-05-02T12:53:38.124Z</time></trkpt><trkpt lat="42.0901977" lon="13.5365383"><ele>805.5</ele><time>2026-05-02T12:53:39.123Z</time></trkpt><trkpt lat="42.0902467" lon="13.5364824"><ele>806.3333333333333</ele><time>2026-05-02T12:53:40.123Z</time></trkpt><trkpt lat="42.0903004" lon="13.536342"><ele>807.1666666666666</ele><time>2026-05-02T12:53:42.124Z</time></trkpt><trkpt lat="42.0903078" lon="13.5362564"><ele>808.0</ele><time>2026-05-02T12:53:43.124Z</time></trkpt><trkpt lat="42.0902938" lon="13.5361414"><ele>808.0</ele><time>2026-05-02T12:53:44.125Z</time></trkpt><trkpt lat="42.0902642" lon="13.5359811"><ele>808.0</ele><time>2026-05-02T12:53:45.123Z</time></trkpt><trkpt lat="42.0902368" lon="13.535811"><ele>808.0</ele><time>2026-05-02T12:53:46.123Z</time></trkpt><trkpt lat="42.0902152" lon="13.5356673"><ele>808.0</ele><time>2026-05-02T12:53:47.125Z</time></trkpt><trkpt lat="42.0902069" lon="13.53553"><ele>808.0</ele><time>2026-05-02T12:53:48.124Z</time></trkpt><trkpt lat="42.0902038" lon="13.5353989"><ele>808.0</ele><time>2026-05-02T12:53:49.123Z</time></trkpt><trkpt lat="42.0902308" lon="13.5352325"><ele>808.0</ele><time>2026-05-02T12:53:50.123Z</time></trkpt><trkpt lat="42.0902494" lon="13.5350801"><ele>808.0</ele><time>2026-05-02T12:53:51.125Z</time></trkpt><trkpt lat="42.0902594" lon="13.5349468"><ele>808.0</ele><time>2026-05-02T12:53:52.124Z</time></trkpt><trkpt lat="42.0902744" lon="13.5348191"><ele>808.0</ele><time>2026-05-02T12:53:53.123Z</time></trkpt><trkpt lat="42.0903026" lon="13.5346797"><ele>808.0</ele><time>2026-05-02T12:53:54.123Z</time></trkpt><trkpt lat="42.0903405" lon="13.5345566"><ele>808.0</ele><time>2026-05-02T12:53:55.123Z</time></trkpt><trkpt lat="42.0903955" lon="13.5344279"><ele>808.0</ele><time>2026-05-02T12:53:56.123Z</time></trkpt><trkpt lat="42.0904672" lon="13.5342864"><ele>808.0</ele><time>2026-05-02T12:53:57.124Z</time></trkpt><trkpt lat="42.090561" lon="13.5341367"><ele>808.0</ele><time>2026-05-02T12:53:58.123Z</time></trkpt><trkpt lat="42.0906711" lon="13.53396"><ele>808.0</ele><time>2026-05-02T12:53:59.123Z</time></trkpt><trkpt lat="42.0907808" lon="13.5337593"><ele>808.0</ele><time>2026-05-02T12:54:00.123Z</time></trkpt><trkpt lat="42.0908887" lon="13.5335418"><ele>810.0</ele><time>2026-05-02T12:54:01.123Z</time></trkpt><trkpt lat="42.09098" lon="13.5333565"><ele>812.0</ele><time>2026-05-02T12:54:02.124Z</time></trkpt><trkpt lat="42.091064" lon="13.5331848"><ele>814.0</ele><time>2026-05-02T12:54:03.124Z</time></trkpt><trkpt lat="42.09113" lon="13.5330234"><ele>814.2</ele><time>2026-05-02T12:54:04.123Z</time></trkpt><trkpt lat="42.0911992" lon="13.5328843"><ele>814.4000000000001</ele><time>2026-05-02T12:54:05.124Z</time></trkpt><trkpt lat="42.0912803" lon="13.5327592"><ele>814.6</ele><time>2026-05-02T12:54:06.123Z</time></trkpt><trkpt lat="42.0913486" lon="13.5326591"><ele>814.8</ele><time>2026-05-02T12:54:07.124Z</time></trkpt><trkpt lat="42.091408" lon="13.5325712"><ele>815.0</ele><time>2026-05-02T12:54:08.123Z</time></trkpt><trkpt lat="42.0914683" lon="13.5324905"><ele>815.0</ele><time>2026-05-02T12:54:09.123Z</time></trkpt><trkpt lat="42.0915384" lon="13.5324141"><ele>815.0</ele><time>2026-05-02T12:54:10.124Z</time></trkpt><trkpt lat="42.0916164" lon="13.532337"><ele>815.0</ele><time>2026-05-02T12:54:11.124Z</time></trkpt><trkpt lat="42.0916995" lon="13.5322285"><ele>815.0</ele><time>2026-05-02T12:54:12.125Z</time></trkpt><trkpt lat="42.0917819" lon="13.5320854"><ele>815.0</ele><time>2026-05-02T12:54:13.123Z</time></trkpt><trkpt lat="42.0918618" lon="13.5319126"><ele>816.6666666666667</ele><time>2026-05-02T12:54:14.123Z</time></trkpt><trkpt lat="42.0919368" lon="13.5317054"><ele>818.3333333333333</ele><time>2026-05-02T12:54:15.123Z</time></trkpt><trkpt lat="42.0919959" lon="13.5314833"><ele>820.0</ele><time>2026-05-02T12:54:16.123Z</time></trkpt><trkpt lat="42.092048" lon="13.5312414"><ele>819.3333333333333</ele><time>2026-05-02T12:54:17.123Z</time></trkpt><trkpt lat="42.0920955" lon="13.5310246"><ele>818.6666666666667</ele><time>2026-05-02T12:54:18.124Z</time></trkpt><trkpt lat="42.0921388" lon="13.5308238"><ele>818.0</ele><time>2026-05-02T12:54:19.123Z</time></trkpt><trkpt lat="42.092183" lon="13.5306381"><ele>818.0</ele><time>2026-05-02T12:54:20.123Z</time></trkpt><trkpt lat="42.0922321" lon="13.5304696"><ele>818.0</ele><time>2026-05-02T12:54:21.124Z</time></trkpt><trkpt lat="42.0922911" lon="13.5302999"><ele>818.0</ele><time>2026-05-02T12:54:22.123Z</time></trkpt><trkpt lat="42.0923645" lon="13.5301216"><ele>818.0</ele><time>2026-05-02T12:54:23.123Z</time></trkpt><trkpt lat="42.0924442" lon="13.5299363"><ele>820.3333333333334</ele><time>2026-05-02T12:54:24.123Z</time></trkpt><trkpt lat="42.0925273" lon="13.5297414"><ele>822.6666666666667</ele><time>2026-05-02T12:54:25.124Z</time></trkpt><trkpt lat="42.0926103" lon="13.5295406"><ele>825.0</ele><time>2026-05-02T12:54:26.124Z</time></trkpt><trkpt lat="42.0926913" lon="13.5293347"><ele>825.0</ele><time>2026-05-02T12:54:27.124Z</time></trkpt><trkpt lat="42.0927636" lon="13.5291186"><ele>825.0</ele><time>2026-05-02T12:54:28.124Z</time></trkpt><trkpt lat="42.0928288" lon="13.5289194"><ele>825.0</ele><time>2026-05-02T12:54:29.124Z</time></trkpt><trkpt lat="42.0928909" lon="13.5287444"><ele>824.0</ele><time>2026-05-02T12:54:30.123Z</time></trkpt><trkpt lat="42.0929506" lon="13.5285821"><ele>823.0</ele><time>2026-05-02T12:54:31.123Z</time></trkpt><trkpt lat="42.0930081" lon="13.5284411"><ele>822.0</ele><time>2026-05-02T12:54:32.124Z</time></trkpt><trkpt lat="42.0930634" lon="13.528322"><ele>821.0</ele><time>2026-05-02T12:54:33.123Z</time></trkpt><trkpt lat="42.0931213" lon="13.5282146"><ele>821.0</ele><time>2026-05-02T12:54:34.123Z</time></trkpt><trkpt lat="42.0931974" lon="13.5281156"><ele>821.0</ele><time>2026-05-02T12:54:35.125Z</time></trkpt><trkpt lat="42.0932823" lon="13.5280106"><ele>821.0</ele><time>2026-05-02T12:54:36.124Z</time></trkpt><trkpt lat="42.0933785" lon="13.527902"><ele>821.0</ele><time>2026-05-02T12:54:37.124Z</time></trkpt><trkpt lat="42.0934733" lon="13.5278084"><ele>822.1666666666667</ele><time>2026-05-02T12:54:38.124Z</time></trkpt><trkpt lat="42.0935639" lon="13.5277264"><ele>823.3333333333334</ele><time>2026-05-02T12:54:39.123Z</time></trkpt><trkpt lat="42.0936495" lon="13.5276655"><ele>824.5</ele><time>2026-05-02T12:54:40.123Z</time></trkpt><trkpt lat="42.0937262" lon="13.5276155"><ele>825.6666666666667</ele><time>2026-05-02T12:54:41.123Z</time></trkpt><trkpt lat="42.0937953" lon="13.5275704"><ele>826.8333333333334</ele><time>2026-05-02T12:54:42.125Z</time></trkpt><trkpt lat="42.0938589" lon="13.5275253"><ele>828.0</ele><time>2026-05-02T12:54:43.123Z</time></trkpt><trkpt lat="42.0938572" lon="13.5274113"><ele>828.0</ele><time>2026-05-02T12:54:45.123Z</time></trkpt><trkpt lat="42.0938842" lon="13.5272278"><ele>828.0</ele><time>2026-05-02T12:54:47.123Z</time></trkpt><trkpt lat="42.0938935" lon="13.5271001"><ele>828.0</ele><time>2026-05-02T12:54:48.124Z</time></trkpt><trkpt lat="42.0939025" lon="13.5269717"><ele>828.0</ele><time>2026-05-02T12:54:49.124Z</time></trkpt><trkpt lat="42.0938993" lon="13.5268476"><ele>828.0</ele><time>2026-05-02T12:54:50.124Z</time></trkpt><trkpt lat="42.093911" lon="13.5267587"><ele>827.5999999999999</ele><time>2026-05-02T12:54:51.124Z</time></trkpt><trkpt lat="42.0939497" lon="13.5266416"><ele>827.1999999999999</ele><time>2026-05-02T12:54:52.123Z</time></trkpt><trkpt lat="42.0939787" lon="13.5265054"><ele>826.8</ele><time>2026-05-02T12:54:53.123Z</time></trkpt><trkpt lat="42.0940026" lon="13.5263946"><ele>826.4</ele><time>2026-05-02T12:54:54.124Z</time></trkpt><trkpt lat="42.0940197" lon="13.5262643"><ele>826.0</ele><time>2026-05-02T12:54:55.123Z</time></trkpt><trkpt lat="42.09403" lon="13.5261435"><ele>826.8333333333333</ele><time>2026-05-02T12:54:56.123Z</time></trkpt><trkpt lat="42.0940459" lon="13.5260305"><ele>827.6666666666666</ele><time>2026-05-02T12:54:57.124Z</time></trkpt><trkpt lat="42.0940683" lon="13.5259285"><ele>828.5</ele><time>2026-05-02T12:54:58.123Z</time></trkpt><trkpt lat="42.0940905" lon="13.5258209"><ele>829.3333333333333</ele><time>2026-05-02T12:54:59.123Z</time></trkpt><trkpt lat="42.0941235" lon="13.5257238"><ele>830.1666666666666</ele><time>2026-05-02T12:55:00.123Z</time></trkpt><trkpt lat="42.094157" lon="13.5256412"><ele>831.0</ele><time>2026-05-02T12:55:01.123Z</time></trkpt><trkpt lat="42.0941857" lon="13.5255656"><ele>831.0</ele><time>2026-05-02T12:55:02.124Z</time></trkpt><trkpt lat="42.0942056" lon="13.5254084"><ele>831.0</ele><time>2026-05-02T12:55:04.124Z</time></trkpt><trkpt lat="42.0942525" lon="13.5252536"><ele>831.0</ele><time>2026-05-02T12:55:06.125Z</time></trkpt><trkpt lat="42.0943021" lon="13.5251708"><ele>831.0</ele><time>2026-05-02T12:55:07.124Z</time></trkpt><trkpt lat="42.0943614" lon="13.5251025"><ele>831.0</ele><time>2026-05-02T12:55:08.124Z</time></trkpt><trkpt lat="42.0944236" lon="13.525025"><ele>828.1999999999999</ele><time>2026-05-02T12:55:09.123Z</time></trkpt><trkpt lat="42.0944943" lon="13.5249397"><ele>825.4</ele><time>2026-05-02T12:55:10.124Z</time></trkpt><trkpt lat="42.0945677" lon="13.5248599"><ele>822.6</ele><time>2026-05-02T12:55:11.123Z</time></trkpt><trkpt lat="42.0946387" lon="13.5247851"><ele>819.8</ele><time>2026-05-02T12:55:12.123Z</time></trkpt><trkpt lat="42.0947108" lon="13.5247105"><ele>817.0</ele><time>2026-05-02T12:55:13.123Z</time></trkpt><trkpt lat="42.0947786" lon="13.5246367"><ele>816.9999999999999</ele><time>2026-05-02T12:55:14.123Z</time></trkpt><trkpt lat="42.0948364" lon="13.5245638"><ele>817.0</ele><time>2026-05-02T12:55:15.124Z</time></trkpt><trkpt lat="42.0949002" lon="13.5244976"><ele>817.0</ele><time>2026-05-02T12:55:16.123Z</time></trkpt><trkpt lat="42.0949749" lon="13.5244383"><ele>817.0</ele><time>2026-05-02T12:55:17.123Z</time></trkpt><trkpt lat="42.0950589" lon="13.5243794"><ele>816.9999999999999</ele><time>2026-05-02T12:55:18.124Z</time></trkpt><trkpt lat="42.0951419" lon="13.5243179"><ele>817.0</ele><time>2026-05-02T12:55:19.125Z</time></trkpt><trkpt lat="42.0952254" lon="13.5242511"><ele>817.8</ele><time>2026-05-02T12:55:20.123Z</time></trkpt><trkpt lat="42.095305" lon="13.5241727"><ele>818.6</ele><time>2026-05-02T12:55:21.124Z</time></trkpt><trkpt lat="42.0953773" lon="13.5240878"><ele>819.4</ele><time>2026-05-02T12:55:22.124Z</time></trkpt><trkpt lat="42.0954541" lon="13.5240061"><ele>820.1999999999999</ele><time>2026-05-02T12:55:23.124Z</time></trkpt><trkpt lat="42.0955304" lon="13.523937"><ele>821.0</ele><time>2026-05-02T12:55:24.123Z</time></trkpt><trkpt lat="42.0956164" lon="13.523863"><ele>821.0000000000001</ele><time>2026-05-02T12:55:25.124Z</time></trkpt><trkpt lat="42.0956955" lon="13.5237353"><ele>821.0</ele><time>2026-05-02T12:55:27.123Z</time></trkpt><trkpt lat="42.0957295" lon="13.5236526"><ele>821.0</ele><time>2026-05-02T12:55:28.123Z</time></trkpt><trkpt lat="42.0957626" lon="13.5235566"><ele>821.0</ele><time>2026-05-02T12:55:29.124Z</time></trkpt><trkpt lat="42.0957902" lon="13.5234566"><ele>821.0000000000001</ele><time>2026-05-02T12:55:30.124Z</time></trkpt><trkpt lat="42.095812" lon="13.5233541"><ele>821.0</ele><time>2026-05-02T12:55:31.123Z</time></trkpt><trkpt lat="42.0958409" lon="13.5232611"><ele>822.3333333333334</ele><time>2026-05-02T12:55:32.123Z</time></trkpt><trkpt lat="42.0958727" lon="13.5231572"><ele>823.6666666666667</ele><time>2026-05-02T12:55:33.123Z</time></trkpt><trkpt lat="42.0959249" lon="13.5230861"><ele>825.0</ele><time>2026-05-02T12:55:34.123Z</time></trkpt><trkpt lat="42.0959573" lon="13.5229743"><ele>826.3333333333333</ele><time>2026-05-02T12:55:35.123Z</time></trkpt><trkpt lat="42.0959931" lon="13.5228638"><ele>827.6666666666666</ele><time>2026-05-02T12:55:36.123Z</time></trkpt><trkpt lat="42.0960264" lon="13.522751"><ele>829.0</ele><time>2026-05-02T12:55:37.123Z</time></trkpt><trkpt lat="42.0960695" lon="13.522599"><ele>829.6666666666666</ele><time>2026-05-02T12:55:39.124Z</time></trkpt><trkpt lat="42.0960988" lon="13.5225234"><ele>830.3333333333333</ele><time>2026-05-02T12:55:40.124Z</time></trkpt><trkpt lat="42.0961382" lon="13.5223652"><ele>831.0</ele><time>2026-05-02T12:55:42.123Z</time></trkpt><trkpt lat="42.0961819" lon="13.522226"><ele>831.6666666666667</ele><time>2026-05-02T12:55:44.123Z</time></trkpt><trkpt lat="42.0962244" lon="13.5221551"><ele>832.3333333333334</ele><time>2026-05-02T12:55:45.124Z</time></trkpt><trkpt lat="42.0962671" lon="13.5220741"><ele>833.0</ele><time>2026-05-02T12:55:46.123Z</time></trkpt><trkpt lat="42.0963078" lon="13.5219896"><ele>833.3333333333334</ele><time>2026-05-02T12:55:47.124Z</time></trkpt><trkpt lat="42.0963759" lon="13.5218884"><ele>833.6666666666667</ele><time>2026-05-02T12:55:49.124Z</time></trkpt><trkpt lat="42.0963331" lon="13.5218124"><ele>834.0</ele><time>2026-05-02T12:55:52.123Z</time></trkpt><trkpt lat="42.0962521" lon="13.5217491"><ele>834.3333333333333</ele><time>2026-05-02T12:55:55.123Z</time></trkpt><trkpt lat="42.096237" lon="13.5216575"><ele>834.6666666666666</ele><time>2026-05-02T12:55:57.124Z</time></trkpt><trkpt lat="42.0962842" lon="13.5215931"><ele>835.0</ele><time>2026-05-02T12:55:58.124Z</time></trkpt><trkpt lat="42.0963299" lon="13.5214914"><ele>834.9999999999999</ele><time>2026-05-02T12:56:00.124Z</time></trkpt><trkpt lat="42.0963496" lon="13.5213573"><ele>835.0</ele><time>2026-05-02T12:56:02.123Z</time></trkpt><trkpt lat="42.0963719" lon="13.5212689"><ele>835.0</ele><time>2026-05-02T12:56:03.124Z</time></trkpt><trkpt lat="42.0963984" lon="13.5211884"><ele>835.0</ele><time>2026-05-02T12:56:04.123Z</time></trkpt><trkpt lat="42.0964316" lon="13.5211142"><ele>834.9999999999999</ele><time>2026-05-02T12:56:05.123Z</time></trkpt><trkpt lat="42.096462" lon="13.5210359"><ele>835.0</ele><time>2026-05-02T12:56:06.124Z</time></trkpt><trkpt lat="42.0965435" lon="13.5209139"><ele>836.8</ele><time>2026-05-02T12:56:08.123Z</time></trkpt><trkpt lat="42.0965949" lon="13.5208315"><ele>838.6</ele><time>2026-05-02T12:56:09.123Z</time></trkpt><trkpt lat="42.0966595" lon="13.5207321"><ele>840.4000000000001</ele><time>2026-05-02T12:56:10.123Z</time></trkpt><trkpt lat="42.0967305" lon="13.5206211"><ele>842.2</ele><time>2026-05-02T12:56:11.123Z</time></trkpt><trkpt lat="42.0967924" lon="13.5205228"><ele>844.0</ele><time>2026-05-02T12:56:12.124Z</time></trkpt><trkpt lat="42.0968462" lon="13.5204421"><ele>843.6666666666666</ele><time>2026-05-02T12:56:13.124Z</time></trkpt><trkpt lat="42.0969003" lon="13.5203626"><ele>843.3333333333333</ele><time>2026-05-02T12:56:14.124Z</time></trkpt><trkpt lat="42.0969509" lon="13.5202936"><ele>843.0</ele><time>2026-05-02T12:56:15.123Z</time></trkpt><trkpt lat="42.0970018" lon="13.5202424"><ele>842.6666666666667</ele><time>2026-05-02T12:56:16.124Z</time></trkpt><trkpt lat="42.0971311" lon="13.520152"><ele>842.3333333333334</ele><time>2026-05-02T12:56:18.123Z</time></trkpt><trkpt lat="42.0972116" lon="13.5201139"><ele>842.0</ele><time>2026-05-02T12:56:19.124Z</time></trkpt><trkpt lat="42.0972819" lon="13.5200876"><ele>842.0000000000001</ele><time>2026-05-02T12:56:20.123Z</time></trkpt><trkpt lat="42.0973833" lon="13.5200381"><ele>842.0</ele><time>2026-05-02T12:56:22.123Z</time></trkpt><trkpt lat="42.0974187" lon="13.5199516"><ele>842.0</ele><time>2026-05-02T12:56:24.124Z</time></trkpt><trkpt lat="42.0973923" lon="13.5198306"><ele>842.0</ele><time>2026-05-02T12:56:26.123Z</time></trkpt><trkpt lat="42.0973582" lon="13.5197572"><ele>842.0000000000001</ele><time>2026-05-02T12:56:27.124Z</time></trkpt><trkpt lat="42.0973288" lon="13.5196256"><ele>842.0</ele><time>2026-05-02T12:56:29.124Z</time></trkpt><trkpt lat="42.0973222" lon="13.5194646"><ele>844.1666666666667</ele><time>2026-05-02T12:56:31.124Z</time></trkpt><trkpt lat="42.0972873" lon="13.5193179"><ele>846.3333333333334</ele><time>2026-05-02T12:56:33.123Z</time></trkpt><trkpt lat="42.0972528" lon="13.5192432"><ele>848.5</ele><time>2026-05-02T12:56:34.124Z</time></trkpt><trkpt lat="42.0972098" lon="13.5191687"><ele>850.6666666666667</ele><time>2026-05-02T12:56:35.123Z</time></trkpt><trkpt lat="42.0971805" lon="13.5190935"><ele>852.8333333333334</ele><time>2026-05-02T12:56:36.124Z</time></trkpt><trkpt lat="42.0971795" lon="13.5189697"><ele>855.0</ele><time>2026-05-02T12:56:38.123Z</time></trkpt><trkpt lat="42.0971999" lon="13.5188744"><ele>855.0</ele><time>2026-05-02T12:56:39.123Z</time></trkpt><trkpt lat="42.097233" lon="13.5187543"><ele>855.0</ele><time>2026-05-02T12:56:40.124Z</time></trkpt><trkpt lat="42.0972768" lon="13.5186109"><ele>855.0</ele><time>2026-05-02T12:56:41.125Z</time></trkpt><trkpt lat="42.0973134" lon="13.518487"><ele>855.0</ele><time>2026-05-02T12:56:42.124Z</time></trkpt><trkpt lat="42.0973526" lon="13.5183687"><ele>855.0</ele><time>2026-05-02T12:56:43.123Z</time></trkpt><trkpt lat="42.0973959" lon="13.5182567"><ele>859.2</ele><time>2026-05-02T12:56:44.123Z</time></trkpt><trkpt lat="42.09744" lon="13.5181474"><ele>863.4</ele><time>2026-05-02T12:56:45.123Z</time></trkpt><trkpt lat="42.0974926" lon="13.518035"><ele>867.5999999999999</ele><time>2026-05-02T12:56:46.124Z</time></trkpt><trkpt lat="42.0975517" lon="13.5179222"><ele>871.8</ele><time>2026-05-02T12:56:47.124Z</time></trkpt><trkpt lat="42.0976055" lon="13.5178126"><ele>876.0</ele><time>2026-05-02T12:56:48.124Z</time></trkpt><trkpt lat="42.0976655" lon="13.5176954"><ele>876.0</ele><time>2026-05-02T12:56:49.123Z</time></trkpt><trkpt lat="42.0977362" lon="13.5175613"><ele>875.9999999999999</ele><time>2026-05-02T12:56:50.123Z</time></trkpt><trkpt lat="42.0978063" lon="13.5174299"><ele>875.9999999999999</ele><time>2026-05-02T12:56:51.123Z</time></trkpt><trkpt lat="42.0978567" lon="13.5173111"><ele>876.0</ele><time>2026-05-02T12:56:52.122Z</time></trkpt><trkpt lat="42.0978979" lon="13.51719"><ele>876.0</ele><time>2026-05-02T12:56:53.122Z</time></trkpt><trkpt lat="42.0979323" lon="13.5170796"><ele>876.0</ele><time>2026-05-02T12:56:54.122Z</time></trkpt><trkpt lat="42.097961" lon="13.5169785"><ele>876.0</ele><time>2026-05-02T12:56:55.123Z</time></trkpt><trkpt lat="42.0979777" lon="13.5168774"><ele>876.0</ele><time>2026-05-02T12:56:56.123Z</time></trkpt><trkpt lat="42.0979952" lon="13.5167617"><ele>876.0</ele><time>2026-05-02T12:56:57.122Z</time></trkpt><trkpt lat="42.0980156" lon="13.5166338"><ele>876.0</ele><time>2026-05-02T12:56:58.123Z</time></trkpt><trkpt lat="42.0980521" lon="13.5164978"><ele>876.0</ele><time>2026-05-02T12:56:59.123Z</time></trkpt><trkpt lat="42.0980789" lon="13.5163671"><ele>876.0</ele><time>2026-05-02T12:57:00.122Z</time></trkpt><trkpt lat="42.0981025" lon="13.5162497"><ele>875.9999999999999</ele><time>2026-05-02T12:57:01.122Z</time></trkpt><trkpt lat="42.0981313" lon="13.516121"><ele>875.9999999999999</ele><time>2026-05-02T12:57:02.122Z</time></trkpt><trkpt lat="42.0981659" lon="13.516002"><ele>876.0</ele><time>2026-05-02T12:57:03.122Z</time></trkpt><trkpt lat="42.0982015" lon="13.515906"><ele>876.0</ele><time>2026-05-02T12:57:04.124Z</time></trkpt><trkpt lat="42.0982555" lon="13.5158174"><ele>880.8</ele><time>2026-05-02T12:57:05.122Z</time></trkpt><trkpt lat="42.0983239" lon="13.5157191"><ele>885.5999999999999</ele><time>2026-05-02T12:57:06.122Z</time></trkpt><trkpt lat="42.0983954" lon="13.5156081"><ele>890.4</ele><time>2026-05-02T12:57:07.122Z</time></trkpt><trkpt lat="42.0984496" lon="13.5155108"><ele>895.2</ele><time>2026-05-02T12:57:08.123Z</time></trkpt><trkpt lat="42.0985002" lon="13.5154047"><ele>900.0</ele><time>2026-05-02T12:57:09.124Z</time></trkpt><trkpt lat="42.0985559" lon="13.5152935"><ele>901.25</ele><time>2026-05-02T12:57:10.123Z</time></trkpt><trkpt lat="42.0986165" lon="13.5151813"><ele>902.5</ele><time>2026-05-02T12:57:11.123Z</time></trkpt><trkpt lat="42.098687" lon="13.5150549"><ele>903.75</ele><time>2026-05-02T12:57:12.123Z</time></trkpt><trkpt lat="42.0987628" lon="13.5149028"><ele>905.0</ele><time>2026-05-02T12:57:13.122Z</time></trkpt><trkpt lat="42.0988359" lon="13.514756"><ele>905.0000000000001</ele><time>2026-05-02T12:57:14.122Z</time></trkpt><trkpt lat="42.0988847" lon="13.5146358"><ele>905.0</ele><time>2026-05-02T12:57:15.123Z</time></trkpt><trkpt lat="42.0989229" lon="13.5145294"><ele>905.0</ele><time>2026-05-02T12:57:16.123Z</time></trkpt><trkpt lat="42.0989436" lon="13.5144449"><ele>905.0</ele><time>2026-05-02T12:57:17.123Z</time></trkpt><trkpt lat="42.0989602" lon="13.5143289"><ele>905.0000000000001</ele><time>2026-05-02T12:57:19.122Z</time></trkpt><trkpt lat="42.0989182" lon="13.5142375"><ele>905.0</ele><time>2026-05-02T12:57:21.123Z</time></trkpt><trkpt lat="42.0988686" lon="13.5141643"><ele>906.0</ele><time>2026-05-02T12:57:22.122Z</time></trkpt><trkpt lat="42.0988176" lon="13.5140647"><ele>907.0</ele><time>2026-05-02T12:57:23.122Z</time></trkpt><trkpt lat="42.0987697" lon="13.5139367"><ele>908.0</ele><time>2026-05-02T12:57:24.123Z</time></trkpt><trkpt lat="42.0987248" lon="13.5137977"><ele>909.0</ele><time>2026-05-02T12:57:25.124Z</time></trkpt><trkpt lat="42.0986752" lon="13.5136628"><ele>910.0</ele><time>2026-05-02T12:57:26.122Z</time></trkpt><trkpt lat="42.0986295" lon="13.5135275"><ele>911.8333333333333</ele><time>2026-05-02T12:57:27.123Z</time></trkpt><trkpt lat="42.0985929" lon="13.5134083"><ele>913.6666666666666</ele><time>2026-05-02T12:57:28.122Z</time></trkpt><trkpt lat="42.0985701" lon="13.5133043"><ele>915.5</ele><time>2026-05-02T12:57:29.122Z</time></trkpt><trkpt lat="42.0985567" lon="13.5131986"><ele>917.3333333333333</ele><time>2026-05-02T12:57:30.123Z</time></trkpt><trkpt lat="42.0985491" lon="13.5130722"><ele>919.1666666666666</ele><time>2026-05-02T12:57:31.123Z</time></trkpt><trkpt lat="42.098534" lon="13.5129554"><ele>921.0</ele><time>2026-05-02T12:57:32.123Z</time></trkpt><trkpt lat="42.0985075" lon="13.5128516"><ele>921.6666666666666</ele><time>2026-05-02T12:57:33.122Z</time></trkpt><trkpt lat="42.0984756" lon="13.5127502"><ele>922.3333333333333</ele><time>2026-05-02T12:57:34.122Z</time></trkpt><trkpt lat="42.0984447" lon="13.5126538"><ele>923.0</ele><time>2026-05-02T12:57:35.123Z</time></trkpt><trkpt lat="42.0984254" lon="13.512544"><ele>923.6666666666666</ele><time>2026-05-02T12:57:36.122Z</time></trkpt><trkpt lat="42.0984143" lon="13.5124095"><ele>924.3333333333333</ele><time>2026-05-02T12:57:37.122Z</time></trkpt><trkpt lat="42.0984052" lon="13.5122924"><ele>925.0</ele><time>2026-05-02T12:57:38.122Z</time></trkpt><trkpt lat="42.0983969" lon="13.5121505"><ele>925.8</ele><time>2026-05-02T12:57:39.123Z</time></trkpt><trkpt lat="42.0983993" lon="13.5120112"><ele>926.6</ele><time>2026-05-02T12:57:40.124Z</time></trkpt><trkpt lat="42.098414" lon="13.5118694"><ele>927.4000000000001</ele><time>2026-05-02T12:57:41.122Z</time></trkpt><trkpt lat="42.0984284" lon="13.5117174"><ele>928.2</ele><time>2026-05-02T12:57:42.123Z</time></trkpt><trkpt lat="42.0984362" lon="13.5115831"><ele>929.0</ele><time>2026-05-02T12:57:43.123Z</time></trkpt><trkpt lat="42.0984349" lon="13.5114571"><ele>929.0</ele><time>2026-05-02T12:57:44.122Z</time></trkpt><trkpt lat="42.0984108" lon="13.5113493"><ele>929.0000000000001</ele><time>2026-05-02T12:57:45.122Z</time></trkpt><trkpt lat="42.0983832" lon="13.5112389"><ele>929.0000000000001</ele><time>2026-05-02T12:57:46.123Z</time></trkpt><trkpt lat="42.0983096" lon="13.5111295"><ele>929.0</ele><time>2026-05-02T12:57:47.122Z</time></trkpt><trkpt lat="42.0982408" lon="13.5110154"><ele>929.0</ele><time>2026-05-02T12:57:48.122Z</time></trkpt><trkpt lat="42.0981783" lon="13.5109129"><ele>925.6</ele><time>2026-05-02T12:57:49.122Z</time></trkpt><trkpt lat="42.0981292" lon="13.5108096"><ele>922.2</ele><time>2026-05-02T12:57:50.123Z</time></trkpt><trkpt lat="42.0980867" lon="13.5106814"><ele>918.8000000000001</ele><time>2026-05-02T12:57:51.122Z</time></trkpt><trkpt lat="42.0980444" lon="13.5105246"><ele>915.4000000000001</ele><time>2026-05-02T12:57:52.122Z</time></trkpt><trkpt lat="42.0979945" lon="13.5103879"><ele>912.0</ele><time>2026-05-02T12:57:53.122Z</time></trkpt><trkpt lat="42.0979272" lon="13.5102356"><ele>912.0</ele><time>2026-05-02T12:57:54.123Z</time></trkpt><trkpt lat="42.0978577" lon="13.5100956"><ele>912.0</ele><time>2026-05-02T12:57:55.123Z</time></trkpt><trkpt lat="42.0978001" lon="13.5099715"><ele>912.0</ele><time>2026-05-02T12:57:56.123Z</time></trkpt><trkpt lat="42.0977517" lon="13.5098627"><ele>912.0</ele><time>2026-05-02T12:57:57.122Z</time></trkpt><trkpt lat="42.0977107" lon="13.5097516"><ele>912.0</ele><time>2026-05-02T12:57:58.123Z</time></trkpt><trkpt lat="42.0976749" lon="13.5096351"><ele>912.0</ele><time>2026-05-02T12:57:59.123Z</time></trkpt><trkpt lat="42.0976509" lon="13.5095515"><ele>912.0</ele><time>2026-05-02T12:58:00.123Z</time></trkpt><trkpt lat="42.0976347" lon="13.5094554"><ele>912.0</ele><time>2026-05-02T12:58:01.122Z</time></trkpt><trkpt lat="42.0976332" lon="13.5093553"><ele>912.0</ele><time>2026-05-02T12:58:02.122Z</time></trkpt><trkpt lat="42.0976542" lon="13.5092526"><ele>912.0</ele><time>2026-05-02T12:58:03.123Z</time></trkpt><trkpt lat="42.0976804" lon="13.5091348"><ele>912.0</ele><time>2026-05-02T12:58:04.122Z</time></trkpt><trkpt lat="42.0977204" lon="13.5089695"><ele>912.0</ele><time>2026-05-02T12:58:05.122Z</time></trkpt><trkpt lat="42.0977562" lon="13.5087868"><ele>912.0</ele><time>2026-05-02T12:58:06.123Z</time></trkpt><trkpt lat="42.0977883" lon="13.5085845"><ele>912.0</ele><time>2026-05-02T12:58:07.123Z</time></trkpt><trkpt lat="42.0977995" lon="13.5084022"><ele>912.0</ele><time>2026-05-02T12:58:08.122Z</time></trkpt><trkpt lat="42.0978056" lon="13.5082321"><ele>912.0</ele><time>2026-05-02T12:58:09.123Z</time></trkpt><trkpt lat="42.0978229" lon="13.5080741"><ele>912.0</ele><time>2026-05-02T12:58:10.123Z</time></trkpt><trkpt lat="42.0978519" lon="13.5079023"><ele>912.0</ele><time>2026-05-02T12:58:11.122Z</time></trkpt><trkpt lat="42.0978827" lon="13.50774"><ele>912.0</ele><time>2026-05-02T12:58:12.122Z</time></trkpt><trkpt lat="42.0979144" lon="13.5075862"><ele>912.2</ele><time>2026-05-02T12:58:13.122Z</time></trkpt><trkpt lat="42.0979463" lon="13.5074629"><ele>912.4000000000001</ele><time>2026-05-02T12:58:14.122Z</time></trkpt><trkpt lat="42.0979883" lon="13.5073609"><ele>912.5999999999999</ele><time>2026-05-02T12:58:15.122Z</time></trkpt><trkpt lat="42.0980503" lon="13.507271"><ele>912.8</ele><time>2026-05-02T12:58:16.122Z</time></trkpt><trkpt lat="42.0981308" lon="13.5071764"><ele>913.0</ele><time>2026-05-02T12:58:17.122Z</time></trkpt><trkpt lat="42.0982279" lon="13.5070765"><ele>913.5</ele><time>2026-05-02T12:58:18.122Z</time></trkpt><trkpt lat="42.0983292" lon="13.5069611"><ele>914.0</ele><time>2026-05-02T12:58:19.122Z</time></trkpt><trkpt lat="42.098429" lon="13.506852"><ele>914.5</ele><time>2026-05-02T12:58:20.123Z</time></trkpt><trkpt lat="42.0985072" lon="13.5067279"><ele>915.0</ele><time>2026-05-02T12:58:21.124Z</time></trkpt><trkpt lat="42.0985401" lon="13.506632"><ele>915.0</ele><time>2026-05-02T12:58:22.123Z</time></trkpt><trkpt lat="42.0985773" lon="13.5065216"><ele>915.0</ele><time>2026-05-02T12:58:23.124Z</time></trkpt><trkpt lat="42.0986086" lon="13.5063849"><ele>915.0</ele><time>2026-05-02T12:58:24.122Z</time></trkpt><trkpt lat="42.0986455" lon="13.5062404"><ele>915.0</ele><time>2026-05-02T12:58:25.123Z</time></trkpt><trkpt lat="42.0987028" lon="13.5060532"><ele>915.0</ele><time>2026-05-02T12:58:26.122Z</time></trkpt><trkpt lat="42.098756" lon="13.5058895"><ele>915.0</ele><time>2026-05-02T12:58:27.123Z</time></trkpt><trkpt lat="42.0988014" lon="13.5057355"><ele>915.0</ele><time>2026-05-02T12:58:28.122Z</time></trkpt><trkpt lat="42.0988555" lon="13.5055715"><ele>915.0</ele><time>2026-05-02T12:58:29.123Z</time></trkpt><trkpt lat="42.0988864" lon="13.5054141"><ele>916.0</ele><time>2026-05-02T12:58:30.123Z</time></trkpt><trkpt lat="42.0989961" lon="13.5052861"><ele>917.0</ele><time>2026-05-02T12:58:32.122Z</time></trkpt><trkpt lat="42.0990665" lon="13.5051743"><ele>918.0</ele><time>2026-05-02T12:58:33.123Z</time></trkpt><trkpt lat="42.0991538" lon="13.5050521"><ele>919.0</ele><time>2026-05-02T12:58:34.122Z</time></trkpt><trkpt lat="42.0992377" lon="13.5049518"><ele>920.75</ele><time>2026-05-02T12:58:35.123Z</time></trkpt><trkpt lat="42.0993154" lon="13.5048538"><ele>922.5</ele><time>2026-05-02T12:58:36.123Z</time></trkpt><trkpt lat="42.0993899" lon="13.5047374"><ele>924.25</ele><time>2026-05-02T12:58:37.124Z</time></trkpt><trkpt lat="42.0994684" lon="13.5045923"><ele>926.0</ele><time>2026-05-02T12:58:38.122Z</time></trkpt><trkpt lat="42.0995553" lon="13.5044187"><ele>927.6666666666667</ele><time>2026-05-02T12:58:39.123Z</time></trkpt><trkpt lat="42.0996507" lon="13.504213"><ele>929.3333333333333</ele><time>2026-05-02T12:58:40.122Z</time></trkpt><trkpt lat="42.0997546" lon="13.5039937"><ele>931.0</ele><time>2026-05-02T12:58:41.122Z</time></trkpt><trkpt lat="42.0998463" lon="13.5037932"><ele>931.6666666666666</ele><time>2026-05-02T12:58:42.122Z</time></trkpt><trkpt lat="42.0999369" lon="13.5035893"><ele>932.3333333333333</ele><time>2026-05-02T12:58:43.122Z</time></trkpt><trkpt lat="42.1000274" lon="13.5033858"><ele>933.0</ele><time>2026-05-02T12:58:44.123Z</time></trkpt><trkpt lat="42.1001167" lon="13.5031793"><ele>933.0</ele><time>2026-05-02T12:58:45.124Z</time></trkpt><trkpt lat="42.1002111" lon="13.5029807"><ele>933.0</ele><time>2026-05-02T12:58:46.123Z</time></trkpt><trkpt lat="42.100303" lon="13.5027978"><ele>933.0</ele><time>2026-05-02T12:58:47.122Z</time></trkpt><trkpt lat="42.1003944" lon="13.5026228"><ele>935.5</ele><time>2026-05-02T12:58:48.122Z</time></trkpt><trkpt lat="42.1004841" lon="13.502459"><ele>938.0</ele><time>2026-05-02T12:58:49.122Z</time></trkpt><trkpt lat="42.100573" lon="13.5023171"><ele>940.5</ele><time>2026-05-02T12:58:50.122Z</time></trkpt><trkpt lat="42.1006628" lon="13.5021826"><ele>943.0</ele><time>2026-05-02T12:58:51.123Z</time></trkpt><trkpt lat="42.1007606" lon="13.5020523"><ele>944.25</ele><time>2026-05-02T12:58:52.123Z</time></trkpt><trkpt lat="42.1008667" lon="13.5019265"><ele>945.5</ele><time>2026-05-02T12:58:53.123Z</time></trkpt><trkpt lat="42.100978" lon="13.5018025"><ele>946.75</ele><time>2026-05-02T12:58:54.122Z</time></trkpt><trkpt lat="42.1010773" lon="13.5016734"><ele>948.0</ele><time>2026-05-02T12:58:55.122Z</time></trkpt><trkpt lat="42.1011553" lon="13.5015523"><ele>948.0</ele><time>2026-05-02T12:58:56.124Z</time></trkpt><trkpt lat="42.10123" lon="13.5014325"><ele>948.0</ele><time>2026-05-02T12:58:57.122Z</time></trkpt><trkpt lat="42.1012979" lon="13.5013153"><ele>948.0</ele><time>2026-05-02T12:58:58.122Z</time></trkpt><trkpt lat="42.1013576" lon="13.50122"><ele>948.0</ele><time>2026-05-02T12:58:59.122Z</time></trkpt><trkpt lat="42.1014023" lon="13.5011459"><ele>948.0</ele><time>2026-05-02T12:59:00.122Z</time></trkpt><trkpt lat="42.101486" lon="13.501088"><ele>949.25</ele><time>2026-05-02T12:59:02.123Z</time></trkpt><trkpt lat="42.1015556" lon="13.5011891"><ele>950.5</ele><time>2026-05-02T12:59:04.122Z</time></trkpt><trkpt lat="42.101586" lon="13.5013021"><ele>951.75</ele><time>2026-05-02T12:59:05.123Z</time></trkpt><trkpt lat="42.1016186" lon="13.501462"><ele>953.0</ele><time>2026-05-02T12:59:06.122Z</time></trkpt><trkpt lat="42.1016619" lon="13.5016548"><ele>953.0</ele><time>2026-05-02T12:59:07.122Z</time></trkpt><trkpt lat="42.1017131" lon="13.5018696"><ele>953.0</ele><time>2026-05-02T12:59:08.123Z</time></trkpt><trkpt lat="42.1017657" lon="13.5020667"><ele>953.0</ele><time>2026-05-02T12:59:09.122Z</time></trkpt><trkpt lat="42.1018147" lon="13.502264"><ele>951.0</ele><time>2026-05-02T12:59:10.122Z</time></trkpt><trkpt lat="42.1018487" lon="13.502392"><ele>949.0</ele><time>2026-05-02T12:59:11.122Z</time></trkpt><trkpt lat="42.1018943" lon="13.50253"><ele>947.0</ele><time>2026-05-02T12:59:12.122Z</time></trkpt><trkpt lat="42.1019502" lon="13.5026633"><ele>945.0</ele><time>2026-05-02T12:59:13.122Z</time></trkpt><trkpt lat="42.102034" lon="13.5028001"><ele>945.0</ele><time>2026-05-02T12:59:14.122Z</time></trkpt><trkpt lat="42.1021024" lon="13.502906"><ele>945.0</ele><time>2026-05-02T12:59:15.123Z</time></trkpt><trkpt lat="42.1021504" lon="13.503004"><ele>945.0</ele><time>2026-05-02T12:59:16.123Z</time></trkpt><trkpt lat="42.1021773" lon="13.5030898"><ele>945.0</ele><time>2026-05-02T12:59:17.122Z</time></trkpt><trkpt lat="42.1021858" lon="13.5031806"><ele>945.0</ele><time>2026-05-02T12:59:18.123Z</time></trkpt><trkpt lat="42.1021681" lon="13.5032668"><ele>945.0</ele><time>2026-05-02T12:59:19.122Z</time></trkpt><trkpt lat="42.1021253" lon="13.5033985"><ele>943.75</ele><time>2026-05-02T12:59:20.123Z</time></trkpt><trkpt lat="42.1020736" lon="13.5035436"><ele>942.5</ele><time>2026-05-02T12:59:21.122Z</time></trkpt><trkpt lat="42.1019997" lon="13.5037233"><ele>941.25</ele><time>2026-05-02T12:59:22.122Z</time></trkpt><trkpt lat="42.1019256" lon="13.5039215"><ele>940.0</ele><time>2026-05-02T12:59:23.123Z</time></trkpt><trkpt lat="42.1018428" lon="13.5041235"><ele>938.3333333333333</ele><time>2026-05-02T12:59:24.124Z</time></trkpt><trkpt lat="42.1017472" lon="13.5043357"><ele>936.6666666666667</ele><time>2026-05-02T12:59:25.123Z</time></trkpt><trkpt lat="42.1016574" lon="13.50452"><ele>935.0</ele><time>2026-05-02T12:59:26.123Z</time></trkpt><trkpt lat="42.1015853" lon="13.5046981"><ele>934.0</ele><time>2026-05-02T12:59:27.122Z</time></trkpt><trkpt lat="42.1015158" lon="13.5048634"><ele>933.0</ele><time>2026-05-02T12:59:28.122Z</time></trkpt><trkpt lat="42.1014505" lon="13.5050324"><ele>932.0</ele><time>2026-05-02T12:59:29.123Z</time></trkpt><trkpt lat="42.1014001" lon="13.5052329"><ele>931.0</ele><time>2026-05-02T12:59:30.122Z</time></trkpt><trkpt lat="42.1013548" lon="13.5054658"><ele>930.3333333333333</ele><time>2026-05-02T12:59:31.123Z</time></trkpt><trkpt lat="42.1013082" lon="13.5057153"><ele>929.6666666666667</ele><time>2026-05-02T12:59:32.123Z</time></trkpt><trkpt lat="42.1012634" lon="13.5059512"><ele>929.0</ele><time>2026-05-02T12:59:33.123Z</time></trkpt><trkpt lat="42.1012253" lon="13.5061801"><ele>929.6666666666667</ele><time>2026-05-02T12:59:34.123Z</time></trkpt><trkpt lat="42.101196" lon="13.5064098"><ele>930.3333333333333</ele><time>2026-05-02T12:59:35.123Z</time></trkpt><trkpt lat="42.1011776" lon="13.5066091"><ele>931.0</ele><time>2026-05-02T12:59:36.122Z</time></trkpt><trkpt lat="42.1011614" lon="13.5067909"><ele>931.0</ele><time>2026-05-02T12:59:37.123Z</time></trkpt><trkpt lat="42.1011536" lon="13.5069585"><ele>930.9999999999999</ele><time>2026-05-02T12:59:38.122Z</time></trkpt><trkpt lat="42.1011528" lon="13.5071192"><ele>930.9999999999999</ele><time>2026-05-02T12:59:39.122Z</time></trkpt><trkpt lat="42.1011626" lon="13.5072661"><ele>931.0</ele><time>2026-05-02T12:59:40.122Z</time></trkpt><trkpt lat="42.1011822" lon="13.5073892"><ele>931.0</ele><time>2026-05-02T12:59:41.123Z</time></trkpt><trkpt lat="42.1011919" lon="13.5075001"><ele>932.5999999999999</ele><time>2026-05-02T12:59:42.123Z</time></trkpt><trkpt lat="42.1011877" lon="13.5076148"><ele>934.1999999999999</ele><time>2026-05-02T12:59:43.122Z</time></trkpt><trkpt lat="42.1011769" lon="13.5077516"><ele>935.8000000000001</ele><time>2026-05-02T12:59:44.124Z</time></trkpt><trkpt lat="42.1011548" lon="13.5078847"><ele>937.4000000000001</ele><time>2026-05-02T12:59:45.123Z</time></trkpt><trkpt lat="42.1011277" lon="13.5080146"><ele>939.0</ele><time>2026-05-02T12:59:46.123Z</time></trkpt><trkpt lat="42.1011065" lon="13.5081424"><ele>940.1666666666666</ele><time>2026-05-02T12:59:47.123Z</time></trkpt><trkpt lat="42.1010908" lon="13.5082694"><ele>941.3333333333333</ele><time>2026-05-02T12:59:48.123Z</time></trkpt><trkpt lat="42.101075" lon="13.5083876"><ele>942.5</ele><time>2026-05-02T12:59:49.123Z</time></trkpt><trkpt lat="42.1010645" lon="13.5085039"><ele>943.6666666666666</ele><time>2026-05-02T12:59:50.123Z</time></trkpt><trkpt lat="42.101052" lon="13.5086134"><ele>944.8333333333333</ele><time>2026-05-02T12:59:51.122Z</time></trkpt><trkpt lat="42.1010369" lon="13.5087172"><ele>946.0</ele><time>2026-05-02T12:59:52.122Z</time></trkpt><trkpt lat="42.101018" lon="13.5088197"><ele>947.6666666666666</ele><time>2026-05-02T12:59:53.124Z</time></trkpt><trkpt lat="42.100997" lon="13.5089254"><ele>949.3333333333333</ele><time>2026-05-02T12:59:54.122Z</time></trkpt><trkpt lat="42.1009748" lon="13.5090235"><ele>951.0</ele><time>2026-05-02T12:59:55.123Z</time></trkpt><trkpt lat="42.1009418" lon="13.5091132"><ele>952.6666666666667</ele><time>2026-05-02T12:59:56.123Z</time></trkpt><trkpt lat="42.1009023" lon="13.5092005"><ele>954.3333333333334</ele><time>2026-05-02T12:59:57.123Z</time></trkpt><trkpt lat="42.1008613" lon="13.5092788"><ele>956.0</ele><time>2026-05-02T12:59:58.122Z</time></trkpt><trkpt lat="42.1008044" lon="13.5093974"><ele>956.0</ele><time>2026-05-02T13:00:00.122Z</time></trkpt><trkpt lat="42.1007681" lon="13.5094732"><ele>955.9999999999999</ele><time>2026-05-02T13:00:02.122Z</time></trkpt><trkpt lat="42.1008083" lon="13.5095621"><ele>955.9999999999999</ele><time>2026-05-02T13:00:06.122Z</time></trkpt><trkpt lat="42.100874" lon="13.509491"><ele>956.0</ele><time>2026-05-02T13:00:08.122Z</time></trkpt><trkpt lat="42.1009529" lon="13.509345"><ele>956.0</ele><time>2026-05-02T13:00:09.123Z</time></trkpt><trkpt lat="42.1010327" lon="13.5092027"><ele>956.0</ele><time>2026-05-02T13:00:10.123Z</time></trkpt><trkpt lat="42.1011384" lon="13.5090465"><ele>956.0</ele><time>2026-05-02T13:00:11.122Z</time></trkpt><trkpt lat="42.1012535" lon="13.5088952"><ele>956.0</ele><time>2026-05-02T13:00:12.122Z</time></trkpt><trkpt lat="42.1013649" lon="13.5087588"><ele>955.0</ele><time>2026-05-02T13:00:13.123Z</time></trkpt><trkpt lat="42.1014824" lon="13.5086134"><ele>954.0</ele><time>2026-05-02T13:00:14.122Z</time></trkpt><trkpt lat="42.1016018" lon="13.5084599"><ele>953.0</ele><time>2026-05-02T13:00:15.122Z</time></trkpt><trkpt lat="42.1017261" lon="13.5082989"><ele>953.0</ele><time>2026-05-02T13:00:16.122Z</time></trkpt><trkpt lat="42.1018509" lon="13.5081333"><ele>953.0</ele><time>2026-05-02T13:00:17.122Z</time></trkpt><trkpt lat="42.1019789" lon="13.5079579"><ele>953.0</ele><time>2026-05-02T13:00:18.123Z</time></trkpt><trkpt lat="42.1021038" lon="13.5077779"><ele>951.0</ele><time>2026-05-02T13:00:19.122Z</time></trkpt><trkpt lat="42.1022239" lon="13.5075836"><ele>949.0</ele><time>2026-05-02T13:00:20.122Z</time></trkpt><trkpt lat="42.1023329" lon="13.5073771"><ele>947.0</ele><time>2026-05-02T13:00:21.122Z</time></trkpt><trkpt lat="42.1024305" lon="13.5071617"><ele>951.0</ele><time>2026-05-02T13:00:22.122Z</time></trkpt><trkpt lat="42.1025161" lon="13.5069449"><ele>955.0</ele><time>2026-05-02T13:00:23.122Z</time></trkpt><trkpt lat="42.1025973" lon="13.5067254"><ele>959.0</ele><time>2026-05-02T13:00:24.123Z</time></trkpt><trkpt lat="42.1026761" lon="13.5065035"><ele>959.0</ele><time>2026-05-02T13:00:25.122Z</time></trkpt><trkpt lat="42.1027524" lon="13.5062707"><ele>959.0</ele><time>2026-05-02T13:00:26.122Z</time></trkpt><trkpt lat="42.1028219" lon="13.5060325"><ele>959.0</ele><time>2026-05-02T13:00:27.124Z</time></trkpt><trkpt lat="42.1028877" lon="13.5058041"><ele>956.3333333333334</ele><time>2026-05-02T13:00:28.122Z</time></trkpt><trkpt lat="42.1029514" lon="13.505588"><ele>953.6666666666667</ele><time>2026-05-02T13:00:29.123Z</time></trkpt><trkpt lat="42.1030128" lon="13.5053854"><ele>951.0</ele><time>2026-05-02T13:00:30.122Z</time></trkpt><trkpt lat="42.1030844" lon="13.505211"><ele>949.3333333333333</ele><time>2026-05-02T13:00:31.123Z</time></trkpt><trkpt lat="42.1031761" lon="13.5050616"><ele>947.6666666666666</ele><time>2026-05-02T13:00:32.124Z</time></trkpt><trkpt lat="42.1032962" lon="13.5049365"><ele>946.0</ele><time>2026-05-02T13:00:33.124Z</time></trkpt><trkpt lat="42.1034377" lon="13.5048262"><ele>949.3333333333333</ele><time>2026-05-02T13:00:34.122Z</time></trkpt><trkpt lat="42.1035983" lon="13.504722"><ele>952.6666666666667</ele><time>2026-05-02T13:00:35.122Z</time></trkpt><trkpt lat="42.1037715" lon="13.5046087"><ele>956.0</ele><time>2026-05-02T13:00:36.123Z</time></trkpt><trkpt lat="42.1039439" lon="13.5044827"><ele>961.0</ele><time>2026-05-02T13:00:37.123Z</time></trkpt><trkpt lat="42.1040973" lon="13.5043225"><ele>966.0</ele><time>2026-05-02T13:00:38.123Z</time></trkpt><trkpt lat="42.1042369" lon="13.5041537"><ele>971.0</ele><time>2026-05-02T13:00:39.122Z</time></trkpt><trkpt lat="42.1043617" lon="13.5039672"><ele>971.0</ele><time>2026-05-02T13:00:40.123Z</time></trkpt><trkpt lat="42.1044705" lon="13.5037632"><ele>971.0</ele><time>2026-05-02T13:00:41.123Z</time></trkpt><trkpt lat="42.1045734" lon="13.5035487"><ele>971.0</ele><time>2026-05-02T13:00:42.122Z</time></trkpt><trkpt lat="42.104673" lon="13.5033289"><ele>970.3333333333334</ele><time>2026-05-02T13:00:43.123Z</time></trkpt><trkpt lat="42.1047641" lon="13.5031049"><ele>969.6666666666667</ele><time>2026-05-02T13:00:44.122Z</time></trkpt><trkpt lat="42.1048514" lon="13.5028845"><ele>969.0</ele><time>2026-05-02T13:00:45.122Z</time></trkpt><trkpt lat="42.104927" lon="13.5026522"><ele>974.3333333333333</ele><time>2026-05-02T13:00:46.122Z</time></trkpt><trkpt lat="42.1049977" lon="13.5024103"><ele>979.6666666666666</ele><time>2026-05-02T13:00:47.123Z</time></trkpt><trkpt lat="42.1050668" lon="13.5021614"><ele>985.0</ele><time>2026-05-02T13:00:48.122Z</time></trkpt><trkpt lat="42.1051329" lon="13.501913"><ele>985.0</ele><time>2026-05-02T13:00:49.123Z</time></trkpt><trkpt lat="42.1051941" lon="13.5016702"><ele>985.0</ele><time>2026-05-02T13:00:50.122Z</time></trkpt><trkpt lat="42.1052536" lon="13.5014255"><ele>985.0</ele><time>2026-05-02T13:00:51.123Z</time></trkpt><trkpt lat="42.1053111" lon="13.501181"><ele>984.6666666666666</ele><time>2026-05-02T13:00:52.122Z</time></trkpt><trkpt lat="42.1053567" lon="13.5009294"><ele>984.3333333333333</ele><time>2026-05-02T13:00:53.122Z</time></trkpt><trkpt lat="42.1053913" lon="13.5006794"><ele>984.0</ele><time>2026-05-02T13:00:54.123Z</time></trkpt><trkpt lat="42.105414" lon="13.5004501"><ele>986.6666666666667</ele><time>2026-05-02T13:00:55.122Z</time></trkpt><trkpt lat="42.1054212" lon="13.5002354"><ele>989.3333333333334</ele><time>2026-05-02T13:00:56.123Z</time></trkpt><trkpt lat="42.1054051" lon="13.5000362"><ele>992.0</ele><time>2026-05-02T13:00:57.123Z</time></trkpt><trkpt lat="42.1053582" lon="13.4998323"><ele>992.0</ele><time>2026-05-02T13:00:58.122Z</time></trkpt><trkpt lat="42.1052796" lon="13.4996461"><ele>992.0</ele><time>2026-05-02T13:00:59.123Z</time></trkpt><trkpt lat="42.1051658" lon="13.4994769"><ele>992.0</ele><time>2026-05-02T13:01:00.122Z</time></trkpt><trkpt lat="42.1050355" lon="13.4993187"><ele>992.0</ele><time>2026-05-02T13:01:01.123Z</time></trkpt><trkpt lat="42.1048983" lon="13.4991579"><ele>992.0</ele><time>2026-05-02T13:01:02.123Z</time></trkpt><trkpt lat="42.1047897" lon="13.4990199"><ele>992.0</ele><time>2026-05-02T13:01:03.123Z</time></trkpt><trkpt lat="42.1046972" lon="13.4988751"><ele>993.5</ele><time>2026-05-02T13:01:04.123Z</time></trkpt><trkpt lat="42.1046242" lon="13.4987181"><ele>995.0</ele><time>2026-05-02T13:01:05.122Z</time></trkpt><trkpt lat="42.1045729" lon="13.4985419"><ele>996.5</ele><time>2026-05-02T13:01:06.123Z</time></trkpt><trkpt lat="42.1045425" lon="13.4983511"><ele>998.0</ele><time>2026-05-02T13:01:07.123Z</time></trkpt><trkpt lat="42.1045438" lon="13.498171"><ele>998.0</ele><time>2026-05-02T13:01:08.124Z</time></trkpt><trkpt lat="42.1045799" lon="13.4980055"><ele>998.0</ele><time>2026-05-02T13:01:09.122Z</time></trkpt><trkpt lat="42.1046078" lon="13.4978425"><ele>998.0</ele><time>2026-05-02T13:01:10.122Z</time></trkpt><trkpt lat="42.1047515" lon="13.4977078"><ele>998.0</ele><time>2026-05-02T13:01:11.122Z</time></trkpt><trkpt lat="42.1048414" lon="13.4975633"><ele>1001.0</ele><time>2026-05-02T13:01:12.122Z</time></trkpt><trkpt lat="42.1050126" lon="13.4974523"><ele>1004.0</ele><time>2026-05-02T13:01:13.122Z</time></trkpt><trkpt lat="42.1051617" lon="13.4973289"><ele>1007.0</ele><time>2026-05-02T13:01:14.122Z</time></trkpt><trkpt lat="42.1053238" lon="13.497197"><ele>1008.0</ele><time>2026-05-02T13:01:15.124Z</time></trkpt><trkpt lat="42.1054943" lon="13.4970498"><ele>1009.0</ele><time>2026-05-02T13:01:16.122Z</time></trkpt><trkpt lat="42.1056718" lon="13.496898"><ele>1010.0</ele><time>2026-05-02T13:01:17.122Z</time></trkpt><trkpt lat="42.1058549" lon="13.4967469"><ele>1010.0</ele><time>2026-05-02T13:01:18.123Z</time></trkpt><trkpt lat="42.10603" lon="13.4966006"><ele>1010.0</ele><time>2026-05-02T13:01:19.122Z</time></trkpt><trkpt lat="42.106195" lon="13.4964559"><ele>1010.0</ele><time>2026-05-02T13:01:20.123Z</time></trkpt><trkpt lat="42.1063482" lon="13.4962919"><ele>1009.0</ele><time>2026-05-02T13:01:21.122Z</time></trkpt><trkpt lat="42.1064722" lon="13.4960982"><ele>1008.0</ele><time>2026-05-02T13:01:22.124Z</time></trkpt><trkpt lat="42.1065755" lon="13.4958863"><ele>1007.0</ele><time>2026-05-02T13:01:23.122Z</time></trkpt><trkpt lat="42.1066515" lon="13.4956503"><ele>1010.6666666666667</ele><time>2026-05-02T13:01:24.122Z</time></trkpt><trkpt lat="42.1067044" lon="13.4953983"><ele>1014.3333333333333</ele><time>2026-05-02T13:01:25.122Z</time></trkpt><trkpt lat="42.1067552" lon="13.4951429"><ele>1018.0</ele><time>2026-05-02T13:01:26.123Z</time></trkpt><trkpt lat="42.106805" lon="13.4948946"><ele>1018.0</ele><time>2026-05-02T13:01:27.123Z</time></trkpt><trkpt lat="42.1068547" lon="13.4946634"><ele>1018.0</ele><time>2026-05-02T13:01:28.122Z</time></trkpt><trkpt lat="42.106921" lon="13.4944397"><ele>1018.0</ele><time>2026-05-02T13:01:29.122Z</time></trkpt><trkpt lat="42.1070111" lon="13.4942339"><ele>1017.3333333333333</ele><time>2026-05-02T13:01:30.123Z</time></trkpt><trkpt lat="42.1071302" lon="13.49404"><ele>1016.6666666666667</ele><time>2026-05-02T13:01:31.122Z</time></trkpt><trkpt lat="42.1072612" lon="13.4938523"><ele>1016.0</ele><time>2026-05-02T13:01:32.123Z</time></trkpt><trkpt lat="42.1073937" lon="13.4936688"><ele>1020.6666666666667</ele><time>2026-05-02T13:01:33.123Z</time></trkpt><trkpt lat="42.1075111" lon="13.493499"><ele>1025.3333333333333</ele><time>2026-05-02T13:01:34.122Z</time></trkpt><trkpt lat="42.1076063" lon="13.4933267"><ele>1030.0</ele><time>2026-05-02T13:01:35.122Z</time></trkpt><trkpt lat="42.1076611" lon="13.4931431"><ele>1030.0</ele><time>2026-05-02T13:01:36.123Z</time></trkpt><trkpt lat="42.1076728" lon="13.4929335"><ele>1030.0</ele><time>2026-05-02T13:01:37.123Z</time></trkpt><trkpt lat="42.1076454" lon="13.4927122"><ele>1030.0</ele><time>2026-05-02T13:01:38.122Z</time></trkpt><trkpt lat="42.1075974" lon="13.4924787"><ele>1032.0</ele><time>2026-05-02T13:01:39.124Z</time></trkpt><trkpt lat="42.1075412" lon="13.4922292"><ele>1034.0</ele><time>2026-05-02T13:01:40.124Z</time></trkpt><trkpt lat="42.1074793" lon="13.4919855"><ele>1036.0</ele><time>2026-05-02T13:01:41.122Z</time></trkpt><trkpt lat="42.1073991" lon="13.4917757"><ele>1030.6666666666665</ele><time>2026-05-02T13:01:42.123Z</time></trkpt><trkpt lat="42.1073003" lon="13.4915945"><ele>1025.3333333333333</ele><time>2026-05-02T13:01:43.122Z</time></trkpt><trkpt lat="42.107205" lon="13.4914387"><ele>1020.0</ele><time>2026-05-02T13:01:44.122Z</time></trkpt><trkpt lat="42.1071338" lon="13.4912769"><ele>1023.0</ele><time>2026-05-02T13:01:45.122Z</time></trkpt><trkpt lat="42.1070939" lon="13.4910862"><ele>1026.0</ele><time>2026-05-02T13:01:46.122Z</time></trkpt><trkpt lat="42.1070896" lon="13.4908817"><ele>1029.0</ele><time>2026-05-02T13:01:47.123Z</time></trkpt><trkpt lat="42.107107" lon="13.4906645"><ele>1029.0</ele><time>2026-05-02T13:01:48.123Z</time></trkpt><trkpt lat="42.1071398" lon="13.490434"><ele>1029.0</ele><time>2026-05-02T13:01:49.123Z</time></trkpt><trkpt lat="42.1071822" lon="13.4901916"><ele>1029.0</ele><time>2026-05-02T13:01:50.122Z</time></trkpt><trkpt lat="42.1072299" lon="13.4899386"><ele>1030.3333333333333</ele><time>2026-05-02T13:01:51.122Z</time></trkpt><trkpt lat="42.1072789" lon="13.4896767"><ele>1031.6666666666665</ele><time>2026-05-02T13:01:52.122Z</time></trkpt><trkpt lat="42.1073237" lon="13.489439"><ele>1033.0</ele><time>2026-05-02T13:01:53.124Z</time></trkpt><trkpt lat="42.1073692" lon="13.4892232"><ele>1037.6666666666665</ele><time>2026-05-02T13:01:54.122Z</time></trkpt><trkpt lat="42.1074302" lon="13.4890224"><ele>1042.3333333333333</ele><time>2026-05-02T13:01:55.122Z</time></trkpt><trkpt lat="42.1075176" lon="13.4888396"><ele>1047.0</ele><time>2026-05-02T13:01:56.122Z</time></trkpt><trkpt lat="42.1076288" lon="13.4886938"><ele>1047.0</ele><time>2026-05-02T13:01:57.124Z</time></trkpt><trkpt lat="42.1077652" lon="13.4885825"><ele>1047.0</ele><time>2026-05-02T13:01:58.122Z</time></trkpt><trkpt lat="42.1079333" lon="13.4884956"><ele>1047.0</ele><time>2026-05-02T13:01:59.123Z</time></trkpt><trkpt lat="42.1081193" lon="13.4884179"><ele>1052.6666666666667</ele><time>2026-05-02T13:02:00.122Z</time></trkpt><trkpt lat="42.1083078" lon="13.4883308"><ele>1058.3333333333335</ele><time>2026-05-02T13:02:01.123Z</time></trkpt><trkpt lat="42.10849" lon="13.4882046"><ele>1064.0</ele><time>2026-05-02T13:02:02.123Z</time></trkpt><trkpt lat="42.1086628" lon="13.4880414"><ele>1061.6666666666667</ele><time>2026-05-02T13:02:03.122Z</time></trkpt><trkpt lat="42.1088192" lon="13.4878362"><ele>1059.3333333333333</ele><time>2026-05-02T13:02:04.122Z</time></trkpt><trkpt lat="42.1089651" lon="13.4876059"><ele>1057.0</ele><time>2026-05-02T13:02:05.122Z</time></trkpt><trkpt lat="42.1091043" lon="13.4873573"><ele>1063.0</ele><time>2026-05-02T13:02:06.123Z</time></trkpt><trkpt lat="42.1092325" lon="13.4871026"><ele>1069.0</ele><time>2026-05-02T13:02:07.123Z</time></trkpt><trkpt lat="42.1093573" lon="13.486839"><ele>1069.0</ele><time>2026-05-02T13:02:08.123Z</time></trkpt><trkpt lat="42.1094844" lon="13.4865786"><ele>1069.0</ele><time>2026-05-02T13:02:09.122Z</time></trkpt><trkpt lat="42.1096065" lon="13.4863248"><ele>1067.3333333333333</ele><time>2026-05-02T13:02:10.124Z</time></trkpt><trkpt lat="42.1097224" lon="13.4860893"><ele>1065.6666666666667</ele><time>2026-05-02T13:02:11.122Z</time></trkpt><trkpt lat="42.1098311" lon="13.4858699"><ele>1064.0</ele><time>2026-05-02T13:02:12.123Z</time></trkpt><trkpt lat="42.1099245" lon="13.4856497"><ele>1070.3333333333335</ele><time>2026-05-02T13:02:13.122Z</time></trkpt><trkpt lat="42.1099874" lon="13.485421"><ele>1076.6666666666667</ele><time>2026-05-02T13:02:14.124Z</time></trkpt><trkpt lat="42.1100132" lon="13.4851673"><ele>1083.0</ele><time>2026-05-02T13:02:15.124Z</time></trkpt><trkpt lat="42.1100031" lon="13.4848952"><ele>1083.0</ele><time>2026-05-02T13:02:16.122Z</time></trkpt><trkpt lat="42.1099813" lon="13.4846179"><ele>1083.0</ele><time>2026-05-02T13:02:17.122Z</time></trkpt><trkpt lat="42.1099565" lon="13.4843607"><ele>1083.0</ele><time>2026-05-02T13:02:18.122Z</time></trkpt><trkpt lat="42.1099497" lon="13.4841167"><ele>1084.6666666666667</ele><time>2026-05-02T13:02:19.123Z</time></trkpt><trkpt lat="42.1099607" lon="13.4838795"><ele>1086.3333333333335</ele><time>2026-05-02T13:02:20.122Z</time></trkpt><trkpt lat="42.1099934" lon="13.4836473"><ele>1088.0</ele><time>2026-05-02T13:02:21.122Z</time></trkpt><trkpt lat="42.1100565" lon="13.4834206"><ele>1088.0</ele><time>2026-05-02T13:02:22.123Z</time></trkpt><trkpt lat="42.1101484" lon="13.4831983"><ele>1088.0</ele><time>2026-05-02T13:02:23.123Z</time></trkpt><trkpt lat="42.1102677" lon="13.482984"><ele>1088.0</ele><time>2026-05-02T13:02:24.123Z</time></trkpt><trkpt lat="42.110406" lon="13.4827771"><ele>1085.6666666666667</ele><time>2026-05-02T13:02:25.122Z</time></trkpt><trkpt lat="42.1105615" lon="13.4825835"><ele>1083.3333333333333</ele><time>2026-05-02T13:02:26.124Z</time></trkpt><trkpt lat="42.1107208" lon="13.4823916"><ele>1081.0</ele><time>2026-05-02T13:02:27.123Z</time></trkpt><trkpt lat="42.1108643" lon="13.482186"><ele>1086.0</ele><time>2026-05-02T13:02:28.123Z</time></trkpt><trkpt lat="42.110982" lon="13.4819625"><ele>1091.0</ele><time>2026-05-02T13:02:29.124Z</time></trkpt><trkpt lat="42.1110722" lon="13.4817017"><ele>1096.0</ele><time>2026-05-02T13:02:30.122Z</time></trkpt><trkpt lat="42.1111385" lon="13.4814196"><ele>1096.5</ele><time>2026-05-02T13:02:31.122Z</time></trkpt><trkpt lat="42.1111937" lon="13.4811229"><ele>1097.0</ele><time>2026-05-02T13:02:32.123Z</time></trkpt><trkpt lat="42.1112469" lon="13.4808259"><ele>1097.0</ele><time>2026-05-02T13:02:33.122Z</time></trkpt><trkpt lat="42.1112937" lon="13.480526"><ele>1097.0</ele><time>2026-05-02T13:02:34.122Z</time></trkpt><trkpt lat="42.1113228" lon="13.4802225"><ele>1098.0</ele><time>2026-05-02T13:02:35.124Z</time></trkpt><trkpt lat="42.1113246" lon="13.4799118"><ele>1099.0</ele><time>2026-05-02T13:02:36.122Z</time></trkpt><trkpt lat="42.1112887" lon="13.4796152"><ele>1102.0</ele><time>2026-05-02T13:02:37.122Z</time></trkpt><trkpt lat="42.1112262" lon="13.4793328"><ele>1105.0</ele><time>2026-05-02T13:02:38.124Z</time></trkpt><trkpt lat="42.1111618" lon="13.4790734"><ele>1108.0</ele><time>2026-05-02T13:02:39.123Z</time></trkpt><trkpt lat="42.1110964" lon="13.4788194"><ele>1109.0</ele><time>2026-05-02T13:02:40.123Z</time></trkpt><trkpt lat="42.1110399" lon="13.4785766"><ele>1110.0</ele><time>2026-05-02T13:02:41.123Z</time></trkpt><trkpt lat="42.1110019" lon="13.4783215"><ele>1111.0</ele><time>2026-05-02T13:02:42.122Z</time></trkpt><trkpt lat="42.1109834" lon="13.4780502"><ele>1110.6666666666665</ele><time>2026-05-02T13:02:43.122Z</time></trkpt><trkpt lat="42.1109662" lon="13.4777829"><ele>1110.3333333333333</ele><time>2026-05-02T13:02:44.122Z</time></trkpt><trkpt lat="42.1109269" lon="13.4775208"><ele>1110.0</ele><time>2026-05-02T13:02:45.122Z</time></trkpt><trkpt lat="42.1108615" lon="13.4772639"><ele>1112.3333333333333</ele><time>2026-05-02T13:02:46.122Z</time></trkpt><trkpt lat="42.1107634" lon="13.4770165"><ele>1114.6666666666665</ele><time>2026-05-02T13:02:47.122Z</time></trkpt><trkpt lat="42.1106509" lon="13.4767953"><ele>1117.0</ele><time>2026-05-02T13:02:48.122Z</time></trkpt><trkpt lat="42.1105321" lon="13.4765859"><ele>1112.0</ele><time>2026-05-02T13:02:49.123Z</time></trkpt><trkpt lat="42.1104242" lon="13.476378"><ele>1107.0</ele><time>2026-05-02T13:02:50.122Z</time></trkpt><trkpt lat="42.1103393" lon="13.4761678"><ele>1102.0</ele><time>2026-05-02T13:02:51.122Z</time></trkpt><trkpt lat="42.110272" lon="13.4759454"><ele>1102.0</ele><time>2026-05-02T13:02:52.123Z</time></trkpt><trkpt lat="42.110218" lon="13.475696"><ele>1102.0</ele><time>2026-05-02T13:02:53.122Z</time></trkpt><trkpt lat="42.1101714" lon="13.4754352"><ele>1102.0</ele><time>2026-05-02T13:02:54.124Z</time></trkpt><trkpt lat="42.1101288" lon="13.4751813"><ele>1101.6666666666665</ele><time>2026-05-02T13:02:55.123Z</time></trkpt><trkpt lat="42.1100716" lon="13.4749254"><ele>1101.3333333333333</ele><time>2026-05-02T13:02:56.123Z</time></trkpt><trkpt lat="42.109993" lon="13.4746789"><ele>1101.0</ele><time>2026-05-02T13:02:57.122Z</time></trkpt><trkpt lat="42.109895" lon="13.4744317"><ele>1098.6666666666667</ele><time>2026-05-02T13:02:58.122Z</time></trkpt><trkpt lat="42.1097921" lon="13.4741843"><ele>1096.3333333333335</ele><time>2026-05-02T13:02:59.122Z</time></trkpt><trkpt lat="42.1096845" lon="13.4739404"><ele>1094.0</ele><time>2026-05-02T13:03:00.122Z</time></trkpt><trkpt lat="42.1095789" lon="13.4737002"><ele>1094.0</ele><time>2026-05-02T13:03:01.122Z</time></trkpt><trkpt lat="42.1094818" lon="13.4734694"><ele>1094.0</ele><time>2026-05-02T13:03:02.124Z</time></trkpt><trkpt lat="42.1093891" lon="13.4732391"><ele>1094.0</ele><time>2026-05-02T13:03:03.123Z</time></trkpt><trkpt lat="42.1092976" lon="13.4730001"><ele>1095.0</ele><time>2026-05-02T13:03:04.123Z</time></trkpt><trkpt lat="42.109215" lon="13.472752"><ele>1096.0</ele><time>2026-05-02T13:03:05.123Z</time></trkpt><trkpt lat="42.1091413" lon="13.4724928"><ele>1097.0</ele><time>2026-05-02T13:03:06.124Z</time></trkpt><trkpt lat="42.1090745" lon="13.4722311"><ele>1094.6666666666667</ele><time>2026-05-02T13:03:07.122Z</time></trkpt><trkpt lat="42.1090092" lon="13.4719654"><ele>1092.3333333333333</ele><time>2026-05-02T13:03:08.123Z</time></trkpt><trkpt lat="42.1089446" lon="13.4717157"><ele>1090.0</ele><time>2026-05-02T13:03:09.122Z</time></trkpt><trkpt lat="42.1088902" lon="13.4714759"><ele>1090.3333333333333</ele><time>2026-05-02T13:03:10.122Z</time></trkpt><trkpt lat="42.1088541" lon="13.4712364"><ele>1090.6666666666667</ele><time>2026-05-02T13:03:11.123Z</time></trkpt><trkpt lat="42.1088365" lon="13.4709958"><ele>1091.0</ele><time>2026-05-02T13:03:12.123Z</time></trkpt><trkpt lat="42.1088387" lon="13.4707572"><ele>1091.0</ele><time>2026-05-02T13:03:13.123Z</time></trkpt><trkpt lat="42.1088432" lon="13.470519"><ele>1091.0</ele><time>2026-05-02T13:03:14.123Z</time></trkpt><trkpt lat="42.1088411" lon="13.4702689"><ele>1091.0</ele><time>2026-05-02T13:03:15.122Z</time></trkpt><trkpt lat="42.108817" lon="13.4700147"><ele>1089.6666666666667</ele><time>2026-05-02T13:03:16.122Z</time></trkpt><trkpt lat="42.1087719" lon="13.4697586"><ele>1088.3333333333333</ele><time>2026-05-02T13:03:17.122Z</time></trkpt><trkpt lat="42.1087196" lon="13.4695046"><ele>1087.0</ele><time>2026-05-02T13:03:18.123Z</time></trkpt><trkpt lat="42.108653" lon="13.4692519"><ele>1086.6666666666665</ele><time>2026-05-02T13:03:19.124Z</time></trkpt><trkpt lat="42.1085279" lon="13.468982"><ele>1086.3333333333333</ele><time>2026-05-02T13:03:20.122Z</time></trkpt><trkpt lat="42.1084432" lon="13.468726"><ele>1086.0</ele><time>2026-05-02T13:03:21.123Z</time></trkpt><trkpt lat="42.1083527" lon="13.4684844"><ele>1086.6666666666667</ele><time>2026-05-02T13:03:22.123Z</time></trkpt><trkpt lat="42.1082637" lon="13.4682399"><ele>1087.3333333333335</ele><time>2026-05-02T13:03:23.123Z</time></trkpt><trkpt lat="42.1081763" lon="13.4680002"><ele>1088.0</ele><time>2026-05-02T13:03:24.122Z</time></trkpt><trkpt lat="42.1080902" lon="13.4677602"><ele>1088.0</ele><time>2026-05-02T13:03:25.122Z</time></trkpt><trkpt lat="42.1080024" lon="13.4675206"><ele>1088.0</ele><time>2026-05-02T13:03:26.123Z</time></trkpt><trkpt lat="42.1079141" lon="13.4672747"><ele>1088.0</ele><time>2026-05-02T13:03:27.122Z</time></trkpt><trkpt lat="42.1078267" lon="13.467027"><ele>1089.6666666666667</ele><time>2026-05-02T13:03:28.122Z</time></trkpt><trkpt lat="42.1077437" lon="13.4667835"><ele>1091.3333333333333</ele><time>2026-05-02T13:03:29.122Z</time></trkpt><trkpt lat="42.1076574" lon="13.466552"><ele>1093.0</ele><time>2026-05-02T13:03:30.122Z</time></trkpt><trkpt lat="42.1075766" lon="13.4663341"><ele>1095.3333333333333</ele><time>2026-05-02T13:03:31.122Z</time></trkpt><trkpt lat="42.1075016" lon="13.4661102"><ele>1097.6666666666667</ele><time>2026-05-02T13:03:32.123Z</time></trkpt><trkpt lat="42.1074477" lon="13.4658797"><ele>1100.0</ele><time>2026-05-02T13:03:33.124Z</time></trkpt><trkpt lat="42.1074136" lon="13.4656587"><ele>1098.6666666666667</ele><time>2026-05-02T13:03:34.122Z</time></trkpt><trkpt lat="42.1074011" lon="13.4654399"><ele>1097.3333333333333</ele><time>2026-05-02T13:03:35.123Z</time></trkpt><trkpt lat="42.1074156" lon="13.4652174"><ele>1096.0</ele><time>2026-05-02T13:03:36.123Z</time></trkpt><trkpt lat="42.1074548" lon="13.4649893"><ele>1097.0</ele><time>2026-05-02T13:03:37.122Z</time></trkpt><trkpt lat="42.109215" lon="13.472752"><ele>1097.0</ele><time>2026-05-02T13:03:05.123Z</time></trkpt><trkpt lat="42.1091413" lon="13.4724928"><ele>1097.0</ele><time>2026-05-02T13:03:06.124Z</time></trkpt><trkpt lat="42.1090745" lon="13.4722311"><ele>1097.0</ele><time>2026-05-02T13:03:07.122Z</time></trkpt><trkpt lat="42.1090092" lon="13.4719654"><ele>1095.0</ele><time>2026-05-02T13:03:08.123Z</time></trkpt><trkpt lat="42.1089446" lon="13.4717157"><ele>1093.0</ele><time>2026-05-02T13:03:09.122Z</time></trkpt><trkpt lat="42.1088902" lon="13.4714759"><ele>1091.0</ele><time>2026-05-02T13:03:10.122Z</time></trkpt><trkpt lat="42.1088541" lon="13.4712364"><ele>1091.0</ele><time>2026-05-02T13:03:11.123Z</time></trkpt><trkpt lat="42.1088365" lon="13.4709958"><ele>1091.0</ele><time>2026-05-02T13:03:12.123Z</time></trkpt><trkpt lat="42.1088387" lon="13.4707572"><ele>1091.0</ele><time>2026-05-02T13:03:13.123Z</time></trkpt><trkpt lat="42.1088432" lon="13.470519"><ele>1089.6666666666667</ele><time>2026-05-02T13:03:14.123Z</time></trkpt><trkpt lat="42.1088411" lon="13.4702689"><ele>1088.3333333333333</ele><time>2026-05-02T13:03:15.122Z</time></trkpt><trkpt lat="42.108817" lon="13.4700147"><ele>1087.0</ele><time>2026-05-02T13:03:16.122Z</time></trkpt><trkpt lat="42.1087719" lon="13.4697586"><ele>1086.6666666666665</ele><time>2026-05-02T13:03:17.122Z</time></trkpt><trkpt lat="42.1087196" lon="13.4695046"><ele>1086.3333333333333</ele><time>2026-05-02T13:03:18.123Z</time></trkpt><trkpt lat="42.108653" lon="13.4692519"><ele>1086.0</ele><time>2026-05-02T13:03:19.124Z</time></trkpt><trkpt lat="42.1085279" lon="13.468982"><ele>1087.6666666666667</ele><time>2026-05-02T13:03:20.122Z</time></trkpt><trkpt lat="42.1084432" lon="13.468726"><ele>1089.3333333333335</ele><time>2026-05-02T13:03:21.123Z</time></trkpt><trkpt lat="42.1083527" lon="13.4684844"><ele>1091.0</ele><time>2026-05-02T13:03:22.123Z</time></trkpt><trkpt lat="42.1082637" lon="13.4682399"><ele>1090.0</ele><time>2026-05-02T13:03:23.123Z</time></trkpt><trkpt lat="42.1081763" lon="13.4680002"><ele>1089.0</ele><time>2026-05-02T13:03:24.122Z</time></trkpt><trkpt lat="42.1080902" lon="13.4677602"><ele>1088.0</ele><time>2026-05-02T13:03:25.122Z</time></trkpt><trkpt lat="42.1080024" lon="13.4675206"><ele>1088.0</ele><time>2026-05-02T13:03:26.123Z</time></trkpt><trkpt lat="42.1079141" lon="13.4672747"><ele>1088.0</ele><time>2026-05-02T13:03:27.122Z</time></trkpt><trkpt lat="42.1078267" lon="13.467027"><ele>1088.0</ele><time>2026-05-02T13:03:28.122Z</time></trkpt><trkpt lat="42.1077437" lon="13.4667835"><ele>1089.6666666666667</ele><time>2026-05-02T13:03:29.122Z</time></trkpt><trkpt lat="42.1076574" lon="13.466552"><ele>1091.3333333333333</ele><time>2026-05-02T13:03:30.122Z</time></trkpt><trkpt lat="42.1075766" lon="13.4663341"><ele>1093.0</ele><time>2026-05-02T13:03:31.122Z</time></trkpt><trkpt lat="42.1075016" lon="13.4661102"><ele>1094.0</ele><time>2026-05-02T13:03:32.123Z</time></trkpt><trkpt lat="42.1074477" lon="13.4658797"><ele>1095.0</ele><time>2026-05-02T13:03:33.124Z</time></trkpt><trkpt lat="42.1074136" lon="13.4656587"><ele>1096.0</ele><time>2026-05-02T13:03:34.122Z</time></trkpt><trkpt lat="42.1074011" lon="13.4654399"><ele>1098.6666666666665</ele><time>2026-05-02T13:03:35.123Z</time></trkpt><trkpt lat="42.1074156" lon="13.4652174"><ele>1101.3333333333333</ele><time>2026-05-02T13:03:36.123Z</time></trkpt><trkpt lat="42.1074548" lon="13.4649893"><ele>1104.0</ele><time>2026-05-02T13:03:37.122Z</time></trkpt><trkpt lat="42.1075226" lon="13.4647671"><ele>1102.3333333333333</ele><time>2026-05-02T13:03:38.122Z</time></trkpt><trkpt lat="42.107617" lon="13.4645532"><ele>1100.6666666666665</ele><time>2026-05-02T13:03:39.123Z</time></trkpt><trkpt lat="42.1077265" lon="13.4643408"><ele>1099.0</ele><time>2026-05-02T13:03:40.122Z</time></trkpt><trkpt lat="42.1078425" lon="13.4641237"><ele>1099.0</ele><time>2026-05-02T13:03:41.122Z</time></trkpt><trkpt lat="42.107964" lon="13.4639044"><ele>1099.0</ele><time>2026-05-02T13:03:42.122Z</time></trkpt><trkpt lat="42.1080864" lon="13.4636769"><ele>1099.0</ele><time>2026-05-02T13:03:43.122Z</time></trkpt><trkpt lat="42.1082063" lon="13.4634468"><ele>1101.6666666666665</ele><time>2026-05-02T13:03:44.124Z</time></trkpt><trkpt lat="42.1083236" lon="13.4632117"><ele>1104.3333333333333</ele><time>2026-05-02T13:03:45.122Z</time></trkpt><trkpt lat="42.1084282" lon="13.462971"><ele>1107.0</ele><time>2026-05-02T13:03:46.122Z</time></trkpt><trkpt lat="42.1085145" lon="13.4627367"><ele>1108.3333333333333</ele><time>2026-05-02T13:03:47.123Z</time></trkpt><trkpt lat="42.1085796" lon="13.4625126"><ele>1109.6666666666665</ele><time>2026-05-02T13:03:48.122Z</time></trkpt><trkpt lat="42.108636" lon="13.4623045"><ele>1111.0</ele><time>2026-05-02T13:03:49.122Z</time></trkpt><trkpt lat="42.1086866" lon="13.462105"><ele>1111.2</ele><time>2026-05-02T13:03:50.123Z</time></trkpt><trkpt lat="42.108734" lon="13.4619217"><ele>1111.3999999999999</ele><time>2026-05-02T13:03:51.123Z</time></trkpt><trkpt lat="42.1087736" lon="13.4617719"><ele>1111.6</ele><time>2026-05-02T13:03:52.122Z</time></trkpt><trkpt lat="42.1088051" lon="13.461663"><ele>1111.8</ele><time>2026-05-02T13:03:53.123Z</time></trkpt><trkpt lat="42.1088387" lon="13.4615477"><ele>1112.0</ele><time>2026-05-02T13:03:55.122Z</time></trkpt><trkpt lat="42.1087661" lon="13.46159"><ele>1112.0</ele><time>2026-05-02T13:04:01.122Z</time></trkpt><trkpt lat="42.1087135" lon="13.4614852"><ele>1112.0</ele><time>2026-05-02T13:04:05.122Z</time></trkpt><trkpt lat="42.1087029" lon="13.4613703"><ele>1112.0</ele><time>2026-05-02T13:04:07.123Z</time></trkpt><trkpt lat="42.1086765" lon="13.4612508"><ele>1112.0</ele><time>2026-05-02T13:04:09.123Z</time></trkpt><trkpt lat="42.1086327" lon="13.4610937"><ele>1112.0</ele><time>2026-05-02T13:04:11.123Z</time></trkpt><trkpt lat="42.1086118" lon="13.4609987"><ele>1110.8333333333335</ele><time>2026-05-02T13:04:12.122Z</time></trkpt><trkpt lat="42.1085967" lon="13.4608962"><ele>1109.6666666666667</ele><time>2026-05-02T13:04:13.123Z</time></trkpt><trkpt lat="42.1085823" lon="13.4607844"><ele>1108.5</ele><time>2026-05-02T13:04:14.122Z</time></trkpt><trkpt lat="42.1085625" lon="13.4606641"><ele>1107.3333333333333</ele><time>2026-05-02T13:04:15.123Z</time></trkpt><trkpt lat="42.1085378" lon="13.4605423"><ele>1106.1666666666665</ele><time>2026-05-02T13:04:16.124Z</time></trkpt><trkpt lat="42.1085091" lon="13.4604237"><ele>1105.0</ele><time>2026-05-02T13:04:17.123Z</time></trkpt><trkpt lat="42.1084778" lon="13.4603203"><ele>1102.6</ele><time>2026-05-02T13:04:18.122Z</time></trkpt><trkpt lat="42.1084482" lon="13.4602335"><ele>1100.2</ele><time>2026-05-02T13:04:19.123Z</time></trkpt><trkpt lat="42.1084449" lon="13.4600856"><ele>1097.8</ele><time>2026-05-02T13:04:21.122Z</time></trkpt><trkpt lat="42.1085301" lon="13.4599349"><ele>1095.4</ele><time>2026-05-02T13:04:23.122Z</time></trkpt><trkpt lat="42.1085572" lon="13.4598496"><ele>1093.0</ele><time>2026-05-02T13:04:24.122Z</time></trkpt><trkpt lat="42.1085677" lon="13.4596743"><ele>1091.1666666666665</ele><time>2026-05-02T13:04:26.122Z</time></trkpt><trkpt lat="42.108548" lon="13.4595659"><ele>1089.3333333333333</ele><time>2026-05-02T13:04:27.123Z</time></trkpt><trkpt lat="42.1085317" lon="13.4594561"><ele>1087.5</ele><time>2026-05-02T13:04:28.123Z</time></trkpt><trkpt lat="42.1085236" lon="13.4593365"><ele>1085.6666666666667</ele><time>2026-05-02T13:04:29.123Z</time></trkpt><trkpt lat="42.1085179" lon="13.4592156"><ele>1083.8333333333335</ele><time>2026-05-02T13:04:30.122Z</time></trkpt><trkpt lat="42.1085124" lon="13.4590903"><ele>1082.0</ele><time>2026-05-02T13:04:31.122Z</time></trkpt><trkpt lat="42.108505" lon="13.4589815"><ele>1082.0000000000002</ele><time>2026-05-02T13:04:32.122Z</time></trkpt><trkpt lat="42.1085019" lon="13.4588803"><ele>1082.0</ele><time>2026-05-02T13:04:33.122Z</time></trkpt><trkpt lat="42.1085101" lon="13.4587834"><ele>1082.0</ele><time>2026-05-02T13:04:34.122Z</time></trkpt><trkpt lat="42.1085199" lon="13.4586902"><ele>1082.0</ele><time>2026-05-02T13:04:35.122Z</time></trkpt><trkpt lat="42.1085298" lon="13.4586011"><ele>1082.0</ele><time>2026-05-02T13:04:36.122Z</time></trkpt><trkpt lat="42.1085348" lon="13.4585095"><ele>1082.0000000000002</ele><time>2026-05-02T13:04:37.122Z</time></trkpt><trkpt lat="42.1085425" lon="13.4584139"><ele>1082.0</ele><time>2026-05-02T13:04:38.122Z</time></trkpt><trkpt lat="42.1085517" lon="13.4583106"><ele>1080.5</ele><time>2026-05-02T13:04:39.122Z</time></trkpt><trkpt lat="42.1085575" lon="13.4582075"><ele>1079.0</ele><time>2026-05-02T13:04:40.123Z</time></trkpt><trkpt lat="42.1085579" lon="13.4581044"><ele>1077.5</ele><time>2026-05-02T13:04:41.122Z</time></trkpt><trkpt lat="42.1085602" lon="13.4580028"><ele>1076.0</ele><time>2026-05-02T13:04:42.123Z</time></trkpt><trkpt lat="42.1085702" lon="13.4579031"><ele>1074.5</ele><time>2026-05-02T13:04:43.123Z</time></trkpt><trkpt lat="42.1085903" lon="13.4578051"><ele>1073.0</ele><time>2026-05-02T13:04:44.123Z</time></trkpt><trkpt lat="42.1086245" lon="13.4576986"><ele>1071.5</ele><time>2026-05-02T13:04:45.122Z</time></trkpt><trkpt lat="42.1086482" lon="13.4575945"><ele>1070.0</ele><time>2026-05-02T13:04:46.123Z</time></trkpt><trkpt lat="42.1086571" lon="13.4574864"><ele>1068.5</ele><time>2026-05-02T13:04:47.122Z</time></trkpt><trkpt lat="42.1086608" lon="13.4573644"><ele>1067.0</ele><time>2026-05-02T13:04:48.123Z</time></trkpt><trkpt lat="42.1086586" lon="13.4572391"><ele>1065.5</ele><time>2026-05-02T13:04:49.123Z</time></trkpt><trkpt lat="42.1086588" lon="13.4571186"><ele>1064.0</ele><time>2026-05-02T13:04:50.122Z</time></trkpt><trkpt lat="42.1086564" lon="13.4570161"><ele>1062.5714285714287</ele><time>2026-05-02T13:04:51.122Z</time></trkpt><trkpt lat="42.1086546" lon="13.4569218"><ele>1061.142857142857</ele><time>2026-05-02T13:04:52.123Z</time></trkpt><trkpt lat="42.108659" lon="13.4568317"><ele>1059.7142857142858</ele><time>2026-05-02T13:04:53.122Z</time></trkpt><trkpt lat="42.1086643" lon="13.4567349"><ele>1058.2857142857142</ele><time>2026-05-02T13:04:54.122Z</time></trkpt><trkpt lat="42.1086693" lon="13.4566288"><ele>1056.857142857143</ele><time>2026-05-02T13:04:55.122Z</time></trkpt><trkpt lat="42.1086631" lon="13.4565252"><ele>1055.4285714285716</ele><time>2026-05-02T13:04:56.122Z</time></trkpt><trkpt lat="42.1086555" lon="13.456418"><ele>1054.0</ele><time>2026-05-02T13:04:57.122Z</time></trkpt><trkpt lat="42.1086481" lon="13.4563103"><ele>1052.8333333333333</ele><time>2026-05-02T13:04:58.122Z</time></trkpt><trkpt lat="42.1086354" lon="13.4562004"><ele>1051.6666666666665</ele><time>2026-05-02T13:04:59.123Z</time></trkpt><trkpt lat="42.1086175" lon="13.456093"><ele>1050.5</ele><time>2026-05-02T13:05:00.123Z</time></trkpt><trkpt lat="42.1085832" lon="13.4559827"><ele>1049.3333333333333</ele><time>2026-05-02T13:05:01.122Z</time></trkpt><trkpt lat="42.1085467" lon="13.45588"><ele>1048.1666666666667</ele><time>2026-05-02T13:05:02.122Z</time></trkpt><trkpt lat="42.1085157" lon="13.4557766"><ele>1047.0</ele><time>2026-05-02T13:05:03.122Z</time></trkpt><trkpt lat="42.1084934" lon="13.4556699"><ele>1047.0</ele><time>2026-05-02T13:05:04.122Z</time></trkpt><trkpt lat="42.1084779" lon="13.4555586"><ele>1047.0</ele><time>2026-05-02T13:05:05.122Z</time></trkpt><trkpt lat="42.1084654" lon="13.4554468"><ele>1047.0</ele><time>2026-05-02T13:05:06.122Z</time></trkpt><trkpt lat="42.1084504" lon="13.4553373"><ele>1047.0</ele><time>2026-05-02T13:05:07.122Z</time></trkpt><trkpt lat="42.1084298" lon="13.4552288"><ele>1047.0</ele><time>2026-05-02T13:05:08.123Z</time></trkpt><trkpt lat="42.1084111" lon="13.4551174"><ele>1047.0</ele><time>2026-05-02T13:05:09.123Z</time></trkpt><trkpt lat="42.1083881" lon="13.4550044"><ele>1045.8</ele><time>2026-05-02T13:05:10.123Z</time></trkpt><trkpt lat="42.1083624" lon="13.4548903"><ele>1044.6</ele><time>2026-05-02T13:05:11.122Z</time></trkpt><trkpt lat="42.1083384" lon="13.4547712"><ele>1043.3999999999999</ele><time>2026-05-02T13:05:12.122Z</time></trkpt><trkpt lat="42.1083181" lon="13.4546469"><ele>1042.2</ele><time>2026-05-02T13:05:13.122Z</time></trkpt><trkpt lat="42.1083027" lon="13.4545171"><ele>1041.0</ele><time>2026-05-02T13:05:14.123Z</time></trkpt><trkpt lat="42.1082883" lon="13.4543985"><ele>1040.0</ele><time>2026-05-02T13:05:15.123Z</time></trkpt><trkpt lat="42.1082757" lon="13.454267"><ele>1039.0</ele><time>2026-05-02T13:05:16.123Z</time></trkpt><trkpt lat="42.1082693" lon="13.454128"><ele>1038.0</ele><time>2026-05-02T13:05:17.122Z</time></trkpt><trkpt lat="42.1082635" lon="13.4539896"><ele>1037.0</ele><time>2026-05-02T13:05:18.122Z</time></trkpt><trkpt lat="42.1082567" lon="13.4538554"><ele>1036.0</ele><time>2026-05-02T13:05:19.123Z</time></trkpt><trkpt lat="42.1082456" lon="13.4537233"><ele>1032.8</ele><time>2026-05-02T13:05:20.123Z</time></trkpt><trkpt lat="42.1082337" lon="13.4535969"><ele>1029.6</ele><time>2026-05-02T13:05:21.123Z</time></trkpt><trkpt lat="42.1082154" lon="13.4534796"><ele>1026.4</ele><time>2026-05-02T13:05:22.123Z</time></trkpt><trkpt lat="42.1081872" lon="13.4533614"><ele>1023.2</ele><time>2026-05-02T13:05:23.122Z</time></trkpt><trkpt lat="42.1081452" lon="13.4532296"><ele>1020.0</ele><time>2026-05-02T13:05:24.122Z</time></trkpt><trkpt lat="42.1081081" lon="13.4531115"><ele>1020.0</ele><time>2026-05-02T13:05:25.122Z</time></trkpt><trkpt lat="42.108082" lon="13.4529868"><ele>1020.0</ele><time>2026-05-02T13:05:26.122Z</time></trkpt><trkpt lat="42.1080656" lon="13.4528668"><ele>1020.0</ele><time>2026-05-02T13:05:27.124Z</time></trkpt><trkpt lat="42.1080559" lon="13.4527423"><ele>1020.0</ele><time>2026-05-02T13:05:28.123Z</time></trkpt><trkpt lat="42.1080544" lon="13.4526087"><ele>1020.0</ele><time>2026-05-02T13:05:29.122Z</time></trkpt><trkpt lat="42.1080535" lon="13.4524484"><ele>1018.8</ele><time>2026-05-02T13:05:30.122Z</time></trkpt><trkpt lat="42.1080537" lon="13.4522813"><ele>1017.6</ele><time>2026-05-02T13:05:31.122Z</time></trkpt><trkpt lat="42.1080512" lon="13.4521387"><ele>1016.4000000000001</ele><time>2026-05-02T13:05:32.122Z</time></trkpt><trkpt lat="42.1080439" lon="13.4520132"><ele>1015.2</ele><time>2026-05-02T13:05:33.122Z</time></trkpt><trkpt lat="42.1080159" lon="13.4518983"><ele>1014.0</ele><time>2026-05-02T13:05:34.123Z</time></trkpt><trkpt lat="42.107982" lon="13.4517647"><ele>1014.0</ele><time>2026-05-02T13:05:35.123Z</time></trkpt><trkpt lat="42.107964" lon="13.4516504"><ele>1014.0</ele><time>2026-05-02T13:05:36.123Z</time></trkpt><trkpt lat="42.1079558" lon="13.4515626"><ele>1014.0</ele><time>2026-05-02T13:05:37.122Z</time></trkpt><trkpt lat="42.1079523" lon="13.451449"><ele>1014.0</ele><time>2026-05-02T13:05:39.123Z</time></trkpt><trkpt lat="42.1079115" lon="13.4513391"><ele>1014.0</ele><time>2026-05-02T13:05:41.122Z</time></trkpt><trkpt lat="42.1078769" lon="13.451195"><ele>1014.0</ele><time>2026-05-02T13:05:43.122Z</time></trkpt><trkpt lat="42.107829" lon="13.4510926"><ele>1013.75</ele><time>2026-05-02T13:05:44.123Z</time></trkpt><trkpt lat="42.1077526" lon="13.4509143"><ele>1013.5</ele><time>2026-05-02T13:05:45.122Z</time></trkpt><trkpt lat="42.1076984" lon="13.4507749"><ele>1013.25</ele><time>2026-05-02T13:05:46.122Z</time></trkpt><trkpt lat="42.1076316" lon="13.4506318"><ele>1013.0</ele><time>2026-05-02T13:05:47.123Z</time></trkpt><trkpt lat="42.1075722" lon="13.4504826"><ele>1012.0</ele><time>2026-05-02T13:05:48.122Z</time></trkpt><trkpt lat="42.1075085" lon="13.4503487"><ele>1011.0</ele><time>2026-05-02T13:05:49.123Z</time></trkpt><trkpt lat="42.1074382" lon="13.4502176"><ele>1010.0</ele><time>2026-05-02T13:05:50.122Z</time></trkpt><trkpt lat="42.1073761" lon="13.4500937"><ele>1009.0</ele><time>2026-05-02T13:05:51.122Z</time></trkpt><trkpt lat="42.1073187" lon="13.4499752"><ele>1008.0</ele><time>2026-05-02T13:05:52.123Z</time></trkpt><trkpt lat="42.1072537" lon="13.4498465"><ele>1007.0</ele><time>2026-05-02T13:05:53.122Z</time></trkpt><trkpt lat="42.107188" lon="13.4497086"><ele>1006.0</ele><time>2026-05-02T13:05:54.123Z</time></trkpt><trkpt lat="42.1071189" lon="13.449584"><ele>1005.0</ele><time>2026-05-02T13:05:55.123Z</time></trkpt><trkpt lat="42.1070609" lon="13.4494557"><ele>1004.25</ele><time>2026-05-02T13:05:56.122Z</time></trkpt><trkpt lat="42.106996" lon="13.4493246"><ele>1003.5</ele><time>2026-05-02T13:05:57.122Z</time></trkpt><trkpt lat="42.1069422" lon="13.4491882"><ele>1002.75</ele><time>2026-05-02T13:05:58.122Z</time></trkpt><trkpt lat="42.1068851" lon="13.4490488"><ele>1002.0</ele><time>2026-05-02T13:05:59.122Z</time></trkpt><trkpt lat="42.1068334" lon="13.4489008"><ele>1001.6</ele><time>2026-05-02T13:06:00.122Z</time></trkpt><trkpt lat="42.1067723" lon="13.4487665"><ele>1001.2</ele><time>2026-05-02T13:06:01.122Z</time></trkpt><trkpt lat="42.1067258" lon="13.4486233"><ele>1000.8</ele><time>2026-05-02T13:06:02.122Z</time></trkpt><trkpt lat="42.106677" lon="13.4484891"><ele>1000.4</ele><time>2026-05-02T13:06:03.122Z</time></trkpt><trkpt lat="42.1066291" lon="13.4483732"><ele>1000.0</ele><time>2026-05-02T13:06:04.122Z</time></trkpt><trkpt lat="42.1065856" lon="13.4482674"><ele>998.9999999999999</ele><time>2026-05-02T13:06:05.122Z</time></trkpt><trkpt lat="42.1065442" lon="13.4481814"><ele>998.0</ele><time>2026-05-02T13:06:06.122Z</time></trkpt><trkpt lat="42.1064557" lon="13.4480901"><ele>997.0</ele><time>2026-05-02T13:06:08.122Z</time></trkpt><trkpt lat="42.1063942" lon="13.4480629"><ele>996.0</ele><time>2026-05-02T13:06:09.123Z</time></trkpt><trkpt lat="42.1063103" lon="13.4480357"><ele>994.9999999999999</ele><time>2026-05-02T13:06:10.122Z</time></trkpt><trkpt lat="42.106216" lon="13.4480085"><ele>994.0</ele><time>2026-05-02T13:06:11.122Z</time></trkpt><trkpt lat="42.1061367" lon="13.4479819"><ele>993.7142857142858</ele><time>2026-05-02T13:06:12.122Z</time></trkpt><trkpt lat="42.1060611" lon="13.4479503"><ele>993.4285714285714</ele><time>2026-05-02T13:06:13.124Z</time></trkpt><trkpt lat="42.1060055" lon="13.4479064"><ele>993.1428571428571</ele><time>2026-05-02T13:06:14.123Z</time></trkpt><trkpt lat="42.1059607" lon="13.4478446"><ele>992.8571428571429</ele><time>2026-05-02T13:06:15.122Z</time></trkpt><trkpt lat="42.1059198" lon="13.4477773"><ele>992.5714285714287</ele><time>2026-05-02T13:06:16.122Z</time></trkpt><trkpt lat="42.1058891" lon="13.4476949"><ele>992.2857142857143</ele><time>2026-05-02T13:06:17.123Z</time></trkpt><trkpt lat="42.1058521" lon="13.447586"><ele>992.0</ele><time>2026-05-02T13:06:18.123Z</time></trkpt><trkpt lat="42.1058185" lon="13.4474714"><ele>992.0000000000001</ele><time>2026-05-02T13:06:19.123Z</time></trkpt><trkpt lat="42.1057913" lon="13.4473579"><ele>992.0</ele><time>2026-05-02T13:06:20.123Z</time></trkpt><trkpt lat="42.1057652" lon="13.4472281"><ele>992.0</ele><time>2026-05-02T13:06:21.123Z</time></trkpt><trkpt lat="42.1057434" lon="13.4471075"><ele>992.0</ele><time>2026-05-02T13:06:22.122Z</time></trkpt><trkpt lat="42.1057317" lon="13.4469968"><ele>992.0000000000001</ele><time>2026-05-02T13:06:23.123Z</time></trkpt><trkpt lat="42.1057345" lon="13.446882"><ele>992.0</ele><time>2026-05-02T13:06:24.122Z</time></trkpt><trkpt lat="42.1057568" lon="13.4467618"><ele>991.0000000000001</ele><time>2026-05-02T13:06:25.122Z</time></trkpt><trkpt lat="42.1057857" lon="13.4466649"><ele>990.0</ele><time>2026-05-02T13:06:26.123Z</time></trkpt><trkpt lat="42.1058137" lon="13.4465852"><ele>989.0</ele><time>2026-05-02T13:06:27.123Z</time></trkpt><trkpt lat="42.1058209" lon="13.4464188"><ele>988.0</ele><time>2026-05-02T13:06:29.123Z</time></trkpt><trkpt lat="42.1057976" lon="13.446336"><ele>987.0000000000001</ele><time>2026-05-02T13:06:30.122Z</time></trkpt><trkpt lat="42.1057621" lon="13.44623"><ele>986.0</ele><time>2026-05-02T13:06:31.124Z</time></trkpt><trkpt lat="42.1057208" lon="13.44612"><ele>984.1999999999999</ele><time>2026-05-02T13:06:32.122Z</time></trkpt><trkpt lat="42.1056694" lon="13.4460037"><ele>982.3999999999999</ele><time>2026-05-02T13:06:33.122Z</time></trkpt><trkpt lat="42.1056223" lon="13.4458881"><ele>980.6</ele><time>2026-05-02T13:06:34.123Z</time></trkpt><trkpt lat="42.1055678" lon="13.4457616"><ele>978.8</ele><time>2026-05-02T13:06:35.124Z</time></trkpt><trkpt lat="42.1055158" lon="13.4456367"><ele>977.0</ele><time>2026-05-02T13:06:36.124Z</time></trkpt><trkpt lat="42.1054639" lon="13.4455286"><ele>977.0</ele><time>2026-05-02T13:06:37.122Z</time></trkpt><trkpt lat="42.1054213" lon="13.4454195"><ele>977.0</ele><time>2026-05-02T13:06:38.122Z</time></trkpt><trkpt lat="42.1053763" lon="13.4452916"><ele>977.0</ele><time>2026-05-02T13:06:39.122Z</time></trkpt><trkpt lat="42.1053345" lon="13.4451639"><ele>977.0</ele><time>2026-05-02T13:06:40.123Z</time></trkpt><trkpt lat="42.1053013" lon="13.4450431"><ele>977.0</ele><time>2026-05-02T13:06:41.123Z</time></trkpt><trkpt lat="42.1052548" lon="13.444909"><ele>977.0</ele><time>2026-05-02T13:06:42.123Z</time></trkpt><trkpt lat="42.1052005" lon="13.4447693"><ele>977.0</ele><time>2026-05-02T13:06:43.122Z</time></trkpt><trkpt lat="42.1051331" lon="13.4446028"><ele>977.0</ele><time>2026-05-02T13:06:44.122Z</time></trkpt><trkpt lat="42.1050582" lon="13.4444138"><ele>977.0</ele><time>2026-05-02T13:06:45.122Z</time></trkpt><trkpt lat="42.1049951" lon="13.4442448"><ele>976.6</ele><time>2026-05-02T13:06:46.122Z</time></trkpt><trkpt lat="42.1049427" lon="13.444105"><ele>976.2</ele><time>2026-05-02T13:06:47.123Z</time></trkpt><trkpt lat="42.1048905" lon="13.443975"><ele>975.8</ele><time>2026-05-02T13:06:48.123Z</time></trkpt><trkpt lat="42.1048307" lon="13.4438621"><ele>975.4</ele><time>2026-05-02T13:06:49.122Z</time></trkpt><trkpt lat="42.1047611" lon="13.4437589"><ele>975.0</ele><time>2026-05-02T13:06:50.123Z</time></trkpt><trkpt lat="42.1047045" lon="13.4436752"><ele>974.5</ele><time>2026-05-02T13:06:51.123Z</time></trkpt><trkpt lat="42.1046573" lon="13.443573"><ele>974.0</ele><time>2026-05-02T13:06:52.122Z</time></trkpt><trkpt lat="42.1046114" lon="13.4434338"><ele>973.5</ele><time>2026-05-02T13:06:53.123Z</time></trkpt><trkpt lat="42.104555" lon="13.4432763"><ele>973.0</ele><time>2026-05-02T13:06:54.123Z</time></trkpt><trkpt lat="42.1044838" lon="13.4431298"><ele>973.0</ele><time>2026-05-02T13:06:55.122Z</time></trkpt><trkpt lat="42.1043974" lon="13.4429765"><ele>973.0</ele><time>2026-05-02T13:06:56.123Z</time></trkpt><trkpt lat="42.1043137" lon="13.4428337"><ele>973.0</ele><time>2026-05-02T13:06:57.123Z</time></trkpt><trkpt lat="42.1042382" lon="13.4427121"><ele>973.0</ele><time>2026-05-02T13:06:58.122Z</time></trkpt><trkpt lat="42.1041695" lon="13.4425856"><ele>973.0</ele><time>2026-05-02T13:06:59.122Z</time></trkpt><trkpt lat="42.1041077" lon="13.4424483"><ele>973.0</ele><time>2026-05-02T13:07:00.122Z</time></trkpt><trkpt lat="42.104046" lon="13.4422914"><ele>973.0</ele><time>2026-05-02T13:07:01.122Z</time></trkpt><trkpt lat="42.1039743" lon="13.4421021"><ele>973.0</ele><time>2026-05-02T13:07:02.122Z</time></trkpt><trkpt lat="42.1038968" lon="13.4418971"><ele>973.0</ele><time>2026-05-02T13:07:03.123Z</time></trkpt><trkpt lat="42.1038261" lon="13.4417178"><ele>973.0</ele><time>2026-05-02T13:07:04.123Z</time></trkpt><trkpt lat="42.103752" lon="13.4415615"><ele>973.0</ele><time>2026-05-02T13:07:05.123Z</time></trkpt><trkpt lat="42.1036678" lon="13.4414227"><ele>973.0</ele><time>2026-05-02T13:07:06.122Z</time></trkpt><trkpt lat="42.103579" lon="13.4412921"><ele>973.0</ele><time>2026-05-02T13:07:07.122Z</time></trkpt><trkpt lat="42.1034963" lon="13.4411728"><ele>973.0</ele><time>2026-05-02T13:07:08.123Z</time></trkpt><trkpt lat="42.1034192" lon="13.441052"><ele>973.0</ele><time>2026-05-02T13:07:09.123Z</time></trkpt><trkpt lat="42.1033639" lon="13.4409519"><ele>973.0</ele><time>2026-05-02T13:07:10.122Z</time></trkpt><trkpt lat="42.1033237" lon="13.4408668"><ele>973.0</ele><time>2026-05-02T13:07:11.122Z</time></trkpt><trkpt lat="42.1032948" lon="13.4407899"><ele>972.8</ele><time>2026-05-02T13:07:12.122Z</time></trkpt><trkpt lat="42.1032306" lon="13.4406571"><ele>972.5999999999999</ele><time>2026-05-02T13:07:14.123Z</time></trkpt><trkpt lat="42.1031747" lon="13.4405673"><ele>972.4000000000001</ele><time>2026-05-02T13:07:15.123Z</time></trkpt><trkpt lat="42.1031044" lon="13.4404619"><ele>972.2</ele><time>2026-05-02T13:07:16.123Z</time></trkpt><trkpt lat="42.1030201" lon="13.4403424"><ele>972.0</ele><time>2026-05-02T13:07:17.124Z</time></trkpt><trkpt lat="42.1029318" lon="13.440233"><ele>972.0</ele><time>2026-05-02T13:07:18.123Z</time></trkpt><trkpt lat="42.1028417" lon="13.4401497"><ele>972.0</ele><time>2026-05-02T13:07:19.123Z</time></trkpt><trkpt lat="42.1027412" lon="13.4400905"><ele>972.0</ele><time>2026-05-02T13:07:20.123Z</time></trkpt><trkpt lat="42.1026308" lon="13.4400459"><ele>972.0</ele><time>2026-05-02T13:07:21.123Z</time></trkpt><trkpt lat="42.1025366" lon="13.4400055"><ele>972.0</ele><time>2026-05-02T13:07:22.123Z</time></trkpt><trkpt lat="42.1024526" lon="13.4399488"><ele>971.75</ele><time>2026-05-02T13:07:23.122Z</time></trkpt><trkpt lat="42.1023664" lon="13.4398681"><ele>971.5</ele><time>2026-05-02T13:07:24.123Z</time></trkpt><trkpt lat="42.1022751" lon="13.4397584"><ele>971.25</ele><time>2026-05-02T13:07:25.123Z</time></trkpt><trkpt lat="42.1021761" lon="13.439618"><ele>971.0</ele><time>2026-05-02T13:07:26.123Z</time></trkpt><trkpt lat="42.1020795" lon="13.4394698"><ele>972.25</ele><time>2026-05-02T13:07:27.123Z</time></trkpt><trkpt lat="42.1019966" lon="13.4393374"><ele>973.5</ele><time>2026-05-02T13:07:28.122Z</time></trkpt><trkpt lat="42.1019046" lon="13.4392055"><ele>974.75</ele><time>2026-05-02T13:07:29.122Z</time></trkpt><trkpt lat="42.1017948" lon="13.4390662"><ele>976.0</ele><time>2026-05-02T13:07:30.122Z</time></trkpt><trkpt lat="42.1016903" lon="13.4389296"><ele>975.75</ele><time>2026-05-02T13:07:31.122Z</time></trkpt><trkpt lat="42.1015967" lon="13.4387971"><ele>975.5</ele><time>2026-05-02T13:07:32.123Z</time></trkpt><trkpt lat="42.1015016" lon="13.4386577"><ele>975.25</ele><time>2026-05-02T13:07:33.122Z</time></trkpt><trkpt lat="42.1014135" lon="13.4385095"><ele>975.0</ele><time>2026-05-02T13:07:34.123Z</time></trkpt><trkpt lat="42.1013271" lon="13.4383525"><ele>975.0</ele><time>2026-05-02T13:07:35.123Z</time></trkpt><trkpt lat="42.101239" lon="13.4381916"><ele>975.0</ele><time>2026-05-02T13:07:36.123Z</time></trkpt><trkpt lat="42.1011457" lon="13.4380403"><ele>975.0</ele><time>2026-05-02T13:07:37.122Z</time></trkpt><trkpt lat="42.1010618" lon="13.4379045"><ele>975.0</ele><time>2026-05-02T13:07:38.122Z</time></trkpt><trkpt lat="42.1009844" lon="13.4377771"><ele>975.0</ele><time>2026-05-02T13:07:39.123Z</time></trkpt><trkpt lat="42.100919" lon="13.4376613"><ele>975.0</ele><time>2026-05-02T13:07:40.122Z</time></trkpt><trkpt lat="42.1008635" lon="13.4375558"><ele>975.0</ele><time>2026-05-02T13:07:41.123Z</time></trkpt><trkpt lat="42.1008144" lon="13.4374669"><ele>975.0</ele><time>2026-05-02T13:07:42.123Z</time></trkpt><trkpt lat="42.1007678" lon="13.4373889"><ele>975.0</ele><time>2026-05-02T13:07:43.122Z</time></trkpt><trkpt lat="42.1007113" lon="13.4372902"><ele>974.4</ele><time>2026-05-02T13:07:45.122Z</time></trkpt><trkpt lat="42.1006653" lon="13.4372131"><ele>973.8</ele><time>2026-05-02T13:07:47.122Z</time></trkpt><trkpt lat="42.1006265" lon="13.4371425"><ele>973.2</ele><time>2026-05-02T13:07:48.122Z</time></trkpt><trkpt lat="42.1005748" lon="13.4370479"><ele>972.6</ele><time>2026-05-02T13:07:49.122Z</time></trkpt><trkpt lat="42.1005162" lon="13.4369305"><ele>972.0</ele><time>2026-05-02T13:07:50.123Z</time></trkpt><trkpt lat="42.1004421" lon="13.4367892"><ele>972.0</ele><time>2026-05-02T13:07:51.123Z</time></trkpt><trkpt lat="42.100361" lon="13.4366236"><ele>972.0</ele><time>2026-05-02T13:07:52.123Z</time></trkpt><trkpt lat="42.1002849" lon="13.436477"><ele>972.0</ele><time>2026-05-02T13:07:53.123Z</time></trkpt><trkpt lat="42.1002142" lon="13.4363352"><ele>972.0</ele><time>2026-05-02T13:07:54.122Z</time></trkpt><trkpt lat="42.1001518" lon="13.4361971"><ele>972.75</ele><time>2026-05-02T13:07:55.123Z</time></trkpt><trkpt lat="42.1001008" lon="13.4360665"><ele>973.5</ele><time>2026-05-02T13:07:56.124Z</time></trkpt><trkpt lat="42.1000478" lon="13.4359264"><ele>974.25</ele><time>2026-05-02T13:07:57.122Z</time></trkpt><trkpt lat="42.099993" lon="13.4357887"><ele>975.0</ele><time>2026-05-02T13:07:58.124Z</time></trkpt><trkpt lat="42.0999421" lon="13.4356608"><ele>974.8</ele><time>2026-05-02T13:07:59.122Z</time></trkpt><trkpt lat="42.0999023" lon="13.4355447"><ele>974.6</ele><time>2026-05-02T13:08:00.123Z</time></trkpt><trkpt lat="42.0998575" lon="13.4354181"><ele>974.4000000000001</ele><time>2026-05-02T13:08:01.123Z</time></trkpt><trkpt lat="42.0998147" lon="13.4352918"><ele>974.2</ele><time>2026-05-02T13:08:02.123Z</time></trkpt><trkpt lat="42.099771" lon="13.4351614"><ele>974.0</ele><time>2026-05-02T13:08:03.122Z</time></trkpt><trkpt lat="42.099729" lon="13.4350313"><ele>974.0</ele><time>2026-05-02T13:08:04.122Z</time></trkpt><trkpt lat="42.0996799" lon="13.4348988"><ele>974.0000000000001</ele><time>2026-05-02T13:08:05.123Z</time></trkpt><trkpt lat="42.0996275" lon="13.4347675"><ele>974.0000000000001</ele><time>2026-05-02T13:08:06.122Z</time></trkpt><trkpt lat="42.0995729" lon="13.4346411"><ele>974.0</ele><time>2026-05-02T13:08:07.122Z</time></trkpt><trkpt lat="42.0995226" lon="13.434519"><ele>974.0</ele><time>2026-05-02T13:08:08.122Z</time></trkpt><trkpt lat="42.0994769" lon="13.4343972"><ele>974.2</ele><time>2026-05-02T13:08:09.123Z</time></trkpt><trkpt lat="42.099436" lon="13.4342845"><ele>974.4000000000001</ele><time>2026-05-02T13:08:10.122Z</time></trkpt><trkpt lat="42.0994078" lon="13.4341898"><ele>974.6</ele><time>2026-05-02T13:08:11.122Z</time></trkpt><trkpt lat="42.0993806" lon="13.4340546"><ele>974.8</ele><time>2026-05-02T13:08:13.123Z</time></trkpt><trkpt lat="42.0993538" lon="13.4339398"><ele>975.0</ele><time>2026-05-02T13:08:16.122Z</time></trkpt><trkpt lat="42.099283" lon="13.4338228"><ele>974.4</ele><time>2026-05-02T13:08:18.122Z</time></trkpt><trkpt lat="42.0992254" lon="13.4337501"><ele>973.8</ele><time>2026-05-02T13:08:19.123Z</time></trkpt><trkpt lat="42.0991481" lon="13.4336708"><ele>973.2</ele><time>2026-05-02T13:08:20.122Z</time></trkpt><trkpt lat="42.0990517" lon="13.4335719"><ele>972.6</ele><time>2026-05-02T13:08:21.123Z</time></trkpt><trkpt lat="42.0989468" lon="13.4334684"><ele>972.0</ele><time>2026-05-02T13:08:22.123Z</time></trkpt><trkpt lat="42.0988307" lon="13.4333511"><ele>972.0</ele><time>2026-05-02T13:08:23.123Z</time></trkpt><trkpt lat="42.0987107" lon="13.4332282"><ele>972.0</ele><time>2026-05-02T13:08:24.122Z</time></trkpt><trkpt lat="42.0985763" lon="13.4330986"><ele>972.0</ele><time>2026-05-02T13:08:25.123Z</time></trkpt><trkpt lat="42.0984338" lon="13.4329676"><ele>971.0</ele><time>2026-05-02T13:08:26.123Z</time></trkpt><trkpt lat="42.0982983" lon="13.4328361"><ele>970.0</ele><time>2026-05-02T13:08:27.123Z</time></trkpt><trkpt lat="42.0981769" lon="13.4327135"><ele>969.0</ele><time>2026-05-02T13:08:28.123Z</time></trkpt><trkpt lat="42.0980706" lon="13.4326063"><ele>969.0</ele><time>2026-05-02T13:08:29.122Z</time></trkpt><trkpt lat="42.0979912" lon="13.4325254"><ele>969.0</ele><time>2026-05-02T13:08:30.122Z</time></trkpt><trkpt lat="42.0979396" lon="13.4324675"><ele>969.0</ele><time>2026-05-02T13:08:31.123Z</time></trkpt><trkpt lat="42.0979017" lon="13.4323873"><ele>969.0</ele><time>2026-05-02T13:08:33.122Z</time></trkpt><trkpt lat="42.0979565" lon="13.4322899"><ele>969.0</ele><time>2026-05-02T13:08:36.122Z</time></trkpt><trkpt lat="42.0980302" lon="13.4322591"><ele>969.0</ele><time>2026-05-02T13:08:38.123Z</time></trkpt><trkpt lat="42.0981249" lon="13.4322975"><ele>969.0</ele><time>2026-05-02T13:08:40.122Z</time></trkpt><trkpt lat="42.0981977" lon="13.4323433"><ele>969.0000000000001</ele><time>2026-05-02T13:08:41.123Z</time></trkpt><trkpt lat="42.098278" lon="13.4324014"><ele>969.0000000000001</ele><time>2026-05-02T13:08:42.122Z</time></trkpt><trkpt lat="42.0983649" lon="13.4324732"><ele>969.0</ele><time>2026-05-02T13:08:43.122Z</time></trkpt><trkpt lat="42.0984569" lon="13.4325582"><ele>969.0</ele><time>2026-05-02T13:08:44.122Z</time></trkpt><trkpt lat="42.0985529" lon="13.4326408"><ele>967.5</ele><time>2026-05-02T13:08:45.123Z</time></trkpt><trkpt lat="42.0986451" lon="13.4327246"><ele>966.0</ele><time>2026-05-02T13:08:46.123Z</time></trkpt><trkpt lat="42.0987449" lon="13.4328024"><ele>964.5</ele><time>2026-05-02T13:08:47.123Z</time></trkpt><trkpt lat="42.0988493" lon="13.4328632"><ele>963.0</ele><time>2026-05-02T13:08:48.122Z</time></trkpt><trkpt lat="42.0989664" lon="13.4329148"><ele>963.0</ele><time>2026-05-02T13:08:49.123Z</time></trkpt><trkpt lat="42.0990713" lon="13.4329446"><ele>963.0</ele><time>2026-05-02T13:08:50.122Z</time></trkpt><trkpt lat="42.099168" lon="13.4329607"><ele>963.0</ele><time>2026-05-02T13:08:51.123Z</time></trkpt><trkpt lat="42.0992452" lon="13.4329874"><ele>963.0</ele><time>2026-05-02T13:08:52.123Z</time></trkpt><trkpt lat="42.0993049" lon="13.4330298"><ele>963.0</ele><time>2026-05-02T13:08:53.123Z</time></trkpt><trkpt lat="42.0994182" lon="13.43308"><ele>964.0</ele><time>2026-05-02T13:08:55.122Z</time></trkpt><trkpt lat="42.0995159" lon="13.433033"><ele>965.0</ele><time>2026-05-02T13:08:57.123Z</time></trkpt><trkpt lat="42.0995861" lon="13.4329932"><ele>966.0</ele><time>2026-05-02T13:08:58.123Z</time></trkpt><trkpt lat="42.0996543" lon="13.4329583"><ele>967.0</ele><time>2026-05-02T13:08:59.122Z</time></trkpt><trkpt lat="42.0997265" lon="13.43292"><ele>968.0</ele><time>2026-05-02T13:09:00.122Z</time></trkpt><trkpt lat="42.099793" lon="13.4328891"><ele>969.0</ele><time>2026-05-02T13:09:01.123Z</time></trkpt><trkpt lat="42.0998552" lon="13.4328505"><ele>966.2857142857142</ele><time>2026-05-02T13:09:02.124Z</time></trkpt><trkpt lat="42.0999162" lon="13.4328039"><ele>963.5714285714286</ele><time>2026-05-02T13:09:03.122Z</time></trkpt><trkpt lat="42.0999733" lon="13.4327424"><ele>960.8571428571429</ele><time>2026-05-02T13:09:04.122Z</time></trkpt><trkpt lat="42.1000295" lon="13.4326743"><ele>958.1428571428571</ele><time>2026-05-02T13:09:05.122Z</time></trkpt><trkpt lat="42.1000833" lon="13.4326012"><ele>955.4285714285716</ele><time>2026-05-02T13:09:06.123Z</time></trkpt><trkpt lat="42.1001324" lon="13.4325199"><ele>952.7142857142858</ele><time>2026-05-02T13:09:07.122Z</time></trkpt><trkpt lat="42.1001652" lon="13.4324268"><ele>950.0</ele><time>2026-05-02T13:09:08.122Z</time></trkpt><trkpt lat="42.1001983" lon="13.4323355"><ele>950.0000000000001</ele><time>2026-05-02T13:09:09.122Z</time></trkpt><trkpt lat="42.1002381" lon="13.4322509"><ele>950.0</ele><time>2026-05-02T13:09:10.122Z</time></trkpt><trkpt lat="42.1002793" lon="13.4321759"><ele>950.0</ele><time>2026-05-02T13:09:11.123Z</time></trkpt><trkpt lat="42.1003267" lon="13.4321124"><ele>950.0</ele><time>2026-05-02T13:09:12.124Z</time></trkpt><trkpt lat="42.100383" lon="13.4320476"><ele>950.0000000000001</ele><time>2026-05-02T13:09:13.122Z</time></trkpt><trkpt lat="42.1004623" lon="13.4319716"><ele>950.0</ele><time>2026-05-02T13:09:14.122Z</time></trkpt><trkpt lat="42.1005537" lon="13.4318877"><ele>949.2</ele><time>2026-05-02T13:09:15.122Z</time></trkpt><trkpt lat="42.100624" lon="13.4318221"><ele>948.4</ele><time>2026-05-02T13:09:16.122Z</time></trkpt><trkpt lat="42.1007154" lon="13.4317453"><ele>947.5999999999999</ele><time>2026-05-02T13:09:18.122Z</time></trkpt><trkpt lat="42.1006544" lon="13.4317769"><ele>946.8</ele><time>2026-05-02T13:09:30.122Z</time></trkpt><trkpt lat="42.1005433" lon="13.4318819"><ele>946.0</ele><time>2026-05-02T13:09:32.123Z</time></trkpt><trkpt lat="42.1004852" lon="13.4319457"><ele>945.9999999999999</ele><time>2026-05-02T13:09:33.122Z</time></trkpt><trkpt lat="42.1004384" lon="13.4320036"><ele>946.0</ele><time>2026-05-02T13:09:34.122Z</time></trkpt><trkpt lat="42.1003649" lon="13.4320637"><ele>946.0</ele><time>2026-05-02T13:09:36.122Z</time></trkpt><trkpt lat="42.1002835" lon="13.4320548"><ele>946.0</ele><time>2026-05-02T13:09:39.122Z</time></trkpt><trkpt lat="42.1002125" lon="13.4320188"><ele>945.9999999999999</ele><time>2026-05-02T13:09:42.122Z</time></trkpt><trkpt lat="42.1001552" lon="13.4319385"><ele>946.0</ele><time>2026-05-02T13:09:44.123Z</time></trkpt><trkpt lat="42.1000999" lon="13.4318734"><ele>945.9999999999999</ele><time>2026-05-02T13:09:46.123Z</time></trkpt><trkpt lat="42.1000362" lon="13.4318539"><ele>946.0</ele><time>2026-05-02T13:09:59.123Z</time></trkpt><trkpt lat="42.0999388" lon="13.4318137"><ele>946.0</ele><time>2026-05-02T13:10:01.123Z</time></trkpt><trkpt lat="42.0998299" lon="13.4317558"><ele>946.0</ele><time>2026-05-02T13:10:03.123Z</time></trkpt><trkpt lat="42.0997756" lon="13.4316799"><ele>945.9999999999999</ele><time>2026-05-02T13:10:05.123Z</time></trkpt><trkpt lat="42.0997432" lon="13.4315853"><ele>946.0</ele><time>2026-05-02T13:10:07.122Z</time></trkpt><trkpt lat="42.0997529" lon="13.4314599"><ele>946.5999999999999</ele><time>2026-05-02T13:10:09.123Z</time></trkpt><trkpt lat="42.0998005" lon="13.4313279"><ele>947.1999999999999</ele><time>2026-05-02T13:10:11.122Z</time></trkpt><trkpt lat="42.0998013" lon="13.4312053"><ele>947.8000000000001</ele><time>2026-05-02T13:10:13.124Z</time></trkpt><trkpt lat="42.0997303" lon="13.4310786"><ele>948.4000000000001</ele><time>2026-05-02T13:10:15.122Z</time></trkpt><trkpt lat="42.0996847" lon="13.431003"><ele>949.0</ele><time>2026-05-02T13:10:16.123Z</time></trkpt><trkpt lat="42.0996332" lon="13.4309194"><ele>948.9999999999999</ele><time>2026-05-02T13:10:17.123Z</time></trkpt><trkpt lat="42.0995804" lon="13.43083"><ele>949.0</ele><time>2026-05-02T13:10:18.123Z</time></trkpt><trkpt lat="42.0995276" lon="13.4307345"><ele>949.0</ele><time>2026-05-02T13:10:19.122Z</time></trkpt><trkpt lat="42.0994802" lon="13.4306379"><ele>949.0</ele><time>2026-05-02T13:10:20.122Z</time></trkpt><trkpt lat="42.0994382" lon="13.4305306"><ele>948.9999999999999</ele><time>2026-05-02T13:10:21.123Z</time></trkpt><trkpt lat="42.0993978" lon="13.4304141"><ele>949.0</ele><time>2026-05-02T13:10:22.122Z</time></trkpt><trkpt lat="42.0993548" lon="13.4302924"><ele>947.857142857143</ele><time>2026-05-02T13:10:23.123Z</time></trkpt><trkpt lat="42.0993093" lon="13.4301869"><ele>946.7142857142858</ele><time>2026-05-02T13:10:24.123Z</time></trkpt><trkpt lat="42.0992748" lon="13.4301013"><ele>945.5714285714286</ele><time>2026-05-02T13:10:25.122Z</time></trkpt><trkpt lat="42.0992454" lon="13.4300254"><ele>944.4285714285714</ele><time>2026-05-02T13:10:26.122Z</time></trkpt><trkpt lat="42.0992027" lon="13.429957"><ele>943.2857142857142</ele><time>2026-05-02T13:10:27.123Z</time></trkpt><trkpt lat="42.0991489" lon="13.4299129"><ele>942.142857142857</ele><time>2026-05-02T13:10:28.123Z</time></trkpt><trkpt lat="42.0990763" lon="13.4298603"><ele>940.9999999999999</ele><time>2026-05-02T13:10:29.123Z</time></trkpt><trkpt lat="42.0990104" lon="13.4298149"><ele>941.0000000000001</ele><time>2026-05-02T13:10:30.122Z</time></trkpt><trkpt lat="42.098945" lon="13.4297645"><ele>941.0</ele><time>2026-05-02T13:10:31.122Z</time></trkpt><trkpt lat="42.0988859" lon="13.4297035"><ele>941.0</ele><time>2026-05-02T13:10:32.122Z</time></trkpt><trkpt lat="42.0988316" lon="13.4296397"><ele>941.0</ele><time>2026-05-02T13:10:33.123Z</time></trkpt><trkpt lat="42.098783" lon="13.4295758"><ele>941.0000000000001</ele><time>2026-05-02T13:10:34.123Z</time></trkpt><trkpt lat="42.09874" lon="13.4295113"><ele>941.0</ele><time>2026-05-02T13:10:35.122Z</time></trkpt><trkpt lat="42.0986958" lon="13.4293724"><ele>942.8</ele><time>2026-05-02T13:10:37.123Z</time></trkpt><trkpt lat="42.0986617" lon="13.4291973"><ele>944.5999999999999</ele><time>2026-05-02T13:10:39.123Z</time></trkpt><trkpt lat="42.0986305" lon="13.4290846"><ele>946.4</ele><time>2026-05-02T13:10:40.123Z</time></trkpt><trkpt lat="42.0985903" lon="13.4289615"><ele>948.2</ele><time>2026-05-02T13:10:41.123Z</time></trkpt><trkpt lat="42.0985503" lon="13.4288305"><ele>950.0</ele><time>2026-05-02T13:10:42.123Z</time></trkpt><trkpt lat="42.0985181" lon="13.4286947"><ele>951.25</ele><time>2026-05-02T13:10:43.122Z</time></trkpt><trkpt lat="42.0984921" lon="13.4285534"><ele>952.5</ele><time>2026-05-02T13:10:44.122Z</time></trkpt><trkpt lat="42.0984546" lon="13.4284024"><ele>953.75</ele><time>2026-05-02T13:10:45.122Z</time></trkpt><trkpt lat="42.0984163" lon="13.4282444"><ele>955.0</ele><time>2026-05-02T13:10:46.122Z</time></trkpt><trkpt lat="42.0983753" lon="13.4280801"><ele>955.25</ele><time>2026-05-02T13:10:47.122Z</time></trkpt><trkpt lat="42.0983366" lon="13.4279156"><ele>955.5</ele><time>2026-05-02T13:10:48.122Z</time></trkpt><trkpt lat="42.0982968" lon="13.4277647"><ele>955.75</ele><time>2026-05-02T13:10:49.122Z</time></trkpt><trkpt lat="42.0982579" lon="13.4276208"><ele>956.0</ele><time>2026-05-02T13:10:50.123Z</time></trkpt><trkpt lat="42.0982194" lon="13.4274719"><ele>950.75</ele><time>2026-05-02T13:10:51.124Z</time></trkpt><trkpt lat="42.0981814" lon="13.4273277"><ele>945.5</ele><time>2026-05-02T13:10:52.123Z</time></trkpt><trkpt lat="42.0981368" lon="13.4271932"><ele>940.25</ele><time>2026-05-02T13:10:53.124Z</time></trkpt><trkpt lat="42.0980977" lon="13.4270474"><ele>935.0</ele><time>2026-05-02T13:10:54.123Z</time></trkpt><trkpt lat="42.098062" lon="13.4268894"><ele>935.0</ele><time>2026-05-02T13:10:55.122Z</time></trkpt><trkpt lat="42.0980233" lon="13.4267181"><ele>935.0</ele><time>2026-05-02T13:10:56.122Z</time></trkpt><trkpt lat="42.0979875" lon="13.4265371"><ele>935.0</ele><time>2026-05-02T13:10:57.123Z</time></trkpt><trkpt lat="42.0979585" lon="13.4263461"><ele>935.0</ele><time>2026-05-02T13:10:58.122Z</time></trkpt><trkpt lat="42.0979247" lon="13.4261482"><ele>935.3333333333334</ele><time>2026-05-02T13:10:59.122Z</time></trkpt><trkpt lat="42.0978913" lon="13.4259422"><ele>935.6666666666667</ele><time>2026-05-02T13:11:00.122Z</time></trkpt><trkpt lat="42.0978602" lon="13.4257429"><ele>936.0</ele><time>2026-05-02T13:11:01.123Z</time></trkpt><trkpt lat="42.0978304" lon="13.4255525"><ele>936.0</ele><time>2026-05-02T13:11:02.123Z</time></trkpt><trkpt lat="42.0977988" lon="13.4253663"><ele>936.0</ele><time>2026-05-02T13:11:03.122Z</time></trkpt><trkpt lat="42.0977552" lon="13.4251694"><ele>936.0</ele><time>2026-05-02T13:11:04.123Z</time></trkpt><trkpt lat="42.0977051" lon="13.4249693"><ele>936.0</ele><time>2026-05-02T13:11:05.122Z</time></trkpt><trkpt lat="42.0976569" lon="13.4247734"><ele>936.0</ele><time>2026-05-02T13:11:06.123Z</time></trkpt><trkpt lat="42.0976036" lon="13.4245876"><ele>936.0</ele><time>2026-05-02T13:11:07.124Z</time></trkpt><trkpt lat="42.0975422" lon="13.4244027"><ele>936.5</ele><time>2026-05-02T13:11:08.123Z</time></trkpt><trkpt lat="42.0974733" lon="13.4242154"><ele>937.0</ele><time>2026-05-02T13:11:09.124Z</time></trkpt><trkpt lat="42.0974042" lon="13.4240406"><ele>937.5</ele><time>2026-05-02T13:11:10.123Z</time></trkpt><trkpt lat="42.0973474" lon="13.4238699"><ele>938.0</ele><time>2026-05-02T13:11:11.122Z</time></trkpt><trkpt lat="42.0973028" lon="13.4236971"><ele>935.0</ele><time>2026-05-02T13:11:12.123Z</time></trkpt><trkpt lat="42.0972644" lon="13.4235338"><ele>932.0</ele><time>2026-05-02T13:11:13.122Z</time></trkpt><trkpt lat="42.0972229" lon="13.4233744"><ele>929.0</ele><time>2026-05-02T13:11:14.123Z</time></trkpt><trkpt lat="42.0971939" lon="13.4232165"><ele>926.0</ele><time>2026-05-02T13:11:15.122Z</time></trkpt><trkpt lat="42.097181" lon="13.4230429"><ele>926.0000000000001</ele><time>2026-05-02T13:11:16.122Z</time></trkpt><trkpt lat="42.0971702" lon="13.422891"><ele>926.0</ele><time>2026-05-02T13:11:17.122Z</time></trkpt><trkpt lat="42.09716" lon="13.4227715"><ele>926.0</ele><time>2026-05-02T13:11:18.122Z</time></trkpt><trkpt lat="42.0971567" lon="13.4226804"><ele>926.0</ele><time>2026-05-02T13:11:19.122Z</time></trkpt><trkpt lat="42.0971856" lon="13.4225845"><ele>926.0000000000001</ele><time>2026-05-02T13:11:21.122Z</time></trkpt><trkpt lat="42.0972597" lon="13.4225824"><ele>926.0</ele><time>2026-05-02T13:11:24.122Z</time></trkpt><trkpt lat="42.097348" lon="13.4226246"><ele>928.1666666666667</ele><time>2026-05-02T13:11:27.122Z</time></trkpt><trkpt lat="42.0974586" lon="13.4226763"><ele>930.3333333333334</ele><time>2026-05-02T13:11:29.123Z</time></trkpt><trkpt lat="42.0975245" lon="13.4226979"><ele>932.5</ele><time>2026-05-02T13:11:30.123Z</time></trkpt><trkpt lat="42.0975967" lon="13.4227192"><ele>934.6666666666667</ele><time>2026-05-02T13:11:31.123Z</time></trkpt><trkpt lat="42.0976614" lon="13.4227296"><ele>936.8333333333334</ele><time>2026-05-02T13:11:32.122Z</time></trkpt><trkpt lat="42.0977791" lon="13.4227317"><ele>939.0</ele><time>2026-05-02T13:11:34.122Z</time></trkpt><trkpt lat="42.0979062" lon="13.4227341"><ele>939.0</ele><time>2026-05-02T13:11:36.122Z</time></trkpt><trkpt lat="42.0980177" lon="13.4227379"><ele>939.0</ele><time>2026-05-02T13:11:38.123Z</time></trkpt><trkpt lat="42.0981403" lon="13.422758"><ele>939.0</ele><time>2026-05-02T13:11:40.123Z</time></trkpt><trkpt lat="42.0982508" lon="13.4227557"><ele>939.0</ele><time>2026-05-02T13:11:42.122Z</time></trkpt><trkpt lat="42.0983589" lon="13.4227487"><ele>939.4000000000001</ele><time>2026-05-02T13:11:44.123Z</time></trkpt><trkpt lat="42.0984673" lon="13.4227163"><ele>939.8000000000001</ele><time>2026-05-02T13:11:46.123Z</time></trkpt><trkpt lat="42.0985308" lon="13.4227046"><ele>940.1999999999999</ele><time>2026-05-02T13:11:47.123Z</time></trkpt><trkpt lat="42.0986001" lon="13.4226939"><ele>940.5999999999999</ele><time>2026-05-02T13:11:48.123Z</time></trkpt><trkpt lat="42.098723" lon="13.4226855"><ele>941.0</ele><time>2026-05-02T13:11:50.123Z</time></trkpt><trkpt lat="42.0988299" lon="13.4226794"><ele>941.0</ele><time>2026-05-02T13:11:52.124Z</time></trkpt><trkpt lat="42.0989242" lon="13.4226868"><ele>940.9999999999999</ele><time>2026-05-02T13:11:54.122Z</time></trkpt><trkpt lat="42.0990251" lon="13.4226983"><ele>940.9999999999999</ele><time>2026-05-02T13:11:56.122Z</time></trkpt><trkpt lat="42.0990907" lon="13.4226965"><ele>941.0</ele><time>2026-05-02T13:11:57.122Z</time></trkpt><trkpt lat="42.0992054" lon="13.4226604"><ele>941.0</ele><time>2026-05-02T13:11:59.124Z</time></trkpt><trkpt lat="42.0993041" lon="13.4225695"><ele>941.0000000000001</ele><time>2026-05-02T13:12:01.123Z</time></trkpt><trkpt lat="42.0993434" lon="13.4224978"><ele>941.0</ele><time>2026-05-02T13:12:02.123Z</time></trkpt><trkpt lat="42.0993807" lon="13.4223438"><ele>941.0</ele><time>2026-05-02T13:12:04.123Z</time></trkpt><trkpt lat="42.0993796" lon="13.4222432"><ele>941.0</ele><time>2026-05-02T13:12:05.124Z</time></trkpt><trkpt lat="42.0993764" lon="13.4221354"><ele>941.0000000000001</ele><time>2026-05-02T13:12:06.123Z</time></trkpt><trkpt lat="42.0993773" lon="13.422021"><ele>941.0</ele><time>2026-05-02T13:12:07.123Z</time></trkpt><trkpt lat="42.09938" lon="13.4219066"><ele>941.0000000000001</ele><time>2026-05-02T13:12:08.123Z</time></trkpt><trkpt lat="42.0993852" lon="13.4217965"><ele>941.0</ele><time>2026-05-02T13:12:09.123Z</time></trkpt><trkpt lat="42.0993913" lon="13.4216909"><ele>941.0</ele><time>2026-05-02T13:12:10.123Z</time></trkpt><trkpt lat="42.099398" lon="13.4215778"><ele>941.0</ele><time>2026-05-02T13:12:11.123Z</time></trkpt><trkpt lat="42.0994037" lon="13.4214623"><ele>941.0000000000001</ele><time>2026-05-02T13:12:12.122Z</time></trkpt><trkpt lat="42.099405" lon="13.4213497"><ele>941.0</ele><time>2026-05-02T13:12:13.123Z</time></trkpt><trkpt lat="42.099412" lon="13.421244"><ele>940.142857142857</ele><time>2026-05-02T13:12:14.123Z</time></trkpt><trkpt lat="42.099413" lon="13.421139"><ele>939.2857142857142</ele><time>2026-05-02T13:12:15.123Z</time></trkpt><trkpt lat="42.0994166" lon="13.4210389"><ele>938.4285714285714</ele><time>2026-05-02T13:12:16.123Z</time></trkpt><trkpt lat="42.0994129" lon="13.4209404"><ele>937.5714285714286</ele><time>2026-05-02T13:12:17.122Z</time></trkpt><trkpt lat="42.0994081" lon="13.4208472"><ele>936.7142857142858</ele><time>2026-05-02T13:12:18.123Z</time></trkpt><trkpt lat="42.0994058" lon="13.4207494"><ele>935.857142857143</ele><time>2026-05-02T13:12:19.122Z</time></trkpt><trkpt lat="42.0994052" lon="13.4206456"><ele>935.0000000000001</ele><time>2026-05-02T13:12:20.123Z</time></trkpt><trkpt lat="42.0994053" lon="13.4205359"><ele>933.8333333333334</ele><time>2026-05-02T13:12:21.123Z</time></trkpt><trkpt lat="42.099405" lon="13.4204199"><ele>932.6666666666667</ele><time>2026-05-02T13:12:22.122Z</time></trkpt><trkpt lat="42.0994074" lon="13.4203154"><ele>931.5</ele><time>2026-05-02T13:12:23.122Z</time></trkpt><trkpt lat="42.0994133" lon="13.4202115"><ele>930.3333333333333</ele><time>2026-05-02T13:12:24.123Z</time></trkpt><trkpt lat="42.0994196" lon="13.4201097"><ele>929.1666666666666</ele><time>2026-05-02T13:12:25.122Z</time></trkpt><trkpt lat="42.0994212" lon="13.4200036"><ele>928.0</ele><time>2026-05-02T13:12:26.122Z</time></trkpt><trkpt lat="42.0994296" lon="13.4199012"><ele>928.0000000000001</ele><time>2026-05-02T13:12:27.123Z</time></trkpt><trkpt lat="42.0994439" lon="13.4198041"><ele>928.0</ele><time>2026-05-02T13:12:28.122Z</time></trkpt><trkpt lat="42.0994735" lon="13.4197208"><ele>928.0000000000001</ele><time>2026-05-02T13:12:29.123Z</time></trkpt><trkpt lat="42.099504" lon="13.4196451"><ele>928.0000000000001</ele><time>2026-05-02T13:12:30.123Z</time></trkpt><trkpt lat="42.0995152" lon="13.4195558"><ele>928.0</ele><time>2026-05-02T13:12:31.123Z</time></trkpt><trkpt lat="42.0995184" lon="13.4194564"><ele>928.0000000000001</ele><time>2026-05-02T13:12:32.122Z</time></trkpt><trkpt lat="42.0995241" lon="13.4193444"><ele>928.0000000000001</ele><time>2026-05-02T13:12:33.122Z</time></trkpt><trkpt lat="42.0995338" lon="13.4192122"><ele>927.75</ele><time>2026-05-02T13:12:34.122Z</time></trkpt><trkpt lat="42.0995412" lon="13.4190699"><ele>927.5</ele><time>2026-05-02T13:12:35.122Z</time></trkpt><trkpt lat="42.0995541" lon="13.4189133"><ele>927.25</ele><time>2026-05-02T13:12:36.122Z</time></trkpt><trkpt lat="42.0995651" lon="13.418744"><ele>927.0</ele><time>2026-05-02T13:12:37.122Z</time></trkpt><trkpt lat="42.0995817" lon="13.4185733"><ele>925.75</ele><time>2026-05-02T13:12:38.122Z</time></trkpt><trkpt lat="42.0996033" lon="13.41841"><ele>924.5</ele><time>2026-05-02T13:12:39.122Z</time></trkpt><trkpt lat="42.0996319" lon="13.4182531"><ele>923.25</ele><time>2026-05-02T13:12:40.122Z</time></trkpt><trkpt lat="42.0996604" lon="13.4180843"><ele>922.0</ele><time>2026-05-02T13:12:41.122Z</time></trkpt><trkpt lat="42.0996862" lon="13.4179112"><ele>921.0</ele><time>2026-05-02T13:12:42.122Z</time></trkpt><trkpt lat="42.0997186" lon="13.4177345"><ele>920.0</ele><time>2026-05-02T13:12:43.122Z</time></trkpt><trkpt lat="42.0997528" lon="13.4175543"><ele>919.0</ele><time>2026-05-02T13:12:44.124Z</time></trkpt><trkpt lat="42.0997789" lon="13.4173783"><ele>918.0</ele><time>2026-05-02T13:12:45.124Z</time></trkpt><trkpt lat="42.099808" lon="13.4172037"><ele>916.5</ele><time>2026-05-02T13:12:46.122Z</time></trkpt><trkpt lat="42.0998373" lon="13.4170353"><ele>915.0</ele><time>2026-05-02T13:12:47.122Z</time></trkpt><trkpt lat="42.0998598" lon="13.416873"><ele>913.5</ele><time>2026-05-02T13:12:48.122Z</time></trkpt><trkpt lat="42.0998751" lon="13.4167109"><ele>912.0</ele><time>2026-05-02T13:12:49.122Z</time></trkpt><trkpt lat="42.099891" lon="13.4165536"><ele>912.0</ele><time>2026-05-02T13:12:50.123Z</time></trkpt><trkpt lat="42.0999026" lon="13.4163987"><ele>912.0</ele><time>2026-05-02T13:12:51.121Z</time></trkpt><trkpt lat="42.0999176" lon="13.4162418"><ele>912.0</ele><time>2026-05-02T13:12:52.122Z</time></trkpt><trkpt lat="42.0999405" lon="13.4160842"><ele>912.0</ele><time>2026-05-02T13:12:53.122Z</time></trkpt><trkpt lat="42.0999599" lon="13.4159281"><ele>911.25</ele><time>2026-05-02T13:12:54.121Z</time></trkpt><trkpt lat="42.0999797" lon="13.4157618"><ele>910.5</ele><time>2026-05-02T13:12:55.122Z</time></trkpt><trkpt lat="42.1000002" lon="13.4156011"><ele>909.75</ele><time>2026-05-02T13:12:56.121Z</time></trkpt><trkpt lat="42.1000219" lon="13.4154498"><ele>909.0</ele><time>2026-05-02T13:12:57.123Z</time></trkpt><trkpt lat="42.1000446" lon="13.4153012"><ele>908.0</ele><time>2026-05-02T13:12:58.121Z</time></trkpt><trkpt lat="42.1000651" lon="13.415152"><ele>907.0</ele><time>2026-05-02T13:12:59.122Z</time></trkpt><trkpt lat="42.1000865" lon="13.4149977"><ele>906.0</ele><time>2026-05-02T13:13:00.122Z</time></trkpt><trkpt lat="42.1001048" lon="13.4148341"><ele>905.0</ele><time>2026-05-02T13:13:01.121Z</time></trkpt><trkpt lat="42.1001264" lon="13.4146761"><ele>903.5</ele><time>2026-05-02T13:13:02.122Z</time></trkpt><trkpt lat="42.1001461" lon="13.4145237"><ele>902.0</ele><time>2026-05-02T13:13:03.121Z</time></trkpt><trkpt lat="42.1001712" lon="13.4143709"><ele>900.5</ele><time>2026-05-02T13:13:04.121Z</time></trkpt><trkpt lat="42.1002057" lon="13.4142194"><ele>899.0</ele><time>2026-05-02T13:13:05.121Z</time></trkpt><trkpt lat="42.1002498" lon="13.4140397"><ele>899.0</ele><time>2026-05-02T13:13:06.122Z</time></trkpt><trkpt lat="42.100294" lon="13.413856"><ele>899.0</ele><time>2026-05-02T13:13:07.123Z</time></trkpt><trkpt lat="42.1003316" lon="13.4136744"><ele>899.0</ele><time>2026-05-02T13:13:08.121Z</time></trkpt><trkpt lat="42.1003622" lon="13.4134956"><ele>899.0</ele><time>2026-05-02T13:13:09.122Z</time></trkpt><trkpt lat="42.1004025" lon="13.4133293"><ele>898.8000000000001</ele><time>2026-05-02T13:13:10.121Z</time></trkpt><trkpt lat="42.1004428" lon="13.4131675"><ele>898.6000000000001</ele><time>2026-05-02T13:13:11.121Z</time></trkpt><trkpt lat="42.1004771" lon="13.413032"><ele>898.4</ele><time>2026-05-02T13:13:12.123Z</time></trkpt><trkpt lat="42.1005178" lon="13.4129066"><ele>898.2</ele><time>2026-05-02T13:13:13.122Z</time></trkpt><trkpt lat="42.1005541" lon="13.4127955"><ele>898.0</ele><time>2026-05-02T13:13:14.121Z</time></trkpt><trkpt lat="42.1005701" lon="13.4126582"><ele>897.2</ele><time>2026-05-02T13:13:15.121Z</time></trkpt><trkpt lat="42.1005832" lon="13.4125156"><ele>896.4</ele><time>2026-05-02T13:13:16.122Z</time></trkpt><trkpt lat="42.100586" lon="13.4123851"><ele>895.6000000000001</ele><time>2026-05-02T13:13:17.122Z</time></trkpt><trkpt lat="42.100614" lon="13.4122694"><ele>894.8000000000001</ele><time>2026-05-02T13:13:18.121Z</time></trkpt><trkpt lat="42.1006566" lon="13.4121318"><ele>894.0</ele><time>2026-05-02T13:13:19.121Z</time></trkpt><trkpt lat="42.1006989" lon="13.4119861"><ele>892.8000000000001</ele><time>2026-05-02T13:13:20.121Z</time></trkpt><trkpt lat="42.1007389" lon="13.411826"><ele>891.6000000000001</ele><time>2026-05-02T13:13:21.121Z</time></trkpt><trkpt lat="42.1007769" lon="13.4116875"><ele>890.4</ele><time>2026-05-02T13:13:22.121Z</time></trkpt><trkpt lat="42.1008158" lon="13.4115816"><ele>889.2</ele><time>2026-05-02T13:13:23.121Z</time></trkpt><trkpt lat="42.100874" lon="13.4114659"><ele>888.0</ele><time>2026-05-02T13:13:24.121Z</time></trkpt><trkpt lat="42.1009374" lon="13.4113456"><ele>886.25</ele><time>2026-05-02T13:13:25.122Z</time></trkpt><trkpt lat="42.1010059" lon="13.4112007"><ele>884.5</ele><time>2026-05-02T13:13:26.123Z</time></trkpt><trkpt lat="42.101079" lon="13.4110358"><ele>882.75</ele><time>2026-05-02T13:13:27.121Z</time></trkpt><trkpt lat="42.1011497" lon="13.410857"><ele>881.0</ele><time>2026-05-02T13:13:28.122Z</time></trkpt><trkpt lat="42.1012061" lon="13.4106816"><ele>881.0</ele><time>2026-05-02T13:13:29.122Z</time></trkpt><trkpt lat="42.1012609" lon="13.4105045"><ele>881.0</ele><time>2026-05-02T13:13:30.121Z</time></trkpt><trkpt lat="42.1013259" lon="13.410335"><ele>881.0</ele><time>2026-05-02T13:13:31.122Z</time></trkpt><trkpt lat="42.1013902" lon="13.4101658"><ele>881.0</ele><time>2026-05-02T13:13:32.121Z</time></trkpt><trkpt lat="42.1014554" lon="13.4099953"><ele>880.75</ele><time>2026-05-02T13:13:33.121Z</time></trkpt><trkpt lat="42.10152" lon="13.4098322"><ele>880.5</ele><time>2026-05-02T13:13:34.121Z</time></trkpt><trkpt lat="42.1015952" lon="13.4096671"><ele>880.25</ele><time>2026-05-02T13:13:35.122Z</time></trkpt><trkpt lat="42.1016719" lon="13.4094959"><ele>880.0</ele><time>2026-05-02T13:13:36.121Z</time></trkpt><trkpt lat="42.1017419" lon="13.4093286"><ele>877.5</ele><time>2026-05-02T13:13:37.121Z</time></trkpt><trkpt lat="42.1018135" lon="13.4091665"><ele>875.0</ele><time>2026-05-02T13:13:38.121Z</time></trkpt><trkpt lat="42.101894" lon="13.4090062"><ele>872.5</ele><time>2026-05-02T13:13:39.122Z</time></trkpt><trkpt lat="42.1019835" lon="13.4088554"><ele>870.0</ele><time>2026-05-02T13:13:40.121Z</time></trkpt><trkpt lat="42.1020704" lon="13.408709"><ele>869.25</ele><time>2026-05-02T13:13:41.121Z</time></trkpt><trkpt lat="42.1021518" lon="13.4085638"><ele>868.5</ele><time>2026-05-02T13:13:42.121Z</time></trkpt><trkpt lat="42.1022288" lon="13.4084253"><ele>867.75</ele><time>2026-05-02T13:13:43.122Z</time></trkpt><trkpt lat="42.1022957" lon="13.4082792"><ele>867.0</ele><time>2026-05-02T13:13:44.121Z</time></trkpt><trkpt lat="42.1023528" lon="13.408122"><ele>866.75</ele><time>2026-05-02T13:13:45.121Z</time></trkpt><trkpt lat="42.1024036" lon="13.4079595"><ele>866.5</ele><time>2026-05-02T13:13:46.122Z</time></trkpt><trkpt lat="42.1024513" lon="13.4077966"><ele>866.25</ele><time>2026-05-02T13:13:47.122Z</time></trkpt><trkpt lat="42.1024963" lon="13.4076432"><ele>866.0</ele><time>2026-05-02T13:13:48.121Z</time></trkpt><trkpt lat="42.1025218" lon="13.4074884"><ele>865.5</ele><time>2026-05-02T13:13:49.121Z</time></trkpt><trkpt lat="42.1025286" lon="13.4073365"><ele>865.0</ele><time>2026-05-02T13:13:50.122Z</time></trkpt><trkpt lat="42.102517" lon="13.4071848"><ele>864.5</ele><time>2026-05-02T13:13:51.122Z</time></trkpt><trkpt lat="42.1024964" lon="13.4070278"><ele>864.0</ele><time>2026-05-02T13:13:52.122Z</time></trkpt><trkpt lat="42.1024908" lon="13.4068629"><ele>862.5</ele><time>2026-05-02T13:13:53.122Z</time></trkpt><trkpt lat="42.102491" lon="13.406688"><ele>861.0</ele><time>2026-05-02T13:13:54.122Z</time></trkpt><trkpt lat="42.1025054" lon="13.4065096"><ele>859.5</ele><time>2026-05-02T13:13:55.121Z</time></trkpt><trkpt lat="42.1025348" lon="13.4063246"><ele>858.0</ele><time>2026-05-02T13:13:56.121Z</time></trkpt><trkpt lat="42.1025633" lon="13.4061374"><ele>857.0</ele><time>2026-05-02T13:13:57.122Z</time></trkpt><trkpt lat="42.1025794" lon="13.4059555"><ele>856.0</ele><time>2026-05-02T13:13:58.121Z</time></trkpt><trkpt lat="42.1025917" lon="13.4057705"><ele>855.0</ele><time>2026-05-02T13:13:59.122Z</time></trkpt><trkpt lat="42.1026229" lon="13.4055979"><ele>854.0</ele><time>2026-05-02T13:14:00.123Z</time></trkpt><trkpt lat="42.102673" lon="13.4054104"><ele>853.0</ele><time>2026-05-02T13:14:01.123Z</time></trkpt><trkpt lat="42.1027429" lon="13.4052075"><ele>852.0</ele><time>2026-05-02T13:14:02.122Z</time></trkpt><trkpt lat="42.102823" lon="13.4049968"><ele>851.0</ele><time>2026-05-02T13:14:03.122Z</time></trkpt><trkpt lat="42.1028957" lon="13.4047904"><ele>850.25</ele><time>2026-05-02T13:14:04.121Z</time></trkpt><trkpt lat="42.1029551" lon="13.4045983"><ele>849.5</ele><time>2026-05-02T13:14:05.122Z</time></trkpt><trkpt lat="42.1030098" lon="13.4044151"><ele>848.75</ele><time>2026-05-02T13:14:06.121Z</time></trkpt><trkpt lat="42.1030698" lon="13.4042373"><ele>848.0</ele><time>2026-05-02T13:14:07.122Z</time></trkpt><trkpt lat="42.1031383" lon="13.4040572"><ele>848.0</ele><time>2026-05-02T13:14:08.122Z</time></trkpt><trkpt lat="42.1032133" lon="13.4038829"><ele>848.0</ele><time>2026-05-02T13:14:09.123Z</time></trkpt><trkpt lat="42.1032898" lon="13.4037207"><ele>848.0</ele><time>2026-05-02T13:14:10.121Z</time></trkpt><trkpt lat="42.1033687" lon="13.4035516"><ele>848.0</ele><time>2026-05-02T13:14:11.121Z</time></trkpt><trkpt lat="42.1034529" lon="13.4033732"><ele>847.0</ele><time>2026-05-02T13:14:12.122Z</time></trkpt><trkpt lat="42.103536" lon="13.4031914"><ele>846.0</ele><time>2026-05-02T13:14:13.122Z</time></trkpt><trkpt lat="42.1036117" lon="13.4030232"><ele>845.0</ele><time>2026-05-02T13:14:14.122Z</time></trkpt><trkpt lat="42.1036901" lon="13.4028708"><ele>844.0</ele><time>2026-05-02T13:14:15.121Z</time></trkpt><trkpt lat="42.1037639" lon="13.4027245"><ele>843.75</ele><time>2026-05-02T13:14:16.121Z</time></trkpt><trkpt lat="42.1038384" lon="13.4025879"><ele>843.5</ele><time>2026-05-02T13:14:17.122Z</time></trkpt><trkpt lat="42.1039192" lon="13.4024641"><ele>843.25</ele><time>2026-05-02T13:14:18.122Z</time></trkpt><trkpt lat="42.1040225" lon="13.4023222"><ele>843.0</ele><time>2026-05-02T13:14:19.122Z</time></trkpt><trkpt lat="42.104127" lon="13.402177"><ele>841.6666666666667</ele><time>2026-05-02T13:14:20.121Z</time></trkpt><trkpt lat="42.1042373" lon="13.4020088"><ele>840.3333333333334</ele><time>2026-05-02T13:14:21.121Z</time></trkpt><trkpt lat="42.1043274" lon="13.4018252"><ele>839.0</ele><time>2026-05-02T13:14:22.122Z</time></trkpt><trkpt lat="42.1044348" lon="13.4016288"><ele>839.0</ele><time>2026-05-02T13:14:23.121Z</time></trkpt><trkpt lat="42.1045372" lon="13.4014507"><ele>839.0</ele><time>2026-05-02T13:14:24.122Z</time></trkpt><trkpt lat="42.1046357" lon="13.4012827"><ele>839.0</ele><time>2026-05-02T13:14:25.122Z</time></trkpt><trkpt lat="42.1047331" lon="13.4011092"><ele>838.6666666666667</ele><time>2026-05-02T13:14:26.121Z</time></trkpt><trkpt lat="42.1048346" lon="13.4009239"><ele>838.3333333333333</ele><time>2026-05-02T13:14:27.122Z</time></trkpt><trkpt lat="42.1049343" lon="13.4007375"><ele>838.0</ele><time>2026-05-02T13:14:28.121Z</time></trkpt><trkpt lat="42.1050314" lon="13.4005701"><ele>837.0</ele><time>2026-05-02T13:14:29.122Z</time></trkpt><trkpt lat="42.1051138" lon="13.4004183"><ele>836.0</ele><time>2026-05-02T13:14:30.121Z</time></trkpt><trkpt lat="42.1051978" lon="13.4002645"><ele>835.0</ele><time>2026-05-02T13:14:31.122Z</time></trkpt><trkpt lat="42.1052859" lon="13.4001135"><ele>834.0</ele><time>2026-05-02T13:14:32.121Z</time></trkpt><trkpt lat="42.1053529" lon="13.3999598"><ele>834.0</ele><time>2026-05-02T13:14:33.121Z</time></trkpt><trkpt lat="42.1054263" lon="13.3997957"><ele>834.0</ele><time>2026-05-02T13:14:34.121Z</time></trkpt><trkpt lat="42.1054948" lon="13.399645"><ele>834.0</ele><time>2026-05-02T13:14:35.122Z</time></trkpt><trkpt lat="42.1055536" lon="13.3995037"><ele>834.0</ele><time>2026-05-02T13:14:36.122Z</time></trkpt><trkpt lat="42.1055955" lon="13.3993757"><ele>833.8000000000001</ele><time>2026-05-02T13:14:37.122Z</time></trkpt><trkpt lat="42.1056162" lon="13.3992339"><ele>833.6</ele><time>2026-05-02T13:14:38.122Z</time></trkpt><trkpt lat="42.1056264" lon="13.3990728"><ele>833.4</ele><time>2026-05-02T13:14:39.122Z</time></trkpt><trkpt lat="42.1056345" lon="13.3989463"><ele>833.2</ele><time>2026-05-02T13:14:40.121Z</time></trkpt><trkpt lat="42.105645" lon="13.398854"><ele>833.0</ele><time>2026-05-02T13:14:41.123Z</time></trkpt><trkpt lat="42.1056658" lon="13.3987713"><ele>833.0</ele><time>2026-05-02T13:14:42.122Z</time></trkpt><trkpt lat="42.1057038" lon="13.3986721"><ele>833.0</ele><time>2026-05-02T13:14:43.122Z</time></trkpt><trkpt lat="42.1057571" lon="13.3985771"><ele>833.0</ele><time>2026-05-02T13:14:44.121Z</time></trkpt><trkpt lat="42.1058303" lon="13.3984966"><ele>833.0</ele><time>2026-05-02T13:14:45.122Z</time></trkpt><trkpt lat="42.1059281" lon="13.3984141"><ele>833.0</ele><time>2026-05-02T13:14:46.121Z</time></trkpt><trkpt lat="42.1060403" lon="13.398331"><ele>833.0</ele><time>2026-05-02T13:14:47.123Z</time></trkpt><trkpt lat="42.10617" lon="13.398234"><ele>833.0</ele><time>2026-05-02T13:14:48.123Z</time></trkpt><trkpt lat="42.1063034" lon="13.3981388"><ele>833.0</ele><time>2026-05-02T13:14:49.121Z</time></trkpt><trkpt lat="42.1064315" lon="13.3980509"><ele>833.0</ele><time>2026-05-02T13:14:50.122Z</time></trkpt><trkpt lat="42.1065465" lon="13.3979623"><ele>833.8</ele><time>2026-05-02T13:14:51.122Z</time></trkpt><trkpt lat="42.10665" lon="13.3978555"><ele>834.5999999999999</ele><time>2026-05-02T13:14:52.121Z</time></trkpt><trkpt lat="42.1067297" lon="13.3977491"><ele>835.4000000000001</ele><time>2026-05-02T13:14:53.122Z</time></trkpt><trkpt lat="42.1067944" lon="13.3976586"><ele>836.2</ele><time>2026-05-02T13:14:54.123Z</time></trkpt><trkpt lat="42.1068492" lon="13.3975755"><ele>837.0</ele><time>2026-05-02T13:14:55.123Z</time></trkpt><trkpt lat="42.1069073" lon="13.397479"><ele>837.0</ele><time>2026-05-02T13:14:56.122Z</time></trkpt><trkpt lat="42.1069717" lon="13.3973649"><ele>837.0</ele><time>2026-05-02T13:14:57.121Z</time></trkpt><trkpt lat="42.1070382" lon="13.3972424"><ele>837.0</ele><time>2026-05-02T13:14:58.122Z</time></trkpt><trkpt lat="42.1070965" lon="13.3971362"><ele>837.0</ele><time>2026-05-02T13:14:59.123Z</time></trkpt><trkpt lat="42.1071438" lon="13.3970314"><ele>837.0</ele><time>2026-05-02T13:15:00.121Z</time></trkpt><trkpt lat="42.1071749" lon="13.3969371"><ele>837.4000000000001</ele><time>2026-05-02T13:15:01.121Z</time></trkpt><trkpt lat="42.1071838" lon="13.3968374"><ele>837.8000000000001</ele><time>2026-05-02T13:15:02.122Z</time></trkpt><trkpt lat="42.1071887" lon="13.3967423"><ele>838.2</ele><time>2026-05-02T13:15:03.121Z</time></trkpt><trkpt lat="42.1071171" lon="13.3966168"><ele>838.6</ele><time>2026-05-02T13:15:04.121Z</time></trkpt><trkpt lat="42.1070615" lon="13.3964799"><ele>839.0</ele><time>2026-05-02T13:15:05.121Z</time></trkpt><trkpt lat="42.1069957" lon="13.3963358"><ele>839.8000000000001</ele><time>2026-05-02T13:15:06.121Z</time></trkpt><trkpt lat="42.1069392" lon="13.3962061"><ele>840.6</ele><time>2026-05-02T13:15:07.121Z</time></trkpt><trkpt lat="42.1068816" lon="13.3960804"><ele>841.4</ele><time>2026-05-02T13:15:08.121Z</time></trkpt><trkpt lat="42.106818" lon="13.3959508"><ele>842.2</ele><time>2026-05-02T13:15:09.122Z</time></trkpt><trkpt lat="42.106757" lon="13.3958251"><ele>843.0</ele><time>2026-05-02T13:15:10.122Z</time></trkpt><trkpt lat="42.1066954" lon="13.3956894"><ele>843.0</ele><time>2026-05-02T13:15:11.122Z</time></trkpt><trkpt lat="42.1066338" lon="13.3955482"><ele>843.0</ele><time>2026-05-02T13:15:12.122Z</time></trkpt><trkpt lat="42.1065641" lon="13.3953992"><ele>843.0</ele><time>2026-05-02T13:15:13.122Z</time></trkpt><trkpt lat="42.1064956" lon="13.3952426"><ele>843.0</ele><time>2026-05-02T13:15:14.122Z</time></trkpt><trkpt lat="42.1064257" lon="13.3950865"><ele>843.0</ele><time>2026-05-02T13:15:15.122Z</time></trkpt><trkpt lat="42.1063595" lon="13.3949459"><ele>843.0</ele><time>2026-05-02T13:15:16.121Z</time></trkpt><trkpt lat="42.1062957" lon="13.3948124"><ele>843.0</ele><time>2026-05-02T13:15:17.121Z</time></trkpt><trkpt lat="42.1062367" lon="13.3946896"><ele>843.0</ele><time>2026-05-02T13:15:18.122Z</time></trkpt><trkpt lat="42.1061885" lon="13.3945799"><ele>843.0</ele><time>2026-05-02T13:15:19.121Z</time></trkpt><trkpt lat="42.1061501" lon="13.3944861"><ele>843.0</ele><time>2026-05-02T13:15:20.121Z</time></trkpt><trkpt lat="42.1060953" lon="13.3943606"><ele>843.0</ele><time>2026-05-02T13:15:22.122Z</time></trkpt><trkpt lat="42.1060571" lon="13.394287"><ele>843.0</ele><time>2026-05-02T13:15:24.122Z</time></trkpt><trkpt lat="42.1059714" lon="13.3942024"><ele>843.0</ele><time>2026-05-02T13:15:26.122Z</time></trkpt><trkpt lat="42.1058933" lon="13.3941623"><ele>843.0</ele><time>2026-05-02T13:15:27.121Z</time></trkpt><trkpt lat="42.1058098" lon="13.3941289"><ele>841.2</ele><time>2026-05-02T13:15:28.122Z</time></trkpt><trkpt lat="42.1057419" lon="13.3941029"><ele>839.4</ele><time>2026-05-02T13:15:29.122Z</time></trkpt><trkpt lat="42.1056399" lon="13.3940476"><ele>837.6</ele><time>2026-05-02T13:15:31.121Z</time></trkpt><trkpt lat="42.1055392" lon="13.3939979"><ele>835.8000000000001</ele><time>2026-05-02T13:15:33.121Z</time></trkpt><trkpt lat="42.1054593" lon="13.3939849"><ele>834.0</ele><time>2026-05-02T13:15:34.121Z</time></trkpt><trkpt lat="42.105363" lon="13.3940063"><ele>834.0</ele><time>2026-05-02T13:15:35.121Z</time></trkpt><trkpt lat="42.1052569" lon="13.3940663"><ele>834.0</ele><time>2026-05-02T13:15:36.121Z</time></trkpt><trkpt lat="42.1051553" lon="13.3941586"><ele>834.0</ele><time>2026-05-02T13:15:37.122Z</time></trkpt><trkpt lat="42.105061" lon="13.3942705"><ele>834.0</ele><time>2026-05-02T13:15:38.122Z</time></trkpt><trkpt lat="42.104973" lon="13.3943849"><ele>832.0</ele><time>2026-05-02T13:15:39.121Z</time></trkpt><trkpt lat="42.1048804" lon="13.3945024"><ele>830.0</ele><time>2026-05-02T13:15:40.122Z</time></trkpt><trkpt lat="42.1047807" lon="13.3946195"><ele>828.0</ele><time>2026-05-02T13:15:41.122Z</time></trkpt><trkpt lat="42.104679" lon="13.3947267"><ele>826.0</ele><time>2026-05-02T13:15:42.121Z</time></trkpt><trkpt lat="42.1045666" lon="13.3948081"><ele>826.0</ele><time>2026-05-02T13:15:43.121Z</time></trkpt><trkpt lat="42.1044413" lon="13.3948676"><ele>826.0</ele><time>2026-05-02T13:15:44.122Z</time></trkpt><trkpt lat="42.1042996" lon="13.3949125"><ele>826.0</ele><time>2026-05-02T13:15:45.122Z</time></trkpt><trkpt lat="42.1041521" lon="13.3949533"><ele>826.0</ele><time>2026-05-02T13:15:46.121Z</time></trkpt><trkpt lat="42.1040116" lon="13.394992"><ele>825.25</ele><time>2026-05-02T13:15:47.121Z</time></trkpt><trkpt lat="42.1038811" lon="13.3950321"><ele>824.5</ele><time>2026-05-02T13:15:48.121Z</time></trkpt><trkpt lat="42.1037583" lon="13.3950656"><ele>823.75</ele><time>2026-05-02T13:15:49.122Z</time></trkpt><trkpt lat="42.1036381" lon="13.395096"><ele>823.0</ele><time>2026-05-02T13:15:50.121Z</time></trkpt><trkpt lat="42.1035115" lon="13.3951254"><ele>823.0</ele><time>2026-05-02T13:15:51.121Z</time></trkpt><trkpt lat="42.10338" lon="13.3951258"><ele>823.0</ele><time>2026-05-02T13:15:52.121Z</time></trkpt><trkpt lat="42.103253" lon="13.3951023"><ele>823.0</ele><time>2026-05-02T13:15:53.122Z</time></trkpt><trkpt lat="42.103122" lon="13.3950509"><ele>823.0</ele><time>2026-05-02T13:15:54.122Z</time></trkpt><trkpt lat="42.1029967" lon="13.3949816"><ele>822.25</ele><time>2026-05-02T13:15:55.121Z</time></trkpt><trkpt lat="42.1028799" lon="13.3948996"><ele>821.5</ele><time>2026-05-02T13:15:56.122Z</time></trkpt><trkpt lat="42.1027553" lon="13.394797"><ele>820.75</ele><time>2026-05-02T13:15:57.121Z</time></trkpt><trkpt lat="42.1026253" lon="13.3946687"><ele>820.0</ele><time>2026-05-02T13:15:58.121Z</time></trkpt><trkpt lat="42.102486" lon="13.3945235"><ele>819.3333333333333</ele><time>2026-05-02T13:15:59.122Z</time></trkpt><trkpt lat="42.1023356" lon="13.3943705"><ele>818.6666666666667</ele><time>2026-05-02T13:16:00.123Z</time></trkpt><trkpt lat="42.1021878" lon="13.3942079"><ele>818.0</ele><time>2026-05-02T13:16:01.121Z</time></trkpt><trkpt lat="42.1020382" lon="13.3940487"><ele>818.0</ele><time>2026-05-02T13:16:02.122Z</time></trkpt><trkpt lat="42.1018949" lon="13.3938971"><ele>818.0</ele><time>2026-05-02T13:16:03.121Z</time></trkpt><trkpt lat="42.1017555" lon="13.3937539"><ele>818.0</ele><time>2026-05-02T13:16:04.121Z</time></trkpt><trkpt lat="42.1016188" lon="13.3936054"><ele>817.6666666666667</ele><time>2026-05-02T13:16:05.123Z</time></trkpt><trkpt lat="42.1014812" lon="13.393461"><ele>817.3333333333333</ele><time>2026-05-02T13:16:06.123Z</time></trkpt><trkpt lat="42.101341" lon="13.3933148"><ele>817.0</ele><time>2026-05-02T13:16:07.121Z</time></trkpt><trkpt lat="42.1012031" lon="13.3931735"><ele>817.0</ele><time>2026-05-02T13:16:08.123Z</time></trkpt><trkpt lat="42.1010682" lon="13.3930299"><ele>817.0</ele><time>2026-05-02T13:16:09.121Z</time></trkpt><trkpt lat="42.1009306" lon="13.3928818"><ele>817.0</ele><time>2026-05-02T13:16:10.122Z</time></trkpt><trkpt lat="42.1007903" lon="13.3927357"><ele>816.0</ele><time>2026-05-02T13:16:11.121Z</time></trkpt><trkpt lat="42.1006474" lon="13.3925868"><ele>815.0</ele><time>2026-05-02T13:16:12.121Z</time></trkpt><trkpt lat="42.1004983" lon="13.3924383"><ele>814.0</ele><time>2026-05-02T13:16:13.123Z</time></trkpt><trkpt lat="42.1003562" lon="13.3922859"><ele>813.6666666666666</ele><time>2026-05-02T13:16:14.122Z</time></trkpt><trkpt lat="42.1002141" lon="13.3921333"><ele>813.3333333333333</ele><time>2026-05-02T13:16:15.121Z</time></trkpt><trkpt lat="42.1000715" lon="13.3919828"><ele>813.0</ele><time>2026-05-02T13:16:16.121Z</time></trkpt><trkpt lat="42.0999252" lon="13.3918312"><ele>813.3333333333333</ele><time>2026-05-02T13:16:17.121Z</time></trkpt><trkpt lat="42.0997765" lon="13.3916725"><ele>813.6666666666666</ele><time>2026-05-02T13:16:18.122Z</time></trkpt><trkpt lat="42.0996237" lon="13.3915184"><ele>814.0</ele><time>2026-05-02T13:16:19.122Z</time></trkpt><trkpt lat="42.0994707" lon="13.391361"><ele>813.0</ele><time>2026-05-02T13:16:20.122Z</time></trkpt><trkpt lat="42.099319" lon="13.3911986"><ele>812.0</ele><time>2026-05-02T13:16:21.122Z</time></trkpt><trkpt lat="42.0991701" lon="13.3910372"><ele>811.0</ele><time>2026-05-02T13:16:22.123Z</time></trkpt><trkpt lat="42.0990249" lon="13.3908851"><ele>811.0</ele><time>2026-05-02T13:16:23.121Z</time></trkpt><trkpt lat="42.0988873" lon="13.3907409"><ele>811.0</ele><time>2026-05-02T13:16:24.121Z</time></trkpt><trkpt lat="42.0987433" lon="13.3905974"><ele>811.0</ele><time>2026-05-02T13:16:25.121Z</time></trkpt><trkpt lat="42.098595" lon="13.3904487"><ele>810.3333333333333</ele><time>2026-05-02T13:16:26.121Z</time></trkpt><trkpt lat="42.0984444" lon="13.3902908"><ele>809.6666666666667</ele><time>2026-05-02T13:16:27.121Z</time></trkpt><trkpt lat="42.0982878" lon="13.3901281"><ele>809.0</ele><time>2026-05-02T13:16:28.121Z</time></trkpt><trkpt lat="42.0981309" lon="13.3899642"><ele>809.0</ele><time>2026-05-02T13:16:29.122Z</time></trkpt><trkpt lat="42.0979819" lon="13.3898072"><ele>809.0</ele><time>2026-05-02T13:16:30.121Z</time></trkpt><trkpt lat="42.0978363" lon="13.3896592"><ele>809.0</ele><time>2026-05-02T13:16:31.122Z</time></trkpt><trkpt lat="42.0976999" lon="13.3895141"><ele>807.6666666666667</ele><time>2026-05-02T13:16:32.122Z</time></trkpt><trkpt lat="42.0975742" lon="13.3893826"><ele>806.3333333333333</ele><time>2026-05-02T13:16:33.121Z</time></trkpt><trkpt lat="42.0974587" lon="13.3892587"><ele>805.0</ele><time>2026-05-02T13:16:34.121Z</time></trkpt><trkpt lat="42.0973488" lon="13.3891324"><ele>804.8</ele><time>2026-05-02T13:16:35.122Z</time></trkpt><trkpt lat="42.0972559" lon="13.3890075"><ele>804.6</ele><time>2026-05-02T13:16:36.121Z</time></trkpt><trkpt lat="42.0971791" lon="13.3888814"><ele>804.4000000000001</ele><time>2026-05-02T13:16:37.122Z</time></trkpt><trkpt lat="42.0971231" lon="13.3887606"><ele>804.2</ele><time>2026-05-02T13:16:38.121Z</time></trkpt><trkpt lat="42.0970847" lon="13.3886616"><ele>804.0</ele><time>2026-05-02T13:16:39.121Z</time></trkpt><trkpt lat="42.0970622" lon="13.3885822"><ele>803.8000000000001</ele><time>2026-05-02T13:16:40.122Z</time></trkpt><trkpt lat="42.0970661" lon="13.388486"><ele>803.6</ele><time>2026-05-02T13:16:42.121Z</time></trkpt><trkpt lat="42.0971168" lon="13.3884356"><ele>803.4</ele><time>2026-05-02T13:16:44.122Z</time></trkpt><trkpt lat="42.0972411" lon="13.3884014"><ele>803.2</ele><time>2026-05-02T13:16:46.121Z</time></trkpt><trkpt lat="42.0973401" lon="13.3884007"><ele>803.0</ele><time>2026-05-02T13:16:47.121Z</time></trkpt><trkpt lat="42.0974521" lon="13.3884009"><ele>802.5</ele><time>2026-05-02T13:16:48.121Z</time></trkpt><trkpt lat="42.0975726" lon="13.3884064"><ele>802.0</ele><time>2026-05-02T13:16:49.121Z</time></trkpt><trkpt lat="42.0976851" lon="13.3884158"><ele>801.5</ele><time>2026-05-02T13:16:50.122Z</time></trkpt><trkpt lat="42.0977973" lon="13.3884315"><ele>801.0</ele><time>2026-05-02T13:16:51.123Z</time></trkpt><trkpt lat="42.0979014" lon="13.3884468"><ele>801.0</ele><time>2026-05-02T13:16:52.121Z</time></trkpt><trkpt lat="42.0980008" lon="13.3884392"><ele>801.0</ele><time>2026-05-02T13:16:53.122Z</time></trkpt><trkpt lat="42.098107" lon="13.3884107"><ele>801.0</ele><time>2026-05-02T13:16:54.121Z</time></trkpt><trkpt lat="42.098207" lon="13.3883796"><ele>801.0</ele><time>2026-05-02T13:16:55.121Z</time></trkpt><trkpt lat="42.0983162" lon="13.3883681"><ele>801.0</ele><time>2026-05-02T13:16:56.122Z</time></trkpt><trkpt lat="42.098424" lon="13.3883769"><ele>801.25</ele><time>2026-05-02T13:16:57.121Z</time></trkpt><trkpt lat="42.0985293" lon="13.3883984"><ele>801.5</ele><time>2026-05-02T13:16:58.122Z</time></trkpt><trkpt lat="42.0986296" lon="13.3884429"><ele>801.75</ele><time>2026-05-02T13:16:59.122Z</time></trkpt><trkpt lat="42.0987368" lon="13.388515"><ele>802.0</ele><time>2026-05-02T13:17:00.121Z</time></trkpt><trkpt lat="42.0988525" lon="13.3886018"><ele>802.0</ele><time>2026-05-02T13:17:01.122Z</time></trkpt><trkpt lat="42.0989748" lon="13.3886832"><ele>802.0</ele><time>2026-05-02T13:17:02.121Z</time></trkpt><trkpt lat="42.0991032" lon="13.3887502"><ele>802.0</ele><time>2026-05-02T13:17:03.122Z</time></trkpt><trkpt lat="42.0992251" lon="13.3888143"><ele>802.0</ele><time>2026-05-02T13:17:04.123Z</time></trkpt><trkpt lat="42.0993413" lon="13.3888801"><ele>803.2</ele><time>2026-05-02T13:17:05.121Z</time></trkpt><trkpt lat="42.0994548" lon="13.3889335"><ele>804.4000000000001</ele><time>2026-05-02T13:17:06.122Z</time></trkpt><trkpt lat="42.0995608" lon="13.3889735"><ele>805.5999999999999</ele><time>2026-05-02T13:17:07.122Z</time></trkpt><trkpt lat="42.0996578" lon="13.388995"><ele>806.8</ele><time>2026-05-02T13:17:08.122Z</time></trkpt><trkpt lat="42.0997574" lon="13.3889893"><ele>808.0</ele><time>2026-05-02T13:17:09.121Z</time></trkpt><trkpt lat="42.0998653" lon="13.3889769"><ele>807.5999999999999</ele><time>2026-05-02T13:17:10.122Z</time></trkpt><trkpt lat="42.0999738" lon="13.3889652"><ele>807.1999999999999</ele><time>2026-05-02T13:17:11.123Z</time></trkpt><trkpt lat="42.1000664" lon="13.3889488"><ele>806.8</ele><time>2026-05-02T13:17:12.122Z</time></trkpt><trkpt lat="42.1001511" lon="13.3889177"><ele>806.4</ele><time>2026-05-02T13:17:13.121Z</time></trkpt><trkpt lat="42.1002121" lon="13.3888791"><ele>806.0</ele><time>2026-05-02T13:17:14.121Z</time></trkpt><trkpt lat="42.1002931" lon="13.3888113"><ele>806.0</ele><time>2026-05-02T13:17:16.121Z</time></trkpt><trkpt lat="42.1003584" lon="13.3888115"><ele>806.0</ele><time>2026-05-02T13:17:18.122Z</time></trkpt><trkpt lat="42.100434" lon="13.3888681"><ele>806.0</ele><time>2026-05-02T13:17:20.121Z</time></trkpt><trkpt lat="42.1005485" lon="13.3889305"><ele>806.0</ele><time>2026-05-02T13:17:22.121Z</time></trkpt><trkpt lat="42.1006137" lon="13.3889709"><ele>806.0</ele><time>2026-05-02T13:17:23.122Z</time></trkpt><trkpt lat="42.1007228" lon="13.3890296"><ele>806.1666666666667</ele><time>2026-05-02T13:17:25.121Z</time></trkpt><trkpt lat="42.1007835" lon="13.3890733"><ele>806.3333333333334</ele><time>2026-05-02T13:17:26.121Z</time></trkpt><trkpt lat="42.1008647" lon="13.3891284"><ele>806.5</ele><time>2026-05-02T13:17:27.121Z</time></trkpt><trkpt lat="42.1009402" lon="13.3891766"><ele>806.6666666666667</ele><time>2026-05-02T13:17:28.121Z</time></trkpt><trkpt lat="42.1010126" lon="13.3892312"><ele>806.8333333333334</ele><time>2026-05-02T13:17:29.122Z</time></trkpt><trkpt lat="42.101104" lon="13.3892433"><ele>807.0</ele><time>2026-05-02T13:17:30.121Z</time></trkpt><trkpt lat="42.1011858" lon="13.3892812"><ele>807.0</ele><time>2026-05-02T13:17:31.121Z</time></trkpt><trkpt lat="42.1012844" lon="13.3893163"><ele>807.0</ele><time>2026-05-02T13:17:32.122Z</time></trkpt><trkpt lat="42.1013769" lon="13.3893583"><ele>807.0</ele><time>2026-05-02T13:17:33.122Z</time></trkpt><trkpt lat="42.1014756" lon="13.3893976"><ele>807.0</ele><time>2026-05-02T13:17:34.122Z</time></trkpt><trkpt lat="42.1015746" lon="13.389442"><ele>807.0</ele><time>2026-05-02T13:17:35.122Z</time></trkpt><trkpt lat="42.1016572" lon="13.3894763"><ele>807.8333333333334</ele><time>2026-05-02T13:17:36.122Z</time></trkpt><trkpt lat="42.1017401" lon="13.3894956"><ele>808.6666666666667</ele><time>2026-05-02T13:17:37.122Z</time></trkpt><trkpt lat="42.1018189" lon="13.3895027"><ele>809.5</ele><time>2026-05-02T13:17:38.122Z</time></trkpt><trkpt lat="42.101894" lon="13.3895143"><ele>810.3333333333334</ele><time>2026-05-02T13:17:39.121Z</time></trkpt><trkpt lat="42.1019847" lon="13.3895343"><ele>811.1666666666667</ele><time>2026-05-02T13:17:40.121Z</time></trkpt><trkpt lat="42.1020773" lon="13.3895531"><ele>812.0</ele><time>2026-05-02T13:17:41.123Z</time></trkpt><trkpt lat="42.1021735" lon="13.3895907"><ele>812.0</ele><time>2026-05-02T13:17:42.121Z</time></trkpt><trkpt lat="42.1022876" lon="13.3896197"><ele>812.0</ele><time>2026-05-02T13:17:43.121Z</time></trkpt><trkpt lat="42.1024174" lon="13.3896487"><ele>812.0</ele><time>2026-05-02T13:17:44.121Z</time></trkpt><trkpt lat="42.1025429" lon="13.3896736"><ele>812.0</ele><time>2026-05-02T13:17:45.122Z</time></trkpt><trkpt lat="42.1026547" lon="13.3896819"><ele>812.75</ele><time>2026-05-02T13:17:46.121Z</time></trkpt><trkpt lat="42.1027684" lon="13.3896764"><ele>813.5</ele><time>2026-05-02T13:17:47.122Z</time></trkpt><trkpt lat="42.1028802" lon="13.3896575"><ele>814.25</ele><time>2026-05-02T13:17:48.122Z</time></trkpt><trkpt lat="42.1029917" lon="13.3896439"><ele>815.0</ele><time>2026-05-02T13:17:49.121Z</time></trkpt><trkpt lat="42.103116" lon="13.3896164"><ele>816.0</ele><time>2026-05-02T13:17:50.122Z</time></trkpt><trkpt lat="42.10324" lon="13.3896066"><ele>817.0</ele><time>2026-05-02T13:17:51.122Z</time></trkpt><trkpt lat="42.103359" lon="13.3895855"><ele>818.0</ele><time>2026-05-02T13:17:52.122Z</time></trkpt><trkpt lat="42.1034747" lon="13.3895777"><ele>819.0</ele><time>2026-05-02T13:17:53.121Z</time></trkpt><trkpt lat="42.1035603" lon="13.3895381"><ele>821.0</ele><time>2026-05-02T13:17:54.121Z</time></trkpt><trkpt lat="42.1036513" lon="13.3894842"><ele>823.0</ele><time>2026-05-02T13:17:56.122Z</time></trkpt><trkpt lat="42.1036262" lon="13.3893642"><ele>825.0</ele><time>2026-05-02T13:17:59.121Z</time></trkpt><trkpt lat="42.1035835" lon="13.3892951"><ele>827.0</ele><time>2026-05-02T13:18:00.122Z</time></trkpt><trkpt lat="42.1035242" lon="13.3891879"><ele>829.0</ele><time>2026-05-02T13:18:01.123Z</time></trkpt><trkpt lat="42.1034713" lon="13.3890548"><ele>829.0</ele><time>2026-05-02T13:18:02.122Z</time></trkpt><trkpt lat="42.1034127" lon="13.3888967"><ele>829.0</ele><time>2026-05-02T13:18:03.121Z</time></trkpt><trkpt lat="42.1033484" lon="13.3887215"><ele>829.0</ele><time>2026-05-02T13:18:04.121Z</time></trkpt><trkpt lat="42.1032877" lon="13.3885632"><ele>829.0</ele><time>2026-05-02T13:18:05.121Z</time></trkpt><trkpt lat="42.1032247" lon="13.3884273"><ele>828.2</ele><time>2026-05-02T13:18:06.121Z</time></trkpt><trkpt lat="42.1031773" lon="13.3883183"><ele>827.4000000000001</ele><time>2026-05-02T13:18:07.121Z</time></trkpt><trkpt lat="42.103148" lon="13.3882376"><ele>826.6</ele><time>2026-05-02T13:18:08.121Z</time></trkpt><trkpt lat="42.1031532" lon="13.3881044"><ele>825.8</ele><time>2026-05-02T13:18:10.122Z</time></trkpt><trkpt lat="42.1032081" lon="13.3879489"><ele>825.0</ele><time>2026-05-02T13:18:12.121Z</time></trkpt><trkpt lat="42.1031881" lon="13.3877786"><ele>825.0</ele><time>2026-05-02T13:18:14.122Z</time></trkpt><trkpt lat="42.1031492" lon="13.3876646"><ele>825.0</ele><time>2026-05-02T13:18:15.122Z</time></trkpt><trkpt lat="42.1031083" lon="13.3875673"><ele>825.0</ele><time>2026-05-02T13:18:16.121Z</time></trkpt><trkpt lat="42.1030701" lon="13.3874569"><ele>825.0</ele><time>2026-05-02T13:18:17.121Z</time></trkpt><trkpt lat="42.103033" lon="13.387352"><ele>825.0</ele><time>2026-05-02T13:18:18.121Z</time></trkpt><trkpt lat="42.1029976" lon="13.38726"><ele>825.0</ele><time>2026-05-02T13:18:19.122Z</time></trkpt><trkpt lat="42.1029618" lon="13.38716"><ele>825.0</ele><time>2026-05-02T13:18:20.122Z</time></trkpt><trkpt lat="42.1029421" lon="13.387076"><ele>825.0</ele><time>2026-05-02T13:18:21.122Z</time></trkpt><trkpt lat="42.1029643" lon="13.3869552"><ele>825.0</ele><time>2026-05-02T13:18:23.121Z</time></trkpt><trkpt lat="42.1029902" lon="13.3868775"><ele>825.0</ele><time>2026-05-02T13:18:24.122Z</time></trkpt><trkpt lat="42.1029877" lon="13.386787"><ele>825.0</ele><time>2026-05-02T13:18:25.122Z</time></trkpt><trkpt lat="42.1029665" lon="13.3866919"><ele>825.0</ele><time>2026-05-02T13:18:26.122Z</time></trkpt><trkpt lat="42.1029247" lon="13.3865736"><ele>825.0</ele><time>2026-05-02T13:18:27.121Z</time></trkpt><trkpt lat="42.1028393" lon="13.3864288"><ele>825.0</ele><time>2026-05-02T13:18:28.121Z</time></trkpt><trkpt lat="42.102769" lon="13.3862699"><ele>825.0</ele><time>2026-05-02T13:18:29.122Z</time></trkpt><trkpt lat="42.1026915" lon="13.3861035"><ele>825.0</ele><time>2026-05-02T13:18:30.122Z</time></trkpt><trkpt lat="42.1026147" lon="13.3859569"><ele>825.2</ele><time>2026-05-02T13:18:31.122Z</time></trkpt><trkpt lat="42.1025382" lon="13.3858164"><ele>825.4</ele><time>2026-05-02T13:18:32.121Z</time></trkpt><trkpt lat="42.1024644" lon="13.3856845"><ele>825.5999999999999</ele><time>2026-05-02T13:18:33.121Z</time></trkpt><trkpt lat="42.1024033" lon="13.3855831"><ele>825.8</ele><time>2026-05-02T13:18:34.121Z</time></trkpt><trkpt lat="42.1023626" lon="13.3855161"><ele>826.0</ele><time>2026-05-02T13:18:35.122Z</time></trkpt><trkpt lat="42.1023083" lon="13.385425"><ele>826.3333333333333</ele><time>2026-05-02T13:18:37.121Z</time></trkpt><trkpt lat="42.1023012" lon="13.3853242"><ele>826.6666666666666</ele><time>2026-05-02T13:18:39.122Z</time></trkpt><trkpt lat="42.1023439" lon="13.3851975"><ele>827.0</ele><time>2026-05-02T13:18:41.122Z</time></trkpt><trkpt lat="42.1023931" lon="13.3851175"><ele>827.3333333333333</ele><time>2026-05-02T13:18:42.121Z</time></trkpt><trkpt lat="42.1024471" lon="13.3850546"><ele>827.6666666666666</ele><time>2026-05-02T13:18:43.121Z</time></trkpt><trkpt lat="42.1025148" lon="13.3849632"><ele>828.0</ele><time>2026-05-02T13:18:44.121Z</time></trkpt><trkpt lat="42.1025942" lon="13.384858"><ele>828.0</ele><time>2026-05-02T13:18:45.121Z</time></trkpt><trkpt lat="42.1026698" lon="13.3847783"><ele>828.0</ele><time>2026-05-02T13:18:46.122Z</time></trkpt><trkpt lat="42.1027438" lon="13.3847196"><ele>828.0</ele><time>2026-05-02T13:18:47.121Z</time></trkpt><trkpt lat="42.1028275" lon="13.3846653"><ele>828.0</ele><time>2026-05-02T13:18:48.122Z</time></trkpt><trkpt lat="42.1028919" lon="13.3845996"><ele>828.0</ele><time>2026-05-02T13:18:49.121Z</time></trkpt><trkpt lat="42.1029692" lon="13.3845052"><ele>828.25</ele><time>2026-05-02T13:18:50.122Z</time></trkpt><trkpt lat="42.1030589" lon="13.3843864"><ele>828.5</ele><time>2026-05-02T13:18:51.121Z</time></trkpt><trkpt lat="42.1031559" lon="13.3842458"><ele>828.75</ele><time>2026-05-02T13:18:52.122Z</time></trkpt><trkpt lat="42.1032425" lon="13.3841128"><ele>829.0</ele><time>2026-05-02T13:18:53.121Z</time></trkpt><trkpt lat="42.1033199" lon="13.3839772"><ele>830.2</ele><time>2026-05-02T13:18:54.122Z</time></trkpt><trkpt lat="42.103386" lon="13.383847"><ele>831.4000000000001</ele><time>2026-05-02T13:18:55.121Z</time></trkpt><trkpt lat="42.1034414" lon="13.3837532"><ele>832.6</ele><time>2026-05-02T13:18:56.123Z</time></trkpt><trkpt lat="42.1035001" lon="13.3836904"><ele>833.8</ele><time>2026-05-02T13:18:57.121Z</time></trkpt><trkpt lat="42.1035759" lon="13.38361"><ele>835.0</ele><time>2026-05-02T13:18:58.123Z</time></trkpt><trkpt lat="42.1036645" lon="13.3835275"><ele>835.0</ele><time>2026-05-02T13:18:59.123Z</time></trkpt><trkpt lat="42.1037684" lon="13.3834318"><ele>835.0</ele><time>2026-05-02T13:19:00.122Z</time></trkpt><trkpt lat="42.1038573" lon="13.383338"><ele>835.0</ele><time>2026-05-02T13:19:01.121Z</time></trkpt><trkpt lat="42.1039375" lon="13.3832578"><ele>835.0</ele><time>2026-05-02T13:19:02.121Z</time></trkpt><trkpt lat="42.1040191" lon="13.3832"><ele>835.0</ele><time>2026-05-02T13:19:03.121Z</time></trkpt><trkpt lat="42.1041186" lon="13.3831444"><ele>837.25</ele><time>2026-05-02T13:19:04.121Z</time></trkpt><trkpt lat="42.1042415" lon="13.3830836"><ele>839.5</ele><time>2026-05-02T13:19:05.121Z</time></trkpt><trkpt lat="42.1043799" lon="13.3830044"><ele>841.75</ele><time>2026-05-02T13:19:06.121Z</time></trkpt><trkpt lat="42.1045301" lon="13.3829262"><ele>844.0</ele><time>2026-05-02T13:19:07.121Z</time></trkpt><trkpt lat="42.1046631" lon="13.3828695"><ele>844.0</ele><time>2026-05-02T13:19:08.121Z</time></trkpt><trkpt lat="42.1047751" lon="13.3828118"><ele>844.0</ele><time>2026-05-02T13:19:09.121Z</time></trkpt><trkpt lat="42.1048729" lon="13.3827647"><ele>844.0</ele><time>2026-05-02T13:19:10.121Z</time></trkpt><trkpt lat="42.1049576" lon="13.3827433"><ele>844.0</ele><time>2026-05-02T13:19:11.121Z</time></trkpt><trkpt lat="42.105053" lon="13.3827425"><ele>844.0</ele><time>2026-05-02T13:19:12.122Z</time></trkpt><trkpt lat="42.1051774" lon="13.3827543"><ele>845.5</ele><time>2026-05-02T13:19:13.121Z</time></trkpt><trkpt lat="42.10531" lon="13.3827785"><ele>847.0</ele><time>2026-05-02T13:19:14.121Z</time></trkpt><trkpt lat="42.1054341" lon="13.3827865"><ele>848.5</ele><time>2026-05-02T13:19:15.122Z</time></trkpt><trkpt lat="42.1055549" lon="13.3827863"><ele>850.0</ele><time>2026-05-02T13:19:16.121Z</time></trkpt><trkpt lat="42.1056771" lon="13.3828065"><ele>851.75</ele><time>2026-05-02T13:19:17.121Z</time></trkpt><trkpt lat="42.1058051" lon="13.382822"><ele>853.5</ele><time>2026-05-02T13:19:18.122Z</time></trkpt><trkpt lat="42.1059387" lon="13.3828259"><ele>855.25</ele><time>2026-05-02T13:19:19.121Z</time></trkpt><trkpt lat="42.1060722" lon="13.3828281"><ele>857.0</ele><time>2026-05-02T13:19:20.121Z</time></trkpt><trkpt lat="42.1061963" lon="13.3828239"><ele>857.0000000000001</ele><time>2026-05-02T13:19:21.122Z</time></trkpt><trkpt lat="42.1063014" lon="13.382824"><ele>857.0</ele><time>2026-05-02T13:19:22.121Z</time></trkpt><trkpt lat="42.1063952" lon="13.3828336"><ele>857.0</ele><time>2026-05-02T13:19:23.121Z</time></trkpt><trkpt lat="42.1064705" lon="13.3828541"><ele>857.0</ele><time>2026-05-02T13:19:24.121Z</time></trkpt><trkpt lat="42.106539" lon="13.3828946"><ele>857.0000000000001</ele><time>2026-05-02T13:19:25.121Z</time></trkpt><trkpt lat="42.1065974" lon="13.3829684"><ele>857.0</ele><time>2026-05-02T13:19:26.122Z</time></trkpt><trkpt lat="42.1066552" lon="13.3830604"><ele>858.6</ele><time>2026-05-02T13:19:27.122Z</time></trkpt><trkpt lat="42.1067043" lon="13.3831162"><ele>860.2</ele><time>2026-05-02T13:19:28.121Z</time></trkpt><trkpt lat="42.1068191" lon="13.3831618"><ele>861.8</ele><time>2026-05-02T13:19:30.121Z</time></trkpt><trkpt lat="42.1069023" lon="13.383282"><ele>863.4</ele><time>2026-05-02T13:19:32.121Z</time></trkpt><trkpt lat="42.1069331" lon="13.3833773"><ele>865.0</ele><time>2026-05-02T13:19:33.121Z</time></trkpt><trkpt lat="42.1069922" lon="13.3834864"><ele>864.9999999999999</ele><time>2026-05-02T13:19:35.121Z</time></trkpt><trkpt lat="42.1070458" lon="13.3834366"><ele>865.0</ele><time>2026-05-02T13:19:37.122Z</time></trkpt><trkpt lat="42.1070948" lon="13.3833412"><ele>865.0</ele><time>2026-05-02T13:19:39.122Z</time></trkpt><trkpt lat="42.1071555" lon="13.3832838"><ele>865.0</ele><time>2026-05-02T13:19:40.122Z</time></trkpt><trkpt lat="42.1072335" lon="13.3832177"><ele>864.9999999999999</ele><time>2026-05-02T13:19:41.121Z</time></trkpt><trkpt lat="42.1072978" lon="13.3831548"><ele>865.0</ele><time>2026-05-02T13:19:42.121Z</time></trkpt><trkpt lat="42.1073656" lon="13.3831003"><ele>866.3333333333333</ele><time>2026-05-02T13:19:43.121Z</time></trkpt><trkpt lat="42.1074284" lon="13.383061"><ele>867.6666666666666</ele><time>2026-05-02T13:19:44.121Z</time></trkpt><trkpt lat="42.107496" lon="13.3830073"><ele>869.0</ele><time>2026-05-02T13:19:45.121Z</time></trkpt><trkpt lat="42.1075643" lon="13.3829433"><ele>870.3333333333333</ele><time>2026-05-02T13:19:46.121Z</time></trkpt><trkpt lat="42.1076253" lon="13.3829053"><ele>871.6666666666666</ele><time>2026-05-02T13:19:47.121Z</time></trkpt><trkpt lat="42.107703" lon="13.3828858"><ele>873.0</ele><time>2026-05-02T13:19:48.121Z</time></trkpt><trkpt lat="42.1077913" lon="13.3828647"><ele>873.4</ele><time>2026-05-02T13:19:49.121Z</time></trkpt><trkpt lat="42.1078965" lon="13.3828457"><ele>873.8</ele><time>2026-05-02T13:19:50.122Z</time></trkpt><trkpt lat="42.1080125" lon="13.3828126"><ele>874.2</ele><time>2026-05-02T13:19:51.121Z</time></trkpt><trkpt lat="42.1081216" lon="13.3827909"><ele>874.6</ele><time>2026-05-02T13:19:52.121Z</time></trkpt><trkpt lat="42.1082144" lon="13.3827814"><ele>875.0</ele><time>2026-05-02T13:19:53.121Z</time></trkpt><trkpt lat="42.1083207" lon="13.3827586"><ele>875.8</ele><time>2026-05-02T13:19:54.122Z</time></trkpt><trkpt lat="42.1084227" lon="13.382736"><ele>876.6</ele><time>2026-05-02T13:19:55.121Z</time></trkpt><trkpt lat="42.1085234" lon="13.3827305"><ele>877.4000000000001</ele><time>2026-05-02T13:19:56.121Z</time></trkpt><trkpt lat="42.1086091" lon="13.3827101"><ele>878.2</ele><time>2026-05-02T13:19:57.121Z</time></trkpt><trkpt lat="42.1086924" lon="13.382655"><ele>879.0</ele><time>2026-05-02T13:19:58.121Z</time></trkpt><trkpt lat="42.10879" lon="13.3826029"><ele>879.0</ele><time>2026-05-02T13:19:59.122Z</time></trkpt><trkpt lat="42.1088819" lon="13.3825637"><ele>879.0000000000001</ele><time>2026-05-02T13:20:00.121Z</time></trkpt><trkpt lat="42.1089805" lon="13.3824978"><ele>879.0000000000001</ele><time>2026-05-02T13:20:01.121Z</time></trkpt><trkpt lat="42.1090762" lon="13.3824425"><ele>879.0</ele><time>2026-05-02T13:20:02.122Z</time></trkpt><trkpt lat="42.1091887" lon="13.3823924"><ele>879.0</ele><time>2026-05-02T13:20:03.121Z</time></trkpt><trkpt lat="42.1093168" lon="13.3823358"><ele>880.2</ele><time>2026-05-02T13:20:04.121Z</time></trkpt><trkpt lat="42.1094302" lon="13.3822801"><ele>881.4000000000001</ele><time>2026-05-02T13:20:05.121Z</time></trkpt><trkpt lat="42.1095349" lon="13.3822305"><ele>882.6</ele><time>2026-05-02T13:20:06.122Z</time></trkpt><trkpt lat="42.1096176" lon="13.3821708"><ele>883.8</ele><time>2026-05-02T13:20:07.121Z</time></trkpt><trkpt lat="42.1096864" lon="13.382098"><ele>885.0</ele><time>2026-05-02T13:20:08.121Z</time></trkpt><trkpt lat="42.1097529" lon="13.3820476"><ele>885.2</ele><time>2026-05-02T13:20:09.121Z</time></trkpt><trkpt lat="42.1098766" lon="13.3820431"><ele>885.4</ele><time>2026-05-02T13:20:11.122Z</time></trkpt><trkpt lat="42.1099492" lon="13.3820676"><ele>885.5999999999999</ele><time>2026-05-02T13:20:12.122Z</time></trkpt><trkpt lat="42.1100298" lon="13.3820921"><ele>885.8</ele><time>2026-05-02T13:20:13.122Z</time></trkpt><trkpt lat="42.1101215" lon="13.3821051"><ele>886.0</ele><time>2026-05-02T13:20:14.122Z</time></trkpt><trkpt lat="42.1102103" lon="13.3820946"><ele>886.9999999999999</ele><time>2026-05-02T13:20:15.121Z</time></trkpt><trkpt lat="42.1103038" lon="13.3820697"><ele>888.0</ele><time>2026-05-02T13:20:16.122Z</time></trkpt><trkpt lat="42.1103817" lon="13.3820459"><ele>889.0</ele><time>2026-05-02T13:20:17.122Z</time></trkpt><trkpt lat="42.1104437" lon="13.382021"><ele>890.0</ele><time>2026-05-02T13:20:18.123Z</time></trkpt><trkpt lat="42.1105208" lon="13.3819792"><ele>890.9999999999999</ele><time>2026-05-02T13:20:20.121Z</time></trkpt><trkpt lat="42.1105888" lon="13.3819391"><ele>892.0</ele><time>2026-05-02T13:20:31.122Z</time></trkpt><trkpt lat="42.1106313" lon="13.3818447"><ele>892.0</ele><time>2026-05-02T13:20:33.122Z</time></trkpt><trkpt lat="42.1106386" lon="13.381754"><ele>892.0</ele><time>2026-05-02T13:20:34.121Z</time></trkpt><trkpt lat="42.1106388" lon="13.3816345"><ele>892.0</ele><time>2026-05-02T13:20:35.121Z</time></trkpt><trkpt lat="42.1106434" lon="13.3814936"><ele>892.0</ele><time>2026-05-02T13:20:36.121Z</time></trkpt><trkpt lat="42.110651" lon="13.3813322"><ele>892.0</ele><time>2026-05-02T13:20:37.121Z</time></trkpt><trkpt lat="42.1106597" lon="13.381193"><ele>892.3333333333333</ele><time>2026-05-02T13:20:38.122Z</time></trkpt><trkpt lat="42.1106748" lon="13.3810634"><ele>892.6666666666666</ele><time>2026-05-02T13:20:39.123Z</time></trkpt><trkpt lat="42.1106919" lon="13.3809679"><ele>893.0</ele><time>2026-05-02T13:20:40.122Z</time></trkpt><trkpt lat="42.1107275" lon="13.3808459"><ele>893.3333333333333</ele><time>2026-05-02T13:20:42.121Z</time></trkpt><trkpt lat="42.1107672" lon="13.380758"><ele>893.6666666666666</ele><time>2026-05-02T13:20:44.121Z</time></trkpt><trkpt lat="42.1108237" lon="13.3806917"><ele>894.0</ele><time>2026-05-02T13:20:46.122Z</time></trkpt><trkpt lat="42.1107949" lon="13.3806128"><ele>894.0</ele><time>2026-05-02T13:20:49.121Z</time></trkpt><trkpt lat="42.1107489" lon="13.3807072"><ele>894.0000000000001</ele><time>2026-05-02T13:20:52.122Z</time></trkpt><trkpt lat="42.1107333" lon="13.3808736"><ele>894.0000000000001</ele><time>2026-05-02T13:20:54.122Z</time></trkpt><trkpt lat="42.1106985" lon="13.3809458"><ele>894.0</ele><time>2026-05-02T13:20:55.122Z</time></trkpt><trkpt lat="42.1106245" lon="13.3810531"><ele>894.0</ele><time>2026-05-02T13:20:57.122Z</time></trkpt><trkpt lat="42.1105498" lon="13.38109"><ele>894.0</ele><time>2026-05-02T13:21:00.121Z</time></trkpt><trkpt lat="42.1104957" lon="13.3810236"><ele>894.0000000000001</ele><time>2026-05-02T13:21:04.122Z</time></trkpt><trkpt lat="42.1105222" lon="13.3809199"><ele>894.0000000000001</ele><time>2026-05-02T13:21:05.121Z</time></trkpt><trkpt lat="42.1105155" lon="13.3807717"><ele>894.0</ele><time>2026-05-02T13:21:06.121Z</time></trkpt><trkpt lat="42.1105074" lon="13.3806186"><ele>894.0</ele><time>2026-05-02T13:21:07.121Z</time></trkpt><trkpt lat="42.110498" lon="13.3804769"><ele>894.2</ele><time>2026-05-02T13:21:08.121Z</time></trkpt><trkpt lat="42.1104995" lon="13.380348"><ele>894.4000000000001</ele><time>2026-05-02T13:21:09.121Z</time></trkpt><trkpt lat="42.1104948" lon="13.3802476"><ele>894.6</ele><time>2026-05-02T13:21:10.121Z</time></trkpt><trkpt lat="42.1105058" lon="13.3801136"><ele>894.8</ele><time>2026-05-02T13:21:12.121Z</time></trkpt><trkpt lat="42.1105499" lon="13.3800216"><ele>895.0</ele><time>2026-05-02T13:21:14.121Z</time></trkpt><trkpt lat="42.1105653" lon="13.3798851"><ele>895.0</ele><time>2026-05-02T13:21:16.121Z</time></trkpt><trkpt lat="42.1105478" lon="13.3797999"><ele>895.0</ele><time>2026-05-02T13:21:17.123Z</time></trkpt><trkpt lat="42.1105087" lon="13.3796947"><ele>895.0</ele><time>2026-05-02T13:21:18.122Z</time></trkpt><trkpt lat="42.1104486" lon="13.3795841"><ele>895.0</ele><time>2026-05-02T13:21:19.122Z</time></trkpt><trkpt lat="42.110361" lon="13.3794603"><ele>895.0</ele><time>2026-05-02T13:21:20.121Z</time></trkpt><trkpt lat="42.1102923" lon="13.3793669"><ele>895.2</ele><time>2026-05-02T13:21:21.121Z</time></trkpt><trkpt lat="42.1102243" lon="13.3793035"><ele>895.4</ele><time>2026-05-02T13:21:22.121Z</time></trkpt><trkpt lat="42.1101531" lon="13.3792299"><ele>895.5999999999999</ele><time>2026-05-02T13:21:23.121Z</time></trkpt><trkpt lat="42.1100536" lon="13.3792592"><ele>895.8</ele><time>2026-05-02T13:21:24.121Z</time></trkpt><trkpt lat="42.1099345" lon="13.3792726"><ele>896.0</ele><time>2026-05-02T13:21:25.121Z</time></trkpt><trkpt lat="42.1098334" lon="13.3792717"><ele>896.0</ele><time>2026-05-02T13:21:26.121Z</time></trkpt><trkpt lat="42.1097443" lon="13.3792627"><ele>895.9999999999999</ele><time>2026-05-02T13:21:27.122Z</time></trkpt><trkpt lat="42.1096368" lon="13.3792423"><ele>895.9999999999999</ele><time>2026-05-02T13:21:28.122Z</time></trkpt><trkpt lat="42.1095328" lon="13.3792105"><ele>896.0</ele><time>2026-05-02T13:21:29.121Z</time></trkpt><trkpt lat="42.1094433" lon="13.3791787"><ele>896.0</ele><time>2026-05-02T13:21:30.122Z</time></trkpt><trkpt lat="42.1093681" lon="13.3791465"><ele>896.0</ele><time>2026-05-02T13:21:31.122Z</time></trkpt><trkpt lat="42.1093079" lon="13.3791123"><ele>895.9999999999999</ele><time>2026-05-02T13:21:32.122Z</time></trkpt><trkpt lat="42.1092452" lon="13.3790141"><ele>895.9999999999999</ele><time>2026-05-02T13:21:34.121Z</time></trkpt><trkpt lat="42.109218" lon="13.3788267"><ele>896.0</ele><time>2026-05-02T13:21:36.121Z</time></trkpt><trkpt lat="42.1091899" lon="13.3787039"><ele>896.0</ele><time>2026-05-02T13:21:37.121Z</time></trkpt><trkpt lat="42.1091454" lon="13.3785877"><ele>896.75</ele><time>2026-05-02T13:21:38.121Z</time></trkpt><trkpt lat="42.1090868" lon="13.3784545"><ele>897.5</ele><time>2026-05-02T13:21:39.121Z</time></trkpt><trkpt lat="42.1090099" lon="13.3783119"><ele>898.25</ele><time>2026-05-02T13:21:40.121Z</time></trkpt><trkpt lat="42.1089239" lon="13.378166"><ele>899.0</ele><time>2026-05-02T13:21:41.121Z</time></trkpt><trkpt lat="42.1088306" lon="13.3780195"><ele>902.25</ele><time>2026-05-02T13:21:42.122Z</time></trkpt><trkpt lat="42.108717" lon="13.3778956"><ele>905.5</ele><time>2026-05-02T13:21:43.121Z</time></trkpt><trkpt lat="42.108596" lon="13.377793"><ele>908.75</ele><time>2026-05-02T13:21:44.121Z</time></trkpt><trkpt lat="42.108477" lon="13.3776937"><ele>912.0</ele><time>2026-05-02T13:21:45.121Z</time></trkpt><trkpt lat="42.1083549" lon="13.3776588"><ele>912.0</ele><time>2026-05-02T13:21:46.121Z</time></trkpt><trkpt lat="42.1082458" lon="13.3776185"><ele>912.0</ele><time>2026-05-02T13:21:47.122Z</time></trkpt><trkpt lat="42.1081393" lon="13.3775789"><ele>912.0</ele><time>2026-05-02T13:21:48.122Z</time></trkpt><trkpt lat="42.108047" lon="13.3775616"><ele>912.0</ele><time>2026-05-02T13:21:49.121Z</time></trkpt><trkpt lat="42.1079644" lon="13.3775377"><ele>912.0</ele><time>2026-05-02T13:21:50.122Z</time></trkpt><trkpt lat="42.1079058" lon="13.3775059"><ele>911.8333333333334</ele><time>2026-05-02T13:21:51.121Z</time></trkpt><trkpt lat="42.1078385" lon="13.3774575"><ele>911.6666666666667</ele><time>2026-05-02T13:21:52.121Z</time></trkpt><trkpt lat="42.1077771" lon="13.3773995"><ele>911.5</ele><time>2026-05-02T13:21:53.122Z</time></trkpt><trkpt lat="42.1077307" lon="13.3773393"><ele>911.3333333333334</ele><time>2026-05-02T13:21:54.122Z</time></trkpt><trkpt lat="42.1076618" lon="13.3772572"><ele>911.1666666666667</ele><time>2026-05-02T13:21:56.122Z</time></trkpt><trkpt lat="42.107602" lon="13.3771981"><ele>911.0</ele><time>2026-05-02T13:21:58.121Z</time></trkpt><trkpt lat="42.107556" lon="13.3771269"><ele>911.8</ele><time>2026-05-02T13:22:00.123Z</time></trkpt><trkpt lat="42.1074542" lon="13.3770787"><ele>912.5999999999999</ele><time>2026-05-02T13:22:02.122Z</time></trkpt><trkpt lat="42.1073465" lon="13.3770469"><ele>913.4</ele><time>2026-05-02T13:22:04.121Z</time></trkpt><trkpt lat="42.1072821" lon="13.3770589"><ele>914.2</ele><time>2026-05-02T13:22:07.121Z</time></trkpt><trkpt lat="42.1072173" lon="13.3771305"><ele>915.0</ele><time>2026-05-02T13:22:09.121Z</time></trkpt><trkpt lat="42.107115" lon="13.3771026"><ele>913.6666666666666</ele><time>2026-05-02T13:22:11.122Z</time></trkpt><trkpt lat="42.1070066" lon="13.3770634"><ele>912.3333333333333</ele><time>2026-05-02T13:22:13.121Z</time></trkpt><trkpt lat="42.1069376" lon="13.3769956"><ele>911.0</ele><time>2026-05-02T13:22:14.122Z</time></trkpt><trkpt lat="42.1068746" lon="13.3769285"><ele>909.6666666666666</ele><time>2026-05-02T13:22:15.121Z</time></trkpt><trkpt lat="42.1068307" lon="13.37686"><ele>908.3333333333333</ele><time>2026-05-02T13:22:16.122Z</time></trkpt><trkpt lat="42.1067592" lon="13.3767919"><ele>907.0</ele><time>2026-05-02T13:22:17.121Z</time></trkpt><trkpt lat="42.1066822" lon="13.3767299"><ele>905.0</ele><time>2026-05-02T13:22:18.123Z</time></trkpt><trkpt lat="42.1065577" lon="13.3766548"><ele>903.0</ele><time>2026-05-02T13:22:20.122Z</time></trkpt><trkpt lat="42.106477" lon="13.3766281"><ele>901.0</ele><time>2026-05-02T13:22:21.122Z</time></trkpt><trkpt lat="42.1063692" lon="13.376606"><ele>899.0</ele><time>2026-05-02T13:22:22.122Z</time></trkpt><trkpt lat="42.1062781" lon="13.3765768"><ele>897.0</ele><time>2026-05-02T13:22:23.122Z</time></trkpt><trkpt lat="42.1061898" lon="13.376554"><ele>897.0</ele><time>2026-05-02T13:22:24.122Z</time></trkpt><trkpt lat="42.1061029" lon="13.3765332"><ele>897.0</ele><time>2026-05-02T13:22:25.121Z</time></trkpt><trkpt lat="42.1060029" lon="13.3764248"><ele>897.0</ele><time>2026-05-02T13:22:27.121Z</time></trkpt><trkpt lat="42.1059467" lon="13.3762835"><ele>897.0</ele><time>2026-05-02T13:22:29.121Z</time></trkpt><trkpt lat="42.1058432" lon="13.3761741"><ele>896.0</ele><time>2026-05-02T13:22:31.123Z</time></trkpt><trkpt lat="42.1057831" lon="13.3760944"><ele>895.0</ele><time>2026-05-02T13:22:32.121Z</time></trkpt><trkpt lat="42.1057241" lon="13.3760051"><ele>894.0</ele><time>2026-05-02T13:22:33.122Z</time></trkpt><trkpt lat="42.1056647" lon="13.3759232"><ele>893.0</ele><time>2026-05-02T13:22:34.122Z</time></trkpt><trkpt lat="42.1056124" lon="13.375854"><ele>892.0</ele><time>2026-05-02T13:22:35.121Z</time></trkpt><trkpt lat="42.1055386" lon="13.375773"><ele>891.0</ele><time>2026-05-02T13:22:36.121Z</time></trkpt><trkpt lat="42.1054599" lon="13.3756775"><ele>889.6666666666666</ele><time>2026-05-02T13:22:37.121Z</time></trkpt><trkpt lat="42.1053913" lon="13.3755888"><ele>888.3333333333333</ele><time>2026-05-02T13:22:38.122Z</time></trkpt><trkpt lat="42.105336" lon="13.3755104"><ele>887.0</ele><time>2026-05-02T13:22:39.123Z</time></trkpt><trkpt lat="42.1052813" lon="13.3754337"><ele>885.6666666666666</ele><time>2026-05-02T13:22:40.122Z</time></trkpt><trkpt lat="42.1052237" lon="13.3753482"><ele>884.3333333333333</ele><time>2026-05-02T13:22:41.122Z</time></trkpt><trkpt lat="42.1051704" lon="13.3752785"><ele>883.0</ele><time>2026-05-02T13:22:42.122Z</time></trkpt><trkpt lat="42.105112" lon="13.3752287"><ele>883.0</ele><time>2026-05-02T13:22:43.121Z</time></trkpt><trkpt lat="42.1050434" lon="13.3751261"><ele>883.0</ele><time>2026-05-02T13:22:45.121Z</time></trkpt><trkpt lat="42.105027" lon="13.37501"><ele>883.0</ele><time>2026-05-02T13:22:47.121Z</time></trkpt><trkpt lat="42.104957" lon="13.3748953"><ele>883.0</ele><time>2026-05-02T13:22:49.121Z</time></trkpt><trkpt lat="42.1048495" lon="13.3747574"><ele>883.0</ele><time>2026-05-02T13:22:51.121Z</time></trkpt><trkpt lat="42.104832" lon="13.3746585"><ele>881.1666666666666</ele><time>2026-05-02T13:22:52.121Z</time></trkpt><trkpt lat="42.1047907" lon="13.3745515"><ele>879.3333333333333</ele><time>2026-05-02T13:22:53.121Z</time></trkpt><trkpt lat="42.1047645" lon="13.3744611"><ele>877.5</ele><time>2026-05-02T13:22:54.121Z</time></trkpt><trkpt lat="42.1047021" lon="13.3743433"><ele>875.6666666666667</ele><time>2026-05-02T13:22:56.123Z</time></trkpt><trkpt lat="42.1046129" lon="13.374298"><ele>873.8333333333334</ele><time>2026-05-02T13:22:58.122Z</time></trkpt><trkpt lat="42.1045291" lon="13.3742776"><ele>872.0</ele><time>2026-05-02T13:23:00.121Z</time></trkpt><trkpt lat="42.1044519" lon="13.3741467"><ele>872.0</ele><time>2026-05-02T13:23:02.121Z</time></trkpt><trkpt lat="42.1044042" lon="13.3740352"><ele>872.0</ele><time>2026-05-02T13:23:03.122Z</time></trkpt><trkpt lat="42.1043428" lon="13.3739207"><ele>872.0</ele><time>2026-05-02T13:23:04.122Z</time></trkpt><trkpt lat="42.104266" lon="13.3738038"><ele>872.0</ele><time>2026-05-02T13:23:05.122Z</time></trkpt><trkpt lat="42.1041933" lon="13.3736978"><ele>872.0</ele><time>2026-05-02T13:23:06.121Z</time></trkpt><trkpt lat="42.1041248" lon="13.373606"><ele>871.1666666666667</ele><time>2026-05-02T13:23:07.121Z</time></trkpt><trkpt lat="42.1040608" lon="13.3735239"><ele>870.3333333333334</ele><time>2026-05-02T13:23:08.121Z</time></trkpt><trkpt lat="42.1040076" lon="13.3734372"><ele>869.5</ele><time>2026-05-02T13:23:09.122Z</time></trkpt><trkpt lat="42.1039606" lon="13.3733403"><ele>868.6666666666667</ele><time>2026-05-02T13:23:10.122Z</time></trkpt><trkpt lat="42.1039035" lon="13.373263"><ele>867.8333333333334</ele><time>2026-05-02T13:23:11.121Z</time></trkpt><trkpt lat="42.1038321" lon="13.3731819"><ele>867.0</ele><time>2026-05-02T13:23:12.121Z</time></trkpt><trkpt lat="42.1037565" lon="13.3730874"><ele>869.0</ele><time>2026-05-02T13:23:13.121Z</time></trkpt><trkpt lat="42.1036797" lon="13.3730068"><ele>871.0</ele><time>2026-05-02T13:23:14.121Z</time></trkpt><trkpt lat="42.103616" lon="13.3729131"><ele>873.0</ele><time>2026-05-02T13:23:15.122Z</time></trkpt><trkpt lat="42.1035558" lon="13.3728022"><ele>875.0</ele><time>2026-05-02T13:23:16.121Z</time></trkpt><trkpt lat="42.1034988" lon="13.3727134"><ele>877.0</ele><time>2026-05-02T13:23:17.122Z</time></trkpt><trkpt lat="42.1034535" lon="13.3726317"><ele>877.0</ele><time>2026-05-02T13:23:18.121Z</time></trkpt><trkpt lat="42.1033542" lon="13.3725337"><ele>877.0</ele><time>2026-05-02T13:23:20.121Z</time></trkpt><trkpt lat="42.1033213" lon="13.3724219"><ele>877.0</ele><time>2026-05-02T13:23:22.121Z</time></trkpt><trkpt lat="42.103286" lon="13.3722814"><ele>877.0</ele><time>2026-05-02T13:23:24.121Z</time></trkpt><trkpt lat="42.1032166" lon="13.372126"><ele>874.8</ele><time>2026-05-02T13:23:26.122Z</time></trkpt><trkpt lat="42.1031511" lon="13.3720639"><ele>872.6</ele><time>2026-05-02T13:23:27.121Z</time></trkpt><trkpt lat="42.1030646" lon="13.3719604"><ele>870.3999999999999</ele><time>2026-05-02T13:23:29.122Z</time></trkpt><trkpt lat="42.1029568" lon="13.3718784"><ele>868.1999999999999</ele><time>2026-05-02T13:23:31.121Z</time></trkpt><trkpt lat="42.1028972" lon="13.3718433"><ele>866.0</ele><time>2026-05-02T13:23:32.121Z</time></trkpt><trkpt lat="42.1027941" lon="13.3717387"><ele>866.0000000000001</ele><time>2026-05-02T13:23:34.122Z</time></trkpt><trkpt lat="42.1027464" lon="13.3716675"><ele>866.0</ele><time>2026-05-02T13:23:35.122Z</time></trkpt><trkpt lat="42.1026995" lon="13.3715781"><ele>866.0</ele><time>2026-05-02T13:23:36.121Z</time></trkpt><trkpt lat="42.1026494" lon="13.3714915"><ele>866.0</ele><time>2026-05-02T13:23:37.122Z</time></trkpt><trkpt lat="42.1026068" lon="13.3714046"><ele>866.0000000000001</ele><time>2026-05-02T13:23:38.122Z</time></trkpt><trkpt lat="42.1025127" lon="13.3712906"><ele>866.0</ele><time>2026-05-02T13:23:40.122Z</time></trkpt><trkpt lat="42.1024414" lon="13.3712351"><ele>863.7142857142857</ele><time>2026-05-02T13:23:41.122Z</time></trkpt><trkpt lat="42.1023852" lon="13.3711765"><ele>861.4285714285714</ele><time>2026-05-02T13:23:42.122Z</time></trkpt><trkpt lat="42.1023321" lon="13.3711196"><ele>859.1428571428571</ele><time>2026-05-02T13:23:43.121Z</time></trkpt><trkpt lat="42.1022727" lon="13.3710659"><ele>856.8571428571429</ele><time>2026-05-02T13:23:44.122Z</time></trkpt><trkpt lat="42.102207" lon="13.3710275"><ele>854.5714285714286</ele><time>2026-05-02T13:23:45.122Z</time></trkpt><trkpt lat="42.1021494" lon="13.3709792"><ele>852.2857142857142</ele><time>2026-05-02T13:23:46.121Z</time></trkpt><trkpt lat="42.1021013" lon="13.3709154"><ele>850.0</ele><time>2026-05-02T13:23:47.121Z</time></trkpt><trkpt lat="42.1020407" lon="13.3708807"><ele>850.0</ele><time>2026-05-02T13:23:48.121Z</time></trkpt><trkpt lat="42.1019813" lon="13.3708463"><ele>850.0</ele><time>2026-05-02T13:23:49.121Z</time></trkpt><trkpt lat="42.1019302" lon="13.3707926"><ele>850.0</ele><time>2026-05-02T13:23:50.121Z</time></trkpt><trkpt lat="42.1018758" lon="13.3707344"><ele>850.0</ele><time>2026-05-02T13:23:51.121Z</time></trkpt><trkpt lat="42.1018176" lon="13.3706909"><ele>850.0</ele><time>2026-05-02T13:23:52.121Z</time></trkpt><trkpt lat="42.1017526" lon="13.370669"><ele>850.0</ele><time>2026-05-02T13:23:53.121Z</time></trkpt><trkpt lat="42.1017006" lon="13.3706205"><ele>850.0</ele><time>2026-05-02T13:23:54.121Z</time></trkpt><trkpt lat="42.1016089" lon="13.3705098"><ele>845.6</ele><time>2026-05-02T13:23:56.121Z</time></trkpt><trkpt lat="42.1015266" lon="13.3705239"><ele>841.2</ele><time>2026-05-02T13:23:58.122Z</time></trkpt><trkpt lat="42.1014125" lon="13.370513"><ele>836.8</ele><time>2026-05-02T13:24:00.122Z</time></trkpt><trkpt lat="42.1013001" lon="13.3704803"><ele>832.4</ele><time>2026-05-02T13:24:02.122Z</time></trkpt><trkpt lat="42.1012148" lon="13.370474"><ele>828.0</ele><time>2026-05-02T13:24:04.121Z</time></trkpt><trkpt lat="42.1011296" lon="13.3705269"><ele>828.0</ele><time>2026-05-02T13:24:06.122Z</time></trkpt><trkpt lat="42.1010678" lon="13.37057"><ele>828.0</ele><time>2026-05-02T13:24:07.121Z</time></trkpt><trkpt lat="42.1010119" lon="13.370614"><ele>828.0</ele><time>2026-05-02T13:24:08.121Z</time></trkpt><trkpt lat="42.1009258" lon="13.3706697"><ele>828.0</ele><time>2026-05-02T13:24:10.122Z</time></trkpt><trkpt lat="42.1008356" lon="13.3706462"><ele>828.0</ele><time>2026-05-02T13:24:12.122Z</time></trkpt><trkpt lat="42.1007127" lon="13.3705625"><ele>826.1666666666666</ele><time>2026-05-02T13:24:14.122Z</time></trkpt><trkpt lat="42.1006372" lon="13.370521"><ele>824.3333333333333</ele><time>2026-05-02T13:24:15.122Z</time></trkpt><trkpt lat="42.1005717" lon="13.3704831"><ele>822.5</ele><time>2026-05-02T13:24:16.122Z</time></trkpt><trkpt lat="42.1005054" lon="13.370487"><ele>820.6666666666666</ele><time>2026-05-02T13:24:17.121Z</time></trkpt><trkpt lat="42.1003935" lon="13.3704788"><ele>818.8333333333333</ele><time>2026-05-02T13:24:19.121Z</time></trkpt><trkpt lat="42.100285" lon="13.3705137"><ele>817.0</ele><time>2026-05-02T13:24:21.121Z</time></trkpt><trkpt lat="42.1002112" lon="13.3705787"><ele>816.9999999999999</ele><time>2026-05-02T13:24:24.122Z</time></trkpt><trkpt lat="42.1001363" lon="13.3705296"><ele>817.0</ele><time>2026-05-02T13:24:26.122Z</time></trkpt><trkpt lat="42.1000747" lon="13.3704704"><ele>817.0</ele><time>2026-05-02T13:24:27.121Z</time></trkpt><trkpt lat="42.1000024" lon="13.3704094"><ele>817.0</ele><time>2026-05-02T13:24:28.121Z</time></trkpt><trkpt lat="42.099917" lon="13.3703466"><ele>816.9999999999999</ele><time>2026-05-02T13:24:29.122Z</time></trkpt><trkpt lat="42.0998384" lon="13.3702759"><ele>817.0</ele><time>2026-05-02T13:24:30.122Z</time></trkpt><trkpt lat="42.0997691" lon="13.3702043"><ele>813.6</ele><time>2026-05-02T13:24:31.122Z</time></trkpt><trkpt lat="42.0996914" lon="13.3701416"><ele>810.2</ele><time>2026-05-02T13:24:32.12Z</time></trkpt><trkpt lat="42.0996167" lon="13.3700729"><ele>806.8</ele><time>2026-05-02T13:24:33.12Z</time></trkpt><trkpt lat="42.0995452" lon="13.36999"><ele>803.4</ele><time>2026-05-02T13:24:34.121Z</time></trkpt><trkpt lat="42.099481" lon="13.3698923"><ele>800.0</ele><time>2026-05-02T13:24:35.12Z</time></trkpt><trkpt lat="42.0994192" lon="13.369794"><ele>800.0</ele><time>2026-05-02T13:24:36.121Z</time></trkpt><trkpt lat="42.0993564" lon="13.3697022"><ele>800.0</ele><time>2026-05-02T13:24:37.12Z</time></trkpt><trkpt lat="42.0992911" lon="13.3696129"><ele>800.0</ele><time>2026-05-02T13:24:38.12Z</time></trkpt><trkpt lat="42.0992218" lon="13.3695246"><ele>800.0</ele><time>2026-05-02T13:24:39.12Z</time></trkpt><trkpt lat="42.0991368" lon="13.3694424"><ele>800.0</ele><time>2026-05-02T13:24:40.121Z</time></trkpt><trkpt lat="42.0990572" lon="13.3693593"><ele>798.0</ele><time>2026-05-02T13:24:41.12Z</time></trkpt><trkpt lat="42.0989816" lon="13.3692792"><ele>796.0</ele><time>2026-05-02T13:24:42.12Z</time></trkpt><trkpt lat="42.098908" lon="13.3691969"><ele>794.0</ele><time>2026-05-02T13:24:43.12Z</time></trkpt><trkpt lat="42.0988392" lon="13.3691186"><ele>792.0</ele><time>2026-05-02T13:24:44.12Z</time></trkpt><trkpt lat="42.0987725" lon="13.3690409"><ele>790.0</ele><time>2026-05-02T13:24:45.12Z</time></trkpt><trkpt lat="42.0987053" lon="13.3689749"><ele>790.0</ele><time>2026-05-02T13:24:46.121Z</time></trkpt><trkpt lat="42.0986297" lon="13.368929"><ele>790.0</ele><time>2026-05-02T13:24:47.121Z</time></trkpt><trkpt lat="42.0985417" lon="13.3688701"><ele>790.0</ele><time>2026-05-02T13:24:48.121Z</time></trkpt><trkpt lat="42.098454" lon="13.368817"><ele>790.0</ele><time>2026-05-02T13:24:49.12Z</time></trkpt><trkpt lat="42.0983695" lon="13.3687713"><ele>790.0</ele><time>2026-05-02T13:24:50.12Z</time></trkpt><trkpt lat="42.0982862" lon="13.3687243"><ele>789.2</ele><time>2026-05-02T13:24:51.12Z</time></trkpt><trkpt lat="42.0982045" lon="13.368682"><ele>788.4</ele><time>2026-05-02T13:24:52.121Z</time></trkpt><trkpt lat="42.0981182" lon="13.3686374"><ele>787.5999999999999</ele><time>2026-05-02T13:24:53.121Z</time></trkpt><trkpt lat="42.0980266" lon="13.3685935"><ele>786.8</ele><time>2026-05-02T13:24:54.121Z</time></trkpt><trkpt lat="42.0979372" lon="13.3685522"><ele>786.0</ele><time>2026-05-02T13:24:55.121Z</time></trkpt><trkpt lat="42.0978479" lon="13.3685104"><ele>786.0</ele><time>2026-05-02T13:24:56.12Z</time></trkpt><trkpt lat="42.0977651" lon="13.3684679"><ele>786.0</ele><time>2026-05-02T13:24:57.12Z</time></trkpt><trkpt lat="42.097685" lon="13.368434"><ele>786.0</ele><time>2026-05-02T13:24:58.121Z</time></trkpt><trkpt lat="42.0976027" lon="13.3683996"><ele>786.0</ele><time>2026-05-02T13:24:59.12Z</time></trkpt><trkpt lat="42.0975195" lon="13.368373"><ele>786.0</ele><time>2026-05-02T13:25:00.12Z</time></trkpt><trkpt lat="42.0974305" lon="13.3683444"><ele>786.0</ele><time>2026-05-02T13:25:01.12Z</time></trkpt><trkpt lat="42.0973389" lon="13.3683175"><ele>782.8</ele><time>2026-05-02T13:25:02.12Z</time></trkpt><trkpt lat="42.0972479" lon="13.3682879"><ele>779.5999999999999</ele><time>2026-05-02T13:25:03.121Z</time></trkpt><trkpt lat="42.097155" lon="13.3682554"><ele>776.4</ele><time>2026-05-02T13:25:04.12Z</time></trkpt><trkpt lat="42.097062" lon="13.3682133"><ele>773.2</ele><time>2026-05-02T13:25:05.121Z</time></trkpt><trkpt lat="42.0969699" lon="13.3681565"><ele>770.0</ele><time>2026-05-02T13:25:06.121Z</time></trkpt><trkpt lat="42.0968806" lon="13.3680995"><ele>770.0000000000001</ele><time>2026-05-02T13:25:07.121Z</time></trkpt><trkpt lat="42.0967973" lon="13.3680388"><ele>770.0</ele><time>2026-05-02T13:25:08.121Z</time></trkpt><trkpt lat="42.096722" lon="13.3679656"><ele>770.0</ele><time>2026-05-02T13:25:09.122Z</time></trkpt><trkpt lat="42.0966534" lon="13.3678929"><ele>770.0</ele><time>2026-05-02T13:25:10.121Z</time></trkpt><trkpt lat="42.0965921" lon="13.3678255"><ele>770.0000000000001</ele><time>2026-05-02T13:25:11.121Z</time></trkpt><trkpt lat="42.0965315" lon="13.367759"><ele>770.0</ele><time>2026-05-02T13:25:12.121Z</time></trkpt><trkpt lat="42.0964642" lon="13.3676905"><ele>767.5714285714286</ele><time>2026-05-02T13:25:13.12Z</time></trkpt><trkpt lat="42.0964069" lon="13.3676145"><ele>765.1428571428571</ele><time>2026-05-02T13:25:14.121Z</time></trkpt><trkpt lat="42.0963557" lon="13.3675344"><ele>762.7142857142858</ele><time>2026-05-02T13:25:15.12Z</time></trkpt><trkpt lat="42.0962943" lon="13.3674706"><ele>760.2857142857142</ele><time>2026-05-02T13:25:16.121Z</time></trkpt><trkpt lat="42.0962368" lon="13.3674021"><ele>757.8571428571429</ele><time>2026-05-02T13:25:17.122Z</time></trkpt><trkpt lat="42.0961874" lon="13.3673358"><ele>755.4285714285714</ele><time>2026-05-02T13:25:18.121Z</time></trkpt><trkpt lat="42.0961293" lon="13.3672936"><ele>753.0</ele><time>2026-05-02T13:25:19.12Z</time></trkpt><trkpt lat="42.0960638" lon="13.3672478"><ele>753.0</ele><time>2026-05-02T13:25:20.121Z</time></trkpt><trkpt lat="42.0960033" lon="13.3672049"><ele>753.0</ele><time>2026-05-02T13:25:21.12Z</time></trkpt><trkpt lat="42.0959358" lon="13.3671712"><ele>753.0</ele><time>2026-05-02T13:25:22.12Z</time></trkpt><trkpt lat="42.0958654" lon="13.3671445"><ele>753.0</ele><time>2026-05-02T13:25:23.12Z</time></trkpt><trkpt lat="42.0957818" lon="13.3671124"><ele>753.0</ele><time>2026-05-02T13:25:24.12Z</time></trkpt><trkpt lat="42.0956771" lon="13.3670678"><ele>753.0</ele><time>2026-05-02T13:25:25.12Z</time></trkpt><trkpt lat="42.0955524" lon="13.367013"><ele>747.0</ele><time>2026-05-02T13:25:26.12Z</time></trkpt><trkpt lat="42.0954027" lon="13.3669428"><ele>741.0</ele><time>2026-05-02T13:25:27.121Z</time></trkpt><trkpt lat="42.0952471" lon="13.3668653"><ele>735.0</ele><time>2026-05-02T13:25:28.121Z</time></trkpt><trkpt lat="42.0951191" lon="13.3667987"><ele>735.0</ele><time>2026-05-02T13:25:29.12Z</time></trkpt><trkpt lat="42.095002" lon="13.3667391"><ele>735.0</ele><time>2026-05-02T13:25:30.121Z</time></trkpt><trkpt lat="42.094903" lon="13.3666934"><ele>735.0</ele><time>2026-05-02T13:25:31.12Z</time></trkpt><trkpt lat="42.0948185" lon="13.3666718"><ele>735.0</ele><time>2026-05-02T13:25:32.121Z</time></trkpt><trkpt lat="42.0947384" lon="13.3666616"><ele>735.0</ele><time>2026-05-02T13:25:33.121Z</time></trkpt><trkpt lat="42.0946247" lon="13.3666239"><ele>734.8333333333334</ele><time>2026-05-02T13:25:35.12Z</time></trkpt><trkpt lat="42.0945697" lon="13.3665784"><ele>734.6666666666666</ele><time>2026-05-02T13:25:36.12Z</time></trkpt><trkpt lat="42.0945039" lon="13.3665219"><ele>734.5</ele><time>2026-05-02T13:25:37.12Z</time></trkpt><trkpt lat="42.0944399" lon="13.3664556"><ele>734.3333333333333</ele><time>2026-05-02T13:25:38.121Z</time></trkpt><trkpt lat="42.0943884" lon="13.3663872"><ele>734.1666666666666</ele><time>2026-05-02T13:25:39.121Z</time></trkpt><trkpt lat="42.0943445" lon="13.3663162"><ele>734.0</ele><time>2026-05-02T13:25:40.121Z</time></trkpt><trkpt lat="42.0943429" lon="13.3661816"><ele>733.5</ele><time>2026-05-02T13:25:42.121Z</time></trkpt><trkpt lat="42.0943769" lon="13.366075"><ele>733.0</ele><time>2026-05-02T13:25:44.122Z</time></trkpt><trkpt lat="42.0944194" lon="13.3659892"><ele>732.5</ele><time>2026-05-02T13:25:46.12Z</time></trkpt><trkpt lat="42.0944786" lon="13.3658996"><ele>732.0</ele><time>2026-05-02T13:25:48.121Z</time></trkpt><trkpt lat="42.0945317" lon="13.3658234"><ele>731.5</ele><time>2026-05-02T13:25:49.122Z</time></trkpt><trkpt lat="42.0945981" lon="13.3657288"><ele>731.0</ele><time>2026-05-02T13:25:50.121Z</time></trkpt><trkpt lat="42.0946782" lon="13.3656132"><ele>730.5</ele><time>2026-05-02T13:25:51.12Z</time></trkpt><trkpt lat="42.094769" lon="13.3654844"><ele>730.0</ele><time>2026-05-02T13:25:52.121Z</time></trkpt><trkpt lat="42.0948716" lon="13.3653409"><ele>729.5</ele><time>2026-05-02T13:25:53.122Z</time></trkpt><trkpt lat="42.0949765" lon="13.3651905"><ele>729.0</ele><time>2026-05-02T13:25:54.121Z</time></trkpt><trkpt lat="42.0950736" lon="13.3650491"><ele>729.0</ele><time>2026-05-02T13:25:55.12Z</time></trkpt><trkpt lat="42.0951619" lon="13.3649133"><ele>729.0</ele><time>2026-05-02T13:25:56.12Z</time></trkpt><trkpt lat="42.0952478" lon="13.3647855"><ele>729.0</ele><time>2026-05-02T13:25:57.12Z</time></trkpt><trkpt lat="42.0953323" lon="13.3646726"><ele>729.0</ele><time>2026-05-02T13:25:58.121Z</time></trkpt><trkpt lat="42.095419" lon="13.3645683"><ele>728.75</ele><time>2026-05-02T13:25:59.121Z</time></trkpt><trkpt lat="42.0955061" lon="13.364477"><ele>728.5</ele><time>2026-05-02T13:26:00.121Z</time></trkpt><trkpt lat="42.0955923" lon="13.3643819"><ele>728.25</ele><time>2026-05-02T13:26:01.122Z</time></trkpt><trkpt lat="42.0956793" lon="13.3642638"><ele>728.0</ele><time>2026-05-02T13:26:02.12Z</time></trkpt><trkpt lat="42.0957738" lon="13.3641288"><ele>727.0</ele><time>2026-05-02T13:26:03.12Z</time></trkpt><trkpt lat="42.0958776" lon="13.3639728"><ele>726.0</ele><time>2026-05-02T13:26:04.122Z</time></trkpt><trkpt lat="42.0959937" lon="13.3637925"><ele>725.0</ele><time>2026-05-02T13:26:05.12Z</time></trkpt><trkpt lat="42.0961187" lon="13.3636103"><ele>724.0</ele><time>2026-05-02T13:26:06.12Z</time></trkpt><trkpt lat="42.0962435" lon="13.3634244"><ele>723.0</ele><time>2026-05-02T13:26:07.121Z</time></trkpt><trkpt lat="42.09636" lon="13.3632398"><ele>722.0</ele><time>2026-05-02T13:26:08.12Z</time></trkpt><trkpt lat="42.0964724" lon="13.3630688"><ele>721.6666666666666</ele><time>2026-05-02T13:26:09.12Z</time></trkpt><trkpt lat="42.0965851" lon="13.3629032"><ele>721.3333333333334</ele><time>2026-05-02T13:26:10.121Z</time></trkpt><trkpt lat="42.0967016" lon="13.3627272"><ele>721.0</ele><time>2026-05-02T13:26:11.121Z</time></trkpt><trkpt lat="42.0968136" lon="13.3625586"><ele>719.3333333333334</ele><time>2026-05-02T13:26:12.12Z</time></trkpt><trkpt lat="42.096925" lon="13.3623896"><ele>717.6666666666666</ele><time>2026-05-02T13:26:13.121Z</time></trkpt><trkpt lat="42.0970373" lon="13.3622164"><ele>716.0</ele><time>2026-05-02T13:26:14.12Z</time></trkpt><trkpt lat="42.0971526" lon="13.362035"><ele>715.6666666666666</ele><time>2026-05-02T13:26:15.12Z</time></trkpt><trkpt lat="42.0972703" lon="13.3618471"><ele>715.3333333333334</ele><time>2026-05-02T13:26:16.12Z</time></trkpt><trkpt lat="42.0973903" lon="13.3616604"><ele>715.0</ele><time>2026-05-02T13:26:17.122Z</time></trkpt><trkpt lat="42.0975086" lon="13.3614839"><ele>714.6666666666667</ele><time>2026-05-02T13:26:18.121Z</time></trkpt><trkpt lat="42.0976268" lon="13.3613046"><ele>714.3333333333334</ele><time>2026-05-02T13:26:19.12Z</time></trkpt><trkpt lat="42.0977394" lon="13.361136"><ele>714.0</ele><time>2026-05-02T13:26:20.12Z</time></trkpt><trkpt lat="42.0978464" lon="13.3609698"><ele>714.0</ele><time>2026-05-02T13:26:21.121Z</time></trkpt><trkpt lat="42.0979547" lon="13.3608086"><ele>714.0</ele><time>2026-05-02T13:26:22.12Z</time></trkpt><trkpt lat="42.0980735" lon="13.3606472"><ele>714.0</ele><time>2026-05-02T13:26:23.121Z</time></trkpt><trkpt lat="42.0981912" lon="13.3604915"><ele>712.3333333333334</ele><time>2026-05-02T13:26:24.12Z</time></trkpt><trkpt lat="42.0983088" lon="13.3603305"><ele>710.6666666666667</ele><time>2026-05-02T13:26:25.12Z</time></trkpt><trkpt lat="42.0984272" lon="13.3601791"><ele>709.0</ele><time>2026-05-02T13:26:26.12Z</time></trkpt><trkpt lat="42.0985491" lon="13.3600309"><ele>709.0</ele><time>2026-05-02T13:26:27.12Z</time></trkpt><trkpt lat="42.0986819" lon="13.3598855"><ele>709.0</ele><time>2026-05-02T13:26:28.121Z</time></trkpt><trkpt lat="42.0988222" lon="13.3597383"><ele>709.0</ele><time>2026-05-02T13:26:29.12Z</time></trkpt><trkpt lat="42.098967" lon="13.3595779"><ele>708.6666666666667</ele><time>2026-05-02T13:26:30.121Z</time></trkpt><trkpt lat="42.0991106" lon="13.3594058"><ele>708.3333333333334</ele><time>2026-05-02T13:26:31.12Z</time></trkpt><trkpt lat="42.0992427" lon="13.3592394"><ele>708.0</ele><time>2026-05-02T13:26:32.121Z</time></trkpt><trkpt lat="42.0993696" lon="13.3590815"><ele>708.0</ele><time>2026-05-02T13:26:33.12Z</time></trkpt><trkpt lat="42.0994883" lon="13.3589292"><ele>708.0</ele><time>2026-05-02T13:26:34.12Z</time></trkpt><trkpt lat="42.0995967" lon="13.3587839"><ele>708.0</ele><time>2026-05-02T13:26:35.122Z</time></trkpt><trkpt lat="42.0996958" lon="13.3586429"><ele>708.0</ele><time>2026-05-02T13:26:36.12Z</time></trkpt><trkpt lat="42.099805" lon="13.3585016"><ele>708.0</ele><time>2026-05-02T13:26:37.12Z</time></trkpt><trkpt lat="42.0999214" lon="13.358356"><ele>708.0</ele><time>2026-05-02T13:26:38.12Z</time></trkpt><trkpt lat="42.1000514" lon="13.3582093"><ele>708.3333333333334</ele><time>2026-05-02T13:26:39.121Z</time></trkpt><trkpt lat="42.1001856" lon="13.3580616"><ele>708.6666666666667</ele><time>2026-05-02T13:26:40.12Z</time></trkpt><trkpt lat="42.1003185" lon="13.3579226"><ele>709.0</ele><time>2026-05-02T13:26:41.12Z</time></trkpt><trkpt lat="42.100447" lon="13.357806"><ele>709.0</ele><time>2026-05-02T13:26:42.121Z</time></trkpt><trkpt lat="42.1005675" lon="13.3576984"><ele>709.0</ele><time>2026-05-02T13:26:43.121Z</time></trkpt><trkpt lat="42.1006762" lon="13.3575851"><ele>709.0</ele><time>2026-05-02T13:26:44.121Z</time></trkpt><trkpt lat="42.1007767" lon="13.3574735"><ele>709.0</ele><time>2026-05-02T13:26:45.12Z</time></trkpt><trkpt lat="42.1008663" lon="13.3573565"><ele>709.25</ele><time>2026-05-02T13:26:46.12Z</time></trkpt><trkpt lat="42.1009574" lon="13.3572405"><ele>709.5</ele><time>2026-05-02T13:26:47.121Z</time></trkpt><trkpt lat="42.1010752" lon="13.3571381"><ele>709.75</ele><time>2026-05-02T13:26:48.121Z</time></trkpt><trkpt lat="42.1012066" lon="13.3570361"><ele>710.0</ele><time>2026-05-02T13:26:49.121Z</time></trkpt><trkpt lat="42.1013469" lon="13.3569288"><ele>710.0</ele><time>2026-05-02T13:26:50.121Z</time></trkpt><trkpt lat="42.101485" lon="13.3567994"><ele>710.0</ele><time>2026-05-02T13:26:51.12Z</time></trkpt><trkpt lat="42.1016244" lon="13.3566562"><ele>710.0</ele><time>2026-05-02T13:26:52.121Z</time></trkpt><trkpt lat="42.1017671" lon="13.356488"><ele>711.0</ele><time>2026-05-02T13:26:53.12Z</time></trkpt><trkpt lat="42.101909" lon="13.3563159"><ele>712.0</ele><time>2026-05-02T13:26:54.12Z</time></trkpt><trkpt lat="42.1020542" lon="13.3561315"><ele>713.0</ele><time>2026-05-02T13:26:55.121Z</time></trkpt><trkpt lat="42.1022035" lon="13.355942"><ele>713.0</ele><time>2026-05-02T13:26:56.12Z</time></trkpt><trkpt lat="42.1023556" lon="13.3557473"><ele>713.0</ele><time>2026-05-02T13:26:57.12Z</time></trkpt><trkpt lat="42.1025041" lon="13.355551"><ele>713.0</ele><time>2026-05-02T13:26:58.122Z</time></trkpt><trkpt lat="42.1026473" lon="13.3553712"><ele>713.0</ele><time>2026-05-02T13:26:59.12Z</time></trkpt><trkpt lat="42.1027868" lon="13.355196"><ele>713.0</ele><time>2026-05-02T13:27:00.12Z</time></trkpt><trkpt lat="42.1029307" lon="13.3550122"><ele>713.0</ele><time>2026-05-02T13:27:01.121Z</time></trkpt><trkpt lat="42.1030775" lon="13.354824"><ele>713.6666666666666</ele><time>2026-05-02T13:27:02.12Z</time></trkpt><trkpt lat="42.1032267" lon="13.3546278"><ele>714.3333333333334</ele><time>2026-05-02T13:27:03.121Z</time></trkpt><trkpt lat="42.1033746" lon="13.3544304"><ele>715.0</ele><time>2026-05-02T13:27:04.121Z</time></trkpt><trkpt lat="42.1035246" lon="13.3542316"><ele>717.6666666666667</ele><time>2026-05-02T13:27:05.12Z</time></trkpt><trkpt lat="42.1036706" lon="13.3540326"><ele>720.3333333333334</ele><time>2026-05-02T13:27:06.12Z</time></trkpt><trkpt lat="42.103816" lon="13.3538329"><ele>723.0</ele><time>2026-05-02T13:27:07.122Z</time></trkpt><trkpt lat="42.1039605" lon="13.353639"><ele>725.3333333333334</ele><time>2026-05-02T13:27:08.121Z</time></trkpt><trkpt lat="42.1040989" lon="13.3534635"><ele>727.6666666666667</ele><time>2026-05-02T13:27:09.121Z</time></trkpt><trkpt lat="42.1042331" lon="13.3533108"><ele>730.0</ele><time>2026-05-02T13:27:10.121Z</time></trkpt><trkpt lat="42.1043771" lon="13.3531826"><ele>730.0</ele><time>2026-05-02T13:27:11.121Z</time></trkpt><trkpt lat="42.1045289" lon="13.3530572"><ele>730.0</ele><time>2026-05-02T13:27:12.121Z</time></trkpt><trkpt lat="42.1046847" lon="13.3529246"><ele>730.0</ele><time>2026-05-02T13:27:13.12Z</time></trkpt><trkpt lat="42.1048464" lon="13.3527866"><ele>733.3333333333334</ele><time>2026-05-02T13:27:14.12Z</time></trkpt><trkpt lat="42.1049984" lon="13.3526678"><ele>736.6666666666666</ele><time>2026-05-02T13:27:15.121Z</time></trkpt><trkpt lat="42.1051427" lon="13.3525546"><ele>740.0</ele><time>2026-05-02T13:27:16.12Z</time></trkpt><trkpt lat="42.1052724" lon="13.3524446"><ele>740.0</ele><time>2026-05-02T13:27:17.121Z</time></trkpt><trkpt lat="42.1053943" lon="13.3523393"><ele>740.0</ele><time>2026-05-02T13:27:18.12Z</time></trkpt><trkpt lat="42.1055251" lon="13.3522325"><ele>740.0</ele><time>2026-05-02T13:27:19.121Z</time></trkpt><trkpt lat="42.105666" lon="13.3521262"><ele>741.0</ele><time>2026-05-02T13:27:20.12Z</time></trkpt><trkpt lat="42.1057939" lon="13.3520224"><ele>742.0</ele><time>2026-05-02T13:27:21.12Z</time></trkpt><trkpt lat="42.1059262" lon="13.3519202"><ele>743.0</ele><time>2026-05-02T13:27:22.12Z</time></trkpt><trkpt lat="42.1060501" lon="13.3518153"><ele>744.0</ele><time>2026-05-02T13:27:23.12Z</time></trkpt><trkpt lat="42.1061571" lon="13.351724"><ele>744.0</ele><time>2026-05-02T13:27:24.12Z</time></trkpt><trkpt lat="42.1062597" lon="13.3516369"><ele>744.0</ele><time>2026-05-02T13:27:25.12Z</time></trkpt><trkpt lat="42.1063499" lon="13.3515605"><ele>744.0</ele><time>2026-05-02T13:27:26.121Z</time></trkpt><trkpt lat="42.1064401" lon="13.3514981"><ele>744.0</ele><time>2026-05-02T13:27:27.122Z</time></trkpt><trkpt lat="42.1065475" lon="13.3514412"><ele>744.0</ele><time>2026-05-02T13:27:28.121Z</time></trkpt><trkpt lat="42.1066504" lon="13.3513968"><ele>744.5</ele><time>2026-05-02T13:27:29.121Z</time></trkpt><trkpt lat="42.1067334" lon="13.3513561"><ele>745.0</ele><time>2026-05-02T13:27:30.122Z</time></trkpt><trkpt lat="42.1068185" lon="13.3513209"><ele>745.5</ele><time>2026-05-02T13:27:31.121Z</time></trkpt><trkpt lat="42.1068857" lon="13.3512774"><ele>746.0</ele><time>2026-05-02T13:27:32.121Z</time></trkpt><trkpt lat="42.1069318" lon="13.3512028"><ele>746.5</ele><time>2026-05-02T13:27:33.12Z</time></trkpt><trkpt lat="42.1069653" lon="13.3510902"><ele>747.0</ele><time>2026-05-02T13:27:34.12Z</time></trkpt><trkpt lat="42.1069926" lon="13.3509463"><ele>747.0</ele><time>2026-05-02T13:27:35.12Z</time></trkpt><trkpt lat="42.107026" lon="13.3507885"><ele>747.0</ele><time>2026-05-02T13:27:36.12Z</time></trkpt><trkpt lat="42.1070558" lon="13.3506099"><ele>747.0</ele><time>2026-05-02T13:27:37.121Z</time></trkpt><trkpt lat="42.1070825" lon="13.3504623"><ele>747.0</ele><time>2026-05-02T13:27:38.121Z</time></trkpt><trkpt lat="42.107106" lon="13.3503376"><ele>747.4000000000001</ele><time>2026-05-02T13:27:39.12Z</time></trkpt><trkpt lat="42.1071302" lon="13.3502151"><ele>747.8000000000001</ele><time>2026-05-02T13:27:40.12Z</time></trkpt><trkpt lat="42.1071679" lon="13.3501093"><ele>748.2</ele><time>2026-05-02T13:27:41.12Z</time></trkpt><trkpt lat="42.1072205" lon="13.3499873"><ele>748.6</ele><time>2026-05-02T13:27:42.12Z</time></trkpt><trkpt lat="42.1072921" lon="13.3498732"><ele>749.0</ele><time>2026-05-02T13:27:43.12Z</time></trkpt><trkpt lat="42.1073777" lon="13.3497418"><ele>749.4000000000001</ele><time>2026-05-02T13:27:44.12Z</time></trkpt><trkpt lat="42.1074637" lon="13.3496172"><ele>749.8</ele><time>2026-05-02T13:27:45.121Z</time></trkpt><trkpt lat="42.1075367" lon="13.3495119"><ele>750.2</ele><time>2026-05-02T13:27:46.12Z</time></trkpt><trkpt lat="42.1076023" lon="13.3494259"><ele>750.5999999999999</ele><time>2026-05-02T13:27:47.12Z</time></trkpt><trkpt lat="42.1076719" lon="13.3493448"><ele>751.0</ele><time>2026-05-02T13:27:49.121Z</time></trkpt><trkpt lat="42.1077344" lon="13.3493234"><ele>751.0</ele><time>2026-05-02T13:27:52.122Z</time></trkpt><trkpt lat="42.1078085" lon="13.3493263"><ele>751.0</ele><time>2026-05-02T13:27:58.121Z</time></trkpt><trkpt lat="42.1079121" lon="13.3493178"><ele>751.0</ele><time>2026-05-02T13:31:47.12Z</time></trkpt><trkpt lat="42.1079981" lon="13.3493163"><ele>751.0</ele><time>2026-05-02T13:31:48.121Z</time></trkpt><trkpt lat="42.1080771" lon="13.3493184"><ele>751.0</ele><time>2026-05-02T13:31:49.12Z</time></trkpt><trkpt lat="42.1081608" lon="13.3493217"><ele>751.0</ele><time>2026-05-02T13:31:50.12Z</time></trkpt><trkpt lat="42.1082514" lon="13.3493273"><ele>752.1666666666667</ele><time>2026-05-02T13:31:51.121Z</time></trkpt><trkpt lat="42.108344" lon="13.3493265"><ele>753.3333333333334</ele><time>2026-05-02T13:31:52.121Z</time></trkpt><trkpt lat="42.108435" lon="13.3493386"><ele>754.5</ele><time>2026-05-02T13:31:53.12Z</time></trkpt><trkpt lat="42.1085271" lon="13.3493518"><ele>755.6666666666666</ele><time>2026-05-02T13:31:54.121Z</time></trkpt><trkpt lat="42.1086114" lon="13.3493439"><ele>756.8333333333333</ele><time>2026-05-02T13:31:55.12Z</time></trkpt><trkpt lat="42.1086987" lon="13.3493503"><ele>758.0</ele><time>2026-05-02T13:31:56.12Z</time></trkpt><trkpt lat="42.1087897" lon="13.3493653"><ele>758.0</ele><time>2026-05-02T13:31:57.121Z</time></trkpt><trkpt lat="42.1088807" lon="13.3493819"><ele>758.0</ele><time>2026-05-02T13:31:58.12Z</time></trkpt><trkpt lat="42.1089674" lon="13.3493842"><ele>758.0</ele><time>2026-05-02T13:31:59.121Z</time></trkpt><trkpt lat="42.1090401" lon="13.3493703"><ele>758.0</ele><time>2026-05-02T13:32:00.121Z</time></trkpt><trkpt lat="42.1091163" lon="13.3493517"><ele>758.0</ele><time>2026-05-02T13:32:01.121Z</time></trkpt><trkpt lat="42.1092103" lon="13.3493256"><ele>758.0</ele><time>2026-05-02T13:32:02.12Z</time></trkpt><trkpt lat="42.1093339" lon="13.3492962"><ele>758.8</ele><time>2026-05-02T13:32:03.122Z</time></trkpt><trkpt lat="42.1094271" lon="13.3492729"><ele>759.5999999999999</ele><time>2026-05-02T13:32:04.12Z</time></trkpt><trkpt lat="42.1095291" lon="13.3492336"><ele>760.4000000000001</ele><time>2026-05-02T13:32:05.12Z</time></trkpt><trkpt lat="42.1096185" lon="13.3491774"><ele>761.2</ele><time>2026-05-02T13:32:06.12Z</time></trkpt><trkpt lat="42.1097303" lon="13.3491344"><ele>762.0</ele><time>2026-05-02T13:32:07.12Z</time></trkpt><trkpt lat="42.1098321" lon="13.3490828"><ele>763.1666666666666</ele><time>2026-05-02T13:32:08.121Z</time></trkpt><trkpt lat="42.1099256" lon="13.3490489"><ele>764.3333333333333</ele><time>2026-05-02T13:32:09.121Z</time></trkpt><trkpt lat="42.1099877" lon="13.3489985"><ele>765.5</ele><time>2026-05-02T13:32:10.12Z</time></trkpt><trkpt lat="42.1100548" lon="13.3489298"><ele>766.6666666666666</ele><time>2026-05-02T13:32:11.12Z</time></trkpt><trkpt lat="42.1101208" lon="13.3488427"><ele>767.8333333333333</ele><time>2026-05-02T13:32:12.12Z</time></trkpt><trkpt lat="42.1101723" lon="13.3487651"><ele>769.0</ele><time>2026-05-02T13:32:13.121Z</time></trkpt><trkpt lat="42.1102327" lon="13.3486907"><ele>769.2</ele><time>2026-05-02T13:32:14.121Z</time></trkpt><trkpt lat="42.1102848" lon="13.3486246"><ele>769.4000000000001</ele><time>2026-05-02T13:32:15.121Z</time></trkpt><trkpt lat="42.1103969" lon="13.3485747"><ele>769.6</ele><time>2026-05-02T13:32:17.121Z</time></trkpt><trkpt lat="42.1104973" lon="13.3485801"><ele>769.8</ele><time>2026-05-02T13:32:18.12Z</time></trkpt><trkpt lat="42.1106384" lon="13.3486015"><ele>770.0</ele><time>2026-05-02T13:32:19.121Z</time></trkpt><trkpt lat="42.1107679" lon="13.3486108"><ele>771.5</ele><time>2026-05-02T13:32:20.12Z</time></trkpt><trkpt lat="42.110903" lon="13.3486243"><ele>773.0</ele><time>2026-05-02T13:32:21.121Z</time></trkpt><trkpt lat="42.1110626" lon="13.3486031"><ele>774.5</ele><time>2026-05-02T13:32:22.121Z</time></trkpt><trkpt lat="42.1111989" lon="13.3486144"><ele>776.0</ele><time>2026-05-02T13:32:23.121Z</time></trkpt><trkpt lat="42.1113455" lon="13.3486224"><ele>776.0</ele><time>2026-05-02T13:32:24.121Z</time></trkpt><trkpt lat="42.1114596" lon="13.3486361"><ele>776.0</ele><time>2026-05-02T13:32:25.121Z</time></trkpt><trkpt lat="42.1115616" lon="13.348621"><ele>776.0</ele><time>2026-05-02T13:32:26.12Z</time></trkpt><trkpt lat="42.1117024" lon="13.3486012"><ele>776.0</ele><time>2026-05-02T13:32:27.12Z</time></trkpt><trkpt lat="42.1118215" lon="13.3485752"><ele>776.5</ele><time>2026-05-02T13:32:28.12Z</time></trkpt><trkpt lat="42.1119368" lon="13.3485655"><ele>777.0</ele><time>2026-05-02T13:32:29.121Z</time></trkpt><trkpt lat="42.1120272" lon="13.3485631"><ele>777.5</ele><time>2026-05-02T13:32:30.12Z</time></trkpt><trkpt lat="42.1121477" lon="13.3485647"><ele>778.0</ele><time>2026-05-02T13:32:31.12Z</time></trkpt><trkpt lat="42.1122782" lon="13.3485761"><ele>780.25</ele><time>2026-05-02T13:32:32.12Z</time></trkpt><trkpt lat="42.1124087" lon="13.3485925"><ele>782.5</ele><time>2026-05-02T13:32:33.12Z</time></trkpt><trkpt lat="42.1125577" lon="13.3485795"><ele>784.75</ele><time>2026-05-02T13:32:34.121Z</time></trkpt><trkpt lat="42.1127126" lon="13.3485653"><ele>787.0</ele><time>2026-05-02T13:32:35.121Z</time></trkpt><trkpt lat="42.1128462" lon="13.348536"><ele>787.0</ele><time>2026-05-02T13:32:36.122Z</time></trkpt><trkpt lat="42.1130028" lon="13.3484851"><ele>787.0</ele><time>2026-05-02T13:32:37.121Z</time></trkpt><trkpt lat="42.1131349" lon="13.3484277"><ele>787.0</ele><time>2026-05-02T13:32:38.121Z</time></trkpt><trkpt lat="42.1132706" lon="13.3483672"><ele>787.0</ele><time>2026-05-02T13:32:39.121Z</time></trkpt><trkpt lat="42.1134009" lon="13.348289"><ele>788.0</ele><time>2026-05-02T13:32:40.121Z</time></trkpt><trkpt lat="42.1135338" lon="13.3482185"><ele>789.0</ele><time>2026-05-02T13:32:41.121Z</time></trkpt><trkpt lat="42.1136554" lon="13.3481558"><ele>790.0</ele><time>2026-05-02T13:32:42.121Z</time></trkpt><trkpt lat="42.1137798" lon="13.3480913"><ele>791.0</ele><time>2026-05-02T13:32:43.12Z</time></trkpt><trkpt lat="42.1139115" lon="13.348033"><ele>791.0</ele><time>2026-05-02T13:32:44.121Z</time></trkpt><trkpt lat="42.1140429" lon="13.3479757"><ele>791.0</ele><time>2026-05-02T13:32:45.122Z</time></trkpt><trkpt lat="42.1141577" lon="13.3478954"><ele>791.0</ele><time>2026-05-02T13:32:46.12Z</time></trkpt><trkpt lat="42.1142666" lon="13.3478331"><ele>791.0</ele><time>2026-05-02T13:32:47.121Z</time></trkpt><trkpt lat="42.1143674" lon="13.3477886"><ele>792.25</ele><time>2026-05-02T13:32:48.121Z</time></trkpt><trkpt lat="42.1144717" lon="13.3477595"><ele>793.5</ele><time>2026-05-02T13:32:49.121Z</time></trkpt><trkpt lat="42.1145937" lon="13.3477379"><ele>794.75</ele><time>2026-05-02T13:32:50.12Z</time></trkpt><trkpt lat="42.1147259" lon="13.3477241"><ele>796.0</ele><time>2026-05-02T13:32:51.12Z</time></trkpt><trkpt lat="42.1148651" lon="13.3477046"><ele>797.5</ele><time>2026-05-02T13:32:52.121Z</time></trkpt><trkpt lat="42.1149901" lon="13.3477007"><ele>799.0</ele><time>2026-05-02T13:32:53.121Z</time></trkpt><trkpt lat="42.1151165" lon="13.3476899"><ele>800.5</ele><time>2026-05-02T13:32:54.121Z</time></trkpt><trkpt lat="42.1152348" lon="13.3476678"><ele>802.0</ele><time>2026-05-02T13:32:55.121Z</time></trkpt><trkpt lat="42.1153443" lon="13.3476351"><ele>802.0</ele><time>2026-05-02T13:32:56.12Z</time></trkpt><trkpt lat="42.115446" lon="13.3475807"><ele>802.0</ele><time>2026-05-02T13:32:57.12Z</time></trkpt><trkpt lat="42.1155642" lon="13.3475076"><ele>802.0</ele><time>2026-05-02T13:32:58.12Z</time></trkpt><trkpt lat="42.1156911" lon="13.34742"><ele>802.0</ele><time>2026-05-02T13:32:59.12Z</time></trkpt><trkpt lat="42.1158299" lon="13.3473207"><ele>803.0</ele><time>2026-05-02T13:33:00.12Z</time></trkpt><trkpt lat="42.115968" lon="13.3472155"><ele>804.0</ele><time>2026-05-02T13:33:01.12Z</time></trkpt><trkpt lat="42.1160873" lon="13.3471196"><ele>805.0</ele><time>2026-05-02T13:33:02.12Z</time></trkpt><trkpt lat="42.1162181" lon="13.3470215"><ele>806.0</ele><time>2026-05-02T13:33:03.12Z</time></trkpt><trkpt lat="42.1163344" lon="13.346944"><ele>806.5</ele><time>2026-05-02T13:33:04.12Z</time></trkpt><trkpt lat="42.1164468" lon="13.3468806"><ele>807.0</ele><time>2026-05-02T13:33:05.121Z</time></trkpt><trkpt lat="42.1165602" lon="13.3468392"><ele>807.5</ele><time>2026-05-02T13:33:06.122Z</time></trkpt><trkpt lat="42.1166601" lon="13.3468066"><ele>808.0</ele><time>2026-05-02T13:33:07.12Z</time></trkpt><trkpt lat="42.1167781" lon="13.3467661"><ele>809.25</ele><time>2026-05-02T13:33:08.12Z</time></trkpt><trkpt lat="42.1169084" lon="13.3467188"><ele>810.5</ele><time>2026-05-02T13:33:09.12Z</time></trkpt><trkpt lat="42.1170505" lon="13.3466643"><ele>811.75</ele><time>2026-05-02T13:33:10.121Z</time></trkpt><trkpt lat="42.1171829" lon="13.3466097"><ele>813.0</ele><time>2026-05-02T13:33:11.12Z</time></trkpt><trkpt lat="42.1173032" lon="13.3465547"><ele>813.8</ele><time>2026-05-02T13:33:12.121Z</time></trkpt><trkpt lat="42.1174172" lon="13.3464982"><ele>814.5999999999999</ele><time>2026-05-02T13:33:13.121Z</time></trkpt><trkpt lat="42.1175223" lon="13.346437"><ele>815.4000000000001</ele><time>2026-05-02T13:33:14.12Z</time></trkpt><trkpt lat="42.1176213" lon="13.3463789"><ele>816.2</ele><time>2026-05-02T13:33:15.12Z</time></trkpt><trkpt lat="42.1177181" lon="13.3463299"><ele>817.0</ele><time>2026-05-02T13:33:16.121Z</time></trkpt><trkpt lat="42.1178101" lon="13.3462916"><ele>817.6</ele><time>2026-05-02T13:33:17.121Z</time></trkpt><trkpt lat="42.1179114" lon="13.346261"><ele>818.2</ele><time>2026-05-02T13:33:18.12Z</time></trkpt><trkpt lat="42.1180187" lon="13.3462344"><ele>818.8</ele><time>2026-05-02T13:33:19.12Z</time></trkpt><trkpt lat="42.1181292" lon="13.3462164"><ele>819.4</ele><time>2026-05-02T13:33:20.12Z</time></trkpt><trkpt lat="42.1182456" lon="13.346193"><ele>820.0</ele><time>2026-05-02T13:33:21.12Z</time></trkpt><trkpt lat="42.1183676" lon="13.3461661"><ele>821.0</ele><time>2026-05-02T13:33:22.12Z</time></trkpt><trkpt lat="42.1184965" lon="13.3461297"><ele>822.0</ele><time>2026-05-02T13:33:23.121Z</time></trkpt><trkpt lat="42.1186324" lon="13.3460849"><ele>823.0</ele><time>2026-05-02T13:33:24.12Z</time></trkpt><trkpt lat="42.1187723" lon="13.34604"><ele>824.0</ele><time>2026-05-02T13:33:25.12Z</time></trkpt><trkpt lat="42.1189188" lon="13.3459826"><ele>826.0</ele><time>2026-05-02T13:33:26.12Z</time></trkpt><trkpt lat="42.119073" lon="13.3459088"><ele>828.0</ele><time>2026-05-02T13:33:27.12Z</time></trkpt><trkpt lat="42.1192376" lon="13.3458331"><ele>830.0</ele><time>2026-05-02T13:33:28.121Z</time></trkpt><trkpt lat="42.1194224" lon="13.3457665"><ele>830.0</ele><time>2026-05-02T13:33:29.12Z</time></trkpt><trkpt lat="42.1196197" lon="13.3457023"><ele>830.0</ele><time>2026-05-02T13:33:30.12Z</time></trkpt><trkpt lat="42.1197981" lon="13.3456356"><ele>830.0</ele><time>2026-05-02T13:33:31.12Z</time></trkpt><trkpt lat="42.1199608" lon="13.3455587"><ele>833.3333333333334</ele><time>2026-05-02T13:33:32.12Z</time></trkpt><trkpt lat="42.1201117" lon="13.3454815"><ele>836.6666666666667</ele><time>2026-05-02T13:33:33.12Z</time></trkpt><trkpt lat="42.1202577" lon="13.3454065"><ele>840.0</ele><time>2026-05-02T13:33:34.121Z</time></trkpt><trkpt lat="42.1203967" lon="13.3453399"><ele>840.0</ele><time>2026-05-02T13:33:35.121Z</time></trkpt><trkpt lat="42.1205393" lon="13.3452825"><ele>840.0</ele><time>2026-05-02T13:33:36.121Z</time></trkpt><trkpt lat="42.1206926" lon="13.3452393"><ele>840.0</ele><time>2026-05-02T13:33:37.12Z</time></trkpt><trkpt lat="42.1208594" lon="13.3452124"><ele>841.3333333333333</ele><time>2026-05-02T13:33:38.121Z</time></trkpt><trkpt lat="42.1210313" lon="13.3451961"><ele>842.6666666666666</ele><time>2026-05-02T13:33:39.121Z</time></trkpt><trkpt lat="42.1211927" lon="13.3451737"><ele>844.0</ele><time>2026-05-02T13:33:40.12Z</time></trkpt><trkpt lat="42.1213359" lon="13.3451321"><ele>844.0</ele><time>2026-05-02T13:33:41.121Z</time></trkpt><trkpt lat="42.1214617" lon="13.3450779"><ele>844.0</ele><time>2026-05-02T13:33:42.121Z</time></trkpt><trkpt lat="42.121575" lon="13.3450117"><ele>844.0</ele><time>2026-05-02T13:33:43.12Z</time></trkpt><trkpt lat="42.1216898" lon="13.3449277"><ele>844.0</ele><time>2026-05-02T13:33:44.121Z</time></trkpt><trkpt lat="42.1218035" lon="13.3448539"><ele>844.8333333333333</ele><time>2026-05-02T13:33:45.12Z</time></trkpt><trkpt lat="42.1219026" lon="13.3447958"><ele>845.6666666666666</ele><time>2026-05-02T13:33:46.121Z</time></trkpt><trkpt lat="42.1219941" lon="13.3447505"><ele>846.5</ele><time>2026-05-02T13:33:47.12Z</time></trkpt><trkpt lat="42.1220753" lon="13.3447174"><ele>847.3333333333333</ele><time>2026-05-02T13:33:48.12Z</time></trkpt><trkpt lat="42.122151" lon="13.3446972"><ele>848.1666666666666</ele><time>2026-05-02T13:33:49.12Z</time></trkpt><trkpt lat="42.1222277" lon="13.3446903"><ele>849.0</ele><time>2026-05-02T13:33:50.121Z</time></trkpt><trkpt lat="42.1222919" lon="13.3447064"><ele>849.0</ele><time>2026-05-02T13:33:51.12Z</time></trkpt><trkpt lat="42.1223546" lon="13.3447325"><ele>849.0</ele><time>2026-05-02T13:33:52.121Z</time></trkpt><trkpt lat="42.122484" lon="13.3447522"><ele>849.0</ele><time>2026-05-02T13:33:54.121Z</time></trkpt><trkpt lat="42.1225611" lon="13.3447436"><ele>849.0</ele><time>2026-05-02T13:33:55.12Z</time></trkpt><trkpt lat="42.1226502" lon="13.3447129"><ele>849.0</ele><time>2026-05-02T13:33:56.12Z</time></trkpt><trkpt lat="42.1227407" lon="13.3446858"><ele>851.1666666666666</ele><time>2026-05-02T13:33:57.121Z</time></trkpt><trkpt lat="42.1228188" lon="13.3446641"><ele>853.3333333333333</ele><time>2026-05-02T13:33:58.121Z</time></trkpt><trkpt lat="42.1228839" lon="13.3446392"><ele>855.5</ele><time>2026-05-02T13:33:59.12Z</time></trkpt><trkpt lat="42.1229569" lon="13.3446142"><ele>857.6666666666666</ele><time>2026-05-02T13:34:00.12Z</time></trkpt><trkpt lat="42.1230357" lon="13.3445847"><ele>859.8333333333333</ele><time>2026-05-02T13:34:01.121Z</time></trkpt><trkpt lat="42.1231201" lon="13.3445382"><ele>862.0</ele><time>2026-05-02T13:34:02.121Z</time></trkpt><trkpt lat="42.1232069" lon="13.3444924"><ele>862.6</ele><time>2026-05-02T13:34:03.121Z</time></trkpt><trkpt lat="42.1232932" lon="13.3444601"><ele>863.2</ele><time>2026-05-02T13:34:04.122Z</time></trkpt><trkpt lat="42.1233752" lon="13.3444202"><ele>863.8</ele><time>2026-05-02T13:34:05.122Z</time></trkpt><trkpt lat="42.1234567" lon="13.3443719"><ele>864.4</ele><time>2026-05-02T13:34:06.12Z</time></trkpt><trkpt lat="42.1235392" lon="13.3443152"><ele>865.0</ele><time>2026-05-02T13:34:07.12Z</time></trkpt><trkpt lat="42.1236221" lon="13.3442596"><ele>865.0</ele><time>2026-05-02T13:34:08.121Z</time></trkpt><trkpt lat="42.1237124" lon="13.3442065"><ele>865.0</ele><time>2026-05-02T13:34:09.12Z</time></trkpt><trkpt lat="42.1238059" lon="13.3441557"><ele>865.0</ele><time>2026-05-02T13:34:10.12Z</time></trkpt><trkpt lat="42.1239027" lon="13.3441138"><ele>865.0</ele><time>2026-05-02T13:34:11.121Z</time></trkpt><trkpt lat="42.1240019" lon="13.3440808"><ele>865.0</ele><time>2026-05-02T13:34:12.12Z</time></trkpt><trkpt lat="42.1240973" lon="13.3440521"><ele>866.0</ele><time>2026-05-02T13:34:13.121Z</time></trkpt><trkpt lat="42.1241984" lon="13.3440261"><ele>867.0</ele><time>2026-05-02T13:34:14.121Z</time></trkpt><trkpt lat="42.1243037" lon="13.3439905"><ele>868.0</ele><time>2026-05-02T13:34:15.12Z</time></trkpt><trkpt lat="42.124409" lon="13.3439422"><ele>869.0</ele><time>2026-05-02T13:34:16.12Z</time></trkpt><trkpt lat="42.1245061" lon="13.3438883"><ele>870.0</ele><time>2026-05-02T13:34:17.12Z</time></trkpt><trkpt lat="42.1246075" lon="13.3438321"><ele>870.8</ele><time>2026-05-02T13:34:18.121Z</time></trkpt><trkpt lat="42.1247083" lon="13.3437814"><ele>871.6</ele><time>2026-05-02T13:34:19.121Z</time></trkpt><trkpt lat="42.1248033" lon="13.3437399"><ele>872.4000000000001</ele><time>2026-05-02T13:34:20.121Z</time></trkpt><trkpt lat="42.1248937" lon="13.3436973"><ele>873.2</ele><time>2026-05-02T13:34:21.12Z</time></trkpt><trkpt lat="42.1249749" lon="13.3436832"><ele>874.0</ele><time>2026-05-02T13:34:22.12Z</time></trkpt><trkpt lat="42.1250737" lon="13.3436391"><ele>873.9999999999999</ele><time>2026-05-02T13:34:24.121Z</time></trkpt><trkpt lat="42.1250503" lon="13.3434896"><ele>874.0</ele><time>2026-05-02T13:34:27.12Z</time></trkpt><trkpt lat="42.1250182" lon="13.3433889"><ele>874.0</ele><time>2026-05-02T13:34:28.121Z</time></trkpt><trkpt lat="42.1249729" lon="13.3432914"><ele>874.0</ele><time>2026-05-02T13:34:29.121Z</time></trkpt><trkpt lat="42.1249208" lon="13.3432222"><ele>873.9999999999999</ele><time>2026-05-02T13:34:30.121Z</time></trkpt><trkpt lat="42.1248578" lon="13.3431613"><ele>874.0</ele><time>2026-05-02T13:34:31.12Z</time></trkpt><trkpt lat="42.124779" lon="13.3431163"><ele>874.0</ele><time>2026-05-02T13:34:32.12Z</time></trkpt><trkpt lat="42.1246881" lon="13.3430506"><ele>874.0</ele><time>2026-05-02T13:34:33.12Z</time></trkpt><trkpt lat="42.1245775" lon="13.3429665"><ele>874.0</ele><time>2026-05-02T13:34:34.12Z</time></trkpt><trkpt lat="42.1244612" lon="13.3428883"><ele>874.0</ele><time>2026-05-02T13:34:35.121Z</time></trkpt><trkpt lat="42.1243509" lon="13.3428176"><ele>876.4000000000001</ele><time>2026-05-02T13:34:36.121Z</time></trkpt><trkpt lat="42.1242443" lon="13.3427539"><ele>878.8000000000001</ele><time>2026-05-02T13:34:37.12Z</time></trkpt><trkpt lat="42.1241373" lon="13.3426884"><ele>881.1999999999999</ele><time>2026-05-02T13:34:38.121Z</time></trkpt><trkpt lat="42.1240445" lon="13.3426318"><ele>883.5999999999999</ele><time>2026-05-02T13:34:39.121Z</time></trkpt><trkpt lat="42.1239569" lon="13.3425823"><ele>886.0</ele><time>2026-05-02T13:34:40.12Z</time></trkpt><trkpt lat="42.1238782" lon="13.3425348"><ele>885.9999999999999</ele><time>2026-05-02T13:34:41.121Z</time></trkpt><trkpt lat="42.1237905" lon="13.342481"><ele>886.0</ele><time>2026-05-02T13:34:42.121Z</time></trkpt><trkpt lat="42.1236999" lon="13.3424349"><ele>886.0</ele><time>2026-05-02T13:34:43.12Z</time></trkpt><trkpt lat="42.1236347" lon="13.3424033"><ele>886.0</ele><time>2026-05-02T13:34:44.12Z</time></trkpt><trkpt lat="42.1235692" lon="13.3423545"><ele>885.9999999999999</ele><time>2026-05-02T13:34:46.12Z</time></trkpt><trkpt lat="42.123635" lon="13.3423103"><ele>886.0</ele><time>2026-05-02T13:34:49.121Z</time></trkpt><trkpt lat="42.1237119" lon="13.3423256"><ele>886.0</ele><time>2026-05-02T13:34:50.121Z</time></trkpt><trkpt lat="42.1237879" lon="13.3423182"><ele>885.9999999999999</ele><time>2026-05-02T13:34:51.121Z</time></trkpt><trkpt lat="42.1238727" lon="13.3422727"><ele>885.9999999999999</ele><time>2026-05-02T13:34:52.121Z</time></trkpt><trkpt lat="42.1239618" lon="13.3422433"><ele>886.0</ele><time>2026-05-02T13:34:53.12Z</time></trkpt><trkpt lat="42.1240622" lon="13.3422062"><ele>886.0</ele><time>2026-05-02T13:34:54.12Z</time></trkpt><trkpt lat="42.1241709" lon="13.3421672"><ele>886.4</ele><time>2026-05-02T13:34:55.12Z</time></trkpt><trkpt lat="42.1242641" lon="13.3421421"><ele>886.8</ele><time>2026-05-02T13:34:56.121Z</time></trkpt><trkpt lat="42.12436" lon="13.3421342"><ele>887.1999999999999</ele><time>2026-05-02T13:34:57.12Z</time></trkpt><trkpt lat="42.1244591" lon="13.3421503"><ele>887.5999999999999</ele><time>2026-05-02T13:34:58.121Z</time></trkpt><trkpt lat="42.1245719" lon="13.3422029"><ele>888.0</ele><time>2026-05-02T13:34:59.121Z</time></trkpt><trkpt lat="42.1246845" lon="13.3422514"><ele>888.0</ele><time>2026-05-02T13:35:00.12Z</time></trkpt><trkpt lat="42.1247863" lon="13.3422873"><ele>888.0</ele><time>2026-05-02T13:35:01.121Z</time></trkpt><trkpt lat="42.1248892" lon="13.3423072"><ele>888.0</ele><time>2026-05-02T13:35:02.12Z</time></trkpt><trkpt lat="42.1250087" lon="13.3423155"><ele>888.0</ele><time>2026-05-02T13:35:03.12Z</time></trkpt><trkpt lat="42.1251395" lon="13.3423129"><ele>888.0</ele><time>2026-05-02T13:35:04.12Z</time></trkpt><trkpt lat="42.1252776" lon="13.3422999"><ele>888.0</ele><time>2026-05-02T13:35:05.12Z</time></trkpt><trkpt lat="42.1254178" lon="13.3422603"><ele>888.0</ele><time>2026-05-02T13:35:06.12Z</time></trkpt><trkpt lat="42.125544" lon="13.3422274"><ele>888.0</ele><time>2026-05-02T13:35:07.121Z</time></trkpt><trkpt lat="42.1256685" lon="13.3421958"><ele>893.5</ele><time>2026-05-02T13:35:08.12Z</time></trkpt><trkpt lat="42.1258038" lon="13.3421482"><ele>899.0</ele><time>2026-05-02T13:35:09.121Z</time></trkpt><trkpt lat="42.1259479" lon="13.3420905"><ele>904.5</ele><time>2026-05-02T13:35:10.122Z</time></trkpt><trkpt lat="42.1260756" lon="13.3420382"><ele>910.0</ele><time>2026-05-02T13:35:11.122Z</time></trkpt><trkpt lat="42.1262023" lon="13.3419826"><ele>910.0</ele><time>2026-05-02T13:35:12.12Z</time></trkpt><trkpt lat="42.1263419" lon="13.3419244"><ele>910.0</ele><time>2026-05-02T13:35:13.12Z</time></trkpt><trkpt lat="42.1264701" lon="13.3418687"><ele>910.0</ele><time>2026-05-02T13:35:14.12Z</time></trkpt><trkpt lat="42.1265963" lon="13.3418076"><ele>910.0</ele><time>2026-05-02T13:35:15.121Z</time></trkpt><trkpt lat="42.1267375" lon="13.3417464"><ele>906.3333333333333</ele><time>2026-05-02T13:35:16.12Z</time></trkpt><trkpt lat="42.126887" lon="13.3416882"><ele>902.6666666666667</ele><time>2026-05-02T13:35:17.12Z</time></trkpt><trkpt lat="42.1270346" lon="13.3416566"><ele>899.0</ele><time>2026-05-02T13:35:18.121Z</time></trkpt><trkpt lat="42.1271963" lon="13.3416389"><ele>899.0</ele><time>2026-05-02T13:35:19.121Z</time></trkpt><trkpt lat="42.1273617" lon="13.3416318"><ele>899.0</ele><time>2026-05-02T13:35:20.12Z</time></trkpt><trkpt lat="42.1275245" lon="13.3416427"><ele>899.0</ele><time>2026-05-02T13:35:21.12Z</time></trkpt><trkpt lat="42.127673" lon="13.341658"><ele>899.4000000000001</ele><time>2026-05-02T13:35:22.122Z</time></trkpt><trkpt lat="42.1278032" lon="13.3416771"><ele>899.8000000000001</ele><time>2026-05-02T13:35:23.12Z</time></trkpt><trkpt lat="42.1279066" lon="13.3416988"><ele>900.1999999999999</ele><time>2026-05-02T13:35:24.121Z</time></trkpt><trkpt lat="42.127985" lon="13.3417275"><ele>900.5999999999999</ele><time>2026-05-02T13:35:25.121Z</time></trkpt><trkpt lat="42.1280527" lon="13.3417586"><ele>901.0</ele><time>2026-05-02T13:35:26.121Z</time></trkpt><trkpt lat="42.1281553" lon="13.3417803"><ele>902.3333333333333</ele><time>2026-05-02T13:35:28.121Z</time></trkpt><trkpt lat="42.1282539" lon="13.3417247"><ele>903.6666666666666</ele><time>2026-05-02T13:35:30.12Z</time></trkpt><trkpt lat="42.128309" lon="13.341682"><ele>905.0</ele><time>2026-05-02T13:35:31.121Z</time></trkpt><trkpt lat="42.1283693" lon="13.3416404"><ele>906.3333333333333</ele><time>2026-05-02T13:35:32.121Z</time></trkpt><trkpt lat="42.1284407" lon="13.3415991"><ele>907.6666666666666</ele><time>2026-05-02T13:35:33.12Z</time></trkpt><trkpt lat="42.1285232" lon="13.341548"><ele>909.0</ele><time>2026-05-02T13:35:34.12Z</time></trkpt><trkpt lat="42.1286102" lon="13.3415"><ele>909.0</ele><time>2026-05-02T13:35:35.12Z</time></trkpt><trkpt lat="42.1286998" lon="13.3414168"><ele>909.0000000000001</ele><time>2026-05-02T13:35:36.121Z</time></trkpt><trkpt lat="42.1287914" lon="13.3413121"><ele>909.0000000000001</ele><time>2026-05-02T13:35:37.121Z</time></trkpt><trkpt lat="42.1288724" lon="13.3412307"><ele>909.0</ele><time>2026-05-02T13:35:38.121Z</time></trkpt><trkpt lat="42.1289474" lon="13.3411308"><ele>909.0</ele><time>2026-05-02T13:35:39.121Z</time></trkpt><trkpt lat="42.1290148" lon="13.3410279"><ele>911.0</ele><time>2026-05-02T13:35:40.12Z</time></trkpt><trkpt lat="42.1290847" lon="13.3409384"><ele>913.0000000000001</ele><time>2026-05-02T13:35:41.122Z</time></trkpt><trkpt lat="42.1291588" lon="13.3408519"><ele>915.0000000000001</ele><time>2026-05-02T13:35:42.122Z</time></trkpt><trkpt lat="42.1292405" lon="13.3407563"><ele>917.0</ele><time>2026-05-02T13:35:43.121Z</time></trkpt><trkpt lat="42.1293128" lon="13.3406541"><ele>919.0</ele><time>2026-05-02T13:35:44.121Z</time></trkpt><trkpt lat="42.1293868" lon="13.3405682"><ele>924.0</ele><time>2026-05-02T13:35:45.12Z</time></trkpt><trkpt lat="42.1294367" lon="13.3404757"><ele>929.0</ele><time>2026-05-02T13:35:46.12Z</time></trkpt><trkpt lat="42.1295045" lon="13.3403599"><ele>934.0</ele><time>2026-05-02T13:35:47.12Z</time></trkpt><trkpt lat="42.1295899" lon="13.3402282"><ele>939.0</ele><time>2026-05-02T13:35:48.122Z</time></trkpt><trkpt lat="42.12968" lon="13.3400969"><ele>939.0</ele><time>2026-05-02T13:35:49.121Z</time></trkpt><trkpt lat="42.1297567" lon="13.3399849"><ele>939.0000000000001</ele><time>2026-05-02T13:35:50.12Z</time></trkpt><trkpt lat="42.129822" lon="13.3398811"><ele>939.0000000000001</ele><time>2026-05-02T13:35:51.122Z</time></trkpt><trkpt lat="42.129878" lon="13.3397893"><ele>939.0</ele><time>2026-05-02T13:35:52.121Z</time></trkpt><trkpt lat="42.1299279" lon="13.33968"><ele>939.0</ele><time>2026-05-02T13:35:53.121Z</time></trkpt><trkpt lat="42.1299667" lon="13.3395769"><ele>937.6666666666666</ele><time>2026-05-02T13:35:54.12Z</time></trkpt><trkpt lat="42.1299976" lon="13.3394779"><ele>936.3333333333333</ele><time>2026-05-02T13:35:55.121Z</time></trkpt><trkpt lat="42.1300417" lon="13.3394066"><ele>935.0</ele><time>2026-05-02T13:35:56.12Z</time></trkpt><trkpt lat="42.1301294" lon="13.3393146"><ele>933.6666666666666</ele><time>2026-05-02T13:35:58.121Z</time></trkpt><trkpt lat="42.1301902" lon="13.339273"><ele>932.3333333333333</ele><time>2026-05-02T13:35:59.121Z</time></trkpt><trkpt lat="42.1302506" lon="13.3392258"><ele>931.0</ele><time>2026-05-02T13:36:00.121Z</time></trkpt><trkpt lat="42.1303073" lon="13.3391742"><ele>931.0</ele><time>2026-05-02T13:36:01.121Z</time></trkpt><trkpt lat="42.1303869" lon="13.3391139"><ele>930.9999999999999</ele><time>2026-05-02T13:36:02.121Z</time></trkpt><trkpt lat="42.1304721" lon="13.3390762"><ele>930.9999999999999</ele><time>2026-05-02T13:36:03.121Z</time></trkpt><trkpt lat="42.1305773" lon="13.339054"><ele>931.0</ele><time>2026-05-02T13:36:04.122Z</time></trkpt><trkpt lat="42.1306719" lon="13.3390224"><ele>931.0</ele><time>2026-05-02T13:36:05.121Z</time></trkpt><trkpt lat="42.1308081" lon="13.3390052"><ele>932.75</ele><time>2026-05-02T13:36:06.12Z</time></trkpt><trkpt lat="42.1309194" lon="13.3389822"><ele>934.5</ele><time>2026-05-02T13:36:07.12Z</time></trkpt><trkpt lat="42.1310384" lon="13.3389493"><ele>936.25</ele><time>2026-05-02T13:36:08.12Z</time></trkpt><trkpt lat="42.1311499" lon="13.3389026"><ele>938.0</ele><time>2026-05-02T13:36:09.121Z</time></trkpt><trkpt lat="42.1312644" lon="13.3388562"><ele>941.8</ele><time>2026-05-02T13:36:10.12Z</time></trkpt><trkpt lat="42.131376" lon="13.3388188"><ele>945.5999999999999</ele><time>2026-05-02T13:36:11.121Z</time></trkpt><trkpt lat="42.1314844" lon="13.3387873"><ele>949.4000000000001</ele><time>2026-05-02T13:36:12.122Z</time></trkpt><trkpt lat="42.131595" lon="13.33875"><ele>953.2</ele><time>2026-05-02T13:36:13.12Z</time></trkpt><trkpt lat="42.1316956" lon="13.3387069"><ele>957.0</ele><time>2026-05-02T13:36:14.12Z</time></trkpt><trkpt lat="42.1317889" lon="13.3386497"><ele>957.0</ele><time>2026-05-02T13:36:15.121Z</time></trkpt><trkpt lat="42.1318905" lon="13.3385775"><ele>957.0</ele><time>2026-05-02T13:36:16.121Z</time></trkpt><trkpt lat="42.1319952" lon="13.3385026"><ele>957.0</ele><time>2026-05-02T13:36:17.121Z</time></trkpt><trkpt lat="42.1320947" lon="13.3384279"><ele>957.0</ele><time>2026-05-02T13:36:18.12Z</time></trkpt><trkpt lat="42.1321837" lon="13.3383794"><ele>957.0</ele><time>2026-05-02T13:36:19.121Z</time></trkpt><trkpt lat="42.1322871" lon="13.3383385"><ele>957.0</ele><time>2026-05-02T13:36:20.12Z</time></trkpt><trkpt lat="42.1323859" lon="13.3383033"><ele>957.0</ele><time>2026-05-02T13:36:21.12Z</time></trkpt><trkpt lat="42.1324899" lon="13.3382596"><ele>957.0</ele><time>2026-05-02T13:36:22.12Z</time></trkpt><trkpt lat="42.1325864" lon="13.3382162"><ele>957.0</ele><time>2026-05-02T13:36:23.121Z</time></trkpt><trkpt lat="42.1326852" lon="13.3381691"><ele>957.0</ele><time>2026-05-02T13:36:24.121Z</time></trkpt><trkpt lat="42.1327817" lon="13.3381189"><ele>955.8</ele><time>2026-05-02T13:36:25.12Z</time></trkpt><trkpt lat="42.1328861" lon="13.3380729"><ele>954.6</ele><time>2026-05-02T13:36:26.121Z</time></trkpt><trkpt lat="42.1329962" lon="13.338028"><ele>953.3999999999999</ele><time>2026-05-02T13:36:27.121Z</time></trkpt><trkpt lat="42.1330881" lon="13.337991"><ele>952.1999999999999</ele><time>2026-05-02T13:36:28.121Z</time></trkpt><trkpt lat="42.1331937" lon="13.3380008"><ele>951.0</ele><time>2026-05-02T13:36:30.12Z</time></trkpt><trkpt lat="42.1332758" lon="13.3379889"><ele>956.0</ele><time>2026-05-02T13:36:32.121Z</time></trkpt><trkpt lat="42.1333585" lon="13.3379799"><ele>961.0</ele><time>2026-05-02T13:36:35.121Z</time></trkpt><trkpt lat="42.1334319" lon="13.3379703"><ele>966.0</ele><time>2026-05-02T13:37:57.12Z</time></trkpt><trkpt lat="42.1335033" lon="13.3379899"><ele>971.0</ele><time>2026-05-02T13:38:03.12Z</time></trkpt><trkpt lat="42.1335735" lon="13.3379917"><ele>976.0</ele><time>2026-05-02T13:38:06.12Z</time></trkpt><trkpt lat="42.1336391" lon="13.3379795"><ele>981.0</ele><time>2026-05-02T13:38:08.12Z</time></trkpt><trkpt lat="42.1337353" lon="13.3380069"><ele>981.0</ele><time>2026-05-02T13:38:10.119Z</time></trkpt><trkpt lat="42.1338046" lon="13.3380156"><ele>981.0</ele><time>2026-05-02T13:38:11.12Z</time></trkpt><trkpt lat="42.1338841" lon="13.3380277"><ele>981.0</ele><time>2026-05-02T13:38:12.12Z</time></trkpt><trkpt lat="42.1339637" lon="13.3380456"><ele>981.0</ele><time>2026-05-02T13:38:13.12Z</time></trkpt><trkpt lat="42.1340902" lon="13.33806"><ele>981.0</ele><time>2026-05-02T13:38:15.119Z</time></trkpt><trkpt lat="42.1341528" lon="13.3380352"><ele>981.0</ele><time>2026-05-02T13:38:16.119Z</time></trkpt><trkpt lat="42.1342209" lon="13.3380073"><ele>981.1666666666666</ele><time>2026-05-02T13:38:17.119Z</time></trkpt><trkpt lat="42.134307" lon="13.3379741"><ele>981.3333333333333</ele><time>2026-05-02T13:38:18.12Z</time></trkpt><trkpt lat="42.1344015" lon="13.3379313"><ele>981.5</ele><time>2026-05-02T13:38:19.12Z</time></trkpt><trkpt lat="42.1344731" lon="13.3378804"><ele>981.6666666666666</ele><time>2026-05-02T13:38:20.119Z</time></trkpt><trkpt lat="42.1345357" lon="13.3378232"><ele>981.8333333333333</ele><time>2026-05-02T13:38:21.119Z</time></trkpt><trkpt lat="42.1346094" lon="13.3377479"><ele>982.0</ele><time>2026-05-02T13:38:22.12Z</time></trkpt><trkpt lat="42.1347016" lon="13.3376453"><ele>982.0</ele><time>2026-05-02T13:38:23.119Z</time></trkpt><trkpt lat="42.1348063" lon="13.3375193"><ele>982.0</ele><time>2026-05-02T13:38:24.119Z</time></trkpt><trkpt lat="42.134925" lon="13.3373818"><ele>982.0</ele><time>2026-05-02T13:38:25.12Z</time></trkpt><trkpt lat="42.135042" lon="13.337231"><ele>986.25</ele><time>2026-05-02T13:38:26.121Z</time></trkpt><trkpt lat="42.1351508" lon="13.3371013"><ele>990.5</ele><time>2026-05-02T13:38:27.119Z</time></trkpt><trkpt lat="42.1352558" lon="13.3369876"><ele>994.75</ele><time>2026-05-02T13:38:28.12Z</time></trkpt><trkpt lat="42.1353533" lon="13.3368899"><ele>999.0</ele><time>2026-05-02T13:38:29.12Z</time></trkpt><trkpt lat="42.1354561" lon="13.3367967"><ele>999.0</ele><time>2026-05-02T13:38:30.121Z</time></trkpt><trkpt lat="42.1355463" lon="13.3367248"><ele>999.0</ele><time>2026-05-02T13:38:31.119Z</time></trkpt><trkpt lat="42.1356243" lon="13.3366532"><ele>999.0</ele><time>2026-05-02T13:38:32.119Z</time></trkpt><trkpt lat="42.1356779" lon="13.3366085"><ele>999.0</ele><time>2026-05-02T13:38:33.12Z</time></trkpt><trkpt lat="42.1357363" lon="13.336564"><ele>999.0</ele><time>2026-05-02T13:38:34.119Z</time></trkpt><trkpt lat="42.1357908" lon="13.3365081"><ele>999.0</ele><time>2026-05-02T13:38:35.119Z</time></trkpt><trkpt lat="42.1358287" lon="13.336425"><ele>1001.5</ele><time>2026-05-02T13:38:36.119Z</time></trkpt><trkpt lat="42.1358924" lon="13.3363335"><ele>1004.0</ele><time>2026-05-02T13:38:37.12Z</time></trkpt><trkpt lat="42.1359492" lon="13.3362606"><ele>1006.5</ele><time>2026-05-02T13:38:38.12Z</time></trkpt><trkpt lat="42.135991" lon="13.3361911"><ele>1009.0</ele><time>2026-05-02T13:38:39.119Z</time></trkpt><trkpt lat="42.1360331" lon="13.3361145"><ele>1011.5</ele><time>2026-05-02T13:38:40.119Z</time></trkpt><trkpt lat="42.1360789" lon="13.3360412"><ele>1014.0</ele><time>2026-05-02T13:38:41.121Z</time></trkpt><trkpt lat="42.1361545" lon="13.3359207"><ele>1014.0</ele><time>2026-05-02T13:38:43.119Z</time></trkpt><trkpt lat="42.1362133" lon="13.3358621"><ele>1014.0</ele><time>2026-05-02T13:38:44.119Z</time></trkpt><trkpt lat="42.1362624" lon="13.3357773"><ele>1014.0</ele><time>2026-05-02T13:38:45.121Z</time></trkpt><trkpt lat="42.1363027" lon="13.3357098"><ele>1014.0</ele><time>2026-05-02T13:38:46.12Z</time></trkpt><trkpt lat="42.1363443" lon="13.33563"><ele>1014.0</ele><time>2026-05-02T13:38:47.12Z</time></trkpt><trkpt lat="42.1363953" lon="13.335526"><ele>1014.0</ele><time>2026-05-02T13:38:49.12Z</time></trkpt><trkpt lat="42.1363861" lon="13.3354016"><ele>1018.6</ele><time>2026-05-02T13:38:51.121Z</time></trkpt><trkpt lat="42.1363793" lon="13.3353008"><ele>1023.2</ele><time>2026-05-02T13:38:52.121Z</time></trkpt><trkpt lat="42.1363801" lon="13.3351785"><ele>1027.8000000000002</ele><time>2026-05-02T13:38:53.121Z</time></trkpt><trkpt lat="42.1363881" lon="13.3350384"><ele>1032.4</ele><time>2026-05-02T13:38:54.119Z</time></trkpt><trkpt lat="42.1363927" lon="13.3349257"><ele>1037.0</ele><time>2026-05-02T13:38:55.12Z</time></trkpt><trkpt lat="42.1363717" lon="13.3347713"><ele>1041.2</ele><time>2026-05-02T13:38:57.12Z</time></trkpt><trkpt lat="42.1363288" lon="13.3346143"><ele>1045.4</ele><time>2026-05-02T13:38:59.12Z</time></trkpt><trkpt lat="42.1363392" lon="13.3345016"><ele>1049.6</ele><time>2026-05-02T13:39:01.121Z</time></trkpt><trkpt lat="42.1363695" lon="13.3344186"><ele>1053.8</ele><time>2026-05-02T13:39:03.12Z</time></trkpt><trkpt lat="42.136422" lon="13.3343127"><ele>1058.0</ele><time>2026-05-02T13:39:05.12Z</time></trkpt><trkpt lat="42.1364747" lon="13.3342273"><ele>1058.0</ele><time>2026-05-02T13:39:07.119Z</time></trkpt><trkpt lat="42.1364711" lon="13.3341343"><ele>1058.0</ele><time>2026-05-02T13:39:11.12Z</time></trkpt><trkpt lat="42.1363617" lon="13.3341131"><ele>1058.0</ele><time>2026-05-02T13:39:13.119Z</time></trkpt><trkpt lat="42.136283" lon="13.334089"><ele>1058.0</ele><time>2026-05-02T13:39:16.12Z</time></trkpt><trkpt lat="42.1361818" lon="13.3341215"><ele>1058.0</ele><time>2026-05-02T13:39:23.12Z</time></trkpt><trkpt lat="42.1360828" lon="13.3341802"><ele>1058.0</ele><time>2026-05-02T13:39:25.121Z</time></trkpt><trkpt lat="42.1359937" lon="13.3342684"><ele>1058.0</ele><time>2026-05-02T13:39:27.119Z</time></trkpt><trkpt lat="42.1359343" lon="13.3343287"><ele>1058.0</ele><time>2026-05-02T13:39:29.12Z</time></trkpt><trkpt lat="42.1360175" lon="13.3342541"><ele>1058.0</ele><time>2026-05-02T13:39:48.119Z</time></trkpt><trkpt lat="42.136115" lon="13.3341516"><ele>1058.0</ele><time>2026-05-02T13:39:50.121Z</time></trkpt><trkpt lat="42.1362066" lon="13.3341062"><ele>1058.0</ele><time>2026-05-02T13:39:52.12Z</time></trkpt><trkpt lat="42.1362578" lon="13.3340513"><ele>1058.0</ele><time>2026-05-02T13:39:55.119Z</time></trkpt><trkpt lat="42.1362634" lon="13.3339186"><ele>1058.0</ele><time>2026-05-02T13:39:58.12Z</time></trkpt><trkpt lat="42.1362762" lon="13.3337839"><ele>1058.0</ele><time>2026-05-02T13:40:00.12Z</time></trkpt><trkpt lat="42.1362992" lon="13.3336218"><ele>1058.0</ele><time>2026-05-02T13:40:02.121Z</time></trkpt><trkpt lat="42.1363364" lon="13.333461"><ele>1061.6666666666667</ele><time>2026-05-02T13:40:04.119Z</time></trkpt><trkpt lat="42.1363605" lon="13.3333799"><ele>1065.3333333333335</ele><time>2026-05-02T13:40:05.119Z</time></trkpt><trkpt lat="42.1363812" lon="13.3332982"><ele>1069.0</ele><time>2026-05-02T13:40:06.119Z</time></trkpt><trkpt lat="42.1363985" lon="13.3331482"><ele>1072.6666666666667</ele><time>2026-05-02T13:40:08.119Z</time></trkpt><trkpt lat="42.1363993" lon="13.3330622"><ele>1076.3333333333333</ele><time>2026-05-02T13:40:09.12Z</time></trkpt><trkpt lat="42.1364053" lon="13.3328989"><ele>1080.0</ele><time>2026-05-02T13:40:11.119Z</time></trkpt><trkpt lat="42.136401" lon="13.3328101"><ele>1083.4</ele><time>2026-05-02T13:40:12.119Z</time></trkpt><trkpt lat="42.136388" lon="13.3326375"><ele>1086.8</ele><time>2026-05-02T13:40:14.119Z</time></trkpt><trkpt lat="42.1363773" lon="13.3325387"><ele>1090.2</ele><time>2026-05-02T13:40:15.12Z</time></trkpt><trkpt lat="42.136365" lon="13.3324246"><ele>1093.6</ele><time>2026-05-02T13:40:16.12Z</time></trkpt><trkpt lat="42.1363569" lon="13.3322965"><ele>1097.0</ele><time>2026-05-02T13:40:17.12Z</time></trkpt><trkpt lat="42.1363644" lon="13.3321743"><ele>1097.4</ele><time>2026-05-02T13:40:18.121Z</time></trkpt><trkpt lat="42.1363915" lon="13.3320533"><ele>1097.8000000000002</ele><time>2026-05-02T13:40:19.119Z</time></trkpt><trkpt lat="42.1364305" lon="13.3319417"><ele>1098.2</ele><time>2026-05-02T13:40:20.119Z</time></trkpt><trkpt lat="42.1364765" lon="13.3318439"><ele>1098.6000000000001</ele><time>2026-05-02T13:40:21.12Z</time></trkpt><trkpt lat="42.1365221" lon="13.3317549"><ele>1099.0</ele><time>2026-05-02T13:40:22.12Z</time></trkpt><trkpt lat="42.1365788" lon="13.3316304"><ele>1099.0</ele><time>2026-05-02T13:40:24.119Z</time></trkpt><trkpt lat="42.1366038" lon="13.3315173"><ele>1099.0</ele><time>2026-05-02T13:40:26.12Z</time></trkpt><trkpt lat="42.1365985" lon="13.3314319"><ele>1099.0</ele><time>2026-05-02T13:40:28.119Z</time></trkpt><trkpt lat="42.1365032" lon="13.3313746"><ele>1099.0</ele><time>2026-05-02T13:40:31.119Z</time></trkpt><trkpt lat="42.1363973" lon="13.3313375"><ele>1099.0</ele><time>2026-05-02T13:40:33.119Z</time></trkpt><trkpt lat="42.1363118" lon="13.3313158"><ele>1100.6666666666665</ele><time>2026-05-02T13:40:35.12Z</time></trkpt><trkpt lat="42.136216" lon="13.3312805"><ele>1102.3333333333333</ele><time>2026-05-02T13:40:37.12Z</time></trkpt><trkpt lat="42.1361497" lon="13.3312586"><ele>1104.0</ele><time>2026-05-02T13:40:38.119Z</time></trkpt><trkpt lat="42.1360768" lon="13.3312327"><ele>1105.6666666666667</ele><time>2026-05-02T13:40:39.119Z</time></trkpt><trkpt lat="42.1359979" lon="13.331203"><ele>1107.3333333333335</ele><time>2026-05-02T13:40:40.119Z</time></trkpt><trkpt lat="42.1359169" lon="13.331176"><ele>1109.0</ele><time>2026-05-02T13:40:41.119Z</time></trkpt><trkpt lat="42.1358466" lon="13.3311623"><ele>1109.0</ele><time>2026-05-02T13:40:42.12Z</time></trkpt><trkpt lat="42.1357673" lon="13.3311522"><ele>1109.0</ele><time>2026-05-02T13:40:43.119Z</time></trkpt><trkpt lat="42.1356515" lon="13.331193"><ele>1109.0</ele><time>2026-05-02T13:40:45.12Z</time></trkpt><trkpt lat="42.1355519" lon="13.3312954"><ele>1109.0</ele><time>2026-05-02T13:40:47.119Z</time></trkpt><trkpt lat="42.1354907" lon="13.3313636"><ele>1109.0</ele><time>2026-05-02T13:40:48.119Z</time></trkpt><trkpt lat="42.1354278" lon="13.3314261"><ele>1108.5</ele><time>2026-05-02T13:40:49.121Z</time></trkpt><trkpt lat="42.1353642" lon="13.3314908"><ele>1108.0</ele><time>2026-05-02T13:40:50.12Z</time></trkpt><trkpt lat="42.1352888" lon="13.3315514"><ele>1107.5</ele><time>2026-05-02T13:40:51.119Z</time></trkpt><trkpt lat="42.1351999" lon="13.3316"><ele>1107.0</ele><time>2026-05-02T13:40:52.119Z</time></trkpt><trkpt lat="42.1351161" lon="13.331633"><ele>1106.5</ele><time>2026-05-02T13:40:53.12Z</time></trkpt><trkpt lat="42.1350335" lon="13.3316598"><ele>1106.0</ele><time>2026-05-02T13:40:54.121Z</time></trkpt><trkpt lat="42.1349535" lon="13.3316943"><ele>1105.1666666666667</ele><time>2026-05-02T13:40:55.119Z</time></trkpt><trkpt lat="42.1348799" lon="13.3317376"><ele>1104.3333333333335</ele><time>2026-05-02T13:40:56.12Z</time></trkpt><trkpt lat="42.1348101" lon="13.3317931"><ele>1103.5</ele><time>2026-05-02T13:40:57.119Z</time></trkpt><trkpt lat="42.1347421" lon="13.3318415"><ele>1102.6666666666667</ele><time>2026-05-02T13:40:58.12Z</time></trkpt><trkpt lat="42.134673" lon="13.331897"><ele>1101.8333333333333</ele><time>2026-05-02T13:40:59.119Z</time></trkpt><trkpt lat="42.134594" lon="13.331957"><ele>1101.0</ele><time>2026-05-02T13:41:00.119Z</time></trkpt><trkpt lat="42.1345173" lon="13.331996"><ele>1101.0</ele><time>2026-05-02T13:41:01.12Z</time></trkpt><trkpt lat="42.1344382" lon="13.3320158"><ele>1101.0</ele><time>2026-05-02T13:41:02.119Z</time></trkpt><trkpt lat="42.1343523" lon="13.3320311"><ele>1101.0</ele><time>2026-05-02T13:41:03.119Z</time></trkpt><trkpt lat="42.1342549" lon="13.3320385"><ele>1101.0</ele><time>2026-05-02T13:41:04.119Z</time></trkpt><trkpt lat="42.1341555" lon="13.332046"><ele>1101.0</ele><time>2026-05-02T13:41:05.12Z</time></trkpt><trkpt lat="42.1340712" lon="13.3320499"><ele>1101.0</ele><time>2026-05-02T13:41:06.12Z</time></trkpt><trkpt lat="42.1339903" lon="13.3320532"><ele>1100.4285714285713</ele><time>2026-05-02T13:41:07.12Z</time></trkpt><trkpt lat="42.133913" lon="13.3320557"><ele>1099.8571428571427</ele><time>2026-05-02T13:41:08.12Z</time></trkpt><trkpt lat="42.1338353" lon="13.3320481"><ele>1099.2857142857142</ele><time>2026-05-02T13:41:09.119Z</time></trkpt><trkpt lat="42.1337603" lon="13.3320306"><ele>1098.7142857142858</ele><time>2026-05-02T13:41:10.12Z</time></trkpt><trkpt lat="42.1336872" lon="13.3319985"><ele>1098.1428571428573</ele><time>2026-05-02T13:41:11.12Z</time></trkpt><trkpt lat="42.1336167" lon="13.3319583"><ele>1097.5714285714287</ele><time>2026-05-02T13:41:12.119Z</time></trkpt><trkpt lat="42.1335546" lon="13.3319368"><ele>1097.0</ele><time>2026-05-02T13:41:13.119Z</time></trkpt><trkpt lat="42.1334533" lon="13.3318776"><ele>1097.0</ele><time>2026-05-02T13:41:15.119Z</time></trkpt><trkpt lat="42.1334034" lon="13.3318138"><ele>1097.0</ele><time>2026-05-02T13:41:16.12Z</time></trkpt><trkpt lat="42.1333632" lon="13.3317236"><ele>1097.0</ele><time>2026-05-02T13:41:17.121Z</time></trkpt><trkpt lat="42.1333244" lon="13.3316028"><ele>1097.0</ele><time>2026-05-02T13:41:18.119Z</time></trkpt><trkpt lat="42.1332758" lon="13.3314867"><ele>1097.0</ele><time>2026-05-02T13:41:19.119Z</time></trkpt><trkpt lat="42.1332221" lon="13.3313786"><ele>1097.0</ele><time>2026-05-02T13:41:20.12Z</time></trkpt><trkpt lat="42.1331629" lon="13.3312758"><ele>1093.25</ele><time>2026-05-02T13:41:21.12Z</time></trkpt><trkpt lat="42.1330856" lon="13.3311739"><ele>1089.5</ele><time>2026-05-02T13:41:22.12Z</time></trkpt><trkpt lat="42.1329891" lon="13.3310759"><ele>1085.75</ele><time>2026-05-02T13:41:23.119Z</time></trkpt><trkpt lat="42.1328783" lon="13.3309826"><ele>1082.0</ele><time>2026-05-02T13:41:24.119Z</time></trkpt><trkpt lat="42.1327634" lon="13.3308942"><ele>1082.0</ele><time>2026-05-02T13:41:25.119Z</time></trkpt><trkpt lat="42.1326483" lon="13.3307996"><ele>1082.0</ele><time>2026-05-02T13:41:26.12Z</time></trkpt><trkpt lat="42.1325296" lon="13.3307053"><ele>1082.0</ele><time>2026-05-02T13:41:27.119Z</time></trkpt><trkpt lat="42.1324129" lon="13.3306172"><ele>1082.0</ele><time>2026-05-02T13:41:28.119Z</time></trkpt><trkpt lat="42.1322973" lon="13.3305236"><ele>1078.5</ele><time>2026-05-02T13:41:29.121Z</time></trkpt><trkpt lat="42.1321807" lon="13.3304283"><ele>1075.0</ele><time>2026-05-02T13:41:30.12Z</time></trkpt><trkpt lat="42.1320616" lon="13.3303439"><ele>1071.5</ele><time>2026-05-02T13:41:31.12Z</time></trkpt><trkpt lat="42.1319351" lon="13.3302766"><ele>1068.0</ele><time>2026-05-02T13:41:32.119Z</time></trkpt><trkpt lat="42.1318055" lon="13.3302056"><ele>1068.0</ele><time>2026-05-02T13:41:33.121Z</time></trkpt><trkpt lat="42.1316869" lon="13.3301467"><ele>1068.0</ele><time>2026-05-02T13:41:34.12Z</time></trkpt><trkpt lat="42.1315771" lon="13.3300883"><ele>1068.0</ele><time>2026-05-02T13:41:35.121Z</time></trkpt><trkpt lat="42.1314932" lon="13.3300037"><ele>1068.0</ele><time>2026-05-02T13:41:36.12Z</time></trkpt><trkpt lat="42.1314158" lon="13.3299008"><ele>1067.0</ele><time>2026-05-02T13:41:37.12Z</time></trkpt><trkpt lat="42.1313446" lon="13.3297808"><ele>1066.0</ele><time>2026-05-02T13:41:38.12Z</time></trkpt><trkpt lat="42.1312785" lon="13.3296877"><ele>1065.0</ele><time>2026-05-02T13:41:39.12Z</time></trkpt><trkpt lat="42.1312021" lon="13.3296328"><ele>1064.0</ele><time>2026-05-02T13:41:40.12Z</time></trkpt><trkpt lat="42.1311158" lon="13.3295982"><ele>1063.0</ele><time>2026-05-02T13:41:41.119Z</time></trkpt><trkpt lat="42.1310162" lon="13.3295589"><ele>1062.8333333333333</ele><time>2026-05-02T13:41:42.119Z</time></trkpt><trkpt lat="42.1309228" lon="13.3295036"><ele>1062.6666666666665</ele><time>2026-05-02T13:41:43.119Z</time></trkpt><trkpt lat="42.1308425" lon="13.3294457"><ele>1062.5</ele><time>2026-05-02T13:41:44.119Z</time></trkpt><trkpt lat="42.1307782" lon="13.3293892"><ele>1062.3333333333333</ele><time>2026-05-02T13:41:45.119Z</time></trkpt><trkpt lat="42.1307313" lon="13.3293219"><ele>1062.1666666666667</ele><time>2026-05-02T13:41:46.12Z</time></trkpt><trkpt lat="42.1306998" lon="13.3292393"><ele>1062.0</ele><time>2026-05-02T13:41:47.12Z</time></trkpt><trkpt lat="42.1306865" lon="13.3291385"><ele>1062.0</ele><time>2026-05-02T13:41:48.119Z</time></trkpt><trkpt lat="42.1306723" lon="13.3289946"><ele>1062.0</ele><time>2026-05-02T13:41:49.12Z</time></trkpt><trkpt lat="42.1306577" lon="13.3288102"><ele>1062.0</ele><time>2026-05-02T13:41:50.12Z</time></trkpt><trkpt lat="42.1306498" lon="13.3286066"><ele>1062.0</ele><time>2026-05-02T13:41:51.119Z</time></trkpt><trkpt lat="42.1306492" lon="13.3284379"><ele>1062.0</ele><time>2026-05-02T13:41:52.119Z</time></trkpt><trkpt lat="42.1306767" lon="13.3283034"><ele>1062.0</ele><time>2026-05-02T13:41:53.12Z</time></trkpt><trkpt lat="42.1307004" lon="13.3281923"><ele>1062.0</ele><time>2026-05-02T13:41:54.12Z</time></trkpt><trkpt lat="42.1306795" lon="13.3280508"><ele>1062.0</ele><time>2026-05-02T13:41:56.12Z</time></trkpt><trkpt lat="42.1305789" lon="13.3280259"><ele>1062.0</ele><time>2026-05-02T13:41:58.119Z</time></trkpt><trkpt lat="42.1305109" lon="13.328012"><ele>1062.3333333333333</ele><time>2026-05-02T13:41:59.119Z</time></trkpt><trkpt lat="42.1304209" lon="13.32796"><ele>1062.6666666666667</ele><time>2026-05-02T13:42:01.119Z</time></trkpt><trkpt lat="42.1303693" lon="13.3278798"><ele>1063.0</ele><time>2026-05-02T13:42:03.12Z</time></trkpt><trkpt lat="42.1303709" lon="13.3277473"><ele>1063.3333333333335</ele><time>2026-05-02T13:42:05.12Z</time></trkpt><trkpt lat="42.1303866" lon="13.3276413"><ele>1063.6666666666667</ele><time>2026-05-02T13:42:06.12Z</time></trkpt><trkpt lat="42.1303974" lon="13.3275199"><ele>1064.0</ele><time>2026-05-02T13:42:07.12Z</time></trkpt><trkpt lat="42.1304059" lon="13.3273749"><ele>1065.5</ele><time>2026-05-02T13:42:08.119Z</time></trkpt><trkpt lat="42.1304089" lon="13.3272028"><ele>1067.0</ele><time>2026-05-02T13:42:09.12Z</time></trkpt><trkpt lat="42.1304298" lon="13.3270069"><ele>1068.5</ele><time>2026-05-02T13:42:10.119Z</time></trkpt><trkpt lat="42.1304645" lon="13.3268281"><ele>1070.0</ele><time>2026-05-02T13:42:11.119Z</time></trkpt><trkpt lat="42.1304965" lon="13.3266661"><ele>1070.0</ele><time>2026-05-02T13:42:12.119Z</time></trkpt><trkpt lat="42.1305168" lon="13.3264904"><ele>1070.0</ele><time>2026-05-02T13:42:13.119Z</time></trkpt><trkpt lat="42.1305348" lon="13.3262984"><ele>1070.0</ele><time>2026-05-02T13:42:14.12Z</time></trkpt><trkpt lat="42.1305469" lon="13.326116"><ele>1070.0</ele><time>2026-05-02T13:42:15.12Z</time></trkpt><trkpt lat="42.1305593" lon="13.3259537"><ele>1071.8</ele><time>2026-05-02T13:42:16.119Z</time></trkpt><trkpt lat="42.1305584" lon="13.325784"><ele>1073.6</ele><time>2026-05-02T13:42:17.119Z</time></trkpt><trkpt lat="42.1305584" lon="13.3256241"><ele>1075.4</ele><time>2026-05-02T13:42:18.119Z</time></trkpt><trkpt lat="42.1305721" lon="13.325486"><ele>1077.2</ele><time>2026-05-02T13:42:19.12Z</time></trkpt><trkpt lat="42.1305896" lon="13.32537"><ele>1079.0</ele><time>2026-05-02T13:42:20.12Z</time></trkpt><trkpt lat="42.1305931" lon="13.325276"><ele>1079.8333333333335</ele><time>2026-05-02T13:42:21.12Z</time></trkpt><trkpt lat="42.1305848" lon="13.3251808"><ele>1080.6666666666667</ele><time>2026-05-02T13:42:22.119Z</time></trkpt><trkpt lat="42.1305671" lon="13.3250718"><ele>1081.5</ele><time>2026-05-02T13:42:23.119Z</time></trkpt><trkpt lat="42.130544" lon="13.3249506"><ele>1082.3333333333333</ele><time>2026-05-02T13:42:24.119Z</time></trkpt><trkpt lat="42.1305255" lon="13.3248397"><ele>1083.1666666666665</ele><time>2026-05-02T13:42:25.119Z</time></trkpt><trkpt lat="42.1305279" lon="13.3247274"><ele>1084.0</ele><time>2026-05-02T13:42:26.119Z</time></trkpt><trkpt lat="42.1305464" lon="13.3246197"><ele>1084.0</ele><time>2026-05-02T13:42:27.12Z</time></trkpt><trkpt lat="42.1305745" lon="13.3245243"><ele>1084.0</ele><time>2026-05-02T13:42:28.119Z</time></trkpt><trkpt lat="42.1306137" lon="13.3244535"><ele>1084.0</ele><time>2026-05-02T13:42:29.12Z</time></trkpt><trkpt lat="42.1306996" lon="13.3243369"><ele>1084.0</ele><time>2026-05-02T13:42:31.119Z</time></trkpt><trkpt lat="42.1307285" lon="13.3241891"><ele>1084.0</ele><time>2026-05-02T13:42:33.119Z</time></trkpt><trkpt lat="42.1307313" lon="13.324093"><ele>1084.0</ele><time>2026-05-02T13:42:34.119Z</time></trkpt><trkpt lat="42.1307187" lon="13.323979"><ele>1084.8</ele><time>2026-05-02T13:42:35.12Z</time></trkpt><trkpt lat="42.1307045" lon="13.3238532"><ele>1085.6000000000001</ele><time>2026-05-02T13:42:36.12Z</time></trkpt><trkpt lat="42.1307105" lon="13.323729"><ele>1086.4</ele><time>2026-05-02T13:42:37.119Z</time></trkpt><trkpt lat="42.1307246" lon="13.3235778"><ele>1087.2</ele><time>2026-05-02T13:42:38.12Z</time></trkpt><trkpt lat="42.1307504" lon="13.3234053"><ele>1088.0</ele><time>2026-05-02T13:42:39.119Z</time></trkpt><trkpt lat="42.1307809" lon="13.3232324"><ele>1085.25</ele><time>2026-05-02T13:42:40.12Z</time></trkpt><trkpt lat="42.1308148" lon="13.323064"><ele>1082.5</ele><time>2026-05-02T13:42:41.119Z</time></trkpt><trkpt lat="42.1308483" lon="13.3228956"><ele>1079.75</ele><time>2026-05-02T13:42:42.119Z</time></trkpt><trkpt lat="42.1308802" lon="13.3227394"><ele>1077.0</ele><time>2026-05-02T13:42:43.12Z</time></trkpt><trkpt lat="42.130918" lon="13.3226099"><ele>1077.0</ele><time>2026-05-02T13:42:44.119Z</time></trkpt><trkpt lat="42.1309594" lon="13.3224941"><ele>1077.0</ele><time>2026-05-02T13:42:45.119Z</time></trkpt><trkpt lat="42.1309767" lon="13.3223712"><ele>1077.0</ele><time>2026-05-02T13:42:46.12Z</time></trkpt><trkpt lat="42.1309712" lon="13.3222293"><ele>1077.0</ele><time>2026-05-02T13:42:47.119Z</time></trkpt><trkpt lat="42.1309527" lon="13.322067"><ele>1077.0</ele><time>2026-05-02T13:42:48.119Z</time></trkpt><trkpt lat="42.1309359" lon="13.3218963"><ele>1077.0</ele><time>2026-05-02T13:42:49.119Z</time></trkpt><trkpt lat="42.1309245" lon="13.3217104"><ele>1077.0</ele><time>2026-05-02T13:42:50.12Z</time></trkpt><trkpt lat="42.1309163" lon="13.3215227"><ele>1077.0</ele><time>2026-05-02T13:42:51.119Z</time></trkpt><trkpt lat="42.1309081" lon="13.3213358"><ele>1077.0</ele><time>2026-05-02T13:42:52.12Z</time></trkpt><trkpt lat="42.1309038" lon="13.3211508"><ele>1076.5</ele><time>2026-05-02T13:42:53.119Z</time></trkpt><trkpt lat="42.1308981" lon="13.3209716"><ele>1076.0</ele><time>2026-05-02T13:42:54.12Z</time></trkpt><trkpt lat="42.1308855" lon="13.3208064"><ele>1075.5</ele><time>2026-05-02T13:42:55.119Z</time></trkpt><trkpt lat="42.1308685" lon="13.320649"><ele>1075.0</ele><time>2026-05-02T13:42:56.12Z</time></trkpt><trkpt lat="42.1308636" lon="13.3205078"><ele>1075.0</ele><time>2026-05-02T13:42:57.119Z</time></trkpt><trkpt lat="42.1308696" lon="13.3203911"><ele>1075.0</ele><time>2026-05-02T13:42:58.119Z</time></trkpt><trkpt lat="42.130888" lon="13.3203051"><ele>1075.0</ele><time>2026-05-02T13:42:59.119Z</time></trkpt><trkpt lat="42.130954" lon="13.3201716"><ele>1075.0</ele><time>2026-05-02T13:43:01.119Z</time></trkpt><trkpt lat="42.1309721" lon="13.3200498"><ele>1075.0</ele><time>2026-05-02T13:43:03.119Z</time></trkpt><trkpt lat="42.1309373" lon="13.3199217"><ele>1075.0</ele><time>2026-05-02T13:43:05.119Z</time></trkpt><trkpt lat="42.1309731" lon="13.3197716"><ele>1075.0</ele><time>2026-05-02T13:43:07.119Z</time></trkpt><trkpt lat="42.1309959" lon="13.3196692"><ele>1075.0</ele><time>2026-05-02T13:43:08.119Z</time></trkpt><trkpt lat="42.131013" lon="13.3195684"><ele>1075.0</ele><time>2026-05-02T13:43:09.121Z</time></trkpt><trkpt lat="42.1310414" lon="13.3194702"><ele>1075.0</ele><time>2026-05-02T13:43:10.12Z</time></trkpt><trkpt lat="42.1310881" lon="13.3193881"><ele>1075.0</ele><time>2026-05-02T13:43:11.119Z</time></trkpt><trkpt lat="42.1311697" lon="13.3192657"><ele>1075.4</ele><time>2026-05-02T13:43:13.119Z</time></trkpt><trkpt lat="42.1312256" lon="13.3191961"><ele>1075.8</ele><time>2026-05-02T13:43:14.12Z</time></trkpt><trkpt lat="42.1312933" lon="13.319125"><ele>1076.2</ele><time>2026-05-02T13:43:15.119Z</time></trkpt><trkpt lat="42.131336" lon="13.3189637"><ele>1076.6</ele><time>2026-05-02T13:43:16.121Z</time></trkpt><trkpt lat="42.1313876" lon="13.3188359"><ele>1077.0</ele><time>2026-05-02T13:43:17.12Z</time></trkpt><trkpt lat="42.1314211" lon="13.3187083"><ele>1075.8</ele><time>2026-05-02T13:43:18.119Z</time></trkpt><trkpt lat="42.1314496" lon="13.31859"><ele>1074.6</ele><time>2026-05-02T13:43:19.12Z</time></trkpt><trkpt lat="42.1314883" lon="13.3184824"><ele>1073.3999999999999</ele><time>2026-05-02T13:43:20.119Z</time></trkpt><trkpt lat="42.1315328" lon="13.3183842"><ele>1072.2</ele><time>2026-05-02T13:43:21.119Z</time></trkpt><trkpt lat="42.131591" lon="13.3183065"><ele>1071.0</ele><time>2026-05-02T13:43:22.119Z</time></trkpt><trkpt lat="42.1316818" lon="13.3182112"><ele>1069.5</ele><time>2026-05-02T13:43:23.12Z</time></trkpt><trkpt lat="42.131769" lon="13.3181183"><ele>1068.0</ele><time>2026-05-02T13:43:24.119Z</time></trkpt><trkpt lat="42.1318341" lon="13.3180208"><ele>1066.5</ele><time>2026-05-02T13:43:25.12Z</time></trkpt><trkpt lat="42.1318742" lon="13.3179314"><ele>1065.0</ele><time>2026-05-02T13:43:26.119Z</time></trkpt><trkpt lat="42.1318941" lon="13.3178285"><ele>1063.5</ele><time>2026-05-02T13:43:27.119Z</time></trkpt><trkpt lat="42.1319106" lon="13.3177368"><ele>1062.0</ele><time>2026-05-02T13:43:28.119Z</time></trkpt><trkpt lat="42.1319645" lon="13.317559"><ele>1060.8</ele><time>2026-05-02T13:43:30.12Z</time></trkpt><trkpt lat="42.1320078" lon="13.3174543"><ele>1059.6</ele><time>2026-05-02T13:43:31.12Z</time></trkpt><trkpt lat="42.1320554" lon="13.31738"><ele>1058.3999999999999</ele><time>2026-05-02T13:43:32.119Z</time></trkpt><trkpt lat="42.1321223" lon="13.3172791"><ele>1057.2</ele><time>2026-05-02T13:43:33.119Z</time></trkpt><trkpt lat="42.1321978" lon="13.3171659"><ele>1056.0</ele><time>2026-05-02T13:43:34.119Z</time></trkpt><trkpt lat="42.132269" lon="13.3170627"><ele>1055.6</ele><time>2026-05-02T13:43:35.119Z</time></trkpt><trkpt lat="42.1323339" lon="13.3169606"><ele>1055.1999999999998</ele><time>2026-05-02T13:43:36.119Z</time></trkpt><trkpt lat="42.1324097" lon="13.316861"><ele>1054.8000000000002</ele><time>2026-05-02T13:43:37.12Z</time></trkpt><trkpt lat="42.1324969" lon="13.3167663"><ele>1054.4</ele><time>2026-05-02T13:43:38.119Z</time></trkpt><trkpt lat="42.132585" lon="13.3166559"><ele>1054.0</ele><time>2026-05-02T13:43:39.12Z</time></trkpt><trkpt lat="42.1326701" lon="13.3165288"><ele>1054.0</ele><time>2026-05-02T13:43:40.119Z</time></trkpt><trkpt lat="42.1327521" lon="13.3164142"><ele>1054.0</ele><time>2026-05-02T13:43:41.119Z</time></trkpt><trkpt lat="42.1328258" lon="13.3162991"><ele>1054.0</ele><time>2026-05-02T13:43:42.12Z</time></trkpt><trkpt lat="42.1328894" lon="13.3161887"><ele>1054.0</ele><time>2026-05-02T13:43:43.119Z</time></trkpt><trkpt lat="42.1329496" lon="13.3160985"><ele>1054.0</ele><time>2026-05-02T13:43:44.119Z</time></trkpt><trkpt lat="42.1329955" lon="13.3160271"><ele>1053.3333333333333</ele><time>2026-05-02T13:43:45.12Z</time></trkpt><trkpt lat="42.1330445" lon="13.3159186"><ele>1052.6666666666665</ele><time>2026-05-02T13:43:47.12Z</time></trkpt><trkpt lat="42.1330577" lon="13.3157973"><ele>1052.0</ele><time>2026-05-02T13:43:49.12Z</time></trkpt><trkpt lat="42.133059" lon="13.3157024"><ele>1051.3333333333333</ele><time>2026-05-02T13:43:51.119Z</time></trkpt><trkpt lat="42.133033" lon="13.3156122"><ele>1050.6666666666667</ele><time>2026-05-02T13:43:54.119Z</time></trkpt><trkpt lat="42.1329674" lon="13.3155609"><ele>1050.0</ele><time>2026-05-02T13:43:57.119Z</time></trkpt><trkpt lat="42.132898" lon="13.3155336"><ele>1049.7142857142858</ele><time>2026-05-02T13:44:00.119Z</time></trkpt><trkpt lat="42.1328238" lon="13.3154963"><ele>1049.4285714285716</ele><time>2026-05-02T13:44:03.119Z</time></trkpt><trkpt lat="42.1327696" lon="13.3154524"><ele>1049.142857142857</ele><time>2026-05-02T13:44:06.12Z</time></trkpt><trkpt lat="42.1326996" lon="13.3154064"><ele>1048.857142857143</ele><time>2026-05-02T13:44:20.12Z</time></trkpt><trkpt lat="42.1326601" lon="13.31534"><ele>1048.5714285714287</ele><time>2026-05-02T13:44:22.121Z</time></trkpt><trkpt lat="42.1326036" lon="13.3152624"><ele>1048.2857142857142</ele><time>2026-05-02T13:44:25.119Z</time></trkpt><trkpt lat="42.1325688" lon="13.3151778"><ele>1048.0</ele><time>2026-05-02T13:45:34.12Z</time></trkpt><trkpt lat="42.1325238" lon="13.3150208"><ele>1048.0</ele><time>2026-05-02T13:45:36.12Z</time></trkpt><trkpt lat="42.1324942" lon="13.3149194"><ele>1048.0</ele><time>2026-05-02T13:45:37.119Z</time></trkpt><trkpt lat="42.1324628" lon="13.3148274"><ele>1048.0</ele><time>2026-05-02T13:45:38.119Z</time></trkpt><trkpt lat="42.1324284" lon="13.314718"><ele>1048.0</ele><time>2026-05-02T13:45:39.12Z</time></trkpt><trkpt lat="42.1323932" lon="13.3146223"><ele>1048.0</ele><time>2026-05-02T13:45:40.12Z</time></trkpt><trkpt lat="42.1323463" lon="13.3145344"><ele>1048.0</ele><time>2026-05-02T13:45:41.121Z</time></trkpt><trkpt lat="42.1322778" lon="13.3144483"><ele>1048.2</ele><time>2026-05-02T13:45:42.12Z</time></trkpt><trkpt lat="42.1322014" lon="13.314359"><ele>1048.4</ele><time>2026-05-02T13:45:43.119Z</time></trkpt><trkpt lat="42.1321199" lon="13.3142546"><ele>1048.6000000000001</ele><time>2026-05-02T13:45:44.119Z</time></trkpt><trkpt lat="42.1320341" lon="13.3141424"><ele>1048.8</ele><time>2026-05-02T13:45:45.12Z</time></trkpt><trkpt lat="42.131961" lon="13.3140421"><ele>1049.0</ele><time>2026-05-02T13:45:46.119Z</time></trkpt><trkpt lat="42.1318981" lon="13.3139517"><ele>1049.5</ele><time>2026-05-02T13:45:47.119Z</time></trkpt><trkpt lat="42.1318547" lon="13.3138614"><ele>1050.0</ele><time>2026-05-02T13:45:48.119Z</time></trkpt><trkpt lat="42.1318359" lon="13.313765"><ele>1050.5</ele><time>2026-05-02T13:45:49.119Z</time></trkpt><trkpt lat="42.1318267" lon="13.3136544"><ele>1051.0</ele><time>2026-05-02T13:45:50.119Z</time></trkpt><trkpt lat="42.1318245" lon="13.3135283"><ele>1051.5</ele><time>2026-05-02T13:45:51.119Z</time></trkpt><trkpt lat="42.1318226" lon="13.3133898"><ele>1052.0</ele><time>2026-05-02T13:45:52.119Z</time></trkpt><trkpt lat="42.1318243" lon="13.3132306"><ele>1052.75</ele><time>2026-05-02T13:45:53.12Z</time></trkpt><trkpt lat="42.1318224" lon="13.3130714"><ele>1053.5</ele><time>2026-05-02T13:45:54.119Z</time></trkpt><trkpt lat="42.1318302" lon="13.312914"><ele>1054.25</ele><time>2026-05-02T13:45:55.12Z</time></trkpt><trkpt lat="42.131856" lon="13.3127642"><ele>1055.0</ele><time>2026-05-02T13:45:56.121Z</time></trkpt><trkpt lat="42.1318966" lon="13.3126335"><ele>1055.0</ele><time>2026-05-02T13:45:57.12Z</time></trkpt><trkpt lat="42.1319558" lon="13.312521"><ele>1055.0</ele><time>2026-05-02T13:45:58.12Z</time></trkpt><trkpt lat="42.1320249" lon="13.3124307"><ele>1055.0</ele><time>2026-05-02T13:45:59.119Z</time></trkpt><trkpt lat="42.1320852" lon="13.3123493"><ele>1055.0</ele><time>2026-05-02T13:46:00.119Z</time></trkpt><trkpt lat="42.1321313" lon="13.3122742"><ele>1055.0</ele><time>2026-05-02T13:46:01.12Z</time></trkpt><trkpt lat="42.1321642" lon="13.3121873"><ele>1055.0</ele><time>2026-05-02T13:46:02.12Z</time></trkpt><trkpt lat="42.1321922" lon="13.3121071"><ele>1056.6666666666667</ele><time>2026-05-02T13:46:03.12Z</time></trkpt><trkpt lat="42.1322441" lon="13.3120518"><ele>1058.3333333333335</ele><time>2026-05-02T13:46:04.12Z</time></trkpt><trkpt lat="42.132296" lon="13.3120029"><ele>1060.0</ele><time>2026-05-02T13:46:05.119Z</time></trkpt><trkpt lat="42.1323648" lon="13.311891"><ele>1061.6666666666667</ele><time>2026-05-02T13:46:07.119Z</time></trkpt><trkpt lat="42.1323946" lon="13.3118059"><ele>1063.3333333333333</ele><time>2026-05-02T13:46:08.119Z</time></trkpt><trkpt lat="42.1324512" lon="13.3117472"><ele>1065.0</ele><time>2026-05-02T13:46:09.12Z</time></trkpt><trkpt lat="42.1325308" lon="13.3116874"><ele>1062.7142857142858</ele><time>2026-05-02T13:46:10.119Z</time></trkpt><trkpt lat="42.1326064" lon="13.3116354"><ele>1060.4285714285713</ele><time>2026-05-02T13:46:11.12Z</time></trkpt><trkpt lat="42.1326728" lon="13.3115942"><ele>1058.142857142857</ele><time>2026-05-02T13:46:12.121Z</time></trkpt><trkpt lat="42.1327219" lon="13.3115242"><ele>1055.857142857143</ele><time>2026-05-02T13:46:13.119Z</time></trkpt><trkpt lat="42.1327699" lon="13.3114509"><ele>1053.5714285714287</ele><time>2026-05-02T13:46:14.119Z</time></trkpt><trkpt lat="42.1327993" lon="13.311374"><ele>1051.2857142857142</ele><time>2026-05-02T13:46:15.12Z</time></trkpt><trkpt lat="42.1328577" lon="13.311303"><ele>1049.0</ele><time>2026-05-02T13:46:16.119Z</time></trkpt><trkpt lat="42.1329334" lon="13.3112411"><ele>1049.0</ele><time>2026-05-02T13:46:17.12Z</time></trkpt><trkpt lat="42.1330151" lon="13.3112031"><ele>1049.0</ele><time>2026-05-02T13:46:18.121Z</time></trkpt><trkpt lat="42.1330971" lon="13.3111631"><ele>1049.0</ele><time>2026-05-02T13:46:19.119Z</time></trkpt><trkpt lat="42.1331598" lon="13.3111345"><ele>1049.0</ele><time>2026-05-02T13:46:20.12Z</time></trkpt><trkpt lat="42.1332275" lon="13.3110044"><ele>1049.0</ele><time>2026-05-02T13:46:22.12Z</time></trkpt><trkpt lat="42.1332737" lon="13.3108323"><ele>1047.0</ele><time>2026-05-02T13:46:24.119Z</time></trkpt><trkpt lat="42.1333049" lon="13.3107561"><ele>1045.0</ele><time>2026-05-02T13:46:25.12Z</time></trkpt><trkpt lat="42.1334067" lon="13.3106216"><ele>1043.0</ele><time>2026-05-02T13:46:27.12Z</time></trkpt><trkpt lat="42.1334776" lon="13.310535"><ele>1041.0</ele><time>2026-05-02T13:46:28.119Z</time></trkpt><trkpt lat="42.1335465" lon="13.3104442"><ele>1039.0</ele><time>2026-05-02T13:46:29.119Z</time></trkpt><trkpt lat="42.1336067" lon="13.3103659"><ele>1039.0</ele><time>2026-05-02T13:46:30.12Z</time></trkpt><trkpt lat="42.1336509" lon="13.3102838"><ele>1039.0</ele><time>2026-05-02T13:46:31.12Z</time></trkpt><trkpt lat="42.1336828" lon="13.3101994"><ele>1039.0</ele><time>2026-05-02T13:46:32.119Z</time></trkpt><trkpt lat="42.1337249" lon="13.3101165"><ele>1039.0</ele><time>2026-05-02T13:46:33.12Z</time></trkpt><trkpt lat="42.1338067" lon="13.3100124"><ele>1039.0</ele><time>2026-05-02T13:46:35.12Z</time></trkpt><trkpt lat="42.1338697" lon="13.3099868"><ele>1039.0</ele><time>2026-05-02T13:46:36.12Z</time></trkpt><trkpt lat="42.1339567" lon="13.3099694"><ele>1039.0</ele><time>2026-05-02T13:46:37.12Z</time></trkpt><trkpt lat="42.1340525" lon="13.3098678"><ele>1039.0</ele><time>2026-05-02T13:46:39.119Z</time></trkpt><trkpt lat="42.1341071" lon="13.309785"><ele>1039.0</ele><time>2026-05-02T13:46:40.121Z</time></trkpt><trkpt lat="42.1341645" lon="13.3096372"><ele>1039.0</ele><time>2026-05-02T13:46:42.119Z</time></trkpt><trkpt lat="42.1341401" lon="13.3095118"><ele>1039.0</ele><time>2026-05-02T13:46:44.121Z</time></trkpt><trkpt lat="42.1342075" lon="13.3093606"><ele>1035.3333333333333</ele><time>2026-05-02T13:46:46.12Z</time></trkpt><trkpt lat="42.1342451" lon="13.309265"><ele>1031.6666666666665</ele><time>2026-05-02T13:46:47.12Z</time></trkpt><trkpt lat="42.1342904" lon="13.3091636"><ele>1028.0</ele><time>2026-05-02T13:46:48.119Z</time></trkpt><trkpt lat="42.1343384" lon="13.309081"><ele>1024.3333333333333</ele><time>2026-05-02T13:46:49.119Z</time></trkpt><trkpt lat="42.1343865" lon="13.3090175"><ele>1020.6666666666666</ele><time>2026-05-02T13:46:50.12Z</time></trkpt><trkpt lat="42.1344463" lon="13.3089463"><ele>1017.0</ele><time>2026-05-02T13:46:51.12Z</time></trkpt><trkpt lat="42.1345134" lon="13.3088706"><ele>1017.0</ele><time>2026-05-02T13:46:52.119Z</time></trkpt><trkpt lat="42.1345729" lon="13.3087964"><ele>1017.0</ele><time>2026-05-02T13:46:53.12Z</time></trkpt><trkpt lat="42.134637" lon="13.3087501"><ele>1017.0</ele><time>2026-05-02T13:46:54.12Z</time></trkpt><trkpt lat="42.1347258" lon="13.3086575"><ele>1017.0</ele><time>2026-05-02T13:46:56.119Z</time></trkpt><trkpt lat="42.1347299" lon="13.3084974"><ele>1017.0</ele><time>2026-05-02T13:46:58.119Z</time></trkpt><trkpt lat="42.1347128" lon="13.3083704"><ele>1017.0</ele><time>2026-05-02T13:46:59.12Z</time></trkpt><trkpt lat="42.1347161" lon="13.3082586"><ele>1017.0</ele><time>2026-05-02T13:47:00.119Z</time></trkpt><trkpt lat="42.134712" lon="13.3081376"><ele>1017.0</ele><time>2026-05-02T13:47:01.119Z</time></trkpt><trkpt lat="42.13471" lon="13.3080208"><ele>1017.0</ele><time>2026-05-02T13:47:02.119Z</time></trkpt><trkpt lat="42.1347233" lon="13.3078978"><ele>1017.0</ele><time>2026-05-02T13:47:03.119Z</time></trkpt><trkpt lat="42.1347434" lon="13.3077903"><ele>1017.0</ele><time>2026-05-02T13:47:04.12Z</time></trkpt><trkpt lat="42.1347744" lon="13.3077112"><ele>1015.0</ele><time>2026-05-02T13:47:05.12Z</time></trkpt><trkpt lat="42.1348261" lon="13.3076383"><ele>1013.0</ele><time>2026-05-02T13:47:06.119Z</time></trkpt><trkpt lat="42.1348541" lon="13.307558"><ele>1011.0</ele><time>2026-05-02T13:47:07.119Z</time></trkpt><trkpt lat="42.134811" lon="13.3073928"><ele>1009.0</ele><time>2026-05-02T13:47:09.119Z</time></trkpt><trkpt lat="42.134748" lon="13.307284"><ele>1007.0</ele><time>2026-05-02T13:47:10.119Z</time></trkpt><trkpt lat="42.1346887" lon="13.3071632"><ele>1004.5000000000001</ele><time>2026-05-02T13:47:11.12Z</time></trkpt><trkpt lat="42.1346327" lon="13.3070629"><ele>1002.0</ele><time>2026-05-02T13:47:12.12Z</time></trkpt><trkpt lat="42.1345904" lon="13.3069682"><ele>999.5</ele><time>2026-05-02T13:47:13.119Z</time></trkpt><trkpt lat="42.1345679" lon="13.3068778"><ele>997.0</ele><time>2026-05-02T13:47:14.119Z</time></trkpt><trkpt lat="42.1345456" lon="13.3067797"><ele>994.5000000000001</ele><time>2026-05-02T13:47:15.12Z</time></trkpt><trkpt lat="42.1345386" lon="13.3066379"><ele>992.0</ele><time>2026-05-02T13:47:16.119Z</time></trkpt><trkpt lat="42.1345301" lon="13.306528"><ele>989.4000000000001</ele><time>2026-05-02T13:47:17.119Z</time></trkpt><trkpt lat="42.1345376" lon="13.3064063"><ele>986.8000000000001</ele><time>2026-05-02T13:47:18.119Z</time></trkpt><trkpt lat="42.1345486" lon="13.3062854"><ele>984.2</ele><time>2026-05-02T13:47:19.119Z</time></trkpt><trkpt lat="42.1345427" lon="13.3061965"><ele>981.6</ele><time>2026-05-02T13:47:20.12Z</time></trkpt><trkpt lat="42.134497" lon="13.3060618"><ele>979.0</ele><time>2026-05-02T13:47:22.119Z</time></trkpt><trkpt lat="42.1344244" lon="13.3059615"><ele>978.9999999999999</ele><time>2026-05-02T13:47:24.119Z</time></trkpt><trkpt lat="42.1344161" lon="13.3058727"><ele>979.0</ele><time>2026-05-02T13:47:25.12Z</time></trkpt><trkpt lat="42.1344099" lon="13.3057744"><ele>979.0</ele><time>2026-05-02T13:47:26.119Z</time></trkpt><trkpt lat="42.1343985" lon="13.3056664"><ele>979.0</ele><time>2026-05-02T13:47:27.119Z</time></trkpt><trkpt lat="42.1343859" lon="13.3055569"><ele>978.9999999999999</ele><time>2026-05-02T13:47:28.119Z</time></trkpt><trkpt lat="42.1343742" lon="13.3054395"><ele>979.0</ele><time>2026-05-02T13:47:29.121Z</time></trkpt><trkpt lat="42.134364" lon="13.3053226"><ele>977.4999999999999</ele><time>2026-05-02T13:47:30.119Z</time></trkpt><trkpt lat="42.1343434" lon="13.3051962"><ele>976.0</ele><time>2026-05-02T13:47:31.119Z</time></trkpt><trkpt lat="42.1343205" lon="13.3050704"><ele>974.5</ele><time>2026-05-02T13:47:32.12Z</time></trkpt><trkpt lat="42.1342963" lon="13.3049488"><ele>973.0</ele><time>2026-05-02T13:47:33.119Z</time></trkpt><trkpt lat="42.1342707" lon="13.3048421"><ele>971.4999999999999</ele><time>2026-05-02T13:47:34.119Z</time></trkpt><trkpt lat="42.1342535" lon="13.3047465"><ele>970.0</ele><time>2026-05-02T13:47:35.12Z</time></trkpt><trkpt lat="42.134249" lon="13.3046441"><ele>968.4</ele><time>2026-05-02T13:47:36.119Z</time></trkpt><trkpt lat="42.1342525" lon="13.3045272"><ele>966.8</ele><time>2026-05-02T13:47:37.119Z</time></trkpt><trkpt lat="42.134241" lon="13.3043958"><ele>965.2</ele><time>2026-05-02T13:47:38.12Z</time></trkpt><trkpt lat="42.1342277" lon="13.3042461"><ele>963.6</ele><time>2026-05-02T13:47:39.12Z</time></trkpt><trkpt lat="42.1342027" lon="13.3040866"><ele>962.0</ele><time>2026-05-02T13:47:40.119Z</time></trkpt><trkpt lat="42.1341872" lon="13.303941"><ele>961.6</ele><time>2026-05-02T13:47:41.119Z</time></trkpt><trkpt lat="42.1341585" lon="13.3037714"><ele>961.2</ele><time>2026-05-02T13:47:42.12Z</time></trkpt><trkpt lat="42.1341443" lon="13.3036383"><ele>960.8</ele><time>2026-05-02T13:47:43.119Z</time></trkpt><trkpt lat="42.1341482" lon="13.3035139"><ele>960.4</ele><time>2026-05-02T13:47:44.12Z</time></trkpt><trkpt lat="42.1341744" lon="13.3034047"><ele>960.0</ele><time>2026-05-02T13:47:45.119Z</time></trkpt><trkpt lat="42.1342157" lon="13.3032875"><ele>960.0</ele><time>2026-05-02T13:47:46.119Z</time></trkpt><trkpt lat="42.1342595" lon="13.3031661"><ele>960.0</ele><time>2026-05-02T13:47:47.119Z</time></trkpt><trkpt lat="42.1343113" lon="13.3030596"><ele>960.0</ele><time>2026-05-02T13:47:48.12Z</time></trkpt><trkpt lat="42.1343724" lon="13.302934"><ele>960.0</ele><time>2026-05-02T13:47:49.119Z</time></trkpt><trkpt lat="42.1344376" lon="13.3027895"><ele>960.0</ele><time>2026-05-02T13:47:50.119Z</time></trkpt><trkpt lat="42.1344899" lon="13.3026592"><ele>960.8333333333334</ele><time>2026-05-02T13:47:51.12Z</time></trkpt><trkpt lat="42.134536" lon="13.3025312"><ele>961.6666666666667</ele><time>2026-05-02T13:47:52.119Z</time></trkpt><trkpt lat="42.1345631" lon="13.3024357"><ele>962.5</ele><time>2026-05-02T13:47:53.12Z</time></trkpt><trkpt lat="42.1345754" lon="13.3023127"><ele>963.3333333333334</ele><time>2026-05-02T13:47:55.119Z</time></trkpt><trkpt lat="42.134548" lon="13.3022096"><ele>964.1666666666667</ele><time>2026-05-02T13:47:58.119Z</time></trkpt><trkpt lat="42.1345791" lon="13.3020974"><ele>965.0</ele><time>2026-05-02T13:48:01.119Z</time></trkpt><trkpt lat="42.1346548" lon="13.3020132"><ele>966.0000000000001</ele><time>2026-05-02T13:48:03.119Z</time></trkpt><trkpt lat="42.1347216" lon="13.3018942"><ele>967.0</ele><time>2026-05-02T13:48:05.119Z</time></trkpt><trkpt lat="42.1347431" lon="13.3018108"><ele>968.0</ele><time>2026-05-02T13:48:06.119Z</time></trkpt><trkpt lat="42.1347725" lon="13.3017108"><ele>969.0</ele><time>2026-05-02T13:48:07.12Z</time></trkpt><trkpt lat="42.1348207" lon="13.3016204"><ele>970.0000000000001</ele><time>2026-05-02T13:48:08.119Z</time></trkpt><trkpt lat="42.134891" lon="13.3015317"><ele>971.0</ele><time>2026-05-02T13:48:09.119Z</time></trkpt><trkpt lat="42.1349891" lon="13.3014301"><ele>965.8</ele><time>2026-05-02T13:48:10.12Z</time></trkpt><trkpt lat="42.1350749" lon="13.3013304"><ele>960.5999999999999</ele><time>2026-05-02T13:48:11.119Z</time></trkpt><trkpt lat="42.1351494" lon="13.3012237"><ele>955.4</ele><time>2026-05-02T13:48:12.119Z</time></trkpt><trkpt lat="42.1352187" lon="13.3011224"><ele>950.2</ele><time>2026-05-02T13:48:13.119Z</time></trkpt><trkpt lat="42.1352806" lon="13.3010412"><ele>945.0</ele><time>2026-05-02T13:48:14.119Z</time></trkpt><trkpt lat="42.1353417" lon="13.3009712"><ele>945.0</ele><time>2026-05-02T13:48:15.119Z</time></trkpt><trkpt lat="42.1354153" lon="13.3009141"><ele>945.0</ele><time>2026-05-02T13:48:16.119Z</time></trkpt><trkpt lat="42.1354974" lon="13.3008744"><ele>945.0</ele><time>2026-05-02T13:48:17.12Z</time></trkpt><trkpt lat="42.1355643" lon="13.3008434"><ele>945.0</ele><time>2026-05-02T13:48:18.12Z</time></trkpt><trkpt lat="42.1356629" lon="13.3007169"><ele>945.0</ele><time>2026-05-02T13:48:20.119Z</time></trkpt><trkpt lat="42.1357684" lon="13.3006589"><ele>944.8333333333334</ele><time>2026-05-02T13:48:22.12Z</time></trkpt><trkpt lat="42.1358442" lon="13.3006587"><ele>944.6666666666667</ele><time>2026-05-02T13:48:23.12Z</time></trkpt><trkpt lat="42.1359286" lon="13.3006563"><ele>944.5</ele><time>2026-05-02T13:48:24.119Z</time></trkpt><trkpt lat="42.1360065" lon="13.3006433"><ele>944.3333333333334</ele><time>2026-05-02T13:48:25.119Z</time></trkpt><trkpt lat="42.1360976" lon="13.3006055"><ele>944.1666666666667</ele><time>2026-05-02T13:48:26.12Z</time></trkpt><trkpt lat="42.1361821" lon="13.300551"><ele>944.0</ele><time>2026-05-02T13:48:27.119Z</time></trkpt><trkpt lat="42.1362448" lon="13.3004972"><ele>943.4000000000001</ele><time>2026-05-02T13:48:28.119Z</time></trkpt><trkpt lat="42.1362957" lon="13.3004362"><ele>942.8000000000001</ele><time>2026-05-02T13:48:29.119Z</time></trkpt><trkpt lat="42.1363799" lon="13.30031"><ele>942.1999999999999</ele><time>2026-05-02T13:48:31.12Z</time></trkpt><trkpt lat="42.1364539" lon="13.3001954"><ele>941.5999999999999</ele><time>2026-05-02T13:48:33.119Z</time></trkpt><trkpt lat="42.1365306" lon="13.3000913"><ele>941.0</ele><time>2026-05-02T13:48:35.12Z</time></trkpt><trkpt lat="42.1366021" lon="13.2999736"><ele>940.9999999999999</ele><time>2026-05-02T13:48:37.12Z</time></trkpt><trkpt lat="42.1366383" lon="13.2999015"><ele>941.0</ele><time>2026-05-02T13:48:38.12Z</time></trkpt><trkpt lat="42.1366735" lon="13.2998284"><ele>940.9999999999999</ele><time>2026-05-02T13:48:39.119Z</time></trkpt><trkpt lat="42.1367031" lon="13.2997521"><ele>940.9999999999999</ele><time>2026-05-02T13:48:40.12Z</time></trkpt><trkpt lat="42.136731" lon="13.2996559"><ele>941.0</ele><time>2026-05-02T13:48:41.121Z</time></trkpt><trkpt lat="42.1367562" lon="13.2995451"><ele>940.9999999999999</ele><time>2026-05-02T13:48:42.119Z</time></trkpt><trkpt lat="42.1367785" lon="13.2994278"><ele>940.9999999999999</ele><time>2026-05-02T13:48:43.12Z</time></trkpt><trkpt lat="42.1367976" lon="13.299283"><ele>938.75</ele><time>2026-05-02T13:48:44.12Z</time></trkpt><trkpt lat="42.1368153" lon="13.2991511"><ele>936.5</ele><time>2026-05-02T13:48:45.12Z</time></trkpt><trkpt lat="42.1368382" lon="13.2990039"><ele>934.25</ele><time>2026-05-02T13:48:46.119Z</time></trkpt><trkpt lat="42.1368682" lon="13.2988373"><ele>932.0</ele><time>2026-05-02T13:48:47.119Z</time></trkpt><trkpt lat="42.1368942" lon="13.2986854"><ele>931.2</ele><time>2026-05-02T13:48:48.119Z</time></trkpt><trkpt lat="42.1369255" lon="13.2985459"><ele>930.4000000000001</ele><time>2026-05-02T13:48:49.121Z</time></trkpt><trkpt lat="42.1369579" lon="13.2984223"><ele>929.5999999999999</ele><time>2026-05-02T13:48:50.119Z</time></trkpt><trkpt lat="42.1369795" lon="13.2983313"><ele>928.8</ele><time>2026-05-02T13:48:51.121Z</time></trkpt><trkpt lat="42.1369718" lon="13.2981985"><ele>928.0</ele><time>2026-05-02T13:48:53.12Z</time></trkpt><trkpt lat="42.1369" lon="13.2981308"><ele>928.0</ele><time>2026-05-02T13:48:56.119Z</time></trkpt><trkpt lat="42.1368031" lon="13.2981297"><ele>928.0</ele><time>2026-05-02T13:48:59.119Z</time></trkpt><trkpt lat="42.1366904" lon="13.2981018"><ele>928.0</ele><time>2026-05-02T13:49:01.119Z</time></trkpt><trkpt lat="42.1365941" lon="13.2980106"><ele>928.0</ele><time>2026-05-02T13:49:03.119Z</time></trkpt><trkpt lat="42.1365486" lon="13.2978838"><ele>928.0</ele><time>2026-05-02T13:49:05.12Z</time></trkpt><trkpt lat="42.1365805" lon="13.2977161"><ele>927.9999999999999</ele><time>2026-05-02T13:49:07.12Z</time></trkpt><trkpt lat="42.1366276" lon="13.2976266"><ele>928.0</ele><time>2026-05-02T13:49:08.121Z</time></trkpt><trkpt lat="42.136672" lon="13.2975307"><ele>928.0</ele><time>2026-05-02T13:49:09.121Z</time></trkpt><trkpt lat="42.136695" lon="13.2974332"><ele>928.0</ele><time>2026-05-02T13:49:10.12Z</time></trkpt><trkpt lat="42.1367033" lon="13.2973291"><ele>927.9999999999999</ele><time>2026-05-02T13:49:11.12Z</time></trkpt><trkpt lat="42.136702" lon="13.2972161"><ele>928.0</ele><time>2026-05-02T13:49:12.119Z</time></trkpt><trkpt lat="42.1367008" lon="13.2970904"><ele>928.0</ele><time>2026-05-02T13:49:13.12Z</time></trkpt><trkpt lat="42.1367003" lon="13.2969447"><ele>928.0</ele><time>2026-05-02T13:49:14.119Z</time></trkpt><trkpt lat="42.136711" lon="13.2968057"><ele>928.0</ele><time>2026-05-02T13:49:15.119Z</time></trkpt><trkpt lat="42.1367319" lon="13.2966555"><ele>928.0</ele><time>2026-05-02T13:49:16.12Z</time></trkpt><trkpt lat="42.1367369" lon="13.2965148"><ele>928.0</ele><time>2026-05-02T13:49:17.119Z</time></trkpt><trkpt lat="42.1367205" lon="13.2963833"><ele>927.0</ele><time>2026-05-02T13:49:18.119Z</time></trkpt><trkpt lat="42.1367031" lon="13.2962543"><ele>926.0</ele><time>2026-05-02T13:49:19.12Z</time></trkpt><trkpt lat="42.1366945" lon="13.2961141"><ele>925.0</ele><time>2026-05-02T13:49:20.119Z</time></trkpt><trkpt lat="42.1366846" lon="13.2959595"><ele>924.0</ele><time>2026-05-02T13:49:21.119Z</time></trkpt><trkpt lat="42.1366738" lon="13.2958188"><ele>923.0</ele><time>2026-05-02T13:49:22.119Z</time></trkpt><trkpt lat="42.1366705" lon="13.2956876"><ele>922.0</ele><time>2026-05-02T13:49:23.12Z</time></trkpt><trkpt lat="42.1366748" lon="13.2955494"><ele>921.0</ele><time>2026-05-02T13:49:24.119Z</time></trkpt><trkpt lat="42.1366798" lon="13.2953997"><ele>920.0</ele><time>2026-05-02T13:49:25.119Z</time></trkpt><trkpt lat="42.1366728" lon="13.2952534"><ele>919.0</ele><time>2026-05-02T13:49:26.12Z</time></trkpt><trkpt lat="42.1366553" lon="13.2951065"><ele>918.0</ele><time>2026-05-02T13:49:27.119Z</time></trkpt><trkpt lat="42.1366309" lon="13.2949633"><ele>918.0</ele><time>2026-05-02T13:49:28.119Z</time></trkpt><trkpt lat="42.1366045" lon="13.2948021"><ele>918.0</ele><time>2026-05-02T13:49:29.12Z</time></trkpt><trkpt lat="42.1365788" lon="13.2946599"><ele>918.0</ele><time>2026-05-02T13:49:30.119Z</time></trkpt><trkpt lat="42.1365563" lon="13.2945138"><ele>918.0</ele><time>2026-05-02T13:49:31.119Z</time></trkpt><trkpt lat="42.1365295" lon="13.2943645"><ele>916.2</ele><time>2026-05-02T13:49:32.119Z</time></trkpt><trkpt lat="42.1365102" lon="13.2942327"><ele>914.4</ele><time>2026-05-02T13:49:33.12Z</time></trkpt><trkpt lat="42.1365057" lon="13.29411"><ele>912.6000000000001</ele><time>2026-05-02T13:49:34.12Z</time></trkpt><trkpt lat="42.1365154" lon="13.2939939"><ele>910.8000000000001</ele><time>2026-05-02T13:49:35.119Z</time></trkpt><trkpt lat="42.1365226" lon="13.2939019"><ele>909.0</ele><time>2026-05-02T13:49:36.12Z</time></trkpt><trkpt lat="42.1364539" lon="13.2937557"><ele>909.0</ele><time>2026-05-02T13:49:38.119Z</time></trkpt><trkpt lat="42.136407" lon="13.2936808"><ele>909.0</ele><time>2026-05-02T13:49:39.119Z</time></trkpt><trkpt lat="42.1363698" lon="13.293591"><ele>909.0</ele><time>2026-05-02T13:49:40.119Z</time></trkpt><trkpt lat="42.1363512" lon="13.2934959"><ele>909.0</ele><time>2026-05-02T13:49:41.119Z</time></trkpt><trkpt lat="42.1363424" lon="13.293387"><ele>909.0</ele><time>2026-05-02T13:49:42.119Z</time></trkpt><trkpt lat="42.1363238" lon="13.293279"><ele>909.0</ele><time>2026-05-02T13:49:43.12Z</time></trkpt><trkpt lat="42.1362912" lon="13.2931614"><ele>908.6</ele><time>2026-05-02T13:49:44.12Z</time></trkpt><trkpt lat="42.1362498" lon="13.2930416"><ele>908.2</ele><time>2026-05-02T13:49:45.119Z</time></trkpt><trkpt lat="42.1362148" lon="13.2929184"><ele>907.8000000000001</ele><time>2026-05-02T13:49:46.119Z</time></trkpt><trkpt lat="42.1361992" lon="13.2927903"><ele>907.4000000000001</ele><time>2026-05-02T13:49:47.12Z</time></trkpt><trkpt lat="42.1362009" lon="13.2926496"><ele>907.0</ele><time>2026-05-02T13:49:48.119Z</time></trkpt><trkpt lat="42.1362126" lon="13.2924928"><ele>907.0</ele><time>2026-05-02T13:49:49.119Z</time></trkpt><trkpt lat="42.1362312" lon="13.2923243"><ele>907.0</ele><time>2026-05-02T13:49:50.119Z</time></trkpt><trkpt lat="42.1362551" lon="13.2921528"><ele>907.0</ele><time>2026-05-02T13:49:51.12Z</time></trkpt><trkpt lat="42.1362713" lon="13.2919941"><ele>907.0</ele><time>2026-05-02T13:49:52.119Z</time></trkpt><trkpt lat="42.1362824" lon="13.2918429"><ele>905.4999999999999</ele><time>2026-05-02T13:49:53.119Z</time></trkpt><trkpt lat="42.1362875" lon="13.2917103"><ele>904.0</ele><time>2026-05-02T13:49:54.119Z</time></trkpt><trkpt lat="42.1362885" lon="13.291617"><ele>902.5</ele><time>2026-05-02T13:49:55.119Z</time></trkpt><trkpt lat="42.136319" lon="13.2914726"><ele>901.0</ele><time>2026-05-02T13:49:57.119Z</time></trkpt><trkpt lat="42.1363677" lon="13.2914058"><ele>899.4999999999999</ele><time>2026-05-02T13:49:58.119Z</time></trkpt><trkpt lat="42.1364246" lon="13.2913301"><ele>898.0</ele><time>2026-05-02T13:49:59.119Z</time></trkpt><trkpt lat="42.136456" lon="13.2912284"><ele>896.9999999999999</ele><time>2026-05-02T13:50:00.119Z</time></trkpt><trkpt lat="42.136472" lon="13.2911141"><ele>896.0</ele><time>2026-05-02T13:50:01.12Z</time></trkpt><trkpt lat="42.136487" lon="13.2910055"><ele>895.0</ele><time>2026-05-02T13:50:02.12Z</time></trkpt><trkpt lat="42.1365144" lon="13.2909132"><ele>894.0</ele><time>2026-05-02T13:50:03.119Z</time></trkpt><trkpt lat="42.1365468" lon="13.2908379"><ele>892.9999999999999</ele><time>2026-05-02T13:50:04.12Z</time></trkpt><trkpt lat="42.1366608" lon="13.2907548"><ele>892.0</ele><time>2026-05-02T13:50:06.119Z</time></trkpt><trkpt lat="42.136749" lon="13.2907383"><ele>891.9999999999999</ele><time>2026-05-02T13:50:07.119Z</time></trkpt><trkpt lat="42.1368513" lon="13.2907349"><ele>892.0</ele><time>2026-05-02T13:50:08.121Z</time></trkpt><trkpt lat="42.13696" lon="13.2907309"><ele>892.0</ele><time>2026-05-02T13:50:09.119Z</time></trkpt><trkpt lat="42.1370443" lon="13.2907292"><ele>892.0</ele><time>2026-05-02T13:50:10.119Z</time></trkpt><trkpt lat="42.1371132" lon="13.2907219"><ele>891.9999999999999</ele><time>2026-05-02T13:50:11.12Z</time></trkpt><trkpt lat="42.1371872" lon="13.2906691"><ele>892.0</ele><time>2026-05-02T13:50:13.119Z</time></trkpt><trkpt lat="42.1372004" lon="13.2905637"><ele>889.0</ele><time>2026-05-02T13:50:16.121Z</time></trkpt><trkpt lat="42.1371444" lon="13.2905074"><ele>886.0</ele><time>2026-05-02T13:50:18.12Z</time></trkpt><trkpt lat="42.1370138" lon="13.2904531"><ele>883.0</ele><time>2026-05-02T13:50:20.121Z</time></trkpt><trkpt lat="42.1368878" lon="13.2904029"><ele>880.0</ele><time>2026-05-02T13:50:22.119Z</time></trkpt><trkpt lat="42.1368317" lon="13.2903096"><ele>877.0</ele><time>2026-05-02T13:50:24.119Z</time></trkpt><trkpt lat="42.1368685" lon="13.290201"><ele>876.9999999999999</ele><time>2026-05-02T13:50:26.12Z</time></trkpt><trkpt lat="42.136933" lon="13.2901155"><ele>877.0</ele><time>2026-05-02T13:50:27.12Z</time></trkpt><trkpt lat="42.137003" lon="13.2900275"><ele>877.0</ele><time>2026-05-02T13:50:28.12Z</time></trkpt><trkpt lat="42.1370624" lon="13.2899409"><ele>877.0</ele><time>2026-05-02T13:50:29.12Z</time></trkpt><trkpt lat="42.1371065" lon="13.2898509"><ele>876.9999999999999</ele><time>2026-05-02T13:50:30.119Z</time></trkpt><trkpt lat="42.1371373" lon="13.2897527"><ele>877.0</ele><time>2026-05-02T13:50:31.119Z</time></trkpt><trkpt lat="42.1371607" lon="13.289652"><ele>874.6666666666666</ele><time>2026-05-02T13:50:32.119Z</time></trkpt><trkpt lat="42.137174" lon="13.2895675"><ele>872.3333333333333</ele><time>2026-05-02T13:50:33.119Z</time></trkpt><trkpt lat="42.1371518" lon="13.289422"><ele>870.0</ele><time>2026-05-02T13:50:35.119Z</time></trkpt><trkpt lat="42.1371194" lon="13.2893438"><ele>867.6666666666667</ele><time>2026-05-02T13:50:36.119Z</time></trkpt><trkpt lat="42.1370885" lon="13.2892652"><ele>865.3333333333334</ele><time>2026-05-02T13:50:37.12Z</time></trkpt><trkpt lat="42.1370801" lon="13.2891407"><ele>863.0</ele><time>2026-05-02T13:50:39.119Z</time></trkpt><trkpt lat="42.13714" lon="13.2890434"><ele>863.0</ele><time>2026-05-02T13:50:41.119Z</time></trkpt><trkpt lat="42.1372079" lon="13.2889555"><ele>863.0</ele><time>2026-05-02T13:50:43.119Z</time></trkpt><trkpt lat="42.1371855" lon="13.2887894"><ele>863.0</ele><time>2026-05-02T13:50:45.12Z</time></trkpt><trkpt lat="42.1371463" lon="13.2886755"><ele>863.0</ele><time>2026-05-02T13:50:46.12Z</time></trkpt><trkpt lat="42.1370947" lon="13.2885156"><ele>863.0</ele><time>2026-05-02T13:50:47.119Z</time></trkpt><trkpt lat="42.1370567" lon="13.2883655"><ele>861.6666666666667</ele><time>2026-05-02T13:50:48.119Z</time></trkpt><trkpt lat="42.1370349" lon="13.2882458"><ele>860.3333333333334</ele><time>2026-05-02T13:50:49.12Z</time></trkpt><trkpt lat="42.1370321" lon="13.2881503"><ele>859.0</ele><time>2026-05-02T13:50:50.119Z</time></trkpt><trkpt lat="42.1370623" lon="13.2880478"><ele>857.6666666666667</ele><time>2026-05-02T13:50:52.119Z</time></trkpt><trkpt lat="42.1371326" lon="13.2880336"><ele>856.3333333333334</ele><time>2026-05-02T13:50:54.12Z</time></trkpt><trkpt lat="42.1371942" lon="13.2881145"><ele>855.0</ele><time>2026-05-02T13:50:56.119Z</time></trkpt><trkpt lat="42.1372697" lon="13.2882128"><ele>855.0</ele><time>2026-05-02T13:50:58.119Z</time></trkpt><trkpt lat="42.1373705" lon="13.2882695"><ele>855.0</ele><time>2026-05-02T13:51:00.119Z</time></trkpt><trkpt lat="42.1374418" lon="13.2883194"><ele>855.0</ele><time>2026-05-02T13:51:01.119Z</time></trkpt><trkpt lat="42.1375338" lon="13.2883889"><ele>855.0</ele><time>2026-05-02T13:51:02.119Z</time></trkpt><trkpt lat="42.1376255" lon="13.2884656"><ele>855.0</ele><time>2026-05-02T13:51:03.119Z</time></trkpt><trkpt lat="42.1376971" lon="13.2885289"><ele>855.3333333333334</ele><time>2026-05-02T13:51:04.12Z</time></trkpt><trkpt lat="42.1377709" lon="13.288553"><ele>855.6666666666667</ele><time>2026-05-02T13:51:05.12Z</time></trkpt><trkpt lat="42.1378335" lon="13.28853"><ele>856.0</ele><time>2026-05-02T13:51:06.119Z</time></trkpt><trkpt lat="42.1378835" lon="13.288472"><ele>856.3333333333334</ele><time>2026-05-02T13:51:07.119Z</time></trkpt><trkpt lat="42.1379058" lon="13.2883899"><ele>856.6666666666667</ele><time>2026-05-02T13:51:08.12Z</time></trkpt><trkpt lat="42.1379038" lon="13.288291"><ele>857.0</ele><time>2026-05-02T13:51:09.12Z</time></trkpt><trkpt lat="42.1378877" lon="13.2881475"><ele>855.0</ele><time>2026-05-02T13:51:10.119Z</time></trkpt><trkpt lat="42.137856" lon="13.2879765"><ele>853.0</ele><time>2026-05-02T13:51:11.119Z</time></trkpt><trkpt lat="42.1378178" lon="13.2877738"><ele>851.0</ele><time>2026-05-02T13:51:12.121Z</time></trkpt><trkpt lat="42.1377783" lon="13.2875833"><ele>849.0</ele><time>2026-05-02T13:51:13.119Z</time></trkpt><trkpt lat="42.1377428" lon="13.287408"><ele>847.4000000000001</ele><time>2026-05-02T13:51:14.119Z</time></trkpt><trkpt lat="42.1377207" lon="13.2872435"><ele>845.8</ele><time>2026-05-02T13:51:15.12Z</time></trkpt><trkpt lat="42.137715" lon="13.2870961"><ele>844.2</ele><time>2026-05-02T13:51:16.119Z</time></trkpt><trkpt lat="42.1377119" lon="13.2869483"><ele>842.5999999999999</ele><time>2026-05-02T13:51:17.12Z</time></trkpt><trkpt lat="42.137707" lon="13.2868062"><ele>841.0</ele><time>2026-05-02T13:51:18.119Z</time></trkpt><trkpt lat="42.1376863" lon="13.2866549"><ele>841.0</ele><time>2026-05-02T13:51:19.119Z</time></trkpt><trkpt lat="42.1376767" lon="13.2864764"><ele>841.0</ele><time>2026-05-02T13:51:20.119Z</time></trkpt><trkpt lat="42.137667" lon="13.2863177"><ele>841.0</ele><time>2026-05-02T13:51:21.12Z</time></trkpt><trkpt lat="42.1376555" lon="13.2861753"><ele>841.0</ele><time>2026-05-02T13:51:22.119Z</time></trkpt><trkpt lat="42.137631" lon="13.2860508"><ele>840.6666666666666</ele><time>2026-05-02T13:51:23.119Z</time></trkpt><trkpt lat="42.1376071" lon="13.2859537"><ele>840.3333333333333</ele><time>2026-05-02T13:51:24.119Z</time></trkpt><trkpt lat="42.1375969" lon="13.2858697"><ele>840.0</ele><time>2026-05-02T13:51:25.119Z</time></trkpt><trkpt lat="42.1376039" lon="13.2857743"><ele>839.6666666666667</ele><time>2026-05-02T13:51:31.12Z</time></trkpt><trkpt lat="42.1376723" lon="13.2857048"><ele>839.3333333333334</ele><time>2026-05-02T13:51:33.119Z</time></trkpt><trkpt lat="42.1378234" lon="13.2857187"><ele>839.0</ele><time>2026-05-02T13:51:35.121Z</time></trkpt><trkpt lat="42.1379313" lon="13.2857492"><ele>839.0</ele><time>2026-05-02T13:51:36.12Z</time></trkpt><trkpt lat="42.1380597" lon="13.2857894"><ele>839.0</ele><time>2026-05-02T13:51:37.119Z</time></trkpt><trkpt lat="42.1381579" lon="13.2858278"><ele>839.0</ele><time>2026-05-02T13:51:38.12Z</time></trkpt><trkpt lat="42.1382339" lon="13.2858684"><ele>839.0</ele><time>2026-05-02T13:51:39.119Z</time></trkpt><trkpt lat="42.1383144" lon="13.2858961"><ele>839.0</ele><time>2026-05-02T13:51:40.119Z</time></trkpt><trkpt lat="42.1384152" lon="13.2859034"><ele>839.1666666666667</ele><time>2026-05-02T13:51:43.119Z</time></trkpt><trkpt lat="42.1384945" lon="13.2858656"><ele>839.3333333333334</ele><time>2026-05-02T13:51:46.119Z</time></trkpt><trkpt lat="42.1386076" lon="13.2858551"><ele>839.5</ele><time>2026-05-02T13:51:48.12Z</time></trkpt><trkpt lat="42.1386832" lon="13.285852"><ele>839.6666666666667</ele><time>2026-05-02T13:51:49.119Z</time></trkpt><trkpt lat="42.138758" lon="13.2858433"><ele>839.8333333333334</ele><time>2026-05-02T13:51:50.119Z</time></trkpt><trkpt lat="42.1388276" lon="13.2858494"><ele>840.0</ele><time>2026-05-02T13:51:51.12Z</time></trkpt><trkpt lat="42.1388971" lon="13.2858746"><ele>840.0</ele><time>2026-05-02T13:51:52.119Z</time></trkpt><trkpt lat="42.1389631" lon="13.2858966"><ele>840.0</ele><time>2026-05-02T13:51:53.119Z</time></trkpt><trkpt lat="42.1390404" lon="13.2859051"><ele>840.0</ele><time>2026-05-02T13:51:54.119Z</time></trkpt><trkpt lat="42.1391213" lon="13.2859013"><ele>840.0</ele><time>2026-05-02T13:51:55.119Z</time></trkpt><trkpt lat="42.1392087" lon="13.2858929"><ele>840.0</ele><time>2026-05-02T13:51:56.12Z</time></trkpt><trkpt lat="42.1393203" lon="13.2858837"><ele>840.0</ele><time>2026-05-02T13:51:57.119Z</time></trkpt><trkpt lat="42.1394381" lon="13.2858926"><ele>839.25</ele><time>2026-05-02T13:51:58.119Z</time></trkpt><trkpt lat="42.1395533" lon="13.2859119"><ele>838.5</ele><time>2026-05-02T13:51:59.119Z</time></trkpt><trkpt lat="42.1396681" lon="13.2859071"><ele>837.75</ele><time>2026-05-02T13:52:00.119Z</time></trkpt><trkpt lat="42.1397832" lon="13.2858992"><ele>837.0</ele><time>2026-05-02T13:52:01.119Z</time></trkpt><trkpt lat="42.139901" lon="13.2858983"><ele>834.5</ele><time>2026-05-02T13:52:02.119Z</time></trkpt><trkpt lat="42.1400187" lon="13.285905"><ele>832.0</ele><time>2026-05-02T13:52:03.119Z</time></trkpt><trkpt lat="42.1401349" lon="13.285925"><ele>829.5</ele><time>2026-05-02T13:52:04.119Z</time></trkpt><trkpt lat="42.1402506" lon="13.2859369"><ele>827.0</ele><time>2026-05-02T13:52:05.119Z</time></trkpt><trkpt lat="42.1403582" lon="13.2859549"><ele>827.0</ele><time>2026-05-02T13:52:06.12Z</time></trkpt><trkpt lat="42.1404626" lon="13.2859764"><ele>827.0</ele><time>2026-05-02T13:52:07.12Z</time></trkpt><trkpt lat="42.1405619" lon="13.2859911"><ele>827.0</ele><time>2026-05-02T13:52:08.12Z</time></trkpt><trkpt lat="42.1406526" lon="13.2859923"><ele>827.0</ele><time>2026-05-02T13:52:09.119Z</time></trkpt><trkpt lat="42.1407344" lon="13.2859869"><ele>827.0</ele><time>2026-05-02T13:52:10.119Z</time></trkpt><trkpt lat="42.1408094" lon="13.2859763"><ele>825.6666666666667</ele><time>2026-05-02T13:52:11.119Z</time></trkpt><trkpt lat="42.1408767" lon="13.2859687"><ele>824.3333333333334</ele><time>2026-05-02T13:52:12.119Z</time></trkpt><trkpt lat="42.1409789" lon="13.2860051"><ele>823.0</ele><time>2026-05-02T13:52:14.119Z</time></trkpt><trkpt lat="42.1410394" lon="13.28605"><ele>821.6666666666667</ele><time>2026-05-02T13:52:15.119Z</time></trkpt><trkpt lat="42.1411098" lon="13.2860854"><ele>820.3333333333334</ele><time>2026-05-02T13:52:16.119Z</time></trkpt><trkpt lat="42.1411797" lon="13.2860968"><ele>819.0</ele><time>2026-05-02T13:52:17.119Z</time></trkpt><trkpt lat="42.1412468" lon="13.2860869"><ele>819.0</ele><time>2026-05-02T13:52:18.12Z</time></trkpt><trkpt lat="42.14133" lon="13.2860518"><ele>819.0</ele><time>2026-05-02T13:52:19.12Z</time></trkpt><trkpt lat="42.1414219" lon="13.2860165"><ele>819.0</ele><time>2026-05-02T13:52:20.12Z</time></trkpt><trkpt lat="42.1415099" lon="13.2859885"><ele>819.0</ele><time>2026-05-02T13:52:21.12Z</time></trkpt><trkpt lat="42.1416026" lon="13.2859657"><ele>819.0</ele><time>2026-05-02T13:52:22.12Z</time></trkpt><trkpt lat="42.141693" lon="13.2859642"><ele>815.6666666666666</ele><time>2026-05-02T13:52:23.119Z</time></trkpt><trkpt lat="42.1417861" lon="13.28597"><ele>812.3333333333333</ele><time>2026-05-02T13:52:24.119Z</time></trkpt><trkpt lat="42.1418813" lon="13.2859762"><ele>809.0</ele><time>2026-05-02T13:52:25.119Z</time></trkpt><trkpt lat="42.1419809" lon="13.2859755"><ele>805.6666666666666</ele><time>2026-05-02T13:52:26.119Z</time></trkpt><trkpt lat="42.1420626" lon="13.285975"><ele>802.3333333333333</ele><time>2026-05-02T13:52:27.119Z</time></trkpt><trkpt lat="42.1421369" lon="13.2859761"><ele>799.0</ele><time>2026-05-02T13:52:28.119Z</time></trkpt><trkpt lat="42.1422505" lon="13.2859603"><ele>798.9999999999999</ele><time>2026-05-02T13:52:30.12Z</time></trkpt><trkpt lat="42.1423174" lon="13.2859266"><ele>799.0</ele><time>2026-05-02T13:52:31.119Z</time></trkpt><trkpt lat="42.1424236" lon="13.2859128"><ele>799.0</ele><time>2026-05-02T13:52:33.119Z</time></trkpt><trkpt lat="42.1425003" lon="13.2860033"><ele>799.0</ele><time>2026-05-02T13:52:35.119Z</time></trkpt><trkpt lat="42.1425367" lon="13.2860885"><ele>798.9999999999999</ele><time>2026-05-02T13:52:36.12Z</time></trkpt><trkpt lat="42.1425785" lon="13.2861637"><ele>799.0</ele><time>2026-05-02T13:52:37.119Z</time></trkpt><trkpt lat="42.1426321" lon="13.2862285"><ele>798.6666666666666</ele><time>2026-05-02T13:52:38.119Z</time></trkpt><trkpt lat="42.142698" lon="13.2862839"><ele>798.3333333333333</ele><time>2026-05-02T13:52:39.12Z</time></trkpt><trkpt lat="42.1427717" lon="13.286331"><ele>798.0</ele><time>2026-05-02T13:52:40.121Z</time></trkpt><trkpt lat="42.1428538" lon="13.2863822"><ele>797.6666666666667</ele><time>2026-05-02T13:52:41.119Z</time></trkpt><trkpt lat="42.1429205" lon="13.28644"><ele>797.3333333333334</ele><time>2026-05-02T13:52:42.119Z</time></trkpt><trkpt lat="42.1429815" lon="13.2865213"><ele>797.0</ele><time>2026-05-02T13:52:43.119Z</time></trkpt><trkpt lat="42.1430533" lon="13.2866336"><ele>797.0</ele><time>2026-05-02T13:52:44.119Z</time></trkpt><trkpt lat="42.1431228" lon="13.2867597"><ele>797.0</ele><time>2026-05-02T13:52:45.12Z</time></trkpt><trkpt lat="42.1431763" lon="13.2868836"><ele>797.0</ele><time>2026-05-02T13:52:46.119Z</time></trkpt><trkpt lat="42.1432187" lon="13.2870155"><ele>797.0</ele><time>2026-05-02T13:52:47.119Z</time></trkpt><trkpt lat="42.1432472" lon="13.2871475"><ele>797.0</ele><time>2026-05-02T13:52:48.12Z</time></trkpt><trkpt lat="42.143255" lon="13.2872679"><ele>794.5000000000001</ele><time>2026-05-02T13:52:49.119Z</time></trkpt><trkpt lat="42.1432536" lon="13.2874139"><ele>792.0</ele><time>2026-05-02T13:52:50.119Z</time></trkpt><trkpt lat="42.1432489" lon="13.2875271"><ele>789.5</ele><time>2026-05-02T13:52:51.121Z</time></trkpt><trkpt lat="42.1432602" lon="13.2876124"><ele>787.0</ele><time>2026-05-02T13:52:52.12Z</time></trkpt><trkpt lat="42.1432963" lon="13.2876901"><ele>784.5000000000001</ele><time>2026-05-02T13:52:53.119Z</time></trkpt><trkpt lat="42.1433801" lon="13.2877568"><ele>782.0</ele><time>2026-05-02T13:52:55.12Z</time></trkpt><trkpt lat="42.1434956" lon="13.2878204"><ele>782.0000000000001</ele><time>2026-05-02T13:52:57.12Z</time></trkpt><trkpt lat="42.1435676" lon="13.2878566"><ele>782.0</ele><time>2026-05-02T13:52:58.119Z</time></trkpt><trkpt lat="42.1436411" lon="13.287849"><ele>782.0</ele><time>2026-05-02T13:52:59.119Z</time></trkpt><trkpt lat="42.143743" lon="13.2877503"><ele>782.0</ele><time>2026-05-02T13:53:01.119Z</time></trkpt><trkpt lat="42.1437961" lon="13.2876687"><ele>782.0000000000001</ele><time>2026-05-02T13:53:02.119Z</time></trkpt><trkpt lat="42.1438491" lon="13.2875842"><ele>782.0</ele><time>2026-05-02T13:53:03.12Z</time></trkpt><trkpt lat="42.1438975" lon="13.2875263"><ele>782.0000000000001</ele><time>2026-05-02T13:53:04.12Z</time></trkpt><trkpt lat="42.1439502" lon="13.2874798"><ele>782.0</ele><time>2026-05-02T13:53:05.119Z</time></trkpt><trkpt lat="42.1440174" lon="13.2874297"><ele>782.0</ele><time>2026-05-02T13:53:06.119Z</time></trkpt><trkpt lat="42.1440911" lon="13.2873899"><ele>782.0</ele><time>2026-05-02T13:53:07.119Z</time></trkpt><trkpt lat="42.1441631" lon="13.2873751"><ele>782.0000000000001</ele><time>2026-05-02T13:53:08.119Z</time></trkpt><trkpt lat="42.1442619" lon="13.2873729"><ele>782.0</ele><time>2026-05-02T13:53:09.12Z</time></trkpt><trkpt lat="42.1443652" lon="13.2873781"><ele>783.2</ele><time>2026-05-02T13:53:10.119Z</time></trkpt><trkpt lat="42.1444517" lon="13.2873752"><ele>784.4000000000001</ele><time>2026-05-02T13:53:11.119Z</time></trkpt><trkpt lat="42.1445472" lon="13.2873621"><ele>785.5999999999999</ele><time>2026-05-02T13:53:12.119Z</time></trkpt><trkpt lat="42.144649" lon="13.2873537"><ele>786.8</ele><time>2026-05-02T13:53:13.12Z</time></trkpt><trkpt lat="42.1447422" lon="13.2873475"><ele>788.0</ele><time>2026-05-02T13:53:14.12Z</time></trkpt><trkpt lat="42.1448141" lon="13.2873587"><ele>789.5999999999999</ele><time>2026-05-02T13:53:15.12Z</time></trkpt><trkpt lat="42.1448955" lon="13.2873985"><ele>791.1999999999999</ele><time>2026-05-02T13:53:16.12Z</time></trkpt><trkpt lat="42.14495" lon="13.2874432"><ele>792.8</ele><time>2026-05-02T13:53:17.119Z</time></trkpt><trkpt lat="42.1450236" lon="13.2875452"><ele>794.4</ele><time>2026-05-02T13:53:19.119Z</time></trkpt><trkpt lat="42.1450589" lon="13.2876678"><ele>796.0</ele><time>2026-05-02T13:53:21.119Z</time></trkpt><trkpt lat="42.1450636" lon="13.2878413"><ele>796.0</ele><time>2026-05-02T13:53:23.119Z</time></trkpt><trkpt lat="42.1450485" lon="13.2879471"><ele>796.0</ele><time>2026-05-02T13:53:24.119Z</time></trkpt><trkpt lat="42.1450252" lon="13.2880862"><ele>796.0</ele><time>2026-05-02T13:53:25.119Z</time></trkpt><trkpt lat="42.1450024" lon="13.2882569"><ele>796.0</ele><time>2026-05-02T13:53:26.12Z</time></trkpt><trkpt lat="42.1449859" lon="13.288434"><ele>796.0</ele><time>2026-05-02T13:53:27.119Z</time></trkpt><trkpt lat="42.1449743" lon="13.2885982"><ele>796.1999999999999</ele><time>2026-05-02T13:53:28.12Z</time></trkpt><trkpt lat="42.1449655" lon="13.2887548"><ele>796.4</ele><time>2026-05-02T13:53:29.119Z</time></trkpt><trkpt lat="42.1449549" lon="13.2888898"><ele>796.6</ele><time>2026-05-02T13:53:30.121Z</time></trkpt><trkpt lat="42.1449525" lon="13.2890314"><ele>796.8</ele><time>2026-05-02T13:53:31.121Z</time></trkpt><trkpt lat="42.1449548" lon="13.2891765"><ele>797.0</ele><time>2026-05-02T13:53:32.119Z</time></trkpt><trkpt lat="42.1449751" lon="13.2893128"><ele>797.2</ele><time>2026-05-02T13:53:33.12Z</time></trkpt><trkpt lat="42.1449796" lon="13.2894467"><ele>797.4000000000001</ele><time>2026-05-02T13:53:34.12Z</time></trkpt><trkpt lat="42.1449824" lon="13.2895694"><ele>797.5999999999999</ele><time>2026-05-02T13:53:35.119Z</time></trkpt><trkpt lat="42.1450174" lon="13.2896856"><ele>797.8</ele><time>2026-05-02T13:53:36.119Z</time></trkpt><trkpt lat="42.145055" lon="13.2898041"><ele>798.0</ele><time>2026-05-02T13:53:37.119Z</time></trkpt><trkpt lat="42.1451078" lon="13.2899176"><ele>798.0</ele><time>2026-05-02T13:53:38.119Z</time></trkpt><trkpt lat="42.1451527" lon="13.2900256"><ele>798.0</ele><time>2026-05-02T13:53:39.119Z</time></trkpt><trkpt lat="42.1452033" lon="13.2901376"><ele>798.0</ele><time>2026-05-02T13:53:40.119Z</time></trkpt><trkpt lat="42.1452604" lon="13.2902423"><ele>798.0</ele><time>2026-05-02T13:53:41.119Z</time></trkpt><trkpt lat="42.1453133" lon="13.2903394"><ele>798.0</ele><time>2026-05-02T13:53:42.12Z</time></trkpt><trkpt lat="42.1453752" lon="13.2904308"><ele>798.0</ele><time>2026-05-02T13:53:43.119Z</time></trkpt><trkpt lat="42.1454389" lon="13.2905173"><ele>798.0</ele><time>2026-05-02T13:53:44.119Z</time></trkpt><trkpt lat="42.1455021" lon="13.2905942"><ele>798.0</ele><time>2026-05-02T13:53:45.12Z</time></trkpt><trkpt lat="42.1455701" lon="13.2906718"><ele>798.0</ele><time>2026-05-02T13:53:46.119Z</time></trkpt><trkpt lat="42.1456496" lon="13.2907419"><ele>798.0</ele><time>2026-05-02T13:53:47.118Z</time></trkpt><trkpt lat="42.1457401" lon="13.2908209"><ele>796.0</ele><time>2026-05-02T13:53:48.118Z</time></trkpt><trkpt lat="42.1458375" lon="13.290904"><ele>794.0</ele><time>2026-05-02T13:53:49.12Z</time></trkpt><trkpt lat="42.1459174" lon="13.2909815"><ele>792.0</ele><time>2026-05-02T13:53:50.12Z</time></trkpt><trkpt lat="42.1459784" lon="13.2910453"><ele>790.0</ele><time>2026-05-02T13:53:51.119Z</time></trkpt><trkpt lat="42.1460571" lon="13.291134"><ele>788.0</ele><time>2026-05-02T13:53:53.119Z</time></trkpt><trkpt lat="42.1461179" lon="13.2912186"><ele>788.0</ele><time>2026-05-02T13:53:55.119Z</time></trkpt><trkpt lat="42.1461652" lon="13.2912808"><ele>788.0</ele><time>2026-05-02T13:53:56.119Z</time></trkpt><trkpt lat="42.1462367" lon="13.2913779"><ele>788.0</ele><time>2026-05-02T13:53:57.118Z</time></trkpt><trkpt lat="42.1463155" lon="13.2914786"><ele>788.0</ele><time>2026-05-02T13:53:58.119Z</time></trkpt><trkpt lat="42.1463928" lon="13.2915785"><ele>788.0</ele><time>2026-05-02T13:53:59.119Z</time></trkpt><trkpt lat="42.1464657" lon="13.2916769"><ele>786.6666666666667</ele><time>2026-05-02T13:54:00.119Z</time></trkpt><trkpt lat="42.1465452" lon="13.2917696"><ele>785.3333333333334</ele><time>2026-05-02T13:54:01.118Z</time></trkpt><trkpt lat="42.146607" lon="13.2918347"><ele>784.0</ele><time>2026-05-02T13:54:02.118Z</time></trkpt><trkpt lat="42.1466601" lon="13.2918804"><ele>782.6666666666667</ele><time>2026-05-02T13:54:03.118Z</time></trkpt><trkpt lat="42.1467701" lon="13.2918628"><ele>781.3333333333334</ele><time>2026-05-02T13:54:05.119Z</time></trkpt><trkpt lat="42.146829" lon="13.2918013"><ele>780.0</ele><time>2026-05-02T13:54:06.118Z</time></trkpt><trkpt lat="42.1468884" lon="13.2917409"><ele>780.0</ele><time>2026-05-02T13:54:07.118Z</time></trkpt><trkpt lat="42.1469448" lon="13.2916832"><ele>780.0</ele><time>2026-05-02T13:54:08.118Z</time></trkpt><trkpt lat="42.1470004" lon="13.2916234"><ele>780.0</ele><time>2026-05-02T13:54:09.118Z</time></trkpt><trkpt lat="42.1470517" lon="13.2915704"><ele>780.0</ele><time>2026-05-02T13:54:10.118Z</time></trkpt><trkpt lat="42.1471105" lon="13.2915394"><ele>780.0</ele><time>2026-05-02T13:54:11.119Z</time></trkpt><trkpt lat="42.1471783" lon="13.2915213"><ele>780.0</ele><time>2026-05-02T13:54:12.118Z</time></trkpt><trkpt lat="42.14725" lon="13.2915161"><ele>780.0</ele><time>2026-05-02T13:54:13.119Z</time></trkpt><trkpt lat="42.1473159" lon="13.2915221"><ele>777.5714285714286</ele><time>2026-05-02T13:54:14.118Z</time></trkpt><trkpt lat="42.1473789" lon="13.2915337"><ele>775.1428571428571</ele><time>2026-05-02T13:54:15.118Z</time></trkpt><trkpt lat="42.1474412" lon="13.2915572"><ele>772.7142857142858</ele><time>2026-05-02T13:54:16.118Z</time></trkpt><trkpt lat="42.1475274" lon="13.2916139"><ele>770.2857142857142</ele><time>2026-05-02T13:54:18.118Z</time></trkpt><trkpt lat="42.1475986" lon="13.2915738"><ele>767.8571428571429</ele><time>2026-05-02T13:54:21.118Z</time></trkpt><trkpt lat="42.1475677" lon="13.2914875"><ele>765.4285714285714</ele><time>2026-05-02T13:54:23.118Z</time></trkpt><trkpt lat="42.147531" lon="13.291412"><ele>763.0</ele><time>2026-05-02T13:54:24.118Z</time></trkpt><trkpt lat="42.1474831" lon="13.291313"><ele>761.0</ele><time>2026-05-02T13:54:25.119Z</time></trkpt><trkpt lat="42.1474522" lon="13.2912215"><ele>759.0</ele><time>2026-05-02T13:54:26.119Z</time></trkpt><trkpt lat="42.1474266" lon="13.2911416"><ele>757.0</ele><time>2026-05-02T13:54:27.118Z</time></trkpt><trkpt lat="42.1474321" lon="13.2910007"><ele>755.0</ele><time>2026-05-02T13:54:29.119Z</time></trkpt><trkpt lat="42.1474681" lon="13.2909181"><ele>753.0</ele><time>2026-05-02T13:54:30.119Z</time></trkpt><trkpt lat="42.1475275" lon="13.2908129"><ele>751.0</ele><time>2026-05-02T13:54:31.119Z</time></trkpt><trkpt lat="42.1475804" lon="13.2907059"><ele>751.0</ele><time>2026-05-02T13:54:32.118Z</time></trkpt><trkpt lat="42.1476358" lon="13.2905978"><ele>751.0</ele><time>2026-05-02T13:54:33.118Z</time></trkpt><trkpt lat="42.1476935" lon="13.2905042"><ele>751.0</ele><time>2026-05-02T13:54:34.119Z</time></trkpt><trkpt lat="42.1477588" lon="13.2904267"><ele>751.0</ele><time>2026-05-02T13:54:35.119Z</time></trkpt><trkpt lat="42.1478355" lon="13.2903581"><ele>751.0</ele><time>2026-05-02T13:54:36.119Z</time></trkpt><trkpt lat="42.1479334" lon="13.2902887"><ele>751.5</ele><time>2026-05-02T13:54:37.118Z</time></trkpt><trkpt lat="42.1480506" lon="13.2902154"><ele>752.0</ele><time>2026-05-02T13:54:38.118Z</time></trkpt><trkpt lat="42.1481791" lon="13.2901277"><ele>752.5</ele><time>2026-05-02T13:54:39.118Z</time></trkpt><trkpt lat="42.1483147" lon="13.2900402"><ele>753.0</ele><time>2026-05-02T13:54:40.118Z</time></trkpt><trkpt lat="42.1484376" lon="13.2899481"><ele>749.5</ele><time>2026-05-02T13:54:41.119Z</time></trkpt><trkpt lat="42.1485541" lon="13.2898522"><ele>746.0</ele><time>2026-05-02T13:54:42.118Z</time></trkpt><trkpt lat="42.1486705" lon="13.2897634"><ele>742.5</ele><time>2026-05-02T13:54:43.119Z</time></trkpt><trkpt lat="42.1487856" lon="13.289679"><ele>739.0</ele><time>2026-05-02T13:54:44.118Z</time></trkpt><trkpt lat="42.1488976" lon="13.289589"><ele>739.25</ele><time>2026-05-02T13:54:45.119Z</time></trkpt><trkpt lat="42.1489915" lon="13.289497"><ele>739.5</ele><time>2026-05-02T13:54:46.119Z</time></trkpt><trkpt lat="42.1490774" lon="13.2893915"><ele>739.75</ele><time>2026-05-02T13:54:47.118Z</time></trkpt><trkpt lat="42.1491602" lon="13.2892826"><ele>740.0</ele><time>2026-05-02T13:54:48.118Z</time></trkpt><trkpt lat="42.1492299" lon="13.2891482"><ele>740.0</ele><time>2026-05-02T13:54:49.118Z</time></trkpt><trkpt lat="42.1492959" lon="13.2890432"><ele>740.0</ele><time>2026-05-02T13:54:50.118Z</time></trkpt><trkpt lat="42.1493638" lon="13.2889556"><ele>740.0</ele><time>2026-05-02T13:54:51.118Z</time></trkpt><trkpt lat="42.1494365" lon="13.2888794"><ele>740.0</ele><time>2026-05-02T13:54:52.118Z</time></trkpt><trkpt lat="42.1495158" lon="13.2887905"><ele>740.0</ele><time>2026-05-02T13:54:53.118Z</time></trkpt><trkpt lat="42.1496006" lon="13.2886931"><ele>740.75</ele><time>2026-05-02T13:54:54.119Z</time></trkpt><trkpt lat="42.1497001" lon="13.2885841"><ele>741.5</ele><time>2026-05-02T13:54:55.12Z</time></trkpt><trkpt lat="42.149795" lon="13.2884638"><ele>742.25</ele><time>2026-05-02T13:54:56.118Z</time></trkpt><trkpt lat="42.1498852" lon="13.2883345"><ele>743.0</ele><time>2026-05-02T13:54:57.118Z</time></trkpt><trkpt lat="42.1499685" lon="13.2882012"><ele>740.5</ele><time>2026-05-02T13:54:58.118Z</time></trkpt><trkpt lat="42.150053" lon="13.2880495"><ele>738.0</ele><time>2026-05-02T13:54:59.118Z</time></trkpt><trkpt lat="42.1501266" lon="13.28791"><ele>735.5</ele><time>2026-05-02T13:55:00.118Z</time></trkpt><trkpt lat="42.1501921" lon="13.2877787"><ele>733.0</ele><time>2026-05-02T13:55:01.118Z</time></trkpt><trkpt lat="42.1502578" lon="13.2876627"><ele>733.0</ele><time>2026-05-02T13:55:02.118Z</time></trkpt><trkpt lat="42.1503225" lon="13.2875341"><ele>733.0</ele><time>2026-05-02T13:55:03.118Z</time></trkpt><trkpt lat="42.1503846" lon="13.2874042"><ele>733.0</ele><time>2026-05-02T13:55:04.118Z</time></trkpt><trkpt lat="42.1504451" lon="13.2872858"><ele>733.0</ele><time>2026-05-02T13:55:05.119Z</time></trkpt><trkpt lat="42.1505076" lon="13.2871771"><ele>733.0</ele><time>2026-05-02T13:55:06.118Z</time></trkpt><trkpt lat="42.1505703" lon="13.2870807"><ele>732.8333333333334</ele><time>2026-05-02T13:55:07.118Z</time></trkpt><trkpt lat="42.1506319" lon="13.287005"><ele>732.6666666666667</ele><time>2026-05-02T13:55:08.118Z</time></trkpt><trkpt lat="42.1506851" lon="13.2869533"><ele>732.5</ele><time>2026-05-02T13:55:09.118Z</time></trkpt><trkpt lat="42.1507495" lon="13.2868888"><ele>732.3333333333334</ele><time>2026-05-02T13:55:11.119Z</time></trkpt><trkpt lat="42.1508317" lon="13.2868188"><ele>732.1666666666666</ele><time>2026-05-02T13:55:13.119Z</time></trkpt><trkpt lat="42.1509011" lon="13.286765"><ele>732.0</ele><time>2026-05-02T13:55:14.118Z</time></trkpt><trkpt lat="42.1509781" lon="13.2866875"><ele>731.5</ele><time>2026-05-02T13:55:15.119Z</time></trkpt><trkpt lat="42.1510627" lon="13.286579"><ele>731.0</ele><time>2026-05-02T13:55:16.118Z</time></trkpt><trkpt lat="42.1511558" lon="13.2864515"><ele>730.5</ele><time>2026-05-02T13:55:17.118Z</time></trkpt><trkpt lat="42.1512421" lon="13.2863233"><ele>730.0</ele><time>2026-05-02T13:55:18.119Z</time></trkpt><trkpt lat="42.151331" lon="13.286177"><ele>729.5</ele><time>2026-05-02T13:55:19.118Z</time></trkpt><trkpt lat="42.1514219" lon="13.2860314"><ele>729.0</ele><time>2026-05-02T13:55:20.119Z</time></trkpt><trkpt lat="42.1515153" lon="13.2859032"><ele>728.5</ele><time>2026-05-02T13:55:21.119Z</time></trkpt><trkpt lat="42.1516143" lon="13.2857977"><ele>728.0</ele><time>2026-05-02T13:55:22.119Z</time></trkpt><trkpt lat="42.1517199" lon="13.2857103"><ele>727.5</ele><time>2026-05-02T13:55:23.118Z</time></trkpt><trkpt lat="42.1518199" lon="13.2856128"><ele>727.0</ele><time>2026-05-02T13:55:24.119Z</time></trkpt><trkpt lat="42.1519256" lon="13.2855183"><ele>726.5</ele><time>2026-05-02T13:55:25.119Z</time></trkpt><trkpt lat="42.1520219" lon="13.2853658"><ele>726.0</ele><time>2026-05-02T13:55:26.119Z</time></trkpt><trkpt lat="42.1521492" lon="13.2852352"><ele>726.0</ele><time>2026-05-02T13:55:27.119Z</time></trkpt><trkpt lat="42.1522671" lon="13.2850918"><ele>726.0</ele><time>2026-05-02T13:55:28.119Z</time></trkpt><trkpt lat="42.1523824" lon="13.2849683"><ele>726.0</ele><time>2026-05-02T13:55:29.119Z</time></trkpt><trkpt lat="42.152492" lon="13.2848514"><ele>726.0</ele><time>2026-05-02T13:55:30.118Z</time></trkpt><trkpt lat="42.1525989" lon="13.2847372"><ele>725.5</ele><time>2026-05-02T13:55:31.118Z</time></trkpt><trkpt lat="42.1526985" lon="13.2846162"><ele>725.0</ele><time>2026-05-02T13:55:32.119Z</time></trkpt><trkpt lat="42.1528038" lon="13.2844997"><ele>724.5</ele><time>2026-05-02T13:55:33.119Z</time></trkpt><trkpt lat="42.1529065" lon="13.2843745"><ele>724.0</ele><time>2026-05-02T13:55:34.119Z</time></trkpt><trkpt lat="42.1530073" lon="13.2842304"><ele>724.0</ele><time>2026-05-02T13:55:35.119Z</time></trkpt><trkpt lat="42.1531048" lon="13.2840752"><ele>724.0</ele><time>2026-05-02T13:55:36.12Z</time></trkpt><trkpt lat="42.1532045" lon="13.2839158"><ele>724.0</ele><time>2026-05-02T13:55:37.118Z</time></trkpt><trkpt lat="42.1533119" lon="13.2837621"><ele>725.0</ele><time>2026-05-02T13:55:38.119Z</time></trkpt><trkpt lat="42.1534092" lon="13.2835945"><ele>726.0</ele><time>2026-05-02T13:55:39.119Z</time></trkpt><trkpt lat="42.153503" lon="13.2834179"><ele>727.0</ele><time>2026-05-02T13:55:40.118Z</time></trkpt><trkpt lat="42.1536046" lon="13.2832484"><ele>727.0</ele><time>2026-05-02T13:55:41.119Z</time></trkpt><trkpt lat="42.1537146" lon="13.2830855"><ele>727.0</ele><time>2026-05-02T13:55:42.118Z</time></trkpt><trkpt lat="42.1538282" lon="13.2829257"><ele>727.0</ele><time>2026-05-02T13:55:43.118Z</time></trkpt><trkpt lat="42.1539439" lon="13.2827659"><ele>727.3333333333334</ele><time>2026-05-02T13:55:44.118Z</time></trkpt><trkpt lat="42.1540652" lon="13.2826109"><ele>727.6666666666666</ele><time>2026-05-02T13:55:45.118Z</time></trkpt><trkpt lat="42.1541832" lon="13.2824513"><ele>728.0</ele><time>2026-05-02T13:55:46.118Z</time></trkpt><trkpt lat="42.1542988" lon="13.2822957"><ele>728.25</ele><time>2026-05-02T13:55:47.118Z</time></trkpt><trkpt lat="42.154413" lon="13.2821639"><ele>728.5</ele><time>2026-05-02T13:55:48.118Z</time></trkpt><trkpt lat="42.1545231" lon="13.2820519"><ele>728.75</ele><time>2026-05-02T13:55:49.119Z</time></trkpt><trkpt lat="42.1546399" lon="13.2819501"><ele>729.0</ele><time>2026-05-02T13:55:50.118Z</time></trkpt><trkpt lat="42.154776" lon="13.2818487"><ele>730.0</ele><time>2026-05-02T13:55:51.118Z</time></trkpt><trkpt lat="42.1549284" lon="13.2817487"><ele>731.0</ele><time>2026-05-02T13:55:52.12Z</time></trkpt><trkpt lat="42.1550744" lon="13.2816468"><ele>732.0</ele><time>2026-05-02T13:55:53.118Z</time></trkpt><trkpt lat="42.1552144" lon="13.2815408"><ele>731.3333333333334</ele><time>2026-05-02T13:55:54.119Z</time></trkpt><trkpt lat="42.1553568" lon="13.2814234"><ele>730.6666666666667</ele><time>2026-05-02T13:55:55.119Z</time></trkpt><trkpt lat="42.1554961" lon="13.2812938"><ele>730.0</ele><time>2026-05-02T13:55:56.118Z</time></trkpt><trkpt lat="42.1556315" lon="13.2811654"><ele>731.3333333333334</ele><time>2026-05-02T13:55:57.12Z</time></trkpt><trkpt lat="42.1557818" lon="13.2810336"><ele>732.6666666666666</ele><time>2026-05-02T13:55:58.118Z</time></trkpt><trkpt lat="42.1559473" lon="13.2809002"><ele>734.0</ele><time>2026-05-02T13:55:59.118Z</time></trkpt><trkpt lat="42.1560993" lon="13.2807786"><ele>734.0</ele><time>2026-05-02T13:56:00.118Z</time></trkpt><trkpt lat="42.1562476" lon="13.28066"><ele>734.0</ele><time>2026-05-02T13:56:01.119Z</time></trkpt><trkpt lat="42.1563936" lon="13.2805348"><ele>734.0</ele><time>2026-05-02T13:56:02.118Z</time></trkpt><trkpt lat="42.156524" lon="13.2804185"><ele>735.0</ele><time>2026-05-02T13:56:03.118Z</time></trkpt><trkpt lat="42.1566485" lon="13.2803014"><ele>736.0</ele><time>2026-05-02T13:56:04.118Z</time></trkpt><trkpt lat="42.1567649" lon="13.2801891"><ele>737.0</ele><time>2026-05-02T13:56:05.118Z</time></trkpt><trkpt lat="42.156881" lon="13.280093"><ele>738.0</ele><time>2026-05-02T13:56:06.118Z</time></trkpt><trkpt lat="42.1569965" lon="13.2800133"><ele>738.0</ele><time>2026-05-02T13:56:07.118Z</time></trkpt><trkpt lat="42.1571257" lon="13.2799361"><ele>738.0</ele><time>2026-05-02T13:56:08.118Z</time></trkpt><trkpt lat="42.157271" lon="13.2798611"><ele>738.0</ele><time>2026-05-02T13:56:09.118Z</time></trkpt><trkpt lat="42.1574348" lon="13.2797888"><ele>738.3333333333334</ele><time>2026-05-02T13:56:10.118Z</time></trkpt><trkpt lat="42.1576109" lon="13.2797187"><ele>738.6666666666667</ele><time>2026-05-02T13:56:11.118Z</time></trkpt><trkpt lat="42.1577811" lon="13.2796629"><ele>739.0</ele><time>2026-05-02T13:56:12.118Z</time></trkpt><trkpt lat="42.157946" lon="13.2796128"><ele>739.0</ele><time>2026-05-02T13:56:13.118Z</time></trkpt><trkpt lat="42.1581165" lon="13.279565"><ele>739.0</ele><time>2026-05-02T13:56:14.118Z</time></trkpt><trkpt lat="42.1582972" lon="13.2795277"><ele>739.0</ele><time>2026-05-02T13:56:15.119Z</time></trkpt><trkpt lat="42.1584799" lon="13.2794982"><ele>740.3333333333334</ele><time>2026-05-02T13:56:16.118Z</time></trkpt><trkpt lat="42.1586591" lon="13.2794686"><ele>741.6666666666666</ele><time>2026-05-02T13:56:17.118Z</time></trkpt><trkpt lat="42.1588343" lon="13.2794425"><ele>743.0</ele><time>2026-05-02T13:56:18.119Z</time></trkpt><trkpt lat="42.1590081" lon="13.2794077"><ele>744.6666666666666</ele><time>2026-05-02T13:56:19.118Z</time></trkpt><trkpt lat="42.1591728" lon="13.2793631"><ele>746.3333333333334</ele><time>2026-05-02T13:56:20.119Z</time></trkpt><trkpt lat="42.1593486" lon="13.2793132"><ele>748.0</ele><time>2026-05-02T13:56:21.118Z</time></trkpt><trkpt lat="42.1595313" lon="13.279265"><ele>748.0</ele><time>2026-05-02T13:56:22.118Z</time></trkpt><trkpt lat="42.1597181" lon="13.2792176"><ele>748.0</ele><time>2026-05-02T13:56:23.118Z</time></trkpt><trkpt lat="42.15991" lon="13.2791741"><ele>748.0</ele><time>2026-05-02T13:56:24.118Z</time></trkpt><trkpt lat="42.1601039" lon="13.2791299"><ele>749.0</ele><time>2026-05-02T13:56:25.119Z</time></trkpt><trkpt lat="42.1602986" lon="13.2790721"><ele>750.0</ele><time>2026-05-02T13:56:26.118Z</time></trkpt><trkpt lat="42.1604943" lon="13.2790115"><ele>751.0</ele><time>2026-05-02T13:56:27.118Z</time></trkpt><trkpt lat="42.160679" lon="13.2789503"><ele>752.0</ele><time>2026-05-02T13:56:28.118Z</time></trkpt><trkpt lat="42.1608553" lon="13.2788856"><ele>753.0</ele><time>2026-05-02T13:56:29.119Z</time></trkpt><trkpt lat="42.1610396" lon="13.2788257"><ele>754.0</ele><time>2026-05-02T13:56:30.118Z</time></trkpt><trkpt lat="42.1612247" lon="13.2787695"><ele>754.0</ele><time>2026-05-02T13:56:31.118Z</time></trkpt><trkpt lat="42.1613993" lon="13.2787198"><ele>754.0</ele><time>2026-05-02T13:56:32.118Z</time></trkpt><trkpt lat="42.1615733" lon="13.2786659"><ele>754.0</ele><time>2026-05-02T13:56:33.118Z</time></trkpt><trkpt lat="42.1617438" lon="13.2786107"><ele>755.0</ele><time>2026-05-02T13:56:34.118Z</time></trkpt><trkpt lat="42.1619124" lon="13.2785538"><ele>756.0</ele><time>2026-05-02T13:56:35.12Z</time></trkpt><trkpt lat="42.1620815" lon="13.2784959"><ele>757.0</ele><time>2026-05-02T13:56:36.119Z</time></trkpt><trkpt lat="42.1622542" lon="13.2784326"><ele>758.3333333333334</ele><time>2026-05-02T13:56:37.12Z</time></trkpt><trkpt lat="42.1624313" lon="13.2783677"><ele>759.6666666666666</ele><time>2026-05-02T13:56:38.118Z</time></trkpt><trkpt lat="42.1626096" lon="13.2783077"><ele>761.0</ele><time>2026-05-02T13:56:39.119Z</time></trkpt><trkpt lat="42.1627874" lon="13.2782524"><ele>761.0</ele><time>2026-05-02T13:56:40.118Z</time></trkpt><trkpt lat="42.1629454" lon="13.2782076"><ele>761.0</ele><time>2026-05-02T13:56:41.118Z</time></trkpt><trkpt lat="42.1631022" lon="13.2781601"><ele>761.0</ele><time>2026-05-02T13:56:42.118Z</time></trkpt><trkpt lat="42.163253" lon="13.2781116"><ele>762.0</ele><time>2026-05-02T13:56:43.119Z</time></trkpt><trkpt lat="42.1633906" lon="13.2780587"><ele>763.0</ele><time>2026-05-02T13:56:44.119Z</time></trkpt><trkpt lat="42.1635261" lon="13.2779946"><ele>764.0</ele><time>2026-05-02T13:56:45.118Z</time></trkpt><trkpt lat="42.1636622" lon="13.2779149"><ele>765.0</ele><time>2026-05-02T13:56:46.118Z</time></trkpt><trkpt lat="42.1637825" lon="13.2778261"><ele>765.0</ele><time>2026-05-02T13:56:47.119Z</time></trkpt><trkpt lat="42.1638923" lon="13.2777323"><ele>765.0</ele><time>2026-05-02T13:56:48.119Z</time></trkpt><trkpt lat="42.163994" lon="13.2776456"><ele>765.0</ele><time>2026-05-02T13:56:49.12Z</time></trkpt><trkpt lat="42.1640947" lon="13.2775722"><ele>765.0</ele><time>2026-05-02T13:56:50.119Z</time></trkpt><trkpt lat="42.1641953" lon="13.277524"><ele>765.0</ele><time>2026-05-02T13:56:51.12Z</time></trkpt><trkpt lat="42.1642955" lon="13.277486"><ele>765.0</ele><time>2026-05-02T13:56:52.119Z</time></trkpt><trkpt lat="42.1644105" lon="13.2774632"><ele>765.0</ele><time>2026-05-02T13:56:53.119Z</time></trkpt><trkpt lat="42.164546" lon="13.2774589"><ele>765.0</ele><time>2026-05-02T13:56:54.118Z</time></trkpt><trkpt lat="42.1646997" lon="13.2774623"><ele>765.0</ele><time>2026-05-02T13:56:55.118Z</time></trkpt><trkpt lat="42.164841" lon="13.2774707"><ele>765.0</ele><time>2026-05-02T13:56:56.118Z</time></trkpt><trkpt lat="42.1649822" lon="13.2774706"><ele>765.0</ele><time>2026-05-02T13:56:57.118Z</time></trkpt><trkpt lat="42.1651239" lon="13.277464"><ele>765.0</ele><time>2026-05-02T13:56:58.119Z</time></trkpt><trkpt lat="42.1652573" lon="13.2774527"><ele>764.5</ele><time>2026-05-02T13:56:59.118Z</time></trkpt><trkpt lat="42.1653859" lon="13.2774447"><ele>764.0</ele><time>2026-05-02T13:57:00.119Z</time></trkpt><trkpt lat="42.1655091" lon="13.2774464"><ele>763.5</ele><time>2026-05-02T13:57:01.119Z</time></trkpt><trkpt lat="42.1656273" lon="13.277449"><ele>763.0</ele><time>2026-05-02T13:57:02.119Z</time></trkpt><trkpt lat="42.1657424" lon="13.2774469"><ele>762.5</ele><time>2026-05-02T13:57:03.118Z</time></trkpt><trkpt lat="42.1658666" lon="13.2774191"><ele>762.0</ele><time>2026-05-02T13:57:04.118Z</time></trkpt><trkpt lat="42.1660046" lon="13.2773759"><ele>761.5</ele><time>2026-05-02T13:57:05.119Z</time></trkpt><trkpt lat="42.1661674" lon="13.2773183"><ele>761.0</ele><time>2026-05-02T13:57:06.118Z</time></trkpt><trkpt lat="42.1663337" lon="13.2772559"><ele>760.75</ele><time>2026-05-02T13:57:07.119Z</time></trkpt><trkpt lat="42.1664791" lon="13.2771885"><ele>760.5</ele><time>2026-05-02T13:57:08.118Z</time></trkpt><trkpt lat="42.1666098" lon="13.2771171"><ele>760.25</ele><time>2026-05-02T13:57:09.118Z</time></trkpt><trkpt lat="42.1667179" lon="13.2770389"><ele>760.0</ele><time>2026-05-02T13:57:10.118Z</time></trkpt><trkpt lat="42.1668163" lon="13.2769757"><ele>761.2</ele><time>2026-05-02T13:57:11.119Z</time></trkpt><trkpt lat="42.1669033" lon="13.2769397"><ele>762.4</ele><time>2026-05-02T13:57:12.118Z</time></trkpt><trkpt lat="42.1670041" lon="13.2769244"><ele>763.5999999999999</ele><time>2026-05-02T13:57:13.118Z</time></trkpt><trkpt lat="42.16712" lon="13.276919"><ele>764.8</ele><time>2026-05-02T13:57:14.118Z</time></trkpt><trkpt lat="42.1672141" lon="13.276919"><ele>766.0</ele><time>2026-05-02T13:57:15.118Z</time></trkpt><trkpt lat="42.1672968" lon="13.2769224"><ele>768.1999999999999</ele><time>2026-05-02T13:57:16.118Z</time></trkpt><trkpt lat="42.1673612" lon="13.2769279"><ele>770.4</ele><time>2026-05-02T13:57:17.118Z</time></trkpt><trkpt lat="42.167455" lon="13.2768692"><ele>772.6</ele><time>2026-05-02T13:57:19.118Z</time></trkpt><trkpt lat="42.1674907" lon="13.2767958"><ele>774.8</ele><time>2026-05-02T13:57:20.118Z</time></trkpt><trkpt lat="42.1675656" lon="13.2766315"><ele>777.0</ele><time>2026-05-02T13:57:22.119Z</time></trkpt><trkpt lat="42.1676257" lon="13.2764773"><ele>778.0</ele><time>2026-05-02T13:57:23.119Z</time></trkpt><trkpt lat="42.1676251" lon="13.2763395"><ele>779.0</ele><time>2026-05-02T13:57:24.118Z</time></trkpt><trkpt lat="42.1677073" lon="13.2762789"><ele>780.0</ele><time>2026-05-02T13:57:25.119Z</time></trkpt><trkpt lat="42.1677661" lon="13.2762208"><ele>781.0</ele><time>2026-05-02T13:57:26.119Z</time></trkpt><trkpt lat="42.1679008" lon="13.2762051"><ele>782.0</ele><time>2026-05-02T13:57:28.118Z</time></trkpt><trkpt lat="42.167991" lon="13.2762392"><ele>782.0</ele><time>2026-05-02T13:57:29.118Z</time></trkpt><trkpt lat="42.1680955" lon="13.2762754"><ele>782.0</ele><time>2026-05-02T13:57:30.118Z</time></trkpt><trkpt lat="42.1682151" lon="13.2762886"><ele>782.0</ele><time>2026-05-02T13:57:31.118Z</time></trkpt><trkpt lat="42.1683534" lon="13.2762778"><ele>782.0</ele><time>2026-05-02T13:57:32.118Z</time></trkpt><trkpt lat="42.1685093" lon="13.2762525"><ele>782.0</ele><time>2026-05-02T13:57:33.118Z</time></trkpt><trkpt lat="42.16868" lon="13.2762146"><ele>782.0</ele><time>2026-05-02T13:57:34.118Z</time></trkpt><trkpt lat="42.1688613" lon="13.2761614"><ele>782.0</ele><time>2026-05-02T13:57:35.118Z</time></trkpt><trkpt lat="42.1690563" lon="13.2760947"><ele>784.3333333333334</ele><time>2026-05-02T13:57:36.118Z</time></trkpt><trkpt lat="42.1692422" lon="13.2760329"><ele>786.6666666666667</ele><time>2026-05-02T13:57:37.119Z</time></trkpt><trkpt lat="42.1694072" lon="13.2759818"><ele>789.0</ele><time>2026-05-02T13:57:38.119Z</time></trkpt><trkpt lat="42.1695631" lon="13.2759358"><ele>789.0</ele><time>2026-05-02T13:57:39.118Z</time></trkpt><trkpt lat="42.1697075" lon="13.2758897"><ele>789.0</ele><time>2026-05-02T13:57:40.12Z</time></trkpt><trkpt lat="42.169849" lon="13.275842"><ele>789.0</ele><time>2026-05-02T13:57:41.119Z</time></trkpt><trkpt lat="42.1699926" lon="13.2757953"><ele>789.0</ele><time>2026-05-02T13:57:42.118Z</time></trkpt><trkpt lat="42.1701362" lon="13.2757541"><ele>790.0</ele><time>2026-05-02T13:57:43.118Z</time></trkpt><trkpt lat="42.1702684" lon="13.2757216"><ele>791.0</ele><time>2026-05-02T13:57:44.118Z</time></trkpt><trkpt lat="42.1703858" lon="13.2756987"><ele>792.0</ele><time>2026-05-02T13:57:45.118Z</time></trkpt><trkpt lat="42.1704896" lon="13.2756853"><ele>793.0</ele><time>2026-05-02T13:57:46.119Z</time></trkpt><trkpt lat="42.1705792" lon="13.275676"><ele>794.0</ele><time>2026-05-02T13:57:47.118Z</time></trkpt><trkpt lat="42.1706532" lon="13.2756655"><ele>795.2</ele><time>2026-05-02T13:57:48.119Z</time></trkpt><trkpt lat="42.1707538" lon="13.2756419"><ele>796.4000000000001</ele><time>2026-05-02T13:57:50.118Z</time></trkpt><trkpt lat="42.1708483" lon="13.2756249"><ele>797.6</ele><time>2026-05-02T13:57:52.118Z</time></trkpt><trkpt lat="42.1709341" lon="13.2756139"><ele>798.8</ele><time>2026-05-02T13:57:53.119Z</time></trkpt><trkpt lat="42.1710424" lon="13.2756095"><ele>800.0</ele><time>2026-05-02T13:57:54.118Z</time></trkpt><trkpt lat="42.1711667" lon="13.2756252"><ele>800.0</ele><time>2026-05-02T13:57:55.118Z</time></trkpt><trkpt lat="42.1713073" lon="13.2756597"><ele>800.0</ele><time>2026-05-02T13:57:56.119Z</time></trkpt><trkpt lat="42.1714551" lon="13.2756979"><ele>800.0</ele><time>2026-05-02T13:57:57.118Z</time></trkpt><trkpt lat="42.1715874" lon="13.2757437"><ele>800.0</ele><time>2026-05-02T13:57:58.118Z</time></trkpt><trkpt lat="42.1717018" lon="13.2758143"><ele>800.3333333333334</ele><time>2026-05-02T13:57:59.119Z</time></trkpt><trkpt lat="42.1718327" lon="13.2759031"><ele>800.6666666666667</ele><time>2026-05-02T13:58:00.118Z</time></trkpt><trkpt lat="42.1719948" lon="13.2759842"><ele>801.0</ele><time>2026-05-02T13:58:01.118Z</time></trkpt><trkpt lat="42.1721555" lon="13.2760438"><ele>801.0</ele><time>2026-05-02T13:58:02.118Z</time></trkpt><trkpt lat="42.1722868" lon="13.2760942"><ele>801.0</ele><time>2026-05-02T13:58:03.118Z</time></trkpt><trkpt lat="42.1724116" lon="13.2761443"><ele>801.0</ele><time>2026-05-02T13:58:04.12Z</time></trkpt><trkpt lat="42.1725373" lon="13.2761975"><ele>801.0</ele><time>2026-05-02T13:58:05.119Z</time></trkpt><trkpt lat="42.1726563" lon="13.276245"><ele>801.25</ele><time>2026-05-02T13:58:06.119Z</time></trkpt><trkpt lat="42.1727687" lon="13.2762928"><ele>801.5</ele><time>2026-05-02T13:58:07.118Z</time></trkpt><trkpt lat="42.1728801" lon="13.2763317"><ele>801.75</ele><time>2026-05-02T13:58:08.118Z</time></trkpt><trkpt lat="42.1729987" lon="13.2763594"><ele>802.0</ele><time>2026-05-02T13:58:09.118Z</time></trkpt><trkpt lat="42.1731117" lon="13.2763817"><ele>803.6666666666666</ele><time>2026-05-02T13:58:10.118Z</time></trkpt><trkpt lat="42.1731979" lon="13.2763758"><ele>805.3333333333333</ele><time>2026-05-02T13:58:11.118Z</time></trkpt><trkpt lat="42.1732693" lon="13.2763434"><ele>807.0</ele><time>2026-05-02T13:58:12.118Z</time></trkpt><trkpt lat="42.1733382" lon="13.2762907"><ele>808.6666666666667</ele><time>2026-05-02T13:58:13.12Z</time></trkpt><trkpt lat="42.173413" lon="13.2762451"><ele>810.3333333333334</ele><time>2026-05-02T13:58:14.119Z</time></trkpt><trkpt lat="42.1734983" lon="13.2762125"><ele>812.0</ele><time>2026-05-02T13:58:15.118Z</time></trkpt><trkpt lat="42.1736076" lon="13.2761893"><ele>812.0</ele><time>2026-05-02T13:58:16.118Z</time></trkpt><trkpt lat="42.1737323" lon="13.27616"><ele>812.0</ele><time>2026-05-02T13:58:17.118Z</time></trkpt><trkpt lat="42.1738625" lon="13.2761189"><ele>812.0</ele><time>2026-05-02T13:58:18.119Z</time></trkpt><trkpt lat="42.1739703" lon="13.2760854"><ele>812.0</ele><time>2026-05-02T13:58:19.118Z</time></trkpt><trkpt lat="42.1740458" lon="13.2760797"><ele>812.0</ele><time>2026-05-02T13:58:20.118Z</time></trkpt><trkpt lat="42.1741556" lon="13.2761331"><ele>814.75</ele><time>2026-05-02T13:58:22.119Z</time></trkpt><trkpt lat="42.1742294" lon="13.2761981"><ele>817.5</ele><time>2026-05-02T13:58:23.118Z</time></trkpt><trkpt lat="42.1743255" lon="13.2762938"><ele>820.25</ele><time>2026-05-02T13:58:24.119Z</time></trkpt><trkpt lat="42.1744404" lon="13.2764034"><ele>823.0</ele><time>2026-05-02T13:58:25.118Z</time></trkpt><trkpt lat="42.174574" lon="13.2765075"><ele>823.5</ele><time>2026-05-02T13:58:26.118Z</time></trkpt><trkpt lat="42.1747108" lon="13.2765795"><ele>824.0</ele><time>2026-05-02T13:58:27.119Z</time></trkpt><trkpt lat="42.1748351" lon="13.2766108"><ele>824.5</ele><time>2026-05-02T13:58:28.118Z</time></trkpt><trkpt lat="42.1749538" lon="13.276596"><ele>825.0</ele><time>2026-05-02T13:58:29.12Z</time></trkpt><trkpt lat="42.1750633" lon="13.2765265"><ele>826.25</ele><time>2026-05-02T13:58:30.118Z</time></trkpt><trkpt lat="42.1751681" lon="13.2764071"><ele>827.5</ele><time>2026-05-02T13:58:31.118Z</time></trkpt><trkpt lat="42.1752645" lon="13.2762504"><ele>828.75</ele><time>2026-05-02T13:58:32.118Z</time></trkpt><trkpt lat="42.1753509" lon="13.2760682"><ele>830.0</ele><time>2026-05-02T13:58:33.118Z</time></trkpt><trkpt lat="42.1754233" lon="13.2759018"><ele>830.0</ele><time>2026-05-02T13:58:34.118Z</time></trkpt><trkpt lat="42.1754881" lon="13.2757605"><ele>830.0</ele><time>2026-05-02T13:58:35.118Z</time></trkpt><trkpt lat="42.1755457" lon="13.2756421"><ele>830.0</ele><time>2026-05-02T13:58:36.118Z</time></trkpt><trkpt lat="42.1755963" lon="13.2755487"><ele>830.0</ele><time>2026-05-02T13:58:37.118Z</time></trkpt><trkpt lat="42.1756378" lon="13.2754804"><ele>830.0</ele><time>2026-05-02T13:58:38.118Z</time></trkpt><trkpt lat="42.1757496" lon="13.2754014"><ele>830.0</ele><time>2026-05-02T13:58:40.118Z</time></trkpt><trkpt lat="42.1758411" lon="13.275375"><ele>830.0</ele><time>2026-05-02T13:58:41.118Z</time></trkpt><trkpt lat="42.1759484" lon="13.2753445"><ele>830.0</ele><time>2026-05-02T13:58:42.118Z</time></trkpt><trkpt lat="42.1760706" lon="13.2753075"><ele>830.0</ele><time>2026-05-02T13:58:43.118Z</time></trkpt><trkpt lat="42.1762045" lon="13.2752678"><ele>830.0</ele><time>2026-05-02T13:58:44.118Z</time></trkpt><trkpt lat="42.1763481" lon="13.2752298"><ele>830.0</ele><time>2026-05-02T13:58:45.118Z</time></trkpt><trkpt lat="42.1764955" lon="13.2751884"><ele>830.0</ele><time>2026-05-02T13:58:46.119Z</time></trkpt><trkpt lat="42.1766358" lon="13.2751438"><ele>830.0</ele><time>2026-05-02T13:58:47.119Z</time></trkpt><trkpt lat="42.1767643" lon="13.2751013"><ele>828.4</ele><time>2026-05-02T13:58:48.119Z</time></trkpt><trkpt lat="42.1768829" lon="13.275061"><ele>826.8</ele><time>2026-05-02T13:58:49.119Z</time></trkpt><trkpt lat="42.1769836" lon="13.2750283"><ele>825.2</ele><time>2026-05-02T13:58:50.118Z</time></trkpt><trkpt lat="42.1770587" lon="13.2750081"><ele>823.6</ele><time>2026-05-02T13:58:51.119Z</time></trkpt><trkpt lat="42.1771621" lon="13.2750001"><ele>822.0</ele><time>2026-05-02T13:58:53.118Z</time></trkpt><trkpt lat="42.1772327" lon="13.2750195"><ele>822.0</ele><time>2026-05-02T13:58:55.118Z</time></trkpt><trkpt lat="42.1773191" lon="13.2750508"><ele>822.0</ele><time>2026-05-02T13:58:57.118Z</time></trkpt><trkpt lat="42.1773852" lon="13.2750655"><ele>822.0</ele><time>2026-05-02T13:58:58.119Z</time></trkpt><trkpt lat="42.1774953" lon="13.2750811"><ele>822.0</ele><time>2026-05-02T13:59:00.118Z</time></trkpt><trkpt lat="42.1775439" lon="13.2751815"><ele>822.0</ele><time>2026-05-02T13:59:02.118Z</time></trkpt><trkpt lat="42.1775406" lon="13.275368"><ele>821.6</ele><time>2026-05-02T13:59:04.118Z</time></trkpt><trkpt lat="42.1775378" lon="13.2754972"><ele>821.2</ele><time>2026-05-02T13:59:05.118Z</time></trkpt><trkpt lat="42.1775509" lon="13.2756362"><ele>820.8</ele><time>2026-05-02T13:59:06.118Z</time></trkpt><trkpt lat="42.177577" lon="13.2757558"><ele>820.4</ele><time>2026-05-02T13:59:07.119Z</time></trkpt><trkpt lat="42.1776202" lon="13.2758808"><ele>820.0</ele><time>2026-05-02T13:59:09.118Z</time></trkpt><trkpt lat="42.1776476" lon="13.2759762"><ele>820.0</ele><time>2026-05-02T13:59:11.118Z</time></trkpt><trkpt lat="42.1776778" lon="13.2761422"><ele>820.0</ele><time>2026-05-02T13:59:13.118Z</time></trkpt><trkpt lat="42.1776795" lon="13.2762357"><ele>820.0</ele><time>2026-05-02T13:59:14.118Z</time></trkpt><trkpt lat="42.1776788" lon="13.2763502"><ele>820.0</ele><time>2026-05-02T13:59:15.118Z</time></trkpt><trkpt lat="42.177668" lon="13.2764792"><ele>820.0</ele><time>2026-05-02T13:59:16.119Z</time></trkpt><trkpt lat="42.1776426" lon="13.2766324"><ele>820.5</ele><time>2026-05-02T13:59:17.119Z</time></trkpt><trkpt lat="42.1776141" lon="13.276801"><ele>821.0</ele><time>2026-05-02T13:59:18.119Z</time></trkpt><trkpt lat="42.1775984" lon="13.2769613"><ele>821.5</ele><time>2026-05-02T13:59:19.119Z</time></trkpt><trkpt lat="42.177587" lon="13.2771333"><ele>822.0</ele><time>2026-05-02T13:59:20.118Z</time></trkpt><trkpt lat="42.1775746" lon="13.2773228"><ele>822.4000000000001</ele><time>2026-05-02T13:59:21.119Z</time></trkpt><trkpt lat="42.1775667" lon="13.2774857"><ele>822.8000000000001</ele><time>2026-05-02T13:59:22.118Z</time></trkpt><trkpt lat="42.17756" lon="13.2776448"><ele>823.2</ele><time>2026-05-02T13:59:23.118Z</time></trkpt><trkpt lat="42.1775476" lon="13.2777883"><ele>823.6</ele><time>2026-05-02T13:59:24.118Z</time></trkpt><trkpt lat="42.1775218" lon="13.2779221"><ele>824.0</ele><time>2026-05-02T13:59:25.118Z</time></trkpt><trkpt lat="42.1774877" lon="13.2780569"><ele>824.4000000000001</ele><time>2026-05-02T13:59:26.119Z</time></trkpt><trkpt lat="42.1774429" lon="13.2781754"><ele>824.8</ele><time>2026-05-02T13:59:27.118Z</time></trkpt><trkpt lat="42.1773809" lon="13.2782772"><ele>825.2</ele><time>2026-05-02T13:59:28.118Z</time></trkpt><trkpt lat="42.1772929" lon="13.2783773"><ele>825.5999999999999</ele><time>2026-05-02T13:59:29.118Z</time></trkpt><trkpt lat="42.1772239" lon="13.2784779"><ele>826.0</ele><time>2026-05-02T13:59:30.118Z</time></trkpt><trkpt lat="42.1771756" lon="13.278591"><ele>827.1666666666666</ele><time>2026-05-02T13:59:31.118Z</time></trkpt><trkpt lat="42.1771289" lon="13.2787065"><ele>828.3333333333333</ele><time>2026-05-02T13:59:32.118Z</time></trkpt><trkpt lat="42.1770707" lon="13.2787982"><ele>829.5</ele><time>2026-05-02T13:59:33.12Z</time></trkpt><trkpt lat="42.1770076" lon="13.2788828"><ele>830.6666666666667</ele><time>2026-05-02T13:59:34.118Z</time></trkpt><trkpt lat="42.1769596" lon="13.2789451"><ele>831.8333333333334</ele><time>2026-05-02T13:59:35.118Z</time></trkpt><trkpt lat="42.1769124" lon="13.2790115"><ele>833.0</ele><time>2026-05-02T13:59:36.118Z</time></trkpt><trkpt lat="42.1769902" lon="13.2791388"><ele>833.3333333333334</ele><time>2026-05-02T13:59:38.118Z</time></trkpt><trkpt lat="42.1770293" lon="13.2792202"><ele>833.6666666666667</ele><time>2026-05-02T13:59:39.119Z</time></trkpt><trkpt lat="42.1770789" lon="13.2793111"><ele>834.0</ele><time>2026-05-02T13:59:40.118Z</time></trkpt><trkpt lat="42.1771309" lon="13.27942"><ele>834.3333333333333</ele><time>2026-05-02T13:59:41.119Z</time></trkpt><trkpt lat="42.1771703" lon="13.2795197"><ele>834.6666666666666</ele><time>2026-05-02T13:59:42.119Z</time></trkpt><trkpt lat="42.1771926" lon="13.27965"><ele>835.0</ele><time>2026-05-02T13:59:43.119Z</time></trkpt><trkpt lat="42.1772403" lon="13.2797495"><ele>835.25</ele><time>2026-05-02T13:59:44.119Z</time></trkpt><trkpt lat="42.177313" lon="13.279878"><ele>835.5</ele><time>2026-05-02T13:59:45.119Z</time></trkpt><trkpt lat="42.1773924" lon="13.28003"><ele>835.75</ele><time>2026-05-02T13:59:46.119Z</time></trkpt><trkpt lat="42.1774733" lon="13.280193"><ele>836.0</ele><time>2026-05-02T13:59:47.119Z</time></trkpt><trkpt lat="42.177541" lon="13.2803343"><ele>836.0</ele><time>2026-05-02T13:59:48.12Z</time></trkpt><trkpt lat="42.1776138" lon="13.2804642"><ele>836.0</ele><time>2026-05-02T13:59:49.119Z</time></trkpt><trkpt lat="42.1776922" lon="13.2805986"><ele>836.0</ele><time>2026-05-02T13:59:50.119Z</time></trkpt><trkpt lat="42.1777725" lon="13.2807538"><ele>836.0</ele><time>2026-05-02T13:59:51.118Z</time></trkpt><trkpt lat="42.1778494" lon="13.2809103"><ele>836.5999999999999</ele><time>2026-05-02T13:59:52.118Z</time></trkpt><trkpt lat="42.177915" lon="13.2810458"><ele>837.2</ele><time>2026-05-02T13:59:53.118Z</time></trkpt><trkpt lat="42.177977" lon="13.2811716"><ele>837.8</ele><time>2026-05-02T13:59:54.118Z</time></trkpt><trkpt lat="42.1780289" lon="13.2812974"><ele>838.4000000000001</ele><time>2026-05-02T13:59:55.119Z</time></trkpt><trkpt lat="42.1780915" lon="13.2814051"><ele>839.0</ele><time>2026-05-02T13:59:56.119Z</time></trkpt><trkpt lat="42.1781739" lon="13.2815019"><ele>839.4000000000001</ele><time>2026-05-02T13:59:57.119Z</time></trkpt><trkpt lat="42.1782654" lon="13.2815935"><ele>839.8</ele><time>2026-05-02T13:59:58.119Z</time></trkpt><trkpt lat="42.1783518" lon="13.2816688"><ele>840.2</ele><time>2026-05-02T13:59:59.118Z</time></trkpt><trkpt lat="42.1784333" lon="13.28173"><ele>840.5999999999999</ele><time>2026-05-02T14:00:00.118Z</time></trkpt><trkpt lat="42.178509" lon="13.2817693"><ele>841.0</ele><time>2026-05-02T14:00:01.119Z</time></trkpt><trkpt lat="42.1785828" lon="13.281783"><ele>840.9999999999999</ele><time>2026-05-02T14:00:02.118Z</time></trkpt><trkpt lat="42.1786616" lon="13.2817799"><ele>841.0</ele><time>2026-05-02T14:00:03.118Z</time></trkpt><trkpt lat="42.1787283" lon="13.28176"><ele>841.0</ele><time>2026-05-02T14:00:04.119Z</time></trkpt><trkpt lat="42.1788498" lon="13.281674"><ele>841.0</ele><time>2026-05-02T14:00:06.119Z</time></trkpt><trkpt lat="42.1789242" lon="13.281615"><ele>840.9999999999999</ele><time>2026-05-02T14:00:07.118Z</time></trkpt><trkpt lat="42.1789897" lon="13.2815711"><ele>841.0</ele><time>2026-05-02T14:00:08.118Z</time></trkpt><trkpt lat="42.179097" lon="13.281549"><ele>839.5999999999999</ele><time>2026-05-02T14:00:10.119Z</time></trkpt><trkpt lat="42.1791912" lon="13.2816279"><ele>838.2</ele><time>2026-05-02T14:00:12.119Z</time></trkpt><trkpt lat="42.179261" lon="13.2817621"><ele>836.8</ele><time>2026-05-02T14:00:14.12Z</time></trkpt><trkpt lat="42.179331" lon="13.2818137"><ele>835.4000000000001</ele><time>2026-05-02T14:00:16.118Z</time></trkpt><trkpt lat="42.1793935" lon="13.2817418"><ele>834.0</ele><time>2026-05-02T14:00:18.118Z</time></trkpt><trkpt lat="42.1794267" lon="13.2816561"><ele>834.0</ele><time>2026-05-02T14:00:19.119Z</time></trkpt><trkpt lat="42.1794664" lon="13.2815685"><ele>834.0</ele><time>2026-05-02T14:00:20.119Z</time></trkpt><trkpt lat="42.1795375" lon="13.2814381"><ele>834.0</ele><time>2026-05-02T14:00:22.118Z</time></trkpt><trkpt lat="42.1795837" lon="13.281356"><ele>834.0</ele><time>2026-05-02T14:00:23.119Z</time></trkpt><trkpt lat="42.1796406" lon="13.2812473"><ele>834.0</ele><time>2026-05-02T14:00:24.119Z</time></trkpt><trkpt lat="42.1797031" lon="13.2811067"><ele>832.6666666666667</ele><time>2026-05-02T14:00:25.119Z</time></trkpt><trkpt lat="42.179775" lon="13.2809386"><ele>831.3333333333334</ele><time>2026-05-02T14:00:26.118Z</time></trkpt><trkpt lat="42.1798619" lon="13.2807576"><ele>830.0</ele><time>2026-05-02T14:00:27.118Z</time></trkpt><trkpt lat="42.1799595" lon="13.2805666"><ele>828.3333333333334</ele><time>2026-05-02T14:00:28.119Z</time></trkpt><trkpt lat="42.1800517" lon="13.2803986"><ele>826.6666666666667</ele><time>2026-05-02T14:00:29.118Z</time></trkpt><trkpt lat="42.180155" lon="13.2802383"><ele>825.0</ele><time>2026-05-02T14:00:30.118Z</time></trkpt><trkpt lat="42.1802745" lon="13.2800832"><ele>825.0</ele><time>2026-05-02T14:00:31.118Z</time></trkpt><trkpt lat="42.1803935" lon="13.279954"><ele>825.0</ele><time>2026-05-02T14:00:32.118Z</time></trkpt><trkpt lat="42.1805112" lon="13.2798371"><ele>825.0</ele><time>2026-05-02T14:00:33.12Z</time></trkpt><trkpt lat="42.1806075" lon="13.2797236"><ele>825.0</ele><time>2026-05-02T14:00:34.12Z</time></trkpt><trkpt lat="42.1806706" lon="13.2796221"><ele>824.2</ele><time>2026-05-02T14:00:35.119Z</time></trkpt><trkpt lat="42.180701" lon="13.2795168"><ele>823.4</ele><time>2026-05-02T14:00:36.118Z</time></trkpt><trkpt lat="42.1806939" lon="13.279402"><ele>822.5999999999999</ele><time>2026-05-02T14:00:37.118Z</time></trkpt><trkpt lat="42.1806632" lon="13.2792688"><ele>821.8</ele><time>2026-05-02T14:00:38.118Z</time></trkpt><trkpt lat="42.1806273" lon="13.27911"><ele>821.0</ele><time>2026-05-02T14:00:39.118Z</time></trkpt><trkpt lat="42.1805913" lon="13.2789339"><ele>820.5</ele><time>2026-05-02T14:00:40.118Z</time></trkpt><trkpt lat="42.1805867" lon="13.278756"><ele>820.0</ele><time>2026-05-02T14:00:41.118Z</time></trkpt><trkpt lat="42.1806034" lon="13.2785539"><ele>819.5</ele><time>2026-05-02T14:00:42.118Z</time></trkpt><trkpt lat="42.1806291" lon="13.278333"><ele>819.0</ele><time>2026-05-02T14:00:43.119Z</time></trkpt><trkpt lat="42.1806596" lon="13.2780967"><ele>817.6666666666667</ele><time>2026-05-02T14:00:44.119Z</time></trkpt><trkpt lat="42.1806901" lon="13.2778662"><ele>816.3333333333334</ele><time>2026-05-02T14:00:45.118Z</time></trkpt><trkpt lat="42.1807201" lon="13.2776386"><ele>815.0</ele><time>2026-05-02T14:00:46.118Z</time></trkpt><trkpt lat="42.1807498" lon="13.2774104"><ele>814.3333333333334</ele><time>2026-05-02T14:00:47.118Z</time></trkpt><trkpt lat="42.1807848" lon="13.2771692"><ele>813.6666666666667</ele><time>2026-05-02T14:00:48.12Z</time></trkpt><trkpt lat="42.1808239" lon="13.2769217"><ele>813.0</ele><time>2026-05-02T14:00:49.119Z</time></trkpt><trkpt lat="42.1808597" lon="13.2766824"><ele>813.0</ele><time>2026-05-02T14:00:50.119Z</time></trkpt><trkpt lat="42.1808956" lon="13.2764518"><ele>813.0</ele><time>2026-05-02T14:00:51.119Z</time></trkpt><trkpt lat="42.1809324" lon="13.2762133"><ele>813.0</ele><time>2026-05-02T14:00:52.118Z</time></trkpt><trkpt lat="42.1809708" lon="13.2759837"><ele>812.3333333333333</ele><time>2026-05-02T14:00:53.118Z</time></trkpt><trkpt lat="42.1810133" lon="13.2757661"><ele>811.6666666666666</ele><time>2026-05-02T14:00:54.119Z</time></trkpt><trkpt lat="42.1810558" lon="13.2755472"><ele>811.0</ele><time>2026-05-02T14:00:55.119Z</time></trkpt><trkpt lat="42.1810999" lon="13.2753314"><ele>810.3333333333333</ele><time>2026-05-02T14:00:56.118Z</time></trkpt><trkpt lat="42.1811447" lon="13.2751102"><ele>809.6666666666667</ele><time>2026-05-02T14:00:57.118Z</time></trkpt><trkpt lat="42.1811902" lon="13.2748974"><ele>809.0</ele><time>2026-05-02T14:00:58.12Z</time></trkpt><trkpt lat="42.1812307" lon="13.2746924"><ele>808.2</ele><time>2026-05-02T14:00:59.119Z</time></trkpt><trkpt lat="42.181273" lon="13.2745097"><ele>807.4000000000001</ele><time>2026-05-02T14:01:00.119Z</time></trkpt><trkpt lat="42.181312" lon="13.2743568"><ele>806.6</ele><time>2026-05-02T14:01:01.12Z</time></trkpt><trkpt lat="42.1813426" lon="13.2742372"><ele>805.8</ele><time>2026-05-02T14:01:02.119Z</time></trkpt><trkpt lat="42.181367" lon="13.2741468"><ele>805.0</ele><time>2026-05-02T14:01:03.12Z</time></trkpt><trkpt lat="42.1814056" lon="13.274025"><ele>804.9999999999999</ele><time>2026-05-02T14:01:05.118Z</time></trkpt><trkpt lat="42.1814388" lon="13.2739407"><ele>805.0</ele><time>2026-05-02T14:01:08.119Z</time></trkpt><trkpt lat="42.1814407" lon="13.2738046"><ele>805.0</ele><time>2026-05-02T14:01:12.118Z</time></trkpt><trkpt lat="42.1814827" lon="13.2737069"><ele>805.0</ele><time>2026-05-02T14:01:14.118Z</time></trkpt><trkpt lat="42.1815803" lon="13.2736401"><ele>804.9999999999999</ele><time>2026-05-02T14:01:16.118Z</time></trkpt><trkpt lat="42.18165" lon="13.2735792"><ele>805.0</ele><time>2026-05-02T14:01:17.118Z</time></trkpt><trkpt lat="42.1817146" lon="13.273499"><ele>804.6</ele><time>2026-05-02T14:01:18.119Z</time></trkpt><trkpt lat="42.1817772" lon="13.2734002"><ele>804.2</ele><time>2026-05-02T14:01:19.119Z</time></trkpt><trkpt lat="42.1818528" lon="13.2732835"><ele>803.8</ele><time>2026-05-02T14:01:20.118Z</time></trkpt><trkpt lat="42.1819326" lon="13.2731645"><ele>803.4</ele><time>2026-05-02T14:01:21.119Z</time></trkpt><trkpt lat="42.1819927" lon="13.2730797"><ele>803.0</ele><time>2026-05-02T14:01:22.119Z</time></trkpt><trkpt lat="42.182055" lon="13.2729853"><ele>802.75</ele><time>2026-05-02T14:01:23.119Z</time></trkpt><trkpt lat="42.1821226" lon="13.2728771"><ele>802.5</ele><time>2026-05-02T14:01:24.119Z</time></trkpt><trkpt lat="42.1821946" lon="13.2727833"><ele>802.25</ele><time>2026-05-02T14:01:25.119Z</time></trkpt><trkpt lat="42.1822868" lon="13.2726949"><ele>802.0</ele><time>2026-05-02T14:01:26.119Z</time></trkpt><trkpt lat="42.1824014" lon="13.2726052"><ele>802.0</ele><time>2026-05-02T14:01:27.119Z</time></trkpt><trkpt lat="42.1824986" lon="13.2725062"><ele>802.0</ele><time>2026-05-02T14:01:28.119Z</time></trkpt><trkpt lat="42.1825827" lon="13.2723782"><ele>802.0</ele><time>2026-05-02T14:01:29.118Z</time></trkpt><trkpt lat="42.1826765" lon="13.2722284"><ele>802.0</ele><time>2026-05-02T14:01:30.118Z</time></trkpt><trkpt lat="42.1827896" lon="13.2720747"><ele>802.0</ele><time>2026-05-02T14:01:31.119Z</time></trkpt><trkpt lat="42.1828843" lon="13.2719334"><ele>802.0</ele><time>2026-05-02T14:01:32.119Z</time></trkpt><trkpt lat="42.1829623" lon="13.2717953"><ele>802.0</ele><time>2026-05-02T14:01:33.119Z</time></trkpt><trkpt lat="42.1830301" lon="13.2716593"><ele>802.0</ele><time>2026-05-02T14:01:34.118Z</time></trkpt><trkpt lat="42.183088" lon="13.2715271"><ele>802.2</ele><time>2026-05-02T14:01:35.118Z</time></trkpt><trkpt lat="42.1831409" lon="13.2713827"><ele>802.4000000000001</ele><time>2026-05-02T14:01:36.118Z</time></trkpt><trkpt lat="42.1831999" lon="13.2712522"><ele>802.5999999999999</ele><time>2026-05-02T14:01:37.118Z</time></trkpt><trkpt lat="42.1832661" lon="13.2711388"><ele>802.8</ele><time>2026-05-02T14:01:38.118Z</time></trkpt><trkpt lat="42.1833365" lon="13.2710432"><ele>803.0</ele><time>2026-05-02T14:01:39.118Z</time></trkpt><trkpt lat="42.1834125" lon="13.270979"><ele>802.4</ele><time>2026-05-02T14:01:40.118Z</time></trkpt><trkpt lat="42.1834982" lon="13.270947"><ele>801.8</ele><time>2026-05-02T14:01:41.118Z</time></trkpt><trkpt lat="42.1835964" lon="13.2709347"><ele>801.2</ele><time>2026-05-02T14:01:42.118Z</time></trkpt><trkpt lat="42.1837117" lon="13.2709363"><ele>800.6</ele><time>2026-05-02T14:01:43.118Z</time></trkpt><trkpt lat="42.183833" lon="13.2709329"><ele>800.0</ele><time>2026-05-02T14:01:44.118Z</time></trkpt><trkpt lat="42.1839657" lon="13.2709109"><ele>800.0</ele><time>2026-05-02T14:01:45.119Z</time></trkpt><trkpt lat="42.1840839" lon="13.2708992"><ele>800.0</ele><time>2026-05-02T14:01:46.119Z</time></trkpt><trkpt lat="42.1841964" lon="13.2708823"><ele>800.0</ele><time>2026-05-02T14:01:47.118Z</time></trkpt><trkpt lat="42.1843" lon="13.2708511"><ele>800.0</ele><time>2026-05-02T14:01:48.118Z</time></trkpt><trkpt lat="42.1843971" lon="13.2707976"><ele>800.0</ele><time>2026-05-02T14:01:49.118Z</time></trkpt><trkpt lat="42.184505" lon="13.2707238"><ele>800.0</ele><time>2026-05-02T14:01:50.118Z</time></trkpt><trkpt lat="42.1846135" lon="13.2706391"><ele>800.0</ele><time>2026-05-02T14:01:51.119Z</time></trkpt><trkpt lat="42.1847369" lon="13.2705265"><ele>800.0</ele><time>2026-05-02T14:01:52.119Z</time></trkpt><trkpt lat="42.1848745" lon="13.2703979"><ele>800.0</ele><time>2026-05-02T14:01:53.118Z</time></trkpt><trkpt lat="42.1850083" lon="13.2702708"><ele>800.5</ele><time>2026-05-02T14:01:54.118Z</time></trkpt><trkpt lat="42.1851294" lon="13.2701519"><ele>801.0</ele><time>2026-05-02T14:01:55.119Z</time></trkpt><trkpt lat="42.185247" lon="13.2700551"><ele>801.5</ele><time>2026-05-02T14:01:56.118Z</time></trkpt><trkpt lat="42.1853773" lon="13.2699622"><ele>802.0</ele><time>2026-05-02T14:01:57.118Z</time></trkpt><trkpt lat="42.1855061" lon="13.2698661"><ele>801.6666666666666</ele><time>2026-05-02T14:01:58.119Z</time></trkpt><trkpt lat="42.1856395" lon="13.2697719"><ele>801.3333333333333</ele><time>2026-05-02T14:01:59.119Z</time></trkpt><trkpt lat="42.185777" lon="13.2696794"><ele>801.0</ele><time>2026-05-02T14:02:00.119Z</time></trkpt><trkpt lat="42.1859162" lon="13.2695884"><ele>801.5</ele><time>2026-05-02T14:02:01.118Z</time></trkpt><trkpt lat="42.1860478" lon="13.2695022"><ele>802.0</ele><time>2026-05-02T14:02:02.119Z</time></trkpt><trkpt lat="42.1861701" lon="13.2694157"><ele>802.5</ele><time>2026-05-02T14:02:03.12Z</time></trkpt><trkpt lat="42.186285" lon="13.2693449"><ele>803.0</ele><time>2026-05-02T14:02:04.118Z</time></trkpt><trkpt lat="42.1863993" lon="13.2692816"><ele>803.0</ele><time>2026-05-02T14:02:05.119Z</time></trkpt><trkpt lat="42.186521" lon="13.2692091"><ele>803.0</ele><time>2026-05-02T14:02:06.12Z</time></trkpt><trkpt lat="42.1866402" lon="13.2691417"><ele>803.0</ele><time>2026-05-02T14:02:07.119Z</time></trkpt><trkpt lat="42.1867507" lon="13.2690718"><ele>803.0</ele><time>2026-05-02T14:02:08.12Z</time></trkpt><trkpt lat="42.1868532" lon="13.268991"><ele>802.75</ele><time>2026-05-02T14:02:09.118Z</time></trkpt><trkpt lat="42.1869607" lon="13.2688916"><ele>802.5</ele><time>2026-05-02T14:02:10.118Z</time></trkpt><trkpt lat="42.1870545" lon="13.2688022"><ele>802.25</ele><time>2026-05-02T14:02:11.119Z</time></trkpt><trkpt lat="42.1871441" lon="13.2687148"><ele>802.0</ele><time>2026-05-02T14:02:12.118Z</time></trkpt><trkpt lat="42.1872237" lon="13.2686421"><ele>801.9999999999999</ele><time>2026-05-02T14:02:13.119Z</time></trkpt><trkpt lat="42.1872967" lon="13.2685765"><ele>802.0</ele><time>2026-05-02T14:02:14.118Z</time></trkpt><trkpt lat="42.1873678" lon="13.2685247"><ele>802.0</ele><time>2026-05-02T14:02:15.118Z</time></trkpt><trkpt lat="42.1874307" lon="13.2684746"><ele>802.0</ele><time>2026-05-02T14:02:16.119Z</time></trkpt><trkpt lat="42.1874882" lon="13.268433"><ele>801.9999999999999</ele><time>2026-05-02T14:02:17.118Z</time></trkpt><trkpt lat="42.1875796" lon="13.2683658"><ele>802.0</ele><time>2026-05-02T14:02:19.118Z</time></trkpt><trkpt lat="42.1876527" lon="13.2683092"><ele>801.9999999999999</ele><time>2026-05-02T14:02:21.118Z</time></trkpt><trkpt lat="42.1877069" lon="13.2682649"><ele>802.0</ele><time>2026-05-02T14:02:23.12Z</time></trkpt><trkpt lat="42.1877974" lon="13.2681888"><ele>802.0</ele><time>2026-05-02T14:02:25.118Z</time></trkpt><trkpt lat="42.1878652" lon="13.2681216"><ele>802.0</ele><time>2026-05-02T14:02:26.118Z</time></trkpt><trkpt lat="42.1879308" lon="13.2680564"><ele>801.9999999999999</ele><time>2026-05-02T14:02:27.118Z</time></trkpt><trkpt lat="42.1879876" lon="13.2680057"><ele>802.0</ele><time>2026-05-02T14:02:28.118Z</time></trkpt><trkpt lat="42.1881014" lon="13.2679142"><ele>802.6</ele><time>2026-05-02T14:02:30.119Z</time></trkpt><trkpt lat="42.1881822" lon="13.2678748"><ele>803.2</ele><time>2026-05-02T14:02:31.12Z</time></trkpt><trkpt lat="42.1882821" lon="13.2678485"><ele>803.8</ele><time>2026-05-02T14:02:32.118Z</time></trkpt><trkpt lat="42.1883998" lon="13.2678162"><ele>804.4</ele><time>2026-05-02T14:02:33.119Z</time></trkpt><trkpt lat="42.1885301" lon="13.2677686"><ele>805.0</ele><time>2026-05-02T14:02:34.119Z</time></trkpt><trkpt lat="42.1886526" lon="13.2677157"><ele>805.0</ele><time>2026-05-02T14:02:35.118Z</time></trkpt><trkpt lat="42.1887595" lon="13.2676648"><ele>805.0</ele><time>2026-05-02T14:02:36.118Z</time></trkpt><trkpt lat="42.1888568" lon="13.2676025"><ele>805.0</ele><time>2026-05-02T14:02:37.118Z</time></trkpt><trkpt lat="42.1889466" lon="13.2675272"><ele>805.0</ele><time>2026-05-02T14:02:38.118Z</time></trkpt><trkpt lat="42.1890232" lon="13.2674713"><ele>805.0</ele><time>2026-05-02T14:02:39.119Z</time></trkpt><trkpt lat="42.1890829" lon="13.267441"><ele>805.2</ele><time>2026-05-02T14:02:40.118Z</time></trkpt><trkpt lat="42.1891416" lon="13.2674079"><ele>805.4</ele><time>2026-05-02T14:02:41.118Z</time></trkpt><trkpt lat="42.1892131" lon="13.2673554"><ele>805.5999999999999</ele><time>2026-05-02T14:02:42.119Z</time></trkpt><trkpt lat="42.1893019" lon="13.2672857"><ele>805.8</ele><time>2026-05-02T14:02:43.119Z</time></trkpt><trkpt lat="42.1893995" lon="13.2671976"><ele>806.0</ele><time>2026-05-02T14:02:44.118Z</time></trkpt><trkpt lat="42.189507" lon="13.2670939"><ele>805.5</ele><time>2026-05-02T14:02:45.119Z</time></trkpt><trkpt lat="42.1896204" lon="13.2669762"><ele>805.0</ele><time>2026-05-02T14:02:46.118Z</time></trkpt><trkpt lat="42.1897233" lon="13.2668708"><ele>804.5</ele><time>2026-05-02T14:02:47.118Z</time></trkpt><trkpt lat="42.18983" lon="13.2667755"><ele>804.0</ele><time>2026-05-02T14:02:48.118Z</time></trkpt><trkpt lat="42.1899505" lon="13.2666823"><ele>804.5</ele><time>2026-05-02T14:02:49.118Z</time></trkpt><trkpt lat="42.1900758" lon="13.2666054"><ele>805.0</ele><time>2026-05-02T14:02:50.119Z</time></trkpt><trkpt lat="42.1901929" lon="13.266545"><ele>805.5</ele><time>2026-05-02T14:02:51.118Z</time></trkpt><trkpt lat="42.190295" lon="13.2664889"><ele>806.0</ele><time>2026-05-02T14:02:52.118Z</time></trkpt><trkpt lat="42.1903785" lon="13.2664134"><ele>806.0</ele><time>2026-05-02T14:02:53.119Z</time></trkpt><trkpt lat="42.1904632" lon="13.2663072"><ele>806.0</ele><time>2026-05-02T14:02:54.119Z</time></trkpt><trkpt lat="42.1905638" lon="13.2661917"><ele>806.0</ele><time>2026-05-02T14:02:55.119Z</time></trkpt><trkpt lat="42.1906769" lon="13.2660826"><ele>806.0</ele><time>2026-05-02T14:02:56.118Z</time></trkpt><trkpt lat="42.1907831" lon="13.2659724"><ele>806.25</ele><time>2026-05-02T14:02:57.118Z</time></trkpt><trkpt lat="42.1908713" lon="13.2658579"><ele>806.5</ele><time>2026-05-02T14:02:58.119Z</time></trkpt><trkpt lat="42.1909537" lon="13.265737"><ele>806.75</ele><time>2026-05-02T14:02:59.119Z</time></trkpt><trkpt lat="42.1910407" lon="13.2656194"><ele>807.0</ele><time>2026-05-02T14:03:00.119Z</time></trkpt><trkpt lat="42.1911283" lon="13.2655063"><ele>807.0</ele><time>2026-05-02T14:03:01.118Z</time></trkpt><trkpt lat="42.1912237" lon="13.2654009"><ele>807.0</ele><time>2026-05-02T14:03:02.119Z</time></trkpt><trkpt lat="42.1913255" lon="13.2652899"><ele>807.0</ele><time>2026-05-02T14:03:03.119Z</time></trkpt><trkpt lat="42.1914149" lon="13.2651602"><ele>807.0</ele><time>2026-05-02T14:03:04.118Z</time></trkpt><trkpt lat="42.1914967" lon="13.2650178"><ele>807.5</ele><time>2026-05-02T14:03:05.118Z</time></trkpt><trkpt lat="42.1915751" lon="13.2648818"><ele>808.0</ele><time>2026-05-02T14:03:06.119Z</time></trkpt><trkpt lat="42.1916508" lon="13.2647692"><ele>808.5</ele><time>2026-05-02T14:03:07.118Z</time></trkpt><trkpt lat="42.1917308" lon="13.264682"><ele>809.0</ele><time>2026-05-02T14:03:08.118Z</time></trkpt><trkpt lat="42.1918271" lon="13.2646112"><ele>809.0</ele><time>2026-05-02T14:03:09.118Z</time></trkpt><trkpt lat="42.1919375" lon="13.2645345"><ele>809.0</ele><time>2026-05-02T14:03:10.118Z</time></trkpt><trkpt lat="42.192044" lon="13.264456"><ele>809.0</ele><time>2026-05-02T14:03:11.118Z</time></trkpt><trkpt lat="42.1921455" lon="13.2643883"><ele>809.0</ele><time>2026-05-02T14:03:12.119Z</time></trkpt><trkpt lat="42.1922582" lon="13.2643353"><ele>810.0</ele><time>2026-05-02T14:03:13.118Z</time></trkpt><trkpt lat="42.192376" lon="13.2642849"><ele>811.0</ele><time>2026-05-02T14:03:14.118Z</time></trkpt><trkpt lat="42.1924926" lon="13.2642299"><ele>812.0</ele><time>2026-05-02T14:03:15.119Z</time></trkpt><trkpt lat="42.1926056" lon="13.2641619"><ele>813.0</ele><time>2026-05-02T14:03:16.118Z</time></trkpt><trkpt lat="42.1927156" lon="13.264087"><ele>813.0</ele><time>2026-05-02T14:03:17.118Z</time></trkpt><trkpt lat="42.1928206" lon="13.26402"><ele>813.0</ele><time>2026-05-02T14:03:18.118Z</time></trkpt><trkpt lat="42.1929337" lon="13.2639596"><ele>813.0</ele><time>2026-05-02T14:03:19.118Z</time></trkpt><trkpt lat="42.1930602" lon="13.2638912"><ele>813.0</ele><time>2026-05-02T14:03:20.119Z</time></trkpt><trkpt lat="42.1931798" lon="13.2638205"><ele>813.25</ele><time>2026-05-02T14:03:21.119Z</time></trkpt><trkpt lat="42.1932925" lon="13.2637422"><ele>813.5</ele><time>2026-05-02T14:03:22.119Z</time></trkpt><trkpt lat="42.1934096" lon="13.2636492"><ele>813.75</ele><time>2026-05-02T14:03:23.119Z</time></trkpt><trkpt lat="42.1935254" lon="13.2635522"><ele>814.0</ele><time>2026-05-02T14:03:24.12Z</time></trkpt><trkpt lat="42.1936337" lon="13.2634604"><ele>814.0</ele><time>2026-05-02T14:03:25.118Z</time></trkpt><trkpt lat="42.1937323" lon="13.2633741"><ele>814.0</ele><time>2026-05-02T14:03:26.118Z</time></trkpt><trkpt lat="42.1938263" lon="13.2632961"><ele>814.0</ele><time>2026-05-02T14:03:27.118Z</time></trkpt><trkpt lat="42.193918" lon="13.2632275"><ele>814.0</ele><time>2026-05-02T14:03:28.118Z</time></trkpt><trkpt lat="42.1940081" lon="13.2631657"><ele>814.0</ele><time>2026-05-02T14:03:29.119Z</time></trkpt><trkpt lat="42.1940938" lon="13.2631036"><ele>814.2</ele><time>2026-05-02T14:03:30.119Z</time></trkpt><trkpt lat="42.1941714" lon="13.2630415"><ele>814.4000000000001</ele><time>2026-05-02T14:03:31.118Z</time></trkpt><trkpt lat="42.1942486" lon="13.2629975"><ele>814.6</ele><time>2026-05-02T14:03:32.118Z</time></trkpt><trkpt lat="42.1943333" lon="13.2629755"><ele>814.8</ele><time>2026-05-02T14:03:33.118Z</time></trkpt><trkpt lat="42.1944284" lon="13.2629659"><ele>815.0</ele><time>2026-05-02T14:03:34.118Z</time></trkpt><trkpt lat="42.1945319" lon="13.2629492"><ele>815.0</ele><time>2026-05-02T14:03:35.118Z</time></trkpt><trkpt lat="42.1946388" lon="13.2629099"><ele>815.0</ele><time>2026-05-02T14:03:36.119Z</time></trkpt><trkpt lat="42.1947363" lon="13.2628633"><ele>815.0</ele><time>2026-05-02T14:03:37.119Z</time></trkpt><trkpt lat="42.1948228" lon="13.2628349"><ele>815.0</ele><time>2026-05-02T14:03:38.118Z</time></trkpt><trkpt lat="42.1949061" lon="13.2628259"><ele>815.0</ele><time>2026-05-02T14:03:39.118Z</time></trkpt><trkpt lat="42.1949875" lon="13.2628267"><ele>815.0</ele><time>2026-05-02T14:03:40.118Z</time></trkpt><trkpt lat="42.1950763" lon="13.262848"><ele>815.0</ele><time>2026-05-02T14:03:41.118Z</time></trkpt><trkpt lat="42.1951745" lon="13.2628876"><ele>815.0</ele><time>2026-05-02T14:03:42.119Z</time></trkpt><trkpt lat="42.1952591" lon="13.2629299"><ele>815.0</ele><time>2026-05-02T14:03:43.119Z</time></trkpt><trkpt lat="42.1953298" lon="13.262964"><ele>815.0</ele><time>2026-05-02T14:03:44.119Z</time></trkpt><trkpt lat="42.1954254" lon="13.2629716"><ele>815.0</ele><time>2026-05-02T14:03:46.118Z</time></trkpt><trkpt lat="42.1954813" lon="13.26292"><ele>815.0</ele><time>2026-05-02T14:03:47.119Z</time></trkpt><trkpt lat="42.1955315" lon="13.2628459"><ele>815.0</ele><time>2026-05-02T14:03:48.118Z</time></trkpt><trkpt lat="42.1955811" lon="13.2627356"><ele>815.0</ele><time>2026-05-02T14:03:49.118Z</time></trkpt><trkpt lat="42.195639" lon="13.2625863"><ele>815.0</ele><time>2026-05-02T14:03:50.118Z</time></trkpt><trkpt lat="42.1957006" lon="13.2624112"><ele>815.0</ele><time>2026-05-02T14:03:51.118Z</time></trkpt><trkpt lat="42.1957699" lon="13.2622272"><ele>815.0</ele><time>2026-05-02T14:03:52.119Z</time></trkpt><trkpt lat="42.1958365" lon="13.2620654"><ele>815.0</ele><time>2026-05-02T14:03:53.119Z</time></trkpt><trkpt lat="42.1959029" lon="13.2619032"><ele>815.0</ele><time>2026-05-02T14:03:54.119Z</time></trkpt><trkpt lat="42.1959599" lon="13.2617274"><ele>815.0</ele><time>2026-05-02T14:03:55.119Z</time></trkpt><trkpt lat="42.1960073" lon="13.2615678"><ele>815.0</ele><time>2026-05-02T14:03:56.118Z</time></trkpt><trkpt lat="42.1960574" lon="13.2614212"><ele>815.0</ele><time>2026-05-02T14:03:57.118Z</time></trkpt><trkpt lat="42.1961099" lon="13.2612715"><ele>815.0</ele><time>2026-05-02T14:03:58.118Z</time></trkpt><trkpt lat="42.1961507" lon="13.2611171"><ele>814.8</ele><time>2026-05-02T14:03:59.118Z</time></trkpt><trkpt lat="42.1961839" lon="13.2609654"><ele>814.6</ele><time>2026-05-02T14:04:00.119Z</time></trkpt><trkpt lat="42.1962101" lon="13.2608194"><ele>814.4000000000001</ele><time>2026-05-02T14:04:01.119Z</time></trkpt><trkpt lat="42.1962366" lon="13.2606853"><ele>814.2</ele><time>2026-05-02T14:04:02.119Z</time></trkpt><trkpt lat="42.1962672" lon="13.2605832"><ele>814.0</ele><time>2026-05-02T14:04:03.119Z</time></trkpt><trkpt lat="42.1963055" lon="13.2605023"><ele>813.5714285714287</ele><time>2026-05-02T14:04:04.119Z</time></trkpt><trkpt lat="42.1963518" lon="13.260441"><ele>813.1428571428571</ele><time>2026-05-02T14:04:05.12Z</time></trkpt><trkpt lat="42.1964114" lon="13.2604039"><ele>812.7142857142858</ele><time>2026-05-02T14:04:06.119Z</time></trkpt><trkpt lat="42.1964753" lon="13.2603741"><ele>812.2857142857143</ele><time>2026-05-02T14:04:07.118Z</time></trkpt><trkpt lat="42.1965372" lon="13.2603553"><ele>811.8571428571429</ele><time>2026-05-02T14:04:08.118Z</time></trkpt><trkpt lat="42.1966129" lon="13.2603501"><ele>811.4285714285714</ele><time>2026-05-02T14:04:09.12Z</time></trkpt><trkpt lat="42.1967059" lon="13.2603507"><ele>811.0</ele><time>2026-05-02T14:04:10.119Z</time></trkpt><trkpt lat="42.1968129" lon="13.260345"><ele>810.5</ele><time>2026-05-02T14:04:11.118Z</time></trkpt><trkpt lat="42.1969208" lon="13.2603158"><ele>810.0</ele><time>2026-05-02T14:04:12.12Z</time></trkpt><trkpt lat="42.197043" lon="13.2602737"><ele>809.5</ele><time>2026-05-02T14:04:13.119Z</time></trkpt><trkpt lat="42.1971652" lon="13.2602264"><ele>809.0</ele><time>2026-05-02T14:04:14.118Z</time></trkpt><trkpt lat="42.1972798" lon="13.2601785"><ele>809.5</ele><time>2026-05-02T14:04:15.118Z</time></trkpt><trkpt lat="42.1973855" lon="13.2601256"><ele>810.0</ele><time>2026-05-02T14:04:16.119Z</time></trkpt><trkpt lat="42.1974939" lon="13.2600658"><ele>810.5</ele><time>2026-05-02T14:04:17.118Z</time></trkpt><trkpt lat="42.1976014" lon="13.2599753"><ele>811.0</ele><time>2026-05-02T14:04:18.118Z</time></trkpt><trkpt lat="42.1977103" lon="13.2598779"><ele>810.25</ele><time>2026-05-02T14:04:19.118Z</time></trkpt><trkpt lat="42.19782" lon="13.2597699"><ele>809.5</ele><time>2026-05-02T14:04:20.118Z</time></trkpt><trkpt lat="42.1979264" lon="13.2596621"><ele>808.75</ele><time>2026-05-02T14:04:21.119Z</time></trkpt><trkpt lat="42.1980172" lon="13.2595778"><ele>808.0</ele><time>2026-05-02T14:04:22.119Z</time></trkpt><trkpt lat="42.1980978" lon="13.2595061"><ele>807.9999999999999</ele><time>2026-05-02T14:04:23.119Z</time></trkpt><trkpt lat="42.1981678" lon="13.2594523"><ele>808.0</ele><time>2026-05-02T14:04:24.118Z</time></trkpt><trkpt lat="42.1982326" lon="13.2594154"><ele>808.0</ele><time>2026-05-02T14:04:25.118Z</time></trkpt><trkpt lat="42.1982991" lon="13.2594046"><ele>808.0</ele><time>2026-05-02T14:04:26.118Z</time></trkpt><trkpt lat="42.1983821" lon="13.2594165"><ele>807.9999999999999</ele><time>2026-05-02T14:04:27.118Z</time></trkpt><trkpt lat="42.1984816" lon="13.2594256"><ele>808.0</ele><time>2026-05-02T14:04:28.119Z</time></trkpt><trkpt lat="42.1985932" lon="13.2594039"><ele>809.25</ele><time>2026-05-02T14:04:29.119Z</time></trkpt><trkpt lat="42.1987159" lon="13.2593463"><ele>810.5</ele><time>2026-05-02T14:04:30.118Z</time></trkpt><trkpt lat="42.1988537" lon="13.2592723"><ele>811.75</ele><time>2026-05-02T14:04:31.119Z</time></trkpt><trkpt lat="42.1989941" lon="13.2591894"><ele>813.0</ele><time>2026-05-02T14:04:32.118Z</time></trkpt><trkpt lat="42.1991077" lon="13.2591105"><ele>813.75</ele><time>2026-05-02T14:04:33.12Z</time></trkpt><trkpt lat="42.1992062" lon="13.25904"><ele>814.5</ele><time>2026-05-02T14:04:34.119Z</time></trkpt><trkpt lat="42.199309" lon="13.2590012"><ele>815.25</ele><time>2026-05-02T14:04:35.118Z</time></trkpt><trkpt lat="42.1994209" lon="13.2590027"><ele>816.0</ele><time>2026-05-02T14:04:36.118Z</time></trkpt><trkpt lat="42.1995405" lon="13.2590333"><ele>816.0</ele><time>2026-05-02T14:04:37.119Z</time></trkpt><trkpt lat="42.1996383" lon="13.259071"><ele>816.0</ele><time>2026-05-02T14:04:38.118Z</time></trkpt><trkpt lat="42.1997138" lon="13.259119"><ele>816.0</ele><time>2026-05-02T14:04:39.118Z</time></trkpt><trkpt lat="42.1997768" lon="13.2591714"><ele>816.0</ele><time>2026-05-02T14:04:40.118Z</time></trkpt><trkpt lat="42.1998654" lon="13.2592255"><ele>816.0</ele><time>2026-05-02T14:04:42.118Z</time></trkpt><trkpt lat="42.199926" lon="13.2591962"><ele>816.0</ele><time>2026-05-02T14:04:45.119Z</time></trkpt><trkpt lat="42.1999236" lon="13.2590995"><ele>815.8</ele><time>2026-05-02T14:04:47.118Z</time></trkpt><trkpt lat="42.1998726" lon="13.2589343"><ele>815.5999999999999</ele><time>2026-05-02T14:04:49.119Z</time></trkpt><trkpt lat="42.1998418" lon="13.2588308"><ele>815.4</ele><time>2026-05-02T14:04:50.119Z</time></trkpt><trkpt lat="42.1998157" lon="13.2587317"><ele>815.2</ele><time>2026-05-02T14:04:51.118Z</time></trkpt><trkpt lat="42.1997836" lon="13.2586153"><ele>815.0</ele><time>2026-05-02T14:04:52.118Z</time></trkpt><trkpt lat="42.1997457" lon="13.2584848"><ele>815.0</ele><time>2026-05-02T14:04:53.119Z</time></trkpt><trkpt lat="42.1997015" lon="13.2583398"><ele>815.0</ele><time>2026-05-02T14:04:54.12Z</time></trkpt><trkpt lat="42.1996548" lon="13.2582016"><ele>815.0</ele><time>2026-05-02T14:04:55.119Z</time></trkpt><trkpt lat="42.1996155" lon="13.2580972"><ele>815.0</ele><time>2026-05-02T14:04:56.12Z</time></trkpt><trkpt lat="42.1995884" lon="13.2580186"><ele>815.0</ele><time>2026-05-02T14:04:57.119Z</time></trkpt><trkpt lat="42.1995801" lon="13.2578826"><ele>815.3333333333334</ele><time>2026-05-02T14:04:59.12Z</time></trkpt><trkpt lat="42.1996026" lon="13.2577202"><ele>815.6666666666667</ele><time>2026-05-02T14:05:01.118Z</time></trkpt><trkpt lat="42.1996199" lon="13.2576254"><ele>816.0</ele><time>2026-05-02T14:05:02.118Z</time></trkpt><trkpt lat="42.1996607" lon="13.2575008"><ele>816.3333333333333</ele><time>2026-05-02T14:05:03.118Z</time></trkpt><trkpt lat="42.1996869" lon="13.2574035"><ele>816.6666666666666</ele><time>2026-05-02T14:05:04.118Z</time></trkpt><trkpt lat="42.1997238" lon="13.2573125"><ele>817.0</ele><time>2026-05-02T14:05:05.12Z</time></trkpt><trkpt lat="42.1998158" lon="13.2572463"><ele>818.0</ele><time>2026-05-02T14:05:07.118Z</time></trkpt><trkpt lat="42.1998696" lon="13.2571715"><ele>819.0</ele><time>2026-05-02T14:05:10.119Z</time></trkpt><trkpt lat="42.1998462" lon="13.2570875"><ele>820.0</ele><time>2026-05-02T14:05:22.118Z</time></trkpt><trkpt lat="42.199773" lon="13.2569834"><ele>821.0</ele><time>2026-05-02T14:05:24.118Z</time></trkpt><trkpt lat="42.1996903" lon="13.2568539"><ele>822.0</ele><time>2026-05-02T14:05:26.118Z</time></trkpt><trkpt lat="42.1996395" lon="13.2567416"><ele>822.0</ele><time>2026-05-02T14:05:28.119Z</time></trkpt><trkpt lat="42.1996862" lon="13.256678"><ele>822.0</ele><time>2026-05-02T14:05:30.118Z</time></trkpt><trkpt lat="42.1997818" lon="13.2567249"><ele>822.0</ele><time>2026-05-02T14:05:32.119Z</time></trkpt><trkpt lat="42.1998692" lon="13.256799"><ele>822.0</ele><time>2026-05-02T14:05:34.119Z</time></trkpt><trkpt lat="42.1999397" lon="13.2568437"><ele>822.0</ele><time>2026-05-02T14:05:36.118Z</time></trkpt><trkpt lat="42.2000216" lon="13.2568749"><ele>822.0</ele><time>2026-05-02T14:05:39.119Z</time></trkpt><trkpt lat="42.2000894" lon="13.2568826"><ele>824.5</ele><time>2026-05-02T14:05:41.118Z</time></trkpt><trkpt lat="42.2001648" lon="13.2569086"><ele>827.0</ele><time>2026-05-02T14:05:43.118Z</time></trkpt><trkpt lat="42.2002282" lon="13.2569483"><ele>829.5</ele><time>2026-05-02T14:05:45.118Z</time></trkpt><trkpt lat="42.2003099" lon="13.256954"><ele>832.0</ele><time>2026-05-02T14:05:47.118Z</time></trkpt><trkpt lat="42.2004245" lon="13.2569674"><ele>834.5</ele><time>2026-05-02T14:05:49.119Z</time></trkpt><trkpt lat="42.2004972" lon="13.2569803"><ele>837.0</ele><time>2026-05-02T14:05:50.12Z</time></trkpt><trkpt lat="42.2005797" lon="13.2569945"><ele>839.6666666666666</ele><time>2026-05-02T14:05:51.119Z</time></trkpt><trkpt lat="42.2006668" lon="13.2570058"><ele>842.3333333333333</ele><time>2026-05-02T14:05:52.119Z</time></trkpt><trkpt lat="42.2007547" lon="13.2570172"><ele>845.0</ele><time>2026-05-02T14:05:53.12Z</time></trkpt><trkpt lat="42.2008415" lon="13.2570353"><ele>847.6666666666666</ele><time>2026-05-02T14:05:54.119Z</time></trkpt><trkpt lat="42.200915" lon="13.2570611"><ele>850.3333333333333</ele><time>2026-05-02T14:05:55.119Z</time></trkpt><trkpt lat="42.2009732" lon="13.2570958"><ele>853.0</ele><time>2026-05-02T14:05:56.118Z</time></trkpt><trkpt lat="42.2010563" lon="13.2571782"><ele>852.9999999999999</ele><time>2026-05-02T14:05:58.119Z</time></trkpt><trkpt lat="42.2011663" lon="13.2572134"><ele>853.0</ele><time>2026-05-02T14:06:01.119Z</time></trkpt><trkpt lat="42.2012367" lon="13.2572357"><ele>853.0</ele><time>2026-05-02T14:06:02.118Z</time></trkpt><trkpt lat="42.2013127" lon="13.2572539"><ele>853.0</ele><time>2026-05-02T14:06:03.118Z</time></trkpt><trkpt lat="42.201388" lon="13.257273"><ele>852.9999999999999</ele><time>2026-05-02T14:06:04.118Z</time></trkpt><trkpt lat="42.2014675" lon="13.2572933"><ele>853.0</ele><time>2026-05-02T14:06:05.118Z</time></trkpt><trkpt lat="42.201537" lon="13.2573064"><ele>852.0</ele><time>2026-05-02T14:06:06.119Z</time></trkpt><trkpt lat="42.2016224" lon="13.257311"><ele>851.0</ele><time>2026-05-02T14:06:07.119Z</time></trkpt><trkpt lat="42.2017016" lon="13.2573161"><ele>850.0</ele><time>2026-05-02T14:06:08.118Z</time></trkpt><trkpt lat="42.2017876" lon="13.2573433"><ele>849.0</ele><time>2026-05-02T14:06:10.119Z</time></trkpt><trkpt lat="42.2017248" lon="13.2573218"><ele>848.0</ele><time>2026-05-02T14:06:25.118Z</time></trkpt><trkpt lat="42.2015845" lon="13.2573187"><ele>848.0000000000001</ele><time>2026-05-02T14:06:27.119Z</time></trkpt><trkpt lat="42.2015099" lon="13.2573121"><ele>848.0</ele><time>2026-05-02T14:06:28.118Z</time></trkpt><trkpt lat="42.2014406" lon="13.2572915"><ele>848.0</ele><time>2026-05-02T14:06:29.119Z</time></trkpt><trkpt lat="42.2013694" lon="13.2572741"><ele>848.0</ele><time>2026-05-02T14:06:30.119Z</time></trkpt><trkpt lat="42.2012999" lon="13.2572545"><ele>848.0000000000001</ele><time>2026-05-02T14:06:31.119Z</time></trkpt><trkpt lat="42.2011968" lon="13.257223"><ele>848.0</ele><time>2026-05-02T14:06:33.119Z</time></trkpt><trkpt lat="42.2011276" lon="13.2572091"><ele>848.8333333333334</ele><time>2026-05-02T14:06:35.119Z</time></trkpt><trkpt lat="42.2010359" lon="13.2571581"><ele>849.6666666666667</ele><time>2026-05-02T14:06:39.118Z</time></trkpt><trkpt lat="42.2009803" lon="13.2570871"><ele>850.5</ele><time>2026-05-02T14:06:41.118Z</time></trkpt><trkpt lat="42.2009439" lon="13.2570142"><ele>851.3333333333333</ele><time>2026-05-02T14:06:43.119Z</time></trkpt><trkpt lat="42.2008948" lon="13.2569345"><ele>852.1666666666666</ele><time>2026-05-02T14:06:45.119Z</time></trkpt><trkpt lat="42.2009222" lon="13.2568462"><ele>853.0</ele><time>2026-05-02T14:06:48.118Z</time></trkpt><trkpt lat="42.2010273" lon="13.2568465"><ele>853.0</ele><time>2026-05-02T14:06:50.119Z</time></trkpt><trkpt lat="42.2011642" lon="13.256855"><ele>853.0</ele><time>2026-05-02T14:06:52.119Z</time></trkpt><trkpt lat="42.2012451" lon="13.2568533"><ele>853.0</ele><time>2026-05-02T14:06:53.119Z</time></trkpt><trkpt lat="42.2013201" lon="13.2568471"><ele>853.0</ele><time>2026-05-02T14:06:54.119Z</time></trkpt><trkpt lat="42.2014482" lon="13.2568086"><ele>853.0</ele><time>2026-05-02T14:06:56.119Z</time></trkpt><trkpt lat="42.2015414" lon="13.2568037"><ele>856.4</ele><time>2026-05-02T14:06:57.119Z</time></trkpt><trkpt lat="42.2016324" lon="13.2568057"><ele>859.8</ele><time>2026-05-02T14:06:58.119Z</time></trkpt><trkpt lat="42.2017267" lon="13.2568202"><ele>863.2</ele><time>2026-05-02T14:06:59.119Z</time></trkpt><trkpt lat="42.2018152" lon="13.2568214"><ele>866.6</ele><time>2026-05-02T14:07:00.119Z</time></trkpt><trkpt lat="42.2019064" lon="13.2568288"><ele>870.0</ele><time>2026-05-02T14:07:01.119Z</time></trkpt><trkpt lat="42.2020006" lon="13.2568323"><ele>870.0</ele><time>2026-05-02T14:07:02.119Z</time></trkpt><trkpt lat="42.2021079" lon="13.2568292"><ele>870.0</ele><time>2026-05-02T14:07:03.118Z</time></trkpt><trkpt lat="42.2022" lon="13.2568126"><ele>870.0</ele><time>2026-05-02T14:07:04.118Z</time></trkpt><trkpt lat="42.2022881" lon="13.2567948"><ele>870.0</ele><time>2026-05-02T14:07:05.118Z</time></trkpt><trkpt lat="42.2023646" lon="13.2567772"><ele>870.0</ele><time>2026-05-02T14:07:06.119Z</time></trkpt><trkpt lat="42.2024825" lon="13.2567377"><ele>871.4</ele><time>2026-05-02T14:07:08.118Z</time></trkpt><trkpt lat="42.2025938" lon="13.2567051"><ele>872.8</ele><time>2026-05-02T14:07:10.118Z</time></trkpt><trkpt lat="42.2026695" lon="13.2566739"><ele>874.2</ele><time>2026-05-02T14:07:11.118Z</time></trkpt><trkpt lat="42.2027424" lon="13.2566579"><ele>875.6</ele><time>2026-05-02T14:07:12.118Z</time></trkpt><trkpt lat="42.2028083" lon="13.2565982"><ele>877.0</ele><time>2026-05-02T14:07:14.118Z</time></trkpt><trkpt lat="42.2028812" lon="13.256492"><ele>878.8333333333333</ele><time>2026-05-02T14:07:16.118Z</time></trkpt><trkpt lat="42.2029269" lon="13.2564162"><ele>880.6666666666666</ele><time>2026-05-02T14:07:17.118Z</time></trkpt><trkpt lat="42.2029699" lon="13.2563412"><ele>882.5</ele><time>2026-05-02T14:07:18.118Z</time></trkpt><trkpt lat="42.2030027" lon="13.256259"><ele>884.3333333333333</ele><time>2026-05-02T14:07:19.119Z</time></trkpt><trkpt lat="42.2030297" lon="13.2561758"><ele>886.1666666666666</ele><time>2026-05-02T14:07:20.119Z</time></trkpt><trkpt lat="42.2030617" lon="13.2560992"><ele>888.0</ele><time>2026-05-02T14:07:21.118Z</time></trkpt><trkpt lat="42.203121" lon="13.2559603"><ele>887.1666666666666</ele><time>2026-05-02T14:07:23.119Z</time></trkpt><trkpt lat="42.2031853" lon="13.2558588"><ele>886.3333333333333</ele><time>2026-05-02T14:07:25.118Z</time></trkpt><trkpt lat="42.2032421" lon="13.2557992"><ele>885.5</ele><time>2026-05-02T14:07:27.119Z</time></trkpt><trkpt lat="42.2032855" lon="13.2557289"><ele>884.6666666666666</ele><time>2026-05-02T14:07:30.118Z</time></trkpt><trkpt lat="42.2033286" lon="13.2556525"><ele>883.8333333333333</ele><time>2026-05-02T14:07:32.118Z</time></trkpt><trkpt lat="42.2033566" lon="13.2555749"><ele>883.0</ele><time>2026-05-02T14:07:34.119Z</time></trkpt><trkpt lat="42.2033309" lon="13.2554744"><ele>885.2</ele><time>2026-05-02T14:07:36.119Z</time></trkpt><trkpt lat="42.2033038" lon="13.2553387"><ele>887.4</ele><time>2026-05-02T14:07:38.119Z</time></trkpt><trkpt lat="42.2032828" lon="13.2552157"><ele>889.6000000000001</ele><time>2026-05-02T14:07:40.118Z</time></trkpt><trkpt lat="42.2032721" lon="13.2550747"><ele>891.8000000000001</ele><time>2026-05-02T14:07:42.119Z</time></trkpt><trkpt lat="42.2032657" lon="13.2549769"><ele>894.0</ele><time>2026-05-02T14:07:44.118Z</time></trkpt><trkpt lat="42.2033312" lon="13.2549151"><ele>894.0</ele><time>2026-05-02T14:07:47.119Z</time></trkpt><trkpt lat="42.2034025" lon="13.2549712"><ele>894.0000000000001</ele><time>2026-05-02T14:07:49.119Z</time></trkpt><trkpt lat="42.2034903" lon="13.255034"><ele>894.0000000000001</ele><time>2026-05-02T14:07:52.118Z</time></trkpt><trkpt lat="42.2035842" lon="13.2550951"><ele>894.0</ele><time>2026-05-02T14:07:54.118Z</time></trkpt><trkpt lat="42.2036738" lon="13.255173"><ele>894.0</ele><time>2026-05-02T14:07:56.118Z</time></trkpt><trkpt lat="42.2037303" lon="13.2552313"><ele>894.0</ele><time>2026-05-02T14:07:57.119Z</time></trkpt><trkpt lat="42.2037942" lon="13.2553009"><ele>894.0000000000001</ele><time>2026-05-02T14:07:58.12Z</time></trkpt><trkpt lat="42.2038695" lon="13.2553776"><ele>894.0000000000001</ele><time>2026-05-02T14:07:59.12Z</time></trkpt><trkpt lat="42.2039558" lon="13.2554686"><ele>894.0</ele><time>2026-05-02T14:08:00.118Z</time></trkpt><trkpt lat="42.204041" lon="13.2555733"><ele>894.0</ele><time>2026-05-02T14:08:01.119Z</time></trkpt><trkpt lat="42.2041223" lon="13.2556987"><ele>895.5</ele><time>2026-05-02T14:08:02.119Z</time></trkpt><trkpt lat="42.2042148" lon="13.2558194"><ele>897.0</ele><time>2026-05-02T14:08:03.119Z</time></trkpt><trkpt lat="42.2043267" lon="13.2559222"><ele>898.5</ele><time>2026-05-02T14:08:04.119Z</time></trkpt><trkpt lat="42.2044559" lon="13.2560123"><ele>900.0</ele><time>2026-05-02T14:08:05.119Z</time></trkpt><trkpt lat="42.20459" lon="13.2561025"><ele>900.0</ele><time>2026-05-02T14:08:06.118Z</time></trkpt><trkpt lat="42.204725" lon="13.2561982"><ele>900.0</ele><time>2026-05-02T14:08:07.118Z</time></trkpt><trkpt lat="42.2048409" lon="13.2563003"><ele>900.0</ele><time>2026-05-02T14:08:08.119Z</time></trkpt><trkpt lat="42.2049406" lon="13.2564178"><ele>900.0</ele><time>2026-05-02T14:08:09.118Z</time></trkpt><trkpt lat="42.2050361" lon="13.2565609"><ele>903.3333333333333</ele><time>2026-05-02T14:08:10.118Z</time></trkpt><trkpt lat="42.2051165" lon="13.2567271"><ele>906.6666666666666</ele><time>2026-05-02T14:08:11.119Z</time></trkpt><trkpt lat="42.2052081" lon="13.256906"><ele>910.0</ele><time>2026-05-02T14:08:12.118Z</time></trkpt><trkpt lat="42.2053051" lon="13.2571133"><ele>907.0</ele><time>2026-05-02T14:08:13.119Z</time></trkpt><trkpt lat="42.2053816" lon="13.2573121"><ele>904.0</ele><time>2026-05-02T14:08:14.118Z</time></trkpt><trkpt lat="42.2054459" lon="13.2574838"><ele>901.0</ele><time>2026-05-02T14:08:15.119Z</time></trkpt><trkpt lat="42.2055171" lon="13.257626"><ele>898.0</ele><time>2026-05-02T14:08:16.119Z</time></trkpt><trkpt lat="42.2055891" lon="13.2577428"><ele>898.0</ele><time>2026-05-02T14:08:17.118Z</time></trkpt><trkpt lat="42.2056561" lon="13.2578184"><ele>898.0</ele><time>2026-05-02T14:08:18.119Z</time></trkpt><trkpt lat="42.2057627" lon="13.2578724"><ele>898.0</ele><time>2026-05-02T14:08:20.118Z</time></trkpt><trkpt lat="42.2058258" lon="13.2578966"><ele>898.0</ele><time>2026-05-02T14:08:21.118Z</time></trkpt><trkpt lat="42.2059398" lon="13.2579651"><ele>898.0</ele><time>2026-05-02T14:08:23.118Z</time></trkpt><trkpt lat="42.2060074" lon="13.2580307"><ele>901.8</ele><time>2026-05-02T14:08:24.118Z</time></trkpt><trkpt lat="42.2060903" lon="13.2580991"><ele>905.5999999999999</ele><time>2026-05-02T14:08:25.118Z</time></trkpt><trkpt lat="42.2061558" lon="13.2581871"><ele>909.4000000000001</ele><time>2026-05-02T14:08:26.118Z</time></trkpt><trkpt lat="42.2061823" lon="13.258287"><ele>913.2</ele><time>2026-05-02T14:08:27.12Z</time></trkpt><trkpt lat="42.2061919" lon="13.2584177"><ele>917.0</ele><time>2026-05-02T14:08:28.119Z</time></trkpt><trkpt lat="42.2061855" lon="13.2585727"><ele>917.0</ele><time>2026-05-02T14:08:29.119Z</time></trkpt><trkpt lat="42.2061818" lon="13.2587535"><ele>917.0</ele><time>2026-05-02T14:08:30.119Z</time></trkpt><trkpt lat="42.2061731" lon="13.2589571"><ele>917.0</ele><time>2026-05-02T14:08:31.118Z</time></trkpt><trkpt lat="42.2061637" lon="13.259174"><ele>917.0</ele><time>2026-05-02T14:08:32.118Z</time></trkpt><trkpt lat="42.2061566" lon="13.2593626"><ele>915.5</ele><time>2026-05-02T14:08:33.118Z</time></trkpt><trkpt lat="42.2061734" lon="13.2595256"><ele>914.0</ele><time>2026-05-02T14:08:34.118Z</time></trkpt><trkpt lat="42.2062099" lon="13.2596717"><ele>912.5</ele><time>2026-05-02T14:08:35.118Z</time></trkpt><trkpt lat="42.2062612" lon="13.2598174"><ele>911.0</ele><time>2026-05-02T14:08:36.119Z</time></trkpt><trkpt lat="42.2063563" lon="13.2599327"><ele>909.0</ele><time>2026-05-02T14:08:37.119Z</time></trkpt><trkpt lat="42.206451" lon="13.2600774"><ele>907.0</ele><time>2026-05-02T14:08:38.118Z</time></trkpt><trkpt lat="42.2065605" lon="13.2602354"><ele>905.0</ele><time>2026-05-02T14:08:39.118Z</time></trkpt><trkpt lat="42.2066824" lon="13.2604145"><ele>912.0</ele><time>2026-05-02T14:08:40.118Z</time></trkpt><trkpt lat="42.2068081" lon="13.26061"><ele>919.0</ele><time>2026-05-02T14:08:41.118Z</time></trkpt><trkpt lat="42.2069361" lon="13.2608159"><ele>926.0</ele><time>2026-05-02T14:08:42.118Z</time></trkpt><trkpt lat="42.2070453" lon="13.2610072"><ele>926.0</ele><time>2026-05-02T14:08:43.118Z</time></trkpt><trkpt lat="42.2071438" lon="13.261182"><ele>926.0</ele><time>2026-05-02T14:08:44.118Z</time></trkpt><trkpt lat="42.2072316" lon="13.2613445"><ele>926.0</ele><time>2026-05-02T14:08:45.118Z</time></trkpt><trkpt lat="42.2073054" lon="13.2614922"><ele>926.0</ele><time>2026-05-02T14:08:46.118Z</time></trkpt><trkpt lat="42.20738" lon="13.2616192"><ele>928.8333333333334</ele><time>2026-05-02T14:08:47.118Z</time></trkpt><trkpt lat="42.2074568" lon="13.2617272"><ele>931.6666666666667</ele><time>2026-05-02T14:08:48.119Z</time></trkpt><trkpt lat="42.2075346" lon="13.2618123"><ele>934.5</ele><time>2026-05-02T14:08:49.119Z</time></trkpt><trkpt lat="42.2076081" lon="13.2618601"><ele>937.3333333333333</ele><time>2026-05-02T14:08:50.119Z</time></trkpt><trkpt lat="42.2076775" lon="13.2618634"><ele>940.1666666666666</ele><time>2026-05-02T14:08:51.118Z</time></trkpt><trkpt lat="42.2077413" lon="13.261829"><ele>943.0</ele><time>2026-05-02T14:08:52.118Z</time></trkpt><trkpt lat="42.2078063" lon="13.2617704"><ele>943.0</ele><time>2026-05-02T14:08:53.118Z</time></trkpt><trkpt lat="42.2078627" lon="13.261694"><ele>943.0</ele><time>2026-05-02T14:08:54.12Z</time></trkpt><trkpt lat="42.207889" lon="13.2615528"><ele>943.0</ele><time>2026-05-02T14:08:56.118Z</time></trkpt><trkpt lat="42.2078" lon="13.26155"><ele>943.0</ele><time>2026-05-02T14:08:58.118Z</time></trkpt><trkpt lat="42.207687" lon="13.2615563"><ele>943.0</ele><time>2026-05-02T14:09:00.119Z</time></trkpt><trkpt lat="42.2076291" lon="13.2614414"><ele>947.4</ele><time>2026-05-02T14:09:02.118Z</time></trkpt><trkpt lat="42.2076001" lon="13.2613426"><ele>951.8</ele><time>2026-05-02T14:09:03.118Z</time></trkpt><trkpt lat="42.2075561" lon="13.2612254"><ele>956.2</ele><time>2026-05-02T14:09:04.118Z</time></trkpt><trkpt lat="42.2074943" lon="13.261087"><ele>960.6</ele><time>2026-05-02T14:09:05.118Z</time></trkpt><trkpt lat="42.2074187" lon="13.2609166"><ele>965.0</ele><time>2026-05-02T14:09:06.118Z</time></trkpt><trkpt lat="42.2073345" lon="13.2607306"><ele>957.6666666666667</ele><time>2026-05-02T14:09:07.119Z</time></trkpt><trkpt lat="42.2072417" lon="13.2605281"><ele>950.3333333333333</ele><time>2026-05-02T14:09:08.119Z</time></trkpt><trkpt lat="42.2071668" lon="13.2603415"><ele>943.0</ele><time>2026-05-02T14:09:09.119Z</time></trkpt><trkpt lat="42.2071042" lon="13.2601618"><ele>943.0</ele><time>2026-05-02T14:09:10.118Z</time></trkpt><trkpt lat="42.2070504" lon="13.2599799"><ele>943.0</ele><time>2026-05-02T14:09:11.119Z</time></trkpt><trkpt lat="42.2070021" lon="13.2598147"><ele>943.0</ele><time>2026-05-02T14:09:12.118Z</time></trkpt><trkpt lat="42.2069575" lon="13.2596754"><ele>943.0</ele><time>2026-05-02T14:09:13.118Z</time></trkpt><trkpt lat="42.2069283" lon="13.2595448"><ele>945.0</ele><time>2026-05-02T14:09:14.12Z</time></trkpt><trkpt lat="42.2069335" lon="13.2594218"><ele>947.0</ele><time>2026-05-02T14:09:15.119Z</time></trkpt><trkpt lat="42.2069712" lon="13.2592828"><ele>949.0</ele><time>2026-05-02T14:09:16.118Z</time></trkpt><trkpt lat="42.2070222" lon="13.2591302"><ele>951.0</ele><time>2026-05-02T14:09:17.119Z</time></trkpt><trkpt lat="42.2070923" lon="13.2589573"><ele>951.0</ele><time>2026-05-02T14:09:18.12Z</time></trkpt><trkpt lat="42.2071711" lon="13.2587705"><ele>951.0</ele><time>2026-05-02T14:09:19.119Z</time></trkpt><trkpt lat="42.2072231" lon="13.2585796"><ele>951.0</ele><time>2026-05-02T14:09:20.119Z</time></trkpt><trkpt lat="42.2072629" lon="13.2583515"><ele>951.0</ele><time>2026-05-02T14:09:21.118Z</time></trkpt><trkpt lat="42.2072904" lon="13.2581266"><ele>951.0</ele><time>2026-05-02T14:09:22.118Z</time></trkpt><trkpt lat="42.2072997" lon="13.2579378"><ele>951.0</ele><time>2026-05-02T14:09:23.119Z</time></trkpt><trkpt lat="42.2072802" lon="13.2577793"><ele>951.0</ele><time>2026-05-02T14:09:24.118Z</time></trkpt><trkpt lat="42.2072323" lon="13.2576274"><ele>956.0</ele><time>2026-05-02T14:09:25.119Z</time></trkpt><trkpt lat="42.2071454" lon="13.2574792"><ele>961.0</ele><time>2026-05-02T14:09:26.119Z</time></trkpt><trkpt lat="42.2070313" lon="13.2573235"><ele>966.0</ele><time>2026-05-02T14:09:27.119Z</time></trkpt><trkpt lat="42.2069129" lon="13.2571593"><ele>971.25</ele><time>2026-05-02T14:09:28.118Z</time></trkpt><trkpt lat="42.2068172" lon="13.2570222"><ele>976.5</ele><time>2026-05-02T14:09:29.12Z</time></trkpt><trkpt lat="42.2067311" lon="13.2568963"><ele>981.75</ele><time>2026-05-02T14:09:30.118Z</time></trkpt><trkpt lat="42.2066676" lon="13.2567657"><ele>987.0</ele><time>2026-05-02T14:09:31.118Z</time></trkpt><trkpt lat="42.2066109" lon="13.2566018"><ele>990.5</ele><time>2026-05-02T14:09:32.118Z</time></trkpt><trkpt lat="42.2065502" lon="13.2564172"><ele>994.0</ele><time>2026-05-02T14:09:33.118Z</time></trkpt><trkpt lat="42.2065084" lon="13.2562266"><ele>997.5</ele><time>2026-05-02T14:09:34.118Z</time></trkpt><trkpt lat="42.2064725" lon="13.2560299"><ele>1001.0</ele><time>2026-05-02T14:09:35.119Z</time></trkpt><trkpt lat="42.2064534" lon="13.2558545"><ele>994.5</ele><time>2026-05-02T14:09:36.118Z</time></trkpt><trkpt lat="42.2064524" lon="13.2556627"><ele>988.0</ele><time>2026-05-02T14:09:37.118Z</time></trkpt><trkpt lat="42.2064635" lon="13.2554759"><ele>981.5</ele><time>2026-05-02T14:09:38.118Z</time></trkpt><trkpt lat="42.2064757" lon="13.2553043"><ele>975.0</ele><time>2026-05-02T14:09:39.118Z</time></trkpt><trkpt lat="42.2064816" lon="13.2551059"><ele>975.0</ele><time>2026-05-02T14:09:40.119Z</time></trkpt><trkpt lat="42.2064671" lon="13.2548822"><ele>975.0</ele><time>2026-05-02T14:09:41.119Z</time></trkpt><trkpt lat="42.2064389" lon="13.2546538"><ele>975.0</ele><time>2026-05-02T14:09:42.119Z</time></trkpt><trkpt lat="42.2064187" lon="13.2544706"><ele>974.75</ele><time>2026-05-02T14:09:43.118Z</time></trkpt><trkpt lat="42.2064082" lon="13.2542974"><ele>974.5</ele><time>2026-05-02T14:09:44.118Z</time></trkpt><trkpt lat="42.206412" lon="13.2541184"><ele>974.25</ele><time>2026-05-02T14:09:45.119Z</time></trkpt><trkpt lat="42.2064354" lon="13.2539323"><ele>974.0</ele><time>2026-05-02T14:09:46.119Z</time></trkpt><trkpt lat="42.206471" lon="13.2537491"><ele>985.3333333333334</ele><time>2026-05-02T14:09:47.119Z</time></trkpt><trkpt lat="42.2065165" lon="13.253566"><ele>996.6666666666667</ele><time>2026-05-02T14:09:48.118Z</time></trkpt><trkpt lat="42.2065836" lon="13.2533667"><ele>1008.0</ele><time>2026-05-02T14:09:49.118Z</time></trkpt><trkpt lat="42.2066612" lon="13.2531564"><ele>1007.0</ele><time>2026-05-02T14:09:50.12Z</time></trkpt><trkpt lat="42.2067239" lon="13.2529701"><ele>1006.0</ele><time>2026-05-02T14:09:51.118Z</time></trkpt><trkpt lat="42.2067788" lon="13.2528056"><ele>1005.0</ele><time>2026-05-02T14:09:52.12Z</time></trkpt><trkpt lat="42.206817" lon="13.2526963"><ele>1004.0</ele><time>2026-05-02T14:09:53.119Z</time></trkpt><trkpt lat="42.2068628" lon="13.2526213"><ele>1003.0</ele><time>2026-05-02T14:09:55.119Z</time></trkpt><trkpt lat="42.2069092" lon="13.2527102"><ele>1003.0</ele><time>2026-05-02T14:10:01.119Z</time></trkpt><trkpt lat="42.2068732" lon="13.2528695"><ele>1003.0</ele><time>2026-05-02T14:10:03.118Z</time></trkpt><trkpt lat="42.206862" lon="13.2529739"><ele>1003.0</ele><time>2026-05-02T14:10:04.118Z</time></trkpt><trkpt lat="42.2068496" lon="13.2531029"><ele>1003.0</ele><time>2026-05-02T14:10:05.118Z</time></trkpt><trkpt lat="42.206841" lon="13.2532302"><ele>1003.0</ele><time>2026-05-02T14:10:06.119Z</time></trkpt><trkpt lat="42.2068384" lon="13.2533417"><ele>1003.8333333333333</ele><time>2026-05-02T14:10:07.118Z</time></trkpt><trkpt lat="42.206844" lon="13.2534602"><ele>1004.6666666666666</ele><time>2026-05-02T14:10:08.118Z</time></trkpt><trkpt lat="42.2068526" lon="13.2535754"><ele>1005.5</ele><time>2026-05-02T14:10:09.118Z</time></trkpt><trkpt lat="42.2068609" lon="13.2536915"><ele>1006.3333333333333</ele><time>2026-05-02T14:10:10.12Z</time></trkpt><trkpt lat="42.2068698" lon="13.2537898"><ele>1007.1666666666666</ele><time>2026-05-02T14:10:11.119Z</time></trkpt><trkpt lat="42.206894" lon="13.2538746"><ele>1008.0</ele><time>2026-05-02T14:10:12.119Z</time></trkpt><trkpt lat="42.2069346" lon="13.253975"><ele>1008.5999999999999</ele><time>2026-05-02T14:10:13.118Z</time></trkpt><trkpt lat="42.2069813" lon="13.2540825"><ele>1009.1999999999999</ele><time>2026-05-02T14:10:14.119Z</time></trkpt><trkpt lat="42.207023" lon="13.2541933"><ele>1009.8</ele><time>2026-05-02T14:10:15.12Z</time></trkpt><trkpt lat="42.2070531" lon="13.2543039"><ele>1010.4</ele><time>2026-05-02T14:10:16.12Z</time></trkpt><trkpt lat="42.2070719" lon="13.2544186"><ele>1011.0</ele><time>2026-05-02T14:10:17.118Z</time></trkpt><trkpt lat="42.2070923" lon="13.2545501"><ele>1011.0</ele><time>2026-05-02T14:10:18.118Z</time></trkpt><trkpt lat="42.2071285" lon="13.2546898"><ele>1011.0</ele><time>2026-05-02T14:10:19.118Z</time></trkpt><trkpt lat="42.2071755" lon="13.2548364"><ele>1011.0</ele><time>2026-05-02T14:10:20.118Z</time></trkpt><trkpt lat="42.2072225" lon="13.2550108"><ele>1011.0</ele><time>2026-05-02T14:10:21.119Z</time></trkpt><trkpt lat="42.2072591" lon="13.2551962"><ele>1009.75</ele><time>2026-05-02T14:10:22.119Z</time></trkpt><trkpt lat="42.207283" lon="13.255366"><ele>1008.5</ele><time>2026-05-02T14:10:23.118Z</time></trkpt><trkpt lat="42.2073127" lon="13.2555321"><ele>1007.25</ele><time>2026-05-02T14:10:24.118Z</time></trkpt><trkpt lat="42.2073571" lon="13.2557125"><ele>1006.0</ele><time>2026-05-02T14:10:25.118Z</time></trkpt><trkpt lat="42.2073948" lon="13.255871"><ele>1012.1999999999999</ele><time>2026-05-02T14:10:26.118Z</time></trkpt><trkpt lat="42.2074336" lon="13.2560186"><ele>1018.3999999999999</ele><time>2026-05-02T14:10:27.118Z</time></trkpt><trkpt lat="42.2074775" lon="13.2561487"><ele>1024.6</ele><time>2026-05-02T14:10:28.118Z</time></trkpt><trkpt lat="42.2075238" lon="13.2562601"><ele>1030.8</ele><time>2026-05-02T14:10:29.118Z</time></trkpt><trkpt lat="42.2075791" lon="13.2563496"><ele>1037.0</ele><time>2026-05-02T14:10:30.118Z</time></trkpt><trkpt lat="42.2076531" lon="13.2564373"><ele>1033.25</ele><time>2026-05-02T14:10:31.119Z</time></trkpt><trkpt lat="42.2077397" lon="13.2565292"><ele>1029.5</ele><time>2026-05-02T14:10:32.117Z</time></trkpt><trkpt lat="42.2078371" lon="13.2566371"><ele>1025.75</ele><time>2026-05-02T14:10:33.117Z</time></trkpt><trkpt lat="42.2079286" lon="13.2567475"><ele>1022.0</ele><time>2026-05-02T14:10:34.117Z</time></trkpt><trkpt lat="42.2080081" lon="13.25686"><ele>1022.0</ele><time>2026-05-02T14:10:35.117Z</time></trkpt><trkpt lat="42.2080929" lon="13.256983"><ele>1022.0</ele><time>2026-05-02T14:10:36.119Z</time></trkpt><trkpt lat="42.208158" lon="13.257103"><ele>1022.0</ele><time>2026-05-02T14:10:37.118Z</time></trkpt><trkpt lat="42.2082178" lon="13.2572216"><ele>1022.0</ele><time>2026-05-02T14:10:38.119Z</time></trkpt><trkpt lat="42.20828" lon="13.2573536"><ele>1028.0</ele><time>2026-05-02T14:10:39.118Z</time></trkpt><trkpt lat="42.2083242" lon="13.2574747"><ele>1034.0</ele><time>2026-05-02T14:10:40.118Z</time></trkpt><trkpt lat="42.2083621" lon="13.2576224"><ele>1040.0</ele><time>2026-05-02T14:10:41.118Z</time></trkpt><trkpt lat="42.2083922" lon="13.2577951"><ele>1046.0</ele><time>2026-05-02T14:10:42.118Z</time></trkpt><trkpt lat="42.2084097" lon="13.2579827"><ele>1044.25</ele><time>2026-05-02T14:10:43.118Z</time></trkpt><trkpt lat="42.2084219" lon="13.2581684"><ele>1042.5</ele><time>2026-05-02T14:10:44.118Z</time></trkpt><trkpt lat="42.2084394" lon="13.2583378"><ele>1040.75</ele><time>2026-05-02T14:10:45.118Z</time></trkpt><trkpt lat="42.208469" lon="13.2585107"><ele>1039.0</ele><time>2026-05-02T14:10:46.119Z</time></trkpt><trkpt lat="42.2084997" lon="13.2586618"><ele>1039.0</ele><time>2026-05-02T14:10:47.118Z</time></trkpt><trkpt lat="42.2085338" lon="13.2587914"><ele>1039.0</ele><time>2026-05-02T14:10:48.118Z</time></trkpt><trkpt lat="42.2085724" lon="13.2588939"><ele>1039.0</ele><time>2026-05-02T14:10:49.118Z</time></trkpt><trkpt lat="42.2086235" lon="13.2589638"><ele>1039.0</ele><time>2026-05-02T14:10:50.118Z</time></trkpt><trkpt lat="42.208678" lon="13.2590108"><ele>1039.0</ele><time>2026-05-02T14:10:51.119Z</time></trkpt><trkpt lat="42.2087493" lon="13.2590476"><ele>1039.0</ele><time>2026-05-02T14:10:52.118Z</time></trkpt><trkpt lat="42.2088322" lon="13.2590761"><ele>1037.6000000000001</ele><time>2026-05-02T14:10:53.118Z</time></trkpt><trkpt lat="42.2089262" lon="13.2590985"><ele>1036.2</ele><time>2026-05-02T14:10:54.117Z</time></trkpt><trkpt lat="42.2090326" lon="13.2591233"><ele>1034.8000000000002</ele><time>2026-05-02T14:10:55.118Z</time></trkpt><trkpt lat="42.2091308" lon="13.2591415"><ele>1033.4</ele><time>2026-05-02T14:10:56.119Z</time></trkpt><trkpt lat="42.2092447" lon="13.2591723"><ele>1032.0</ele><time>2026-05-02T14:10:57.118Z</time></trkpt><trkpt lat="42.2093954" lon="13.2592107"><ele>1039.0</ele><time>2026-05-02T14:10:58.117Z</time></trkpt><trkpt lat="42.209528" lon="13.2592437"><ele>1046.0</ele><time>2026-05-02T14:10:59.117Z</time></trkpt><trkpt lat="42.2096534" lon="13.2592826"><ele>1053.0</ele><time>2026-05-02T14:11:00.117Z</time></trkpt><trkpt lat="42.2097635" lon="13.2593217"><ele>1060.0</ele><time>2026-05-02T14:11:01.117Z</time></trkpt><trkpt lat="42.2098658" lon="13.2593642"><ele>1066.25</ele><time>2026-05-02T14:11:02.117Z</time></trkpt><trkpt lat="42.2099659" lon="13.2594166"><ele>1072.5</ele><time>2026-05-02T14:11:03.117Z</time></trkpt><trkpt lat="42.2100697" lon="13.2594842"><ele>1078.75</ele><time>2026-05-02T14:11:04.117Z</time></trkpt><trkpt lat="42.2101789" lon="13.2595669"><ele>1085.0</ele><time>2026-05-02T14:11:05.117Z</time></trkpt><trkpt lat="42.21027" lon="13.2596434"><ele>1085.0</ele><time>2026-05-02T14:11:06.117Z</time></trkpt><trkpt lat="42.2103583" lon="13.2597376"><ele>1085.0</ele><time>2026-05-02T14:11:07.117Z</time></trkpt><trkpt lat="42.2104487" lon="13.259847"><ele>1085.0</ele><time>2026-05-02T14:11:08.117Z</time></trkpt><trkpt lat="42.2105311" lon="13.2599525"><ele>1085.0</ele><time>2026-05-02T14:11:09.118Z</time></trkpt><trkpt lat="42.2106039" lon="13.2600635"><ele>1086.6</ele><time>2026-05-02T14:11:10.118Z</time></trkpt><trkpt lat="42.210664" lon="13.260187"><ele>1088.2</ele><time>2026-05-02T14:11:11.118Z</time></trkpt><trkpt lat="42.2107313" lon="13.2603172"><ele>1089.8</ele><time>2026-05-02T14:11:12.118Z</time></trkpt><trkpt lat="42.2107961" lon="13.2604245"><ele>1091.4</ele><time>2026-05-02T14:11:13.118Z</time></trkpt><trkpt lat="42.2108754" lon="13.2605383"><ele>1093.0</ele><time>2026-05-02T14:11:14.117Z</time></trkpt><trkpt lat="42.2109666" lon="13.2606383"><ele>1087.8</ele><time>2026-05-02T14:11:15.118Z</time></trkpt><trkpt lat="42.2110584" lon="13.2607285"><ele>1082.6</ele><time>2026-05-02T14:11:16.118Z</time></trkpt><trkpt lat="42.2111486" lon="13.2607949"><ele>1077.4</ele><time>2026-05-02T14:11:17.118Z</time></trkpt><trkpt lat="42.2112478" lon="13.2608556"><ele>1072.2</ele><time>2026-05-02T14:11:18.117Z</time></trkpt><trkpt lat="42.2113402" lon="13.2609002"><ele>1067.0</ele><time>2026-05-02T14:11:19.117Z</time></trkpt><trkpt lat="42.2114507" lon="13.2609397"><ele>1073.8</ele><time>2026-05-02T14:11:20.118Z</time></trkpt><trkpt lat="42.2115547" lon="13.2609621"><ele>1080.6</ele><time>2026-05-02T14:11:21.117Z</time></trkpt><trkpt lat="42.211644" lon="13.2609915"><ele>1087.3999999999999</ele><time>2026-05-02T14:11:22.118Z</time></trkpt><trkpt lat="42.2117306" lon="13.2610384"><ele>1094.2</ele><time>2026-05-02T14:11:23.117Z</time></trkpt><trkpt lat="42.2118166" lon="13.2611079"><ele>1101.0</ele><time>2026-05-02T14:11:24.118Z</time></trkpt><trkpt lat="42.2118997" lon="13.2611826"><ele>1101.0</ele><time>2026-05-02T14:11:25.117Z</time></trkpt><trkpt lat="42.2119716" lon="13.2612296"><ele>1101.0</ele><time>2026-05-02T14:11:26.117Z</time></trkpt><trkpt lat="42.2120521" lon="13.2612558"><ele>1101.0</ele><time>2026-05-02T14:11:27.117Z</time></trkpt><trkpt lat="42.2121458" lon="13.2612647"><ele>1101.0</ele><time>2026-05-02T14:11:28.118Z</time></trkpt><trkpt lat="42.2122537" lon="13.2612576"><ele>1101.0</ele><time>2026-05-02T14:11:29.117Z</time></trkpt><trkpt lat="42.2123709" lon="13.2612362"><ele>1100.6666666666667</ele><time>2026-05-02T14:11:30.118Z</time></trkpt><trkpt lat="42.2124579" lon="13.2612322"><ele>1100.3333333333333</ele><time>2026-05-02T14:11:31.117Z</time></trkpt><trkpt lat="42.212526" lon="13.2612493"><ele>1100.0</ele><time>2026-05-02T14:11:32.117Z</time></trkpt><trkpt lat="42.2125894" lon="13.2612932"><ele>1099.6666666666665</ele><time>2026-05-02T14:11:33.117Z</time></trkpt><trkpt lat="42.2126388" lon="13.2613717"><ele>1099.3333333333333</ele><time>2026-05-02T14:11:34.119Z</time></trkpt><trkpt lat="42.2126878" lon="13.2614554"><ele>1099.0</ele><time>2026-05-02T14:11:35.118Z</time></trkpt><trkpt lat="42.2127577" lon="13.2616233"><ele>1099.0</ele><time>2026-05-02T14:11:36.117Z</time></trkpt><trkpt lat="42.2128198" lon="13.261742"><ele>1099.0</ele><time>2026-05-02T14:11:37.117Z</time></trkpt><trkpt lat="42.2129005" lon="13.2618412"><ele>1099.0</ele><time>2026-05-02T14:11:38.117Z</time></trkpt><trkpt lat="42.2129803" lon="13.2619479"><ele>1099.0</ele><time>2026-05-02T14:11:39.119Z</time></trkpt><trkpt lat="42.2130576" lon="13.2620449"><ele>1099.0</ele><time>2026-05-02T14:11:40.118Z</time></trkpt><trkpt lat="42.21313" lon="13.2621532"><ele>1101.0</ele><time>2026-05-02T14:11:41.117Z</time></trkpt><trkpt lat="42.2132118" lon="13.2622548"><ele>1103.0</ele><time>2026-05-02T14:11:42.117Z</time></trkpt><trkpt lat="42.2133063" lon="13.2623756"><ele>1105.0</ele><time>2026-05-02T14:11:43.118Z</time></trkpt><trkpt lat="42.2133926" lon="13.2624846"><ele>1107.0</ele><time>2026-05-02T14:11:44.118Z</time></trkpt><trkpt lat="42.2135032" lon="13.2625862"><ele>1107.0</ele><time>2026-05-02T14:11:45.117Z</time></trkpt><trkpt lat="42.2136111" lon="13.2626968"><ele>1107.0</ele><time>2026-05-02T14:11:46.118Z</time></trkpt><trkpt lat="42.2136958" lon="13.2627788"><ele>1107.0</ele><time>2026-05-02T14:11:47.118Z</time></trkpt><trkpt lat="42.2137937" lon="13.2628697"><ele>1107.0</ele><time>2026-05-02T14:11:48.117Z</time></trkpt><trkpt lat="42.21388" lon="13.2629316"><ele>1107.0</ele><time>2026-05-02T14:11:49.117Z</time></trkpt><trkpt lat="42.2139738" lon="13.2629722"><ele>1107.0</ele><time>2026-05-02T14:11:50.117Z</time></trkpt><trkpt lat="42.2140805" lon="13.2630279"><ele>1107.0</ele><time>2026-05-02T14:11:51.118Z</time></trkpt><trkpt lat="42.2141824" lon="13.2630469"><ele>1107.0</ele><time>2026-05-02T14:11:52.117Z</time></trkpt><trkpt lat="42.2142945" lon="13.2630878"><ele>1107.0</ele><time>2026-05-02T14:11:53.117Z</time></trkpt><trkpt lat="42.2143712" lon="13.263078"><ele>1108.0</ele><time>2026-05-02T14:11:54.118Z</time></trkpt><trkpt lat="42.2144681" lon="13.2630792"><ele>1109.0</ele><time>2026-05-02T14:11:55.118Z</time></trkpt><trkpt lat="42.2145729" lon="13.2630672"><ele>1110.0</ele><time>2026-05-02T14:11:56.117Z</time></trkpt><trkpt lat="42.2147104" lon="13.2630671"><ele>1111.0</ele><time>2026-05-02T14:11:57.118Z</time></trkpt><trkpt lat="42.2147915" lon="13.263034"><ele>1112.0</ele><time>2026-05-02T14:11:58.118Z</time></trkpt><trkpt lat="42.2149199" lon="13.263049"><ele>1110.0</ele><time>2026-05-02T14:11:59.117Z</time></trkpt><trkpt lat="42.2150234" lon="13.2630739"><ele>1108.0</ele><time>2026-05-02T14:12:00.117Z</time></trkpt><trkpt lat="42.2151249" lon="13.2631125"><ele>1106.0</ele><time>2026-05-02T14:12:01.117Z</time></trkpt><trkpt lat="42.2152186" lon="13.2631635"><ele>1104.0</ele><time>2026-05-02T14:12:02.119Z</time></trkpt><trkpt lat="42.2153008" lon="13.2632327"><ele>1102.0</ele><time>2026-05-02T14:12:03.119Z</time></trkpt><trkpt lat="42.2153763" lon="13.2633134"><ele>1101.2</ele><time>2026-05-02T14:12:04.118Z</time></trkpt><trkpt lat="42.2154562" lon="13.2633885"><ele>1100.4</ele><time>2026-05-02T14:12:05.117Z</time></trkpt><trkpt lat="42.2155152" lon="13.2634683"><ele>1099.6</ele><time>2026-05-02T14:12:06.117Z</time></trkpt><trkpt lat="42.2156242" lon="13.26359"><ele>1098.8</ele><time>2026-05-02T14:12:08.117Z</time></trkpt><trkpt lat="42.2155885" lon="13.2636651"><ele>1098.0</ele><time>2026-05-02T14:12:10.118Z</time></trkpt><trkpt lat="42.2155584" lon="13.2637455"><ele>1098.0</ele><time>2026-05-02T14:12:26.117Z</time></trkpt><trkpt lat="42.2154657" lon="13.2638154"><ele>1098.0</ele><time>2026-05-02T14:12:28.118Z</time></trkpt><trkpt lat="42.2154115" lon="13.2638836"><ele>1098.0</ele><time>2026-05-02T14:12:30.118Z</time></trkpt><trkpt lat="42.2153955" lon="13.2639946"><ele>1098.0</ele><time>2026-05-02T14:12:32.117Z</time></trkpt><trkpt lat="42.2154299" lon="13.2641064"><ele>1098.0</ele><time>2026-05-02T14:12:34.118Z</time></trkpt><trkpt lat="42.2155034" lon="13.2641281"><ele>1098.0</ele><time>2026-05-02T14:12:35.117Z</time></trkpt><trkpt lat="42.2155653" lon="13.264174"><ele>1098.0</ele><time>2026-05-02T14:12:36.118Z</time></trkpt><trkpt lat="42.2156469" lon="13.264239"><ele>1098.0</ele><time>2026-05-02T14:12:37.118Z</time></trkpt><trkpt lat="42.2157553" lon="13.2642644"><ele>1098.0</ele><time>2026-05-02T14:12:38.117Z</time></trkpt><trkpt lat="42.2158481" lon="13.2642627"><ele>1098.0</ele><time>2026-05-02T14:12:39.117Z</time></trkpt><trkpt lat="42.2159277" lon="13.2642582"><ele>1098.0</ele><time>2026-05-02T14:12:40.118Z</time></trkpt><trkpt lat="42.2159975" lon="13.2642761"><ele>1098.0</ele><time>2026-05-02T14:12:41.117Z</time></trkpt><trkpt lat="42.2160503" lon="13.2643259"><ele>1100.5</ele><time>2026-05-02T14:12:42.118Z</time></trkpt><trkpt lat="42.2160913" lon="13.2643984"><ele>1103.0</ele><time>2026-05-02T14:12:43.117Z</time></trkpt><trkpt lat="42.2161367" lon="13.2644888"><ele>1105.5</ele><time>2026-05-02T14:12:44.119Z</time></trkpt><trkpt lat="42.2161546" lon="13.2645842"><ele>1108.0</ele><time>2026-05-02T14:12:45.117Z</time></trkpt><trkpt lat="42.2161708" lon="13.2646985"><ele>1110.5</ele><time>2026-05-02T14:12:46.117Z</time></trkpt><trkpt lat="42.2161638" lon="13.2647965"><ele>1113.0</ele><time>2026-05-02T14:12:47.117Z</time></trkpt><trkpt lat="42.2161443" lon="13.2649132"><ele>1114.5</ele><time>2026-05-02T14:12:48.117Z</time></trkpt><trkpt lat="42.216125" lon="13.2650042"><ele>1116.0</ele><time>2026-05-02T14:12:49.119Z</time></trkpt><trkpt lat="42.2161316" lon="13.2650978"><ele>1117.5</ele><time>2026-05-02T14:12:50.117Z</time></trkpt><trkpt lat="42.2161351" lon="13.2651853"><ele>1119.0</ele><time>2026-05-02T14:12:51.118Z</time></trkpt><trkpt lat="42.2161651" lon="13.265278"><ele>1120.5</ele><time>2026-05-02T14:12:52.118Z</time></trkpt><trkpt lat="42.2162101" lon="13.2653445"><ele>1122.0</ele><time>2026-05-02T14:12:53.118Z</time></trkpt><trkpt lat="42.2162864" lon="13.2654528"><ele>1122.0</ele><time>2026-05-02T14:12:54.118Z</time></trkpt><trkpt lat="42.2163975" lon="13.2655392"><ele>1122.0</ele><time>2026-05-02T14:12:55.117Z</time></trkpt><trkpt lat="42.2164675" lon="13.2656408"><ele>1122.0</ele><time>2026-05-02T14:12:56.118Z</time></trkpt><trkpt lat="42.216521" lon="13.2657216"><ele>1122.0</ele><time>2026-05-02T14:12:57.117Z</time></trkpt><trkpt lat="42.2166051" lon="13.2657721"><ele>1122.0</ele><time>2026-05-02T14:12:58.117Z</time></trkpt><trkpt lat="42.2166986" lon="13.2658333"><ele>1121.5</ele><time>2026-05-02T14:12:59.117Z</time></trkpt><trkpt lat="42.2167918" lon="13.2658921"><ele>1121.0</ele><time>2026-05-02T14:13:00.118Z</time></trkpt><trkpt lat="42.2169055" lon="13.2659403"><ele>1120.5</ele><time>2026-05-02T14:13:01.118Z</time></trkpt><trkpt lat="42.2170132" lon="13.265979"><ele>1120.0</ele><time>2026-05-02T14:13:02.117Z</time></trkpt><trkpt lat="42.2171505" lon="13.2659998"><ele>1120.0</ele><time>2026-05-02T14:13:03.117Z</time></trkpt><trkpt lat="42.2172663" lon="13.2660343"><ele>1120.0</ele><time>2026-05-02T14:13:04.118Z</time></trkpt><trkpt lat="42.2173693" lon="13.2660386"><ele>1120.0</ele><time>2026-05-02T14:13:05.117Z</time></trkpt><trkpt lat="42.2174634" lon="13.2660249"><ele>1120.0</ele><time>2026-05-02T14:13:06.118Z</time></trkpt><trkpt lat="42.2175567" lon="13.2660164"><ele>1120.0</ele><time>2026-05-02T14:13:07.118Z</time></trkpt><trkpt lat="42.2176306" lon="13.266035"><ele>1118.3333333333333</ele><time>2026-05-02T14:13:08.117Z</time></trkpt><trkpt lat="42.217708" lon="13.2660834"><ele>1116.6666666666665</ele><time>2026-05-02T14:13:09.118Z</time></trkpt><trkpt lat="42.217784" lon="13.2661297"><ele>1115.0</ele><time>2026-05-02T14:13:10.118Z</time></trkpt><trkpt lat="42.2178586" lon="13.266216"><ele>1113.3333333333333</ele><time>2026-05-02T14:13:11.117Z</time></trkpt><trkpt lat="42.2179396" lon="13.2662576"><ele>1111.6666666666667</ele><time>2026-05-02T14:13:12.117Z</time></trkpt><trkpt lat="42.2180114" lon="13.2662589"><ele>1110.0</ele><time>2026-05-02T14:13:13.117Z</time></trkpt><trkpt lat="42.2180627" lon="13.2661343"><ele>1110.0</ele><time>2026-05-02T14:13:14.118Z</time></trkpt><trkpt lat="42.2181043" lon="13.2660598"><ele>1110.0</ele><time>2026-05-02T14:13:15.117Z</time></trkpt><trkpt lat="42.2181468" lon="13.2659791"><ele>1110.0</ele><time>2026-05-02T14:13:16.117Z</time></trkpt><trkpt lat="42.218252" lon="13.2658935"><ele>1110.0</ele><time>2026-05-02T14:13:18.119Z</time></trkpt><trkpt lat="42.2183333" lon="13.2658852"><ele>1110.0</ele><time>2026-05-02T14:13:19.117Z</time></trkpt><trkpt lat="42.2184336" lon="13.2658943"><ele>1110.0</ele><time>2026-05-02T14:13:20.118Z</time></trkpt><trkpt lat="42.2185362" lon="13.2658863"><ele>1110.75</ele><time>2026-05-02T14:13:21.118Z</time></trkpt><trkpt lat="42.2186412" lon="13.265873"><ele>1111.5</ele><time>2026-05-02T14:13:22.118Z</time></trkpt><trkpt lat="42.2187518" lon="13.2657701"><ele>1112.25</ele><time>2026-05-02T14:13:23.119Z</time></trkpt><trkpt lat="42.2188694" lon="13.2657111"><ele>1113.0</ele><time>2026-05-02T14:13:24.117Z</time></trkpt><trkpt lat="42.2189931" lon="13.2656704"><ele>1113.6</ele><time>2026-05-02T14:13:25.118Z</time></trkpt><trkpt lat="42.2190834" lon="13.2656271"><ele>1114.1999999999998</ele><time>2026-05-02T14:13:26.117Z</time></trkpt><trkpt lat="42.2191643" lon="13.2655664"><ele>1114.8</ele><time>2026-05-02T14:13:27.118Z</time></trkpt><trkpt lat="42.219238" lon="13.2654805"><ele>1115.3999999999999</ele><time>2026-05-02T14:13:28.117Z</time></trkpt><trkpt lat="42.2193236" lon="13.2653896"><ele>1116.0</ele><time>2026-05-02T14:13:29.118Z</time></trkpt><trkpt lat="42.2194267" lon="13.2652955"><ele>1116.0</ele><time>2026-05-02T14:13:30.119Z</time></trkpt><trkpt lat="42.2195402" lon="13.2652064"><ele>1116.0</ele><time>2026-05-02T14:13:31.117Z</time></trkpt><trkpt lat="42.2196308" lon="13.2651124"><ele>1116.0</ele><time>2026-05-02T14:13:32.118Z</time></trkpt><trkpt lat="42.219724" lon="13.2650215"><ele>1116.0</ele><time>2026-05-02T14:13:33.118Z</time></trkpt><trkpt lat="42.2197899" lon="13.2649161"><ele>1117.1666666666667</ele><time>2026-05-02T14:13:34.117Z</time></trkpt><trkpt lat="42.2198377" lon="13.2647665"><ele>1118.3333333333333</ele><time>2026-05-02T14:13:35.117Z</time></trkpt><trkpt lat="42.2198981" lon="13.264679"><ele>1119.5</ele><time>2026-05-02T14:13:36.118Z</time></trkpt><trkpt lat="42.2199472" lon="13.2646004"><ele>1120.6666666666665</ele><time>2026-05-02T14:13:37.117Z</time></trkpt><trkpt lat="42.2200216" lon="13.2645368"><ele>1121.8333333333333</ele><time>2026-05-02T14:13:38.117Z</time></trkpt><trkpt lat="42.2200863" lon="13.2644986"><ele>1123.0</ele><time>2026-05-02T14:13:39.117Z</time></trkpt><trkpt lat="42.2201957" lon="13.2644989"><ele>1123.0</ele><time>2026-05-02T14:13:41.117Z</time></trkpt><trkpt lat="42.2202421" lon="13.2645906"><ele>1123.0</ele><time>2026-05-02T14:13:42.117Z</time></trkpt><trkpt lat="42.2202921" lon="13.2646794"><ele>1123.0</ele><time>2026-05-02T14:13:43.117Z</time></trkpt><trkpt lat="42.2203495" lon="13.2647428"><ele>1123.0</ele><time>2026-05-02T14:13:44.117Z</time></trkpt><trkpt lat="42.2204106" lon="13.2647867"><ele>1123.0</ele><time>2026-05-02T14:13:45.117Z</time></trkpt><trkpt lat="42.2205188" lon="13.2647833"><ele>1123.0</ele><time>2026-05-02T14:13:46.118Z</time></trkpt><trkpt lat="42.2206323" lon="13.2647773"><ele>1124.2</ele><time>2026-05-02T14:13:47.118Z</time></trkpt><trkpt lat="42.2207558" lon="13.2648233"><ele>1125.4</ele><time>2026-05-02T14:13:48.118Z</time></trkpt><trkpt lat="42.2208662" lon="13.264815"><ele>1126.6000000000001</ele><time>2026-05-02T14:13:49.117Z</time></trkpt><trkpt lat="42.2209724" lon="13.2648378"><ele>1127.8</ele><time>2026-05-02T14:13:50.118Z</time></trkpt><trkpt lat="42.2210728" lon="13.2648696"><ele>1129.0</ele><time>2026-05-02T14:13:51.117Z</time></trkpt><trkpt lat="42.2211586" lon="13.2649418"><ele>1129.0</ele><time>2026-05-02T14:13:52.118Z</time></trkpt><trkpt lat="42.2212539" lon="13.2650415"><ele>1129.0</ele><time>2026-05-02T14:13:53.117Z</time></trkpt><trkpt lat="42.2213277" lon="13.2651163"><ele>1129.0</ele><time>2026-05-02T14:13:54.118Z</time></trkpt><trkpt lat="42.2213847" lon="13.2651705"><ele>1129.0</ele><time>2026-05-02T14:13:55.117Z</time></trkpt><trkpt lat="42.2214795" lon="13.265196"><ele>1129.0</ele><time>2026-05-02T14:13:57.118Z</time></trkpt><trkpt lat="42.2215844" lon="13.2650886"><ele>1127.75</ele><time>2026-05-02T14:13:59.117Z</time></trkpt><trkpt lat="42.2216665" lon="13.264998"><ele>1126.5</ele><time>2026-05-02T14:14:00.117Z</time></trkpt><trkpt lat="42.2217711" lon="13.2648883"><ele>1125.25</ele><time>2026-05-02T14:14:01.117Z</time></trkpt><trkpt lat="42.2218609" lon="13.264783"><ele>1124.0</ele><time>2026-05-02T14:14:02.118Z</time></trkpt><trkpt lat="42.2219329" lon="13.2646919"><ele>1124.6000000000001</ele><time>2026-05-02T14:14:03.118Z</time></trkpt><trkpt lat="42.2220087" lon="13.2646111"><ele>1125.2</ele><time>2026-05-02T14:14:04.117Z</time></trkpt><trkpt lat="42.2220789" lon="13.2645572"><ele>1125.8000000000002</ele><time>2026-05-02T14:14:05.117Z</time></trkpt><trkpt lat="42.2221645" lon="13.2644945"><ele>1126.4</ele><time>2026-05-02T14:14:06.118Z</time></trkpt><trkpt lat="42.2222675" lon="13.264443"><ele>1127.0</ele><time>2026-05-02T14:14:07.119Z</time></trkpt><trkpt lat="42.2223599" lon="13.2643455"><ele>1127.0</ele><time>2026-05-02T14:14:08.117Z</time></trkpt><trkpt lat="42.2224579" lon="13.2642627"><ele>1127.0</ele><time>2026-05-02T14:14:09.118Z</time></trkpt><trkpt lat="42.2225303" lon="13.2641696"><ele>1127.0</ele><time>2026-05-02T14:14:10.118Z</time></trkpt><trkpt lat="42.2226158" lon="13.264091"><ele>1127.0</ele><time>2026-05-02T14:14:11.118Z</time></trkpt><trkpt lat="42.2227095" lon="13.2640731"><ele>1127.0</ele><time>2026-05-02T14:14:12.117Z</time></trkpt><trkpt lat="42.2228263" lon="13.2639918"><ele>1127.0</ele><time>2026-05-02T14:14:13.118Z</time></trkpt><trkpt lat="42.2229466" lon="13.2638984"><ele>1127.0</ele><time>2026-05-02T14:14:14.117Z</time></trkpt><trkpt lat="42.2230748" lon="13.2638138"><ele>1127.0</ele><time>2026-05-02T14:14:15.118Z</time></trkpt><trkpt lat="42.2231856" lon="13.2637305"><ele>1127.0</ele><time>2026-05-02T14:14:16.118Z</time></trkpt><trkpt lat="42.2232829" lon="13.2636466"><ele>1127.0</ele><time>2026-05-02T14:14:17.117Z</time></trkpt><trkpt lat="42.2233653" lon="13.2635629"><ele>1127.0</ele><time>2026-05-02T14:14:18.117Z</time></trkpt><trkpt lat="42.2234392" lon="13.2634864"><ele>1127.0</ele><time>2026-05-02T14:14:19.117Z</time></trkpt><trkpt lat="42.2234991" lon="13.2634118"><ele>1127.0</ele><time>2026-05-02T14:14:20.117Z</time></trkpt><trkpt lat="42.2235664" lon="13.263398"><ele>1127.0</ele><time>2026-05-02T14:14:21.118Z</time></trkpt><trkpt lat="42.2236264" lon="13.2633712"><ele>1127.0</ele><time>2026-05-02T14:14:22.119Z</time></trkpt><trkpt lat="42.2236918" lon="13.2633563"><ele>1127.0</ele><time>2026-05-02T14:14:23.117Z</time></trkpt><trkpt lat="42.2237877" lon="13.2633936"><ele>1127.0</ele><time>2026-05-02T14:14:24.117Z</time></trkpt><trkpt lat="42.223877" lon="13.263409"><ele>1127.0</ele><time>2026-05-02T14:14:25.118Z</time></trkpt><trkpt lat="42.223986" lon="13.2634181"><ele>1127.0</ele><time>2026-05-02T14:14:26.118Z</time></trkpt><trkpt lat="42.2241243" lon="13.263442"><ele>1127.0</ele><time>2026-05-02T14:14:27.118Z</time></trkpt><trkpt lat="42.2242357" lon="13.2634513"><ele>1129.5</ele><time>2026-05-02T14:14:28.117Z</time></trkpt><trkpt lat="42.2243461" lon="13.2634389"><ele>1132.0</ele><time>2026-05-02T14:14:29.117Z</time></trkpt><trkpt lat="42.2244614" lon="13.2634432"><ele>1134.5</ele><time>2026-05-02T14:14:30.118Z</time></trkpt><trkpt lat="42.2245793" lon="13.2634378"><ele>1137.0</ele><time>2026-05-02T14:14:31.119Z</time></trkpt><trkpt lat="42.2246838" lon="13.263461"><ele>1137.0</ele><time>2026-05-02T14:14:32.118Z</time></trkpt><trkpt lat="42.2247863" lon="13.263456"><ele>1137.0</ele><time>2026-05-02T14:14:33.117Z</time></trkpt><trkpt lat="42.2249094" lon="13.2633957"><ele>1137.0</ele><time>2026-05-02T14:14:34.117Z</time></trkpt><trkpt lat="42.2250304" lon="13.2633588"><ele>1137.0</ele><time>2026-05-02T14:14:35.118Z</time></trkpt><trkpt lat="42.2251303" lon="13.2633322"><ele>1138.6</ele><time>2026-05-02T14:14:36.117Z</time></trkpt><trkpt lat="42.2252178" lon="13.2633434"><ele>1140.2</ele><time>2026-05-02T14:14:37.117Z</time></trkpt><trkpt lat="42.2253273" lon="13.2633413"><ele>1141.8</ele><time>2026-05-02T14:14:38.117Z</time></trkpt><trkpt lat="42.225428" lon="13.2633319"><ele>1143.4</ele><time>2026-05-02T14:14:39.117Z</time></trkpt><trkpt lat="42.2255223" lon="13.2633052"><ele>1145.0</ele><time>2026-05-02T14:14:40.117Z</time></trkpt><trkpt lat="42.2256274" lon="13.2632542"><ele>1146.4</ele><time>2026-05-02T14:14:41.118Z</time></trkpt><trkpt lat="42.2257393" lon="13.263199"><ele>1147.8</ele><time>2026-05-02T14:14:42.118Z</time></trkpt><trkpt lat="42.2258431" lon="13.2631793"><ele>1149.2</ele><time>2026-05-02T14:14:43.118Z</time></trkpt><trkpt lat="42.2259463" lon="13.2631581"><ele>1150.6</ele><time>2026-05-02T14:14:44.117Z</time></trkpt><trkpt lat="42.2260509" lon="13.2631508"><ele>1152.0</ele><time>2026-05-02T14:14:45.118Z</time></trkpt><trkpt lat="42.2261546" lon="13.2631485"><ele>1152.0</ele><time>2026-05-02T14:14:46.117Z</time></trkpt><trkpt lat="42.2262579" lon="13.2631561"><ele>1152.0</ele><time>2026-05-02T14:14:47.117Z</time></trkpt><trkpt lat="42.2263487" lon="13.2631811"><ele>1152.0</ele><time>2026-05-02T14:14:48.117Z</time></trkpt><trkpt lat="42.2264424" lon="13.2632247"><ele>1152.0</ele><time>2026-05-02T14:14:49.118Z</time></trkpt><trkpt lat="42.2265222" lon="13.2632757"><ele>1152.0</ele><time>2026-05-02T14:14:50.119Z</time></trkpt><trkpt lat="42.2265821" lon="13.2633484"><ele>1152.0</ele><time>2026-05-02T14:14:51.118Z</time></trkpt><trkpt lat="42.2266448" lon="13.2634568"><ele>1152.0</ele><time>2026-05-02T14:14:52.118Z</time></trkpt><trkpt lat="42.2267097" lon="13.2636073"><ele>1152.0</ele><time>2026-05-02T14:14:53.118Z</time></trkpt><trkpt lat="42.2267616" lon="13.2637558"><ele>1152.0</ele><time>2026-05-02T14:14:54.117Z</time></trkpt><trkpt lat="42.2268037" lon="13.2638897"><ele>1154.6</ele><time>2026-05-02T14:14:55.117Z</time></trkpt><trkpt lat="42.2268464" lon="13.2640109"><ele>1157.2</ele><time>2026-05-02T14:14:56.117Z</time></trkpt><trkpt lat="42.2268979" lon="13.2641257"><ele>1159.8</ele><time>2026-05-02T14:14:57.117Z</time></trkpt><trkpt lat="42.2269648" lon="13.2642119"><ele>1162.4</ele><time>2026-05-02T14:14:58.118Z</time></trkpt><trkpt lat="42.2270063" lon="13.264308"><ele>1165.0</ele><time>2026-05-02T14:14:59.118Z</time></trkpt><trkpt lat="42.2270488" lon="13.264401"><ele>1165.0</ele><time>2026-05-02T14:15:00.117Z</time></trkpt><trkpt lat="42.2271327" lon="13.264508"><ele>1165.0</ele><time>2026-05-02T14:15:02.118Z</time></trkpt><trkpt lat="42.2271993" lon="13.2645537"><ele>1165.0</ele><time>2026-05-02T14:15:03.117Z</time></trkpt><trkpt lat="42.227311" lon="13.2645987"><ele>1165.0</ele><time>2026-05-02T14:15:05.117Z</time></trkpt><trkpt lat="42.2274686" lon="13.2645625"><ele>1164.4</ele><time>2026-05-02T14:15:07.117Z</time></trkpt><trkpt lat="42.2275846" lon="13.2645254"><ele>1163.8</ele><time>2026-05-02T14:15:08.117Z</time></trkpt><trkpt lat="42.227704" lon="13.2644946"><ele>1163.2</ele><time>2026-05-02T14:15:09.117Z</time></trkpt><trkpt lat="42.227805" lon="13.2644822"><ele>1162.6</ele><time>2026-05-02T14:15:10.117Z</time></trkpt><trkpt lat="42.2279031" lon="13.2644507"><ele>1162.0</ele><time>2026-05-02T14:15:11.117Z</time></trkpt><trkpt lat="42.2280127" lon="13.2643924"><ele>1162.0</ele><time>2026-05-02T14:15:12.118Z</time></trkpt><trkpt lat="42.2281271" lon="13.2643375"><ele>1162.0</ele><time>2026-05-02T14:15:13.117Z</time></trkpt><trkpt lat="42.2282227" lon="13.2642868"><ele>1162.0</ele><time>2026-05-02T14:15:14.117Z</time></trkpt><trkpt lat="42.2283086" lon="13.2642299"><ele>1162.0</ele><time>2026-05-02T14:15:15.117Z</time></trkpt><trkpt lat="42.2283734" lon="13.2641565"><ele>1162.0</ele><time>2026-05-02T14:15:16.118Z</time></trkpt><trkpt lat="42.2284388" lon="13.2640514"><ele>1162.25</ele><time>2026-05-02T14:15:17.118Z</time></trkpt><trkpt lat="42.2285156" lon="13.2639344"><ele>1162.5</ele><time>2026-05-02T14:15:18.117Z</time></trkpt><trkpt lat="42.2285883" lon="13.2638484"><ele>1162.75</ele><time>2026-05-02T14:15:19.117Z</time></trkpt><trkpt lat="42.228685" lon="13.2637496"><ele>1163.0</ele><time>2026-05-02T14:15:20.117Z</time></trkpt><trkpt lat="42.2287942" lon="13.2636317"><ele>1163.0</ele><time>2026-05-02T14:15:21.117Z</time></trkpt><trkpt lat="42.2288979" lon="13.2635191"><ele>1163.0</ele><time>2026-05-02T14:15:22.118Z</time></trkpt><trkpt lat="42.2289936" lon="13.2634216"><ele>1163.0</ele><time>2026-05-02T14:15:23.118Z</time></trkpt><trkpt lat="42.2291081" lon="13.263317"><ele>1163.0</ele><time>2026-05-02T14:15:24.117Z</time></trkpt><trkpt lat="42.2292148" lon="13.2632219"><ele>1165.8333333333335</ele><time>2026-05-02T14:15:25.117Z</time></trkpt><trkpt lat="42.2292854" lon="13.2631493"><ele>1168.6666666666667</ele><time>2026-05-02T14:15:26.117Z</time></trkpt><trkpt lat="42.2293481" lon="13.2630656"><ele>1171.5</ele><time>2026-05-02T14:15:27.117Z</time></trkpt><trkpt lat="42.2293957" lon="13.2629914"><ele>1174.3333333333333</ele><time>2026-05-02T14:15:28.117Z</time></trkpt><trkpt lat="42.2294264" lon="13.2629067"><ele>1177.1666666666665</ele><time>2026-05-02T14:15:29.118Z</time></trkpt><trkpt lat="42.2294556" lon="13.2628187"><ele>1180.0</ele><time>2026-05-02T14:15:30.119Z</time></trkpt><trkpt lat="42.2294265" lon="13.2627158"><ele>1180.0</ele><time>2026-05-02T14:15:31.117Z</time></trkpt><trkpt lat="42.2294091" lon="13.2626139"><ele>1180.0</ele><time>2026-05-02T14:15:32.117Z</time></trkpt><trkpt lat="42.2293736" lon="13.2624966"><ele>1180.0</ele><time>2026-05-02T14:15:33.117Z</time></trkpt><trkpt lat="42.2293517" lon="13.262397"><ele>1180.0</ele><time>2026-05-02T14:15:34.119Z</time></trkpt><trkpt lat="42.2293626" lon="13.2622513"><ele>1180.0</ele><time>2026-05-02T14:15:36.118Z</time></trkpt><trkpt lat="42.2294188" lon="13.2621341"><ele>1179.6666666666665</ele><time>2026-05-02T14:15:38.117Z</time></trkpt><trkpt lat="42.2294955" lon="13.2620491"><ele>1179.3333333333333</ele><time>2026-05-02T14:15:40.117Z</time></trkpt><trkpt lat="42.2295444" lon="13.2619688"><ele>1179.0</ele><time>2026-05-02T14:15:42.117Z</time></trkpt><trkpt lat="42.2295779" lon="13.2618931"><ele>1178.6666666666667</ele><time>2026-05-02T14:15:44.117Z</time></trkpt><trkpt lat="42.2296348" lon="13.2617825"><ele>1178.3333333333335</ele><time>2026-05-02T14:15:46.117Z</time></trkpt><trkpt lat="42.2296619" lon="13.2616919"><ele>1178.0</ele><time>2026-05-02T14:15:47.118Z</time></trkpt><trkpt lat="42.2296948" lon="13.2615761"><ele>1178.0</ele><time>2026-05-02T14:15:49.117Z</time></trkpt><trkpt lat="42.2297072" lon="13.2614891"><ele>1178.0</ele><time>2026-05-02T14:15:51.117Z</time></trkpt><trkpt lat="42.2297015" lon="13.2613796"><ele>1178.0</ele><time>2026-05-02T14:15:53.118Z</time></trkpt><trkpt lat="42.2296808" lon="13.2612849"><ele>1178.0</ele><time>2026-05-02T14:15:54.118Z</time></trkpt><trkpt lat="42.2296652" lon="13.2611979"><ele>1178.0</ele><time>2026-05-02T14:15:55.117Z</time></trkpt><trkpt lat="42.2296606" lon="13.2610879"><ele>1178.0</ele><time>2026-05-02T14:15:56.117Z</time></trkpt><trkpt lat="42.2296858" lon="13.2609838"><ele>1178.0</ele><time>2026-05-02T14:15:57.117Z</time></trkpt><trkpt lat="42.2297207" lon="13.2609064"><ele>1181.8</ele><time>2026-05-02T14:15:58.117Z</time></trkpt><trkpt lat="42.2298262" lon="13.2607952"><ele>1185.6</ele><time>2026-05-02T14:16:00.117Z</time></trkpt><trkpt lat="42.2299" lon="13.2607902"><ele>1189.4</ele><time>2026-05-02T14:16:01.118Z</time></trkpt><trkpt lat="42.2299802" lon="13.2607938"><ele>1193.2</ele><time>2026-05-02T14:16:02.118Z</time></trkpt><trkpt lat="42.2300696" lon="13.2608124"><ele>1197.0</ele><time>2026-05-02T14:16:03.118Z</time></trkpt><trkpt lat="42.2301715" lon="13.2608467"><ele>1197.0</ele><time>2026-05-02T14:16:04.117Z</time></trkpt><trkpt lat="42.2302526" lon="13.260888"><ele>1197.0</ele><time>2026-05-02T14:16:05.118Z</time></trkpt><trkpt lat="42.2303345" lon="13.2609283"><ele>1197.0</ele><time>2026-05-02T14:16:06.117Z</time></trkpt><trkpt lat="42.2304501" lon="13.2608987"><ele>1197.0</ele><time>2026-05-02T14:16:08.118Z</time></trkpt><trkpt lat="42.2305297" lon="13.2608354"><ele>1197.0</ele><time>2026-05-02T14:16:09.117Z</time></trkpt><trkpt lat="42.2306185" lon="13.2607782"><ele>1195.6</ele><time>2026-05-02T14:16:10.118Z</time></trkpt><trkpt lat="42.2306889" lon="13.2606097"><ele>1194.2</ele><time>2026-05-02T14:16:11.117Z</time></trkpt><trkpt lat="42.2307662" lon="13.2605182"><ele>1192.8</ele><time>2026-05-02T14:16:12.117Z</time></trkpt><trkpt lat="42.230846" lon="13.2604342"><ele>1191.4</ele><time>2026-05-02T14:16:13.117Z</time></trkpt><trkpt lat="42.2309208" lon="13.2603673"><ele>1190.0</ele><time>2026-05-02T14:16:14.118Z</time></trkpt><trkpt lat="42.2310146" lon="13.2603218"><ele>1190.0</ele><time>2026-05-02T14:16:15.117Z</time></trkpt><trkpt lat="42.2311825" lon="13.2603883"><ele>1190.0</ele><time>2026-05-02T14:16:16.117Z</time></trkpt><trkpt lat="42.2312998" lon="13.2603914"><ele>1190.0</ele><time>2026-05-02T14:16:17.118Z</time></trkpt><trkpt lat="42.2314221" lon="13.2603883"><ele>1190.0</ele><time>2026-05-02T14:16:18.118Z</time></trkpt><trkpt lat="42.2315052" lon="13.2603961"><ele>1192.0</ele><time>2026-05-02T14:16:19.118Z</time></trkpt><trkpt lat="42.2315889" lon="13.2604341"><ele>1194.0</ele><time>2026-05-02T14:16:20.117Z</time></trkpt><trkpt lat="42.231683" lon="13.2604784"><ele>1196.0</ele><time>2026-05-02T14:16:21.117Z</time></trkpt><trkpt lat="42.2317834" lon="13.2605687"><ele>1198.0</ele><time>2026-05-02T14:16:22.118Z</time></trkpt><trkpt lat="42.2319266" lon="13.2606419"><ele>1199.25</ele><time>2026-05-02T14:16:23.117Z</time></trkpt><trkpt lat="42.2320432" lon="13.2607232"><ele>1200.5</ele><time>2026-05-02T14:16:24.118Z</time></trkpt><trkpt lat="42.2321476" lon="13.2607755"><ele>1201.75</ele><time>2026-05-02T14:16:25.117Z</time></trkpt><trkpt lat="42.2322502" lon="13.2608413"><ele>1203.0</ele><time>2026-05-02T14:16:26.118Z</time></trkpt><trkpt lat="42.2323597" lon="13.2609099"><ele>1203.0</ele><time>2026-05-02T14:16:27.117Z</time></trkpt><trkpt lat="42.2325196" lon="13.2610353"><ele>1203.0</ele><time>2026-05-02T14:16:28.118Z</time></trkpt><trkpt lat="42.2326368" lon="13.2611188"><ele>1203.0</ele><time>2026-05-02T14:16:29.117Z</time></trkpt><trkpt lat="42.2327377" lon="13.2612051"><ele>1203.0</ele><time>2026-05-02T14:16:30.118Z</time></trkpt><trkpt lat="42.2328438" lon="13.2612917"><ele>1203.0</ele><time>2026-05-02T14:16:31.117Z</time></trkpt><trkpt lat="42.2329459" lon="13.2613698"><ele>1203.0</ele><time>2026-05-02T14:16:32.119Z</time></trkpt><trkpt lat="42.2330204" lon="13.2614334"><ele>1203.0</ele><time>2026-05-02T14:16:33.117Z</time></trkpt><trkpt lat="42.2330788" lon="13.2615199"><ele>1203.0</ele><time>2026-05-02T14:16:34.117Z</time></trkpt><trkpt lat="42.2331471" lon="13.2616119"><ele>1203.0</ele><time>2026-05-02T14:16:35.117Z</time></trkpt><trkpt lat="42.233213" lon="13.2616961"><ele>1203.5</ele><time>2026-05-02T14:16:36.117Z</time></trkpt><trkpt lat="42.2332656" lon="13.2617765"><ele>1204.0</ele><time>2026-05-02T14:16:37.118Z</time></trkpt><trkpt lat="42.2333269" lon="13.2618107"><ele>1204.5</ele><time>2026-05-02T14:16:38.117Z</time></trkpt><trkpt lat="42.2334099" lon="13.2618564"><ele>1205.0</ele><time>2026-05-02T14:16:39.117Z</time></trkpt><trkpt lat="42.2335138" lon="13.2618926"><ele>1205.5</ele><time>2026-05-02T14:16:40.117Z</time></trkpt><trkpt lat="42.2336063" lon="13.2619442"><ele>1206.0</ele><time>2026-05-02T14:16:41.118Z</time></trkpt><trkpt lat="42.2337061" lon="13.2619938"><ele>1206.0</ele><time>2026-05-02T14:16:42.117Z</time></trkpt><trkpt lat="42.2337934" lon="13.2620667"><ele>1206.0</ele><time>2026-05-02T14:16:43.117Z</time></trkpt><trkpt lat="42.2338752" lon="13.2621129"><ele>1206.0</ele><time>2026-05-02T14:16:44.117Z</time></trkpt><trkpt lat="42.2339988" lon="13.2620958"><ele>1206.0</ele><time>2026-05-02T14:16:46.118Z</time></trkpt><trkpt lat="42.2340821" lon="13.2620599"><ele>1206.0</ele><time>2026-05-02T14:16:47.117Z</time></trkpt><trkpt lat="42.2341808" lon="13.2620095"><ele>1204.3333333333333</ele><time>2026-05-02T14:16:48.117Z</time></trkpt><trkpt lat="42.2343227" lon="13.2619589"><ele>1202.6666666666665</ele><time>2026-05-02T14:16:49.117Z</time></trkpt><trkpt lat="42.2344756" lon="13.2618858"><ele>1201.0</ele><time>2026-05-02T14:16:50.117Z</time></trkpt><trkpt lat="42.2346232" lon="13.2618107"><ele>1201.0</ele><time>2026-05-02T14:16:51.119Z</time></trkpt><trkpt lat="42.2347531" lon="13.2617439"><ele>1201.0</ele><time>2026-05-02T14:16:52.118Z</time></trkpt><trkpt lat="42.2348792" lon="13.2616782"><ele>1201.0</ele><time>2026-05-02T14:16:53.117Z</time></trkpt><trkpt lat="42.2349925" lon="13.2616186"><ele>1201.0</ele><time>2026-05-02T14:16:54.119Z</time></trkpt><trkpt lat="42.2351114" lon="13.261566"><ele>1201.6666666666665</ele><time>2026-05-02T14:16:55.117Z</time></trkpt><trkpt lat="42.2352039" lon="13.2615411"><ele>1202.3333333333333</ele><time>2026-05-02T14:16:56.117Z</time></trkpt><trkpt lat="42.2352846" lon="13.2615168"><ele>1203.0</ele><time>2026-05-02T14:16:57.117Z</time></trkpt><trkpt lat="42.2353594" lon="13.2614806"><ele>1203.6666666666667</ele><time>2026-05-02T14:16:58.117Z</time></trkpt><trkpt lat="42.2354157" lon="13.2614116"><ele>1204.3333333333335</ele><time>2026-05-02T14:16:59.118Z</time></trkpt><trkpt lat="42.2354938" lon="13.2613424"><ele>1205.0</ele><time>2026-05-02T14:17:00.117Z</time></trkpt><trkpt lat="42.2356034" lon="13.26126"><ele>1209.5</ele><time>2026-05-02T14:17:01.118Z</time></trkpt><trkpt lat="42.2357208" lon="13.2611494"><ele>1214.0</ele><time>2026-05-02T14:17:02.118Z</time></trkpt><trkpt lat="42.2358268" lon="13.2610694"><ele>1218.5</ele><time>2026-05-02T14:17:03.117Z</time></trkpt><trkpt lat="42.2359142" lon="13.261012"><ele>1223.0</ele><time>2026-05-02T14:17:04.118Z</time></trkpt><trkpt lat="42.2360093" lon="13.2609763"><ele>1223.0</ele><time>2026-05-02T14:17:05.118Z</time></trkpt><trkpt lat="42.2361301" lon="13.26094"><ele>1223.0</ele><time>2026-05-02T14:17:06.117Z</time></trkpt><trkpt lat="42.2362613" lon="13.2608957"><ele>1223.0</ele><time>2026-05-02T14:17:07.117Z</time></trkpt><trkpt lat="42.236358" lon="13.2608614"><ele>1223.0</ele><time>2026-05-02T14:17:08.117Z</time></trkpt><trkpt lat="42.2364613" lon="13.2608316"><ele>1223.8</ele><time>2026-05-02T14:17:09.118Z</time></trkpt><trkpt lat="42.236562" lon="13.2607941"><ele>1224.6</ele><time>2026-05-02T14:17:10.117Z</time></trkpt><trkpt lat="42.2366504" lon="13.2607336"><ele>1225.4</ele><time>2026-05-02T14:17:11.117Z</time></trkpt><trkpt lat="42.2367628" lon="13.2606675"><ele>1226.2</ele><time>2026-05-02T14:17:12.118Z</time></trkpt><trkpt lat="42.2368588" lon="13.2606156"><ele>1227.0</ele><time>2026-05-02T14:17:13.118Z</time></trkpt><trkpt lat="42.2369436" lon="13.2605872"><ele>1226.8</ele><time>2026-05-02T14:17:14.118Z</time></trkpt><trkpt lat="42.2370255" lon="13.2605754"><ele>1226.6</ele><time>2026-05-02T14:17:15.118Z</time></trkpt><trkpt lat="42.2371126" lon="13.2605838"><ele>1226.3999999999999</ele><time>2026-05-02T14:17:16.117Z</time></trkpt><trkpt lat="42.23721" lon="13.2606126"><ele>1226.2</ele><time>2026-05-02T14:17:17.118Z</time></trkpt><trkpt lat="42.2373065" lon="13.2606493"><ele>1226.0</ele><time>2026-05-02T14:17:18.118Z</time></trkpt><trkpt lat="42.2373967" lon="13.2606633"><ele>1226.0</ele><time>2026-05-02T14:17:19.117Z</time></trkpt><trkpt lat="42.2374893" lon="13.2606491"><ele>1226.0</ele><time>2026-05-02T14:17:20.117Z</time></trkpt><trkpt lat="42.2376071" lon="13.2606281"><ele>1226.0</ele><time>2026-05-02T14:17:21.118Z</time></trkpt><trkpt lat="42.2377162" lon="13.2606153"><ele>1226.0</ele><time>2026-05-02T14:17:22.117Z</time></trkpt><trkpt lat="42.2378175" lon="13.2605969"><ele>1226.0</ele><time>2026-05-02T14:17:23.117Z</time></trkpt><trkpt lat="42.2379322" lon="13.26055"><ele>1225.0</ele><time>2026-05-02T14:17:24.118Z</time></trkpt><trkpt lat="42.2380465" lon="13.2604976"><ele>1224.0</ele><time>2026-05-02T14:17:25.117Z</time></trkpt><trkpt lat="42.2381384" lon="13.2604768"><ele>1223.0</ele><time>2026-05-02T14:17:26.117Z</time></trkpt><trkpt lat="42.2382508" lon="13.2604616"><ele>1222.0</ele><time>2026-05-02T14:17:27.117Z</time></trkpt><trkpt lat="42.2383447" lon="13.2604486"><ele>1221.0</ele><time>2026-05-02T14:17:28.118Z</time></trkpt><trkpt lat="42.238431" lon="13.2604204"><ele>1221.0</ele><time>2026-05-02T14:17:29.117Z</time></trkpt><trkpt lat="42.2385122" lon="13.260375"><ele>1221.0</ele><time>2026-05-02T14:17:30.117Z</time></trkpt><trkpt lat="42.2385918" lon="13.2603066"><ele>1221.0</ele><time>2026-05-02T14:17:31.118Z</time></trkpt><trkpt lat="42.2386622" lon="13.2602316"><ele>1221.0</ele><time>2026-05-02T14:17:32.117Z</time></trkpt><trkpt lat="42.2387328" lon="13.2601805"><ele>1221.0</ele><time>2026-05-02T14:17:33.118Z</time></trkpt><trkpt lat="42.2388084" lon="13.2601607"><ele>1221.0</ele><time>2026-05-02T14:17:34.118Z</time></trkpt><trkpt lat="42.2388809" lon="13.2601599"><ele>1221.0</ele><time>2026-05-02T14:17:35.117Z</time></trkpt><trkpt lat="42.2389432" lon="13.2601811"><ele>1221.0</ele><time>2026-05-02T14:17:36.119Z</time></trkpt><trkpt lat="42.2390118" lon="13.2602184"><ele>1221.0</ele><time>2026-05-02T14:17:37.118Z</time></trkpt><trkpt lat="42.2391013" lon="13.2603394"><ele>1221.0</ele><time>2026-05-02T14:17:38.117Z</time></trkpt><trkpt lat="42.239191" lon="13.2604276"><ele>1221.0</ele><time>2026-05-02T14:17:39.118Z</time></trkpt><trkpt lat="42.2392908" lon="13.2605216"><ele>1220.0</ele><time>2026-05-02T14:17:40.117Z</time></trkpt><trkpt lat="42.2393893" lon="13.260582"><ele>1219.0</ele><time>2026-05-02T14:17:41.117Z</time></trkpt><trkpt lat="42.2394911" lon="13.2606424"><ele>1218.0</ele><time>2026-05-02T14:17:42.118Z</time></trkpt><trkpt lat="42.239585" lon="13.2606917"><ele>1217.0</ele><time>2026-05-02T14:17:43.118Z</time></trkpt><trkpt lat="42.2396821" lon="13.2607328"><ele>1216.0</ele><time>2026-05-02T14:17:44.118Z</time></trkpt><trkpt lat="42.2397822" lon="13.2607671"><ele>1219.25</ele><time>2026-05-02T14:17:45.118Z</time></trkpt><trkpt lat="42.2398753" lon="13.260788"><ele>1222.5</ele><time>2026-05-02T14:17:46.117Z</time></trkpt><trkpt lat="42.2399833" lon="13.2607628"><ele>1225.75</ele><time>2026-05-02T14:17:47.118Z</time></trkpt><trkpt lat="42.2401115" lon="13.2607223"><ele>1229.0</ele><time>2026-05-02T14:17:48.118Z</time></trkpt><trkpt lat="42.2402522" lon="13.2606739"><ele>1229.0</ele><time>2026-05-02T14:17:49.117Z</time></trkpt><trkpt lat="42.2403963" lon="13.2606248"><ele>1229.0</ele><time>2026-05-02T14:17:50.118Z</time></trkpt><trkpt lat="42.240517" lon="13.2605815"><ele>1229.0</ele><time>2026-05-02T14:17:51.118Z</time></trkpt><trkpt lat="42.2406381" lon="13.2605405"><ele>1229.0</ele><time>2026-05-02T14:17:52.118Z</time></trkpt><trkpt lat="42.2407236" lon="13.2605345"><ele>1227.0</ele><time>2026-05-02T14:17:53.118Z</time></trkpt><trkpt lat="42.2408035" lon="13.2605047"><ele>1225.0</ele><time>2026-05-02T14:17:54.118Z</time></trkpt><trkpt lat="42.2408779" lon="13.2604722"><ele>1223.0</ele><time>2026-05-02T14:17:55.118Z</time></trkpt><trkpt lat="42.2409677" lon="13.2604306"><ele>1221.0</ele><time>2026-05-02T14:17:56.117Z</time></trkpt><trkpt lat="42.24107" lon="13.2603845"><ele>1219.0</ele><time>2026-05-02T14:17:57.118Z</time></trkpt><trkpt lat="42.2411494" lon="13.2603277"><ele>1219.0</ele><time>2026-05-02T14:17:58.118Z</time></trkpt><trkpt lat="42.2412233" lon="13.2602551"><ele>1219.0</ele><time>2026-05-02T14:17:59.117Z</time></trkpt><trkpt lat="42.2413008" lon="13.2601773"><ele>1219.0</ele><time>2026-05-02T14:18:00.119Z</time></trkpt><trkpt lat="42.2413447" lon="13.2601085"><ele>1219.0</ele><time>2026-05-02T14:18:01.117Z</time></trkpt><trkpt lat="42.2413968" lon="13.2600435"><ele>1219.0</ele><time>2026-05-02T14:18:02.117Z</time></trkpt><trkpt lat="42.2414708" lon="13.2600244"><ele>1219.0</ele><time>2026-05-02T14:18:03.119Z</time></trkpt><trkpt lat="42.2415527" lon="13.2600113"><ele>1221.8</ele><time>2026-05-02T14:18:04.117Z</time></trkpt><trkpt lat="42.2416505" lon="13.2600237"><ele>1224.6000000000001</ele><time>2026-05-02T14:18:05.118Z</time></trkpt><trkpt lat="42.2417452" lon="13.2600287"><ele>1227.4</ele><time>2026-05-02T14:18:06.117Z</time></trkpt><trkpt lat="42.2418391" lon="13.260033"><ele>1230.2</ele><time>2026-05-02T14:18:07.117Z</time></trkpt><trkpt lat="42.2419744" lon="13.2599596"><ele>1233.0</ele><time>2026-05-02T14:18:09.118Z</time></trkpt><trkpt lat="42.2420576" lon="13.2599075"><ele>1233.0</ele><time>2026-05-02T14:18:10.118Z</time></trkpt><trkpt lat="42.2421437" lon="13.2598572"><ele>1233.0</ele><time>2026-05-02T14:18:11.117Z</time></trkpt><trkpt lat="42.2422455" lon="13.2598021"><ele>1233.0</ele><time>2026-05-02T14:18:12.117Z</time></trkpt><trkpt lat="42.2423398" lon="13.2597921"><ele>1233.0</ele><time>2026-05-02T14:18:13.117Z</time></trkpt><trkpt lat="42.2424298" lon="13.259741"><ele>1233.0</ele><time>2026-05-02T14:18:14.117Z</time></trkpt><trkpt lat="42.2425098" lon="13.2596999"><ele>1231.8</ele><time>2026-05-02T14:18:15.117Z</time></trkpt><trkpt lat="42.2425971" lon="13.2596799"><ele>1230.6</ele><time>2026-05-02T14:18:16.117Z</time></trkpt><trkpt lat="42.2426998" lon="13.2596646"><ele>1229.4</ele><time>2026-05-02T14:18:17.117Z</time></trkpt><trkpt lat="42.2428191" lon="13.2596442"><ele>1228.2</ele><time>2026-05-02T14:18:18.117Z</time></trkpt><trkpt lat="42.2429165" lon="13.2596274"><ele>1227.0</ele><time>2026-05-02T14:18:19.117Z</time></trkpt><trkpt lat="42.2430119" lon="13.2595908"><ele>1227.0</ele><time>2026-05-02T14:18:20.118Z</time></trkpt><trkpt lat="42.2431043" lon="13.2595512"><ele>1227.0</ele><time>2026-05-02T14:18:21.118Z</time></trkpt><trkpt lat="42.243184" lon="13.2594609"><ele>1227.0</ele><time>2026-05-02T14:18:22.118Z</time></trkpt><trkpt lat="42.2432784" lon="13.2593843"><ele>1227.0</ele><time>2026-05-02T14:18:23.118Z</time></trkpt><trkpt lat="42.243366" lon="13.2593159"><ele>1227.0</ele><time>2026-05-02T14:18:24.117Z</time></trkpt><trkpt lat="42.2434379" lon="13.2592554"><ele>1228.8</ele><time>2026-05-02T14:18:25.117Z</time></trkpt><trkpt lat="42.2435064" lon="13.2591819"><ele>1230.6</ele><time>2026-05-02T14:18:26.117Z</time></trkpt><trkpt lat="42.2435979" lon="13.2591369"><ele>1232.3999999999999</ele><time>2026-05-02T14:18:27.118Z</time></trkpt><trkpt lat="42.2436998" lon="13.2590789"><ele>1234.2</ele><time>2026-05-02T14:18:28.118Z</time></trkpt><trkpt lat="42.2438088" lon="13.2590145"><ele>1236.0</ele><time>2026-05-02T14:18:29.117Z</time></trkpt><trkpt lat="42.2438878" lon="13.2589424"><ele>1236.0</ele><time>2026-05-02T14:18:30.117Z</time></trkpt><trkpt lat="42.2439599" lon="13.2588794"><ele>1236.0</ele><time>2026-05-02T14:18:31.117Z</time></trkpt><trkpt lat="42.2440174" lon="13.2587609"><ele>1236.0</ele><time>2026-05-02T14:18:32.117Z</time></trkpt><trkpt lat="42.2440727" lon="13.2586902"><ele>1236.0</ele><time>2026-05-02T14:18:33.117Z</time></trkpt><trkpt lat="42.2441359" lon="13.2586231"><ele>1236.0</ele><time>2026-05-02T14:18:34.118Z</time></trkpt><trkpt lat="42.2442196" lon="13.2585616"><ele>1236.0</ele><time>2026-05-02T14:18:35.117Z</time></trkpt><trkpt lat="42.2442975" lon="13.2585342"><ele>1239.0</ele><time>2026-05-02T14:18:36.117Z</time></trkpt><trkpt lat="42.2443993" lon="13.258533"><ele>1242.0</ele><time>2026-05-02T14:18:37.117Z</time></trkpt><trkpt lat="42.2444935" lon="13.258524"><ele>1245.0</ele><time>2026-05-02T14:18:38.118Z</time></trkpt><trkpt lat="42.2445791" lon="13.2585371"><ele>1248.0</ele><time>2026-05-02T14:18:39.117Z</time></trkpt><trkpt lat="42.2446535" lon="13.2585978"><ele>1251.0</ele><time>2026-05-02T14:18:40.117Z</time></trkpt><trkpt lat="42.2447513" lon="13.2586529"><ele>1250.3999999999999</ele><time>2026-05-02T14:18:41.117Z</time></trkpt><trkpt lat="42.2448375" lon="13.2587111"><ele>1249.8</ele><time>2026-05-02T14:18:42.119Z</time></trkpt><trkpt lat="42.2449223" lon="13.2587818"><ele>1249.1999999999998</ele><time>2026-05-02T14:18:43.117Z</time></trkpt><trkpt lat="42.2450025" lon="13.2588665"><ele>1248.6</ele><time>2026-05-02T14:18:44.118Z</time></trkpt><trkpt lat="42.2450933" lon="13.258954"><ele>1248.0</ele><time>2026-05-02T14:18:45.117Z</time></trkpt><trkpt lat="42.2451768" lon="13.2590267"><ele>1249.75</ele><time>2026-05-02T14:18:46.119Z</time></trkpt><trkpt lat="42.2452657" lon="13.2590931"><ele>1251.5</ele><time>2026-05-02T14:18:47.117Z</time></trkpt><trkpt lat="42.245374" lon="13.2591499"><ele>1253.25</ele><time>2026-05-02T14:18:48.119Z</time></trkpt><trkpt lat="42.245498" lon="13.2592128"><ele>1255.0</ele><time>2026-05-02T14:18:49.119Z</time></trkpt><trkpt lat="42.2456263" lon="13.2592647"><ele>1254.75</ele><time>2026-05-02T14:18:50.118Z</time></trkpt><trkpt lat="42.245746" lon="13.2593061"><ele>1254.5</ele><time>2026-05-02T14:18:51.119Z</time></trkpt><trkpt lat="42.2458579" lon="13.2593383"><ele>1254.25</ele><time>2026-05-02T14:18:52.118Z</time></trkpt><trkpt lat="42.2459727" lon="13.2593785"><ele>1254.0</ele><time>2026-05-02T14:18:53.117Z</time></trkpt><trkpt lat="42.2460676" lon="13.259417"><ele>1254.0</ele><time>2026-05-02T14:18:54.117Z</time></trkpt><trkpt lat="42.246141" lon="13.2594603"><ele>1254.0</ele><time>2026-05-02T14:18:55.118Z</time></trkpt><trkpt lat="42.2462116" lon="13.2595401"><ele>1254.0</ele><time>2026-05-02T14:18:57.118Z</time></trkpt><trkpt lat="42.2462468" lon="13.2596432"><ele>1254.0</ele><time>2026-05-02T14:19:05.117Z</time></trkpt><trkpt lat="42.2462656" lon="13.2597695"><ele>1254.0</ele><time>2026-05-02T14:19:07.117Z</time></trkpt><trkpt lat="42.2462513" lon="13.2598603"><ele>1254.0</ele><time>2026-05-02T14:19:08.118Z</time></trkpt><trkpt lat="42.2462642" lon="13.2599989"><ele>1257.6000000000001</ele><time>2026-05-02T14:19:10.117Z</time></trkpt><trkpt lat="42.2463173" lon="13.2601049"><ele>1261.2</ele><time>2026-05-02T14:19:12.118Z</time></trkpt><trkpt lat="42.2464741" lon="13.2601217"><ele>1264.8000000000002</ele><time>2026-05-02T14:19:14.118Z</time></trkpt><trkpt lat="42.2465609" lon="13.2601249"><ele>1268.4</ele><time>2026-05-02T14:19:15.117Z</time></trkpt><trkpt lat="42.2466497" lon="13.2600774"><ele>1272.0</ele><time>2026-05-02T14:19:16.118Z</time></trkpt><trkpt lat="42.2467402" lon="13.2600191"><ele>1271.0</ele><time>2026-05-02T14:19:17.117Z</time></trkpt><trkpt lat="42.2468138" lon="13.2599435"><ele>1270.0</ele><time>2026-05-02T14:19:18.117Z</time></trkpt><trkpt lat="42.2468659" lon="13.2598577"><ele>1269.0</ele><time>2026-05-02T14:19:19.118Z</time></trkpt><trkpt lat="42.246913" lon="13.2597753"><ele>1268.0</ele><time>2026-05-02T14:19:20.117Z</time></trkpt><trkpt lat="42.2470116" lon="13.2597065"><ele>1267.0</ele><time>2026-05-02T14:19:22.117Z</time></trkpt><trkpt lat="42.2470934" lon="13.2597752"><ele>1269.2</ele><time>2026-05-02T14:19:24.118Z</time></trkpt><trkpt lat="42.2470968" lon="13.2599347"><ele>1271.4</ele><time>2026-05-02T14:19:26.118Z</time></trkpt><trkpt lat="42.2470805" lon="13.2600426"><ele>1273.6</ele><time>2026-05-02T14:19:27.118Z</time></trkpt><trkpt lat="42.2470663" lon="13.2601493"><ele>1275.8</ele><time>2026-05-02T14:19:28.117Z</time></trkpt><trkpt lat="42.2470871" lon="13.2602869"><ele>1278.0</ele><time>2026-05-02T14:19:30.117Z</time></trkpt><trkpt lat="42.2471648" lon="13.2603404"><ele>1278.0</ele><time>2026-05-02T14:19:32.117Z</time></trkpt><trkpt lat="42.2472346" lon="13.2602507"><ele>1278.0</ele><time>2026-05-02T14:19:34.117Z</time></trkpt><trkpt lat="42.2472663" lon="13.260163"><ele>1278.0</ele><time>2026-05-02T14:19:35.117Z</time></trkpt><trkpt lat="42.2473051" lon="13.2600434"><ele>1278.0</ele><time>2026-05-02T14:19:36.117Z</time></trkpt><trkpt lat="42.2473325" lon="13.2599257"><ele>1278.0</ele><time>2026-05-02T14:19:37.118Z</time></trkpt><trkpt lat="42.2473582" lon="13.2597918"><ele>1279.3333333333333</ele><time>2026-05-02T14:19:38.118Z</time></trkpt><trkpt lat="42.2473992" lon="13.2596632"><ele>1280.6666666666667</ele><time>2026-05-02T14:19:39.117Z</time></trkpt><trkpt lat="42.2474438" lon="13.2595643"><ele>1282.0</ele><time>2026-05-02T14:19:40.117Z</time></trkpt><trkpt lat="42.2474954" lon="13.2594809"><ele>1283.3333333333335</ele><time>2026-05-02T14:19:41.117Z</time></trkpt><trkpt lat="42.2475666" lon="13.2594172"><ele>1284.6666666666667</ele><time>2026-05-02T14:19:42.117Z</time></trkpt><trkpt lat="42.2476419" lon="13.2593562"><ele>1286.0</ele><time>2026-05-02T14:19:43.117Z</time></trkpt><trkpt lat="42.2476926" lon="13.2592853"><ele>1286.0</ele><time>2026-05-02T14:19:44.118Z</time></trkpt><trkpt lat="42.2477213" lon="13.2591971"><ele>1286.0</ele><time>2026-05-02T14:19:45.117Z</time></trkpt><trkpt lat="42.2477569" lon="13.2591178"><ele>1286.0</ele><time>2026-05-02T14:19:46.117Z</time></trkpt><trkpt lat="42.2478086" lon="13.2590436"><ele>1286.0</ele><time>2026-05-02T14:19:47.118Z</time></trkpt><trkpt lat="42.2478671" lon="13.2589982"><ele>1286.0</ele><time>2026-05-02T14:19:48.118Z</time></trkpt><trkpt lat="42.2479471" lon="13.2589423"><ele>1286.0</ele><time>2026-05-02T14:19:49.118Z</time></trkpt><trkpt lat="42.2480066" lon="13.2588689"><ele>1283.6</ele><time>2026-05-02T14:19:50.118Z</time></trkpt><trkpt lat="42.2480558" lon="13.2587766"><ele>1281.1999999999998</ele><time>2026-05-02T14:19:51.117Z</time></trkpt><trkpt lat="42.2481007" lon="13.2586625"><ele>1278.8000000000002</ele><time>2026-05-02T14:19:52.118Z</time></trkpt><trkpt lat="42.2481449" lon="13.2585308"><ele>1276.4</ele><time>2026-05-02T14:19:53.118Z</time></trkpt><trkpt lat="42.2481853" lon="13.2584165"><ele>1274.0</ele><time>2026-05-02T14:19:54.117Z</time></trkpt><trkpt lat="42.2482271" lon="13.2583052"><ele>1276.0</ele><time>2026-05-02T14:19:55.118Z</time></trkpt><trkpt lat="42.2482793" lon="13.258199"><ele>1278.0</ele><time>2026-05-02T14:19:56.118Z</time></trkpt><trkpt lat="42.2483394" lon="13.2580881"><ele>1280.0</ele><time>2026-05-02T14:19:57.117Z</time></trkpt><trkpt lat="42.2484015" lon="13.2579855"><ele>1282.0</ele><time>2026-05-02T14:19:58.117Z</time></trkpt><trkpt lat="42.2484554" lon="13.257885"><ele>1284.0</ele><time>2026-05-02T14:19:59.117Z</time></trkpt><trkpt lat="42.2484936" lon="13.2577624"><ele>1284.0</ele><time>2026-05-02T14:20:00.117Z</time></trkpt><trkpt lat="42.2485455" lon="13.2576086"><ele>1284.0</ele><time>2026-05-02T14:20:01.118Z</time></trkpt><trkpt lat="42.2486062" lon="13.2574536"><ele>1284.0</ele><time>2026-05-02T14:20:02.118Z</time></trkpt><trkpt lat="42.2486705" lon="13.2573334"><ele>1284.0</ele><time>2026-05-02T14:20:03.118Z</time></trkpt><trkpt lat="42.2487336" lon="13.257215"><ele>1285.75</ele><time>2026-05-02T14:20:04.117Z</time></trkpt><trkpt lat="42.2488096" lon="13.2571526"><ele>1287.5</ele><time>2026-05-02T14:20:05.117Z</time></trkpt><trkpt lat="42.2488877" lon="13.2570684"><ele>1289.25</ele><time>2026-05-02T14:20:06.118Z</time></trkpt><trkpt lat="42.248989" lon="13.2570178"><ele>1291.0</ele><time>2026-05-02T14:20:07.118Z</time></trkpt><trkpt lat="42.2491313" lon="13.2569394"><ele>1291.0</ele><time>2026-05-02T14:20:08.117Z</time></trkpt><trkpt lat="42.2492364" lon="13.2568968"><ele>1291.0</ele><time>2026-05-02T14:20:09.118Z</time></trkpt><trkpt lat="42.2493373" lon="13.2568636"><ele>1291.0</ele><time>2026-05-02T14:20:10.118Z</time></trkpt><trkpt lat="42.249439" lon="13.2568438"><ele>1291.0</ele><time>2026-05-02T14:20:11.118Z</time></trkpt><trkpt lat="42.2495485" lon="13.2568452"><ele>1291.0</ele><time>2026-05-02T14:20:12.117Z</time></trkpt><trkpt lat="42.2496374" lon="13.256845"><ele>1291.0</ele><time>2026-05-02T14:20:13.117Z</time></trkpt><trkpt lat="42.2497252" lon="13.2568398"><ele>1291.0</ele><time>2026-05-02T14:20:14.118Z</time></trkpt><trkpt lat="42.2498085" lon="13.2568392"><ele>1291.0</ele><time>2026-05-02T14:20:15.117Z</time></trkpt><trkpt lat="42.2498927" lon="13.2568149"><ele>1291.0</ele><time>2026-05-02T14:20:16.119Z</time></trkpt><trkpt lat="42.2499827" lon="13.25676"><ele>1291.0</ele><time>2026-05-02T14:20:17.117Z</time></trkpt><trkpt lat="42.2500871" lon="13.2567067"><ele>1291.6</ele><time>2026-05-02T14:20:18.118Z</time></trkpt><trkpt lat="42.2501983" lon="13.2566344"><ele>1292.1999999999998</ele><time>2026-05-02T14:20:19.118Z</time></trkpt><trkpt lat="42.2502995" lon="13.2565534"><ele>1292.8000000000002</ele><time>2026-05-02T14:20:20.118Z</time></trkpt><trkpt lat="42.2503872" lon="13.2564871"><ele>1293.4</ele><time>2026-05-02T14:20:21.117Z</time></trkpt><trkpt lat="42.2504624" lon="13.2564384"><ele>1294.0</ele><time>2026-05-02T14:20:22.117Z</time></trkpt><trkpt lat="42.2505384" lon="13.2564032"><ele>1290.6000000000001</ele><time>2026-05-02T14:20:23.117Z</time></trkpt><trkpt lat="42.2506208" lon="13.2563925"><ele>1287.2</ele><time>2026-05-02T14:20:24.118Z</time></trkpt><trkpt lat="42.2507372" lon="13.2563788"><ele>1283.8000000000002</ele><time>2026-05-02T14:20:25.117Z</time></trkpt><trkpt lat="42.2508515" lon="13.2563706"><ele>1280.4</ele><time>2026-05-02T14:20:26.119Z</time></trkpt><trkpt lat="42.2509685" lon="13.2563652"><ele>1277.0</ele><time>2026-05-02T14:20:27.117Z</time></trkpt><trkpt lat="42.2510802" lon="13.2563769"><ele>1277.0</ele><time>2026-05-02T14:20:28.117Z</time></trkpt><trkpt lat="42.2511741" lon="13.2564017"><ele>1277.0</ele><time>2026-05-02T14:20:29.117Z</time></trkpt><trkpt lat="42.2512739" lon="13.2564492"><ele>1277.0</ele><time>2026-05-02T14:20:30.119Z</time></trkpt><trkpt lat="42.2513987" lon="13.2565127"><ele>1277.0</ele><time>2026-05-02T14:20:31.118Z</time></trkpt><trkpt lat="42.2515257" lon="13.2565766"><ele>1278.2</ele><time>2026-05-02T14:20:32.117Z</time></trkpt><trkpt lat="42.2516202" lon="13.256625"><ele>1279.4</ele><time>2026-05-02T14:20:33.118Z</time></trkpt><trkpt lat="42.251696" lon="13.2566623"><ele>1280.6000000000001</ele><time>2026-05-02T14:20:34.118Z</time></trkpt><trkpt lat="42.2518011" lon="13.2566552"><ele>1281.8000000000002</ele><time>2026-05-02T14:20:36.117Z</time></trkpt><trkpt lat="42.2519058" lon="13.2565336"><ele>1283.0</ele><time>2026-05-02T14:20:38.117Z</time></trkpt><trkpt lat="42.2519743" lon="13.2564291"><ele>1283.0</ele><time>2026-05-02T14:20:39.118Z</time></trkpt><trkpt lat="42.2520443" lon="13.25631"><ele>1283.0</ele><time>2026-05-02T14:20:40.118Z</time></trkpt><trkpt lat="42.2521004" lon="13.2561886"><ele>1283.0</ele><time>2026-05-02T14:20:41.117Z</time></trkpt><trkpt lat="42.2521676" lon="13.2560469"><ele>1283.0</ele><time>2026-05-02T14:20:42.118Z</time></trkpt><trkpt lat="42.2522679" lon="13.2558997"><ele>1284.0</ele><time>2026-05-02T14:20:43.118Z</time></trkpt><trkpt lat="42.2523453" lon="13.2557668"><ele>1285.0</ele><time>2026-05-02T14:20:44.117Z</time></trkpt><trkpt lat="42.2524154" lon="13.25565"><ele>1286.0</ele><time>2026-05-02T14:20:45.118Z</time></trkpt><trkpt lat="42.2524815" lon="13.2555514"><ele>1287.0</ele><time>2026-05-02T14:20:46.118Z</time></trkpt><trkpt lat="42.2525559" lon="13.2554583"><ele>1288.0</ele><time>2026-05-02T14:20:47.118Z</time></trkpt><trkpt lat="42.2526487" lon="13.255364"><ele>1288.0</ele><time>2026-05-02T14:20:48.118Z</time></trkpt><trkpt lat="42.252751" lon="13.2552772"><ele>1288.0</ele><time>2026-05-02T14:20:49.118Z</time></trkpt><trkpt lat="42.252852" lon="13.2551986"><ele>1288.0</ele><time>2026-05-02T14:20:50.118Z</time></trkpt><trkpt lat="42.2529355" lon="13.2551455"><ele>1288.0</ele><time>2026-05-02T14:20:51.117Z</time></trkpt><trkpt lat="42.2530199" lon="13.2551122"><ele>1288.0</ele><time>2026-05-02T14:20:52.118Z</time></trkpt><trkpt lat="42.2531296" lon="13.2550831"><ele>1289.2</ele><time>2026-05-02T14:20:53.117Z</time></trkpt><trkpt lat="42.2532307" lon="13.2550463"><ele>1290.4</ele><time>2026-05-02T14:20:54.117Z</time></trkpt><trkpt lat="42.2533311" lon="13.2550027"><ele>1291.6000000000001</ele><time>2026-05-02T14:20:55.118Z</time></trkpt><trkpt lat="42.2534227" lon="13.2549601"><ele>1292.8000000000002</ele><time>2026-05-02T14:20:56.117Z</time></trkpt><trkpt lat="42.2535155" lon="13.2549059"><ele>1294.0</ele><time>2026-05-02T14:20:57.119Z</time></trkpt><trkpt lat="42.2536091" lon="13.2548426"><ele>1292.0</ele><time>2026-05-02T14:20:58.118Z</time></trkpt><trkpt lat="42.253701" lon="13.2547807"><ele>1290.0</ele><time>2026-05-02T14:20:59.117Z</time></trkpt><trkpt lat="42.2538055" lon="13.2547216"><ele>1288.0</ele><time>2026-05-02T14:21:00.118Z</time></trkpt><trkpt lat="42.2539035" lon="13.2546637"><ele>1286.0</ele><time>2026-05-02T14:21:01.118Z</time></trkpt><trkpt lat="42.254005" lon="13.2546015"><ele>1284.0</ele><time>2026-05-02T14:21:02.118Z</time></trkpt><trkpt lat="42.2541029" lon="13.2545376"><ele>1284.0</ele><time>2026-05-02T14:21:03.117Z</time></trkpt><trkpt lat="42.2542087" lon="13.2544878"><ele>1284.0</ele><time>2026-05-02T14:21:04.119Z</time></trkpt><trkpt lat="42.2543208" lon="13.2544224"><ele>1284.0</ele><time>2026-05-02T14:21:05.118Z</time></trkpt><trkpt lat="42.2544342" lon="13.2543542"><ele>1284.0</ele><time>2026-05-02T14:21:06.117Z</time></trkpt><trkpt lat="42.2545476" lon="13.2542815"><ele>1284.0</ele><time>2026-05-02T14:21:07.117Z</time></trkpt><trkpt lat="42.2546487" lon="13.254215"><ele>1284.0</ele><time>2026-05-02T14:21:08.118Z</time></trkpt><trkpt lat="42.2547433" lon="13.2541539"><ele>1284.0</ele><time>2026-05-02T14:21:09.117Z</time></trkpt><trkpt lat="42.2548388" lon="13.2540967"><ele>1284.0</ele><time>2026-05-02T14:21:10.117Z</time></trkpt><trkpt lat="42.2549464" lon="13.2540458"><ele>1284.0</ele><time>2026-05-02T14:21:11.118Z</time></trkpt><trkpt lat="42.2550629" lon="13.2539978"><ele>1281.75</ele><time>2026-05-02T14:21:12.117Z</time></trkpt><trkpt lat="42.2551743" lon="13.2539517"><ele>1279.5</ele><time>2026-05-02T14:21:13.117Z</time></trkpt><trkpt lat="42.2552812" lon="13.2539045"><ele>1277.25</ele><time>2026-05-02T14:21:14.117Z</time></trkpt><trkpt lat="42.2553875" lon="13.2538489"><ele>1275.0</ele><time>2026-05-02T14:21:15.117Z</time></trkpt><trkpt lat="42.2554852" lon="13.2537642"><ele>1275.0</ele><time>2026-05-02T14:21:16.119Z</time></trkpt><trkpt lat="42.2555801" lon="13.253696"><ele>1275.0</ele><time>2026-05-02T14:21:17.118Z</time></trkpt><trkpt lat="42.2556597" lon="13.2536286"><ele>1275.0</ele><time>2026-05-02T14:21:18.118Z</time></trkpt><trkpt lat="42.2557281" lon="13.2535557"><ele>1275.0</ele><time>2026-05-02T14:21:19.118Z</time></trkpt><trkpt lat="42.2557739" lon="13.2534654"><ele>1275.0</ele><time>2026-05-02T14:21:20.117Z</time></trkpt><trkpt lat="42.2558098" lon="13.2533525"><ele>1277.4</ele><time>2026-05-02T14:21:21.118Z</time></trkpt><trkpt lat="42.2558273" lon="13.2532014"><ele>1279.8</ele><time>2026-05-02T14:21:22.118Z</time></trkpt><trkpt lat="42.2558345" lon="13.2530601"><ele>1282.1999999999998</ele><time>2026-05-02T14:21:23.117Z</time></trkpt><trkpt lat="42.2558352" lon="13.2529376"><ele>1284.6</ele><time>2026-05-02T14:21:24.118Z</time></trkpt><trkpt lat="42.255845" lon="13.2527995"><ele>1287.0</ele><time>2026-05-02T14:21:25.118Z</time></trkpt><trkpt lat="42.2558656" lon="13.2526579"><ele>1287.0</ele><time>2026-05-02T14:21:26.117Z</time></trkpt><trkpt lat="42.2559115" lon="13.2524838"><ele>1287.0</ele><time>2026-05-02T14:21:27.117Z</time></trkpt><trkpt lat="42.2559506" lon="13.2523556"><ele>1287.0</ele><time>2026-05-02T14:21:28.117Z</time></trkpt><trkpt lat="42.255996" lon="13.2522533"><ele>1287.0</ele><time>2026-05-02T14:21:29.118Z</time></trkpt><trkpt lat="42.2560575" lon="13.252172"><ele>1287.0</ele><time>2026-05-02T14:21:30.118Z</time></trkpt><trkpt lat="42.2561353" lon="13.252097"><ele>1286.1999999999998</ele><time>2026-05-02T14:21:31.119Z</time></trkpt><trkpt lat="42.2562283" lon="13.2520093"><ele>1285.4</ele><time>2026-05-02T14:21:32.119Z</time></trkpt><trkpt lat="42.2563069" lon="13.2519187"><ele>1284.6</ele><time>2026-05-02T14:21:33.118Z</time></trkpt><trkpt lat="42.2563784" lon="13.2518277"><ele>1283.8000000000002</ele><time>2026-05-02T14:21:34.117Z</time></trkpt><trkpt lat="42.2564476" lon="13.2517544"><ele>1283.0</ele><time>2026-05-02T14:21:35.117Z</time></trkpt><trkpt lat="42.2565163" lon="13.2517018"><ele>1285.3333333333335</ele><time>2026-05-02T14:21:36.118Z</time></trkpt><trkpt lat="42.2565933" lon="13.2516589"><ele>1287.6666666666667</ele><time>2026-05-02T14:21:37.117Z</time></trkpt><trkpt lat="42.2566825" lon="13.2516191"><ele>1290.0</ele><time>2026-05-02T14:21:38.119Z</time></trkpt><trkpt lat="42.2567698" lon="13.2515836"><ele>1292.3333333333333</ele><time>2026-05-02T14:21:39.118Z</time></trkpt><trkpt lat="42.2568617" lon="13.2515563"><ele>1294.6666666666665</ele><time>2026-05-02T14:21:40.119Z</time></trkpt><trkpt lat="42.2569424" lon="13.2515178"><ele>1297.0</ele><time>2026-05-02T14:21:41.117Z</time></trkpt><trkpt lat="42.2570256" lon="13.2514943"><ele>1297.0</ele><time>2026-05-02T14:21:42.117Z</time></trkpt><trkpt lat="42.2570895" lon="13.2514649"><ele>1297.0</ele><time>2026-05-02T14:21:43.117Z</time></trkpt><trkpt lat="42.2570791" lon="13.2515746"><ele>1297.0</ele><time>2026-05-02T14:21:44.118Z</time></trkpt><trkpt lat="42.2571493" lon="13.2517657"><ele>1297.0</ele><time>2026-05-02T14:21:46.117Z</time></trkpt><trkpt lat="42.2571698" lon="13.2519042"><ele>1297.0</ele><time>2026-05-02T14:21:47.117Z</time></trkpt><trkpt lat="42.2571986" lon="13.252026"><ele>1297.0</ele><time>2026-05-02T14:21:48.117Z</time></trkpt><trkpt lat="42.2572006" lon="13.2521391"><ele>1297.0</ele><time>2026-05-02T14:21:49.118Z</time></trkpt><trkpt lat="42.2572045" lon="13.2522663"><ele>1297.0</ele><time>2026-05-02T14:21:50.117Z</time></trkpt><trkpt lat="42.2571979" lon="13.2523854"><ele>1297.0</ele><time>2026-05-02T14:21:51.118Z</time></trkpt><trkpt lat="42.257203" lon="13.2525036"><ele>1297.0</ele><time>2026-05-02T14:21:52.117Z</time></trkpt><trkpt lat="42.2572649" lon="13.2526276"><ele>1295.8333333333333</ele><time>2026-05-02T14:21:54.118Z</time></trkpt><trkpt lat="42.2573576" lon="13.2526381"><ele>1294.6666666666665</ele><time>2026-05-02T14:21:56.117Z</time></trkpt><trkpt lat="42.257415" lon="13.252603"><ele>1293.5</ele><time>2026-05-02T14:21:57.117Z</time></trkpt><trkpt lat="42.2574924" lon="13.252554"><ele>1292.3333333333333</ele><time>2026-05-02T14:21:58.118Z</time></trkpt><trkpt lat="42.2576167" lon="13.2525362"><ele>1291.1666666666667</ele><time>2026-05-02T14:22:00.117Z</time></trkpt><trkpt lat="42.257681" lon="13.2525525"><ele>1290.0</ele><time>2026-05-02T14:22:01.118Z</time></trkpt><trkpt lat="42.2578027" lon="13.2525671"><ele>1290.0</ele><time>2026-05-02T14:22:02.118Z</time></trkpt><trkpt lat="42.2579025" lon="13.2525747"><ele>1290.0</ele><time>2026-05-02T14:22:03.117Z</time></trkpt><trkpt lat="42.2580208" lon="13.2525555"><ele>1290.0</ele><time>2026-05-02T14:22:04.118Z</time></trkpt><trkpt lat="42.2581289" lon="13.2525064"><ele>1290.0</ele><time>2026-05-02T14:22:05.117Z</time></trkpt><trkpt lat="42.2582347" lon="13.2524545"><ele>1290.0</ele><time>2026-05-02T14:22:06.117Z</time></trkpt><trkpt lat="42.2583388" lon="13.2523919"><ele>1290.0</ele><time>2026-05-02T14:22:07.117Z</time></trkpt><trkpt lat="42.2584242" lon="13.2523274"><ele>1290.0</ele><time>2026-05-02T14:22:08.118Z</time></trkpt><trkpt lat="42.2584928" lon="13.2522626"><ele>1290.0</ele><time>2026-05-02T14:22:09.117Z</time></trkpt><trkpt lat="42.2585469" lon="13.2521897"><ele>1290.0</ele><time>2026-05-02T14:22:10.118Z</time></trkpt><trkpt lat="42.2585952" lon="13.2520983"><ele>1290.0</ele><time>2026-05-02T14:22:11.117Z</time></trkpt><trkpt lat="42.2586396" lon="13.2519918"><ele>1290.0</ele><time>2026-05-02T14:22:12.117Z</time></trkpt><trkpt lat="42.2586767" lon="13.2518941"><ele>1289.4</ele><time>2026-05-02T14:22:13.119Z</time></trkpt><trkpt lat="42.258736" lon="13.2518003"><ele>1288.8</ele><time>2026-05-02T14:22:14.117Z</time></trkpt><trkpt lat="42.2588053" lon="13.2517065"><ele>1288.1999999999998</ele><time>2026-05-02T14:22:15.118Z</time></trkpt><trkpt lat="42.2588741" lon="13.2516159"><ele>1287.6</ele><time>2026-05-02T14:22:16.117Z</time></trkpt><trkpt lat="42.2589441" lon="13.2515292"><ele>1287.0</ele><time>2026-05-02T14:22:17.118Z</time></trkpt><trkpt lat="42.2590221" lon="13.2514595"><ele>1283.8333333333333</ele><time>2026-05-02T14:22:18.118Z</time></trkpt><trkpt lat="42.259101" lon="13.2514026"><ele>1280.6666666666667</ele><time>2026-05-02T14:22:19.119Z</time></trkpt><trkpt lat="42.259176" lon="13.2513565"><ele>1277.5</ele><time>2026-05-02T14:22:20.118Z</time></trkpt><trkpt lat="42.2592592" lon="13.2513261"><ele>1274.3333333333335</ele><time>2026-05-02T14:22:21.117Z</time></trkpt><trkpt lat="42.2593404" lon="13.2512899"><ele>1271.1666666666667</ele><time>2026-05-02T14:22:22.117Z</time></trkpt><trkpt lat="42.2594122" lon="13.251257"><ele>1268.0</ele><time>2026-05-02T14:22:23.118Z</time></trkpt><trkpt lat="42.2594803" lon="13.2512052"><ele>1268.0</ele><time>2026-05-02T14:22:24.118Z</time></trkpt><trkpt lat="42.2595482" lon="13.2511568"><ele>1268.0</ele><time>2026-05-02T14:22:25.118Z</time></trkpt><trkpt lat="42.2596148" lon="13.2510672"><ele>1268.0</ele><time>2026-05-02T14:22:26.118Z</time></trkpt><trkpt lat="42.2596617" lon="13.2509701"><ele>1268.0</ele><time>2026-05-02T14:22:27.118Z</time></trkpt><trkpt lat="42.2597167" lon="13.250862"><ele>1268.0</ele><time>2026-05-02T14:22:28.118Z</time></trkpt><trkpt lat="42.2597801" lon="13.2507262"><ele>1269.0</ele><time>2026-05-02T14:22:29.118Z</time></trkpt><trkpt lat="42.2598244" lon="13.2505786"><ele>1270.0</ele><time>2026-05-02T14:22:30.118Z</time></trkpt><trkpt lat="42.2598681" lon="13.2504409"><ele>1271.0</ele><time>2026-05-02T14:22:31.117Z</time></trkpt><trkpt lat="42.2598939" lon="13.2502766"><ele>1272.0</ele><time>2026-05-02T14:22:32.118Z</time></trkpt><trkpt lat="42.2599117" lon="13.2501179"><ele>1272.0</ele><time>2026-05-02T14:22:33.118Z</time></trkpt><trkpt lat="42.2599213" lon="13.249968"><ele>1272.0</ele><time>2026-05-02T14:22:34.118Z</time></trkpt><trkpt lat="42.2599381" lon="13.2498196"><ele>1272.0</ele><time>2026-05-02T14:22:35.118Z</time></trkpt><trkpt lat="42.2599644" lon="13.2496866"><ele>1272.0</ele><time>2026-05-02T14:22:36.117Z</time></trkpt><trkpt lat="42.260003" lon="13.2495351"><ele>1272.0</ele><time>2026-05-02T14:22:37.117Z</time></trkpt><trkpt lat="42.2600492" lon="13.2493782"><ele>1270.0</ele><time>2026-05-02T14:22:38.118Z</time></trkpt><trkpt lat="42.2600875" lon="13.249214"><ele>1268.0</ele><time>2026-05-02T14:22:39.117Z</time></trkpt><trkpt lat="42.2601272" lon="13.2490421"><ele>1266.0</ele><time>2026-05-02T14:22:40.119Z</time></trkpt><trkpt lat="42.2601598" lon="13.2488588"><ele>1264.0</ele><time>2026-05-02T14:22:41.118Z</time></trkpt><trkpt lat="42.2601885" lon="13.2486847"><ele>1262.75</ele><time>2026-05-02T14:22:42.118Z</time></trkpt><trkpt lat="42.2602156" lon="13.2485094"><ele>1261.5</ele><time>2026-05-02T14:22:43.118Z</time></trkpt><trkpt lat="42.2602407" lon="13.2483231"><ele>1260.25</ele><time>2026-05-02T14:22:44.118Z</time></trkpt><trkpt lat="42.2602668" lon="13.248137"><ele>1259.0</ele><time>2026-05-02T14:22:45.117Z</time></trkpt><trkpt lat="42.2602918" lon="13.2479581"><ele>1257.8</ele><time>2026-05-02T14:22:46.118Z</time></trkpt><trkpt lat="42.2603173" lon="13.2477955"><ele>1256.6000000000001</ele><time>2026-05-02T14:22:47.117Z</time></trkpt><trkpt lat="42.2603456" lon="13.2476477"><ele>1255.4</ele><time>2026-05-02T14:22:48.118Z</time></trkpt><trkpt lat="42.2603692" lon="13.2475034"><ele>1254.2</ele><time>2026-05-02T14:22:49.118Z</time></trkpt><trkpt lat="42.260391" lon="13.2473814"><ele>1253.0</ele><time>2026-05-02T14:22:50.117Z</time></trkpt><trkpt lat="42.2604363" lon="13.2472884"><ele>1253.0</ele><time>2026-05-02T14:22:51.118Z</time></trkpt><trkpt lat="42.2604922" lon="13.2471951"><ele>1253.0</ele><time>2026-05-02T14:22:52.117Z</time></trkpt><trkpt lat="42.2605701" lon="13.247086"><ele>1253.0</ele><time>2026-05-02T14:22:53.117Z</time></trkpt><trkpt lat="42.2606441" lon="13.2469782"><ele>1253.0</ele><time>2026-05-02T14:22:54.117Z</time></trkpt><trkpt lat="42.2607132" lon="13.2468628"><ele>1253.0</ele><time>2026-05-02T14:22:55.118Z</time></trkpt><trkpt lat="42.2608032" lon="13.2467219"><ele>1252.5</ele><time>2026-05-02T14:22:56.117Z</time></trkpt><trkpt lat="42.2608858" lon="13.2465312"><ele>1252.0</ele><time>2026-05-02T14:22:57.118Z</time></trkpt><trkpt lat="42.2609709" lon="13.2463847"><ele>1251.5</ele><time>2026-05-02T14:22:58.117Z</time></trkpt><trkpt lat="42.2610477" lon="13.2462208"><ele>1251.0</ele><time>2026-05-02T14:22:59.118Z</time></trkpt><trkpt lat="42.2611294" lon="13.246063"><ele>1251.0</ele><time>2026-05-02T14:23:00.118Z</time></trkpt><trkpt lat="42.2612093" lon="13.24592"><ele>1251.0</ele><time>2026-05-02T14:23:01.118Z</time></trkpt><trkpt lat="42.2612862" lon="13.2457739"><ele>1251.0</ele><time>2026-05-02T14:23:02.117Z</time></trkpt><trkpt lat="42.2613613" lon="13.2456343"><ele>1251.0</ele><time>2026-05-02T14:23:03.117Z</time></trkpt><trkpt lat="42.2614351" lon="13.2455008"><ele>1252.0</ele><time>2026-05-02T14:23:04.117Z</time></trkpt><trkpt lat="42.2615084" lon="13.2453529"><ele>1253.0</ele><time>2026-05-02T14:23:05.117Z</time></trkpt><trkpt lat="42.2615797" lon="13.2451989"><ele>1254.0</ele><time>2026-05-02T14:23:06.118Z</time></trkpt><trkpt lat="42.2616377" lon="13.2450569"><ele>1255.0</ele><time>2026-05-02T14:23:07.117Z</time></trkpt><trkpt lat="42.2616861" lon="13.2449221"><ele>1254.6</ele><time>2026-05-02T14:23:08.119Z</time></trkpt><trkpt lat="42.2617258" lon="13.2447854"><ele>1254.2</ele><time>2026-05-02T14:23:09.118Z</time></trkpt><trkpt lat="42.261751" lon="13.2446456"><ele>1253.8</ele><time>2026-05-02T14:23:10.117Z</time></trkpt><trkpt lat="42.2617617" lon="13.2445044"><ele>1253.4</ele><time>2026-05-02T14:23:11.117Z</time></trkpt><trkpt lat="42.261757" lon="13.2443633"><ele>1253.0</ele><time>2026-05-02T14:23:12.117Z</time></trkpt><trkpt lat="42.2617333" lon="13.2442118"><ele>1253.0</ele><time>2026-05-02T14:23:13.119Z</time></trkpt><trkpt lat="42.2616889" lon="13.2440586"><ele>1253.0</ele><time>2026-05-02T14:23:14.117Z</time></trkpt><trkpt lat="42.2616249" lon="13.2439197"><ele>1253.0</ele><time>2026-05-02T14:23:15.118Z</time></trkpt><trkpt lat="42.2615385" lon="13.2437928"><ele>1253.0</ele><time>2026-05-02T14:23:16.118Z</time></trkpt><trkpt lat="42.2614297" lon="13.2436692"><ele>1253.0</ele><time>2026-05-02T14:23:17.117Z</time></trkpt><trkpt lat="42.2612991" lon="13.2435479"><ele>1253.0</ele><time>2026-05-02T14:23:18.118Z</time></trkpt><trkpt lat="42.2611669" lon="13.2434273"><ele>1253.0</ele><time>2026-05-02T14:23:19.118Z</time></trkpt><trkpt lat="42.261053" lon="13.2433198"><ele>1253.0</ele><time>2026-05-02T14:23:20.118Z</time></trkpt><trkpt lat="42.260965" lon="13.2432354"><ele>1253.0</ele><time>2026-05-02T14:23:21.119Z</time></trkpt><trkpt lat="42.2609008" lon="13.243148"><ele>1253.0</ele><time>2026-05-02T14:23:22.118Z</time></trkpt><trkpt lat="42.2608489" lon="13.2430379"><ele>1253.0</ele><time>2026-05-02T14:23:23.117Z</time></trkpt><trkpt lat="42.2608203" lon="13.2429123"><ele>1253.0</ele><time>2026-05-02T14:23:24.118Z</time></trkpt><trkpt lat="42.2608099" lon="13.2427504"><ele>1253.0</ele><time>2026-05-02T14:23:25.117Z</time></trkpt><trkpt lat="42.2607993" lon="13.2425643"><ele>1253.0</ele><time>2026-05-02T14:23:26.117Z</time></trkpt><trkpt lat="42.260773" lon="13.242375"><ele>1253.0</ele><time>2026-05-02T14:23:27.117Z</time></trkpt><trkpt lat="42.260716" lon="13.2422093"><ele>1253.0</ele><time>2026-05-02T14:23:28.117Z</time></trkpt><trkpt lat="42.2606579" lon="13.2420441"><ele>1249.0</ele><time>2026-05-02T14:23:29.118Z</time></trkpt><trkpt lat="42.2606148" lon="13.2418927"><ele>1245.0</ele><time>2026-05-02T14:23:30.118Z</time></trkpt><trkpt lat="42.2605929" lon="13.2417493"><ele>1241.0</ele><time>2026-05-02T14:23:31.118Z</time></trkpt><trkpt lat="42.260586" lon="13.2415806"><ele>1237.0</ele><time>2026-05-02T14:23:32.118Z</time></trkpt><trkpt lat="42.260594" lon="13.2414147"><ele>1236.1666666666665</ele><time>2026-05-02T14:23:33.117Z</time></trkpt><trkpt lat="42.2606095" lon="13.2412733"><ele>1235.3333333333333</ele><time>2026-05-02T14:23:34.117Z</time></trkpt><trkpt lat="42.2606269" lon="13.2411543"><ele>1234.5</ele><time>2026-05-02T14:23:35.118Z</time></trkpt><trkpt lat="42.2606549" lon="13.2410553"><ele>1233.6666666666667</ele><time>2026-05-02T14:23:36.117Z</time></trkpt><trkpt lat="42.2606997" lon="13.2409781"><ele>1232.8333333333335</ele><time>2026-05-02T14:23:37.118Z</time></trkpt><trkpt lat="42.2607586" lon="13.2409181"><ele>1232.0</ele><time>2026-05-02T14:23:38.117Z</time></trkpt><trkpt lat="42.2608412" lon="13.2408593"><ele>1234.75</ele><time>2026-05-02T14:23:39.117Z</time></trkpt><trkpt lat="42.2609451" lon="13.2407849"><ele>1237.5</ele><time>2026-05-02T14:23:40.118Z</time></trkpt><trkpt lat="42.2610638" lon="13.240702"><ele>1240.25</ele><time>2026-05-02T14:23:41.118Z</time></trkpt><trkpt lat="42.2611775" lon="13.2406251"><ele>1243.0</ele><time>2026-05-02T14:23:42.118Z</time></trkpt><trkpt lat="42.2612891" lon="13.2405546"><ele>1241.6</ele><time>2026-05-02T14:23:43.117Z</time></trkpt><trkpt lat="42.2613969" lon="13.2404901"><ele>1240.1999999999998</ele><time>2026-05-02T14:23:44.117Z</time></trkpt><trkpt lat="42.2614778" lon="13.240433"><ele>1238.8</ele><time>2026-05-02T14:23:45.118Z</time></trkpt><trkpt lat="42.2615637" lon="13.2403518"><ele>1237.3999999999999</ele><time>2026-05-02T14:23:46.117Z</time></trkpt><trkpt lat="42.2616514" lon="13.2402664"><ele>1236.0</ele><time>2026-05-02T14:23:47.117Z</time></trkpt><trkpt lat="42.2617335" lon="13.2401768"><ele>1236.0</ele><time>2026-05-02T14:23:48.117Z</time></trkpt><trkpt lat="42.2618215" lon="13.2400634"><ele>1236.0</ele><time>2026-05-02T14:23:49.118Z</time></trkpt><trkpt lat="42.2619145" lon="13.2400092"><ele>1236.0</ele><time>2026-05-02T14:23:50.117Z</time></trkpt><trkpt lat="42.2620165" lon="13.2399335"><ele>1236.0</ele><time>2026-05-02T14:23:51.117Z</time></trkpt><trkpt lat="42.2621487" lon="13.2398772"><ele>1236.0</ele><time>2026-05-02T14:23:52.118Z</time></trkpt><trkpt lat="42.2622585" lon="13.2398286"><ele>1236.0</ele><time>2026-05-02T14:23:53.118Z</time></trkpt><trkpt lat="42.2623779" lon="13.2397876"><ele>1236.0</ele><time>2026-05-02T14:23:54.117Z</time></trkpt><trkpt lat="42.2625031" lon="13.2397586"><ele>1236.0</ele><time>2026-05-02T14:23:55.118Z</time></trkpt><trkpt lat="42.2626427" lon="13.2397477"><ele>1234.0</ele><time>2026-05-02T14:23:56.117Z</time></trkpt><trkpt lat="42.2627669" lon="13.2397486"><ele>1232.0</ele><time>2026-05-02T14:23:57.118Z</time></trkpt><trkpt lat="42.2628855" lon="13.2397486"><ele>1230.0</ele><time>2026-05-02T14:23:58.117Z</time></trkpt><trkpt lat="42.2629936" lon="13.2397383"><ele>1228.0</ele><time>2026-05-02T14:23:59.117Z</time></trkpt><trkpt lat="42.2630726" lon="13.2397011"><ele>1226.0</ele><time>2026-05-02T14:24:00.119Z</time></trkpt><trkpt lat="42.2631353" lon="13.2396457"><ele>1226.0</ele><time>2026-05-02T14:24:01.119Z</time></trkpt><trkpt lat="42.2631865" lon="13.2395671"><ele>1226.0</ele><time>2026-05-02T14:24:02.117Z</time></trkpt><trkpt lat="42.2632286" lon="13.2394856"><ele>1226.0</ele><time>2026-05-02T14:24:03.118Z</time></trkpt><trkpt lat="42.2632317" lon="13.2393598"><ele>1226.0</ele><time>2026-05-02T14:24:04.118Z</time></trkpt><trkpt lat="42.2632563" lon="13.2392514"><ele>1226.0</ele><time>2026-05-02T14:24:05.117Z</time></trkpt><trkpt lat="42.2632684" lon="13.239057"><ele>1223.8</ele><time>2026-05-02T14:24:06.119Z</time></trkpt><trkpt lat="42.263285" lon="13.2388949"><ele>1221.6</ele><time>2026-05-02T14:24:07.118Z</time></trkpt><trkpt lat="42.2632895" lon="13.2387487"><ele>1219.4</ele><time>2026-05-02T14:24:08.117Z</time></trkpt><trkpt lat="42.263301" lon="13.2386119"><ele>1217.2</ele><time>2026-05-02T14:24:09.117Z</time></trkpt><trkpt lat="42.2633219" lon="13.2384976"><ele>1215.0</ele><time>2026-05-02T14:24:10.118Z</time></trkpt><trkpt lat="42.2633647" lon="13.2383951"><ele>1215.0</ele><time>2026-05-02T14:24:11.118Z</time></trkpt><trkpt lat="42.2634252" lon="13.2382795"><ele>1215.0</ele><time>2026-05-02T14:24:12.119Z</time></trkpt><trkpt lat="42.2634908" lon="13.2381623"><ele>1215.0</ele><time>2026-05-02T14:24:13.118Z</time></trkpt><trkpt lat="42.2635555" lon="13.2380463"><ele>1215.0</ele><time>2026-05-02T14:24:14.117Z</time></trkpt><trkpt lat="42.2636207" lon="13.2379397"><ele>1215.0</ele><time>2026-05-02T14:24:15.117Z</time></trkpt><trkpt lat="42.263678" lon="13.2378508"><ele>1214.4</ele><time>2026-05-02T14:24:16.118Z</time></trkpt><trkpt lat="42.2637246" lon="13.2377796"><ele>1213.8</ele><time>2026-05-02T14:24:17.117Z</time></trkpt><trkpt lat="42.2638147" lon="13.2376847"><ele>1213.2</ele><time>2026-05-02T14:24:19.117Z</time></trkpt><trkpt lat="42.2639292" lon="13.2376389"><ele>1212.6</ele><time>2026-05-02T14:24:21.117Z</time></trkpt><trkpt lat="42.2639994" lon="13.2376064"><ele>1212.0</ele><time>2026-05-02T14:24:22.118Z</time></trkpt><trkpt lat="42.2640766" lon="13.2375525"><ele>1212.0</ele><time>2026-05-02T14:24:23.117Z</time></trkpt><trkpt lat="42.2641722" lon="13.2374867"><ele>1212.0</ele><time>2026-05-02T14:24:24.117Z</time></trkpt><trkpt lat="42.2642823" lon="13.237423"><ele>1212.0</ele><time>2026-05-02T14:24:25.117Z</time></trkpt><trkpt lat="42.2644023" lon="13.2373813"><ele>1212.0</ele><time>2026-05-02T14:24:26.118Z</time></trkpt><trkpt lat="42.2645024" lon="13.2373702"><ele>1212.0</ele><time>2026-05-02T14:24:27.118Z</time></trkpt><trkpt lat="42.2645832" lon="13.2373885"><ele>1212.0</ele><time>2026-05-02T14:24:28.118Z</time></trkpt><trkpt lat="42.2646586" lon="13.2374106"><ele>1212.0</ele><time>2026-05-02T14:24:29.118Z</time></trkpt><trkpt lat="42.2647464" lon="13.237495"><ele>1212.0</ele><time>2026-05-02T14:24:31.118Z</time></trkpt><trkpt lat="42.2648263" lon="13.2375954"><ele>1212.0</ele><time>2026-05-02T14:24:33.117Z</time></trkpt><trkpt lat="42.2648687" lon="13.2376682"><ele>1212.0</ele><time>2026-05-02T14:24:34.118Z</time></trkpt><trkpt lat="42.2649224" lon="13.2377446"><ele>1212.6</ele><time>2026-05-02T14:24:35.118Z</time></trkpt><trkpt lat="42.2649898" lon="13.2378073"><ele>1213.2</ele><time>2026-05-02T14:24:36.118Z</time></trkpt><trkpt lat="42.2650747" lon="13.2378807"><ele>1213.8</ele><time>2026-05-02T14:24:37.117Z</time></trkpt><trkpt lat="42.2651647" lon="13.2379694"><ele>1214.4</ele><time>2026-05-02T14:24:38.118Z</time></trkpt><trkpt lat="42.2652436" lon="13.2380725"><ele>1215.0</ele><time>2026-05-02T14:24:39.117Z</time></trkpt><trkpt lat="42.2653038" lon="13.2381947"><ele>1213.0</ele><time>2026-05-02T14:24:40.118Z</time></trkpt><trkpt lat="42.2653603" lon="13.2383355"><ele>1211.0</ele><time>2026-05-02T14:24:41.118Z</time></trkpt><trkpt lat="42.2654315" lon="13.2384939"><ele>1209.0</ele><time>2026-05-02T14:24:42.117Z</time></trkpt><trkpt lat="42.265515" lon="13.2386601"><ele>1207.0</ele><time>2026-05-02T14:24:43.117Z</time></trkpt><trkpt lat="42.2655906" lon="13.2388034"><ele>1206.0</ele><time>2026-05-02T14:24:44.117Z</time></trkpt><trkpt lat="42.2656592" lon="13.2389419"><ele>1205.0</ele><time>2026-05-02T14:24:45.118Z</time></trkpt><trkpt lat="42.265717" lon="13.2390747"><ele>1204.0</ele><time>2026-05-02T14:24:46.118Z</time></trkpt><trkpt lat="42.2657558" lon="13.239213"><ele>1203.0</ele><time>2026-05-02T14:24:47.118Z</time></trkpt><trkpt lat="42.2657925" lon="13.2393542"><ele>1203.0</ele><time>2026-05-02T14:24:48.119Z</time></trkpt><trkpt lat="42.2658364" lon="13.2394969"><ele>1203.0</ele><time>2026-05-02T14:24:49.117Z</time></trkpt><trkpt lat="42.2659018" lon="13.2396325"><ele>1203.0</ele><time>2026-05-02T14:24:50.117Z</time></trkpt><trkpt lat="42.2659971" lon="13.2397866"><ele>1203.0</ele><time>2026-05-02T14:24:51.117Z</time></trkpt><trkpt lat="42.2661059" lon="13.2399464"><ele>1201.0</ele><time>2026-05-02T14:24:52.118Z</time></trkpt><trkpt lat="42.2662242" lon="13.2401076"><ele>1199.0</ele><time>2026-05-02T14:24:53.118Z</time></trkpt><trkpt lat="42.266335" lon="13.2402499"><ele>1197.0</ele><time>2026-05-02T14:24:54.117Z</time></trkpt><trkpt lat="42.2664469" lon="13.2403745"><ele>1197.0</ele><time>2026-05-02T14:24:55.117Z</time></trkpt><trkpt lat="42.2665749" lon="13.2404863"><ele>1197.0</ele><time>2026-05-02T14:24:56.119Z</time></trkpt><trkpt lat="42.2667178" lon="13.240586"><ele>1197.0</ele><time>2026-05-02T14:24:57.117Z</time></trkpt><trkpt lat="42.2668648" lon="13.2406692"><ele>1193.0</ele><time>2026-05-02T14:24:58.117Z</time></trkpt><trkpt lat="42.2670176" lon="13.2407452"><ele>1189.0</ele><time>2026-05-02T14:24:59.117Z</time></trkpt><trkpt lat="42.2671741" lon="13.2408055"><ele>1185.0</ele><time>2026-05-02T14:25:00.117Z</time></trkpt><trkpt lat="42.2673372" lon="13.2408506"><ele>1184.75</ele><time>2026-05-02T14:25:01.118Z</time></trkpt><trkpt lat="42.2674838" lon="13.2408986"><ele>1184.5</ele><time>2026-05-02T14:25:02.119Z</time></trkpt><trkpt lat="42.2676123" lon="13.2409595"><ele>1184.25</ele><time>2026-05-02T14:25:03.117Z</time></trkpt><trkpt lat="42.2677318" lon="13.241037"><ele>1184.0</ele><time>2026-05-02T14:25:04.117Z</time></trkpt><trkpt lat="42.2678329" lon="13.2411181"><ele>1184.0</ele><time>2026-05-02T14:25:05.117Z</time></trkpt><trkpt lat="42.2679072" lon="13.2412052"><ele>1184.0</ele><time>2026-05-02T14:25:06.117Z</time></trkpt><trkpt lat="42.2679496" lon="13.2413034"><ele>1184.0</ele><time>2026-05-02T14:25:07.117Z</time></trkpt><trkpt lat="42.2679632" lon="13.2414264"><ele>1184.0</ele><time>2026-05-02T14:25:08.119Z</time></trkpt><trkpt lat="42.2679591" lon="13.2415848"><ele>1184.0</ele><time>2026-05-02T14:25:09.118Z</time></trkpt><trkpt lat="42.2679583" lon="13.2417618"><ele>1184.25</ele><time>2026-05-02T14:25:10.118Z</time></trkpt><trkpt lat="42.2679664" lon="13.2419427"><ele>1184.5</ele><time>2026-05-02T14:25:11.117Z</time></trkpt><trkpt lat="42.267987" lon="13.2421006"><ele>1184.75</ele><time>2026-05-02T14:25:12.117Z</time></trkpt><trkpt lat="42.2680164" lon="13.2422645"><ele>1185.0</ele><time>2026-05-02T14:25:13.118Z</time></trkpt><trkpt lat="42.268057" lon="13.2424394"><ele>1185.0</ele><time>2026-05-02T14:25:14.117Z</time></trkpt><trkpt lat="42.2681024" lon="13.2426001"><ele>1185.0</ele><time>2026-05-02T14:25:15.118Z</time></trkpt><trkpt lat="42.2681453" lon="13.2427408"><ele>1185.0</ele><time>2026-05-02T14:25:16.118Z</time></trkpt><trkpt lat="42.2681999" lon="13.2428496"><ele>1185.0</ele><time>2026-05-02T14:25:17.118Z</time></trkpt><trkpt lat="42.2682715" lon="13.242927"><ele>1185.0</ele><time>2026-05-02T14:25:18.118Z</time></trkpt><trkpt lat="42.268362" lon="13.2429725"><ele>1183.5</ele><time>2026-05-02T14:25:19.118Z</time></trkpt><trkpt lat="42.2684768" lon="13.2429985"><ele>1182.0</ele><time>2026-05-02T14:25:20.118Z</time></trkpt><trkpt lat="42.2686087" lon="13.243005"><ele>1180.5</ele><time>2026-05-02T14:25:21.117Z</time></trkpt><trkpt lat="42.2687531" lon="13.2430056"><ele>1179.0</ele><time>2026-05-02T14:25:22.118Z</time></trkpt><trkpt lat="42.2688723" lon="13.2430301"><ele>1180.0</ele><time>2026-05-02T14:25:23.117Z</time></trkpt><trkpt lat="42.2689874" lon="13.2430708"><ele>1181.0</ele><time>2026-05-02T14:25:24.117Z</time></trkpt><trkpt lat="42.269097" lon="13.2431228"><ele>1182.0</ele><time>2026-05-02T14:25:25.117Z</time></trkpt><trkpt lat="42.2691956" lon="13.2431771"><ele>1183.0</ele><time>2026-05-02T14:25:26.117Z</time></trkpt><trkpt lat="42.2692896" lon="13.2432318"><ele>1184.0</ele><time>2026-05-02T14:25:27.117Z</time></trkpt><trkpt lat="42.2693744" lon="13.2432738"><ele>1184.6000000000001</ele><time>2026-05-02T14:25:28.117Z</time></trkpt><trkpt lat="42.2694595" lon="13.2433059"><ele>1185.2</ele><time>2026-05-02T14:25:29.117Z</time></trkpt><trkpt lat="42.269548" lon="13.2433367"><ele>1185.8000000000002</ele><time>2026-05-02T14:25:30.117Z</time></trkpt><trkpt lat="42.2696427" lon="13.2433612"><ele>1186.4</ele><time>2026-05-02T14:25:31.117Z</time></trkpt><trkpt lat="42.2697479" lon="13.2433703"><ele>1187.0</ele><time>2026-05-02T14:25:32.118Z</time></trkpt><trkpt lat="42.2698578" lon="13.243353"><ele>1188.5</ele><time>2026-05-02T14:25:33.117Z</time></trkpt><trkpt lat="42.2699674" lon="13.2433231"><ele>1190.0</ele><time>2026-05-02T14:25:34.117Z</time></trkpt><trkpt lat="42.2700794" lon="13.243267"><ele>1191.5</ele><time>2026-05-02T14:25:35.118Z</time></trkpt><trkpt lat="42.2701844" lon="13.2432083"><ele>1193.0</ele><time>2026-05-02T14:25:36.118Z</time></trkpt><trkpt lat="42.2702614" lon="13.2430907"><ele>1193.5</ele><time>2026-05-02T14:25:37.118Z</time></trkpt><trkpt lat="42.2703467" lon="13.242952"><ele>1194.0</ele><time>2026-05-02T14:25:38.118Z</time></trkpt><trkpt lat="42.2704514" lon="13.2428735"><ele>1194.5</ele><time>2026-05-02T14:25:39.119Z</time></trkpt><trkpt lat="42.2705748" lon="13.2427913"><ele>1195.0</ele><time>2026-05-02T14:25:40.119Z</time></trkpt><trkpt lat="42.2707121" lon="13.2427023"><ele>1193.3333333333333</ele><time>2026-05-02T14:25:41.118Z</time></trkpt><trkpt lat="42.2708648" lon="13.2425973"><ele>1191.6666666666667</ele><time>2026-05-02T14:25:42.117Z</time></trkpt><trkpt lat="42.2710138" lon="13.2424881"><ele>1190.0</ele><time>2026-05-02T14:25:43.118Z</time></trkpt><trkpt lat="42.2711543" lon="13.2423963"><ele>1190.0</ele><time>2026-05-02T14:25:44.117Z</time></trkpt><trkpt lat="42.2712866" lon="13.2423052"><ele>1190.0</ele><time>2026-05-02T14:25:45.117Z</time></trkpt><trkpt lat="42.2714098" lon="13.2422272"><ele>1190.0</ele><time>2026-05-02T14:25:46.117Z</time></trkpt><trkpt lat="42.2715206" lon="13.2421529"><ele>1190.0</ele><time>2026-05-02T14:25:47.118Z</time></trkpt><trkpt lat="42.2716242" lon="13.2420613"><ele>1189.25</ele><time>2026-05-02T14:25:48.118Z</time></trkpt><trkpt lat="42.2717232" lon="13.2419492"><ele>1188.5</ele><time>2026-05-02T14:25:49.118Z</time></trkpt><trkpt lat="42.2718201" lon="13.2418361"><ele>1187.75</ele><time>2026-05-02T14:25:50.118Z</time></trkpt><trkpt lat="42.2719142" lon="13.2417261"><ele>1187.0</ele><time>2026-05-02T14:25:51.118Z</time></trkpt><trkpt lat="42.2720008" lon="13.2416404"><ele>1187.0</ele><time>2026-05-02T14:25:52.118Z</time></trkpt><trkpt lat="42.2720895" lon="13.2415737"><ele>1187.0</ele><time>2026-05-02T14:25:53.119Z</time></trkpt><trkpt lat="42.2721831" lon="13.2415305"><ele>1187.0</ele><time>2026-05-02T14:25:54.117Z</time></trkpt><trkpt lat="42.2722792" lon="13.2415117"><ele>1187.0</ele><time>2026-05-02T14:25:55.118Z</time></trkpt><trkpt lat="42.2723856" lon="13.2415152"><ele>1187.0</ele><time>2026-05-02T14:25:56.117Z</time></trkpt><trkpt lat="42.2725011" lon="13.2415341"><ele>1185.75</ele><time>2026-05-02T14:25:57.118Z</time></trkpt><trkpt lat="42.2726427" lon="13.2415603"><ele>1184.5</ele><time>2026-05-02T14:25:58.117Z</time></trkpt><trkpt lat="42.2727968" lon="13.2415951"><ele>1183.25</ele><time>2026-05-02T14:25:59.117Z</time></trkpt><trkpt lat="42.2729398" lon="13.2416254"><ele>1182.0</ele><time>2026-05-02T14:26:00.118Z</time></trkpt><trkpt lat="42.2730898" lon="13.2416496"><ele>1181.4</ele><time>2026-05-02T14:26:01.118Z</time></trkpt><trkpt lat="42.2732256" lon="13.2416643"><ele>1180.8000000000002</ele><time>2026-05-02T14:26:02.117Z</time></trkpt><trkpt lat="42.273345" lon="13.2416711"><ele>1180.2</ele><time>2026-05-02T14:26:03.118Z</time></trkpt><trkpt lat="42.2734379" lon="13.2416827"><ele>1179.6000000000001</ele><time>2026-05-02T14:26:04.118Z</time></trkpt><trkpt lat="42.2735155" lon="13.241714"><ele>1179.0</ele><time>2026-05-02T14:26:05.118Z</time></trkpt><trkpt lat="42.2735885" lon="13.2417687"><ele>1179.0</ele><time>2026-05-02T14:26:06.118Z</time></trkpt><trkpt lat="42.2736663" lon="13.2418472"><ele>1179.0</ele><time>2026-05-02T14:26:07.117Z</time></trkpt><trkpt lat="42.2737536" lon="13.241951"><ele>1179.0</ele><time>2026-05-02T14:26:08.117Z</time></trkpt><trkpt lat="42.2738573" lon="13.242065"><ele>1179.0</ele><time>2026-05-02T14:26:09.117Z</time></trkpt><trkpt lat="42.2739609" lon="13.2421615"><ele>1179.5</ele><time>2026-05-02T14:26:10.118Z</time></trkpt><trkpt lat="42.2740415" lon="13.2422226"><ele>1180.0</ele><time>2026-05-02T14:26:11.118Z</time></trkpt><trkpt lat="42.2741073" lon="13.2422752"><ele>1180.5</ele><time>2026-05-02T14:26:12.117Z</time></trkpt><trkpt lat="42.274157" lon="13.2423366"><ele>1181.0</ele><time>2026-05-02T14:26:13.118Z</time></trkpt><trkpt lat="42.2742006" lon="13.2424266"><ele>1181.5</ele><time>2026-05-02T14:26:14.117Z</time></trkpt><trkpt lat="42.274232" lon="13.24253"><ele>1182.0</ele><time>2026-05-02T14:26:15.117Z</time></trkpt><trkpt lat="42.2742461" lon="13.2426279"><ele>1183.0</ele><time>2026-05-02T14:26:16.117Z</time></trkpt><trkpt lat="42.274245" lon="13.242714"><ele>1184.0</ele><time>2026-05-02T14:26:17.117Z</time></trkpt><trkpt lat="42.2742493" lon="13.2428591"><ele>1185.0</ele><time>2026-05-02T14:26:19.117Z</time></trkpt><trkpt lat="42.274257" lon="13.2429489"><ele>1186.0</ele><time>2026-05-02T14:26:20.118Z</time></trkpt><trkpt lat="42.2742786" lon="13.2430516"><ele>1187.0</ele><time>2026-05-02T14:26:21.118Z</time></trkpt><trkpt lat="42.2743218" lon="13.2431469"><ele>1188.0</ele><time>2026-05-02T14:26:22.118Z</time></trkpt><trkpt lat="42.2743797" lon="13.2432339"><ele>1188.0</ele><time>2026-05-02T14:26:23.118Z</time></trkpt><trkpt lat="42.274454" lon="13.24332"><ele>1188.0</ele><time>2026-05-02T14:26:24.118Z</time></trkpt><trkpt lat="42.2745431" lon="13.243399"><ele>1188.0</ele><time>2026-05-02T14:26:25.118Z</time></trkpt><trkpt lat="42.2746483" lon="13.2434773"><ele>1188.0</ele><time>2026-05-02T14:26:26.118Z</time></trkpt><trkpt lat="42.2747686" lon="13.2435659"><ele>1193.0</ele><time>2026-05-02T14:26:27.117Z</time></trkpt><trkpt lat="42.274899" lon="13.2436704"><ele>1198.0</ele><time>2026-05-02T14:26:28.117Z</time></trkpt><trkpt lat="42.2750265" lon="13.2437781"><ele>1203.0</ele><time>2026-05-02T14:26:29.118Z</time></trkpt><trkpt lat="42.2751617" lon="13.2438803"><ele>1202.25</ele><time>2026-05-02T14:26:30.118Z</time></trkpt><trkpt lat="42.2753014" lon="13.243981"><ele>1201.5</ele><time>2026-05-02T14:26:31.117Z</time></trkpt><trkpt lat="42.2754266" lon="13.2440737"><ele>1200.75</ele><time>2026-05-02T14:26:32.118Z</time></trkpt><trkpt lat="42.2755313" lon="13.2441553"><ele>1200.0</ele><time>2026-05-02T14:26:33.119Z</time></trkpt><trkpt lat="42.2756275" lon="13.2442432"><ele>1201.8</ele><time>2026-05-02T14:26:34.118Z</time></trkpt><trkpt lat="42.2757262" lon="13.2443318"><ele>1203.6</ele><time>2026-05-02T14:26:35.117Z</time></trkpt><trkpt lat="42.2758209" lon="13.2443977"><ele>1205.4</ele><time>2026-05-02T14:26:36.117Z</time></trkpt><trkpt lat="42.2759134" lon="13.2444382"><ele>1207.2</ele><time>2026-05-02T14:26:37.117Z</time></trkpt><trkpt lat="42.2760147" lon="13.2444723"><ele>1209.0</ele><time>2026-05-02T14:26:38.119Z</time></trkpt><trkpt lat="42.2761287" lon="13.2445088"><ele>1209.0</ele><time>2026-05-02T14:26:39.117Z</time></trkpt><trkpt lat="42.2762203" lon="13.2445363"><ele>1209.0</ele><time>2026-05-02T14:26:40.118Z</time></trkpt><trkpt lat="42.2762891" lon="13.2445636"><ele>1209.0</ele><time>2026-05-02T14:26:41.117Z</time></trkpt><trkpt lat="42.2763603" lon="13.2446203"><ele>1209.0</ele><time>2026-05-02T14:26:42.117Z</time></trkpt><trkpt lat="42.2764455" lon="13.2447101"><ele>1209.0</ele><time>2026-05-02T14:26:43.118Z</time></trkpt><trkpt lat="42.2765454" lon="13.2448155"><ele>1210.0</ele><time>2026-05-02T14:26:44.118Z</time></trkpt><trkpt lat="42.2766375" lon="13.2449082"><ele>1211.0</ele><time>2026-05-02T14:26:45.118Z</time></trkpt><trkpt lat="42.2767192" lon="13.2449927"><ele>1212.0</ele><time>2026-05-02T14:26:46.118Z</time></trkpt><trkpt lat="42.2768359" lon="13.2450995"><ele>1213.0</ele><time>2026-05-02T14:26:48.117Z</time></trkpt><trkpt lat="42.2769348" lon="13.2451584"><ele>1213.0</ele><time>2026-05-02T14:26:49.117Z</time></trkpt><trkpt lat="42.277051" lon="13.2452209"><ele>1213.0</ele><time>2026-05-02T14:26:50.117Z</time></trkpt><trkpt lat="42.2771556" lon="13.2452778"><ele>1213.0</ele><time>2026-05-02T14:26:51.117Z</time></trkpt><trkpt lat="42.2772359" lon="13.2453267"><ele>1213.0</ele><time>2026-05-02T14:26:52.117Z</time></trkpt><trkpt lat="42.2772955" lon="13.2453849"><ele>1213.0</ele><time>2026-05-02T14:26:53.118Z</time></trkpt><trkpt lat="42.2773499" lon="13.2454608"><ele>1211.6666666666665</ele><time>2026-05-02T14:26:54.118Z</time></trkpt><trkpt lat="42.2774023" lon="13.2455453"><ele>1210.3333333333333</ele><time>2026-05-02T14:26:55.118Z</time></trkpt><trkpt lat="42.2774232" lon="13.2456343"><ele>1209.0</ele><time>2026-05-02T14:26:56.119Z</time></trkpt><trkpt lat="42.2774846" lon="13.2457661"><ele>1207.6666666666667</ele><time>2026-05-02T14:26:58.118Z</time></trkpt><trkpt lat="42.2775787" lon="13.2458281"><ele>1206.3333333333335</ele><time>2026-05-02T14:27:00.117Z</time></trkpt><trkpt lat="42.2776437" lon="13.2458499"><ele>1205.0</ele><time>2026-05-02T14:27:01.117Z</time></trkpt><trkpt lat="42.2777399" lon="13.2458814"><ele>1205.0</ele><time>2026-05-02T14:27:02.117Z</time></trkpt><trkpt lat="42.2779232" lon="13.2458828"><ele>1205.0</ele><time>2026-05-02T14:27:03.119Z</time></trkpt><trkpt lat="42.278078" lon="13.2458975"><ele>1205.0</ele><time>2026-05-02T14:27:04.117Z</time></trkpt><trkpt lat="42.2782112" lon="13.2459089"><ele>1202.0</ele><time>2026-05-02T14:27:05.118Z</time></trkpt><trkpt lat="42.2783247" lon="13.2459143"><ele>1199.0</ele><time>2026-05-02T14:27:06.117Z</time></trkpt><trkpt lat="42.2784295" lon="13.2459069"><ele>1196.0</ele><time>2026-05-02T14:27:07.118Z</time></trkpt><trkpt lat="42.2785392" lon="13.24587"><ele>1193.0</ele><time>2026-05-02T14:27:08.119Z</time></trkpt><trkpt lat="42.2786672" lon="13.2458098"><ele>1193.0</ele><time>2026-05-02T14:27:09.118Z</time></trkpt><trkpt lat="42.2788045" lon="13.2457377"><ele>1193.0</ele><time>2026-05-02T14:27:10.118Z</time></trkpt><trkpt lat="42.2789356" lon="13.2456768"><ele>1193.0</ele><time>2026-05-02T14:27:11.118Z</time></trkpt><trkpt lat="42.2790695" lon="13.2456308"><ele>1193.0</ele><time>2026-05-02T14:27:12.117Z</time></trkpt><trkpt lat="42.2792075" lon="13.2455925"><ele>1194.25</ele><time>2026-05-02T14:27:13.117Z</time></trkpt><trkpt lat="42.2793406" lon="13.2455514"><ele>1195.5</ele><time>2026-05-02T14:27:14.117Z</time></trkpt><trkpt lat="42.2794779" lon="13.2455026"><ele>1196.75</ele><time>2026-05-02T14:27:15.118Z</time></trkpt><trkpt lat="42.2796135" lon="13.2454467"><ele>1198.0</ele><time>2026-05-02T14:27:16.118Z</time></trkpt><trkpt lat="42.2797412" lon="13.2453851"><ele>1196.5</ele><time>2026-05-02T14:27:17.118Z</time></trkpt><trkpt lat="42.2798687" lon="13.2453181"><ele>1195.0</ele><time>2026-05-02T14:27:18.118Z</time></trkpt><trkpt lat="42.2800014" lon="13.2452437"><ele>1193.5</ele><time>2026-05-02T14:27:19.117Z</time></trkpt><trkpt lat="42.2801304" lon="13.2451486"><ele>1192.0</ele><time>2026-05-02T14:27:20.117Z</time></trkpt><trkpt lat="42.2802557" lon="13.245035"><ele>1192.0</ele><time>2026-05-02T14:27:21.117Z</time></trkpt><trkpt lat="42.2803745" lon="13.2449282"><ele>1192.0</ele><time>2026-05-02T14:27:22.118Z</time></trkpt><trkpt lat="42.2804914" lon="13.2448385"><ele>1192.0</ele><time>2026-05-02T14:27:23.117Z</time></trkpt><trkpt lat="42.2806194" lon="13.2447631"><ele>1192.0</ele><time>2026-05-02T14:27:24.118Z</time></trkpt><trkpt lat="42.2807572" lon="13.2446944"><ele>1192.75</ele><time>2026-05-02T14:27:25.118Z</time></trkpt><trkpt lat="42.2808929" lon="13.2446389"><ele>1193.5</ele><time>2026-05-02T14:27:26.119Z</time></trkpt><trkpt lat="42.2810201" lon="13.2445883"><ele>1194.25</ele><time>2026-05-02T14:27:27.117Z</time></trkpt><trkpt lat="42.2811373" lon="13.244536"><ele>1195.0</ele><time>2026-05-02T14:27:28.117Z</time></trkpt><trkpt lat="42.2812416" lon="13.244497"><ele>1195.0</ele><time>2026-05-02T14:27:29.118Z</time></trkpt><trkpt lat="42.2813292" lon="13.2444812"><ele>1195.0</ele><time>2026-05-02T14:27:30.118Z</time></trkpt><trkpt lat="42.2814154" lon="13.2444891"><ele>1195.0</ele><time>2026-05-02T14:27:31.117Z</time></trkpt><trkpt lat="42.2815135" lon="13.2445162"><ele>1195.0</ele><time>2026-05-02T14:27:32.117Z</time></trkpt><trkpt lat="42.2816333" lon="13.2445525"><ele>1195.0</ele><time>2026-05-02T14:27:33.117Z</time></trkpt><trkpt lat="42.2817658" lon="13.2445967"><ele>1193.4</ele><time>2026-05-02T14:27:34.118Z</time></trkpt><trkpt lat="42.2818937" lon="13.2446359"><ele>1191.8</ele><time>2026-05-02T14:27:35.119Z</time></trkpt><trkpt lat="42.2820053" lon="13.24466"><ele>1190.2</ele><time>2026-05-02T14:27:36.118Z</time></trkpt><trkpt lat="42.2820977" lon="13.244667"><ele>1188.6</ele><time>2026-05-02T14:27:37.117Z</time></trkpt><trkpt lat="42.2821691" lon="13.2446597"><ele>1187.0</ele><time>2026-05-02T14:27:38.117Z</time></trkpt><trkpt lat="42.2822567" lon="13.2445824"><ele>1185.8</ele><time>2026-05-02T14:27:40.118Z</time></trkpt><trkpt lat="42.2822858" lon="13.2445042"><ele>1184.6</ele><time>2026-05-02T14:27:41.118Z</time></trkpt><trkpt lat="42.2823118" lon="13.2443918"><ele>1183.3999999999999</ele><time>2026-05-02T14:27:42.118Z</time></trkpt><trkpt lat="42.2823455" lon="13.2442608"><ele>1182.2</ele><time>2026-05-02T14:27:43.118Z</time></trkpt><trkpt lat="42.282396" lon="13.2441421"><ele>1181.0</ele><time>2026-05-02T14:27:44.117Z</time></trkpt><trkpt lat="42.2824635" lon="13.2440296"><ele>1182.5</ele><time>2026-05-02T14:27:45.117Z</time></trkpt><trkpt lat="42.2825511" lon="13.2439102"><ele>1184.0</ele><time>2026-05-02T14:27:46.117Z</time></trkpt><trkpt lat="42.2826569" lon="13.2437862"><ele>1185.5</ele><time>2026-05-02T14:27:47.118Z</time></trkpt><trkpt lat="42.2827578" lon="13.2436772"><ele>1187.0</ele><time>2026-05-02T14:27:48.118Z</time></trkpt><trkpt lat="42.2828372" lon="13.2435892"><ele>1187.0</ele><time>2026-05-02T14:27:49.118Z</time></trkpt><trkpt lat="42.2828968" lon="13.2435038"><ele>1187.0</ele><time>2026-05-02T14:27:50.117Z</time></trkpt><trkpt lat="42.282947" lon="13.2434075"><ele>1187.0</ele><time>2026-05-02T14:27:51.118Z</time></trkpt><trkpt lat="42.2829843" lon="13.2433021"><ele>1187.0</ele><time>2026-05-02T14:27:52.117Z</time></trkpt><trkpt lat="42.2830064" lon="13.2431831"><ele>1187.0</ele><time>2026-05-02T14:27:53.118Z</time></trkpt><trkpt lat="42.2830133" lon="13.2430483"><ele>1185.75</ele><time>2026-05-02T14:27:54.118Z</time></trkpt><trkpt lat="42.2829978" lon="13.2429075"><ele>1184.5</ele><time>2026-05-02T14:27:55.118Z</time></trkpt><trkpt lat="42.2829634" lon="13.2427499"><ele>1183.25</ele><time>2026-05-02T14:27:56.118Z</time></trkpt><trkpt lat="42.2829184" lon="13.2425755"><ele>1182.0</ele><time>2026-05-02T14:27:57.119Z</time></trkpt><trkpt lat="42.282874" lon="13.2424084"><ele>1181.0</ele><time>2026-05-02T14:27:58.118Z</time></trkpt><trkpt lat="42.2828434" lon="13.2422554"><ele>1180.0</ele><time>2026-05-02T14:27:59.117Z</time></trkpt><trkpt lat="42.2828268" lon="13.2421185"><ele>1179.0</ele><time>2026-05-02T14:28:00.119Z</time></trkpt><trkpt lat="42.2828263" lon="13.2420033"><ele>1178.0</ele><time>2026-05-02T14:28:01.118Z</time></trkpt><trkpt lat="42.2828443" lon="13.2419136"><ele>1177.0</ele><time>2026-05-02T14:28:02.118Z</time></trkpt><trkpt lat="42.2829386" lon="13.2418151"><ele>1177.0</ele><time>2026-05-02T14:28:04.118Z</time></trkpt><trkpt lat="42.2830096" lon="13.2418092"><ele>1177.0</ele><time>2026-05-02T14:28:05.118Z</time></trkpt><trkpt lat="42.2830968" lon="13.2418132"><ele>1177.0</ele><time>2026-05-02T14:28:06.119Z</time></trkpt><trkpt lat="42.2831985" lon="13.2418246"><ele>1177.0</ele><time>2026-05-02T14:28:07.118Z</time></trkpt><trkpt lat="42.2833143" lon="13.2418409"><ele>1177.0</ele><time>2026-05-02T14:28:08.117Z</time></trkpt><trkpt lat="42.2834338" lon="13.241863"><ele>1178.3333333333333</ele><time>2026-05-02T14:28:09.117Z</time></trkpt><trkpt lat="42.2835374" lon="13.2418844"><ele>1179.6666666666665</ele><time>2026-05-02T14:28:10.117Z</time></trkpt><trkpt lat="42.2836305" lon="13.2418951"><ele>1181.0</ele><time>2026-05-02T14:28:11.117Z</time></trkpt><trkpt lat="42.2837134" lon="13.2418894"><ele>1182.3333333333333</ele><time>2026-05-02T14:28:12.118Z</time></trkpt><trkpt lat="42.283782" lon="13.2418678"><ele>1183.6666666666667</ele><time>2026-05-02T14:28:13.117Z</time></trkpt><trkpt lat="42.283846" lon="13.2418352"><ele>1185.0</ele><time>2026-05-02T14:28:14.118Z</time></trkpt><trkpt lat="42.2839155" lon="13.2417928"><ele>1185.8</ele><time>2026-05-02T14:28:15.117Z</time></trkpt><trkpt lat="42.2839874" lon="13.2417345"><ele>1186.6</ele><time>2026-05-02T14:28:16.117Z</time></trkpt><trkpt lat="42.2840589" lon="13.2416593"><ele>1187.4</ele><time>2026-05-02T14:28:17.118Z</time></trkpt><trkpt lat="42.2841431" lon="13.2415751"><ele>1188.2</ele><time>2026-05-02T14:28:18.117Z</time></trkpt><trkpt lat="42.2842514" lon="13.2414843"><ele>1189.0</ele><time>2026-05-02T14:28:19.118Z</time></trkpt><trkpt lat="42.2843827" lon="13.2413893"><ele>1189.6666666666665</ele><time>2026-05-02T14:28:20.117Z</time></trkpt><trkpt lat="42.2845293" lon="13.2412802"><ele>1190.3333333333333</ele><time>2026-05-02T14:28:21.117Z</time></trkpt><trkpt lat="42.2846864" lon="13.2411374"><ele>1191.0</ele><time>2026-05-02T14:28:22.118Z</time></trkpt><trkpt lat="42.2848349" lon="13.2409557"><ele>1191.0</ele><time>2026-05-02T14:28:23.118Z</time></trkpt><trkpt lat="42.2849665" lon="13.2407608"><ele>1191.0</ele><time>2026-05-02T14:28:24.118Z</time></trkpt><trkpt lat="42.2850904" lon="13.240598"><ele>1191.0</ele><time>2026-05-02T14:28:25.117Z</time></trkpt><trkpt lat="42.2852311" lon="13.2404753"><ele>1196.6666666666667</ele><time>2026-05-02T14:28:26.117Z</time></trkpt><trkpt lat="42.2853921" lon="13.2403611"><ele>1202.3333333333335</ele><time>2026-05-02T14:28:27.117Z</time></trkpt><trkpt lat="42.2855663" lon="13.2402559"><ele>1208.0</ele><time>2026-05-02T14:28:28.118Z</time></trkpt><trkpt lat="42.285746" lon="13.2401393"><ele>1208.0</ele><time>2026-05-02T14:28:29.118Z</time></trkpt><trkpt lat="42.2859292" lon="13.2400182"><ele>1208.0</ele><time>2026-05-02T14:28:30.117Z</time></trkpt><trkpt lat="42.2861135" lon="13.2399119"><ele>1208.0</ele><time>2026-05-02T14:28:31.117Z</time></trkpt><trkpt lat="42.2862864" lon="13.2398301"><ele>1213.25</ele><time>2026-05-02T14:28:32.117Z</time></trkpt><trkpt lat="42.2864357" lon="13.2397468"><ele>1218.5</ele><time>2026-05-02T14:28:33.118Z</time></trkpt><trkpt lat="42.2865649" lon="13.2396651"><ele>1223.75</ele><time>2026-05-02T14:28:34.118Z</time></trkpt><trkpt lat="42.2866894" lon="13.2396252"><ele>1229.0</ele><time>2026-05-02T14:28:35.117Z</time></trkpt><trkpt lat="42.2868283" lon="13.2396269"><ele>1229.0</ele><time>2026-05-02T14:28:36.118Z</time></trkpt><trkpt lat="42.2869809" lon="13.2396519"><ele>1229.0</ele><time>2026-05-02T14:28:37.119Z</time></trkpt><trkpt lat="42.2871341" lon="13.2396536"><ele>1229.0</ele><time>2026-05-02T14:28:38.118Z</time></trkpt><trkpt lat="42.2872791" lon="13.2396273"><ele>1227.75</ele><time>2026-05-02T14:28:39.117Z</time></trkpt><trkpt lat="42.2874107" lon="13.239619"><ele>1226.5</ele><time>2026-05-02T14:28:40.117Z</time></trkpt><trkpt lat="42.2875319" lon="13.2396528"><ele>1225.25</ele><time>2026-05-02T14:28:41.117Z</time></trkpt><trkpt lat="42.2876389" lon="13.2397286"><ele>1224.0</ele><time>2026-05-02T14:28:42.117Z</time></trkpt><trkpt lat="42.2877284" lon="13.2398156"><ele>1224.0</ele><time>2026-05-02T14:28:43.119Z</time></trkpt><trkpt lat="42.2878299" lon="13.2398589"><ele>1224.0</ele><time>2026-05-02T14:28:44.118Z</time></trkpt><trkpt lat="42.2879447" lon="13.2398451"><ele>1224.0</ele><time>2026-05-02T14:28:45.118Z</time></trkpt><trkpt lat="42.2880645" lon="13.2397851"><ele>1224.0</ele><time>2026-05-02T14:28:46.117Z</time></trkpt><trkpt lat="42.2882042" lon="13.2397001"><ele>1226.0</ele><time>2026-05-02T14:28:47.117Z</time></trkpt><trkpt lat="42.2883684" lon="13.2396136"><ele>1228.0</ele><time>2026-05-02T14:28:48.117Z</time></trkpt><trkpt lat="42.2885489" lon="13.2395305"><ele>1230.0</ele><time>2026-05-02T14:28:49.118Z</time></trkpt><trkpt lat="42.2887475" lon="13.2394503"><ele>1229.3333333333333</ele><time>2026-05-02T14:28:50.117Z</time></trkpt><trkpt lat="42.2889396" lon="13.2393719"><ele>1228.6666666666665</ele><time>2026-05-02T14:28:51.118Z</time></trkpt><trkpt lat="42.2891052" lon="13.2393148"><ele>1228.0</ele><time>2026-05-02T14:28:52.118Z</time></trkpt><trkpt lat="42.2892652" lon="13.2392905"><ele>1228.0</ele><time>2026-05-02T14:28:53.118Z</time></trkpt><trkpt lat="42.2894156" lon="13.239298"><ele>1228.0</ele><time>2026-05-02T14:28:54.118Z</time></trkpt><trkpt lat="42.2895703" lon="13.2393143"><ele>1228.0</ele><time>2026-05-02T14:28:55.118Z</time></trkpt><trkpt lat="42.2897188" lon="13.2392936"><ele>1229.0</ele><time>2026-05-02T14:28:56.117Z</time></trkpt><trkpt lat="42.28987" lon="13.2392295"><ele>1230.0</ele><time>2026-05-02T14:28:57.117Z</time></trkpt><trkpt lat="42.2900136" lon="13.2391711"><ele>1231.0</ele><time>2026-05-02T14:28:58.117Z</time></trkpt><trkpt lat="42.2901496" lon="13.2391543"><ele>1232.0</ele><time>2026-05-02T14:28:59.118Z</time></trkpt><trkpt lat="42.2902755" lon="13.2391736"><ele>1232.0</ele><time>2026-05-02T14:29:00.117Z</time></trkpt><trkpt lat="42.2904047" lon="13.2392211"><ele>1232.0</ele><time>2026-05-02T14:29:01.117Z</time></trkpt><trkpt lat="42.2905366" lon="13.2392699"><ele>1232.0</ele><time>2026-05-02T14:29:02.119Z</time></trkpt><trkpt lat="42.2906746" lon="13.2392685"><ele>1232.0</ele><time>2026-05-02T14:29:03.117Z</time></trkpt><trkpt lat="42.2908175" lon="13.2392205"><ele>1232.3333333333335</ele><time>2026-05-02T14:29:04.118Z</time></trkpt><trkpt lat="42.290968" lon="13.2391337"><ele>1232.6666666666667</ele><time>2026-05-02T14:29:05.117Z</time></trkpt><trkpt lat="42.2911292" lon="13.2390425"><ele>1233.0</ele><time>2026-05-02T14:29:06.118Z</time></trkpt><trkpt lat="42.2913146" lon="13.2389765"><ele>1243.3333333333333</ele><time>2026-05-02T14:29:07.117Z</time></trkpt><trkpt lat="42.2915193" lon="13.2389296"><ele>1253.6666666666665</ele><time>2026-05-02T14:29:08.118Z</time></trkpt><trkpt lat="42.291741" lon="13.2388798"><ele>1264.0</ele><time>2026-05-02T14:29:09.117Z</time></trkpt><trkpt lat="42.2919652" lon="13.238799"><ele>1264.0</ele><time>2026-05-02T14:29:10.117Z</time></trkpt><trkpt lat="42.292169" lon="13.2387298"><ele>1264.0</ele><time>2026-05-02T14:29:11.119Z</time></trkpt><trkpt lat="42.2923602" lon="13.2386945"><ele>1264.0</ele><time>2026-05-02T14:29:12.117Z</time></trkpt><trkpt lat="42.2925376" lon="13.238675"><ele>1262.3333333333333</ele><time>2026-05-02T14:29:13.117Z</time></trkpt><trkpt lat="42.2927169" lon="13.2386425"><ele>1260.6666666666667</ele><time>2026-05-02T14:29:14.117Z</time></trkpt><trkpt lat="42.2928993" lon="13.2385696"><ele>1259.0</ele><time>2026-05-02T14:29:15.117Z</time></trkpt><trkpt lat="42.2930883" lon="13.2384497"><ele>1253.5</ele><time>2026-05-02T14:29:16.118Z</time></trkpt><trkpt lat="42.2932912" lon="13.2383089"><ele>1248.0</ele><time>2026-05-02T14:29:17.117Z</time></trkpt><trkpt lat="42.2935112" lon="13.2381736"><ele>1258.0</ele><time>2026-05-02T14:29:18.118Z</time></trkpt><trkpt lat="42.2937431" lon="13.2380442"><ele>1268.0</ele><time>2026-05-02T14:29:19.118Z</time></trkpt><trkpt lat="42.293971" lon="13.2379146"><ele>1268.0</ele><time>2026-05-02T14:29:20.119Z</time></trkpt><trkpt lat="42.2941718" lon="13.2377941"><ele>1268.0</ele><time>2026-05-02T14:29:21.118Z</time></trkpt><trkpt lat="42.2943541" lon="13.2376777"><ele>1268.0</ele><time>2026-05-02T14:29:22.119Z</time></trkpt><trkpt lat="42.2945207" lon="13.2375702"><ele>1268.0</ele><time>2026-05-02T14:29:23.117Z</time></trkpt><trkpt lat="42.2946726" lon="13.2374911"><ele>1268.0</ele><time>2026-05-02T14:29:24.118Z</time></trkpt><trkpt lat="42.294831" lon="13.2374405"><ele>1268.0</ele><time>2026-05-02T14:29:25.118Z</time></trkpt><trkpt lat="42.29501" lon="13.2373993"><ele>1265.0</ele><time>2026-05-02T14:29:26.117Z</time></trkpt><trkpt lat="42.2952022" lon="13.237357"><ele>1262.0</ele><time>2026-05-02T14:29:27.118Z</time></trkpt><trkpt lat="42.2954123" lon="13.2373069"><ele>1259.0</ele><time>2026-05-02T14:29:28.117Z</time></trkpt><trkpt lat="42.2956386" lon="13.2372568"><ele>1271.0</ele><time>2026-05-02T14:29:29.117Z</time></trkpt><trkpt lat="42.2958676" lon="13.2372068"><ele>1283.0</ele><time>2026-05-02T14:29:30.117Z</time></trkpt><trkpt lat="42.296071" lon="13.2371654"><ele>1295.0</ele><time>2026-05-02T14:29:31.119Z</time></trkpt><trkpt lat="42.2962733" lon="13.2371295"><ele>1292.3333333333335</ele><time>2026-05-02T14:29:32.117Z</time></trkpt><trkpt lat="42.2964699" lon="13.2371059"><ele>1289.6666666666667</ele><time>2026-05-02T14:29:33.118Z</time></trkpt><trkpt lat="42.2966481" lon="13.2370931"><ele>1287.0</ele><time>2026-05-02T14:29:34.117Z</time></trkpt><trkpt lat="42.2968288" lon="13.2371117"><ele>1287.0</ele><time>2026-05-02T14:29:35.117Z</time></trkpt><trkpt lat="42.297025" lon="13.2371427"><ele>1287.0</ele><time>2026-05-02T14:29:36.118Z</time></trkpt><trkpt lat="42.2972356" lon="13.2371899"><ele>1287.0</ele><time>2026-05-02T14:29:37.117Z</time></trkpt><trkpt lat="42.297431" lon="13.2372228"><ele>1289.3333333333333</ele><time>2026-05-02T14:29:38.117Z</time></trkpt><trkpt lat="42.2976169" lon="13.2372671"><ele>1291.6666666666665</ele><time>2026-05-02T14:29:39.118Z</time></trkpt><trkpt lat="42.2977939" lon="13.2373242"><ele>1294.0</ele><time>2026-05-02T14:29:40.118Z</time></trkpt><trkpt lat="42.2979501" lon="13.2373922"><ele>1288.3333333333333</ele><time>2026-05-02T14:29:41.117Z</time></trkpt><trkpt lat="42.2980946" lon="13.2374655"><ele>1282.6666666666667</ele><time>2026-05-02T14:29:42.118Z</time></trkpt><trkpt lat="42.2982266" lon="13.2375581"><ele>1277.0</ele><time>2026-05-02T14:29:43.118Z</time></trkpt><trkpt lat="42.298357" lon="13.2376843"><ele>1277.0</ele><time>2026-05-02T14:29:44.117Z</time></trkpt><trkpt lat="42.2984665" lon="13.2378018"><ele>1277.0</ele><time>2026-05-02T14:29:45.117Z</time></trkpt><trkpt lat="42.2985835" lon="13.2379048"><ele>1277.0</ele><time>2026-05-02T14:29:46.117Z</time></trkpt><trkpt lat="42.2987067" lon="13.2379684"><ele>1277.0</ele><time>2026-05-02T14:29:47.117Z</time></trkpt><trkpt lat="42.2988391" lon="13.2379791"><ele>1278.0</ele><time>2026-05-02T14:29:48.118Z</time></trkpt><trkpt lat="42.2989842" lon="13.2379324"><ele>1279.0</ele><time>2026-05-02T14:29:49.117Z</time></trkpt><trkpt lat="42.2991548" lon="13.2378562"><ele>1280.0</ele><time>2026-05-02T14:29:50.117Z</time></trkpt><trkpt lat="42.299337" lon="13.2378057"><ele>1280.0</ele><time>2026-05-02T14:29:51.117Z</time></trkpt><trkpt lat="42.2995182" lon="13.2377908"><ele>1280.0</ele><time>2026-05-02T14:29:52.117Z</time></trkpt><trkpt lat="42.299682" lon="13.2378149"><ele>1280.0</ele><time>2026-05-02T14:29:53.117Z</time></trkpt><trkpt lat="42.2998295" lon="13.2378757"><ele>1278.6666666666667</ele><time>2026-05-02T14:29:54.118Z</time></trkpt><trkpt lat="42.2999733" lon="13.2379344"><ele>1277.3333333333333</ele><time>2026-05-02T14:29:55.117Z</time></trkpt><trkpt lat="42.3001364" lon="13.237952"><ele>1276.0</ele><time>2026-05-02T14:29:56.118Z</time></trkpt><trkpt lat="42.3003102" lon="13.237924"><ele>1276.0</ele><time>2026-05-02T14:29:57.118Z</time></trkpt><trkpt lat="42.3004942" lon="13.2378615"><ele>1276.0</ele><time>2026-05-02T14:29:58.118Z</time></trkpt><trkpt lat="42.3006551" lon="13.2377883"><ele>1276.0</ele><time>2026-05-02T14:29:59.118Z</time></trkpt><trkpt lat="42.3008067" lon="13.237729"><ele>1276.3333333333333</ele><time>2026-05-02T14:30:00.119Z</time></trkpt><trkpt lat="42.3009644" lon="13.237695"><ele>1276.6666666666667</ele><time>2026-05-02T14:30:01.117Z</time></trkpt><trkpt lat="42.3011311" lon="13.2376929"><ele>1277.0</ele><time>2026-05-02T14:30:02.117Z</time></trkpt><trkpt lat="42.3013164" lon="13.2377086"><ele>1275.3333333333335</ele><time>2026-05-02T14:30:03.119Z</time></trkpt><trkpt lat="42.3015186" lon="13.237723"><ele>1273.6666666666667</ele><time>2026-05-02T14:30:04.117Z</time></trkpt><trkpt lat="42.3017396" lon="13.2377322"><ele>1272.0</ele><time>2026-05-02T14:30:05.118Z</time></trkpt><trkpt lat="42.3019543" lon="13.2377276"><ele>1272.0</ele><time>2026-05-02T14:30:06.117Z</time></trkpt><trkpt lat="42.3021435" lon="13.2377062"><ele>1272.0</ele><time>2026-05-02T14:30:07.117Z</time></trkpt><trkpt lat="42.3023159" lon="13.2376729"><ele>1272.0</ele><time>2026-05-02T14:30:08.118Z</time></trkpt><trkpt lat="42.3024705" lon="13.2376503"><ele>1272.3333333333333</ele><time>2026-05-02T14:30:09.119Z</time></trkpt><trkpt lat="42.302617" lon="13.2376646"><ele>1272.6666666666665</ele><time>2026-05-02T14:30:10.118Z</time></trkpt><trkpt lat="42.302774" lon="13.2377201"><ele>1273.0</ele><time>2026-05-02T14:30:11.117Z</time></trkpt><trkpt lat="42.3029437" lon="13.2377884"><ele>1273.3333333333333</ele><time>2026-05-02T14:30:12.117Z</time></trkpt><trkpt lat="42.30313" lon="13.2378631"><ele>1273.6666666666667</ele><time>2026-05-02T14:30:13.119Z</time></trkpt><trkpt lat="42.3033011" lon="13.2379334"><ele>1274.0</ele><time>2026-05-02T14:30:14.118Z</time></trkpt><trkpt lat="42.3034478" lon="13.2380119"><ele>1274.0</ele><time>2026-05-02T14:30:15.118Z</time></trkpt><trkpt lat="42.3035649" lon="13.2381193"><ele>1274.0</ele><time>2026-05-02T14:30:16.118Z</time></trkpt><trkpt lat="42.3036507" lon="13.2382512"><ele>1274.0</ele><time>2026-05-02T14:30:17.117Z</time></trkpt><trkpt lat="42.3037305" lon="13.2384079"><ele>1274.0</ele><time>2026-05-02T14:30:18.119Z</time></trkpt><trkpt lat="42.3038316" lon="13.2385486"><ele>1275.0</ele><time>2026-05-02T14:30:19.117Z</time></trkpt><trkpt lat="42.3039588" lon="13.238655"><ele>1276.0</ele><time>2026-05-02T14:30:20.117Z</time></trkpt><trkpt lat="42.3041233" lon="13.2387315"><ele>1277.0</ele><time>2026-05-02T14:30:21.118Z</time></trkpt><trkpt lat="42.3043142" lon="13.2387858"><ele>1277.0</ele><time>2026-05-02T14:30:22.117Z</time></trkpt><trkpt lat="42.3045245" lon="13.2388408"><ele>1277.0</ele><time>2026-05-02T14:30:23.118Z</time></trkpt><trkpt lat="42.3047317" lon="13.2389136"><ele>1277.0</ele><time>2026-05-02T14:30:24.118Z</time></trkpt><trkpt lat="42.3049029" lon="13.238976"><ele>1276.3333333333335</ele><time>2026-05-02T14:30:25.119Z</time></trkpt><trkpt lat="42.3050666" lon="13.2390122"><ele>1275.6666666666667</ele><time>2026-05-02T14:30:26.117Z</time></trkpt><trkpt lat="42.3052312" lon="13.239016"><ele>1275.0</ele><time>2026-05-02T14:30:27.118Z</time></trkpt><trkpt lat="42.3053585" lon="13.2390133"><ele>1275.0</ele><time>2026-05-02T14:30:28.117Z</time></trkpt><trkpt lat="42.3054519" lon="13.2390149"><ele>1275.0</ele><time>2026-05-02T14:30:29.118Z</time></trkpt><trkpt lat="42.3055284" lon="13.2390159"><ele>1275.0</ele><time>2026-05-02T14:30:30.117Z</time></trkpt><trkpt lat="42.3056211" lon="13.2389998"><ele>1275.0</ele><time>2026-05-02T14:30:32.118Z</time></trkpt><trkpt lat="42.3055601" lon="13.2389556"><ele>1275.0</ele><time>2026-05-02T14:30:36.117Z</time></trkpt><trkpt lat="42.3054251" lon="13.2389857"><ele>1275.0</ele><time>2026-05-02T14:30:38.119Z</time></trkpt><trkpt lat="42.3053429" lon="13.2389911"><ele>1275.0</ele><time>2026-05-02T14:30:39.118Z</time></trkpt><trkpt lat="42.3052538" lon="13.238996"><ele>1275.0</ele><time>2026-05-02T14:30:40.117Z</time></trkpt><trkpt lat="42.3051497" lon="13.238997"><ele>1275.0</ele><time>2026-05-02T14:30:41.117Z</time></trkpt><trkpt lat="42.3050402" lon="13.2389835"><ele>1275.0</ele><time>2026-05-02T14:30:42.117Z</time></trkpt><trkpt lat="42.3049271" lon="13.2389548"><ele>1275.5</ele><time>2026-05-02T14:30:43.118Z</time></trkpt><trkpt lat="42.3048132" lon="13.238917"><ele>1276.0</ele><time>2026-05-02T14:30:44.117Z</time></trkpt><trkpt lat="42.3046829" lon="13.238878"><ele>1276.5</ele><time>2026-05-02T14:30:45.117Z</time></trkpt><trkpt lat="42.3045446" lon="13.2388337"><ele>1277.0</ele><time>2026-05-02T14:30:46.117Z</time></trkpt><trkpt lat="42.3044007" lon="13.2387928"><ele>1277.0</ele><time>2026-05-02T14:30:47.117Z</time></trkpt><trkpt lat="42.304243" lon="13.2387567"><ele>1277.0</ele><time>2026-05-02T14:30:48.117Z</time></trkpt><trkpt lat="42.3040917" lon="13.2387084"><ele>1277.0</ele><time>2026-05-02T14:30:49.118Z</time></trkpt><trkpt lat="42.3039664" lon="13.2386361"><ele>1276.25</ele><time>2026-05-02T14:30:50.117Z</time></trkpt><trkpt lat="42.3038656" lon="13.2385449"><ele>1275.5</ele><time>2026-05-02T14:30:51.117Z</time></trkpt><trkpt lat="42.3037807" lon="13.2384358"><ele>1274.75</ele><time>2026-05-02T14:30:52.117Z</time></trkpt><trkpt lat="42.3036986" lon="13.238284"><ele>1274.0</ele><time>2026-05-02T14:30:53.118Z</time></trkpt><trkpt lat="42.3036159" lon="13.2381339"><ele>1274.0</ele><time>2026-05-02T14:30:54.118Z</time></trkpt><trkpt lat="42.3035151" lon="13.238027"><ele>1274.0</ele><time>2026-05-02T14:30:55.117Z</time></trkpt><trkpt lat="42.3033957" lon="13.2379511"><ele>1274.0</ele><time>2026-05-02T14:30:56.117Z</time></trkpt><trkpt lat="42.3032795" lon="13.2379072"><ele>1274.0</ele><time>2026-05-02T14:30:57.118Z</time></trkpt><trkpt lat="42.3031786" lon="13.2378739"><ele>1274.0</ele><time>2026-05-02T14:30:58.118Z</time></trkpt><trkpt lat="42.3030939" lon="13.2378518"><ele>1274.0</ele><time>2026-05-02T14:30:59.118Z</time></trkpt><trkpt lat="42.3030144" lon="13.2378218"><ele>1274.0</ele><time>2026-05-02T14:31:00.118Z</time></trkpt><trkpt lat="42.302949" lon="13.2377954"><ele>1274.0</ele><time>2026-05-02T14:31:01.118Z</time></trkpt><trkpt lat="42.3028312" lon="13.2377733"><ele>1274.0</ele><time>2026-05-02T14:31:03.119Z</time></trkpt><trkpt lat="42.3027399" lon="13.2377696"><ele>1274.0</ele><time>2026-05-02T14:31:05.118Z</time></trkpt><trkpt lat="42.302675" lon="13.2377833"><ele>1273.8333333333335</ele><time>2026-05-02T14:31:06.118Z</time></trkpt><trkpt lat="42.3026033" lon="13.2377914"><ele>1273.6666666666667</ele><time>2026-05-02T14:31:07.117Z</time></trkpt><trkpt lat="42.3025184" lon="13.2378464"><ele>1273.5</ele><time>2026-05-02T14:31:09.117Z</time></trkpt><trkpt lat="42.3024919" lon="13.2379329"><ele>1273.3333333333333</ele><time>2026-05-02T14:31:11.117Z</time></trkpt><trkpt lat="42.3024939" lon="13.2380485"><ele>1273.1666666666665</ele><time>2026-05-02T14:31:13.118Z</time></trkpt><trkpt lat="42.3025029" lon="13.2381357"><ele>1273.0</ele><time>2026-05-02T14:31:14.117Z</time></trkpt><trkpt lat="42.3025253" lon="13.2382399"><ele>1272.0</ele><time>2026-05-02T14:31:15.117Z</time></trkpt><trkpt lat="42.3025702" lon="13.2383426"><ele>1271.0</ele><time>2026-05-02T14:31:16.117Z</time></trkpt><trkpt lat="42.3026285" lon="13.2384268"><ele>1270.0</ele><time>2026-05-02T14:31:17.117Z</time></trkpt><trkpt lat="42.3026872" lon="13.2384944"><ele>1269.0</ele><time>2026-05-02T14:31:18.117Z</time></trkpt><trkpt lat="42.3027559" lon="13.2385516"><ele>1268.0</ele><time>2026-05-02T14:31:19.118Z</time></trkpt><trkpt lat="42.3028343" lon="13.2386089"><ele>1267.0</ele><time>2026-05-02T14:31:20.118Z</time></trkpt><trkpt lat="42.3029236" lon="13.2386754"><ele>1267.0</ele><time>2026-05-02T14:31:21.117Z</time></trkpt><trkpt lat="42.303025" lon="13.2387309"><ele>1267.0</ele><time>2026-05-02T14:31:22.118Z</time></trkpt><trkpt lat="42.3031136" lon="13.2387772"><ele>1267.0</ele><time>2026-05-02T14:31:23.118Z</time></trkpt><trkpt lat="42.3031891" lon="13.2388352"><ele>1267.0</ele><time>2026-05-02T14:31:24.117Z</time></trkpt><trkpt lat="42.3032651" lon="13.2389078"><ele>1267.0</ele><time>2026-05-02T14:31:25.117Z</time></trkpt><trkpt lat="42.3033517" lon="13.2389948"><ele>1269.5</ele><time>2026-05-02T14:31:26.118Z</time></trkpt><trkpt lat="42.3034411" lon="13.2390939"><ele>1272.0</ele><time>2026-05-02T14:31:27.118Z</time></trkpt><trkpt lat="42.3035345" lon="13.2391974"><ele>1274.5</ele><time>2026-05-02T14:31:28.118Z</time></trkpt><trkpt lat="42.303627" lon="13.2392862"><ele>1277.0</ele><time>2026-05-02T14:31:29.117Z</time></trkpt><trkpt lat="42.3037161" lon="13.2393711"><ele>1277.0</ele><time>2026-05-02T14:31:30.118Z</time></trkpt><trkpt lat="42.3037917" lon="13.2394519"><ele>1277.0</ele><time>2026-05-02T14:31:31.117Z</time></trkpt><trkpt lat="42.3038526" lon="13.2395346"><ele>1277.0</ele><time>2026-05-02T14:31:32.117Z</time></trkpt><trkpt lat="42.3038971" lon="13.2396169"><ele>1277.0</ele><time>2026-05-02T14:31:33.118Z</time></trkpt><trkpt lat="42.303926" lon="13.2397157"><ele>1277.0</ele><time>2026-05-02T14:31:34.117Z</time></trkpt><trkpt lat="42.3039452" lon="13.239839"><ele>1277.0</ele><time>2026-05-02T14:31:35.118Z</time></trkpt><trkpt lat="42.3039667" lon="13.2400021"><ele>1277.25</ele><time>2026-05-02T14:31:36.118Z</time></trkpt><trkpt lat="42.3039983" lon="13.2402016"><ele>1277.5</ele><time>2026-05-02T14:31:37.118Z</time></trkpt><trkpt lat="42.304034" lon="13.2403901"><ele>1277.75</ele><time>2026-05-02T14:31:38.117Z</time></trkpt><trkpt lat="42.3040599" lon="13.2405577"><ele>1278.0</ele><time>2026-05-02T14:31:39.117Z</time></trkpt><trkpt lat="42.3040846" lon="13.2407062"><ele>1278.0</ele><time>2026-05-02T14:31:40.119Z</time></trkpt><trkpt lat="42.3040988" lon="13.2408435"><ele>1278.0</ele><time>2026-05-02T14:31:41.117Z</time></trkpt><trkpt lat="42.3041097" lon="13.2410003"><ele>1278.0</ele><time>2026-05-02T14:31:42.118Z</time></trkpt><trkpt lat="42.3041087" lon="13.2411476"><ele>1278.0</ele><time>2026-05-02T14:31:43.119Z</time></trkpt><trkpt lat="42.3040945" lon="13.2412664"><ele>1278.0</ele><time>2026-05-02T14:31:44.117Z</time></trkpt><trkpt lat="42.3040612" lon="13.2413921"><ele>1278.5</ele><time>2026-05-02T14:31:45.118Z</time></trkpt><trkpt lat="42.3040284" lon="13.2415203"><ele>1279.0</ele><time>2026-05-02T14:31:46.117Z</time></trkpt><trkpt lat="42.3039937" lon="13.2416683"><ele>1279.5</ele><time>2026-05-02T14:31:47.117Z</time></trkpt><trkpt lat="42.3039453" lon="13.2418079"><ele>1280.0</ele><time>2026-05-02T14:31:48.117Z</time></trkpt><trkpt lat="42.3038804" lon="13.2419619"><ele>1284.5</ele><time>2026-05-02T14:31:49.117Z</time></trkpt><trkpt lat="42.3038098" lon="13.2421147"><ele>1289.0</ele><time>2026-05-02T14:31:50.117Z</time></trkpt><trkpt lat="42.3037463" lon="13.242259"><ele>1293.5</ele><time>2026-05-02T14:31:51.118Z</time></trkpt><trkpt lat="42.3037012" lon="13.2424092"><ele>1298.0</ele><time>2026-05-02T14:31:52.118Z</time></trkpt><trkpt lat="42.3036611" lon="13.2425799"><ele>1298.0</ele><time>2026-05-02T14:31:53.117Z</time></trkpt><trkpt lat="42.3036268" lon="13.2427558"><ele>1298.0</ele><time>2026-05-02T14:31:54.117Z</time></trkpt><trkpt lat="42.3036053" lon="13.2429452"><ele>1298.0</ele><time>2026-05-02T14:31:55.118Z</time></trkpt><trkpt lat="42.3035974" lon="13.2431376"><ele>1298.0</ele><time>2026-05-02T14:31:56.117Z</time></trkpt><trkpt lat="42.3035884" lon="13.2433152"><ele>1298.0</ele><time>2026-05-02T14:31:57.117Z</time></trkpt><trkpt lat="42.3035878" lon="13.2434762"><ele>1298.0</ele><time>2026-05-02T14:31:58.117Z</time></trkpt><trkpt lat="42.3035985" lon="13.2436366"><ele>1298.0</ele><time>2026-05-02T14:31:59.117Z</time></trkpt><trkpt lat="42.3036183" lon="13.2438052"><ele>1298.0</ele><time>2026-05-02T14:32:00.118Z</time></trkpt><trkpt lat="42.30363" lon="13.2439608"><ele>1299.2</ele><time>2026-05-02T14:32:01.118Z</time></trkpt><trkpt lat="42.3036247" lon="13.2441281"><ele>1300.4</ele><time>2026-05-02T14:32:02.117Z</time></trkpt><trkpt lat="42.3035977" lon="13.2442635"><ele>1301.6000000000001</ele><time>2026-05-02T14:32:03.119Z</time></trkpt><trkpt lat="42.3035608" lon="13.2444002"><ele>1302.8000000000002</ele><time>2026-05-02T14:32:04.117Z</time></trkpt><trkpt lat="42.3035215" lon="13.2445245"><ele>1304.0</ele><time>2026-05-02T14:32:05.117Z</time></trkpt><trkpt lat="42.3034698" lon="13.2446663"><ele>1305.25</ele><time>2026-05-02T14:32:06.117Z</time></trkpt><trkpt lat="42.3033962" lon="13.2448392"><ele>1306.5</ele><time>2026-05-02T14:32:07.117Z</time></trkpt><trkpt lat="42.3033328" lon="13.244983"><ele>1307.75</ele><time>2026-05-02T14:32:08.118Z</time></trkpt><trkpt lat="42.3032707" lon="13.2451117"><ele>1309.0</ele><time>2026-05-02T14:32:09.117Z</time></trkpt><trkpt lat="42.3032277" lon="13.2452265"><ele>1309.0</ele><time>2026-05-02T14:32:10.117Z</time></trkpt><trkpt lat="42.3032027" lon="13.2453345"><ele>1309.0</ele><time>2026-05-02T14:32:11.118Z</time></trkpt><trkpt lat="42.3031869" lon="13.245464"><ele>1309.0</ele><time>2026-05-02T14:32:12.117Z</time></trkpt><trkpt lat="42.3031707" lon="13.2455938"><ele>1309.0</ele><time>2026-05-02T14:32:13.117Z</time></trkpt><trkpt lat="42.3031418" lon="13.245704"><ele>1309.0</ele><time>2026-05-02T14:32:14.119Z</time></trkpt><trkpt lat="42.303093" lon="13.2458176"><ele>1310.1666666666665</ele><time>2026-05-02T14:32:15.117Z</time></trkpt><trkpt lat="42.3030434" lon="13.2459188"><ele>1311.3333333333333</ele><time>2026-05-02T14:32:16.118Z</time></trkpt><trkpt lat="42.30302" lon="13.2460198"><ele>1312.5</ele><time>2026-05-02T14:32:17.117Z</time></trkpt><trkpt lat="42.3029926" lon="13.2461184"><ele>1313.6666666666667</ele><time>2026-05-02T14:32:18.117Z</time></trkpt><trkpt lat="42.3029669" lon="13.2462167"><ele>1314.8333333333335</ele><time>2026-05-02T14:32:19.118Z</time></trkpt><trkpt lat="42.3029249" lon="13.2462874"><ele>1316.0</ele><time>2026-05-02T14:32:20.117Z</time></trkpt><trkpt lat="42.3028828" lon="13.2463648"><ele>1317.8</ele><time>2026-05-02T14:32:21.117Z</time></trkpt><trkpt lat="42.3028335" lon="13.2464648"><ele>1319.6</ele><time>2026-05-02T14:32:22.118Z</time></trkpt><trkpt lat="42.3027888" lon="13.2465706"><ele>1321.4</ele><time>2026-05-02T14:32:23.118Z</time></trkpt><trkpt lat="42.3027446" lon="13.2466843"><ele>1323.2</ele><time>2026-05-02T14:32:24.118Z</time></trkpt><trkpt lat="42.3027018" lon="13.2468041"><ele>1325.0</ele><time>2026-05-02T14:32:25.118Z</time></trkpt><trkpt lat="42.3026464" lon="13.246912"><ele>1325.0</ele><time>2026-05-02T14:32:26.117Z</time></trkpt><trkpt lat="42.3025788" lon="13.2470233"><ele>1325.0</ele><time>2026-05-02T14:32:27.117Z</time></trkpt><trkpt lat="42.3025135" lon="13.2471322"><ele>1325.0</ele><time>2026-05-02T14:32:28.119Z</time></trkpt><trkpt lat="42.30247" lon="13.2472232"><ele>1325.0</ele><time>2026-05-02T14:32:29.117Z</time></trkpt><trkpt lat="42.3024169" lon="13.2473264"><ele>1325.0</ele><time>2026-05-02T14:32:30.117Z</time></trkpt><trkpt lat="42.3023521" lon="13.247441"><ele>1329.0</ele><time>2026-05-02T14:32:31.118Z</time></trkpt><trkpt lat="42.3022783" lon="13.2475693"><ele>1333.0</ele><time>2026-05-02T14:32:32.117Z</time></trkpt><trkpt lat="42.3021908" lon="13.2476901"><ele>1337.0</ele><time>2026-05-02T14:32:33.118Z</time></trkpt><trkpt lat="42.3021185" lon="13.2478012"><ele>1341.0</ele><time>2026-05-02T14:32:34.118Z</time></trkpt><trkpt lat="42.3020596" lon="13.2479098"><ele>1342.1999999999998</ele><time>2026-05-02T14:32:35.117Z</time></trkpt><trkpt lat="42.3019947" lon="13.248012"><ele>1343.3999999999999</ele><time>2026-05-02T14:32:36.118Z</time></trkpt><trkpt lat="42.3019281" lon="13.2481186"><ele>1344.6</ele><time>2026-05-02T14:32:37.117Z</time></trkpt><trkpt lat="42.3018721" lon="13.2482131"><ele>1345.8</ele><time>2026-05-02T14:32:38.119Z</time></trkpt><trkpt lat="42.3018111" lon="13.2482864"><ele>1347.0</ele><time>2026-05-02T14:32:39.117Z</time></trkpt><trkpt lat="42.3017641" lon="13.2483703"><ele>1347.8</ele><time>2026-05-02T14:32:40.117Z</time></trkpt><trkpt lat="42.3017157" lon="13.2484471"><ele>1348.6</ele><time>2026-05-02T14:32:41.118Z</time></trkpt><trkpt lat="42.3016691" lon="13.2485372"><ele>1349.3999999999999</ele><time>2026-05-02T14:32:42.117Z</time></trkpt><trkpt lat="42.3016179" lon="13.2486393"><ele>1350.1999999999998</ele><time>2026-05-02T14:32:43.117Z</time></trkpt><trkpt lat="42.3015774" lon="13.2487781"><ele>1351.0</ele><time>2026-05-02T14:32:44.117Z</time></trkpt><trkpt lat="42.3015559" lon="13.2489313"><ele>1352.75</ele><time>2026-05-02T14:32:45.117Z</time></trkpt><trkpt lat="42.3015394" lon="13.2490843"><ele>1354.5</ele><time>2026-05-02T14:32:46.118Z</time></trkpt><trkpt lat="42.3015015" lon="13.2492779"><ele>1356.25</ele><time>2026-05-02T14:32:47.118Z</time></trkpt><trkpt lat="42.3014668" lon="13.2494989"><ele>1358.0</ele><time>2026-05-02T14:32:48.117Z</time></trkpt><trkpt lat="42.301453" lon="13.2497252"><ele>1358.0</ele><time>2026-05-02T14:32:49.117Z</time></trkpt><trkpt lat="42.3014538" lon="13.249929"><ele>1358.0</ele><time>2026-05-02T14:32:50.118Z</time></trkpt><trkpt lat="42.3014638" lon="13.2501195"><ele>1358.0</ele><time>2026-05-02T14:32:51.117Z</time></trkpt><trkpt lat="42.3014882" lon="13.2502831"><ele>1358.0</ele><time>2026-05-02T14:32:52.117Z</time></trkpt><trkpt lat="42.3015284" lon="13.250434"><ele>1358.0</ele><time>2026-05-02T14:32:53.117Z</time></trkpt><trkpt lat="42.3015881" lon="13.250593"><ele>1358.0</ele><time>2026-05-02T14:32:54.117Z</time></trkpt><trkpt lat="42.3016463" lon="13.2507472"><ele>1358.0</ele><time>2026-05-02T14:32:55.117Z</time></trkpt><trkpt lat="42.3017152" lon="13.2509175"><ele>1358.0</ele><time>2026-05-02T14:32:56.117Z</time></trkpt><trkpt lat="42.3017745" lon="13.251075"><ele>1354.25</ele><time>2026-05-02T14:32:57.119Z</time></trkpt><trkpt lat="42.3018402" lon="13.2512319"><ele>1350.5</ele><time>2026-05-02T14:32:58.117Z</time></trkpt><trkpt lat="42.3019272" lon="13.2513859"><ele>1346.75</ele><time>2026-05-02T14:32:59.119Z</time></trkpt><trkpt lat="42.302038" lon="13.251532"><ele>1343.0</ele><time>2026-05-02T14:33:00.117Z</time></trkpt><trkpt lat="42.3021554" lon="13.251654"><ele>1343.25</ele><time>2026-05-02T14:33:01.118Z</time></trkpt><trkpt lat="42.3022766" lon="13.2517526"><ele>1343.5</ele><time>2026-05-02T14:33:02.118Z</time></trkpt><trkpt lat="42.3024005" lon="13.2518232"><ele>1343.75</ele><time>2026-05-02T14:33:03.118Z</time></trkpt><trkpt lat="42.302528" lon="13.2518587"><ele>1344.0</ele><time>2026-05-02T14:33:04.118Z</time></trkpt><trkpt lat="42.3026797" lon="13.2518496"><ele>1344.0</ele><time>2026-05-02T14:33:05.117Z</time></trkpt><trkpt lat="42.3028333" lon="13.251821"><ele>1344.0</ele><time>2026-05-02T14:33:06.118Z</time></trkpt><trkpt lat="42.3029731" lon="13.2518066"><ele>1344.0</ele><time>2026-05-02T14:33:07.117Z</time></trkpt><trkpt lat="42.303121" lon="13.2518113"><ele>1344.0</ele><time>2026-05-02T14:33:08.118Z</time></trkpt><trkpt lat="42.3032624" lon="13.2518217"><ele>1345.2</ele><time>2026-05-02T14:33:09.118Z</time></trkpt><trkpt lat="42.3033949" lon="13.2518306"><ele>1346.4</ele><time>2026-05-02T14:33:10.118Z</time></trkpt><trkpt lat="42.3035102" lon="13.2518364"><ele>1347.6</ele><time>2026-05-02T14:33:11.117Z</time></trkpt><trkpt lat="42.3036062" lon="13.2518588"><ele>1348.8</ele><time>2026-05-02T14:33:12.117Z</time></trkpt><trkpt lat="42.3036761" lon="13.2518903"><ele>1350.0</ele><time>2026-05-02T14:33:13.117Z</time></trkpt><trkpt lat="42.3037617" lon="13.2519468"><ele>1350.0</ele><time>2026-05-02T14:33:15.117Z</time></trkpt><trkpt lat="42.3037152" lon="13.251843"><ele>1350.0</ele><time>2026-05-02T14:33:20.117Z</time></trkpt><trkpt lat="42.3036483" lon="13.2517888"><ele>1350.0</ele><time>2026-05-02T14:33:22.117Z</time></trkpt><trkpt lat="42.3037492" lon="13.251882"><ele>1350.0</ele><time>2026-05-02T14:36:40.117Z</time></trkpt><trkpt lat="42.3038192" lon="13.2519403"><ele>1350.0</ele><time>2026-05-02T14:36:41.117Z</time></trkpt><trkpt lat="42.3038944" lon="13.2520069"><ele>1347.25</ele><time>2026-05-02T14:36:42.117Z</time></trkpt><trkpt lat="42.3039716" lon="13.2520913"><ele>1344.5</ele><time>2026-05-02T14:36:43.117Z</time></trkpt><trkpt lat="42.3040434" lon="13.2522046"><ele>1341.75</ele><time>2026-05-02T14:36:44.118Z</time></trkpt><trkpt lat="42.304098" lon="13.2523466"><ele>1339.0</ele><time>2026-05-02T14:36:45.117Z</time></trkpt><trkpt lat="42.3041428" lon="13.2524995"><ele>1339.0</ele><time>2026-05-02T14:36:46.117Z</time></trkpt><trkpt lat="42.3041924" lon="13.2526643"><ele>1339.0</ele><time>2026-05-02T14:36:47.118Z</time></trkpt><trkpt lat="42.3042534" lon="13.2528527"><ele>1339.0</ele><time>2026-05-02T14:36:48.117Z</time></trkpt><trkpt lat="42.3043221" lon="13.2530724"><ele>1331.0</ele><time>2026-05-02T14:36:49.117Z</time></trkpt><trkpt lat="42.3043963" lon="13.2533116"><ele>1323.0</ele><time>2026-05-02T14:36:50.117Z</time></trkpt><trkpt lat="42.3044765" lon="13.2535606"><ele>1315.0</ele><time>2026-05-02T14:36:51.118Z</time></trkpt><trkpt lat="42.3045539" lon="13.2537873"><ele>1319.0</ele><time>2026-05-02T14:36:52.118Z</time></trkpt><trkpt lat="42.3046285" lon="13.2539925"><ele>1323.0</ele><time>2026-05-02T14:36:53.118Z</time></trkpt><trkpt lat="42.3046929" lon="13.2541632"><ele>1327.0</ele><time>2026-05-02T14:36:54.119Z</time></trkpt><trkpt lat="42.304748" lon="13.2543097"><ele>1331.0</ele><time>2026-05-02T14:36:55.118Z</time></trkpt><trkpt lat="42.3047979" lon="13.2544301"><ele>1331.0</ele><time>2026-05-02T14:36:56.118Z</time></trkpt><trkpt lat="42.3048574" lon="13.2545128"><ele>1331.0</ele><time>2026-05-02T14:36:57.117Z</time></trkpt><trkpt lat="42.3049365" lon="13.2545596"><ele>1331.0</ele><time>2026-05-02T14:36:58.119Z</time></trkpt><trkpt lat="42.3050423" lon="13.2545628"><ele>1331.0</ele><time>2026-05-02T14:36:59.118Z</time></trkpt><trkpt lat="42.3051675" lon="13.2545312"><ele>1331.0</ele><time>2026-05-02T14:37:00.117Z</time></trkpt><trkpt lat="42.3053142" lon="13.2544634"><ele>1331.0</ele><time>2026-05-02T14:37:01.117Z</time></trkpt><trkpt lat="42.3054855" lon="13.254378"><ele>1331.0</ele><time>2026-05-02T14:37:02.118Z</time></trkpt><trkpt lat="42.3056331" lon="13.2542872"><ele>1331.0</ele><time>2026-05-02T14:37:03.119Z</time></trkpt><trkpt lat="42.3057622" lon="13.254198"><ele>1329.0</ele><time>2026-05-02T14:37:04.119Z</time></trkpt><trkpt lat="42.3058897" lon="13.2541325"><ele>1327.0</ele><time>2026-05-02T14:37:05.117Z</time></trkpt><trkpt lat="42.3060244" lon="13.2540786"><ele>1325.0</ele><time>2026-05-02T14:37:06.117Z</time></trkpt><trkpt lat="42.306188" lon="13.2540476"><ele>1323.0</ele><time>2026-05-02T14:37:07.117Z</time></trkpt><trkpt lat="42.3063613" lon="13.2540017"><ele>1334.0</ele><time>2026-05-02T14:37:08.118Z</time></trkpt><trkpt lat="42.3065196" lon="13.2539489"><ele>1345.0</ele><time>2026-05-02T14:37:09.117Z</time></trkpt><trkpt lat="42.306693" lon="13.253908"><ele>1356.0</ele><time>2026-05-02T14:37:10.117Z</time></trkpt><trkpt lat="42.3068669" lon="13.2538623"><ele>1356.0</ele><time>2026-05-02T14:37:11.117Z</time></trkpt><trkpt lat="42.3070322" lon="13.2538428"><ele>1356.0</ele><time>2026-05-02T14:37:12.117Z</time></trkpt><trkpt lat="42.3071737" lon="13.2537929"><ele>1356.0</ele><time>2026-05-02T14:37:13.117Z</time></trkpt><trkpt lat="42.3073082" lon="13.2537384"><ele>1349.3333333333333</ele><time>2026-05-02T14:37:14.117Z</time></trkpt><trkpt lat="42.3074401" lon="13.2537006"><ele>1342.6666666666665</ele><time>2026-05-02T14:37:15.117Z</time></trkpt><trkpt lat="42.3075934" lon="13.253696"><ele>1336.0</ele><time>2026-05-02T14:37:16.118Z</time></trkpt><trkpt lat="42.3077664" lon="13.2537085"><ele>1336.0</ele><time>2026-05-02T14:37:17.117Z</time></trkpt><trkpt lat="42.3079484" lon="13.2537276"><ele>1336.0</ele><time>2026-05-02T14:37:18.118Z</time></trkpt><trkpt lat="42.3081308" lon="13.2537373"><ele>1336.0</ele><time>2026-05-02T14:37:19.118Z</time></trkpt><trkpt lat="42.3083022" lon="13.2537491"><ele>1332.6666666666665</ele><time>2026-05-02T14:37:20.118Z</time></trkpt><trkpt lat="42.3084879" lon="13.2537877"><ele>1329.3333333333333</ele><time>2026-05-02T14:37:21.118Z</time></trkpt><trkpt lat="42.3086681" lon="13.2538523"><ele>1326.0</ele><time>2026-05-02T14:37:22.117Z</time></trkpt><trkpt lat="42.3088234" lon="13.2539175"><ele>1319.0</ele><time>2026-05-02T14:37:23.117Z</time></trkpt><trkpt lat="42.308968" lon="13.253975"><ele>1312.0</ele><time>2026-05-02T14:37:24.117Z</time></trkpt><trkpt lat="42.3091024" lon="13.254018"><ele>1305.0</ele><time>2026-05-02T14:37:25.117Z</time></trkpt><trkpt lat="42.3092215" lon="13.2540273"><ele>1298.0</ele><time>2026-05-02T14:37:26.117Z</time></trkpt><trkpt lat="42.3093282" lon="13.2540022"><ele>1300.25</ele><time>2026-05-02T14:37:27.117Z</time></trkpt><trkpt lat="42.3094401" lon="13.2539315"><ele>1302.5</ele><time>2026-05-02T14:37:28.117Z</time></trkpt><trkpt lat="42.3095647" lon="13.2538435"><ele>1304.75</ele><time>2026-05-02T14:37:29.118Z</time></trkpt><trkpt lat="42.3097099" lon="13.2537382"><ele>1307.0</ele><time>2026-05-02T14:37:30.117Z</time></trkpt><trkpt lat="42.3098673" lon="13.2536177"><ele>1307.0</ele><time>2026-05-02T14:37:31.117Z</time></trkpt><trkpt lat="42.3100359" lon="13.2534849"><ele>1307.0</ele><time>2026-05-02T14:37:32.117Z</time></trkpt><trkpt lat="42.3101965" lon="13.2533633"><ele>1307.0</ele><time>2026-05-02T14:37:33.118Z</time></trkpt><trkpt lat="42.3103475" lon="13.253243"><ele>1307.0</ele><time>2026-05-02T14:37:34.117Z</time></trkpt><trkpt lat="42.310493" lon="13.2531407"><ele>1307.0</ele><time>2026-05-02T14:37:35.117Z</time></trkpt><trkpt lat="42.3106293" lon="13.2530527"><ele>1307.0</ele><time>2026-05-02T14:37:36.117Z</time></trkpt><trkpt lat="42.3107605" lon="13.2529787"><ele>1309.6666666666667</ele><time>2026-05-02T14:37:37.119Z</time></trkpt><trkpt lat="42.3109067" lon="13.2529312"><ele>1312.3333333333333</ele><time>2026-05-02T14:37:38.117Z</time></trkpt><trkpt lat="42.3110688" lon="13.2529145"><ele>1315.0</ele><time>2026-05-02T14:37:39.117Z</time></trkpt><trkpt lat="42.3112314" lon="13.2529028"><ele>1315.0</ele><time>2026-05-02T14:37:40.117Z</time></trkpt><trkpt lat="42.3113985" lon="13.2528676"><ele>1315.0</ele><time>2026-05-02T14:37:41.118Z</time></trkpt><trkpt lat="42.3115516" lon="13.2528184"><ele>1315.0</ele><time>2026-05-02T14:37:42.117Z</time></trkpt><trkpt lat="42.3117024" lon="13.252796"><ele>1312.5</ele><time>2026-05-02T14:37:43.117Z</time></trkpt><trkpt lat="42.3118478" lon="13.2527993"><ele>1310.0</ele><time>2026-05-02T14:37:44.117Z</time></trkpt><trkpt lat="42.3119837" lon="13.2528312"><ele>1307.5</ele><time>2026-05-02T14:37:45.117Z</time></trkpt><trkpt lat="42.3120991" lon="13.2528788"><ele>1305.0</ele><time>2026-05-02T14:37:46.118Z</time></trkpt><trkpt lat="42.3122038" lon="13.2529"><ele>1301.25</ele><time>2026-05-02T14:37:47.117Z</time></trkpt><trkpt lat="42.3122987" lon="13.2528722"><ele>1297.5</ele><time>2026-05-02T14:37:48.118Z</time></trkpt><trkpt lat="42.3124003" lon="13.2527967"><ele>1293.75</ele><time>2026-05-02T14:37:49.118Z</time></trkpt><trkpt lat="42.3125101" lon="13.2526903"><ele>1290.0</ele><time>2026-05-02T14:37:50.117Z</time></trkpt><trkpt lat="42.3126206" lon="13.2525984"><ele>1290.0</ele><time>2026-05-02T14:37:51.118Z</time></trkpt><trkpt lat="42.3127209" lon="13.2525314"><ele>1290.0</ele><time>2026-05-02T14:37:52.118Z</time></trkpt><trkpt lat="42.312807" lon="13.2524397"><ele>1290.0</ele><time>2026-05-02T14:37:53.118Z</time></trkpt><trkpt lat="42.3128742" lon="13.2523048"><ele>1290.0</ele><time>2026-05-02T14:37:54.118Z</time></trkpt><trkpt lat="42.3129309" lon="13.2521532"><ele>1288.5</ele><time>2026-05-02T14:37:55.117Z</time></trkpt><trkpt lat="42.3129852" lon="13.2520344"><ele>1287.0</ele><time>2026-05-02T14:37:56.117Z</time></trkpt><trkpt lat="42.3130509" lon="13.2519363"><ele>1285.5</ele><time>2026-05-02T14:37:57.118Z</time></trkpt><trkpt lat="42.3131367" lon="13.251871"><ele>1284.0</ele><time>2026-05-02T14:37:58.118Z</time></trkpt><trkpt lat="42.3081308" lon="13.2537373"><ele>1298.0</ele><time>2026-05-02T14:37:19.118Z</time></trkpt><trkpt lat="42.3083022" lon="13.2537491"><ele>1312.0</ele><time>2026-05-02T14:37:20.118Z</time></trkpt><trkpt lat="42.3084879" lon="13.2537877"><ele>1326.0</ele><time>2026-05-02T14:37:21.118Z</time></trkpt><trkpt lat="42.3086681" lon="13.2538523"><ele>1326.0</ele><time>2026-05-02T14:37:22.117Z</time></trkpt><trkpt lat="42.3088234" lon="13.2539175"><ele>1326.0</ele><time>2026-05-02T14:37:23.117Z</time></trkpt><trkpt lat="42.308968" lon="13.253975"><ele>1326.0</ele><time>2026-05-02T14:37:24.117Z</time></trkpt><trkpt lat="42.3091024" lon="13.254018"><ele>1325.25</ele><time>2026-05-02T14:37:25.117Z</time></trkpt><trkpt lat="42.3092215" lon="13.2540273"><ele>1324.5</ele><time>2026-05-02T14:37:26.117Z</time></trkpt><trkpt lat="42.3093282" lon="13.2540022"><ele>1323.75</ele><time>2026-05-02T14:37:27.117Z</time></trkpt><trkpt lat="42.3094401" lon="13.2539315"><ele>1323.0</ele><time>2026-05-02T14:37:28.117Z</time></trkpt><trkpt lat="42.3095647" lon="13.2538435"><ele>1323.0</ele><time>2026-05-02T14:37:29.118Z</time></trkpt><trkpt lat="42.3097099" lon="13.2537382"><ele>1323.0</ele><time>2026-05-02T14:37:30.117Z</time></trkpt><trkpt lat="42.3098673" lon="13.2536177"><ele>1323.0</ele><time>2026-05-02T14:37:31.117Z</time></trkpt><trkpt lat="42.3100359" lon="13.2534849"><ele>1317.6666666666667</ele><time>2026-05-02T14:37:32.117Z</time></trkpt><trkpt lat="42.3101965" lon="13.2533633"><ele>1312.3333333333335</ele><time>2026-05-02T14:37:33.118Z</time></trkpt><trkpt lat="42.3103475" lon="13.253243"><ele>1307.0</ele><time>2026-05-02T14:37:34.117Z</time></trkpt><trkpt lat="42.310493" lon="13.2531407"><ele>1309.0</ele><time>2026-05-02T14:37:35.117Z</time></trkpt><trkpt lat="42.3106293" lon="13.2530527"><ele>1311.0</ele><time>2026-05-02T14:37:36.117Z</time></trkpt><trkpt lat="42.3107605" lon="13.2529787"><ele>1313.0</ele><time>2026-05-02T14:37:37.119Z</time></trkpt><trkpt lat="42.3109067" lon="13.2529312"><ele>1315.0</ele><time>2026-05-02T14:37:38.117Z</time></trkpt><trkpt lat="42.3110688" lon="13.2529145"><ele>1315.0</ele><time>2026-05-02T14:37:39.117Z</time></trkpt><trkpt lat="42.3112314" lon="13.2529028"><ele>1315.0</ele><time>2026-05-02T14:37:40.117Z</time></trkpt><trkpt lat="42.3113985" lon="13.2528676"><ele>1315.0</ele><time>2026-05-02T14:37:41.118Z</time></trkpt><trkpt lat="42.3115516" lon="13.2528184"><ele>1312.5</ele><time>2026-05-02T14:37:42.117Z</time></trkpt><trkpt lat="42.3117024" lon="13.252796"><ele>1310.0</ele><time>2026-05-02T14:37:43.117Z</time></trkpt><trkpt lat="42.3118478" lon="13.2527993"><ele>1307.5</ele><time>2026-05-02T14:37:44.117Z</time></trkpt><trkpt lat="42.3119837" lon="13.2528312"><ele>1305.0</ele><time>2026-05-02T14:37:45.117Z</time></trkpt><trkpt lat="42.3120991" lon="13.2528788"><ele>1305.0</ele><time>2026-05-02T14:37:46.118Z</time></trkpt><trkpt lat="42.3122038" lon="13.2529"><ele>1305.0</ele><time>2026-05-02T14:37:47.117Z</time></trkpt><trkpt lat="42.3122987" lon="13.2528722"><ele>1305.0</ele><time>2026-05-02T14:37:48.118Z</time></trkpt><trkpt lat="42.3124003" lon="13.2527967"><ele>1305.0</ele><time>2026-05-02T14:37:49.118Z</time></trkpt><trkpt lat="42.3125101" lon="13.2526903"><ele>1301.25</ele><time>2026-05-02T14:37:50.117Z</time></trkpt><trkpt lat="42.3126206" lon="13.2525984"><ele>1297.5</ele><time>2026-05-02T14:37:51.118Z</time></trkpt><trkpt lat="42.3127209" lon="13.2525314"><ele>1293.75</ele><time>2026-05-02T14:37:52.118Z</time></trkpt><trkpt lat="42.312807" lon="13.2524397"><ele>1290.0</ele><time>2026-05-02T14:37:53.118Z</time></trkpt><trkpt lat="42.3128742" lon="13.2523048"><ele>1288.8</ele><time>2026-05-02T14:37:54.118Z</time></trkpt><trkpt lat="42.3129309" lon="13.2521532"><ele>1287.6</ele><time>2026-05-02T14:37:55.117Z</time></trkpt><trkpt lat="42.3129852" lon="13.2520344"><ele>1286.4</ele><time>2026-05-02T14:37:56.117Z</time></trkpt><trkpt lat="42.3130509" lon="13.2519363"><ele>1285.2</ele><time>2026-05-02T14:37:57.118Z</time></trkpt><trkpt lat="42.3131367" lon="13.251871"><ele>1284.0</ele><time>2026-05-02T14:37:58.118Z</time></trkpt><trkpt lat="42.3132529" lon="13.2518191"><ele>1284.0</ele><time>2026-05-02T14:37:59.118Z</time></trkpt><trkpt lat="42.3133651" lon="13.2517619"><ele>1284.0</ele><time>2026-05-02T14:38:00.117Z</time></trkpt><trkpt lat="42.3134837" lon="13.2517063"><ele>1284.0</ele><time>2026-05-02T14:38:01.118Z</time></trkpt><trkpt lat="42.3135375" lon="13.2515508"><ele>1284.0</ele><time>2026-05-02T14:38:02.118Z</time></trkpt><trkpt lat="42.3136185" lon="13.2514418"><ele>1287.0</ele><time>2026-05-02T14:38:03.117Z</time></trkpt><trkpt lat="42.3137021" lon="13.2513674"><ele>1290.0</ele><time>2026-05-02T14:38:04.118Z</time></trkpt><trkpt lat="42.3138104" lon="13.2513219"><ele>1293.0</ele><time>2026-05-02T14:38:05.117Z</time></trkpt><trkpt lat="42.313934" lon="13.2512879"><ele>1296.0</ele><time>2026-05-02T14:38:06.118Z</time></trkpt><trkpt lat="42.3140833" lon="13.2512303"><ele>1296.0</ele><time>2026-05-02T14:38:07.118Z</time></trkpt><trkpt lat="42.3142022" lon="13.2511619"><ele>1296.0</ele><time>2026-05-02T14:38:08.119Z</time></trkpt><trkpt lat="42.3143309" lon="13.2510908"><ele>1296.0</ele><time>2026-05-02T14:38:09.117Z</time></trkpt><trkpt lat="42.3144201" lon="13.2510984"><ele>1296.0</ele><time>2026-05-02T14:38:10.119Z</time></trkpt><trkpt lat="42.314518" lon="13.2511109"><ele>1296.0</ele><time>2026-05-02T14:38:11.117Z</time></trkpt><trkpt lat="42.3146212" lon="13.2511941"><ele>1296.0</ele><time>2026-05-02T14:38:12.118Z</time></trkpt><trkpt lat="42.3147317" lon="13.2513054"><ele>1296.0</ele><time>2026-05-02T14:38:13.117Z</time></trkpt><trkpt lat="42.3148645" lon="13.2514444"><ele>1296.0</ele><time>2026-05-02T14:38:14.117Z</time></trkpt><trkpt lat="42.315007" lon="13.2515907"><ele>1290.25</ele><time>2026-05-02T14:38:15.118Z</time></trkpt><trkpt lat="42.3151259" lon="13.2517269"><ele>1284.5</ele><time>2026-05-02T14:38:16.117Z</time></trkpt><trkpt lat="42.31523" lon="13.2518641"><ele>1278.75</ele><time>2026-05-02T14:38:17.117Z</time></trkpt><trkpt lat="42.315318" lon="13.251997"><ele>1273.0</ele><time>2026-05-02T14:38:18.117Z</time></trkpt><trkpt lat="42.3154057" lon="13.2520992"><ele>1273.0</ele><time>2026-05-02T14:38:19.119Z</time></trkpt><trkpt lat="42.315514" lon="13.252161"><ele>1273.0</ele><time>2026-05-02T14:38:20.118Z</time></trkpt><trkpt lat="42.315656" lon="13.2521909"><ele>1273.0</ele><time>2026-05-02T14:38:21.118Z</time></trkpt><trkpt lat="42.3158207" lon="13.2521807"><ele>1273.0</ele><time>2026-05-02T14:38:22.117Z</time></trkpt><trkpt lat="42.3159816" lon="13.2521392"><ele>1277.5</ele><time>2026-05-02T14:38:23.118Z</time></trkpt><trkpt lat="42.3161361" lon="13.2520844"><ele>1282.0</ele><time>2026-05-02T14:38:24.118Z</time></trkpt><trkpt lat="42.3162609" lon="13.2520412"><ele>1286.5</ele><time>2026-05-02T14:38:25.117Z</time></trkpt><trkpt lat="42.3163666" lon="13.2520081"><ele>1291.0</ele><time>2026-05-02T14:38:26.119Z</time></trkpt><trkpt lat="42.3164562" lon="13.2520013"><ele>1291.0</ele><time>2026-05-02T14:38:27.118Z</time></trkpt><trkpt lat="42.3165359" lon="13.2520304"><ele>1291.0</ele><time>2026-05-02T14:38:28.117Z</time></trkpt><trkpt lat="42.3165987" lon="13.2520972"><ele>1291.0</ele><time>2026-05-02T14:38:29.117Z</time></trkpt><trkpt lat="42.3166399" lon="13.252194"><ele>1291.0</ele><time>2026-05-02T14:38:30.117Z</time></trkpt><trkpt lat="42.3166528" lon="13.2523029"><ele>1291.0</ele><time>2026-05-02T14:38:31.118Z</time></trkpt><trkpt lat="42.3166309" lon="13.2524364"><ele>1291.0</ele><time>2026-05-02T14:38:32.118Z</time></trkpt><trkpt lat="42.3165758" lon="13.25256"><ele>1288.1666666666665</ele><time>2026-05-02T14:38:33.118Z</time></trkpt><trkpt lat="42.3165029" lon="13.25268"><ele>1285.3333333333333</ele><time>2026-05-02T14:38:34.118Z</time></trkpt><trkpt lat="42.3164509" lon="13.2527924"><ele>1282.5</ele><time>2026-05-02T14:38:35.117Z</time></trkpt><trkpt lat="42.3164264" lon="13.2529025"><ele>1279.6666666666667</ele><time>2026-05-02T14:38:36.117Z</time></trkpt><trkpt lat="42.3164451" lon="13.2530001"><ele>1276.8333333333335</ele><time>2026-05-02T14:38:37.118Z</time></trkpt><trkpt lat="42.3164995" lon="13.2530558"><ele>1274.0</ele><time>2026-05-02T14:38:38.118Z</time></trkpt><trkpt lat="42.3165815" lon="13.2530657"><ele>1274.0</ele><time>2026-05-02T14:38:39.119Z</time></trkpt><trkpt lat="42.3166895" lon="13.253042"><ele>1274.0</ele><time>2026-05-02T14:38:40.119Z</time></trkpt><trkpt lat="42.3168225" lon="13.2530012"><ele>1274.0</ele><time>2026-05-02T14:38:41.119Z</time></trkpt><trkpt lat="42.3169803" lon="13.2529488"><ele>1274.0</ele><time>2026-05-02T14:38:42.118Z</time></trkpt><trkpt lat="42.3171623" lon="13.2528858"><ele>1274.6666666666667</ele><time>2026-05-02T14:38:43.117Z</time></trkpt><trkpt lat="42.3173611" lon="13.252811"><ele>1275.3333333333333</ele><time>2026-05-02T14:38:44.119Z</time></trkpt><trkpt lat="42.3175692" lon="13.2527302"><ele>1276.0</ele><time>2026-05-02T14:38:45.118Z</time></trkpt><trkpt lat="42.3177614" lon="13.2526653"><ele>1276.0</ele><time>2026-05-02T14:38:46.118Z</time></trkpt><trkpt lat="42.3179565" lon="13.2526125"><ele>1276.0</ele><time>2026-05-02T14:38:47.117Z</time></trkpt><trkpt lat="42.3181667" lon="13.2525771"><ele>1276.0</ele><time>2026-05-02T14:38:48.117Z</time></trkpt><trkpt lat="42.3183648" lon="13.2525594"><ele>1274.0</ele><time>2026-05-02T14:38:49.118Z</time></trkpt><trkpt lat="42.3185586" lon="13.2525423"><ele>1272.0</ele><time>2026-05-02T14:38:50.118Z</time></trkpt><trkpt lat="42.3187647" lon="13.2525089"><ele>1270.0</ele><time>2026-05-02T14:38:51.118Z</time></trkpt><trkpt lat="42.318958" lon="13.2524705"><ele>1268.3333333333333</ele><time>2026-05-02T14:38:52.117Z</time></trkpt><trkpt lat="42.3191331" lon="13.25243"><ele>1266.6666666666667</ele><time>2026-05-02T14:38:53.118Z</time></trkpt><trkpt lat="42.3192901" lon="13.252399"><ele>1265.0</ele><time>2026-05-02T14:38:54.117Z</time></trkpt><trkpt lat="42.3194356" lon="13.2523742"><ele>1265.0</ele><time>2026-05-02T14:38:55.118Z</time></trkpt><trkpt lat="42.3195697" lon="13.2523462"><ele>1265.0</ele><time>2026-05-02T14:38:56.119Z</time></trkpt><trkpt lat="42.3196893" lon="13.2523057"><ele>1265.0</ele><time>2026-05-02T14:38:57.118Z</time></trkpt><trkpt lat="42.3197939" lon="13.2522276"><ele>1265.0</ele><time>2026-05-02T14:38:58.118Z</time></trkpt><trkpt lat="42.3198893" lon="13.2520985"><ele>1270.3333333333335</ele><time>2026-05-02T14:38:59.118Z</time></trkpt><trkpt lat="42.3199942" lon="13.2519459"><ele>1275.6666666666667</ele><time>2026-05-02T14:39:00.117Z</time></trkpt><trkpt lat="42.3201" lon="13.2517856"><ele>1281.0</ele><time>2026-05-02T14:39:01.119Z</time></trkpt><trkpt lat="42.3201877" lon="13.2516226"><ele>1284.0</ele><time>2026-05-02T14:39:02.118Z</time></trkpt><trkpt lat="42.3202601" lon="13.2514511"><ele>1287.0</ele><time>2026-05-02T14:39:03.118Z</time></trkpt><trkpt lat="42.3203253" lon="13.2512804"><ele>1290.0</ele><time>2026-05-02T14:39:04.117Z</time></trkpt><trkpt lat="42.3203936" lon="13.2511377"><ele>1293.0</ele><time>2026-05-02T14:39:05.118Z</time></trkpt><trkpt lat="42.3204506" lon="13.2509949"><ele>1293.0</ele><time>2026-05-02T14:39:06.118Z</time></trkpt><trkpt lat="42.3205003" lon="13.2508422"><ele>1293.0</ele><time>2026-05-02T14:39:07.117Z</time></trkpt><trkpt lat="42.3205177" lon="13.2507104"><ele>1293.0</ele><time>2026-05-02T14:39:08.117Z</time></trkpt><trkpt lat="42.3205479" lon="13.2505843"><ele>1293.0</ele><time>2026-05-02T14:39:09.118Z</time></trkpt><trkpt lat="42.3206173" lon="13.2504797"><ele>1293.0</ele><time>2026-05-02T14:39:10.117Z</time></trkpt><trkpt lat="42.3207073" lon="13.2504001"><ele>1288.25</ele><time>2026-05-02T14:39:11.117Z</time></trkpt><trkpt lat="42.320831" lon="13.2503611"><ele>1283.5</ele><time>2026-05-02T14:39:12.118Z</time></trkpt><trkpt lat="42.3209563" lon="13.2503723"><ele>1278.75</ele><time>2026-05-02T14:39:13.118Z</time></trkpt><trkpt lat="42.3211046" lon="13.2504191"><ele>1274.0</ele><time>2026-05-02T14:39:14.118Z</time></trkpt><trkpt lat="42.3212632" lon="13.2505016"><ele>1267.3333333333335</ele><time>2026-05-02T14:39:15.118Z</time></trkpt><trkpt lat="42.3214192" lon="13.250583"><ele>1260.6666666666667</ele><time>2026-05-02T14:39:16.118Z</time></trkpt><trkpt lat="42.3215592" lon="13.2506571"><ele>1254.0</ele><time>2026-05-02T14:39:17.117Z</time></trkpt><trkpt lat="42.3216913" lon="13.250734"><ele>1253.0</ele><time>2026-05-02T14:39:18.117Z</time></trkpt><trkpt lat="42.321809" lon="13.2508155"><ele>1252.0</ele><time>2026-05-02T14:39:19.118Z</time></trkpt><trkpt lat="42.3219122" lon="13.2509028"><ele>1251.0</ele><time>2026-05-02T14:39:20.117Z</time></trkpt><trkpt lat="42.3219901" lon="13.250986"><ele>1250.0</ele><time>2026-05-02T14:39:21.117Z</time></trkpt><trkpt lat="42.3220461" lon="13.2510634"><ele>1249.0</ele><time>2026-05-02T14:39:22.118Z</time></trkpt><trkpt lat="42.322045" lon="13.2512276"><ele>1249.0</ele><time>2026-05-02T14:39:24.117Z</time></trkpt><trkpt lat="42.3219282" lon="13.2512931"><ele>1249.0</ele><time>2026-05-02T14:39:26.118Z</time></trkpt><trkpt lat="42.3218268" lon="13.2512852"><ele>1249.0</ele><time>2026-05-02T14:39:27.117Z</time></trkpt><trkpt lat="42.3217129" lon="13.251266"><ele>1249.0</ele><time>2026-05-02T14:39:28.117Z</time></trkpt><trkpt lat="42.3216111" lon="13.2512142"><ele>1249.0</ele><time>2026-05-02T14:39:29.117Z</time></trkpt><trkpt lat="42.3215036" lon="13.25112"><ele>1249.0</ele><time>2026-05-02T14:39:30.118Z</time></trkpt><trkpt lat="42.3213984" lon="13.2509839"><ele>1249.0</ele><time>2026-05-02T14:39:31.118Z</time></trkpt><trkpt lat="42.3213009" lon="13.2508507"><ele>1249.0</ele><time>2026-05-02T14:39:32.117Z</time></trkpt><trkpt lat="42.3212019" lon="13.2507392"><ele>1249.4</ele><time>2026-05-02T14:39:33.118Z</time></trkpt><trkpt lat="42.3210993" lon="13.2506653"><ele>1249.8000000000002</ele><time>2026-05-02T14:39:34.117Z</time></trkpt><trkpt lat="42.3210011" lon="13.2506259"><ele>1250.1999999999998</ele><time>2026-05-02T14:39:35.117Z</time></trkpt><trkpt lat="42.320911" lon="13.2506082"><ele>1250.6</ele><time>2026-05-02T14:39:36.117Z</time></trkpt><trkpt lat="42.3208361" lon="13.2506201"><ele>1251.0</ele><time>2026-05-02T14:39:37.117Z</time></trkpt><trkpt lat="42.3207577" lon="13.2506342"><ele>1251.0</ele><time>2026-05-02T14:39:38.117Z</time></trkpt><trkpt lat="42.3207508" lon="13.2507512"><ele>1251.0</ele><time>2026-05-02T14:39:39.117Z</time></trkpt><trkpt lat="42.3207036" lon="13.2508379"><ele>1251.0</ele><time>2026-05-02T14:39:40.118Z</time></trkpt><trkpt lat="42.3206748" lon="13.2509852"><ele>1251.0</ele><time>2026-05-02T14:39:41.118Z</time></trkpt><trkpt lat="42.3206175" lon="13.2511284"><ele>1251.0</ele><time>2026-05-02T14:39:42.118Z</time></trkpt><trkpt lat="42.3205618" lon="13.2513062"><ele>1261.0</ele><time>2026-05-02T14:39:43.117Z</time></trkpt><trkpt lat="42.3204688" lon="13.2515839"><ele>1271.0</ele><time>2026-05-02T14:39:44.117Z</time></trkpt><trkpt lat="42.3203972" lon="13.2517722"><ele>1281.0</ele><time>2026-05-02T14:39:45.118Z</time></trkpt><trkpt lat="42.3203145" lon="13.2519623"><ele>1281.0</ele><time>2026-05-02T14:39:46.118Z</time></trkpt><trkpt lat="42.3202353" lon="13.2521348"><ele>1281.0</ele><time>2026-05-02T14:39:47.118Z</time></trkpt><trkpt lat="42.3201606" lon="13.2522927"><ele>1281.0</ele><time>2026-05-02T14:39:48.117Z</time></trkpt><trkpt lat="42.3201" lon="13.25245"><ele>1281.0</ele><time>2026-05-02T14:39:49.119Z</time></trkpt><trkpt lat="42.3200391" lon="13.2525904"><ele>1277.0</ele><time>2026-05-02T14:39:50.118Z</time></trkpt><trkpt lat="42.3199603" lon="13.2527003"><ele>1273.0</ele><time>2026-05-02T14:39:51.118Z</time></trkpt><trkpt lat="42.3198633" lon="13.2527884"><ele>1269.0</ele><time>2026-05-02T14:39:52.118Z</time></trkpt><trkpt lat="42.3197532" lon="13.2528597"><ele>1265.0</ele><time>2026-05-02T14:39:53.119Z</time></trkpt><trkpt lat="42.3196236" lon="13.252913"><ele>1265.0</ele><time>2026-05-02T14:39:54.118Z</time></trkpt><trkpt lat="42.3194742" lon="13.2529566"><ele>1265.0</ele><time>2026-05-02T14:39:55.119Z</time></trkpt><trkpt lat="42.3193067" lon="13.2530082"><ele>1265.0</ele><time>2026-05-02T14:39:56.117Z</time></trkpt><trkpt lat="42.3191323" lon="13.2530761"><ele>1254.6666666666667</ele><time>2026-05-02T14:39:57.117Z</time></trkpt><trkpt lat="42.3189749" lon="13.2531477"><ele>1244.3333333333333</ele><time>2026-05-02T14:39:58.118Z</time></trkpt><trkpt lat="42.3188206" lon="13.2532063"><ele>1234.0</ele><time>2026-05-02T14:39:59.117Z</time></trkpt><trkpt lat="42.3186666" lon="13.2532401"><ele>1234.0</ele><time>2026-05-02T14:40:00.117Z</time></trkpt><trkpt lat="42.3185165" lon="13.2532503"><ele>1234.0</ele><time>2026-05-02T14:40:01.118Z</time></trkpt><trkpt lat="42.3183722" lon="13.2532722"><ele>1234.0</ele><time>2026-05-02T14:40:02.117Z</time></trkpt><trkpt lat="42.3182249" lon="13.253323"><ele>1234.0</ele><time>2026-05-02T14:40:03.117Z</time></trkpt><trkpt lat="42.3180755" lon="13.2533943"><ele>1236.6666666666665</ele><time>2026-05-02T14:40:04.117Z</time></trkpt><trkpt lat="42.3179255" lon="13.2534601"><ele>1239.3333333333333</ele><time>2026-05-02T14:40:05.118Z</time></trkpt><trkpt lat="42.3177638" lon="13.253517"><ele>1242.0</ele><time>2026-05-02T14:40:06.118Z</time></trkpt><trkpt lat="42.3175952" lon="13.2535776"><ele>1242.0</ele><time>2026-05-02T14:40:07.117Z</time></trkpt><trkpt lat="42.317431" lon="13.2536438"><ele>1242.0</ele><time>2026-05-02T14:40:08.118Z</time></trkpt><trkpt lat="42.3172503" lon="13.25372"><ele>1242.0</ele><time>2026-05-02T14:40:09.117Z</time></trkpt><trkpt lat="42.3170816" lon="13.2538033"><ele>1245.3333333333333</ele><time>2026-05-02T14:40:10.118Z</time></trkpt><trkpt lat="42.3169102" lon="13.2538926"><ele>1248.6666666666665</ele><time>2026-05-02T14:40:11.117Z</time></trkpt><trkpt lat="42.3167429" lon="13.2539828"><ele>1252.0</ele><time>2026-05-02T14:40:12.118Z</time></trkpt><trkpt lat="42.3165971" lon="13.2540592"><ele>1241.5</ele><time>2026-05-02T14:40:13.118Z</time></trkpt><trkpt lat="42.3164791" lon="13.2541173"><ele>1231.0</ele><time>2026-05-02T14:40:14.117Z</time></trkpt><trkpt lat="42.316376" lon="13.2541544"><ele>1220.5</ele><time>2026-05-02T14:40:15.118Z</time></trkpt><trkpt lat="42.3162679" lon="13.2541606"><ele>1210.0</ele><time>2026-05-02T14:40:16.117Z</time></trkpt><trkpt lat="42.3161505" lon="13.2541154"><ele>1208.3333333333333</ele><time>2026-05-02T14:40:17.117Z</time></trkpt><trkpt lat="42.3160194" lon="13.2540379"><ele>1206.6666666666667</ele><time>2026-05-02T14:40:18.118Z</time></trkpt><trkpt lat="42.3158694" lon="13.2539563"><ele>1205.0</ele><time>2026-05-02T14:40:19.117Z</time></trkpt><trkpt lat="42.3157245" lon="13.2538939"><ele>1205.6</ele><time>2026-05-02T14:40:20.119Z</time></trkpt><trkpt lat="42.3156082" lon="13.2538437"><ele>1206.2</ele><time>2026-05-02T14:40:21.118Z</time></trkpt><trkpt lat="42.3155078" lon="13.2537909"><ele>1206.8</ele><time>2026-05-02T14:40:22.117Z</time></trkpt><trkpt lat="42.3154248" lon="13.2537062"><ele>1207.4</ele><time>2026-05-02T14:40:23.118Z</time></trkpt><trkpt lat="42.3153559" lon="13.2535872"><ele>1208.0</ele><time>2026-05-02T14:40:24.117Z</time></trkpt><trkpt lat="42.3152923" lon="13.2534653"><ele>1208.0</ele><time>2026-05-02T14:40:25.117Z</time></trkpt><trkpt lat="42.3152055" lon="13.25337"><ele>1208.0</ele><time>2026-05-02T14:40:26.117Z</time></trkpt><trkpt lat="42.3150891" lon="13.2532985"><ele>1208.0</ele><time>2026-05-02T14:40:27.118Z</time></trkpt><trkpt lat="42.3149618" lon="13.2532401"><ele>1208.0</ele><time>2026-05-02T14:40:28.119Z</time></trkpt><trkpt lat="42.3148397" lon="13.253187"><ele>1212.4</ele><time>2026-05-02T14:40:29.117Z</time></trkpt><trkpt lat="42.3147516" lon="13.2530768"><ele>1216.8</ele><time>2026-05-02T14:40:30.118Z</time></trkpt><trkpt lat="42.3146605" lon="13.2530035"><ele>1221.2</ele><time>2026-05-02T14:40:31.117Z</time></trkpt><trkpt lat="42.3145594" lon="13.2529644"><ele>1225.6</ele><time>2026-05-02T14:40:32.117Z</time></trkpt><trkpt lat="42.3144418" lon="13.2529799"><ele>1230.0</ele><time>2026-05-02T14:40:33.117Z</time></trkpt><trkpt lat="42.3143105" lon="13.2530334"><ele>1230.0</ele><time>2026-05-02T14:40:34.117Z</time></trkpt><trkpt lat="42.3141797" lon="13.2531108"><ele>1230.0</ele><time>2026-05-02T14:40:35.117Z</time></trkpt><trkpt lat="42.3140751" lon="13.2532026"><ele>1230.0</ele><time>2026-05-02T14:40:36.118Z</time></trkpt><trkpt lat="42.3139933" lon="13.2533333"><ele>1230.0</ele><time>2026-05-02T14:40:37.117Z</time></trkpt><trkpt lat="42.3139124" lon="13.2535048"><ele>1229.25</ele><time>2026-05-02T14:40:38.118Z</time></trkpt><trkpt lat="42.3138206" lon="13.2536738"><ele>1228.5</ele><time>2026-05-02T14:40:39.118Z</time></trkpt><trkpt lat="42.3137277" lon="13.2538248"><ele>1227.75</ele><time>2026-05-02T14:40:40.118Z</time></trkpt><trkpt lat="42.3136567" lon="13.2539824"><ele>1227.0</ele><time>2026-05-02T14:40:41.119Z</time></trkpt><trkpt lat="42.3136116" lon="13.2541667"><ele>1227.0</ele><time>2026-05-02T14:40:42.118Z</time></trkpt><trkpt lat="42.313584" lon="13.2543542"><ele>1227.0</ele><time>2026-05-02T14:40:43.117Z</time></trkpt><trkpt lat="42.3135529" lon="13.2545441"><ele>1227.0</ele><time>2026-05-02T14:40:44.117Z</time></trkpt><trkpt lat="42.3135145" lon="13.2547382"><ele>1227.0</ele><time>2026-05-02T14:40:45.117Z</time></trkpt><trkpt lat="42.3134716" lon="13.2549192"><ele>1223.4</ele><time>2026-05-02T14:40:46.118Z</time></trkpt><trkpt lat="42.3134273" lon="13.2550656"><ele>1219.8000000000002</ele><time>2026-05-02T14:40:47.117Z</time></trkpt><trkpt lat="42.3133739" lon="13.2551794"><ele>1216.2</ele><time>2026-05-02T14:40:48.117Z</time></trkpt><trkpt lat="42.3133132" lon="13.255256"><ele>1212.6000000000001</ele><time>2026-05-02T14:40:49.119Z</time></trkpt><trkpt lat="42.3132245" lon="13.2552963"><ele>1209.0</ele><time>2026-05-02T14:40:50.118Z</time></trkpt><trkpt lat="42.3131134" lon="13.2552851"><ele>1213.6666666666667</ele><time>2026-05-02T14:40:51.117Z</time></trkpt><trkpt lat="42.3129799" lon="13.255239"><ele>1218.3333333333335</ele><time>2026-05-02T14:40:52.117Z</time></trkpt><trkpt lat="42.3128245" lon="13.2551817"><ele>1223.0</ele><time>2026-05-02T14:40:53.117Z</time></trkpt><trkpt lat="42.3126628" lon="13.2551253"><ele>1223.0</ele><time>2026-05-02T14:40:54.117Z</time></trkpt><trkpt lat="42.3125715" lon="13.2551477"><ele>1223.0</ele><time>2026-05-02T14:40:55.118Z</time></trkpt><trkpt lat="42.3124564" lon="13.2551776"><ele>1223.0</ele><time>2026-05-02T14:40:56.119Z</time></trkpt><trkpt lat="42.312368" lon="13.2552596"><ele>1223.0</ele><time>2026-05-02T14:40:57.118Z</time></trkpt><trkpt lat="42.3122762" lon="13.25534"><ele>1223.0</ele><time>2026-05-02T14:40:58.118Z</time></trkpt><trkpt lat="42.312278" lon="13.2555195"><ele>1216.5</ele><time>2026-05-02T14:40:59.117Z</time></trkpt><trkpt lat="42.3122752" lon="13.2556986"><ele>1210.0</ele><time>2026-05-02T14:41:00.118Z</time></trkpt><trkpt lat="42.3122861" lon="13.255904"><ele>1203.5</ele><time>2026-05-02T14:41:01.117Z</time></trkpt><trkpt lat="42.3122902" lon="13.2560739"><ele>1197.0</ele><time>2026-05-02T14:41:02.119Z</time></trkpt><trkpt lat="42.3122885" lon="13.2562111"><ele>1197.0</ele><time>2026-05-02T14:41:03.118Z</time></trkpt><trkpt lat="42.3122563" lon="13.2563412"><ele>1197.0</ele><time>2026-05-02T14:41:04.118Z</time></trkpt><trkpt lat="42.3121861" lon="13.2564617"><ele>1197.0</ele><time>2026-05-02T14:41:05.117Z</time></trkpt><trkpt lat="42.3120934" lon="13.2565656"><ele>1197.0</ele><time>2026-05-02T14:41:06.117Z</time></trkpt><trkpt lat="42.3119994" lon="13.256634"><ele>1197.0</ele><time>2026-05-02T14:41:07.117Z</time></trkpt><trkpt lat="42.3118945" lon="13.2566596"><ele>1196.0</ele><time>2026-05-02T14:41:08.118Z</time></trkpt><trkpt lat="42.3117641" lon="13.2566344"><ele>1195.0</ele><time>2026-05-02T14:41:09.119Z</time></trkpt><trkpt lat="42.3116236" lon="13.2565684"><ele>1194.0</ele><time>2026-05-02T14:41:10.118Z</time></trkpt><trkpt lat="42.3115109" lon="13.2565173"><ele>1193.0</ele><time>2026-05-02T14:41:11.118Z</time></trkpt><trkpt lat="42.3114004" lon="13.2565"><ele>1197.25</ele><time>2026-05-02T14:41:12.117Z</time></trkpt><trkpt lat="42.3112948" lon="13.2565312"><ele>1201.5</ele><time>2026-05-02T14:41:13.118Z</time></trkpt><trkpt lat="42.3111886" lon="13.2566162"><ele>1205.75</ele><time>2026-05-02T14:41:14.118Z</time></trkpt><trkpt lat="42.3110898" lon="13.2567485"><ele>1210.0</ele><time>2026-05-02T14:41:15.118Z</time></trkpt><trkpt lat="42.3109976" lon="13.2569396"><ele>1210.0</ele><time>2026-05-02T14:41:16.118Z</time></trkpt><trkpt lat="42.31091" lon="13.2571654"><ele>1210.0</ele><time>2026-05-02T14:41:17.118Z</time></trkpt><trkpt lat="42.3108343" lon="13.2573645"><ele>1210.0</ele><time>2026-05-02T14:41:18.118Z</time></trkpt><trkpt lat="42.3107578" lon="13.2575458"><ele>1209.25</ele><time>2026-05-02T14:41:19.118Z</time></trkpt><trkpt lat="42.310674" lon="13.257694"><ele>1208.5</ele><time>2026-05-02T14:41:20.118Z</time></trkpt><trkpt lat="42.310578" lon="13.2578114"><ele>1207.75</ele><time>2026-05-02T14:41:21.117Z</time></trkpt><trkpt lat="42.3104696" lon="13.2578972"><ele>1207.0</ele><time>2026-05-02T14:41:22.118Z</time></trkpt><trkpt lat="42.3103446" lon="13.2579402"><ele>1207.0</ele><time>2026-05-02T14:41:23.117Z</time></trkpt><trkpt lat="42.3101939" lon="13.2579529"><ele>1207.0</ele><time>2026-05-02T14:41:24.117Z</time></trkpt><trkpt lat="42.3100673" lon="13.2579725"><ele>1207.0</ele><time>2026-05-02T14:41:25.118Z</time></trkpt><trkpt lat="42.3099572" lon="13.2580296"><ele>1207.0</ele><time>2026-05-02T14:41:26.117Z</time></trkpt><trkpt lat="42.3098554" lon="13.2581342"><ele>1203.6666666666665</ele><time>2026-05-02T14:41:27.118Z</time></trkpt><trkpt lat="42.3097596" lon="13.2582926"><ele>1200.3333333333333</ele><time>2026-05-02T14:41:28.117Z</time></trkpt><trkpt lat="42.309656" lon="13.2584855"><ele>1197.0</ele><time>2026-05-02T14:41:29.118Z</time></trkpt><trkpt lat="42.30956" lon="13.2586504"><ele>1197.0</ele><time>2026-05-02T14:41:30.117Z</time></trkpt><trkpt lat="42.3094561" lon="13.2588047"><ele>1197.0</ele><time>2026-05-02T14:41:31.118Z</time></trkpt><trkpt lat="42.3093431" lon="13.258925"><ele>1197.0</ele><time>2026-05-02T14:41:32.117Z</time></trkpt><trkpt lat="42.3092094" lon="13.2590134"><ele>1197.0</ele><time>2026-05-02T14:41:33.118Z</time></trkpt><trkpt lat="42.3090392" lon="13.2590871"><ele>1190.6666666666667</ele><time>2026-05-02T14:41:34.117Z</time></trkpt><trkpt lat="42.3088545" lon="13.259171"><ele>1184.3333333333335</ele><time>2026-05-02T14:41:35.117Z</time></trkpt><trkpt lat="42.3086537" lon="13.2592909"><ele>1178.0</ele><time>2026-05-02T14:41:36.118Z</time></trkpt><trkpt lat="42.3084608" lon="13.25942"><ele>1178.0</ele><time>2026-05-02T14:41:37.118Z</time></trkpt><trkpt lat="42.3082834" lon="13.2595466"><ele>1178.0</ele><time>2026-05-02T14:41:38.117Z</time></trkpt><trkpt lat="42.3081309" lon="13.2596642"><ele>1178.0</ele><time>2026-05-02T14:41:39.117Z</time></trkpt><trkpt lat="42.3079913" lon="13.2597672"><ele>1172.5</ele><time>2026-05-02T14:41:40.117Z</time></trkpt><trkpt lat="42.3078568" lon="13.2598574"><ele>1167.0</ele><time>2026-05-02T14:41:41.118Z</time></trkpt><trkpt lat="42.3077302" lon="13.2599211"><ele>1161.5</ele><time>2026-05-02T14:41:42.117Z</time></trkpt><trkpt lat="42.3076035" lon="13.2599514"><ele>1156.0</ele><time>2026-05-02T14:41:43.117Z</time></trkpt><trkpt lat="42.3074766" lon="13.2599438"><ele>1156.0</ele><time>2026-05-02T14:41:44.117Z</time></trkpt><trkpt lat="42.3073622" lon="13.2598848"><ele>1156.0</ele><time>2026-05-02T14:41:45.118Z</time></trkpt><trkpt lat="42.3072549" lon="13.2597722"><ele>1156.0</ele><time>2026-05-02T14:41:46.117Z</time></trkpt><trkpt lat="42.3071409" lon="13.2596159"><ele>1156.0</ele><time>2026-05-02T14:41:47.117Z</time></trkpt><trkpt lat="42.3070314" lon="13.2594552"><ele>1155.6666666666665</ele><time>2026-05-02T14:41:48.118Z</time></trkpt><trkpt lat="42.3069358" lon="13.2592815"><ele>1155.3333333333333</ele><time>2026-05-02T14:41:49.118Z</time></trkpt><trkpt lat="42.3068502" lon="13.2590615"><ele>1155.0</ele><time>2026-05-02T14:41:50.119Z</time></trkpt><trkpt lat="42.3067661" lon="13.2588032"><ele>1155.0</ele><time>2026-05-02T14:41:51.118Z</time></trkpt><trkpt lat="42.3066879" lon="13.2585624"><ele>1155.0</ele><time>2026-05-02T14:41:52.118Z</time></trkpt><trkpt lat="42.3066085" lon="13.2583555"><ele>1155.0</ele><time>2026-05-02T14:41:53.117Z</time></trkpt><trkpt lat="42.3065212" lon="13.258183"><ele>1157.0</ele><time>2026-05-02T14:41:54.117Z</time></trkpt><trkpt lat="42.306421" lon="13.258037"><ele>1159.0</ele><time>2026-05-02T14:41:55.117Z</time></trkpt><trkpt lat="42.3063107" lon="13.2579224"><ele>1161.0</ele><time>2026-05-02T14:41:56.119Z</time></trkpt><trkpt lat="42.3061917" lon="13.2578397"><ele>1163.0</ele><time>2026-05-02T14:41:57.118Z</time></trkpt><trkpt lat="42.3060539" lon="13.2577975"><ele>1163.0</ele><time>2026-05-02T14:41:58.117Z</time></trkpt><trkpt lat="42.3058906" lon="13.2577911"><ele>1163.0</ele><time>2026-05-02T14:41:59.117Z</time></trkpt><trkpt lat="42.3057088" lon="13.2578156"><ele>1163.0</ele><time>2026-05-02T14:42:00.117Z</time></trkpt><trkpt lat="42.3055401" lon="13.2578479"><ele>1161.3333333333335</ele><time>2026-05-02T14:42:01.118Z</time></trkpt><trkpt lat="42.3053794" lon="13.2578839"><ele>1159.6666666666667</ele><time>2026-05-02T14:42:02.117Z</time></trkpt><trkpt lat="42.3052313" lon="13.2579044"><ele>1158.0</ele><time>2026-05-02T14:42:03.117Z</time></trkpt><trkpt lat="42.3050741" lon="13.2578935"><ele>1158.0</ele><time>2026-05-02T14:42:04.117Z</time></trkpt><trkpt lat="42.3049078" lon="13.2578655"><ele>1158.0</ele><time>2026-05-02T14:42:05.117Z</time></trkpt><trkpt lat="42.3047469" lon="13.2578557"><ele>1158.0</ele><time>2026-05-02T14:42:06.118Z</time></trkpt><trkpt lat="42.3045635" lon="13.2578833"><ele>1160.0</ele><time>2026-05-02T14:42:07.119Z</time></trkpt><trkpt lat="42.3043578" lon="13.257949"><ele>1162.0</ele><time>2026-05-02T14:42:08.118Z</time></trkpt><trkpt lat="42.3041418" lon="13.2580258"><ele>1164.0</ele><time>2026-05-02T14:42:09.117Z</time></trkpt><trkpt lat="42.3039416" lon="13.258103"><ele>1152.3333333333333</ele><time>2026-05-02T14:42:10.117Z</time></trkpt><trkpt lat="42.3037579" lon="13.2581733"><ele>1140.6666666666665</ele><time>2026-05-02T14:42:11.117Z</time></trkpt><trkpt lat="42.3036025" lon="13.2582308"><ele>1129.0</ele><time>2026-05-02T14:42:12.117Z</time></trkpt><trkpt lat="42.3034632" lon="13.2582834"><ele>1129.0</ele><time>2026-05-02T14:42:13.118Z</time></trkpt><trkpt lat="42.3033458" lon="13.2583129"><ele>1129.0</ele><time>2026-05-02T14:42:14.118Z</time></trkpt><trkpt lat="42.3032359" lon="13.2583083"><ele>1129.0</ele><time>2026-05-02T14:42:15.118Z</time></trkpt><trkpt lat="42.303129" lon="13.2582559"><ele>1129.0</ele><time>2026-05-02T14:42:16.117Z</time></trkpt><trkpt lat="42.3030173" lon="13.2581535"><ele>1130.3333333333333</ele><time>2026-05-02T14:42:17.118Z</time></trkpt><trkpt lat="42.3028985" lon="13.258012"><ele>1131.6666666666667</ele><time>2026-05-02T14:42:18.119Z</time></trkpt><trkpt lat="42.3027635" lon="13.2578494"><ele>1133.0</ele><time>2026-05-02T14:42:19.117Z</time></trkpt><trkpt lat="42.3026053" lon="13.2576604"><ele>1133.0</ele><time>2026-05-02T14:42:20.117Z</time></trkpt><trkpt lat="42.3024549" lon="13.2574787"><ele>1133.0</ele><time>2026-05-02T14:42:21.118Z</time></trkpt><trkpt lat="42.3023094" lon="13.2573224"><ele>1133.0</ele><time>2026-05-02T14:42:22.119Z</time></trkpt><trkpt lat="42.3021563" lon="13.2571878"><ele>1132.0</ele><time>2026-05-02T14:42:23.118Z</time></trkpt><trkpt lat="42.3019893" lon="13.2570691"><ele>1131.0</ele><time>2026-05-02T14:42:24.117Z</time></trkpt><trkpt lat="42.3018436" lon="13.2569658"><ele>1130.0</ele><time>2026-05-02T14:42:25.118Z</time></trkpt><trkpt lat="42.3017123" lon="13.2568766"><ele>1130.0</ele><time>2026-05-02T14:42:26.117Z</time></trkpt><trkpt lat="42.3015987" lon="13.2568183"><ele>1130.0</ele><time>2026-05-02T14:42:27.117Z</time></trkpt><trkpt lat="42.3014921" lon="13.2567997"><ele>1130.0</ele><time>2026-05-02T14:42:28.118Z</time></trkpt><trkpt lat="42.3014024" lon="13.2568345"><ele>1130.0</ele><time>2026-05-02T14:42:29.117Z</time></trkpt><trkpt lat="42.3013291" lon="13.2569169"><ele>1130.0</ele><time>2026-05-02T14:42:30.118Z</time></trkpt><trkpt lat="42.3012609" lon="13.2570354"><ele>1137.0</ele><time>2026-05-02T14:42:31.117Z</time></trkpt><trkpt lat="42.3012064" lon="13.2572175"><ele>1144.0</ele><time>2026-05-02T14:42:32.117Z</time></trkpt><trkpt lat="42.3011624" lon="13.2574247"><ele>1151.0</ele><time>2026-05-02T14:42:33.117Z</time></trkpt><trkpt lat="42.3011225" lon="13.2576729"><ele>1151.0</ele><time>2026-05-02T14:42:34.117Z</time></trkpt><trkpt lat="42.3010834" lon="13.257909"><ele>1151.0</ele><time>2026-05-02T14:42:35.117Z</time></trkpt><trkpt lat="42.3010492" lon="13.2582051"><ele>1151.0</ele><time>2026-05-02T14:42:36.118Z</time></trkpt><trkpt lat="42.3010216" lon="13.2584505"><ele>1147.0</ele><time>2026-05-02T14:42:37.117Z</time></trkpt><trkpt lat="42.3009998" lon="13.2586974"><ele>1143.0</ele><time>2026-05-02T14:42:38.117Z</time></trkpt><trkpt lat="42.3009937" lon="13.258944"><ele>1139.0</ele><time>2026-05-02T14:42:39.118Z</time></trkpt><trkpt lat="42.3009955" lon="13.2592193"><ele>1137.6666666666667</ele><time>2026-05-02T14:42:40.118Z</time></trkpt><trkpt lat="42.3010054" lon="13.2594905"><ele>1136.3333333333333</ele><time>2026-05-02T14:42:41.118Z</time></trkpt><trkpt lat="42.3010312" lon="13.2597505"><ele>1135.0</ele><time>2026-05-02T14:42:42.118Z</time></trkpt><trkpt lat="42.3010698" lon="13.259992"><ele>1134.0</ele><time>2026-05-02T14:42:43.118Z</time></trkpt><trkpt lat="42.3011105" lon="13.2602193"><ele>1133.0</ele><time>2026-05-02T14:42:44.118Z</time></trkpt><trkpt lat="42.3011423" lon="13.260455"><ele>1132.0</ele><time>2026-05-02T14:42:45.118Z</time></trkpt><trkpt lat="42.3011654" lon="13.2606283"><ele>1129.4</ele><time>2026-05-02T14:42:46.118Z</time></trkpt><trkpt lat="42.3011781" lon="13.2607901"><ele>1126.8000000000002</ele><time>2026-05-02T14:42:47.117Z</time></trkpt><trkpt lat="42.3011645" lon="13.2609285"><ele>1124.2</ele><time>2026-05-02T14:42:48.117Z</time></trkpt><trkpt lat="42.3011159" lon="13.2610353"><ele>1121.6000000000001</ele><time>2026-05-02T14:42:49.118Z</time></trkpt><trkpt lat="42.301022" lon="13.2611462"><ele>1119.0</ele><time>2026-05-02T14:42:50.117Z</time></trkpt><trkpt lat="42.3008965" lon="13.2612617"><ele>1119.0</ele><time>2026-05-02T14:42:51.119Z</time></trkpt><trkpt lat="42.3007698" lon="13.2613551"><ele>1119.0</ele><time>2026-05-02T14:42:52.117Z</time></trkpt><trkpt lat="42.3006234" lon="13.2614286"><ele>1119.0</ele><time>2026-05-02T14:42:53.118Z</time></trkpt><trkpt lat="42.3004979" lon="13.2614938"><ele>1119.0</ele><time>2026-05-02T14:42:54.118Z</time></trkpt><trkpt lat="42.3004011" lon="13.2615837"><ele>1117.25</ele><time>2026-05-02T14:42:55.118Z</time></trkpt><trkpt lat="42.3003187" lon="13.2617127"><ele>1115.5</ele><time>2026-05-02T14:42:56.117Z</time></trkpt><trkpt lat="42.3002489" lon="13.2618782"><ele>1113.75</ele><time>2026-05-02T14:42:57.118Z</time></trkpt><trkpt lat="42.3001984" lon="13.2620253"><ele>1112.0</ele><time>2026-05-02T14:42:58.117Z</time></trkpt><trkpt lat="42.300136" lon="13.2621426"><ele>1112.0</ele><time>2026-05-02T14:42:59.118Z</time></trkpt><trkpt lat="42.3000428" lon="13.2622379"><ele>1112.0</ele><time>2026-05-02T14:43:00.118Z</time></trkpt><trkpt lat="42.2999207" lon="13.262321"><ele>1112.0</ele><time>2026-05-02T14:43:01.117Z</time></trkpt><trkpt lat="42.2997947" lon="13.2624014"><ele>1112.0</ele><time>2026-05-02T14:43:02.117Z</time></trkpt><trkpt lat="42.2996847" lon="13.2624953"><ele>1106.0</ele><time>2026-05-02T14:43:03.117Z</time></trkpt><trkpt lat="42.2995907" lon="13.2625889"><ele>1100.0</ele><time>2026-05-02T14:43:04.117Z</time></trkpt><trkpt lat="42.2994987" lon="13.2626691"><ele>1094.0</ele><time>2026-05-02T14:43:05.118Z</time></trkpt><trkpt lat="42.2994094" lon="13.2626442"><ele>1088.0</ele><time>2026-05-02T14:43:06.118Z</time></trkpt><trkpt lat="42.299324" lon="13.2625962"><ele>1082.0</ele><time>2026-05-02T14:43:07.118Z</time></trkpt><trkpt lat="42.2992469" lon="13.2624934"><ele>1082.0</ele><time>2026-05-02T14:43:08.118Z</time></trkpt><trkpt lat="42.2991785" lon="13.2623389"><ele>1082.0</ele><time>2026-05-02T14:43:09.117Z</time></trkpt><trkpt lat="42.2991188" lon="13.2621461"><ele>1082.0</ele><time>2026-05-02T14:43:10.117Z</time></trkpt><trkpt lat="42.2990721" lon="13.2619664"><ele>1082.0</ele><time>2026-05-02T14:43:11.118Z</time></trkpt><trkpt lat="42.2990322" lon="13.261811"><ele>1084.5</ele><time>2026-05-02T14:43:12.118Z</time></trkpt><trkpt lat="42.2989938" lon="13.261681"><ele>1087.0</ele><time>2026-05-02T14:43:13.118Z</time></trkpt><trkpt lat="42.2989439" lon="13.2615761"><ele>1089.5</ele><time>2026-05-02T14:43:14.118Z</time></trkpt><trkpt lat="42.2988831" lon="13.2615145"><ele>1092.0</ele><time>2026-05-02T14:43:15.118Z</time></trkpt><trkpt lat="42.2988095" lon="13.2614985"><ele>1094.5</ele><time>2026-05-02T14:43:16.118Z</time></trkpt><trkpt lat="42.2987349" lon="13.2615438"><ele>1097.0</ele><time>2026-05-02T14:43:17.119Z</time></trkpt><trkpt lat="42.29865" lon="13.2616338"><ele>1097.0</ele><time>2026-05-02T14:43:18.118Z</time></trkpt><trkpt lat="42.2985521" lon="13.2617417"><ele>1097.0</ele><time>2026-05-02T14:43:19.119Z</time></trkpt><trkpt lat="42.2984525" lon="13.2618397"><ele>1097.0</ele><time>2026-05-02T14:43:20.117Z</time></trkpt><trkpt lat="42.2983524" lon="13.261908"><ele>1097.0</ele><time>2026-05-02T14:43:21.117Z</time></trkpt><trkpt lat="42.2982392" lon="13.2619483"><ele>1097.0</ele><time>2026-05-02T14:43:22.119Z</time></trkpt><trkpt lat="42.2981315" lon="13.261978"><ele>1097.0</ele><time>2026-05-02T14:43:23.118Z</time></trkpt><trkpt lat="42.298032" lon="13.2620371"><ele>1097.0</ele><time>2026-05-02T14:43:24.118Z</time></trkpt><trkpt lat="42.2979511" lon="13.2621299"><ele>1097.0</ele><time>2026-05-02T14:43:25.117Z</time></trkpt><trkpt lat="42.2979015" lon="13.2622463"><ele>1097.0</ele><time>2026-05-02T14:43:26.118Z</time></trkpt><trkpt lat="42.2978902" lon="13.2623931"><ele>1096.5</ele><time>2026-05-02T14:43:27.118Z</time></trkpt><trkpt lat="42.2978867" lon="13.2625531"><ele>1096.0</ele><time>2026-05-02T14:43:28.117Z</time></trkpt><trkpt lat="42.2978678" lon="13.2627211"><ele>1095.5</ele><time>2026-05-02T14:43:29.117Z</time></trkpt><trkpt lat="42.2978306" lon="13.2628783"><ele>1095.0</ele><time>2026-05-02T14:43:30.118Z</time></trkpt><trkpt lat="42.297782" lon="13.2630149"><ele>1089.8</ele><time>2026-05-02T14:43:31.118Z</time></trkpt><trkpt lat="42.2977198" lon="13.2631218"><ele>1084.6</ele><time>2026-05-02T14:43:32.117Z</time></trkpt><trkpt lat="42.2976369" lon="13.2631904"><ele>1079.4</ele><time>2026-05-02T14:43:33.118Z</time></trkpt><trkpt lat="42.2975284" lon="13.2632235"><ele>1074.2</ele><time>2026-05-02T14:43:34.117Z</time></trkpt><trkpt lat="42.2974001" lon="13.2632206"><ele>1069.0</ele><time>2026-05-02T14:43:35.117Z</time></trkpt><trkpt lat="42.2972739" lon="13.2631908"><ele>1072.6000000000001</ele><time>2026-05-02T14:43:36.117Z</time></trkpt><trkpt lat="42.2971651" lon="13.2631588"><ele>1076.2</ele><time>2026-05-02T14:43:37.117Z</time></trkpt><trkpt lat="42.2970608" lon="13.2631671"><ele>1079.8000000000002</ele><time>2026-05-02T14:43:38.119Z</time></trkpt><trkpt lat="42.296964" lon="13.2632294"><ele>1083.4</ele><time>2026-05-02T14:43:39.118Z</time></trkpt><trkpt lat="42.2968712" lon="13.2633338"><ele>1087.0</ele><time>2026-05-02T14:43:40.118Z</time></trkpt><trkpt lat="42.2968063" lon="13.2634562"><ele>1087.0</ele><time>2026-05-02T14:43:41.118Z</time></trkpt><trkpt lat="42.2967726" lon="13.2635918"><ele>1087.0</ele><time>2026-05-02T14:43:42.117Z</time></trkpt><trkpt lat="42.2967706" lon="13.2637506"><ele>1087.0</ele><time>2026-05-02T14:43:43.117Z</time></trkpt><trkpt lat="42.2967814" lon="13.2639002"><ele>1087.0</ele><time>2026-05-02T14:43:44.117Z</time></trkpt><trkpt lat="42.2967795" lon="13.264035"><ele>1087.0</ele><time>2026-05-02T14:43:45.119Z</time></trkpt><trkpt lat="42.2967437" lon="13.2641665"><ele>1083.0</ele><time>2026-05-02T14:43:46.119Z</time></trkpt><trkpt lat="42.2966714" lon="13.2642969"><ele>1079.0</ele><time>2026-05-02T14:43:47.118Z</time></trkpt><trkpt lat="42.2965891" lon="13.2644062"><ele>1075.0</ele><time>2026-05-02T14:43:48.117Z</time></trkpt><trkpt lat="42.2965241" lon="13.2645276"><ele>1071.0</ele><time>2026-05-02T14:43:49.117Z</time></trkpt><trkpt lat="42.2964962" lon="13.2646715"><ele>1067.25</ele><time>2026-05-02T14:43:50.117Z</time></trkpt><trkpt lat="42.2964921" lon="13.2648353"><ele>1063.5</ele><time>2026-05-02T14:43:51.117Z</time></trkpt><trkpt lat="42.2964895" lon="13.2649824"><ele>1059.75</ele><time>2026-05-02T14:43:52.117Z</time></trkpt><trkpt lat="42.2964646" lon="13.2651311"><ele>1056.0</ele><time>2026-05-02T14:43:53.118Z</time></trkpt><trkpt lat="42.2964243" lon="13.2652694"><ele>1059.3333333333333</ele><time>2026-05-02T14:43:54.117Z</time></trkpt><trkpt lat="42.29637" lon="13.2654083"><ele>1062.6666666666667</ele><time>2026-05-02T14:43:55.117Z</time></trkpt><trkpt lat="42.2963317" lon="13.2655208"><ele>1066.0</ele><time>2026-05-02T14:43:56.118Z</time></trkpt><trkpt lat="42.2963001" lon="13.2656147"><ele>1069.3333333333335</ele><time>2026-05-02T14:43:57.118Z</time></trkpt><trkpt lat="42.2962691" lon="13.2656905"><ele>1072.6666666666667</ele><time>2026-05-02T14:43:58.117Z</time></trkpt><trkpt lat="42.2962282" lon="13.2657736"><ele>1076.0</ele><time>2026-05-02T14:44:00.117Z</time></trkpt><trkpt lat="42.2962903" lon="13.2656972"><ele>1076.0</ele><time>2026-05-02T14:44:06.117Z</time></trkpt><trkpt lat="42.2963481" lon="13.2655483"><ele>1076.0</ele><time>2026-05-02T14:44:08.118Z</time></trkpt><trkpt lat="42.2963779" lon="13.2654643"><ele>1076.0</ele><time>2026-05-02T14:44:09.118Z</time></trkpt><trkpt lat="42.2964416" lon="13.2653895"><ele>1076.0</ele><time>2026-05-02T14:44:11.117Z</time></trkpt><trkpt lat="42.2964469" lon="13.2655236"><ele>1076.0</ele><time>2026-05-02T14:44:14.118Z</time></trkpt><trkpt lat="42.2964137" lon="13.2656143"><ele>1076.0</ele><time>2026-05-02T14:44:15.118Z</time></trkpt><trkpt lat="42.29638" lon="13.2657272"><ele>1076.0</ele><time>2026-05-02T14:44:16.117Z</time></trkpt><trkpt lat="42.2963495" lon="13.2658366"><ele>1076.0</ele><time>2026-05-02T14:44:17.117Z</time></trkpt><trkpt lat="42.2963219" lon="13.2659406"><ele>1076.0</ele><time>2026-05-02T14:44:18.117Z</time></trkpt><trkpt lat="42.2962868" lon="13.2660453"><ele>1076.0</ele><time>2026-05-02T14:44:19.118Z</time></trkpt><trkpt lat="42.2963573" lon="13.2661156"><ele>1076.0</ele><time>2026-05-02T14:44:21.117Z</time></trkpt><trkpt lat="42.2964215" lon="13.2661018"><ele>1068.5</ele><time>2026-05-02T14:44:22.118Z</time></trkpt><trkpt lat="42.2965116" lon="13.2660591"><ele>1061.0</ele><time>2026-05-02T14:44:23.117Z</time></trkpt><trkpt lat="42.2966302" lon="13.2659991"><ele>1053.5</ele><time>2026-05-02T14:44:24.117Z</time></trkpt><trkpt lat="42.2967615" lon="13.265952"><ele>1046.0</ele><time>2026-05-02T14:44:25.117Z</time></trkpt><trkpt lat="42.2968708" lon="13.2659301"><ele>1046.0</ele><time>2026-05-02T14:44:26.117Z</time></trkpt><trkpt lat="42.2969743" lon="13.2659305"><ele>1046.0</ele><time>2026-05-02T14:44:27.118Z</time></trkpt><trkpt lat="42.2970582" lon="13.2659697"><ele>1046.0</ele><time>2026-05-02T14:44:28.117Z</time></trkpt><trkpt lat="42.2971376" lon="13.2660556"><ele>1046.0</ele><time>2026-05-02T14:44:29.118Z</time></trkpt><trkpt lat="42.2971854" lon="13.2661529"><ele>1046.0</ele><time>2026-05-02T14:44:30.117Z</time></trkpt><trkpt lat="42.2972001" lon="13.2662469"><ele>1046.0</ele><time>2026-05-02T14:44:31.117Z</time></trkpt><trkpt lat="42.2971738" lon="13.2663293"><ele>1046.0</ele><time>2026-05-02T14:44:32.117Z</time></trkpt><trkpt lat="42.2971136" lon="13.2663634"><ele>1046.0</ele><time>2026-05-02T14:44:33.117Z</time></trkpt><trkpt lat="42.2970307" lon="13.2663754"><ele>1046.0</ele><time>2026-05-02T14:44:34.118Z</time></trkpt><trkpt lat="42.2969363" lon="13.2664047"><ele>1046.0</ele><time>2026-05-02T14:44:35.117Z</time></trkpt><trkpt lat="42.296858" lon="13.2664765"><ele>1046.0</ele><time>2026-05-02T14:44:36.118Z</time></trkpt><trkpt lat="42.2967974" lon="13.2665892"><ele>1042.25</ele><time>2026-05-02T14:44:37.118Z</time></trkpt><trkpt lat="42.2967348" lon="13.2667324"><ele>1038.5</ele><time>2026-05-02T14:44:38.119Z</time></trkpt><trkpt lat="42.2966746" lon="13.2668867"><ele>1034.75</ele><time>2026-05-02T14:44:39.117Z</time></trkpt><trkpt lat="42.296611" lon="13.2670443"><ele>1031.0</ele><time>2026-05-02T14:44:40.118Z</time></trkpt><trkpt lat="42.2965462" lon="13.2671988"><ele>1033.75</ele><time>2026-05-02T14:44:41.117Z</time></trkpt><trkpt lat="42.2964832" lon="13.2673668"><ele>1036.5</ele><time>2026-05-02T14:44:42.118Z</time></trkpt><trkpt lat="42.2964288" lon="13.2675371"><ele>1039.25</ele><time>2026-05-02T14:44:43.118Z</time></trkpt><trkpt lat="42.296384" lon="13.2677059"><ele>1042.0</ele><time>2026-05-02T14:44:44.118Z</time></trkpt><trkpt lat="42.2963577" lon="13.2678936"><ele>1042.0</ele><time>2026-05-02T14:44:45.118Z</time></trkpt><trkpt lat="42.2963399" lon="13.2681005"><ele>1042.0</ele><time>2026-05-02T14:44:46.118Z</time></trkpt><trkpt lat="42.2963257" lon="13.2683063"><ele>1042.0</ele><time>2026-05-02T14:44:47.117Z</time></trkpt><trkpt lat="42.2962936" lon="13.2684994"><ele>1036.25</ele><time>2026-05-02T14:44:48.118Z</time></trkpt><trkpt lat="42.2962412" lon="13.2686906"><ele>1030.5</ele><time>2026-05-02T14:44:49.117Z</time></trkpt><trkpt lat="42.2961731" lon="13.2688832"><ele>1024.75</ele><time>2026-05-02T14:44:50.118Z</time></trkpt><trkpt lat="42.2961074" lon="13.2690458"><ele>1019.0</ele><time>2026-05-02T14:44:51.118Z</time></trkpt><trkpt lat="42.2960474" lon="13.2691868"><ele>1015.6</ele><time>2026-05-02T14:44:52.117Z</time></trkpt><trkpt lat="42.2959993" lon="13.269293"><ele>1012.2</ele><time>2026-05-02T14:44:53.118Z</time></trkpt><trkpt lat="42.2959683" lon="13.2693842"><ele>1008.8000000000001</ele><time>2026-05-02T14:44:54.118Z</time></trkpt><trkpt lat="42.2959935" lon="13.2695253"><ele>1005.4000000000001</ele><time>2026-05-02T14:44:56.118Z</time></trkpt><trkpt lat="42.2961257" lon="13.2695056"><ele>1002.0</ele><time>2026-05-02T14:44:58.117Z</time></trkpt><trkpt lat="42.2962036" lon="13.269473"><ele>1002.0</ele><time>2026-05-02T14:44:59.117Z</time></trkpt><trkpt lat="42.2963309" lon="13.2693571"><ele>1002.0</ele><time>2026-05-02T14:45:00.117Z</time></trkpt><trkpt lat="42.2964673" lon="13.2692672"><ele>1002.0</ele><time>2026-05-02T14:45:01.117Z</time></trkpt><trkpt lat="42.2965789" lon="13.2692084"><ele>1002.0</ele><time>2026-05-02T14:45:02.118Z</time></trkpt><trkpt lat="42.2966773" lon="13.2691675"><ele>997.6</ele><time>2026-05-02T14:45:03.117Z</time></trkpt><trkpt lat="42.29676" lon="13.2691625"><ele>993.2</ele><time>2026-05-02T14:45:04.118Z</time></trkpt><trkpt lat="42.2968458" lon="13.2691645"><ele>988.8</ele><time>2026-05-02T14:45:05.118Z</time></trkpt><trkpt lat="42.2968643" lon="13.2693051"><ele>984.4</ele><time>2026-05-02T14:45:06.118Z</time></trkpt><trkpt lat="42.2969109" lon="13.269441"><ele>980.0</ele><time>2026-05-02T14:45:07.117Z</time></trkpt><trkpt lat="42.2969478" lon="13.2696161"><ele>978.3333333333334</ele><time>2026-05-02T14:45:08.117Z</time></trkpt><trkpt lat="42.29698" lon="13.2698271"><ele>976.6666666666667</ele><time>2026-05-02T14:45:09.117Z</time></trkpt><trkpt lat="42.2970046" lon="13.2700436"><ele>975.0</ele><time>2026-05-02T14:45:10.118Z</time></trkpt><trkpt lat="42.297036" lon="13.2702603"><ele>975.0</ele><time>2026-05-02T14:45:11.118Z</time></trkpt><trkpt lat="42.2970617" lon="13.2704567"><ele>975.0</ele><time>2026-05-02T14:45:12.117Z</time></trkpt><trkpt lat="42.2970893" lon="13.2706581"><ele>975.0</ele><time>2026-05-02T14:45:13.117Z</time></trkpt><trkpt lat="42.297159" lon="13.2708383"><ele>975.0</ele><time>2026-05-02T14:45:14.119Z</time></trkpt><trkpt lat="42.2972171" lon="13.2710208"><ele>968.5</ele><time>2026-05-02T14:45:15.117Z</time></trkpt><trkpt lat="42.2972765" lon="13.2711834"><ele>962.0</ele><time>2026-05-02T14:45:16.117Z</time></trkpt><trkpt lat="42.2973551" lon="13.2713431"><ele>955.5</ele><time>2026-05-02T14:45:17.118Z</time></trkpt><trkpt lat="42.2974553" lon="13.2714977"><ele>949.0</ele><time>2026-05-02T14:45:18.118Z</time></trkpt><trkpt lat="42.2975626" lon="13.2716301"><ele>948.8000000000001</ele><time>2026-05-02T14:45:19.117Z</time></trkpt><trkpt lat="42.2976722" lon="13.2717593"><ele>948.6000000000001</ele><time>2026-05-02T14:45:20.118Z</time></trkpt><trkpt lat="42.2977505" lon="13.2718328"><ele>948.4</ele><time>2026-05-02T14:45:21.118Z</time></trkpt><trkpt lat="42.2978472" lon="13.2719116"><ele>948.2</ele><time>2026-05-02T14:45:22.119Z</time></trkpt><trkpt lat="42.297923" lon="13.2719387"><ele>948.0</ele><time>2026-05-02T14:45:23.117Z</time></trkpt><trkpt lat="42.2979621" lon="13.2718451"><ele>948.0</ele><time>2026-05-02T14:45:24.117Z</time></trkpt><trkpt lat="42.2980104" lon="13.2717636"><ele>948.0</ele><time>2026-05-02T14:45:25.118Z</time></trkpt><trkpt lat="42.2980641" lon="13.2716699"><ele>948.0</ele><time>2026-05-02T14:45:26.117Z</time></trkpt><trkpt lat="42.2981" lon="13.2715481"><ele>948.0</ele><time>2026-05-02T14:45:27.117Z</time></trkpt><trkpt lat="42.2981634" lon="13.2714227"><ele>948.0</ele><time>2026-05-02T14:45:29.118Z</time></trkpt><trkpt lat="42.2981066" lon="13.2715275"><ele>947.9999999999999</ele><time>2026-05-02T14:45:37.118Z</time></trkpt><trkpt lat="42.2980726" lon="13.2715996"><ele>948.0</ele><time>2026-05-02T14:45:38.118Z</time></trkpt><trkpt lat="42.2980374" lon="13.2716877"><ele>947.9999999999999</ele><time>2026-05-02T14:45:39.118Z</time></trkpt><trkpt lat="42.2979987" lon="13.271762"><ele>947.9999999999999</ele><time>2026-05-02T14:45:40.118Z</time></trkpt><trkpt lat="42.2979556" lon="13.2718263"><ele>948.0</ele><time>2026-05-02T14:45:41.117Z</time></trkpt><trkpt lat="42.2978522" lon="13.2718659"><ele>947.9999999999999</ele><time>2026-05-02T14:45:43.118Z</time></trkpt><trkpt lat="42.2977886" lon="13.2718435"><ele>947.9999999999999</ele><time>2026-05-02T14:45:44.118Z</time></trkpt><trkpt lat="42.2977297" lon="13.2717887"><ele>948.0</ele><time>2026-05-02T14:45:45.118Z</time></trkpt><trkpt lat="42.2976661" lon="13.2717207"><ele>948.0</ele><time>2026-05-02T14:45:46.118Z</time></trkpt><trkpt lat="42.2975989" lon="13.2716457"><ele>948.0</ele><time>2026-05-02T14:45:47.118Z</time></trkpt><trkpt lat="42.2975294" lon="13.2715731"><ele>948.0</ele><time>2026-05-02T14:45:48.117Z</time></trkpt><trkpt lat="42.2974646" lon="13.271487"><ele>948.0</ele><time>2026-05-02T14:45:49.118Z</time></trkpt><trkpt lat="42.2974005" lon="13.2714043"><ele>948.0</ele><time>2026-05-02T14:45:50.117Z</time></trkpt><trkpt lat="42.2973306" lon="13.2713655"><ele>948.0</ele><time>2026-05-02T14:45:52.117Z</time></trkpt><trkpt lat="42.2972738" lon="13.2714287"><ele>948.0</ele><time>2026-05-02T14:45:55.118Z</time></trkpt><trkpt lat="42.2972054" lon="13.2714617"><ele>948.0</ele><time>2026-05-02T14:46:03.117Z</time></trkpt><trkpt lat="42.2972723" lon="13.2714684"><ele>948.0</ele><time>2026-05-02T14:46:10.118Z</time></trkpt><trkpt lat="42.2972943" lon="13.2713688"><ele>948.0</ele><time>2026-05-02T14:46:12.118Z</time></trkpt><trkpt lat="42.2972913" lon="13.271277"><ele>948.0</ele><time>2026-05-02T14:46:14.117Z</time></trkpt><trkpt lat="42.2972607" lon="13.2711568"><ele>950.0</ele><time>2026-05-02T14:46:16.118Z</time></trkpt><trkpt lat="42.2972171" lon="13.2710434"><ele>952.0</ele><time>2026-05-02T14:46:18.118Z</time></trkpt><trkpt lat="42.2971437" lon="13.2710414"><ele>954.0</ele><time>2026-05-02T14:46:22.117Z</time></trkpt><trkpt lat="42.2971533" lon="13.2711699"><ele>956.0</ele><time>2026-05-02T14:46:24.118Z</time></trkpt><trkpt lat="42.2971036" lon="13.2712835"><ele>958.0</ele><time>2026-05-02T14:46:26.118Z</time></trkpt><trkpt lat="42.2970775" lon="13.2713756"><ele>960.0</ele><time>2026-05-02T14:46:28.117Z</time></trkpt><trkpt lat="42.2970584" lon="13.2714617"><ele>960.6666666666666</ele><time>2026-05-02T14:46:39.117Z</time></trkpt><trkpt lat="42.2971245" lon="13.2713125"><ele>961.3333333333333</ele><time>2026-05-02T14:46:51.118Z</time></trkpt><trkpt lat="42.2971624" lon="13.2712041"><ele>962.0</ele><time>2026-05-02T14:46:53.118Z</time></trkpt><trkpt lat="42.2971439" lon="13.2711097"><ele>962.6666666666666</ele><time>2026-05-02T14:46:55.118Z</time></trkpt><trkpt lat="42.2971504" lon="13.2710212"><ele>963.3333333333333</ele><time>2026-05-02T14:46:57.117Z</time></trkpt><trkpt lat="42.2972229" lon="13.2710581"><ele>964.0</ele><time>2026-05-02T14:47:01.118Z</time></trkpt><trkpt lat="42.2972382" lon="13.2711619"><ele>961.8571428571429</ele><time>2026-05-02T14:47:03.117Z</time></trkpt><trkpt lat="42.2972791" lon="13.2712557"><ele>959.7142857142858</ele><time>2026-05-02T14:47:05.118Z</time></trkpt><trkpt lat="42.2973231" lon="13.271337"><ele>957.5714285714287</ele><time>2026-05-02T14:47:08.117Z</time></trkpt><trkpt lat="42.2973718" lon="13.2713922"><ele>955.4285714285716</ele><time>2026-05-02T14:47:48.119Z</time></trkpt><trkpt lat="42.29743" lon="13.2714658"><ele>953.2857142857143</ele><time>2026-05-02T14:47:50.118Z</time></trkpt><trkpt lat="42.2974775" lon="13.2715225"><ele>951.1428571428573</ele><time>2026-05-02T14:47:51.117Z</time></trkpt><trkpt lat="42.2975276" lon="13.2715846"><ele>949.0000000000001</ele><time>2026-05-02T14:47:52.117Z</time></trkpt><trkpt lat="42.297586" lon="13.2716483"><ele>948.8333333333333</ele><time>2026-05-02T14:47:53.117Z</time></trkpt><trkpt lat="42.2976455" lon="13.2717221"><ele>948.6666666666666</ele><time>2026-05-02T14:47:54.117Z</time></trkpt><trkpt lat="42.2977024" lon="13.2717967"><ele>948.5</ele><time>2026-05-02T14:47:55.117Z</time></trkpt><trkpt lat="42.2977743" lon="13.2718585"><ele>948.3333333333333</ele><time>2026-05-02T14:47:56.117Z</time></trkpt><trkpt lat="42.2978417" lon="13.2718976"><ele>948.1666666666666</ele><time>2026-05-02T14:47:57.117Z</time></trkpt><trkpt lat="42.2979353" lon="13.2718797"><ele>948.0</ele><time>2026-05-02T14:47:59.117Z</time></trkpt><trkpt lat="42.2979959" lon="13.2717957"><ele>948.0</ele><time>2026-05-02T14:48:01.117Z</time></trkpt><trkpt lat="42.298034" lon="13.2717062"><ele>948.0</ele><time>2026-05-02T14:48:02.119Z</time></trkpt><trkpt lat="42.298083" lon="13.2715927"><ele>948.0</ele><time>2026-05-02T14:48:03.118Z</time></trkpt><trkpt lat="42.2981258" lon="13.2714817"><ele>948.0</ele><time>2026-05-02T14:48:04.118Z</time></trkpt><trkpt lat="42.2981625" lon="13.2713878"><ele>948.0</ele><time>2026-05-02T14:48:05.118Z</time></trkpt><trkpt lat="42.2982377" lon="13.2712848"><ele>944.4</ele><time>2026-05-02T14:48:07.118Z</time></trkpt><trkpt lat="42.2983482" lon="13.2713237"><ele>940.8</ele><time>2026-05-02T14:48:09.118Z</time></trkpt><trkpt lat="42.2984224" lon="13.271395"><ele>937.2</ele><time>2026-05-02T14:48:10.117Z</time></trkpt><trkpt lat="42.2985052" lon="13.2714972"><ele>933.6</ele><time>2026-05-02T14:48:11.118Z</time></trkpt><trkpt lat="42.2985807" lon="13.2716246"><ele>930.0</ele><time>2026-05-02T14:48:12.117Z</time></trkpt><trkpt lat="42.2986453" lon="13.2717506"><ele>930.0</ele><time>2026-05-02T14:48:13.118Z</time></trkpt><trkpt lat="42.298707" lon="13.271882"><ele>930.0</ele><time>2026-05-02T14:48:14.117Z</time></trkpt><trkpt lat="42.2987615" lon="13.2720047"><ele>930.0</ele><time>2026-05-02T14:48:15.119Z</time></trkpt><trkpt lat="42.2988203" lon="13.272111"><ele>930.0</ele><time>2026-05-02T14:48:16.117Z</time></trkpt><trkpt lat="42.2988938" lon="13.2721928"><ele>930.0</ele><time>2026-05-02T14:48:17.118Z</time></trkpt><trkpt lat="42.2989866" lon="13.2722467"><ele>925.75</ele><time>2026-05-02T14:48:18.117Z</time></trkpt><trkpt lat="42.2991016" lon="13.2722739"><ele>921.5</ele><time>2026-05-02T14:48:19.118Z</time></trkpt><trkpt lat="42.2992372" lon="13.2722911"><ele>917.25</ele><time>2026-05-02T14:48:20.118Z</time></trkpt><trkpt lat="42.2993685" lon="13.2723149"><ele>913.0</ele><time>2026-05-02T14:48:21.119Z</time></trkpt><trkpt lat="42.29949" lon="13.2723473"><ele>913.0</ele><time>2026-05-02T14:48:22.117Z</time></trkpt><trkpt lat="42.2996137" lon="13.272383"><ele>913.0</ele><time>2026-05-02T14:48:23.118Z</time></trkpt><trkpt lat="42.2997449" lon="13.2724378"><ele>913.0</ele><time>2026-05-02T14:48:24.118Z</time></trkpt><trkpt lat="42.2998809" lon="13.272495"><ele>913.0</ele><time>2026-05-02T14:48:25.117Z</time></trkpt><trkpt lat="42.3000041" lon="13.2725451"><ele>910.0</ele><time>2026-05-02T14:48:26.117Z</time></trkpt><trkpt lat="42.3001105" lon="13.2726017"><ele>907.0</ele><time>2026-05-02T14:48:27.117Z</time></trkpt><trkpt lat="42.3001961" lon="13.2726589"><ele>904.0</ele><time>2026-05-02T14:48:28.118Z</time></trkpt><trkpt lat="42.300257" lon="13.2727182"><ele>901.0</ele><time>2026-05-02T14:48:29.118Z</time></trkpt><trkpt lat="42.3003089" lon="13.2728518"><ele>898.0</ele><time>2026-05-02T14:48:31.118Z</time></trkpt><trkpt lat="42.3002829" lon="13.2729532"><ele>897.9999999999999</ele><time>2026-05-02T14:48:32.118Z</time></trkpt><trkpt lat="42.3002588" lon="13.273053"><ele>898.0</ele><time>2026-05-02T14:48:33.117Z</time></trkpt><trkpt lat="42.3002476" lon="13.2731409"><ele>898.0</ele><time>2026-05-02T14:48:34.118Z</time></trkpt><trkpt lat="42.3002433" lon="13.2732457"><ele>898.0</ele><time>2026-05-02T14:48:35.118Z</time></trkpt><trkpt lat="42.3002784" lon="13.2733546"><ele>897.9999999999999</ele><time>2026-05-02T14:48:36.118Z</time></trkpt><trkpt lat="42.3003755" lon="13.2734894"><ele>898.0</ele><time>2026-05-02T14:48:37.117Z</time></trkpt><trkpt lat="42.3004283" lon="13.2736409"><ele>896.5</ele><time>2026-05-02T14:48:38.117Z</time></trkpt><trkpt lat="42.3004892" lon="13.2738079"><ele>895.0</ele><time>2026-05-02T14:48:39.118Z</time></trkpt><trkpt lat="42.3005532" lon="13.2739739"><ele>893.5</ele><time>2026-05-02T14:48:40.118Z</time></trkpt><trkpt lat="42.3006169" lon="13.2741277"><ele>892.0</ele><time>2026-05-02T14:48:41.119Z</time></trkpt><trkpt lat="42.3006788" lon="13.2742939"><ele>889.75</ele><time>2026-05-02T14:48:42.118Z</time></trkpt><trkpt lat="42.3007325" lon="13.2744506"><ele>887.5</ele><time>2026-05-02T14:48:43.117Z</time></trkpt><trkpt lat="42.3007893" lon="13.2745828"><ele>885.25</ele><time>2026-05-02T14:48:44.118Z</time></trkpt><trkpt lat="42.3008462" lon="13.2747218"><ele>883.0</ele><time>2026-05-02T14:48:45.118Z</time></trkpt><trkpt lat="42.3009082" lon="13.2748374"><ele>880.0</ele><time>2026-05-02T14:48:46.117Z</time></trkpt><trkpt lat="42.3009677" lon="13.2749378"><ele>877.0</ele><time>2026-05-02T14:48:47.117Z</time></trkpt><trkpt lat="42.3010243" lon="13.2750303"><ele>874.0</ele><time>2026-05-02T14:48:48.118Z</time></trkpt><trkpt lat="42.3010796" lon="13.2751325"><ele>871.0</ele><time>2026-05-02T14:48:49.118Z</time></trkpt><trkpt lat="42.3011423" lon="13.2752558"><ele>868.0</ele><time>2026-05-02T14:48:50.118Z</time></trkpt><trkpt lat="42.3012011" lon="13.2753765"><ele>867.9999999999999</ele><time>2026-05-02T14:48:51.118Z</time></trkpt><trkpt lat="42.3012575" lon="13.2754881"><ele>868.0</ele><time>2026-05-02T14:48:52.118Z</time></trkpt><trkpt lat="42.3013135" lon="13.2755875"><ele>868.0</ele><time>2026-05-02T14:48:53.118Z</time></trkpt><trkpt lat="42.3013727" lon="13.2756756"><ele>868.0</ele><time>2026-05-02T14:48:54.117Z</time></trkpt><trkpt lat="42.3014196" lon="13.2757627"><ele>867.9999999999999</ele><time>2026-05-02T14:48:55.118Z</time></trkpt><trkpt lat="42.3014561" lon="13.2758412"><ele>868.0</ele><time>2026-05-02T14:48:56.117Z</time></trkpt><trkpt lat="42.3015082" lon="13.275981"><ele>864.5999999999999</ele><time>2026-05-02T14:48:58.117Z</time></trkpt><trkpt lat="42.3015225" lon="13.2760667"><ele>861.1999999999999</ele><time>2026-05-02T14:48:59.118Z</time></trkpt><trkpt lat="42.3015394" lon="13.2762329"><ele>857.8</ele><time>2026-05-02T14:49:01.117Z</time></trkpt><trkpt lat="42.3015547" lon="13.2763658"><ele>854.4</ele><time>2026-05-02T14:49:03.118Z</time></trkpt><trkpt lat="42.3015825" lon="13.2764739"><ele>851.0</ele><time>2026-05-02T14:49:05.117Z</time></trkpt><trkpt lat="42.3016434" lon="13.2765494"><ele>851.0000000000001</ele><time>2026-05-02T14:49:07.119Z</time></trkpt><trkpt lat="42.3017076" lon="13.2765663"><ele>851.0</ele><time>2026-05-02T14:49:09.117Z</time></trkpt><trkpt lat="42.301636" lon="13.2765371"><ele>851.0</ele><time>2026-05-02T14:49:15.118Z</time></trkpt><trkpt lat="42.3015812" lon="13.2764688"><ele>851.0</ele><time>2026-05-02T14:49:18.118Z</time></trkpt><trkpt lat="42.3015536" lon="13.2763659"><ele>851.0000000000001</ele><time>2026-05-02T14:49:31.117Z</time></trkpt><trkpt lat="42.3015261" lon="13.2762229"><ele>851.0</ele><time>2026-05-02T14:49:33.118Z</time></trkpt><trkpt lat="42.3015215" lon="13.2761311"><ele>851.0</ele><time>2026-05-02T14:49:34.117Z</time></trkpt><trkpt lat="42.3015052" lon="13.2759853"><ele>851.0</ele><time>2026-05-02T14:49:36.117Z</time></trkpt><trkpt lat="42.3015011" lon="13.2758704"><ele>851.0</ele><time>2026-05-02T14:49:38.118Z</time></trkpt><trkpt lat="42.3015482" lon="13.275772"><ele>851.0</ele><time>2026-05-02T14:49:40.117Z</time></trkpt><trkpt lat="42.3016191" lon="13.2756291"><ele>851.0</ele><time>2026-05-02T14:49:42.117Z</time></trkpt><trkpt lat="42.3016568" lon="13.2755418"><ele>852.0000000000001</ele><time>2026-05-02T14:49:43.119Z</time></trkpt><trkpt lat="42.3016976" lon="13.2754505"><ele>853.0</ele><time>2026-05-02T14:49:44.117Z</time></trkpt><trkpt lat="42.3017366" lon="13.2753614"><ele>854.0</ele><time>2026-05-02T14:49:45.117Z</time></trkpt><trkpt lat="42.3017717" lon="13.2752862"><ele>855.0</ele><time>2026-05-02T14:49:46.117Z</time></trkpt><trkpt lat="42.301843" lon="13.2752164"><ele>856.0000000000001</ele><time>2026-05-02T14:49:48.118Z</time></trkpt><trkpt lat="42.3019074" lon="13.2752806"><ele>857.0</ele><time>2026-05-02T14:49:50.118Z</time></trkpt><trkpt lat="42.3019356" lon="13.2753578"><ele>857.0000000000001</ele><time>2026-05-02T14:49:51.118Z</time></trkpt><trkpt lat="42.3019651" lon="13.2754525"><ele>857.0</ele><time>2026-05-02T14:49:52.117Z</time></trkpt><trkpt lat="42.3019966" lon="13.2755594"><ele>857.0</ele><time>2026-05-02T14:49:53.117Z</time></trkpt><trkpt lat="42.3020304" lon="13.275665"><ele>857.0</ele><time>2026-05-02T14:49:54.117Z</time></trkpt><trkpt lat="42.3020714" lon="13.2757826"><ele>857.0000000000001</ele><time>2026-05-02T14:49:55.117Z</time></trkpt><trkpt lat="42.3021073" lon="13.2758984"><ele>857.0</ele><time>2026-05-02T14:49:56.118Z</time></trkpt><trkpt lat="42.3021371" lon="13.2760104"><ele>855.8</ele><time>2026-05-02T14:49:57.117Z</time></trkpt><trkpt lat="42.302165" lon="13.2761116"><ele>854.6</ele><time>2026-05-02T14:49:58.118Z</time></trkpt><trkpt lat="42.3021931" lon="13.2762029"><ele>853.4</ele><time>2026-05-02T14:49:59.118Z</time></trkpt><trkpt lat="42.3022177" lon="13.2762894"><ele>852.1999999999999</ele><time>2026-05-02T14:50:00.118Z</time></trkpt><trkpt lat="42.3022419" lon="13.27644"><ele>851.0</ele><time>2026-05-02T14:50:02.117Z</time></trkpt><trkpt lat="42.3022291" lon="13.2765973"><ele>850.3333333333334</ele><time>2026-05-02T14:50:04.117Z</time></trkpt><trkpt lat="42.3022008" lon="13.2767473"><ele>849.6666666666667</ele><time>2026-05-02T14:50:06.117Z</time></trkpt><trkpt lat="42.3021463" lon="13.2768971"><ele>849.0</ele><time>2026-05-02T14:50:08.117Z</time></trkpt><trkpt lat="42.3021168" lon="13.2769766"><ele>848.3333333333333</ele><time>2026-05-02T14:50:09.117Z</time></trkpt><trkpt lat="42.3020901" lon="13.277063"><ele>847.6666666666666</ele><time>2026-05-02T14:50:10.117Z</time></trkpt><trkpt lat="42.3020699" lon="13.2771499"><ele>847.0</ele><time>2026-05-02T14:50:11.117Z</time></trkpt><trkpt lat="42.3020566" lon="13.2772428"><ele>845.5714285714286</ele><time>2026-05-02T14:50:12.118Z</time></trkpt><trkpt lat="42.3020547" lon="13.2773362"><ele>844.1428571428571</ele><time>2026-05-02T14:50:13.118Z</time></trkpt><trkpt lat="42.302063" lon="13.2774267"><ele>842.7142857142858</ele><time>2026-05-02T14:50:14.118Z</time></trkpt><trkpt lat="42.3020773" lon="13.2775143"><ele>841.2857142857142</ele><time>2026-05-02T14:50:15.118Z</time></trkpt><trkpt lat="42.3021009" lon="13.2776013"><ele>839.8571428571429</ele><time>2026-05-02T14:50:16.119Z</time></trkpt><trkpt lat="42.3021346" lon="13.2776839"><ele>838.4285714285714</ele><time>2026-05-02T14:50:17.117Z</time></trkpt><trkpt lat="42.3021754" lon="13.2777549"><ele>837.0</ele><time>2026-05-02T14:50:18.117Z</time></trkpt><trkpt lat="42.302221" lon="13.2778222"><ele>836.8333333333334</ele><time>2026-05-02T14:50:19.117Z</time></trkpt><trkpt lat="42.3022866" lon="13.2779151"><ele>836.6666666666667</ele><time>2026-05-02T14:50:21.118Z</time></trkpt><trkpt lat="42.3023058" lon="13.2780009"><ele>836.5</ele><time>2026-05-02T14:50:23.117Z</time></trkpt><trkpt lat="42.3022506" lon="13.2781299"><ele>836.3333333333334</ele><time>2026-05-02T14:50:25.118Z</time></trkpt><trkpt lat="42.3022042" lon="13.2782131"><ele>836.1666666666667</ele><time>2026-05-02T14:50:26.118Z</time></trkpt><trkpt lat="42.3021536" lon="13.2782835"><ele>836.0</ele><time>2026-05-02T14:50:27.117Z</time></trkpt><trkpt lat="42.3020846" lon="13.2783222"><ele>834.6666666666667</ele><time>2026-05-02T14:50:28.118Z</time></trkpt><trkpt lat="42.302007" lon="13.2783322"><ele>833.3333333333334</ele><time>2026-05-02T14:50:29.119Z</time></trkpt><trkpt lat="42.3019206" lon="13.2783334"><ele>832.0</ele><time>2026-05-02T14:50:30.119Z</time></trkpt><trkpt lat="42.3018219" lon="13.2783309"><ele>830.6666666666667</ele><time>2026-05-02T14:50:31.117Z</time></trkpt><trkpt lat="42.3017288" lon="13.2783151"><ele>829.3333333333334</ele><time>2026-05-02T14:50:32.117Z</time></trkpt><trkpt lat="42.3016521" lon="13.2782579"><ele>828.0</ele><time>2026-05-02T14:50:33.117Z</time></trkpt><trkpt lat="42.3015759" lon="13.2781661"><ele>827.4</ele><time>2026-05-02T14:50:34.118Z</time></trkpt><trkpt lat="42.3015099" lon="13.2780481"><ele>826.8</ele><time>2026-05-02T14:50:35.118Z</time></trkpt><trkpt lat="42.3014537" lon="13.2779267"><ele>826.2</ele><time>2026-05-02T14:50:36.118Z</time></trkpt><trkpt lat="42.3013874" lon="13.2778208"><ele>825.6</ele><time>2026-05-02T14:50:37.119Z</time></trkpt><trkpt lat="42.301311" lon="13.2777408"><ele>825.0</ele><time>2026-05-02T14:50:38.118Z</time></trkpt><trkpt lat="42.3012157" lon="13.2776675"><ele>825.0</ele><time>2026-05-02T14:50:39.118Z</time></trkpt><trkpt lat="42.3011154" lon="13.2775997"><ele>825.0</ele><time>2026-05-02T14:50:40.119Z</time></trkpt><trkpt lat="42.3010014" lon="13.2775401"><ele>825.0</ele><time>2026-05-02T14:50:41.117Z</time></trkpt><trkpt lat="42.3008792" lon="13.2774927"><ele>825.0</ele><time>2026-05-02T14:50:42.117Z</time></trkpt><trkpt lat="42.3007626" lon="13.2774717"><ele>825.0</ele><time>2026-05-02T14:50:43.117Z</time></trkpt><trkpt lat="42.3006465" lon="13.2774866"><ele>825.0</ele><time>2026-05-02T14:50:44.117Z</time></trkpt><trkpt lat="42.3005237" lon="13.277528"><ele>825.0</ele><time>2026-05-02T14:50:45.117Z</time></trkpt><trkpt lat="42.3003943" lon="13.2775706"><ele>825.0</ele><time>2026-05-02T14:50:46.117Z</time></trkpt><trkpt lat="42.3002674" lon="13.2776022"><ele>825.5</ele><time>2026-05-02T14:50:47.118Z</time></trkpt><trkpt lat="42.3001479" lon="13.2776248"><ele>826.0</ele><time>2026-05-02T14:50:48.117Z</time></trkpt><trkpt lat="42.3000226" lon="13.277629"><ele>826.5</ele><time>2026-05-02T14:50:49.118Z</time></trkpt><trkpt lat="42.2998897" lon="13.2776251"><ele>827.0</ele><time>2026-05-02T14:50:50.117Z</time></trkpt><trkpt lat="42.2997498" lon="13.2776137"><ele>827.0</ele><time>2026-05-02T14:50:51.118Z</time></trkpt><trkpt lat="42.2996013" lon="13.2776071"><ele>827.0</ele><time>2026-05-02T14:50:52.118Z</time></trkpt><trkpt lat="42.2994637" lon="13.2776101"><ele>827.0</ele><time>2026-05-02T14:50:53.118Z</time></trkpt><trkpt lat="42.2993386" lon="13.2776228"><ele>827.0</ele><time>2026-05-02T14:50:54.117Z</time></trkpt><trkpt lat="42.2992212" lon="13.2776469"><ele>827.0</ele><time>2026-05-02T14:50:55.117Z</time></trkpt><trkpt lat="42.2991137" lon="13.2776898"><ele>827.0</ele><time>2026-05-02T14:50:56.117Z</time></trkpt><trkpt lat="42.299025" lon="13.2777606"><ele>827.0</ele><time>2026-05-02T14:50:57.117Z</time></trkpt><trkpt lat="42.2989557" lon="13.2778657"><ele>827.0</ele><time>2026-05-02T14:50:58.117Z</time></trkpt><trkpt lat="42.29891" lon="13.2779924"><ele>827.0</ele><time>2026-05-02T14:50:59.118Z</time></trkpt><trkpt lat="42.2988734" lon="13.2781231"><ele>828.5</ele><time>2026-05-02T14:51:00.117Z</time></trkpt><trkpt lat="42.2988293" lon="13.2782536"><ele>830.0</ele><time>2026-05-02T14:51:01.118Z</time></trkpt><trkpt lat="42.2987609" lon="13.2783799"><ele>831.5</ele><time>2026-05-02T14:51:02.119Z</time></trkpt><trkpt lat="42.298671" lon="13.2784797"><ele>833.0</ele><time>2026-05-02T14:51:03.117Z</time></trkpt><trkpt lat="42.2985554" lon="13.2785573"><ele>833.0</ele><time>2026-05-02T14:51:04.119Z</time></trkpt><trkpt lat="42.2984271" lon="13.2786306"><ele>833.0</ele><time>2026-05-02T14:51:05.118Z</time></trkpt><trkpt lat="42.2982932" lon="13.278705"><ele>833.0</ele><time>2026-05-02T14:51:06.118Z</time></trkpt><trkpt lat="42.2981739" lon="13.2787891"><ele>833.0</ele><time>2026-05-02T14:51:07.118Z</time></trkpt><trkpt lat="42.2980606" lon="13.2788614"><ele>835.75</ele><time>2026-05-02T14:51:08.118Z</time></trkpt><trkpt lat="42.29798" lon="13.2790052"><ele>838.5</ele><time>2026-05-02T14:51:09.118Z</time></trkpt><trkpt lat="42.2978854" lon="13.2791458"><ele>841.25</ele><time>2026-05-02T14:51:10.118Z</time></trkpt><trkpt lat="42.2977897" lon="13.2792995"><ele>844.0</ele><time>2026-05-02T14:51:11.118Z</time></trkpt><trkpt lat="42.2977114" lon="13.2794386"><ele>844.0</ele><time>2026-05-02T14:51:12.119Z</time></trkpt><trkpt lat="42.297657" lon="13.2795894"><ele>844.0</ele><time>2026-05-02T14:51:13.119Z</time></trkpt><trkpt lat="42.297634" lon="13.279726"><ele>844.0</ele><time>2026-05-02T14:51:14.119Z</time></trkpt><trkpt lat="42.297636" lon="13.2798546"><ele>844.0</ele><time>2026-05-02T14:51:15.118Z</time></trkpt><trkpt lat="42.2976589" lon="13.2799685"><ele>844.0</ele><time>2026-05-02T14:51:16.118Z</time></trkpt><trkpt lat="42.2976869" lon="13.2800943"><ele>842.2</ele><time>2026-05-02T14:51:17.119Z</time></trkpt><trkpt lat="42.2977238" lon="13.2802131"><ele>840.4000000000001</ele><time>2026-05-02T14:51:18.118Z</time></trkpt><trkpt lat="42.2977776" lon="13.2803123"><ele>838.6</ele><time>2026-05-02T14:51:19.118Z</time></trkpt><trkpt lat="42.2978528" lon="13.280386"><ele>836.8</ele><time>2026-05-02T14:51:20.118Z</time></trkpt><trkpt lat="42.2979413" lon="13.2804452"><ele>835.0</ele><time>2026-05-02T14:51:21.118Z</time></trkpt><trkpt lat="42.2980438" lon="13.2804917"><ele>832.25</ele><time>2026-05-02T14:51:22.118Z</time></trkpt><trkpt lat="42.2981649" lon="13.2805002"><ele>829.5</ele><time>2026-05-02T14:51:23.119Z</time></trkpt><trkpt lat="42.2982878" lon="13.2804936"><ele>826.75</ele><time>2026-05-02T14:51:24.117Z</time></trkpt><trkpt lat="42.2984116" lon="13.2804706"><ele>824.0</ele><time>2026-05-02T14:51:25.117Z</time></trkpt><trkpt lat="42.2985374" lon="13.2804469"><ele>824.0</ele><time>2026-05-02T14:51:26.118Z</time></trkpt><trkpt lat="42.2986458" lon="13.2804424"><ele>824.0</ele><time>2026-05-02T14:51:27.118Z</time></trkpt><trkpt lat="42.2987477" lon="13.2804807"><ele>824.0</ele><time>2026-05-02T14:51:28.118Z</time></trkpt><trkpt lat="42.2988513" lon="13.2805503"><ele>824.0</ele><time>2026-05-02T14:51:29.119Z</time></trkpt><trkpt lat="42.2989663" lon="13.2806369"><ele>827.6666666666667</ele><time>2026-05-02T14:51:30.118Z</time></trkpt><trkpt lat="42.2990941" lon="13.2807286"><ele>831.3333333333333</ele><time>2026-05-02T14:51:31.117Z</time></trkpt><trkpt lat="42.2992371" lon="13.2808381"><ele>835.0</ele><time>2026-05-02T14:51:32.117Z</time></trkpt><trkpt lat="42.2993841" lon="13.2809622"><ele>835.0</ele><time>2026-05-02T14:51:33.118Z</time></trkpt><trkpt lat="42.2995416" lon="13.2810921"><ele>835.0</ele><time>2026-05-02T14:51:34.119Z</time></trkpt><trkpt lat="42.2997107" lon="13.2812227"><ele>835.0</ele><time>2026-05-02T14:51:35.118Z</time></trkpt><trkpt lat="42.2998695" lon="13.2813505"><ele>835.75</ele><time>2026-05-02T14:51:36.117Z</time></trkpt><trkpt lat="42.3000123" lon="13.2814646"><ele>836.5</ele><time>2026-05-02T14:51:37.118Z</time></trkpt><trkpt lat="42.3001395" lon="13.281566"><ele>837.25</ele><time>2026-05-02T14:51:38.119Z</time></trkpt><trkpt lat="42.3002533" lon="13.2816598"><ele>838.0</ele><time>2026-05-02T14:51:39.117Z</time></trkpt><trkpt lat="42.300345" lon="13.281755"><ele>838.0</ele><time>2026-05-02T14:51:40.119Z</time></trkpt><trkpt lat="42.3004319" lon="13.2818686"><ele>838.0</ele><time>2026-05-02T14:51:41.118Z</time></trkpt><trkpt lat="42.3005009" lon="13.2820019"><ele>838.0</ele><time>2026-05-02T14:51:42.118Z</time></trkpt><trkpt lat="42.3005429" lon="13.2821448"><ele>838.0</ele><time>2026-05-02T14:51:43.117Z</time></trkpt><trkpt lat="42.3005606" lon="13.2822956"><ele>838.75</ele><time>2026-05-02T14:51:44.118Z</time></trkpt><trkpt lat="42.3005557" lon="13.2824624"><ele>839.5</ele><time>2026-05-02T14:51:45.118Z</time></trkpt><trkpt lat="42.3005434" lon="13.282623"><ele>840.25</ele><time>2026-05-02T14:51:46.119Z</time></trkpt><trkpt lat="42.300533" lon="13.282776"><ele>841.0</ele><time>2026-05-02T14:51:47.118Z</time></trkpt><trkpt lat="42.3005264" lon="13.2829187"><ele>840.9999999999999</ele><time>2026-05-02T14:51:48.117Z</time></trkpt><trkpt lat="42.3005188" lon="13.2830479"><ele>841.0</ele><time>2026-05-02T14:51:49.118Z</time></trkpt><trkpt lat="42.3005111" lon="13.2831648"><ele>841.0</ele><time>2026-05-02T14:51:50.118Z</time></trkpt><trkpt lat="42.3005031" lon="13.283264"><ele>841.0</ele><time>2026-05-02T14:51:51.118Z</time></trkpt><trkpt lat="42.3004635" lon="13.2833655"><ele>840.9999999999999</ele><time>2026-05-02T14:51:53.118Z</time></trkpt><trkpt lat="42.3003844" lon="13.2834054"><ele>841.0</ele><time>2026-05-02T14:51:56.117Z</time></trkpt><trkpt lat="42.3002805" lon="13.2834208"><ele>838.5</ele><time>2026-05-02T14:51:59.118Z</time></trkpt><trkpt lat="42.3001487" lon="13.2834341"><ele>836.0</ele><time>2026-05-02T14:52:01.118Z</time></trkpt><trkpt lat="42.3000542" lon="13.2834489"><ele>833.5</ele><time>2026-05-02T14:52:02.118Z</time></trkpt><trkpt lat="42.299948" lon="13.2834797"><ele>831.0</ele><time>2026-05-02T14:52:03.118Z</time></trkpt><trkpt lat="42.2998372" lon="13.2835326"><ele>831.5</ele><time>2026-05-02T14:52:04.118Z</time></trkpt><trkpt lat="42.2997125" lon="13.2836097"><ele>832.0</ele><time>2026-05-02T14:52:05.118Z</time></trkpt><trkpt lat="42.2995859" lon="13.2837046"><ele>832.5</ele><time>2026-05-02T14:52:06.117Z</time></trkpt><trkpt lat="42.2994556" lon="13.2838108"><ele>833.0</ele><time>2026-05-02T14:52:07.118Z</time></trkpt><trkpt lat="42.2993329" lon="13.2839059"><ele>829.75</ele><time>2026-05-02T14:52:08.118Z</time></trkpt><trkpt lat="42.2992163" lon="13.2839812"><ele>826.5</ele><time>2026-05-02T14:52:09.118Z</time></trkpt><trkpt lat="42.2990971" lon="13.2840288"><ele>823.25</ele><time>2026-05-02T14:52:10.117Z</time></trkpt><trkpt lat="42.2989848" lon="13.284037"><ele>820.0</ele><time>2026-05-02T14:52:11.117Z</time></trkpt><trkpt lat="42.2988781" lon="13.2840083"><ele>819.25</ele><time>2026-05-02T14:52:12.118Z</time></trkpt><trkpt lat="42.2987671" lon="13.2839527"><ele>818.5</ele><time>2026-05-02T14:52:13.117Z</time></trkpt><trkpt lat="42.298646" lon="13.2838832"><ele>817.75</ele><time>2026-05-02T14:52:14.117Z</time></trkpt><trkpt lat="42.2985264" lon="13.2838149"><ele>817.0</ele><time>2026-05-02T14:52:15.118Z</time></trkpt><trkpt lat="42.2984136" lon="13.2837764"><ele>818.75</ele><time>2026-05-02T14:52:16.118Z</time></trkpt><trkpt lat="42.298299" lon="13.2837758"><ele>820.5</ele><time>2026-05-02T14:52:17.117Z</time></trkpt><trkpt lat="42.298179" lon="13.2838174"><ele>822.25</ele><time>2026-05-02T14:52:18.117Z</time></trkpt><trkpt lat="42.2980604" lon="13.2838834"><ele>824.0</ele><time>2026-05-02T14:52:19.117Z</time></trkpt><trkpt lat="42.2979437" lon="13.2839629"><ele>824.0</ele><time>2026-05-02T14:52:20.119Z</time></trkpt><trkpt lat="42.2978368" lon="13.2840398"><ele>824.0</ele><time>2026-05-02T14:52:21.118Z</time></trkpt><trkpt lat="42.297746" lon="13.2841169"><ele>824.0</ele><time>2026-05-02T14:52:22.117Z</time></trkpt><trkpt lat="42.2976749" lon="13.2842128"><ele>824.0</ele><time>2026-05-02T14:52:23.117Z</time></trkpt><trkpt lat="42.2976339" lon="13.2843392"><ele>824.0</ele><time>2026-05-02T14:52:24.118Z</time></trkpt><trkpt lat="42.297616" lon="13.2844724"><ele>824.0000000000001</ele><time>2026-05-02T14:52:25.119Z</time></trkpt><trkpt lat="42.2976069" lon="13.2845702"><ele>824.0</ele><time>2026-05-02T14:52:26.119Z</time></trkpt><trkpt lat="42.2975981" lon="13.2846575"><ele>824.0</ele><time>2026-05-02T14:52:27.118Z</time></trkpt><trkpt lat="42.2975806" lon="13.2847755"><ele>824.0</ele><time>2026-05-02T14:52:29.119Z</time></trkpt><trkpt lat="42.2976237" lon="13.2846801"><ele>824.0000000000001</ele><time>2026-05-02T14:52:34.117Z</time></trkpt><trkpt lat="42.2976213" lon="13.2845808"><ele>824.0</ele><time>2026-05-02T14:52:35.117Z</time></trkpt><trkpt lat="42.2976211" lon="13.284482"><ele>824.0</ele><time>2026-05-02T14:52:36.119Z</time></trkpt><trkpt lat="42.2976253" lon="13.2843139"><ele>824.0</ele><time>2026-05-02T14:52:38.118Z</time></trkpt><trkpt lat="42.2976125" lon="13.2842294"><ele>824.0</ele><time>2026-05-02T14:52:39.117Z</time></trkpt><trkpt lat="42.2975802" lon="13.2840764"><ele>824.0</ele><time>2026-05-02T14:52:41.117Z</time></trkpt><trkpt lat="42.2975533" lon="13.2839374"><ele>824.0</ele><time>2026-05-02T14:52:43.118Z</time></trkpt><trkpt lat="42.2975116" lon="13.283861"><ele>824.8333333333334</ele><time>2026-05-02T14:52:45.118Z</time></trkpt><trkpt lat="42.2974192" lon="13.2837944"><ele>825.6666666666667</ele><time>2026-05-02T14:52:48.118Z</time></trkpt><trkpt lat="42.2973659" lon="13.2837015"><ele>826.5</ele><time>2026-05-02T14:52:50.118Z</time></trkpt><trkpt lat="42.2973001" lon="13.2836307"><ele>827.3333333333333</ele><time>2026-05-02T14:52:53.118Z</time></trkpt><trkpt lat="42.2973524" lon="13.2836807"><ele>828.1666666666666</ele><time>2026-05-02T14:53:00.117Z</time></trkpt><trkpt lat="42.2974239" lon="13.2837714"><ele>829.0</ele><time>2026-05-02T14:53:02.118Z</time></trkpt><trkpt lat="42.2975224" lon="13.2838643"><ele>828.0</ele><time>2026-05-02T14:53:04.118Z</time></trkpt><trkpt lat="42.2975667" lon="13.2839886"><ele>827.0</ele><time>2026-05-02T14:53:06.117Z</time></trkpt><trkpt lat="42.2975944" lon="13.2841107"><ele>826.0</ele><time>2026-05-02T14:53:08.118Z</time></trkpt><trkpt lat="42.2976489" lon="13.2841838"><ele>825.0</ele><time>2026-05-02T14:53:11.118Z</time></trkpt><trkpt lat="42.2977562" lon="13.2841565"><ele>824.0</ele><time>2026-05-02T14:53:13.118Z</time></trkpt><trkpt lat="42.2978285" lon="13.2841526"><ele>824.0</ele><time>2026-05-02T14:53:14.119Z</time></trkpt><trkpt lat="42.2979165" lon="13.2841542"><ele>824.0</ele><time>2026-05-02T14:53:15.117Z</time></trkpt><trkpt lat="42.2980188" lon="13.2841613"><ele>824.0</ele><time>2026-05-02T14:53:16.117Z</time></trkpt><trkpt lat="42.2981367" lon="13.2841783"><ele>824.0</ele><time>2026-05-02T14:53:17.117Z</time></trkpt><trkpt lat="42.2982573" lon="13.2842042"><ele>824.0</ele><time>2026-05-02T14:53:18.117Z</time></trkpt><trkpt lat="42.2983765" lon="13.2842296"><ele>822.6</ele><time>2026-05-02T14:53:19.118Z</time></trkpt><trkpt lat="42.298477" lon="13.2842573"><ele>821.2</ele><time>2026-05-02T14:53:20.118Z</time></trkpt><trkpt lat="42.2985732" lon="13.2842982"><ele>819.8000000000001</ele><time>2026-05-02T14:53:21.117Z</time></trkpt><trkpt lat="42.2986766" lon="13.2843636"><ele>818.4000000000001</ele><time>2026-05-02T14:53:22.117Z</time></trkpt><trkpt lat="42.2987816" lon="13.2844552"><ele>817.0</ele><time>2026-05-02T14:53:23.117Z</time></trkpt><trkpt lat="42.2988855" lon="13.2845785"><ele>817.75</ele><time>2026-05-02T14:53:24.118Z</time></trkpt><trkpt lat="42.2989761" lon="13.2847082"><ele>818.5</ele><time>2026-05-02T14:53:25.118Z</time></trkpt><trkpt lat="42.2990572" lon="13.2848475"><ele>819.25</ele><time>2026-05-02T14:53:26.117Z</time></trkpt><trkpt lat="42.2991338" lon="13.2849861"><ele>820.0</ele><time>2026-05-02T14:53:27.117Z</time></trkpt><trkpt lat="42.2992047" lon="13.2851354"><ele>817.75</ele><time>2026-05-02T14:53:28.118Z</time></trkpt><trkpt lat="42.2992633" lon="13.2852881"><ele>815.5</ele><time>2026-05-02T14:53:29.118Z</time></trkpt><trkpt lat="42.2993142" lon="13.2854431"><ele>813.25</ele><time>2026-05-02T14:53:30.118Z</time></trkpt><trkpt lat="42.2993589" lon="13.2856208"><ele>811.0</ele><time>2026-05-02T14:53:31.117Z</time></trkpt><trkpt lat="42.2993901" lon="13.2858135"><ele>809.3333333333333</ele><time>2026-05-02T14:53:32.117Z</time></trkpt><trkpt lat="42.2994222" lon="13.2860273"><ele>807.6666666666667</ele><time>2026-05-02T14:53:33.117Z</time></trkpt><trkpt lat="42.2994428" lon="13.2862701"><ele>806.0</ele><time>2026-05-02T14:53:34.117Z</time></trkpt><trkpt lat="42.2994557" lon="13.286512"><ele>804.0</ele><time>2026-05-02T14:53:35.117Z</time></trkpt><trkpt lat="42.2994656" lon="13.2867381"><ele>802.0</ele><time>2026-05-02T14:53:36.117Z</time></trkpt><trkpt lat="42.299476" lon="13.2869543"><ele>800.0</ele><time>2026-05-02T14:53:37.118Z</time></trkpt><trkpt lat="42.2994941" lon="13.2871427"><ele>798.75</ele><time>2026-05-02T14:53:38.117Z</time></trkpt><trkpt lat="42.2995265" lon="13.2873081"><ele>797.5</ele><time>2026-05-02T14:53:39.119Z</time></trkpt><trkpt lat="42.299582" lon="13.2874533"><ele>796.25</ele><time>2026-05-02T14:53:40.118Z</time></trkpt><trkpt lat="42.299656" lon="13.287577"><ele>795.0</ele><time>2026-05-02T14:53:41.117Z</time></trkpt><trkpt lat="42.2997483" lon="13.2876643"><ele>796.75</ele><time>2026-05-02T14:53:42.118Z</time></trkpt><trkpt lat="42.2998543" lon="13.2877115"><ele>798.5</ele><time>2026-05-02T14:53:43.117Z</time></trkpt><trkpt lat="42.2999702" lon="13.2877099"><ele>800.25</ele><time>2026-05-02T14:53:44.117Z</time></trkpt><trkpt lat="42.300101" lon="13.2876808"><ele>802.0</ele><time>2026-05-02T14:53:45.117Z</time></trkpt><trkpt lat="42.3002437" lon="13.2876539"><ele>802.0</ele><time>2026-05-02T14:53:46.118Z</time></trkpt><trkpt lat="42.300397" lon="13.287644"><ele>802.0</ele><time>2026-05-02T14:53:47.119Z</time></trkpt><trkpt lat="42.3005546" lon="13.2876406"><ele>802.0</ele><time>2026-05-02T14:53:48.118Z</time></trkpt><trkpt lat="42.3007182" lon="13.287642"><ele>800.3333333333333</ele><time>2026-05-02T14:53:49.118Z</time></trkpt><trkpt lat="42.3008881" lon="13.2876403"><ele>798.6666666666667</ele><time>2026-05-02T14:53:50.117Z</time></trkpt><trkpt lat="42.3010423" lon="13.2876351"><ele>797.0</ele><time>2026-05-02T14:53:51.117Z</time></trkpt><trkpt lat="42.3011893" lon="13.287606"><ele>797.0</ele><time>2026-05-02T14:53:52.117Z</time></trkpt><trkpt lat="42.3013281" lon="13.2875472"><ele>797.0</ele><time>2026-05-02T14:53:53.118Z</time></trkpt><trkpt lat="42.3014616" lon="13.2874707"><ele>797.0</ele><time>2026-05-02T14:53:54.117Z</time></trkpt><trkpt lat="42.3015914" lon="13.2873912"><ele>797.0</ele><time>2026-05-02T14:53:55.118Z</time></trkpt><trkpt lat="42.3017207" lon="13.287332"><ele>793.0</ele><time>2026-05-02T14:53:56.117Z</time></trkpt><trkpt lat="42.3018506" lon="13.2873057"><ele>789.0</ele><time>2026-05-02T14:53:57.118Z</time></trkpt><trkpt lat="42.3019935" lon="13.2873097"><ele>785.0</ele><time>2026-05-02T14:53:58.118Z</time></trkpt><trkpt lat="42.3021534" lon="13.2873435"><ele>781.0</ele><time>2026-05-02T14:53:59.117Z</time></trkpt><trkpt lat="42.3023207" lon="13.2873813"><ele>780.3333333333333</ele><time>2026-05-02T14:54:00.117Z</time></trkpt><trkpt lat="42.3024978" lon="13.2874211"><ele>779.6666666666667</ele><time>2026-05-02T14:54:01.118Z</time></trkpt><trkpt lat="42.3026838" lon="13.2874636"><ele>779.0</ele><time>2026-05-02T14:54:02.117Z</time></trkpt><trkpt lat="42.3028635" lon="13.2875055"><ele>779.0</ele><time>2026-05-02T14:54:03.118Z</time></trkpt><trkpt lat="42.3030406" lon="13.2875394"><ele>779.0</ele><time>2026-05-02T14:54:04.117Z</time></trkpt><trkpt lat="42.30322" lon="13.2875729"><ele>779.0</ele><time>2026-05-02T14:54:05.117Z</time></trkpt><trkpt lat="42.303392" lon="13.2875987"><ele>778.0</ele><time>2026-05-02T14:54:06.118Z</time></trkpt><trkpt lat="42.3035541" lon="13.2876271"><ele>777.0</ele><time>2026-05-02T14:54:07.117Z</time></trkpt><trkpt lat="42.3037081" lon="13.2876484"><ele>776.0</ele><time>2026-05-02T14:54:08.117Z</time></trkpt><trkpt lat="42.303858" lon="13.2876467"><ele>775.0</ele><time>2026-05-02T14:54:09.119Z</time></trkpt><trkpt lat="42.3040034" lon="13.2876352"><ele>774.0</ele><time>2026-05-02T14:54:10.119Z</time></trkpt><trkpt lat="42.3041679" lon="13.2875877"><ele>773.0</ele><time>2026-05-02T14:54:11.118Z</time></trkpt><trkpt lat="42.3043161" lon="13.2875356"><ele>773.0</ele><time>2026-05-02T14:54:12.117Z</time></trkpt><trkpt lat="42.3044376" lon="13.2874895"><ele>773.0</ele><time>2026-05-02T14:54:13.117Z</time></trkpt><trkpt lat="42.3045359" lon="13.2874524"><ele>773.0</ele><time>2026-05-02T14:54:14.117Z</time></trkpt><trkpt lat="42.3046141" lon="13.2874305"><ele>773.0</ele><time>2026-05-02T14:54:15.117Z</time></trkpt><trkpt lat="42.304678" lon="13.2874131"><ele>773.0</ele><time>2026-05-02T14:54:16.118Z</time></trkpt><trkpt lat="42.3047636" lon="13.2873838"><ele>773.0000000000001</ele><time>2026-05-02T14:54:18.118Z</time></trkpt><trkpt lat="42.3046787" lon="13.2873644"><ele>773.0</ele><time>2026-05-02T14:54:23.118Z</time></trkpt><trkpt lat="42.3046162" lon="13.2873917"><ele>773.0</ele><time>2026-05-02T14:54:24.118Z</time></trkpt><trkpt lat="42.304538" lon="13.2874191"><ele>773.0</ele><time>2026-05-02T14:54:25.117Z</time></trkpt><trkpt lat="42.3044477" lon="13.2874517"><ele>773.0000000000001</ele><time>2026-05-02T14:54:26.118Z</time></trkpt><trkpt lat="42.3043343" lon="13.2874963"><ele>773.0</ele><time>2026-05-02T14:54:27.118Z</time></trkpt><trkpt lat="42.3042198" lon="13.2875333"><ele>773.0</ele><time>2026-05-02T14:54:28.117Z</time></trkpt><trkpt lat="42.3040983" lon="13.2875667"><ele>773.0</ele><time>2026-05-02T14:54:29.117Z</time></trkpt><trkpt lat="42.3039858" lon="13.2875973"><ele>773.0</ele><time>2026-05-02T14:54:30.118Z</time></trkpt><trkpt lat="42.3038855" lon="13.287618"><ele>773.0</ele><time>2026-05-02T14:54:31.117Z</time></trkpt><trkpt lat="42.3037949" lon="13.2876262"><ele>773.0</ele><time>2026-05-02T14:54:32.118Z</time></trkpt><trkpt lat="42.3037077" lon="13.2876292"><ele>773.5000000000001</ele><time>2026-05-02T14:54:33.117Z</time></trkpt><trkpt lat="42.3036262" lon="13.2876142"><ele>774.0</ele><time>2026-05-02T14:54:34.118Z</time></trkpt><trkpt lat="42.3035481" lon="13.2876064"><ele>774.5</ele><time>2026-05-02T14:54:35.117Z</time></trkpt><trkpt lat="42.30346" lon="13.2875909"><ele>775.0</ele><time>2026-05-02T14:54:36.117Z</time></trkpt><trkpt lat="42.3033584" lon="13.2875769"><ele>775.5000000000001</ele><time>2026-05-02T14:54:37.117Z</time></trkpt><trkpt lat="42.303274" lon="13.2875632"><ele>776.0</ele><time>2026-05-02T14:54:38.117Z</time></trkpt><trkpt lat="42.3032111" lon="13.2875489"><ele>776.0000000000001</ele><time>2026-05-02T14:54:39.117Z</time></trkpt><trkpt lat="42.3031405" lon="13.2875274"><ele>776.0</ele><time>2026-05-02T14:54:41.118Z</time></trkpt><trkpt lat="42.3030345" lon="13.2875155"><ele>776.0</ele><time>2026-05-02T14:54:48.119Z</time></trkpt><trkpt lat="42.3029652" lon="13.2875074"><ele>776.0</ele><time>2026-05-02T14:54:49.118Z</time></trkpt><trkpt lat="42.3028783" lon="13.2874962"><ele>776.0000000000001</ele><time>2026-05-02T14:54:50.117Z</time></trkpt><trkpt lat="42.3027778" lon="13.2874814"><ele>776.0</ele><time>2026-05-02T14:54:51.117Z</time></trkpt><trkpt lat="42.302667" lon="13.2874532"><ele>776.5999999999999</ele><time>2026-05-02T14:54:52.118Z</time></trkpt><trkpt lat="42.3025514" lon="13.2874216"><ele>777.2</ele><time>2026-05-02T14:54:53.118Z</time></trkpt><trkpt lat="42.30244" lon="13.2873883"><ele>777.8</ele><time>2026-05-02T14:54:54.117Z</time></trkpt><trkpt lat="42.3023422" lon="13.2873606"><ele>778.4000000000001</ele><time>2026-05-02T14:54:55.117Z</time></trkpt><trkpt lat="42.3022627" lon="13.287343"><ele>779.0</ele><time>2026-05-02T14:54:56.117Z</time></trkpt><trkpt lat="42.3021663" lon="13.287361"><ele>779.4000000000001</ele><time>2026-05-02T14:54:58.119Z</time></trkpt><trkpt lat="42.3021232" lon="13.287446"><ele>779.8</ele><time>2026-05-02T14:55:00.117Z</time></trkpt><trkpt lat="42.3020778" lon="13.2875958"><ele>780.2</ele><time>2026-05-02T14:55:02.117Z</time></trkpt><trkpt lat="42.3020755" lon="13.2877055"><ele>780.5999999999999</ele><time>2026-05-02T14:55:03.118Z</time></trkpt><trkpt lat="42.302078" lon="13.287821"><ele>781.0</ele><time>2026-05-02T14:55:04.117Z</time></trkpt><trkpt lat="42.3020766" lon="13.2879449"><ele>781.0</ele><time>2026-05-02T14:55:05.117Z</time></trkpt><trkpt lat="42.3020735" lon="13.2880763"><ele>781.0</ele><time>2026-05-02T14:55:06.117Z</time></trkpt><trkpt lat="42.3020666" lon="13.2882247"><ele>781.0</ele><time>2026-05-02T14:55:07.119Z</time></trkpt><trkpt lat="42.3020635" lon="13.2883629"><ele>781.0</ele><time>2026-05-02T14:55:08.117Z</time></trkpt><trkpt lat="42.3020585" lon="13.2884887"><ele>781.0</ele><time>2026-05-02T14:55:09.118Z</time></trkpt><trkpt lat="42.3020584" lon="13.2886043"><ele>780.6666666666666</ele><time>2026-05-02T14:55:10.117Z</time></trkpt><trkpt lat="42.3020589" lon="13.2887247"><ele>780.3333333333333</ele><time>2026-05-02T14:55:12.117Z</time></trkpt><trkpt lat="42.3021127" lon="13.2888357"><ele>780.0</ele><time>2026-05-02T14:55:15.117Z</time></trkpt><trkpt lat="42.3021715" lon="13.2888773"><ele>779.6666666666667</ele><time>2026-05-02T14:55:16.118Z</time></trkpt><trkpt lat="42.3022338" lon="13.2889157"><ele>779.3333333333334</ele><time>2026-05-02T14:55:17.118Z</time></trkpt><trkpt lat="42.3023039" lon="13.2889453"><ele>779.0</ele><time>2026-05-02T14:55:18.118Z</time></trkpt><trkpt lat="42.3023762" lon="13.2889687"><ele>779.0</ele><time>2026-05-02T14:55:19.118Z</time></trkpt><trkpt lat="42.3024457" lon="13.2889874"><ele>779.0</ele><time>2026-05-02T14:55:20.118Z</time></trkpt><trkpt lat="42.3025275" lon="13.2889923"><ele>779.0</ele><time>2026-05-02T14:55:21.119Z</time></trkpt><trkpt lat="42.3026319" lon="13.2889918"><ele>779.0</ele><time>2026-05-02T14:55:22.117Z</time></trkpt><trkpt lat="42.3027566" lon="13.2889907"><ele>779.0</ele><time>2026-05-02T14:55:23.117Z</time></trkpt><trkpt lat="42.3029022" lon="13.2889791"><ele>779.0</ele><time>2026-05-02T14:55:24.118Z</time></trkpt><trkpt lat="42.3030482" lon="13.2889509"><ele>779.0</ele><time>2026-05-02T14:55:25.118Z</time></trkpt><trkpt lat="42.3031901" lon="13.288907"><ele>779.0</ele><time>2026-05-02T14:55:26.118Z</time></trkpt><trkpt lat="42.3033205" lon="13.2888601"><ele>779.0</ele><time>2026-05-02T14:55:27.119Z</time></trkpt><trkpt lat="42.3034347" lon="13.288812"><ele>777.0</ele><time>2026-05-02T14:55:28.119Z</time></trkpt><trkpt lat="42.3035412" lon="13.2887789"><ele>775.0</ele><time>2026-05-02T14:55:29.117Z</time></trkpt><trkpt lat="42.3036462" lon="13.2887574"><ele>773.0</ele><time>2026-05-02T14:55:30.118Z</time></trkpt><trkpt lat="42.303755" lon="13.2887469"><ele>771.0</ele><time>2026-05-02T14:55:31.117Z</time></trkpt><trkpt lat="42.303858" lon="13.2887332"><ele>769.0</ele><time>2026-05-02T14:55:32.117Z</time></trkpt><trkpt lat="42.3039464" lon="13.2887136"><ele>769.0</ele><time>2026-05-02T14:55:33.118Z</time></trkpt><trkpt lat="42.3040457" lon="13.2886821"><ele>769.0</ele><time>2026-05-02T14:55:34.119Z</time></trkpt><trkpt lat="42.3041444" lon="13.2886895"><ele>769.0</ele><time>2026-05-02T14:55:35.118Z</time></trkpt><trkpt lat="42.3042476" lon="13.2886474"><ele>769.0</ele><time>2026-05-02T14:55:36.118Z</time></trkpt><trkpt lat="42.3043576" lon="13.2886102"><ele>769.0</ele><time>2026-05-02T14:55:37.117Z</time></trkpt><trkpt lat="42.3044655" lon="13.2885756"><ele>769.0</ele><time>2026-05-02T14:55:38.117Z</time></trkpt><trkpt lat="42.3045814" lon="13.2885192"><ele>769.0</ele><time>2026-05-02T14:55:39.118Z</time></trkpt><trkpt lat="42.3046916" lon="13.2884571"><ele>769.0</ele><time>2026-05-02T14:55:40.117Z</time></trkpt><trkpt lat="42.3047945" lon="13.2884051"><ele>769.0</ele><time>2026-05-02T14:55:41.118Z</time></trkpt><trkpt lat="42.3048848" lon="13.2883678"><ele>769.0</ele><time>2026-05-02T14:55:42.118Z</time></trkpt><trkpt lat="42.304977" lon="13.2883396"><ele>768.8000000000001</ele><time>2026-05-02T14:55:43.117Z</time></trkpt><trkpt lat="42.3050589" lon="13.2883051"><ele>768.6</ele><time>2026-05-02T14:55:44.118Z</time></trkpt><trkpt lat="42.3051344" lon="13.2883032"><ele>768.4</ele><time>2026-05-02T14:55:45.119Z</time></trkpt><trkpt lat="42.3052265" lon="13.2882887"><ele>768.2</ele><time>2026-05-02T14:55:46.118Z</time></trkpt><trkpt lat="42.3053267" lon="13.2882913"><ele>768.0</ele><time>2026-05-02T14:55:47.118Z</time></trkpt><trkpt lat="42.3054359" lon="13.2883142"><ele>768.0</ele><time>2026-05-02T14:55:48.118Z</time></trkpt><trkpt lat="42.3055313" lon="13.2883335"><ele>768.0</ele><time>2026-05-02T14:55:49.117Z</time></trkpt><trkpt lat="42.3056239" lon="13.2883359"><ele>768.0</ele><time>2026-05-02T14:55:50.119Z</time></trkpt><trkpt lat="42.3057152" lon="13.2883269"><ele>768.0</ele><time>2026-05-02T14:55:51.117Z</time></trkpt><trkpt lat="42.3058009" lon="13.2882975"><ele>768.0</ele><time>2026-05-02T14:55:52.118Z</time></trkpt><trkpt lat="42.3058884" lon="13.2882877"><ele>767.8</ele><time>2026-05-02T14:55:53.117Z</time></trkpt><trkpt lat="42.3059752" lon="13.2882397"><ele>767.5999999999999</ele><time>2026-05-02T14:55:54.117Z</time></trkpt><trkpt lat="42.3060659" lon="13.2882062"><ele>767.4000000000001</ele><time>2026-05-02T14:55:55.117Z</time></trkpt><trkpt lat="42.3061756" lon="13.2881347"><ele>767.2</ele><time>2026-05-02T14:55:56.117Z</time></trkpt><trkpt lat="42.306292" lon="13.288045"><ele>767.0</ele><time>2026-05-02T14:55:57.118Z</time></trkpt><trkpt lat="42.306414" lon="13.2879808"><ele>766.6</ele><time>2026-05-02T14:55:58.119Z</time></trkpt><trkpt lat="42.3065335" lon="13.2879314"><ele>766.2</ele><time>2026-05-02T14:55:59.118Z</time></trkpt><trkpt lat="42.3066395" lon="13.2878711"><ele>765.8</ele><time>2026-05-02T14:56:00.118Z</time></trkpt><trkpt lat="42.3067208" lon="13.287829"><ele>765.4</ele><time>2026-05-02T14:56:01.118Z</time></trkpt><trkpt lat="42.3068306" lon="13.2877902"><ele>765.0</ele><time>2026-05-02T14:56:03.117Z</time></trkpt><trkpt lat="42.306914" lon="13.2877506"><ele>765.0</ele><time>2026-05-02T14:56:05.118Z</time></trkpt><trkpt lat="42.3069794" lon="13.2877033"><ele>765.0</ele><time>2026-05-02T14:56:15.118Z</time></trkpt><trkpt lat="42.3070602" lon="13.2876371"><ele>765.0</ele><time>2026-05-02T14:56:17.118Z</time></trkpt><trkpt lat="42.3071546" lon="13.2875127"><ele>765.0</ele><time>2026-05-02T14:56:19.117Z</time></trkpt><trkpt lat="42.3072173" lon="13.2874297"><ele>765.0</ele><time>2026-05-02T14:56:20.118Z</time></trkpt><trkpt lat="42.3072781" lon="13.2873466"><ele>764.6</ele><time>2026-05-02T14:56:21.118Z</time></trkpt><trkpt lat="42.3073432" lon="13.2872591"><ele>764.2</ele><time>2026-05-02T14:56:22.118Z</time></trkpt><trkpt lat="42.3074118" lon="13.2871692"><ele>763.8</ele><time>2026-05-02T14:56:23.118Z</time></trkpt><trkpt lat="42.3074875" lon="13.2870683"><ele>763.4</ele><time>2026-05-02T14:56:24.117Z</time></trkpt><trkpt lat="42.3075718" lon="13.2869578"><ele>763.0</ele><time>2026-05-02T14:56:25.117Z</time></trkpt><trkpt lat="42.307665" lon="13.2868493"><ele>763.0</ele><time>2026-05-02T14:56:26.117Z</time></trkpt><trkpt lat="42.3077713" lon="13.2867384"><ele>763.0</ele><time>2026-05-02T14:56:27.117Z</time></trkpt><trkpt lat="42.307893" lon="13.2866348"><ele>763.0</ele><time>2026-05-02T14:56:28.117Z</time></trkpt><trkpt lat="42.3080236" lon="13.2865417"><ele>763.0</ele><time>2026-05-02T14:56:29.118Z</time></trkpt><trkpt lat="42.3081612" lon="13.286456"><ele>761.0</ele><time>2026-05-02T14:56:30.119Z</time></trkpt><trkpt lat="42.3083106" lon="13.2863615"><ele>759.0</ele><time>2026-05-02T14:56:31.117Z</time></trkpt><trkpt lat="42.3084704" lon="13.2862585"><ele>757.0</ele><time>2026-05-02T14:56:32.117Z</time></trkpt><trkpt lat="42.3086273" lon="13.2861531"><ele>757.0</ele><time>2026-05-02T14:56:33.117Z</time></trkpt><trkpt lat="42.3087772" lon="13.2860597"><ele>757.0</ele><time>2026-05-02T14:56:34.117Z</time></trkpt><trkpt lat="42.3089309" lon="13.2859841"><ele>757.0</ele><time>2026-05-02T14:56:35.117Z</time></trkpt><trkpt lat="42.3090975" lon="13.2859298"><ele>757.0</ele><time>2026-05-02T14:56:36.118Z</time></trkpt><trkpt lat="42.3092656" lon="13.2858959"><ele>757.0</ele><time>2026-05-02T14:56:37.118Z</time></trkpt><trkpt lat="42.3094219" lon="13.2858775"><ele>757.0</ele><time>2026-05-02T14:56:38.119Z</time></trkpt><trkpt lat="42.3095563" lon="13.285862"><ele>757.0</ele><time>2026-05-02T14:56:39.118Z</time></trkpt><trkpt lat="42.3096532" lon="13.2858492"><ele>757.0</ele><time>2026-05-02T14:56:40.117Z</time></trkpt><trkpt lat="42.3097473" lon="13.285857"><ele>757.0</ele><time>2026-05-02T14:56:42.118Z</time></trkpt><trkpt lat="42.3096967" lon="13.2859297"><ele>757.0</ele><time>2026-05-02T14:56:46.118Z</time></trkpt><trkpt lat="42.3095838" lon="13.2859527"><ele>757.0</ele><time>2026-05-02T14:56:48.117Z</time></trkpt><trkpt lat="42.3094902" lon="13.2859567"><ele>757.0</ele><time>2026-05-02T14:56:49.117Z</time></trkpt><trkpt lat="42.3093851" lon="13.2859618"><ele>757.0</ele><time>2026-05-02T14:56:50.118Z</time></trkpt><trkpt lat="42.3092976" lon="13.2859701"><ele>757.0</ele><time>2026-05-02T14:56:51.117Z</time></trkpt><trkpt lat="42.309206" lon="13.2859923"><ele>757.0</ele><time>2026-05-02T14:56:52.117Z</time></trkpt><trkpt lat="42.3091009" lon="13.2860376"><ele>757.0</ele><time>2026-05-02T14:56:53.117Z</time></trkpt><trkpt lat="42.3089832" lon="13.2860934"><ele>757.0</ele><time>2026-05-02T14:56:54.117Z</time></trkpt><trkpt lat="42.3088529" lon="13.2861618"><ele>757.0</ele><time>2026-05-02T14:56:55.117Z</time></trkpt><trkpt lat="42.308733" lon="13.2862282"><ele>757.0</ele><time>2026-05-02T14:56:56.118Z</time></trkpt><trkpt lat="42.3086329" lon="13.2862859"><ele>757.0</ele><time>2026-05-02T14:56:57.118Z</time></trkpt><trkpt lat="42.308549" lon="13.2863426"><ele>757.0</ele><time>2026-05-02T14:56:58.117Z</time></trkpt><trkpt lat="42.3084901" lon="13.2864079"><ele>757.0</ele><time>2026-05-02T14:56:59.117Z</time></trkpt><trkpt lat="42.3084684" lon="13.2864908"><ele>757.0</ele><time>2026-05-02T14:57:00.118Z</time></trkpt><trkpt lat="42.3085415" lon="13.2866082"><ele>757.0</ele><time>2026-05-02T14:57:02.119Z</time></trkpt><trkpt lat="42.3086182" lon="13.2866219"><ele>757.0</ele><time>2026-05-02T14:57:03.117Z</time></trkpt><trkpt lat="42.3087142" lon="13.2866094"><ele>757.0</ele><time>2026-05-02T14:57:04.117Z</time></trkpt><trkpt lat="42.3088408" lon="13.2865907"><ele>762.3333333333334</ele><time>2026-05-02T14:57:05.117Z</time></trkpt><trkpt lat="42.3089935" lon="13.2865706"><ele>767.6666666666667</ele><time>2026-05-02T14:57:06.118Z</time></trkpt><trkpt lat="42.309167" lon="13.2865539"><ele>773.0</ele><time>2026-05-02T14:57:07.119Z</time></trkpt><trkpt lat="42.3093662" lon="13.2865385"><ele>773.0</ele><time>2026-05-02T14:57:08.118Z</time></trkpt><trkpt lat="42.3095768" lon="13.2865165"><ele>773.0</ele><time>2026-05-02T14:57:09.118Z</time></trkpt><trkpt lat="42.309806" lon="13.2864858"><ele>773.0</ele><time>2026-05-02T14:57:10.117Z</time></trkpt><trkpt lat="42.3100232" lon="13.2864503"><ele>769.6666666666667</ele><time>2026-05-02T14:57:11.117Z</time></trkpt><trkpt lat="42.3102223" lon="13.286421"><ele>766.3333333333334</ele><time>2026-05-02T14:57:12.118Z</time></trkpt><trkpt lat="42.3103975" lon="13.2863842"><ele>763.0</ele><time>2026-05-02T14:57:13.118Z</time></trkpt><trkpt lat="42.3105535" lon="13.2863654"><ele>765.5</ele><time>2026-05-02T14:57:14.119Z</time></trkpt><trkpt lat="42.3106957" lon="13.2863582"><ele>768.0</ele><time>2026-05-02T14:57:15.118Z</time></trkpt><trkpt lat="42.3108258" lon="13.2863579"><ele>770.5</ele><time>2026-05-02T14:57:16.117Z</time></trkpt><trkpt lat="42.310967" lon="13.2863628"><ele>773.0</ele><time>2026-05-02T14:57:17.118Z</time></trkpt><trkpt lat="42.3111078" lon="13.2863373"><ele>773.0</ele><time>2026-05-02T14:57:18.118Z</time></trkpt><trkpt lat="42.3112317" lon="13.2862811"><ele>773.0</ele><time>2026-05-02T14:57:19.117Z</time></trkpt><trkpt lat="42.311345" lon="13.2861993"><ele>773.0</ele><time>2026-05-02T14:57:20.117Z</time></trkpt><trkpt lat="42.3114523" lon="13.2860984"><ele>773.0</ele><time>2026-05-02T14:57:21.117Z</time></trkpt><trkpt lat="42.3115393" lon="13.2860399"><ele>775.4</ele><time>2026-05-02T14:57:22.118Z</time></trkpt><trkpt lat="42.31161" lon="13.2860319"><ele>777.8</ele><time>2026-05-02T14:57:23.118Z</time></trkpt><trkpt lat="42.3116581" lon="13.2861279"><ele>780.2</ele><time>2026-05-02T14:57:25.118Z</time></trkpt><trkpt lat="42.3116443" lon="13.286221"><ele>782.6</ele><time>2026-05-02T14:57:26.118Z</time></trkpt><trkpt lat="42.3115956" lon="13.2863465"><ele>785.0</ele><time>2026-05-02T14:57:27.117Z</time></trkpt><trkpt lat="42.3115248" lon="13.2865003"><ele>787.0</ele><time>2026-05-02T14:57:28.117Z</time></trkpt><trkpt lat="42.3114398" lon="13.2866867"><ele>789.0</ele><time>2026-05-02T14:57:29.119Z</time></trkpt><trkpt lat="42.3113408" lon="13.2868907"><ele>791.0</ele><time>2026-05-02T14:57:30.119Z</time></trkpt><trkpt lat="42.311258" lon="13.2870617"><ele>791.0</ele><time>2026-05-02T14:57:31.118Z</time></trkpt><trkpt lat="42.3111709" lon="13.2872183"><ele>791.0</ele><time>2026-05-02T14:57:32.118Z</time></trkpt><trkpt lat="42.3110703" lon="13.2873691"><ele>791.0</ele><time>2026-05-02T14:57:33.118Z</time></trkpt><trkpt lat="42.3109464" lon="13.2875211"><ele>792.6666666666667</ele><time>2026-05-02T14:57:34.118Z</time></trkpt><trkpt lat="42.3107944" lon="13.28768"><ele>794.3333333333333</ele><time>2026-05-02T14:57:35.117Z</time></trkpt><trkpt lat="42.3106255" lon="13.2878484"><ele>796.0</ele><time>2026-05-02T14:57:36.117Z</time></trkpt><trkpt lat="42.3104462" lon="13.2880327"><ele>797.0</ele><time>2026-05-02T14:57:37.117Z</time></trkpt><trkpt lat="42.3102595" lon="13.2882338"><ele>798.0</ele><time>2026-05-02T14:57:38.117Z</time></trkpt><trkpt lat="42.3100752" lon="13.2884376"><ele>798.0</ele><time>2026-05-02T14:57:39.117Z</time></trkpt><trkpt lat="42.309901" lon="13.2886312"><ele>798.0</ele><time>2026-05-02T14:57:40.117Z</time></trkpt><trkpt lat="42.3097213" lon="13.288827"><ele>798.0</ele><time>2026-05-02T14:57:41.117Z</time></trkpt><trkpt lat="42.3095504" lon="13.2890158"><ele>798.0</ele><time>2026-05-02T14:57:42.117Z</time></trkpt><trkpt lat="42.3093896" lon="13.2892"><ele>798.0</ele><time>2026-05-02T14:57:43.118Z</time></trkpt><trkpt lat="42.3092347" lon="13.2893753"><ele>798.0</ele><time>2026-05-02T14:57:44.118Z</time></trkpt><trkpt lat="42.3090898" lon="13.289532"><ele>798.0</ele><time>2026-05-02T14:57:45.117Z</time></trkpt><trkpt lat="42.3089498" lon="13.2896818"><ele>798.0</ele><time>2026-05-02T14:57:46.117Z</time></trkpt><trkpt lat="42.3088436" lon="13.2897915"><ele>799.0</ele><time>2026-05-02T14:57:47.118Z</time></trkpt><trkpt lat="42.3087651" lon="13.2898702"><ele>800.0</ele><time>2026-05-02T14:57:48.118Z</time></trkpt><trkpt lat="42.308707" lon="13.2899188"><ele>801.0</ele><time>2026-05-02T14:57:49.119Z</time></trkpt><trkpt lat="42.3086659" lon="13.2899976"><ele>802.0</ele><time>2026-05-02T14:57:51.118Z</time></trkpt><trkpt lat="42.3087302" lon="13.2899722"><ele>803.0</ele><time>2026-05-02T14:57:54.118Z</time></trkpt><trkpt lat="42.3088043" lon="13.289995"><ele>804.0</ele><time>2026-05-02T14:57:57.117Z</time></trkpt><trkpt lat="42.3088461" lon="13.2900992"><ele>803.6666666666666</ele><time>2026-05-02T14:57:59.117Z</time></trkpt><trkpt lat="42.3089198" lon="13.2902276"><ele>803.3333333333333</ele><time>2026-05-02T14:58:01.117Z</time></trkpt><trkpt lat="42.3089728" lon="13.2903229"><ele>803.0</ele><time>2026-05-02T14:58:02.117Z</time></trkpt><trkpt lat="42.3090244" lon="13.2904178"><ele>802.6666666666666</ele><time>2026-05-02T14:58:03.117Z</time></trkpt><trkpt lat="42.3090722" lon="13.2904976"><ele>802.3333333333333</ele><time>2026-05-02T14:58:04.117Z</time></trkpt><trkpt lat="42.3091145" lon="13.2905668"><ele>802.0</ele><time>2026-05-02T14:58:05.117Z</time></trkpt><trkpt lat="42.309157" lon="13.290676"><ele>802.0</ele><time>2026-05-02T14:58:07.117Z</time></trkpt><trkpt lat="42.3091603" lon="13.2908378"><ele>802.0</ele><time>2026-05-02T14:58:09.118Z</time></trkpt><trkpt lat="42.3091713" lon="13.290924"><ele>802.0</ele><time>2026-05-02T14:58:10.119Z</time></trkpt><trkpt lat="42.3091966" lon="13.2910254"><ele>802.0</ele><time>2026-05-02T14:58:11.118Z</time></trkpt><trkpt lat="42.3092295" lon="13.2911443"><ele>802.0</ele><time>2026-05-02T14:58:12.117Z</time></trkpt><trkpt lat="42.3092618" lon="13.2912853"><ele>801.6</ele><time>2026-05-02T14:58:13.118Z</time></trkpt><trkpt lat="42.3092921" lon="13.2914281"><ele>801.2</ele><time>2026-05-02T14:58:14.117Z</time></trkpt><trkpt lat="42.309323" lon="13.2915591"><ele>800.8</ele><time>2026-05-02T14:58:15.118Z</time></trkpt><trkpt lat="42.3093468" lon="13.2916855"><ele>800.4</ele><time>2026-05-02T14:58:16.117Z</time></trkpt><trkpt lat="42.3093681" lon="13.2918026"><ele>800.0</ele><time>2026-05-02T14:58:17.117Z</time></trkpt><trkpt lat="42.3093843" lon="13.2919164"><ele>800.0000000000001</ele><time>2026-05-02T14:58:18.118Z</time></trkpt><trkpt lat="42.3093978" lon="13.2920248"><ele>800.0</ele><time>2026-05-02T14:58:19.118Z</time></trkpt><trkpt lat="42.309409" lon="13.2921347"><ele>800.0</ele><time>2026-05-02T14:58:20.117Z</time></trkpt><trkpt lat="42.3094188" lon="13.2922396"><ele>800.0</ele><time>2026-05-02T14:58:21.118Z</time></trkpt><trkpt lat="42.3094258" lon="13.2923368"><ele>800.0000000000001</ele><time>2026-05-02T14:58:22.118Z</time></trkpt><trkpt lat="42.3094415" lon="13.2924428"><ele>800.0</ele><time>2026-05-02T14:58:23.117Z</time></trkpt><trkpt lat="42.3094643" lon="13.2925324"><ele>799.6</ele><time>2026-05-02T14:58:24.117Z</time></trkpt><trkpt lat="42.3094919" lon="13.2926195"><ele>799.2</ele><time>2026-05-02T14:58:25.117Z</time></trkpt><trkpt lat="42.3095142" lon="13.2927095"><ele>798.8</ele><time>2026-05-02T14:58:26.118Z</time></trkpt><trkpt lat="42.3095302" lon="13.2928357"><ele>798.4</ele><time>2026-05-02T14:58:27.118Z</time></trkpt><trkpt lat="42.3095438" lon="13.2929775"><ele>798.0</ele><time>2026-05-02T14:58:28.117Z</time></trkpt><trkpt lat="42.3095575" lon="13.2931285"><ele>797.1666666666666</ele><time>2026-05-02T14:58:29.118Z</time></trkpt><trkpt lat="42.3095699" lon="13.2932627"><ele>796.3333333333333</ele><time>2026-05-02T14:58:30.118Z</time></trkpt><trkpt lat="42.3095776" lon="13.2933821"><ele>795.5</ele><time>2026-05-02T14:58:31.119Z</time></trkpt><trkpt lat="42.3095828" lon="13.2934817"><ele>794.6666666666666</ele><time>2026-05-02T14:58:32.117Z</time></trkpt><trkpt lat="42.3095982" lon="13.2936046"><ele>793.8333333333333</ele><time>2026-05-02T14:58:34.117Z</time></trkpt><trkpt lat="42.309658" lon="13.2936586"><ele>793.0</ele><time>2026-05-02T14:58:36.117Z</time></trkpt><trkpt lat="42.3097476" lon="13.29362"><ele>790.25</ele><time>2026-05-02T14:58:38.117Z</time></trkpt><trkpt lat="42.3098433" lon="13.2935389"><ele>787.5</ele><time>2026-05-02T14:58:40.117Z</time></trkpt><trkpt lat="42.3099641" lon="13.2935254"><ele>784.75</ele><time>2026-05-02T14:58:42.117Z</time></trkpt><trkpt lat="42.3100573" lon="13.2936223"><ele>782.0</ele><time>2026-05-02T14:58:44.118Z</time></trkpt><trkpt lat="42.3101" lon="13.2937736"><ele>782.0</ele><time>2026-05-02T14:58:46.118Z</time></trkpt><trkpt lat="42.3100767" lon="13.2939176"><ele>782.0</ele><time>2026-05-02T14:58:48.118Z</time></trkpt><trkpt lat="42.3099833" lon="13.2940376"><ele>782.0</ele><time>2026-05-02T14:58:50.118Z</time></trkpt><trkpt lat="42.3099138" lon="13.2940789"><ele>782.0</ele><time>2026-05-02T14:58:51.119Z</time></trkpt><trkpt lat="42.3098206" lon="13.2941129"><ele>782.0</ele><time>2026-05-02T14:58:52.118Z</time></trkpt><trkpt lat="42.3097444" lon="13.2941303"><ele>782.1666666666667</ele><time>2026-05-02T14:58:53.117Z</time></trkpt><trkpt lat="42.3096812" lon="13.2941454"><ele>782.3333333333334</ele><time>2026-05-02T14:58:54.117Z</time></trkpt><trkpt lat="42.3096031" lon="13.2941563"><ele>782.5</ele><time>2026-05-02T14:58:56.118Z</time></trkpt><trkpt lat="42.3095095" lon="13.2941849"><ele>782.6666666666667</ele><time>2026-05-02T14:58:59.117Z</time></trkpt><trkpt lat="42.30945" lon="13.2942839"><ele>782.8333333333334</ele><time>2026-05-02T14:59:01.118Z</time></trkpt><trkpt lat="42.3094386" lon="13.2944403"><ele>783.0</ele><time>2026-05-02T14:59:03.118Z</time></trkpt><trkpt lat="42.3094517" lon="13.294548"><ele>783.0</ele><time>2026-05-02T14:59:04.117Z</time></trkpt><trkpt lat="42.3094823" lon="13.2947009"><ele>783.0</ele><time>2026-05-02T14:59:06.119Z</time></trkpt><trkpt lat="42.3094708" lon="13.2948794"><ele>783.0</ele><time>2026-05-02T14:59:08.118Z</time></trkpt><trkpt lat="42.309456" lon="13.2949765"><ele>783.0</ele><time>2026-05-02T14:59:09.118Z</time></trkpt><trkpt lat="42.3093912" lon="13.2951227"><ele>783.0</ele><time>2026-05-02T14:59:10.117Z</time></trkpt><trkpt lat="42.3093368" lon="13.2952569"><ele>782.0</ele><time>2026-05-02T14:59:11.117Z</time></trkpt><trkpt lat="42.30928" lon="13.2954058"><ele>781.0</ele><time>2026-05-02T14:59:12.118Z</time></trkpt><trkpt lat="42.3092319" lon="13.2955395"><ele>780.0</ele><time>2026-05-02T14:59:13.118Z</time></trkpt><trkpt lat="42.3091889" lon="13.2956544"><ele>779.0</ele><time>2026-05-02T14:59:14.117Z</time></trkpt><trkpt lat="42.3091503" lon="13.2957555"><ele>778.0</ele><time>2026-05-02T14:59:15.117Z</time></trkpt><trkpt lat="42.3090976" lon="13.2958734"><ele>778.75</ele><time>2026-05-02T14:59:16.117Z</time></trkpt><trkpt lat="42.309039" lon="13.2960046"><ele>779.5</ele><time>2026-05-02T14:59:17.117Z</time></trkpt><trkpt lat="42.3089446" lon="13.2961634"><ele>780.25</ele><time>2026-05-02T14:59:18.117Z</time></trkpt><trkpt lat="42.3088761" lon="13.2963087"><ele>781.0</ele><time>2026-05-02T14:59:19.118Z</time></trkpt><trkpt lat="42.3088097" lon="13.2964496"><ele>779.5999999999999</ele><time>2026-05-02T14:59:20.118Z</time></trkpt><trkpt lat="42.3087525" lon="13.2965927"><ele>778.2</ele><time>2026-05-02T14:59:21.117Z</time></trkpt><trkpt lat="42.3087024" lon="13.2967178"><ele>776.8</ele><time>2026-05-02T14:59:22.118Z</time></trkpt><trkpt lat="42.3086697" lon="13.2968466"><ele>775.4000000000001</ele><time>2026-05-02T14:59:23.118Z</time></trkpt><trkpt lat="42.3086262" lon="13.2969493"><ele>774.0</ele><time>2026-05-02T14:59:24.118Z</time></trkpt><trkpt lat="42.3085673" lon="13.2970668"><ele>774.0</ele><time>2026-05-02T14:59:25.119Z</time></trkpt><trkpt lat="42.3084927" lon="13.2971892"><ele>774.0</ele><time>2026-05-02T14:59:26.118Z</time></trkpt><trkpt lat="42.3084322" lon="13.2973014"><ele>774.0</ele><time>2026-05-02T14:59:27.118Z</time></trkpt><trkpt lat="42.3083843" lon="13.2974043"><ele>774.0</ele><time>2026-05-02T14:59:28.119Z</time></trkpt><trkpt lat="42.3083416" lon="13.297502"><ele>774.0</ele><time>2026-05-02T14:59:29.119Z</time></trkpt><trkpt lat="42.3083354" lon="13.2975913"><ele>773.5</ele><time>2026-05-02T14:59:30.118Z</time></trkpt><trkpt lat="42.3083368" lon="13.2977033"><ele>773.0</ele><time>2026-05-02T14:59:31.117Z</time></trkpt><trkpt lat="42.3083412" lon="13.2978444"><ele>772.5</ele><time>2026-05-02T14:59:32.117Z</time></trkpt><trkpt lat="42.3083503" lon="13.2979586"><ele>772.0</ele><time>2026-05-02T14:59:33.117Z</time></trkpt><trkpt lat="42.3083622" lon="13.2980569"><ele>771.5</ele><time>2026-05-02T14:59:34.117Z</time></trkpt><trkpt lat="42.3083719" lon="13.2981415"><ele>771.0</ele><time>2026-05-02T14:59:35.117Z</time></trkpt><trkpt lat="42.3083668" lon="13.2982623"><ele>770.4</ele><time>2026-05-02T14:59:37.117Z</time></trkpt><trkpt lat="42.3082738" lon="13.2983779"><ele>769.8</ele><time>2026-05-02T14:59:39.117Z</time></trkpt><trkpt lat="42.3081969" lon="13.2984516"><ele>769.1999999999999</ele><time>2026-05-02T14:59:40.117Z</time></trkpt><trkpt lat="42.3081265" lon="13.29851"><ele>768.5999999999999</ele><time>2026-05-02T14:59:41.118Z</time></trkpt><trkpt lat="42.3080612" lon="13.2985411"><ele>768.0</ele><time>2026-05-02T14:59:42.117Z</time></trkpt><trkpt lat="42.307981" lon="13.2985555"><ele>769.1666666666666</ele><time>2026-05-02T14:59:43.119Z</time></trkpt><trkpt lat="42.3079015" lon="13.2985728"><ele>770.3333333333333</ele><time>2026-05-02T14:59:44.118Z</time></trkpt><trkpt lat="42.307799" lon="13.2985833"><ele>771.5</ele><time>2026-05-02T14:59:45.118Z</time></trkpt><trkpt lat="42.3077256" lon="13.2986022"><ele>772.6666666666666</ele><time>2026-05-02T14:59:46.118Z</time></trkpt><trkpt lat="42.3076616" lon="13.2986586"><ele>773.8333333333333</ele><time>2026-05-02T14:59:47.119Z</time></trkpt><trkpt lat="42.307588" lon="13.2987345"><ele>775.0</ele><time>2026-05-02T14:59:48.118Z</time></trkpt><trkpt lat="42.3075352" lon="13.2988078"><ele>774.9999999999999</ele><time>2026-05-02T14:59:49.117Z</time></trkpt><trkpt lat="42.3075068" lon="13.2988907"><ele>775.0</ele><time>2026-05-02T14:59:50.117Z</time></trkpt><trkpt lat="42.3074846" lon="13.2989957"><ele>775.0</ele><time>2026-05-02T14:59:51.117Z</time></trkpt><trkpt lat="42.3074636" lon="13.2991027"><ele>775.0</ele><time>2026-05-02T14:59:52.117Z</time></trkpt><trkpt lat="42.3074281" lon="13.2991876"><ele>775.0</ele><time>2026-05-02T14:59:53.117Z</time></trkpt><trkpt lat="42.3073938" lon="13.299265"><ele>774.9999999999999</ele><time>2026-05-02T14:59:54.117Z</time></trkpt><trkpt lat="42.3073195" lon="13.2992463"><ele>775.0</ele><time>2026-05-02T14:59:55.117Z</time></trkpt><trkpt lat="42.3072258" lon="13.299258"><ele>775.1666666666666</ele><time>2026-05-02T14:59:56.118Z</time></trkpt><trkpt lat="42.3071451" lon="13.2992772"><ele>775.3333333333333</ele><time>2026-05-02T14:59:57.117Z</time></trkpt><trkpt lat="42.3070755" lon="13.2992648"><ele>775.5</ele><time>2026-05-02T14:59:58.117Z</time></trkpt><trkpt lat="42.3070052" lon="13.2992585"><ele>775.6666666666667</ele><time>2026-05-02T14:59:59.118Z</time></trkpt><trkpt lat="42.3069071" lon="13.2993016"><ele>775.8333333333334</ele><time>2026-05-02T15:00:01.117Z</time></trkpt><trkpt lat="42.3068224" lon="13.2994088"><ele>776.0</ele><time>2026-05-02T15:00:03.117Z</time></trkpt><trkpt lat="42.3067303" lon="13.2994393"><ele>776.0</ele><time>2026-05-02T15:00:05.118Z</time></trkpt><trkpt lat="42.3066333" lon="13.299415"><ele>776.0</ele><time>2026-05-02T15:00:07.118Z</time></trkpt><trkpt lat="42.3065701" lon="13.2994861"><ele>776.0</ele><time>2026-05-02T15:00:09.118Z</time></trkpt><trkpt lat="42.3065109" lon="13.2996385"><ele>776.0</ele><time>2026-05-02T15:00:11.117Z</time></trkpt><trkpt lat="42.3064736" lon="13.2997122"><ele>776.0</ele><time>2026-05-02T15:00:12.118Z</time></trkpt><trkpt lat="42.3063932" lon="13.299797"><ele>776.1999999999999</ele><time>2026-05-02T15:00:14.119Z</time></trkpt><trkpt lat="42.3062982" lon="13.2998578"><ele>776.4</ele><time>2026-05-02T15:00:16.117Z</time></trkpt><trkpt lat="42.306193" lon="13.2999466"><ele>776.6</ele><time>2026-05-02T15:00:18.117Z</time></trkpt><trkpt lat="42.3061017" lon="13.299995"><ele>776.8</ele><time>2026-05-02T15:00:20.118Z</time></trkpt><trkpt lat="42.3060025" lon="13.2999649"><ele>777.0</ele><time>2026-05-02T15:00:22.116Z</time></trkpt><trkpt lat="42.3058942" lon="13.2999796"><ele>777.0</ele><time>2026-05-02T15:00:24.116Z</time></trkpt><trkpt lat="42.3057683" lon="13.3000658"><ele>777.0</ele><time>2026-05-02T15:00:26.118Z</time></trkpt><trkpt lat="42.3056947" lon="13.3001164"><ele>777.0</ele><time>2026-05-02T15:00:27.116Z</time></trkpt><trkpt lat="42.3055971" lon="13.3001819"><ele>777.0</ele><time>2026-05-02T15:00:28.116Z</time></trkpt><trkpt lat="42.3055339" lon="13.3002469"><ele>777.0</ele><time>2026-05-02T15:00:29.117Z</time></trkpt><trkpt lat="42.3054753" lon="13.30032"><ele>777.4000000000001</ele><time>2026-05-02T15:00:30.117Z</time></trkpt><trkpt lat="42.3054231" lon="13.3003715"><ele>777.8000000000001</ele><time>2026-05-02T15:00:31.116Z</time></trkpt><trkpt lat="42.3053042" lon="13.3004172"><ele>778.2</ele><time>2026-05-02T15:00:33.116Z</time></trkpt><trkpt lat="42.3051895" lon="13.3004903"><ele>778.6</ele><time>2026-05-02T15:00:35.118Z</time></trkpt><trkpt lat="42.3051394" lon="13.3005527"><ele>779.0</ele><time>2026-05-02T15:00:36.117Z</time></trkpt><trkpt lat="42.3050735" lon="13.3006252"><ele>779.0</ele><time>2026-05-02T15:00:37.116Z</time></trkpt><trkpt lat="42.3049968" lon="13.3006831"><ele>779.0</ele><time>2026-05-02T15:00:38.116Z</time></trkpt><trkpt lat="42.3049098" lon="13.3007458"><ele>779.0</ele><time>2026-05-02T15:00:39.117Z</time></trkpt><trkpt lat="42.3048163" lon="13.3008079"><ele>779.0</ele><time>2026-05-02T15:00:40.117Z</time></trkpt><trkpt lat="42.304722" lon="13.3008664"><ele>779.0</ele><time>2026-05-02T15:00:41.116Z</time></trkpt><trkpt lat="42.3046333" lon="13.3009063"><ele>779.2</ele><time>2026-05-02T15:00:42.117Z</time></trkpt><trkpt lat="42.3045399" lon="13.3009633"><ele>779.4000000000001</ele><time>2026-05-02T15:00:43.117Z</time></trkpt><trkpt lat="42.3044186" lon="13.3009163"><ele>779.6</ele><time>2026-05-02T15:00:45.117Z</time></trkpt><trkpt lat="42.3043437" lon="13.300904"><ele>779.8</ele><time>2026-05-02T15:00:46.118Z</time></trkpt><trkpt lat="42.3042274" lon="13.3009395"><ele>780.0</ele><time>2026-05-02T15:00:48.116Z</time></trkpt><trkpt lat="42.3041667" lon="13.3010249"><ele>780.0</ele><time>2026-05-02T15:00:49.116Z</time></trkpt><trkpt lat="42.3041121" lon="13.3010881"><ele>780.0</ele><time>2026-05-02T15:00:50.117Z</time></trkpt><trkpt lat="42.3040271" lon="13.3012089"><ele>780.0</ele><time>2026-05-02T15:00:51.116Z</time></trkpt><trkpt lat="42.3039423" lon="13.3013077"><ele>780.0</ele><time>2026-05-02T15:00:52.117Z</time></trkpt><trkpt lat="42.3038722" lon="13.3013672"><ele>780.0</ele><time>2026-05-02T15:00:53.116Z</time></trkpt><trkpt lat="42.303806" lon="13.3014306"><ele>780.8333333333334</ele><time>2026-05-02T15:00:54.117Z</time></trkpt><trkpt lat="42.3037341" lon="13.3014771"><ele>781.6666666666667</ele><time>2026-05-02T15:00:55.117Z</time></trkpt><trkpt lat="42.3036722" lon="13.3013914"><ele>782.5</ele><time>2026-05-02T15:00:56.116Z</time></trkpt><trkpt lat="42.3035965" lon="13.3013697"><ele>783.3333333333334</ele><time>2026-05-02T15:00:57.117Z</time></trkpt><trkpt lat="42.303488" lon="13.301402"><ele>784.1666666666667</ele><time>2026-05-02T15:00:59.117Z</time></trkpt><trkpt lat="42.3034237" lon="13.3014647"><ele>785.0</ele><time>2026-05-02T15:01:00.116Z</time></trkpt><trkpt lat="42.303356" lon="13.3015039"><ele>785.0000000000001</ele><time>2026-05-02T15:01:01.116Z</time></trkpt><trkpt lat="42.3032943" lon="13.3015226"><ele>785.0</ele><time>2026-05-02T15:01:02.116Z</time></trkpt><trkpt lat="42.3031731" lon="13.3015696"><ele>785.0</ele><time>2026-05-02T15:01:04.117Z</time></trkpt><trkpt lat="42.3031205" lon="13.3015214"><ele>785.0</ele><time>2026-05-02T15:01:05.116Z</time></trkpt><trkpt lat="42.3030517" lon="13.3015184"><ele>785.0000000000001</ele><time>2026-05-02T15:01:06.116Z</time></trkpt><trkpt lat="42.3029757" lon="13.3015366"><ele>785.0</ele><time>2026-05-02T15:01:07.118Z</time></trkpt><trkpt lat="42.3028604" lon="13.3015886"><ele>785.3333333333334</ele><time>2026-05-02T15:01:08.117Z</time></trkpt><trkpt lat="42.3027874" lon="13.3016109"><ele>785.6666666666667</ele><time>2026-05-02T15:01:09.117Z</time></trkpt><trkpt lat="42.3027146" lon="13.3016536"><ele>786.0</ele><time>2026-05-02T15:01:10.117Z</time></trkpt><trkpt lat="42.3026403" lon="13.3016762"><ele>786.3333333333333</ele><time>2026-05-02T15:01:11.116Z</time></trkpt><trkpt lat="42.3025633" lon="13.3016579"><ele>786.6666666666666</ele><time>2026-05-02T15:01:12.116Z</time></trkpt><trkpt lat="42.3025026" lon="13.3016286"><ele>787.0</ele><time>2026-05-02T15:01:13.116Z</time></trkpt><trkpt lat="42.302425" lon="13.3016212"><ele>787.0</ele><time>2026-05-02T15:01:14.116Z</time></trkpt><trkpt lat="42.3023113" lon="13.3017178"><ele>787.0</ele><time>2026-05-02T15:01:16.116Z</time></trkpt><trkpt lat="42.3022508" lon="13.3017769"><ele>787.0</ele><time>2026-05-02T15:01:17.117Z</time></trkpt><trkpt lat="42.3021881" lon="13.3018211"><ele>787.0</ele><time>2026-05-02T15:01:18.117Z</time></trkpt><trkpt lat="42.3020729" lon="13.3018591"><ele>787.0</ele><time>2026-05-02T15:01:20.116Z</time></trkpt><trkpt lat="42.3019987" lon="13.3018997"><ele>787.0</ele><time>2026-05-02T15:01:22.117Z</time></trkpt><trkpt lat="42.3019419" lon="13.3019872"><ele>787.0</ele><time>2026-05-02T15:01:24.117Z</time></trkpt><trkpt lat="42.3019063" lon="13.3020614"><ele>787.0</ele><time>2026-05-02T15:01:25.116Z</time></trkpt><trkpt lat="42.3018693" lon="13.3021462"><ele>787.0</ele><time>2026-05-02T15:01:26.118Z</time></trkpt><trkpt lat="42.3018268" lon="13.3022179"><ele>787.0</ele><time>2026-05-02T15:01:27.117Z</time></trkpt><trkpt lat="42.3017807" lon="13.3023063"><ele>787.0</ele><time>2026-05-02T15:01:29.117Z</time></trkpt><trkpt lat="42.3018451" lon="13.3023164"><ele>787.0</ele><time>2026-05-02T15:01:32.117Z</time></trkpt><trkpt lat="42.3019235" lon="13.3023234"><ele>788.2</ele><time>2026-05-02T15:01:34.116Z</time></trkpt><trkpt lat="42.3019966" lon="13.3024103"><ele>789.4000000000001</ele><time>2026-05-02T15:01:36.117Z</time></trkpt><trkpt lat="42.3020873" lon="13.302541"><ele>790.5999999999999</ele><time>2026-05-02T15:01:38.116Z</time></trkpt><trkpt lat="42.3021362" lon="13.3026003"><ele>791.8</ele><time>2026-05-02T15:01:39.117Z</time></trkpt><trkpt lat="42.3022457" lon="13.3026588"><ele>793.0</ele><time>2026-05-02T15:01:41.116Z</time></trkpt><trkpt lat="42.3023129" lon="13.3026785"><ele>792.9999999999999</ele><time>2026-05-02T15:01:42.116Z</time></trkpt><trkpt lat="42.302384" lon="13.3027008"><ele>793.0</ele><time>2026-05-02T15:01:43.117Z</time></trkpt><trkpt lat="42.3024502" lon="13.3027249"><ele>793.0</ele><time>2026-05-02T15:01:44.116Z</time></trkpt><trkpt lat="42.3025597" lon="13.3027848"><ele>793.0</ele><time>2026-05-02T15:01:46.116Z</time></trkpt><trkpt lat="42.302669" lon="13.3028273"><ele>792.9999999999999</ele><time>2026-05-02T15:01:48.116Z</time></trkpt><trkpt lat="42.3027317" lon="13.302843"><ele>793.0</ele><time>2026-05-02T15:01:49.117Z</time></trkpt><trkpt lat="42.3027972" lon="13.3028449"><ele>793.0</ele><time>2026-05-02T15:01:50.116Z</time></trkpt><trkpt lat="42.3028967" lon="13.3028427"><ele>793.0</ele><time>2026-05-02T15:01:52.116Z</time></trkpt><trkpt lat="42.3029957" lon="13.3028343"><ele>793.0</ele><time>2026-05-02T15:01:54.116Z</time></trkpt><trkpt lat="42.3031157" lon="13.302813"><ele>793.0</ele><time>2026-05-02T15:01:56.116Z</time></trkpt><trkpt lat="42.3031827" lon="13.3027879"><ele>793.0</ele><time>2026-05-02T15:01:57.117Z</time></trkpt><trkpt lat="42.3032585" lon="13.302753"><ele>793.0</ele><time>2026-05-02T15:01:58.117Z</time></trkpt><trkpt lat="42.303349" lon="13.302725"><ele>793.0</ele><time>2026-05-02T15:01:59.117Z</time></trkpt><trkpt lat="42.3034547" lon="13.3027081"><ele>793.0</ele><time>2026-05-02T15:02:00.117Z</time></trkpt><trkpt lat="42.303576" lon="13.3026952"><ele>793.0</ele><time>2026-05-02T15:02:01.117Z</time></trkpt><trkpt lat="42.3037029" lon="13.3026927"><ele>793.0</ele><time>2026-05-02T15:02:02.117Z</time></trkpt><trkpt lat="42.3038395" lon="13.3026941"><ele>794.0</ele><time>2026-05-02T15:02:03.116Z</time></trkpt><trkpt lat="42.3039836" lon="13.3027088"><ele>795.0</ele><time>2026-05-02T15:02:04.116Z</time></trkpt><trkpt lat="42.3041285" lon="13.3027373"><ele>796.0</ele><time>2026-05-02T15:02:05.116Z</time></trkpt><trkpt lat="42.3042714" lon="13.3027613"><ele>797.0</ele><time>2026-05-02T15:02:06.116Z</time></trkpt><trkpt lat="42.3044083" lon="13.3027746"><ele>797.0</ele><time>2026-05-02T15:02:07.116Z</time></trkpt><trkpt lat="42.3045537" lon="13.3027504"><ele>797.0</ele><time>2026-05-02T15:02:08.116Z</time></trkpt><trkpt lat="42.3047106" lon="13.302693"><ele>797.0</ele><time>2026-05-02T15:02:09.116Z</time></trkpt><trkpt lat="42.3048664" lon="13.302619"><ele>799.3333333333334</ele><time>2026-05-02T15:02:10.116Z</time></trkpt><trkpt lat="42.3050264" lon="13.3025565"><ele>801.6666666666667</ele><time>2026-05-02T15:02:11.117Z</time></trkpt><trkpt lat="42.3051715" lon="13.3024993"><ele>804.0</ele><time>2026-05-02T15:02:12.116Z</time></trkpt><trkpt lat="42.3053116" lon="13.3024584"><ele>804.0</ele><time>2026-05-02T15:02:13.117Z</time></trkpt><trkpt lat="42.3054641" lon="13.3024125"><ele>804.0</ele><time>2026-05-02T15:02:14.117Z</time></trkpt><trkpt lat="42.3056335" lon="13.302373"><ele>804.0</ele><time>2026-05-02T15:02:15.116Z</time></trkpt><trkpt lat="42.3058163" lon="13.3023292"><ele>804.6666666666667</ele><time>2026-05-02T15:02:16.117Z</time></trkpt><trkpt lat="42.3060027" lon="13.3022782"><ele>805.3333333333334</ele><time>2026-05-02T15:02:17.117Z</time></trkpt><trkpt lat="42.3061902" lon="13.3022214"><ele>806.0</ele><time>2026-05-02T15:02:18.117Z</time></trkpt><trkpt lat="42.3063646" lon="13.3021559"><ele>803.0</ele><time>2026-05-02T15:02:19.117Z</time></trkpt><trkpt lat="42.3065239" lon="13.302084"><ele>800.0</ele><time>2026-05-02T15:02:20.116Z</time></trkpt><trkpt lat="42.3066706" lon="13.302015"><ele>797.0</ele><time>2026-05-02T15:02:21.116Z</time></trkpt><trkpt lat="42.3068325" lon="13.3019486"><ele>797.0</ele><time>2026-05-02T15:02:22.116Z</time></trkpt><trkpt lat="42.3069887" lon="13.3018917"><ele>797.0</ele><time>2026-05-02T15:02:23.116Z</time></trkpt><trkpt lat="42.3071417" lon="13.3018425"><ele>797.0</ele><time>2026-05-02T15:02:24.116Z</time></trkpt><trkpt lat="42.3073034" lon="13.3017963"><ele>798.0</ele><time>2026-05-02T15:02:25.116Z</time></trkpt><trkpt lat="42.3074709" lon="13.3017502"><ele>799.0</ele><time>2026-05-02T15:02:26.116Z</time></trkpt><trkpt lat="42.3076298" lon="13.3017073"><ele>800.0</ele><time>2026-05-02T15:02:27.116Z</time></trkpt><trkpt lat="42.3077775" lon="13.3016603"><ele>800.0</ele><time>2026-05-02T15:02:28.117Z</time></trkpt><trkpt lat="42.3079168" lon="13.3016011"><ele>800.0</ele><time>2026-05-02T15:02:29.116Z</time></trkpt><trkpt lat="42.3080495" lon="13.3015063"><ele>800.0</ele><time>2026-05-02T15:02:30.116Z</time></trkpt><trkpt lat="42.3081788" lon="13.3013734"><ele>799.0</ele><time>2026-05-02T15:02:31.118Z</time></trkpt><trkpt lat="42.3082981" lon="13.3012158"><ele>798.0</ele><time>2026-05-02T15:02:32.116Z</time></trkpt><trkpt lat="42.308422" lon="13.3010507"><ele>797.0</ele><time>2026-05-02T15:02:33.117Z</time></trkpt><trkpt lat="42.3085443" lon="13.3009043"><ele>797.0</ele><time>2026-05-02T15:02:34.116Z</time></trkpt><trkpt lat="42.3086696" lon="13.3007736"><ele>797.0</ele><time>2026-05-02T15:02:35.117Z</time></trkpt><trkpt lat="42.3087903" lon="13.3006641"><ele>797.0</ele><time>2026-05-02T15:02:36.116Z</time></trkpt><trkpt lat="42.3089117" lon="13.3005651"><ele>797.0</ele><time>2026-05-02T15:02:37.116Z</time></trkpt><trkpt lat="42.3090307" lon="13.3004854"><ele>796.5</ele><time>2026-05-02T15:02:38.118Z</time></trkpt><trkpt lat="42.3091534" lon="13.3004179"><ele>796.0</ele><time>2026-05-02T15:02:39.116Z</time></trkpt><trkpt lat="42.3092896" lon="13.3003592"><ele>795.5</ele><time>2026-05-02T15:02:40.117Z</time></trkpt><trkpt lat="42.3094333" lon="13.3003027"><ele>795.0</ele><time>2026-05-02T15:02:41.117Z</time></trkpt><trkpt lat="42.3095852" lon="13.3002518"><ele>795.0</ele><time>2026-05-02T15:02:42.116Z</time></trkpt><trkpt lat="42.3097289" lon="13.300212"><ele>795.0</ele><time>2026-05-02T15:02:43.117Z</time></trkpt><trkpt lat="42.3098583" lon="13.3001674"><ele>795.0</ele><time>2026-05-02T15:02:44.117Z</time></trkpt><trkpt lat="42.3099761" lon="13.3001006"><ele>795.0</ele><time>2026-05-02T15:02:45.117Z</time></trkpt><trkpt lat="42.3100866" lon="13.2999975"><ele>797.25</ele><time>2026-05-02T15:02:46.116Z</time></trkpt><trkpt lat="42.3101731" lon="13.2998553"><ele>799.5</ele><time>2026-05-02T15:02:47.117Z</time></trkpt><trkpt lat="42.3102465" lon="13.2996897"><ele>801.75</ele><time>2026-05-02T15:02:48.117Z</time></trkpt><trkpt lat="42.310318" lon="13.2995568"><ele>804.0</ele><time>2026-05-02T15:02:49.117Z</time></trkpt><trkpt lat="42.3103995" lon="13.2994253"><ele>804.0</ele><time>2026-05-02T15:02:50.116Z</time></trkpt><trkpt lat="42.310502" lon="13.2993032"><ele>804.0</ele><time>2026-05-02T15:02:51.116Z</time></trkpt><trkpt lat="42.3106253" lon="13.2991891"><ele>804.0</ele><time>2026-05-02T15:02:52.116Z</time></trkpt><trkpt lat="42.3107507" lon="13.299086"><ele>804.0</ele><time>2026-05-02T15:02:53.117Z</time></trkpt><trkpt lat="42.3108649" lon="13.2989921"><ele>805.5</ele><time>2026-05-02T15:02:54.116Z</time></trkpt><trkpt lat="42.3109796" lon="13.2988983"><ele>807.0</ele><time>2026-05-02T15:02:55.116Z</time></trkpt><trkpt lat="42.3110929" lon="13.2988096"><ele>808.5</ele><time>2026-05-02T15:02:56.118Z</time></trkpt><trkpt lat="42.3112013" lon="13.2987245"><ele>810.0</ele><time>2026-05-02T15:02:57.117Z</time></trkpt><trkpt lat="42.3113009" lon="13.298641"><ele>810.0</ele><time>2026-05-02T15:02:58.117Z</time></trkpt><trkpt lat="42.3114053" lon="13.2985645"><ele>810.0</ele><time>2026-05-02T15:02:59.117Z</time></trkpt><trkpt lat="42.3115161" lon="13.2984922"><ele>810.0</ele><time>2026-05-02T15:03:00.117Z</time></trkpt><trkpt lat="42.3116038" lon="13.298442"><ele>810.0</ele><time>2026-05-02T15:03:01.116Z</time></trkpt><trkpt lat="42.3116706" lon="13.2984093"><ele>810.0</ele><time>2026-05-02T15:03:02.116Z</time></trkpt><trkpt lat="42.3117429" lon="13.2983643"><ele>810.0</ele><time>2026-05-02T15:03:04.118Z</time></trkpt><trkpt lat="42.3116558" lon="13.2983847"><ele>810.0</ele><time>2026-05-02T15:03:09.116Z</time></trkpt><trkpt lat="42.3115391" lon="13.2984687"><ele>810.0</ele><time>2026-05-02T15:03:11.116Z</time></trkpt><trkpt lat="42.3114665" lon="13.2985085"><ele>810.0</ele><time>2026-05-02T15:03:12.117Z</time></trkpt><trkpt lat="42.3113911" lon="13.2985497"><ele>810.0</ele><time>2026-05-02T15:03:13.118Z</time></trkpt><trkpt lat="42.3113246" lon="13.2985913"><ele>810.0</ele><time>2026-05-02T15:03:14.116Z</time></trkpt><trkpt lat="42.3112646" lon="13.298643"><ele>810.0</ele><time>2026-05-02T15:03:15.116Z</time></trkpt><trkpt lat="42.311201" lon="13.2986987"><ele>810.0</ele><time>2026-05-02T15:03:16.116Z</time></trkpt><trkpt lat="42.3111435" lon="13.2987528"><ele>810.0</ele><time>2026-05-02T15:03:17.116Z</time></trkpt><trkpt lat="42.3110683" lon="13.2988115"><ele>810.0</ele><time>2026-05-02T15:03:18.116Z</time></trkpt><trkpt lat="42.3109856" lon="13.2988757"><ele>810.0</ele><time>2026-05-02T15:03:19.116Z</time></trkpt><trkpt lat="42.310897" lon="13.2989427"><ele>810.0</ele><time>2026-05-02T15:03:20.117Z</time></trkpt><trkpt lat="42.3108024" lon="13.2990168"><ele>810.0</ele><time>2026-05-02T15:03:21.117Z</time></trkpt><trkpt lat="42.3107135" lon="13.2990908"><ele>810.0</ele><time>2026-05-02T15:03:22.116Z</time></trkpt><trkpt lat="42.310638" lon="13.2991567"><ele>810.0</ele><time>2026-05-02T15:03:23.116Z</time></trkpt><trkpt lat="42.3105672" lon="13.2992211"><ele>810.0</ele><time>2026-05-02T15:03:24.117Z</time></trkpt><trkpt lat="42.3104994" lon="13.2992865"><ele>809.6666666666666</ele><time>2026-05-02T15:03:25.117Z</time></trkpt><trkpt lat="42.3104394" lon="13.2993586"><ele>809.3333333333333</ele><time>2026-05-02T15:03:26.116Z</time></trkpt><trkpt lat="42.3103846" lon="13.2994381"><ele>809.0</ele><time>2026-05-02T15:03:27.118Z</time></trkpt><trkpt lat="42.3103259" lon="13.2995259"><ele>808.6666666666666</ele><time>2026-05-02T15:03:28.117Z</time></trkpt><trkpt lat="42.3102792" lon="13.2996177"><ele>808.3333333333333</ele><time>2026-05-02T15:03:29.116Z</time></trkpt><trkpt lat="42.3102415" lon="13.2997075"><ele>808.0</ele><time>2026-05-02T15:03:30.116Z</time></trkpt><trkpt lat="42.3102066" lon="13.2997971"><ele>808.0</ele><time>2026-05-02T15:03:31.116Z</time></trkpt><trkpt lat="42.3101422" lon="13.2999121"><ele>808.0</ele><time>2026-05-02T15:03:33.117Z</time></trkpt><trkpt lat="42.3102005" lon="13.2998427"><ele>808.0</ele><time>2026-05-02T15:03:39.117Z</time></trkpt><trkpt lat="42.3102744" lon="13.2998386"><ele>808.0</ele><time>2026-05-02T15:03:42.117Z</time></trkpt><trkpt lat="42.3103194" lon="13.2999188"><ele>808.0</ele><time>2026-05-02T15:03:44.117Z</time></trkpt><trkpt lat="42.3103949" lon="13.3000517"><ele>807.9999999999999</ele><time>2026-05-02T15:03:46.117Z</time></trkpt><trkpt lat="42.310454" lon="13.3001597"><ele>808.0</ele><time>2026-05-02T15:03:47.116Z</time></trkpt><trkpt lat="42.3105194" lon="13.3002756"><ele>808.0</ele><time>2026-05-02T15:03:48.116Z</time></trkpt><trkpt lat="42.3105732" lon="13.3003809"><ele>808.0</ele><time>2026-05-02T15:03:49.116Z</time></trkpt><trkpt lat="42.3106205" lon="13.3004623"><ele>807.9999999999999</ele><time>2026-05-02T15:03:50.117Z</time></trkpt><trkpt lat="42.3106672" lon="13.3005302"><ele>808.0</ele><time>2026-05-02T15:03:51.116Z</time></trkpt><trkpt lat="42.3107496" lon="13.300632"><ele>811.2</ele><time>2026-05-02T15:03:53.117Z</time></trkpt><trkpt lat="42.3108388" lon="13.3007195"><ele>814.4</ele><time>2026-05-02T15:03:55.117Z</time></trkpt><trkpt lat="42.3109074" lon="13.3008448"><ele>817.6</ele><time>2026-05-02T15:03:57.117Z</time></trkpt><trkpt lat="42.3109437" lon="13.3009355"><ele>820.8000000000001</ele><time>2026-05-02T15:03:58.116Z</time></trkpt><trkpt lat="42.3109797" lon="13.3010452"><ele>824.0</ele><time>2026-05-02T15:03:59.117Z</time></trkpt><trkpt lat="42.3110064" lon="13.3011385"><ele>824.0</ele><time>2026-05-02T15:04:00.117Z</time></trkpt><trkpt lat="42.3110381" lon="13.3012736"><ele>824.0</ele><time>2026-05-02T15:04:02.116Z</time></trkpt><trkpt lat="42.311022" lon="13.3013761"><ele>824.0</ele><time>2026-05-02T15:04:04.116Z</time></trkpt><trkpt lat="42.3109539" lon="13.3014953"><ele>824.0</ele><time>2026-05-02T15:04:06.116Z</time></trkpt><trkpt lat="42.3109051" lon="13.3015635"><ele>824.0</ele><time>2026-05-02T15:04:07.116Z</time></trkpt><trkpt lat="42.31081" lon="13.3016967"><ele>825.8000000000001</ele><time>2026-05-02T15:04:09.116Z</time></trkpt><trkpt lat="42.3107666" lon="13.3017804"><ele>827.6</ele><time>2026-05-02T15:04:10.116Z</time></trkpt><trkpt lat="42.3107265" lon="13.3019175"><ele>829.4</ele><time>2026-05-02T15:04:12.116Z</time></trkpt><trkpt lat="42.3108009" lon="13.3020741"><ele>831.2</ele><time>2026-05-02T15:04:14.117Z</time></trkpt><trkpt lat="42.3108439" lon="13.3021665"><ele>833.0</ele><time>2026-05-02T15:04:15.116Z</time></trkpt><trkpt lat="42.3108923" lon="13.3022566"><ele>834.0000000000001</ele><time>2026-05-02T15:04:16.116Z</time></trkpt><trkpt lat="42.3109514" lon="13.3023845"><ele>835.0</ele><time>2026-05-02T15:04:18.117Z</time></trkpt><trkpt lat="42.3109754" lon="13.3024762"><ele>836.0</ele><time>2026-05-02T15:04:19.116Z</time></trkpt><trkpt lat="42.3109981" lon="13.3025853"><ele>837.0</ele><time>2026-05-02T15:04:20.116Z</time></trkpt><trkpt lat="42.3110138" lon="13.3027135"><ele>838.0000000000001</ele><time>2026-05-02T15:04:21.116Z</time></trkpt><trkpt lat="42.3110282" lon="13.3028228"><ele>839.0</ele><time>2026-05-02T15:04:22.117Z</time></trkpt><trkpt lat="42.3110409" lon="13.3029501"><ele>841.2</ele><time>2026-05-02T15:04:23.117Z</time></trkpt><trkpt lat="42.3110564" lon="13.3030971"><ele>843.4000000000001</ele><time>2026-05-02T15:04:24.116Z</time></trkpt><trkpt lat="42.3110781" lon="13.3032468"><ele>845.6</ele><time>2026-05-02T15:04:25.116Z</time></trkpt><trkpt lat="42.3110963" lon="13.3033881"><ele>847.8</ele><time>2026-05-02T15:04:26.117Z</time></trkpt><trkpt lat="42.3111036" lon="13.3035042"><ele>850.0</ele><time>2026-05-02T15:04:27.116Z</time></trkpt><trkpt lat="42.3110886" lon="13.3036198"><ele>849.9999999999999</ele><time>2026-05-02T15:04:28.116Z</time></trkpt><trkpt lat="42.3110639" lon="13.3037693"><ele>850.0</ele><time>2026-05-02T15:04:29.117Z</time></trkpt><trkpt lat="42.3110457" lon="13.3038946"><ele>850.0</ele><time>2026-05-02T15:04:30.117Z</time></trkpt><trkpt lat="42.3110117" lon="13.3040079"><ele>850.0</ele><time>2026-05-02T15:04:31.116Z</time></trkpt><trkpt lat="42.3109805" lon="13.3040953"><ele>849.9999999999999</ele><time>2026-05-02T15:04:32.117Z</time></trkpt><trkpt lat="42.3109634" lon="13.3041781"><ele>850.0</ele><time>2026-05-02T15:04:33.116Z</time></trkpt><trkpt lat="42.3109665" lon="13.3043074"><ele>852.3333333333333</ele><time>2026-05-02T15:04:35.117Z</time></trkpt><trkpt lat="42.3109897" lon="13.3044578"><ele>854.6666666666666</ele><time>2026-05-02T15:04:37.116Z</time></trkpt><trkpt lat="42.3110025" lon="13.304544"><ele>857.0</ele><time>2026-05-02T15:04:38.117Z</time></trkpt><trkpt lat="42.3110089" lon="13.3046362"><ele>859.3333333333333</ele><time>2026-05-02T15:04:39.116Z</time></trkpt><trkpt lat="42.3110112" lon="13.3047289"><ele>861.6666666666666</ele><time>2026-05-02T15:04:40.116Z</time></trkpt><trkpt lat="42.3110095" lon="13.3048236"><ele>864.0</ele><time>2026-05-02T15:04:41.117Z</time></trkpt><trkpt lat="42.3110086" lon="13.3049181"><ele>866.2</ele><time>2026-05-02T15:04:42.116Z</time></trkpt><trkpt lat="42.311012" lon="13.3050105"><ele>868.4000000000001</ele><time>2026-05-02T15:04:43.117Z</time></trkpt><trkpt lat="42.3110182" lon="13.3051573"><ele>870.6</ele><time>2026-05-02T15:04:45.117Z</time></trkpt><trkpt lat="42.3109987" lon="13.3053095"><ele>872.8</ele><time>2026-05-02T15:04:47.117Z</time></trkpt><trkpt lat="42.3109736" lon="13.3054811"><ele>875.0</ele><time>2026-05-02T15:04:49.116Z</time></trkpt><trkpt lat="42.3109561" lon="13.3055955"><ele>876.0000000000001</ele><time>2026-05-02T15:04:51.116Z</time></trkpt><trkpt lat="42.3109195" lon="13.3057087"><ele>877.0</ele><time>2026-05-02T15:04:57.116Z</time></trkpt><trkpt lat="42.3108562" lon="13.3058614"><ele>878.0</ele><time>2026-05-02T15:04:59.116Z</time></trkpt><trkpt lat="42.3108245" lon="13.3059365"><ele>879.0</ele><time>2026-05-02T15:05:00.117Z</time></trkpt><trkpt lat="42.3107898" lon="13.3060309"><ele>880.0000000000001</ele><time>2026-05-02T15:05:02.116Z</time></trkpt><trkpt lat="42.3107629" lon="13.3061158"><ele>881.0</ele><time>2026-05-02T15:05:06.116Z</time></trkpt><trkpt lat="42.3107848" lon="13.3060328"><ele>881.0000000000001</ele><time>2026-05-02T15:05:16.116Z</time></trkpt><trkpt lat="42.3108225" lon="13.3059487"><ele>881.0</ele><time>2026-05-02T15:05:18.116Z</time></trkpt><trkpt lat="42.3108819" lon="13.3058139"><ele>881.0</ele><time>2026-05-02T15:05:20.117Z</time></trkpt><trkpt lat="42.3109287" lon="13.3057024"><ele>881.0</ele><time>2026-05-02T15:05:22.116Z</time></trkpt><trkpt lat="42.3109756" lon="13.305626"><ele>881.0000000000001</ele><time>2026-05-02T15:05:25.116Z</time></trkpt><trkpt lat="42.3110644" lon="13.3056268"><ele>881.0</ele><time>2026-05-02T15:05:28.117Z</time></trkpt><trkpt lat="42.3111699" lon="13.3056264"><ele>881.0000000000001</ele><time>2026-05-02T15:05:30.116Z</time></trkpt><trkpt lat="42.3112566" lon="13.3055877"><ele>881.0</ele><time>2026-05-02T15:05:32.117Z</time></trkpt><trkpt lat="42.3113419" lon="13.3056156"><ele>881.0</ele><time>2026-05-02T15:05:34.117Z</time></trkpt><trkpt lat="42.3114415" lon="13.3056439"><ele>881.0</ele><time>2026-05-02T15:05:36.118Z</time></trkpt><trkpt lat="42.3115096" lon="13.3056968"><ele>881.0000000000001</ele><time>2026-05-02T15:05:38.116Z</time></trkpt><trkpt lat="42.3115371" lon="13.3057912"><ele>881.0</ele><time>2026-05-02T15:05:40.116Z</time></trkpt><trkpt lat="42.311618" lon="13.3058241"><ele>881.8333333333334</ele><time>2026-05-02T15:05:43.116Z</time></trkpt><trkpt lat="42.3117017" lon="13.3058091"><ele>882.6666666666667</ele><time>2026-05-02T15:05:45.117Z</time></trkpt><trkpt lat="42.3117743" lon="13.3057608"><ele>883.5</ele><time>2026-05-02T15:05:46.118Z</time></trkpt><trkpt lat="42.3118479" lon="13.3057283"><ele>884.3333333333333</ele><time>2026-05-02T15:05:47.116Z</time></trkpt><trkpt lat="42.311922" lon="13.3056841"><ele>885.1666666666666</ele><time>2026-05-02T15:05:48.117Z</time></trkpt><trkpt lat="42.3119867" lon="13.3056277"><ele>886.0</ele><time>2026-05-02T15:05:49.116Z</time></trkpt><trkpt lat="42.3120817" lon="13.3055095"><ele>886.3333333333333</ele><time>2026-05-02T15:05:51.116Z</time></trkpt><trkpt lat="42.3121481" lon="13.3054536"><ele>886.6666666666666</ele><time>2026-05-02T15:05:52.116Z</time></trkpt><trkpt lat="42.3122475" lon="13.3053537"><ele>887.0</ele><time>2026-05-02T15:05:54.117Z</time></trkpt><trkpt lat="42.3122921" lon="13.3052796"><ele>887.3333333333333</ele><time>2026-05-02T15:05:55.117Z</time></trkpt><trkpt lat="42.3123426" lon="13.3052058"><ele>887.6666666666666</ele><time>2026-05-02T15:05:56.117Z</time></trkpt><trkpt lat="42.3124009" lon="13.3051255"><ele>888.0</ele><time>2026-05-02T15:05:57.117Z</time></trkpt><trkpt lat="42.3124615" lon="13.305018"><ele>888.0</ele><time>2026-05-02T15:05:58.117Z</time></trkpt><trkpt lat="42.3125255" lon="13.3049214"><ele>888.0</ele><time>2026-05-02T15:05:59.116Z</time></trkpt><trkpt lat="42.312575" lon="13.3048536"><ele>888.0</ele><time>2026-05-02T15:06:00.117Z</time></trkpt><trkpt lat="42.3126343" lon="13.3047835"><ele>888.0</ele><time>2026-05-02T15:06:01.116Z</time></trkpt><trkpt lat="42.3126913" lon="13.304725"><ele>888.0</ele><time>2026-05-02T15:06:02.116Z</time></trkpt><trkpt lat="42.3127533" lon="13.3046817"><ele>888.0</ele><time>2026-05-02T15:06:03.116Z</time></trkpt><trkpt lat="42.3128157" lon="13.3046306"><ele>887.8</ele><time>2026-05-02T15:06:04.117Z</time></trkpt><trkpt lat="42.3128786" lon="13.3045641"><ele>887.5999999999999</ele><time>2026-05-02T15:06:05.117Z</time></trkpt><trkpt lat="42.312935" lon="13.304507"><ele>887.4000000000001</ele><time>2026-05-02T15:06:06.116Z</time></trkpt><trkpt lat="42.3130369" lon="13.3044605"><ele>887.2</ele><time>2026-05-02T15:06:08.117Z</time></trkpt><trkpt lat="42.3131544" lon="13.3044321"><ele>887.0</ele><time>2026-05-02T15:06:10.117Z</time></trkpt><trkpt lat="42.3132564" lon="13.3043754"><ele>887.0000000000001</ele><time>2026-05-02T15:06:12.116Z</time></trkpt><trkpt lat="42.313321" lon="13.3043132"><ele>887.0</ele><time>2026-05-02T15:06:14.116Z</time></trkpt><trkpt lat="42.3134015" lon="13.304314"><ele>887.0</ele><time>2026-05-02T15:06:17.117Z</time></trkpt><trkpt lat="42.3134808" lon="13.3043332"><ele>887.0</ele><time>2026-05-02T15:06:19.118Z</time></trkpt><trkpt lat="42.3135499" lon="13.3043628"><ele>887.0000000000001</ele><time>2026-05-02T15:06:21.118Z</time></trkpt><trkpt lat="42.3136059" lon="13.3044463"><ele>887.0</ele><time>2026-05-02T15:06:23.117Z</time></trkpt><trkpt lat="42.3136153" lon="13.3045336"><ele>887.0000000000001</ele><time>2026-05-02T15:06:24.117Z</time></trkpt><trkpt lat="42.3136121" lon="13.3046819"><ele>887.0</ele><time>2026-05-02T15:06:26.116Z</time></trkpt><trkpt lat="42.3136046" lon="13.304785"><ele>887.0</ele><time>2026-05-02T15:06:27.117Z</time></trkpt><trkpt lat="42.3136037" lon="13.3048808"><ele>887.0</ele><time>2026-05-02T15:06:28.117Z</time></trkpt><trkpt lat="42.3136087" lon="13.3050006"><ele>887.0000000000001</ele><time>2026-05-02T15:06:29.117Z</time></trkpt><trkpt lat="42.313608" lon="13.3051155"><ele>887.0</ele><time>2026-05-02T15:06:30.117Z</time></trkpt><trkpt lat="42.3136045" lon="13.3052248"><ele>887.3333333333334</ele><time>2026-05-02T15:06:31.117Z</time></trkpt><trkpt lat="42.3135922" lon="13.3053303"><ele>887.6666666666667</ele><time>2026-05-02T15:06:32.117Z</time></trkpt><trkpt lat="42.3135815" lon="13.3054415"><ele>888.0</ele><time>2026-05-02T15:06:33.116Z</time></trkpt><trkpt lat="42.313576" lon="13.3055285"><ele>888.3333333333333</ele><time>2026-05-02T15:06:34.116Z</time></trkpt><trkpt lat="42.3136213" lon="13.3056402"><ele>888.6666666666666</ele><time>2026-05-02T15:06:36.117Z</time></trkpt><trkpt lat="42.3136697" lon="13.3056948"><ele>889.0</ele><time>2026-05-02T15:06:37.116Z</time></trkpt><trkpt lat="42.3137304" lon="13.3058423"><ele>888.9999999999999</ele><time>2026-05-02T15:06:39.116Z</time></trkpt><trkpt lat="42.3137607" lon="13.3059206"><ele>889.0</ele><time>2026-05-02T15:06:40.116Z</time></trkpt><trkpt lat="42.3138456" lon="13.3060085"><ele>889.0</ele><time>2026-05-02T15:06:42.117Z</time></trkpt><trkpt lat="42.3139507" lon="13.3060654"><ele>889.0</ele><time>2026-05-02T15:06:44.117Z</time></trkpt><trkpt lat="42.3140112" lon="13.3061019"><ele>888.9999999999999</ele><time>2026-05-02T15:06:45.117Z</time></trkpt><trkpt lat="42.3140767" lon="13.3061244"><ele>889.0</ele><time>2026-05-02T15:06:46.116Z</time></trkpt><trkpt lat="42.3141684" lon="13.3061693"><ele>886.9999999999999</ele><time>2026-05-02T15:06:48.118Z</time></trkpt><trkpt lat="42.3142261" lon="13.3062263"><ele>885.0</ele><time>2026-05-02T15:06:50.118Z</time></trkpt><trkpt lat="42.3142823" lon="13.3062781"><ele>883.0</ele><time>2026-05-02T15:06:52.117Z</time></trkpt><trkpt lat="42.3143604" lon="13.3062624"><ele>881.0</ele><time>2026-05-02T15:06:55.116Z</time></trkpt><trkpt lat="42.3144214" lon="13.3062098"><ele>878.9999999999999</ele><time>2026-05-02T15:06:57.116Z</time></trkpt><trkpt lat="42.3145042" lon="13.3060949"><ele>877.0</ele><time>2026-05-02T15:06:59.117Z</time></trkpt><trkpt lat="42.3145985" lon="13.3060411"><ele>876.9999999999999</ele><time>2026-05-02T15:07:01.118Z</time></trkpt><trkpt lat="42.3146967" lon="13.3060595"><ele>877.0</ele><time>2026-05-02T15:07:03.116Z</time></trkpt><trkpt lat="42.3147699" lon="13.3061304"><ele>877.0</ele><time>2026-05-02T15:07:05.117Z</time></trkpt><trkpt lat="42.3148076" lon="13.3062257"><ele>877.0</ele><time>2026-05-02T15:07:07.118Z</time></trkpt><trkpt lat="42.3148199" lon="13.3063403"><ele>876.9999999999999</ele><time>2026-05-02T15:07:09.116Z</time></trkpt><trkpt lat="42.314816" lon="13.3064619"><ele>877.0</ele><time>2026-05-02T15:07:11.116Z</time></trkpt><trkpt lat="42.3147904" lon="13.3066163"><ele>876.7142857142858</ele><time>2026-05-02T15:07:13.117Z</time></trkpt><trkpt lat="42.3147647" lon="13.3067115"><ele>876.4285714285714</ele><time>2026-05-02T15:07:14.117Z</time></trkpt><trkpt lat="42.3147319" lon="13.3068019"><ele>876.1428571428571</ele><time>2026-05-02T15:07:15.116Z</time></trkpt><trkpt lat="42.3146926" lon="13.306888"><ele>875.8571428571429</ele><time>2026-05-02T15:07:16.116Z</time></trkpt><trkpt lat="42.3146549" lon="13.3069686"><ele>875.5714285714286</ele><time>2026-05-02T15:07:17.116Z</time></trkpt><trkpt lat="42.3146193" lon="13.3070453"><ele>875.2857142857143</ele><time>2026-05-02T15:07:18.116Z</time></trkpt><trkpt lat="42.3145831" lon="13.3071182"><ele>875.0</ele><time>2026-05-02T15:07:19.116Z</time></trkpt><trkpt lat="42.3145153" lon="13.3072346"><ele>872.0</ele><time>2026-05-02T15:07:21.116Z</time></trkpt><trkpt lat="42.3144607" lon="13.3073231"><ele>869.0</ele><time>2026-05-02T15:07:23.117Z</time></trkpt><trkpt lat="42.3144015" lon="13.3074185"><ele>866.0</ele><time>2026-05-02T15:07:25.116Z</time></trkpt><trkpt lat="42.3143601" lon="13.3075553"><ele>863.0</ele><time>2026-05-02T15:07:27.116Z</time></trkpt><trkpt lat="42.3143267" lon="13.3076923"><ele>860.0</ele><time>2026-05-02T15:07:29.117Z</time></trkpt><trkpt lat="42.3143188" lon="13.3078367"><ele>860.0</ele><time>2026-05-02T15:07:31.116Z</time></trkpt><trkpt lat="42.3143311" lon="13.3079597"><ele>860.0</ele><time>2026-05-02T15:07:33.117Z</time></trkpt><trkpt lat="42.314374" lon="13.3080785"><ele>860.0</ele><time>2026-05-02T15:07:35.117Z</time></trkpt><trkpt lat="42.314466" lon="13.3081725"><ele>860.0</ele><time>2026-05-02T15:07:37.116Z</time></trkpt><trkpt lat="42.3145849" lon="13.3082291"><ele>860.0</ele><time>2026-05-02T15:07:39.117Z</time></trkpt><trkpt lat="42.3147066" lon="13.3082273"><ele>857.5000000000001</ele><time>2026-05-02T15:07:41.116Z</time></trkpt><trkpt lat="42.3147777" lon="13.3081976"><ele>855.0</ele><time>2026-05-02T15:07:42.116Z</time></trkpt><trkpt lat="42.3148426" lon="13.3081637"><ele>852.5</ele><time>2026-05-02T15:07:43.117Z</time></trkpt><trkpt lat="42.3149132" lon="13.3081221"><ele>850.0</ele><time>2026-05-02T15:07:44.116Z</time></trkpt><trkpt lat="42.3149875" lon="13.3080552"><ele>847.5000000000001</ele><time>2026-05-02T15:07:46.117Z</time></trkpt><trkpt lat="42.3150717" lon="13.3079763"><ele>845.0</ele><time>2026-05-02T15:07:48.116Z</time></trkpt><trkpt lat="42.3151253" lon="13.3079218"><ele>844.9999999999999</ele><time>2026-05-02T15:07:49.116Z</time></trkpt><trkpt lat="42.315181" lon="13.3078681"><ele>845.0</ele><time>2026-05-02T15:07:50.116Z</time></trkpt><trkpt lat="42.3152443" lon="13.3078329"><ele>845.0</ele><time>2026-05-02T15:07:51.117Z</time></trkpt><trkpt lat="42.3153091" lon="13.3077924"><ele>845.0</ele><time>2026-05-02T15:07:52.117Z</time></trkpt><trkpt lat="42.3153775" lon="13.3077494"><ele>845.0</ele><time>2026-05-02T15:07:53.116Z</time></trkpt><trkpt lat="42.3154574" lon="13.3077127"><ele>844.9999999999999</ele><time>2026-05-02T15:07:54.116Z</time></trkpt><trkpt lat="42.3155246" lon="13.3076997"><ele>845.0</ele><time>2026-05-02T15:07:55.116Z</time></trkpt><trkpt lat="42.3156037" lon="13.3076984"><ele>842.6666666666667</ele><time>2026-05-02T15:07:56.117Z</time></trkpt><trkpt lat="42.3156978" lon="13.3076969"><ele>840.3333333333334</ele><time>2026-05-02T15:07:57.116Z</time></trkpt><trkpt lat="42.31579" lon="13.307701"><ele>838.0</ele><time>2026-05-02T15:07:58.118Z</time></trkpt><trkpt lat="42.3158643" lon="13.3077079"><ele>835.6666666666667</ele><time>2026-05-02T15:07:59.117Z</time></trkpt><trkpt lat="42.3159303" lon="13.3077407"><ele>833.3333333333334</ele><time>2026-05-02T15:08:00.116Z</time></trkpt><trkpt lat="42.3160299" lon="13.3078248"><ele>831.0</ele><time>2026-05-02T15:08:02.117Z</time></trkpt><trkpt lat="42.3161076" lon="13.3079392"><ele>831.0</ele><time>2026-05-02T15:08:04.116Z</time></trkpt><trkpt lat="42.3161758" lon="13.3080624"><ele>831.0</ele><time>2026-05-02T15:08:06.116Z</time></trkpt><trkpt lat="42.3162338" lon="13.3081679"><ele>831.0</ele><time>2026-05-02T15:08:08.117Z</time></trkpt><trkpt lat="42.3162885" lon="13.3082624"><ele>831.0</ele><time>2026-05-02T15:08:10.117Z</time></trkpt><trkpt lat="42.3163335" lon="13.3083547"><ele>831.0</ele><time>2026-05-02T15:08:12.116Z</time></trkpt><trkpt lat="42.3163858" lon="13.3084326"><ele>829.6666666666666</ele><time>2026-05-02T15:08:15.116Z</time></trkpt><trkpt lat="42.3164369" lon="13.3084935"><ele>828.3333333333333</ele><time>2026-05-02T15:08:19.116Z</time></trkpt><trkpt lat="42.3164893" lon="13.3085594"><ele>827.0</ele><time>2026-05-02T15:08:24.117Z</time></trkpt><trkpt lat="42.3165161" lon="13.3086456"><ele>825.6666666666666</ele><time>2026-05-02T15:08:27.117Z</time></trkpt><trkpt lat="42.3164658" lon="13.3087677"><ele>824.3333333333333</ele><time>2026-05-02T15:08:29.117Z</time></trkpt><trkpt lat="42.3164353" lon="13.3088548"><ele>823.0</ele><time>2026-05-02T15:08:30.117Z</time></trkpt><trkpt lat="42.3163994" lon="13.3089523"><ele>823.0</ele><time>2026-05-02T15:08:31.116Z</time></trkpt><trkpt lat="42.3163473" lon="13.3090554"><ele>823.0</ele><time>2026-05-02T15:08:32.116Z</time></trkpt><trkpt lat="42.3162896" lon="13.3091593"><ele>823.0</ele><time>2026-05-02T15:08:33.116Z</time></trkpt><trkpt lat="42.3162235" lon="13.3092592"><ele>823.0</ele><time>2026-05-02T15:08:34.116Z</time></trkpt><trkpt lat="42.3161599" lon="13.3093676"><ele>823.0</ele><time>2026-05-02T15:08:35.116Z</time></trkpt><trkpt lat="42.3160928" lon="13.3094758"><ele>823.0</ele><time>2026-05-02T15:08:36.116Z</time></trkpt><trkpt lat="42.3160274" lon="13.3095828"><ele>823.0</ele><time>2026-05-02T15:08:37.117Z</time></trkpt><trkpt lat="42.3159613" lon="13.3096892"><ele>823.0</ele><time>2026-05-02T15:08:38.116Z</time></trkpt><trkpt lat="42.3158923" lon="13.3098028"><ele>823.0</ele><time>2026-05-02T15:08:39.116Z</time></trkpt><trkpt lat="42.3158317" lon="13.3099131"><ele>823.0</ele><time>2026-05-02T15:08:40.117Z</time></trkpt><trkpt lat="42.3157762" lon="13.3100129"><ele>824.0</ele><time>2026-05-02T15:08:41.116Z</time></trkpt><trkpt lat="42.3157282" lon="13.310117"><ele>825.0</ele><time>2026-05-02T15:08:42.116Z</time></trkpt><trkpt lat="42.3156644" lon="13.3102091"><ele>826.0</ele><time>2026-05-02T15:08:43.116Z</time></trkpt><trkpt lat="42.3155994" lon="13.3103104"><ele>827.0</ele><time>2026-05-02T15:08:44.118Z</time></trkpt><trkpt lat="42.3155254" lon="13.3104231"><ele>828.0</ele><time>2026-05-02T15:08:45.117Z</time></trkpt><trkpt lat="42.315464" lon="13.3105233"><ele>829.1666666666666</ele><time>2026-05-02T15:08:46.117Z</time></trkpt><trkpt lat="42.3154067" lon="13.3106118"><ele>830.3333333333333</ele><time>2026-05-02T15:08:47.117Z</time></trkpt><trkpt lat="42.31536" lon="13.3106976"><ele>831.5</ele><time>2026-05-02T15:08:48.117Z</time></trkpt><trkpt lat="42.3152929" lon="13.3107908"><ele>832.6666666666666</ele><time>2026-05-02T15:08:49.116Z</time></trkpt><trkpt lat="42.3152332" lon="13.3108835"><ele>833.8333333333333</ele><time>2026-05-02T15:08:50.116Z</time></trkpt><trkpt lat="42.315169" lon="13.3109619"><ele>835.0</ele><time>2026-05-02T15:08:51.116Z</time></trkpt><trkpt lat="42.3150897" lon="13.3110422"><ele>834.9999999999999</ele><time>2026-05-02T15:08:52.117Z</time></trkpt><trkpt lat="42.3150103" lon="13.3111075"><ele>835.0</ele><time>2026-05-02T15:08:53.116Z</time></trkpt><trkpt lat="42.314947" lon="13.3111585"><ele>835.0</ele><time>2026-05-02T15:08:54.116Z</time></trkpt><trkpt lat="42.3148528" lon="13.311213"><ele>835.0</ele><time>2026-05-02T15:08:56.117Z</time></trkpt><trkpt lat="42.3148201" lon="13.3113035"><ele>834.9999999999999</ele><time>2026-05-02T15:08:59.117Z</time></trkpt><trkpt lat="42.3148423" lon="13.3114153"><ele>835.0</ele><time>2026-05-02T15:09:01.117Z</time></trkpt><trkpt lat="42.3148792" lon="13.3115192"><ele>833.8333333333333</ele><time>2026-05-02T15:09:03.116Z</time></trkpt><trkpt lat="42.3149373" lon="13.3115829"><ele>832.6666666666666</ele><time>2026-05-02T15:09:05.117Z</time></trkpt><trkpt lat="42.315055" lon="13.3117001"><ele>831.5</ele><time>2026-05-02T15:09:07.116Z</time></trkpt><trkpt lat="42.3151094" lon="13.3117669"><ele>830.3333333333333</ele><time>2026-05-02T15:09:08.117Z</time></trkpt><trkpt lat="42.3151494" lon="13.3118398"><ele>829.1666666666666</ele><time>2026-05-02T15:09:09.117Z</time></trkpt><trkpt lat="42.3151965" lon="13.3119041"><ele>828.0</ele><time>2026-05-02T15:09:10.116Z</time></trkpt><trkpt lat="42.3152406" lon="13.3119721"><ele>828.0</ele><time>2026-05-02T15:09:11.116Z</time></trkpt><trkpt lat="42.3152877" lon="13.3120492"><ele>828.0</ele><time>2026-05-02T15:09:12.117Z</time></trkpt><trkpt lat="42.3153389" lon="13.3121479"><ele>828.0</ele><time>2026-05-02T15:09:13.116Z</time></trkpt><trkpt lat="42.3154017" lon="13.3122438"><ele>828.0</ele><time>2026-05-02T15:09:14.117Z</time></trkpt><trkpt lat="42.315462" lon="13.3123259"><ele>828.0</ele><time>2026-05-02T15:09:15.117Z</time></trkpt><trkpt lat="42.3155243" lon="13.3124136"><ele>828.0</ele><time>2026-05-02T15:09:16.117Z</time></trkpt><trkpt lat="42.3155849" lon="13.3124772"><ele>828.8</ele><time>2026-05-02T15:09:17.117Z</time></trkpt><trkpt lat="42.3156481" lon="13.3125311"><ele>829.5999999999999</ele><time>2026-05-02T15:09:18.117Z</time></trkpt><trkpt lat="42.3157448" lon="13.3125051"><ele>830.4000000000001</ele><time>2026-05-02T15:09:20.116Z</time></trkpt><trkpt lat="42.3158229" lon="13.3124988"><ele>831.2</ele><time>2026-05-02T15:09:21.117Z</time></trkpt><trkpt lat="42.3159246" lon="13.3125487"><ele>832.0</ele><time>2026-05-02T15:09:23.116Z</time></trkpt><trkpt lat="42.3160496" lon="13.3126207"><ele>832.0</ele><time>2026-05-02T15:09:25.117Z</time></trkpt><trkpt lat="42.3161183" lon="13.3126613"><ele>832.0</ele><time>2026-05-02T15:09:26.116Z</time></trkpt><trkpt lat="42.3161958" lon="13.3127065"><ele>832.0</ele><time>2026-05-02T15:09:27.116Z</time></trkpt><trkpt lat="42.3162876" lon="13.3127567"><ele>832.0</ele><time>2026-05-02T15:09:28.117Z</time></trkpt><trkpt lat="42.316387" lon="13.3128219"><ele>832.0</ele><time>2026-05-02T15:09:29.116Z</time></trkpt><trkpt lat="42.3164806" lon="13.3128767"><ele>834.0</ele><time>2026-05-02T15:09:30.118Z</time></trkpt><trkpt lat="42.3165618" lon="13.3129276"><ele>836.0</ele><time>2026-05-02T15:09:31.116Z</time></trkpt><trkpt lat="42.3166639" lon="13.3129966"><ele>838.0</ele><time>2026-05-02T15:09:32.116Z</time></trkpt><trkpt lat="42.316775" lon="13.3130649"><ele>840.0</ele><time>2026-05-02T15:09:33.118Z</time></trkpt><trkpt lat="42.3168709" lon="13.313114"><ele>842.0</ele><time>2026-05-02T15:09:34.117Z</time></trkpt><trkpt lat="42.3169599" lon="13.3131467"><ele>843.0000000000001</ele><time>2026-05-02T15:09:35.117Z</time></trkpt><trkpt lat="42.3170387" lon="13.3131479"><ele>844.0</ele><time>2026-05-02T15:09:36.117Z</time></trkpt><trkpt lat="42.3171143" lon="13.3131393"><ele>845.0</ele><time>2026-05-02T15:09:37.116Z</time></trkpt><trkpt lat="42.3171858" lon="13.313132"><ele>846.0</ele><time>2026-05-02T15:09:38.116Z</time></trkpt><trkpt lat="42.3172923" lon="13.3131872"><ele>847.0000000000001</ele><time>2026-05-02T15:09:40.116Z</time></trkpt><trkpt lat="42.3173467" lon="13.3132441"><ele>848.0</ele><time>2026-05-02T15:09:41.116Z</time></trkpt><trkpt lat="42.3174056" lon="13.3133111"><ele>849.0</ele><time>2026-05-02T15:09:42.117Z</time></trkpt><trkpt lat="42.317477" lon="13.3133919"><ele>850.0</ele><time>2026-05-02T15:09:43.116Z</time></trkpt><trkpt lat="42.317563" lon="13.3134803"><ele>851.0</ele><time>2026-05-02T15:09:44.117Z</time></trkpt><trkpt lat="42.3176621" lon="13.3135826"><ele>852.0</ele><time>2026-05-02T15:09:45.116Z</time></trkpt><trkpt lat="42.3177464" lon="13.3136706"><ele>853.0</ele><time>2026-05-02T15:09:46.116Z</time></trkpt><trkpt lat="42.3178262" lon="13.3137474"><ele>852.9999999999999</ele><time>2026-05-02T15:09:47.116Z</time></trkpt><trkpt lat="42.3179003" lon="13.313821"><ele>853.0</ele><time>2026-05-02T15:09:48.116Z</time></trkpt><trkpt lat="42.3179543" lon="13.3138786"><ele>853.0</ele><time>2026-05-02T15:09:49.117Z</time></trkpt><trkpt lat="42.3180243" lon="13.3139458"><ele>853.0</ele><time>2026-05-02T15:09:50.116Z</time></trkpt><trkpt lat="42.318086" lon="13.3139987"><ele>852.9999999999999</ele><time>2026-05-02T15:09:51.116Z</time></trkpt><trkpt lat="42.3181615" lon="13.3140396"><ele>853.0</ele><time>2026-05-02T15:09:52.116Z</time></trkpt><trkpt lat="42.3182475" lon="13.3140671"><ele>852.8333333333333</ele><time>2026-05-02T15:09:54.117Z</time></trkpt><trkpt lat="42.318331" lon="13.3141098"><ele>852.6666666666666</ele><time>2026-05-02T15:10:05.118Z</time></trkpt><trkpt lat="42.3184046" lon="13.314073"><ele>852.5</ele><time>2026-05-02T15:10:07.117Z</time></trkpt><trkpt lat="42.3184662" lon="13.3139939"><ele>852.3333333333333</ele><time>2026-05-02T15:10:09.116Z</time></trkpt><trkpt lat="42.3185264" lon="13.3139074"><ele>852.1666666666666</ele><time>2026-05-02T15:10:11.117Z</time></trkpt><trkpt lat="42.3185739" lon="13.3138133"><ele>852.0</ele><time>2026-05-02T15:10:13.117Z</time></trkpt><trkpt lat="42.318631" lon="13.3137308"><ele>852.0</ele><time>2026-05-02T15:10:15.117Z</time></trkpt><trkpt lat="42.318712" lon="13.3137102"><ele>852.0</ele><time>2026-05-02T15:10:17.116Z</time></trkpt><trkpt lat="42.3188304" lon="13.3137749"><ele>852.0</ele><time>2026-05-02T15:10:19.117Z</time></trkpt><trkpt lat="42.3189152" lon="13.313839"><ele>852.0</ele><time>2026-05-02T15:10:20.116Z</time></trkpt><trkpt lat="42.3190075" lon="13.3139116"><ele>852.0</ele><time>2026-05-02T15:10:21.116Z</time></trkpt><trkpt lat="42.3191018" lon="13.3139872"><ele>850.75</ele><time>2026-05-02T15:10:22.116Z</time></trkpt><trkpt lat="42.3191971" lon="13.314067"><ele>849.5</ele><time>2026-05-02T15:10:23.116Z</time></trkpt><trkpt lat="42.3192943" lon="13.3141464"><ele>848.25</ele><time>2026-05-02T15:10:24.118Z</time></trkpt><trkpt lat="42.319393" lon="13.3142242"><ele>847.0</ele><time>2026-05-02T15:10:25.116Z</time></trkpt><trkpt lat="42.3194986" lon="13.3143072"><ele>847.0</ele><time>2026-05-02T15:10:26.116Z</time></trkpt><trkpt lat="42.3196103" lon="13.3143981"><ele>847.0</ele><time>2026-05-02T15:10:27.117Z</time></trkpt><trkpt lat="42.3197293" lon="13.3144917"><ele>847.0</ele><time>2026-05-02T15:10:28.117Z</time></trkpt><trkpt lat="42.3198474" lon="13.3145867"><ele>847.0</ele><time>2026-05-02T15:10:29.118Z</time></trkpt><trkpt lat="42.3199634" lon="13.314679"><ele>845.2</ele><time>2026-05-02T15:10:30.116Z</time></trkpt><trkpt lat="42.320074" lon="13.314768"><ele>843.4000000000001</ele><time>2026-05-02T15:10:31.117Z</time></trkpt><trkpt lat="42.3201761" lon="13.3148587"><ele>841.5999999999999</ele><time>2026-05-02T15:10:32.117Z</time></trkpt><trkpt lat="42.3202695" lon="13.3149375"><ele>839.8</ele><time>2026-05-02T15:10:33.116Z</time></trkpt><trkpt lat="42.3203436" lon="13.3150021"><ele>838.0</ele><time>2026-05-02T15:10:34.116Z</time></trkpt><trkpt lat="42.3203994" lon="13.3150671"><ele>837.9999999999999</ele><time>2026-05-02T15:10:35.116Z</time></trkpt><trkpt lat="42.3204251" lon="13.3151457"><ele>838.0</ele><time>2026-05-02T15:10:36.117Z</time></trkpt><trkpt lat="42.3204231" lon="13.3152452"><ele>838.0</ele><time>2026-05-02T15:10:37.116Z</time></trkpt><trkpt lat="42.3204138" lon="13.3153348"><ele>838.0</ele><time>2026-05-02T15:10:38.116Z</time></trkpt><trkpt lat="42.320383" lon="13.3154576"><ele>837.9999999999999</ele><time>2026-05-02T15:10:40.116Z</time></trkpt><trkpt lat="42.3203235" lon="13.3155713"><ele>838.0</ele><time>2026-05-02T15:10:45.116Z</time></trkpt><trkpt lat="42.320253" lon="13.3157131"><ele>837.8</ele><time>2026-05-02T15:10:47.117Z</time></trkpt><trkpt lat="42.3202449" lon="13.3158108"><ele>837.5999999999999</ele><time>2026-05-02T15:10:48.117Z</time></trkpt><trkpt lat="42.3202275" lon="13.3159514"><ele>837.4000000000001</ele><time>2026-05-02T15:10:50.116Z</time></trkpt><trkpt lat="42.3202214" lon="13.3160391"><ele>837.2</ele><time>2026-05-02T15:10:53.117Z</time></trkpt><trkpt lat="42.3202421" lon="13.3159537"><ele>837.0</ele><time>2026-05-02T15:10:56.116Z</time></trkpt><trkpt lat="42.3202653" lon="13.3157628"><ele>837.0</ele><time>2026-05-02T15:10:58.116Z</time></trkpt><trkpt lat="42.3202862" lon="13.3156539"><ele>837.0</ele><time>2026-05-02T15:10:59.116Z</time></trkpt><trkpt lat="42.3203239" lon="13.3155806"><ele>837.0</ele><time>2026-05-02T15:11:00.117Z</time></trkpt><trkpt lat="42.3203839" lon="13.3154913"><ele>837.0</ele><time>2026-05-02T15:11:02.117Z</time></trkpt><trkpt lat="42.3204849" lon="13.3155377"><ele>837.0</ele><time>2026-05-02T15:11:04.117Z</time></trkpt><trkpt lat="42.3205853" lon="13.3156534"><ele>835.4000000000001</ele><time>2026-05-02T15:11:05.116Z</time></trkpt><trkpt lat="42.3206558" lon="13.3156959"><ele>833.8000000000001</ele><time>2026-05-02T15:11:06.117Z</time></trkpt><trkpt lat="42.3207297" lon="13.3157833"><ele>832.2</ele><time>2026-05-02T15:11:08.118Z</time></trkpt><trkpt lat="42.3207753" lon="13.3159425"><ele>830.6</ele><time>2026-05-02T15:11:10.116Z</time></trkpt><trkpt lat="42.3208752" lon="13.31604"><ele>829.0</ele><time>2026-05-02T15:11:12.117Z</time></trkpt><trkpt lat="42.320951" lon="13.316072"><ele>828.9999999999999</ele><time>2026-05-02T15:11:14.116Z</time></trkpt><trkpt lat="42.3210336" lon="13.3160633"><ele>829.0</ele><time>2026-05-02T15:11:16.116Z</time></trkpt><trkpt lat="42.3211068" lon="13.3160568"><ele>829.0</ele><time>2026-05-02T15:11:17.116Z</time></trkpt><trkpt lat="42.3211924" lon="13.316054"><ele>829.0</ele><time>2026-05-02T15:11:18.117Z</time></trkpt><trkpt lat="42.3212748" lon="13.3160663"><ele>828.9999999999999</ele><time>2026-05-02T15:11:19.118Z</time></trkpt><trkpt lat="42.3213576" lon="13.3160875"><ele>829.0</ele><time>2026-05-02T15:11:20.118Z</time></trkpt><trkpt lat="42.3214208" lon="13.3161285"><ele>828.2857142857142</ele><time>2026-05-02T15:11:21.116Z</time></trkpt><trkpt lat="42.3214865" lon="13.3161633"><ele>827.5714285714286</ele><time>2026-05-02T15:11:22.116Z</time></trkpt><trkpt lat="42.3215572" lon="13.3161766"><ele>826.8571428571429</ele><time>2026-05-02T15:11:23.117Z</time></trkpt><trkpt lat="42.3216253" lon="13.3161924"><ele>826.1428571428571</ele><time>2026-05-02T15:11:24.117Z</time></trkpt><trkpt lat="42.3217026" lon="13.3161976"><ele>825.4285714285714</ele><time>2026-05-02T15:11:25.117Z</time></trkpt><trkpt lat="42.3217763" lon="13.3162072"><ele>824.7142857142857</ele><time>2026-05-02T15:11:26.117Z</time></trkpt><trkpt lat="42.3218464" lon="13.3162169"><ele>824.0</ele><time>2026-05-02T15:11:27.116Z</time></trkpt><trkpt lat="42.3219477" lon="13.3162404"><ele>824.0</ele><time>2026-05-02T15:11:28.118Z</time></trkpt><trkpt lat="42.3220474" lon="13.3162646"><ele>824.0</ele><time>2026-05-02T15:11:29.116Z</time></trkpt><trkpt lat="42.3221373" lon="13.3162871"><ele>824.0</ele><time>2026-05-02T15:11:30.117Z</time></trkpt><trkpt lat="42.3222297" lon="13.3163233"><ele>824.0</ele><time>2026-05-02T15:11:31.117Z</time></trkpt><trkpt lat="42.3223277" lon="13.316371"><ele>824.0</ele><time>2026-05-02T15:11:32.116Z</time></trkpt><trkpt lat="42.3224307" lon="13.3164175"><ele>823.1666666666667</ele><time>2026-05-02T15:11:33.116Z</time></trkpt><trkpt lat="42.3225242" lon="13.3164617"><ele>822.3333333333334</ele><time>2026-05-02T15:11:34.116Z</time></trkpt><trkpt lat="42.3226046" lon="13.3165081"><ele>821.5</ele><time>2026-05-02T15:11:35.116Z</time></trkpt><trkpt lat="42.3226781" lon="13.316551"><ele>820.6666666666667</ele><time>2026-05-02T15:11:36.117Z</time></trkpt><trkpt lat="42.3227421" lon="13.3165781"><ele>819.8333333333334</ele><time>2026-05-02T15:11:37.116Z</time></trkpt><trkpt lat="42.3228055" lon="13.316591"><ele>819.0</ele><time>2026-05-02T15:11:38.116Z</time></trkpt><trkpt lat="42.3229164" lon="13.3166228"><ele>819.0</ele><time>2026-05-02T15:11:40.117Z</time></trkpt><trkpt lat="42.3229802" lon="13.3166444"><ele>819.0</ele><time>2026-05-02T15:11:41.116Z</time></trkpt><trkpt lat="42.3230695" lon="13.3166601"><ele>819.0</ele><time>2026-05-02T15:11:43.116Z</time></trkpt><trkpt lat="42.3231349" lon="13.31667"><ele>819.0</ele><time>2026-05-02T15:11:44.117Z</time></trkpt><trkpt lat="42.3232295" lon="13.3167034"><ele>819.0</ele><time>2026-05-02T15:11:46.117Z</time></trkpt><trkpt lat="42.3233061" lon="13.3167272"><ele>819.0</ele><time>2026-05-02T15:11:48.117Z</time></trkpt><trkpt lat="42.3232236" lon="13.3166966"><ele>819.0</ele><time>2026-05-02T15:12:02.116Z</time></trkpt><trkpt lat="42.32314" lon="13.3166748"><ele>819.0</ele><time>2026-05-02T15:12:03.116Z</time></trkpt><trkpt lat="42.3230457" lon="13.3166554"><ele>819.0</ele><time>2026-05-02T15:12:04.116Z</time></trkpt><trkpt lat="42.3229654" lon="13.3166343"><ele>819.0</ele><time>2026-05-02T15:12:05.116Z</time></trkpt><trkpt lat="42.3228925" lon="13.3166172"><ele>819.0</ele><time>2026-05-02T15:12:06.117Z</time></trkpt><trkpt lat="42.3228281" lon="13.3165988"><ele>819.0</ele><time>2026-05-02T15:12:07.117Z</time></trkpt><trkpt lat="42.3227587" lon="13.3165448"><ele>819.0</ele><time>2026-05-02T15:12:10.116Z</time></trkpt><trkpt lat="42.3227897" lon="13.316426"><ele>819.0</ele><time>2026-05-02T15:12:13.116Z</time></trkpt><trkpt lat="42.3228336" lon="13.3162568"><ele>819.0</ele><time>2026-05-02T15:12:15.118Z</time></trkpt><trkpt lat="42.322877" lon="13.3161533"><ele>819.0</ele><time>2026-05-02T15:12:16.116Z</time></trkpt><trkpt lat="42.3229265" lon="13.3160301"><ele>819.0</ele><time>2026-05-02T15:12:18.116Z</time></trkpt><trkpt lat="42.322993" lon="13.3159919"><ele>816.4000000000001</ele><time>2026-05-02T15:12:20.116Z</time></trkpt><trkpt lat="42.3231015" lon="13.3160199"><ele>813.8</ele><time>2026-05-02T15:12:22.117Z</time></trkpt><trkpt lat="42.3231992" lon="13.3160521"><ele>811.2</ele><time>2026-05-02T15:12:24.116Z</time></trkpt><trkpt lat="42.3233146" lon="13.3160842"><ele>808.5999999999999</ele><time>2026-05-02T15:12:26.116Z</time></trkpt><trkpt lat="42.3233908" lon="13.3161022"><ele>806.0</ele><time>2026-05-02T15:12:27.117Z</time></trkpt><trkpt lat="42.3234825" lon="13.3161171"><ele>806.0</ele><time>2026-05-02T15:12:28.117Z</time></trkpt><trkpt lat="42.3235854" lon="13.3161407"><ele>806.0</ele><time>2026-05-02T15:12:29.118Z</time></trkpt><trkpt lat="42.3236778" lon="13.316165"><ele>806.0</ele><time>2026-05-02T15:12:30.117Z</time></trkpt><trkpt lat="42.3237738" lon="13.3161967"><ele>806.0</ele><time>2026-05-02T15:12:31.116Z</time></trkpt><trkpt lat="42.3238789" lon="13.3162366"><ele>806.0</ele><time>2026-05-02T15:12:32.116Z</time></trkpt><trkpt lat="42.3239711" lon="13.316276"><ele>806.8</ele><time>2026-05-02T15:12:33.116Z</time></trkpt><trkpt lat="42.3240594" lon="13.3163148"><ele>807.5999999999999</ele><time>2026-05-02T15:12:34.116Z</time></trkpt><trkpt lat="42.3241482" lon="13.3163595"><ele>808.4</ele><time>2026-05-02T15:12:35.118Z</time></trkpt><trkpt lat="42.3242431" lon="13.3163986"><ele>809.2</ele><time>2026-05-02T15:12:36.116Z</time></trkpt><trkpt lat="42.3243331" lon="13.3164371"><ele>810.0</ele><time>2026-05-02T15:12:37.117Z</time></trkpt><trkpt lat="42.3244045" lon="13.3164693"><ele>810.0</ele><time>2026-05-02T15:12:38.116Z</time></trkpt><trkpt lat="42.3244727" lon="13.3164931"><ele>810.0</ele><time>2026-05-02T15:12:39.116Z</time></trkpt><trkpt lat="42.3245434" lon="13.3165064"><ele>810.0</ele><time>2026-05-02T15:12:40.118Z</time></trkpt><trkpt lat="42.3246203" lon="13.31651"><ele>810.0</ele><time>2026-05-02T15:12:41.117Z</time></trkpt><trkpt lat="42.3246973" lon="13.3165241"><ele>810.0</ele><time>2026-05-02T15:12:42.117Z</time></trkpt><trkpt lat="42.3247768" lon="13.3165359"><ele>810.0</ele><time>2026-05-02T15:12:43.117Z</time></trkpt><trkpt lat="42.3248599" lon="13.3165456"><ele>809.5</ele><time>2026-05-02T15:12:44.116Z</time></trkpt><trkpt lat="42.3249486" lon="13.3165552"><ele>809.0</ele><time>2026-05-02T15:12:45.117Z</time></trkpt><trkpt lat="42.3250326" lon="13.3165585"><ele>808.5</ele><time>2026-05-02T15:12:46.116Z</time></trkpt><trkpt lat="42.3251263" lon="13.3165528"><ele>808.0</ele><time>2026-05-02T15:12:47.116Z</time></trkpt><trkpt lat="42.3252051" lon="13.31655"><ele>807.5</ele><time>2026-05-02T15:12:48.116Z</time></trkpt><trkpt lat="42.3252692" lon="13.3165382"><ele>807.0</ele><time>2026-05-02T15:12:49.116Z</time></trkpt><trkpt lat="42.3253341" lon="13.3165146"><ele>807.0</ele><time>2026-05-02T15:12:50.117Z</time></trkpt><trkpt lat="42.3254001" lon="13.3164804"><ele>807.0</ele><time>2026-05-02T15:12:51.116Z</time></trkpt><trkpt lat="42.3254692" lon="13.3164298"><ele>807.0</ele><time>2026-05-02T15:12:52.117Z</time></trkpt><trkpt lat="42.3255334" lon="13.3163808"><ele>807.0</ele><time>2026-05-02T15:12:53.116Z</time></trkpt><trkpt lat="42.3256046" lon="13.3163257"><ele>807.0</ele><time>2026-05-02T15:12:54.117Z</time></trkpt><trkpt lat="42.3256694" lon="13.3162774"><ele>807.0</ele><time>2026-05-02T15:12:55.117Z</time></trkpt><trkpt lat="42.3257441" lon="13.3162292"><ele>805.0</ele><time>2026-05-02T15:12:56.118Z</time></trkpt><trkpt lat="42.3258227" lon="13.3161812"><ele>803.0</ele><time>2026-05-02T15:12:57.119Z</time></trkpt><trkpt lat="42.3258999" lon="13.316133"><ele>801.0</ele><time>2026-05-02T15:12:58.118Z</time></trkpt><trkpt lat="42.3259803" lon="13.3160908"><ele>799.0</ele><time>2026-05-02T15:12:59.118Z</time></trkpt><trkpt lat="42.3260659" lon="13.316066"><ele>797.0</ele><time>2026-05-02T15:13:00.116Z</time></trkpt><trkpt lat="42.3261591" lon="13.3160548"><ele>795.0</ele><time>2026-05-02T15:13:01.116Z</time></trkpt><trkpt lat="42.3262445" lon="13.3160513"><ele>795.0</ele><time>2026-05-02T15:13:02.116Z</time></trkpt><trkpt lat="42.3263198" lon="13.3160468"><ele>795.0</ele><time>2026-05-02T15:13:03.116Z</time></trkpt><trkpt lat="42.3263889" lon="13.316028"><ele>795.0</ele><time>2026-05-02T15:13:04.117Z</time></trkpt><trkpt lat="42.326452" lon="13.3160006"><ele>795.0</ele><time>2026-05-02T15:13:05.117Z</time></trkpt><trkpt lat="42.326518" lon="13.3159531"><ele>795.0</ele><time>2026-05-02T15:13:06.116Z</time></trkpt><trkpt lat="42.3265884" lon="13.3159162"><ele>795.0</ele><time>2026-05-02T15:13:07.117Z</time></trkpt><trkpt lat="42.3266619" lon="13.3159008"><ele>795.0</ele><time>2026-05-02T15:13:08.116Z</time></trkpt><trkpt lat="42.3267397" lon="13.3158951"><ele>795.0</ele><time>2026-05-02T15:13:09.117Z</time></trkpt><trkpt lat="42.3268408" lon="13.3159041"><ele>795.0</ele><time>2026-05-02T15:13:10.117Z</time></trkpt><trkpt lat="42.3269502" lon="13.3159153"><ele>795.0</ele><time>2026-05-02T15:13:11.116Z</time></trkpt><trkpt lat="42.327067" lon="13.3159258"><ele>795.0</ele><time>2026-05-02T15:13:12.116Z</time></trkpt><trkpt lat="42.3271739" lon="13.3159266"><ele>795.0</ele><time>2026-05-02T15:13:13.117Z</time></trkpt><trkpt lat="42.3272766" lon="13.315937"><ele>794.2</ele><time>2026-05-02T15:13:14.117Z</time></trkpt><trkpt lat="42.3273807" lon="13.3159561"><ele>793.4</ele><time>2026-05-02T15:13:15.116Z</time></trkpt><trkpt lat="42.3274984" lon="13.3159693"><ele>792.5999999999999</ele><time>2026-05-02T15:13:16.116Z</time></trkpt><trkpt lat="42.3276019" lon="13.3159736"><ele>791.8</ele><time>2026-05-02T15:13:17.116Z</time></trkpt><trkpt lat="42.3276943" lon="13.3159637"><ele>791.0</ele><time>2026-05-02T15:13:18.116Z</time></trkpt><trkpt lat="42.3277846" lon="13.3159744"><ele>791.0</ele><time>2026-05-02T15:13:19.117Z</time></trkpt><trkpt lat="42.3278807" lon="13.3159959"><ele>791.0</ele><time>2026-05-02T15:13:20.116Z</time></trkpt><trkpt lat="42.3279883" lon="13.3160346"><ele>791.0</ele><time>2026-05-02T15:13:21.116Z</time></trkpt><trkpt lat="42.3281103" lon="13.3160817"><ele>791.0</ele><time>2026-05-02T15:13:22.116Z</time></trkpt><trkpt lat="42.3282229" lon="13.3161308"><ele>789.4</ele><time>2026-05-02T15:13:23.116Z</time></trkpt><trkpt lat="42.3283151" lon="13.316182"><ele>787.8</ele><time>2026-05-02T15:13:24.116Z</time></trkpt><trkpt lat="42.3284059" lon="13.3162407"><ele>786.1999999999999</ele><time>2026-05-02T15:13:25.116Z</time></trkpt><trkpt lat="42.3285009" lon="13.316315"><ele>784.5999999999999</ele><time>2026-05-02T15:13:26.118Z</time></trkpt><trkpt lat="42.3285791" lon="13.3163614"><ele>783.0</ele><time>2026-05-02T15:13:27.117Z</time></trkpt><trkpt lat="42.328661" lon="13.3164025"><ele>784.3333333333334</ele><time>2026-05-02T15:13:28.116Z</time></trkpt><trkpt lat="42.3287387" lon="13.3164403"><ele>785.6666666666667</ele><time>2026-05-02T15:13:29.116Z</time></trkpt><trkpt lat="42.3288038" lon="13.3164824"><ele>787.0</ele><time>2026-05-02T15:13:30.117Z</time></trkpt><trkpt lat="42.3288906" lon="13.3164846"><ele>788.3333333333334</ele><time>2026-05-02T15:13:31.116Z</time></trkpt><trkpt lat="42.3289905" lon="13.3164987"><ele>789.6666666666667</ele><time>2026-05-02T15:13:32.117Z</time></trkpt><trkpt lat="42.3290967" lon="13.3165101"><ele>791.0</ele><time>2026-05-02T15:13:33.117Z</time></trkpt><trkpt lat="42.3292013" lon="13.3165175"><ele>791.0</ele><time>2026-05-02T15:13:34.118Z</time></trkpt><trkpt lat="42.3293123" lon="13.316518"><ele>791.0</ele><time>2026-05-02T15:13:35.117Z</time></trkpt><trkpt lat="42.3294198" lon="13.3165094"><ele>791.0</ele><time>2026-05-02T15:13:36.117Z</time></trkpt><trkpt lat="42.3295278" lon="13.316511"><ele>791.0</ele><time>2026-05-02T15:13:37.116Z</time></trkpt><trkpt lat="42.3296287" lon="13.3165244"><ele>791.0</ele><time>2026-05-02T15:13:38.116Z</time></trkpt><trkpt lat="42.3297235" lon="13.3165199"><ele>790.1999999999999</ele><time>2026-05-02T15:13:39.117Z</time></trkpt><trkpt lat="42.3298056" lon="13.3165211"><ele>789.4</ele><time>2026-05-02T15:13:40.118Z</time></trkpt><trkpt lat="42.3299042" lon="13.3165219"><ele>788.6</ele><time>2026-05-02T15:13:41.117Z</time></trkpt><trkpt lat="42.3300016" lon="13.3165154"><ele>787.8</ele><time>2026-05-02T15:13:42.117Z</time></trkpt><trkpt lat="42.3301003" lon="13.3165109"><ele>787.0</ele><time>2026-05-02T15:13:43.117Z</time></trkpt><trkpt lat="42.3302006" lon="13.3165057"><ele>786.9999999999999</ele><time>2026-05-02T15:13:44.117Z</time></trkpt><trkpt lat="42.3302932" lon="13.3164996"><ele>787.0</ele><time>2026-05-02T15:13:45.116Z</time></trkpt><trkpt lat="42.3303871" lon="13.3164941"><ele>787.0</ele><time>2026-05-02T15:13:46.116Z</time></trkpt><trkpt lat="42.3304705" lon="13.3164859"><ele>787.0</ele><time>2026-05-02T15:13:47.116Z</time></trkpt><trkpt lat="42.3305582" lon="13.3164741"><ele>786.9999999999999</ele><time>2026-05-02T15:13:48.117Z</time></trkpt><trkpt lat="42.3306476" lon="13.3164567"><ele>787.0</ele><time>2026-05-02T15:13:49.117Z</time></trkpt><trkpt lat="42.3307461" lon="13.3164432"><ele>786.8333333333333</ele><time>2026-05-02T15:13:50.117Z</time></trkpt><trkpt lat="42.3308388" lon="13.3164383"><ele>786.6666666666666</ele><time>2026-05-02T15:13:51.117Z</time></trkpt><trkpt lat="42.3309349" lon="13.3164306"><ele>786.5</ele><time>2026-05-02T15:13:52.117Z</time></trkpt><trkpt lat="42.3310102" lon="13.3164177"><ele>786.3333333333333</ele><time>2026-05-02T15:13:53.117Z</time></trkpt><trkpt lat="42.3310904" lon="13.3164079"><ele>786.1666666666666</ele><time>2026-05-02T15:13:54.116Z</time></trkpt><trkpt lat="42.3311521" lon="13.3163909"><ele>786.0</ele><time>2026-05-02T15:13:55.116Z</time></trkpt><trkpt lat="42.3312344" lon="13.3163397"><ele>785.3333333333334</ele><time>2026-05-02T15:13:56.116Z</time></trkpt><trkpt lat="42.3313249" lon="13.3162842"><ele>784.6666666666667</ele><time>2026-05-02T15:13:57.116Z</time></trkpt><trkpt lat="42.3313994" lon="13.316224"><ele>784.0</ele><time>2026-05-02T15:13:58.116Z</time></trkpt><trkpt lat="42.3314853" lon="13.3161644"><ele>783.3333333333334</ele><time>2026-05-02T15:13:59.116Z</time></trkpt><trkpt lat="42.3315482" lon="13.3161345"><ele>782.6666666666667</ele><time>2026-05-02T15:14:00.116Z</time></trkpt><trkpt lat="42.3316197" lon="13.3160787"><ele>782.0</ele><time>2026-05-02T15:14:01.117Z</time></trkpt><trkpt lat="42.3316955" lon="13.3160425"><ele>781.2</ele><time>2026-05-02T15:14:02.117Z</time></trkpt><trkpt lat="42.3317762" lon="13.3160373"><ele>780.4000000000001</ele><time>2026-05-02T15:14:03.116Z</time></trkpt><trkpt lat="42.3318478" lon="13.3160413"><ele>779.5999999999999</ele><time>2026-05-02T15:14:04.116Z</time></trkpt><trkpt lat="42.3319381" lon="13.3160609"><ele>778.8</ele><time>2026-05-02T15:14:05.117Z</time></trkpt><trkpt lat="42.332041" lon="13.316118"><ele>778.0</ele><time>2026-05-02T15:14:06.117Z</time></trkpt><trkpt lat="42.3321535" lon="13.3161644"><ele>777.2</ele><time>2026-05-02T15:14:07.116Z</time></trkpt><trkpt lat="42.3322631" lon="13.3162134"><ele>776.4</ele><time>2026-05-02T15:14:08.117Z</time></trkpt><trkpt lat="42.3323687" lon="13.3162372"><ele>775.6</ele><time>2026-05-02T15:14:09.116Z</time></trkpt><trkpt lat="42.3324708" lon="13.316247"><ele>774.8000000000001</ele><time>2026-05-02T15:14:10.116Z</time></trkpt><trkpt lat="42.3325654" lon="13.316249"><ele>774.0</ele><time>2026-05-02T15:14:11.117Z</time></trkpt><trkpt lat="42.3326397" lon="13.3162077"><ele>774.0</ele><time>2026-05-02T15:14:12.117Z</time></trkpt><trkpt lat="42.3327359" lon="13.3161975"><ele>774.0</ele><time>2026-05-02T15:14:13.116Z</time></trkpt><trkpt lat="42.3328303" lon="13.3161925"><ele>774.0</ele><time>2026-05-02T15:14:14.116Z</time></trkpt><trkpt lat="42.3329179" lon="13.3161971"><ele>774.0</ele><time>2026-05-02T15:14:15.116Z</time></trkpt><trkpt lat="42.3330086" lon="13.3162152"><ele>774.0</ele><time>2026-05-02T15:14:16.116Z</time></trkpt><trkpt lat="42.3330962" lon="13.3162536"><ele>773.0</ele><time>2026-05-02T15:14:17.116Z</time></trkpt><trkpt lat="42.3331975" lon="13.3162843"><ele>772.0</ele><time>2026-05-02T15:14:18.117Z</time></trkpt><trkpt lat="42.3332902" lon="13.3162983"><ele>771.0</ele><time>2026-05-02T15:14:19.116Z</time></trkpt><trkpt lat="42.3334065" lon="13.3163152"><ele>770.0</ele><time>2026-05-02T15:14:20.117Z</time></trkpt><trkpt lat="42.333514" lon="13.3163183"><ele>769.0</ele><time>2026-05-02T15:14:21.116Z</time></trkpt><trkpt lat="42.3336234" lon="13.3163296"><ele>769.0</ele><time>2026-05-02T15:14:22.117Z</time></trkpt><trkpt lat="42.3337259" lon="13.3163192"><ele>769.0</ele><time>2026-05-02T15:14:23.116Z</time></trkpt><trkpt lat="42.3338256" lon="13.3163247"><ele>769.0</ele><time>2026-05-02T15:14:24.116Z</time></trkpt><trkpt lat="42.3339309" lon="13.3163074"><ele>769.0</ele><time>2026-05-02T15:14:25.116Z</time></trkpt><trkpt lat="42.3340277" lon="13.3162985"><ele>769.0</ele><time>2026-05-02T15:14:26.117Z</time></trkpt><trkpt lat="42.3341299" lon="13.3162923"><ele>766.6</ele><time>2026-05-02T15:14:27.116Z</time></trkpt><trkpt lat="42.3342234" lon="13.3162861"><ele>764.2</ele><time>2026-05-02T15:14:28.117Z</time></trkpt><trkpt lat="42.3343181" lon="13.316276"><ele>761.8000000000001</ele><time>2026-05-02T15:14:29.116Z</time></trkpt><trkpt lat="42.3344149" lon="13.3162265"><ele>759.4000000000001</ele><time>2026-05-02T15:14:30.117Z</time></trkpt><trkpt lat="42.3345146" lon="13.3161951"><ele>757.0</ele><time>2026-05-02T15:14:31.116Z</time></trkpt><trkpt lat="42.3346177" lon="13.3161623"><ele>757.0</ele><time>2026-05-02T15:14:32.116Z</time></trkpt><trkpt lat="42.3347209" lon="13.3161384"><ele>757.0</ele><time>2026-05-02T15:14:33.116Z</time></trkpt><trkpt lat="42.3348249" lon="13.3161181"><ele>757.0</ele><time>2026-05-02T15:14:34.116Z</time></trkpt><trkpt lat="42.3349347" lon="13.3160974"><ele>757.0</ele><time>2026-05-02T15:14:35.117Z</time></trkpt><trkpt lat="42.335051" lon="13.3160768"><ele>757.0</ele><time>2026-05-02T15:14:36.117Z</time></trkpt><trkpt lat="42.3351654" lon="13.316057"><ele>757.0</ele><time>2026-05-02T15:14:37.116Z</time></trkpt><trkpt lat="42.3352735" lon="13.3160409"><ele>757.0</ele><time>2026-05-02T15:14:38.117Z</time></trkpt><trkpt lat="42.3353887" lon="13.316035"><ele>757.0</ele><time>2026-05-02T15:14:39.116Z</time></trkpt><trkpt lat="42.3355088" lon="13.3160356"><ele>757.0</ele><time>2026-05-02T15:14:40.116Z</time></trkpt><trkpt lat="42.3356231" lon="13.3160321"><ele>757.2</ele><time>2026-05-02T15:14:41.116Z</time></trkpt><trkpt lat="42.3357318" lon="13.3160324"><ele>757.4000000000001</ele><time>2026-05-02T15:14:42.116Z</time></trkpt><trkpt lat="42.3358393" lon="13.3160341"><ele>757.5999999999999</ele><time>2026-05-02T15:14:43.117Z</time></trkpt><trkpt lat="42.3359413" lon="13.3160289"><ele>757.8</ele><time>2026-05-02T15:14:44.117Z</time></trkpt><trkpt lat="42.3360548" lon="13.316014"><ele>758.0</ele><time>2026-05-02T15:14:45.116Z</time></trkpt><trkpt lat="42.3361838" lon="13.315997"><ele>758.0</ele><time>2026-05-02T15:14:46.116Z</time></trkpt><trkpt lat="42.336302" lon="13.3159782"><ele>758.0</ele><time>2026-05-02T15:14:47.117Z</time></trkpt><trkpt lat="42.3364028" lon="13.3159782"><ele>758.0</ele><time>2026-05-02T15:14:48.117Z</time></trkpt><trkpt lat="42.3364996" lon="13.3159866"><ele>758.0</ele><time>2026-05-02T15:14:49.117Z</time></trkpt><trkpt lat="42.3366083" lon="13.315993"><ele>758.0</ele><time>2026-05-02T15:14:50.116Z</time></trkpt><trkpt lat="42.3367186" lon="13.3160013"><ele>757.8</ele><time>2026-05-02T15:14:51.117Z</time></trkpt><trkpt lat="42.3368229" lon="13.3160179"><ele>757.5999999999999</ele><time>2026-05-02T15:14:52.117Z</time></trkpt><trkpt lat="42.3369258" lon="13.3160191"><ele>757.4000000000001</ele><time>2026-05-02T15:14:53.116Z</time></trkpt><trkpt lat="42.3370313" lon="13.3160196"><ele>757.2</ele><time>2026-05-02T15:14:54.118Z</time></trkpt><trkpt lat="42.3371391" lon="13.3159966"><ele>757.0</ele><time>2026-05-02T15:14:55.117Z</time></trkpt><trkpt lat="42.3372535" lon="13.3159835"><ele>757.75</ele><time>2026-05-02T15:14:56.116Z</time></trkpt><trkpt lat="42.3373662" lon="13.3159599"><ele>758.5</ele><time>2026-05-02T15:14:57.117Z</time></trkpt><trkpt lat="42.3374805" lon="13.3159389"><ele>759.25</ele><time>2026-05-02T15:14:58.117Z</time></trkpt><trkpt lat="42.3375937" lon="13.3159147"><ele>760.0</ele><time>2026-05-02T15:14:59.116Z</time></trkpt><trkpt lat="42.3377075" lon="13.3158807"><ele>760.0</ele><time>2026-05-02T15:15:00.116Z</time></trkpt><trkpt lat="42.33782" lon="13.3158513"><ele>760.0</ele><time>2026-05-02T15:15:01.118Z</time></trkpt><trkpt lat="42.3379282" lon="13.3158134"><ele>760.0</ele><time>2026-05-02T15:15:02.117Z</time></trkpt><trkpt lat="42.3380531" lon="13.3157893"><ele>760.0</ele><time>2026-05-02T15:15:03.116Z</time></trkpt><trkpt lat="42.3381616" lon="13.3157689"><ele>760.4</ele><time>2026-05-02T15:15:04.118Z</time></trkpt><trkpt lat="42.3382702" lon="13.315746"><ele>760.8</ele><time>2026-05-02T15:15:05.116Z</time></trkpt><trkpt lat="42.3383739" lon="13.3157276"><ele>761.2</ele><time>2026-05-02T15:15:06.117Z</time></trkpt><trkpt lat="42.3384841" lon="13.3157044"><ele>761.6</ele><time>2026-05-02T15:15:07.116Z</time></trkpt><trkpt lat="42.3385894" lon="13.3157145"><ele>762.0</ele><time>2026-05-02T15:15:08.116Z</time></trkpt><trkpt lat="42.3387021" lon="13.3156915"><ele>762.0</ele><time>2026-05-02T15:15:09.117Z</time></trkpt><trkpt lat="42.3388009" lon="13.3156929"><ele>762.0</ele><time>2026-05-02T15:15:10.116Z</time></trkpt><trkpt lat="42.3388961" lon="13.3156969"><ele>762.0</ele><time>2026-05-02T15:15:11.116Z</time></trkpt><trkpt lat="42.3390119" lon="13.315714"><ele>762.0</ele><time>2026-05-02T15:15:12.118Z</time></trkpt><trkpt lat="42.3391215" lon="13.3157132"><ele>762.0</ele><time>2026-05-02T15:15:13.116Z</time></trkpt><trkpt lat="42.3392566" lon="13.3157491"><ele>761.4000000000001</ele><time>2026-05-02T15:15:14.117Z</time></trkpt><trkpt lat="42.3393673" lon="13.3157681"><ele>760.8000000000001</ele><time>2026-05-02T15:15:15.116Z</time></trkpt><trkpt lat="42.3394738" lon="13.3157791"><ele>760.2</ele><time>2026-05-02T15:15:16.117Z</time></trkpt><trkpt lat="42.339582" lon="13.3157934"><ele>759.6</ele><time>2026-05-02T15:15:17.117Z</time></trkpt><trkpt lat="42.3396757" lon="13.315787"><ele>759.0</ele><time>2026-05-02T15:15:18.116Z</time></trkpt><trkpt lat="42.3397762" lon="13.3157856"><ele>758.0</ele><time>2026-05-02T15:15:19.116Z</time></trkpt><trkpt lat="42.3398698" lon="13.3157769"><ele>757.0</ele><time>2026-05-02T15:15:20.116Z</time></trkpt><trkpt lat="42.339962" lon="13.3157762"><ele>756.0</ele><time>2026-05-02T15:15:21.117Z</time></trkpt><trkpt lat="42.3400643" lon="13.3157777"><ele>755.0</ele><time>2026-05-02T15:15:22.116Z</time></trkpt><trkpt lat="42.3401622" lon="13.3157874"><ele>754.0</ele><time>2026-05-02T15:15:23.117Z</time></trkpt><trkpt lat="42.3402638" lon="13.3157934"><ele>754.0</ele><time>2026-05-02T15:15:24.116Z</time></trkpt><trkpt lat="42.3403612" lon="13.3158069"><ele>754.0</ele><time>2026-05-02T15:15:25.116Z</time></trkpt><trkpt lat="42.3404531" lon="13.3158192"><ele>754.0</ele><time>2026-05-02T15:15:26.117Z</time></trkpt><trkpt lat="42.3405429" lon="13.3158525"><ele>754.0</ele><time>2026-05-02T15:15:27.117Z</time></trkpt><trkpt lat="42.3406349" lon="13.3158843"><ele>754.0</ele><time>2026-05-02T15:15:28.117Z</time></trkpt><trkpt lat="42.3407255" lon="13.3159046"><ele>753.4000000000001</ele><time>2026-05-02T15:15:29.117Z</time></trkpt><trkpt lat="42.3408102" lon="13.3159194"><ele>752.8</ele><time>2026-05-02T15:15:30.118Z</time></trkpt><trkpt lat="42.3409072" lon="13.315927"><ele>752.2</ele><time>2026-05-02T15:15:31.116Z</time></trkpt><trkpt lat="42.3410167" lon="13.3159298"><ele>751.5999999999999</ele><time>2026-05-02T15:15:32.117Z</time></trkpt><trkpt lat="42.3411218" lon="13.315936"><ele>751.0</ele><time>2026-05-02T15:15:33.115Z</time></trkpt><trkpt lat="42.3412218" lon="13.3159394"><ele>751.0</ele><time>2026-05-02T15:15:34.115Z</time></trkpt><trkpt lat="42.3413222" lon="13.3159456"><ele>751.0</ele><time>2026-05-02T15:15:35.116Z</time></trkpt><trkpt lat="42.3414248" lon="13.3159577"><ele>751.0</ele><time>2026-05-02T15:15:36.116Z</time></trkpt><trkpt lat="42.3415233" lon="13.315968"><ele>751.0</ele><time>2026-05-02T15:15:37.116Z</time></trkpt><trkpt lat="42.3416327" lon="13.3159557"><ele>751.0</ele><time>2026-05-02T15:15:38.116Z</time></trkpt><trkpt lat="42.3417298" lon="13.3159536"><ele>748.8</ele><time>2026-05-02T15:15:39.116Z</time></trkpt><trkpt lat="42.3418309" lon="13.3159524"><ele>746.5999999999999</ele><time>2026-05-02T15:15:40.116Z</time></trkpt><trkpt lat="42.3419418" lon="13.3159579"><ele>744.4</ele><time>2026-05-02T15:15:41.115Z</time></trkpt><trkpt lat="42.3420448" lon="13.3159579"><ele>742.2</ele><time>2026-05-02T15:15:42.115Z</time></trkpt><trkpt lat="42.34214" lon="13.3159757"><ele>740.0</ele><time>2026-05-02T15:15:43.117Z</time></trkpt><trkpt lat="42.3422391" lon="13.3159967"><ele>739.5</ele><time>2026-05-02T15:15:44.116Z</time></trkpt><trkpt lat="42.3423304" lon="13.3159995"><ele>739.0</ele><time>2026-05-02T15:15:45.115Z</time></trkpt><trkpt lat="42.3424073" lon="13.3159813"><ele>738.5</ele><time>2026-05-02T15:15:46.115Z</time></trkpt><trkpt lat="42.3424738" lon="13.3159247"><ele>738.0</ele><time>2026-05-02T15:15:47.115Z</time></trkpt><trkpt lat="42.3425487" lon="13.3158437"><ele>737.5</ele><time>2026-05-02T15:15:48.115Z</time></trkpt><trkpt lat="42.3426186" lon="13.3157711"><ele>737.0</ele><time>2026-05-02T15:15:49.116Z</time></trkpt><trkpt lat="42.3426906" lon="13.315709"><ele>737.0</ele><time>2026-05-02T15:15:50.116Z</time></trkpt><trkpt lat="42.3427767" lon="13.3156516"><ele>737.0</ele><time>2026-05-02T15:15:51.115Z</time></trkpt><trkpt lat="42.3428589" lon="13.315579"><ele>737.0</ele><time>2026-05-02T15:15:52.116Z</time></trkpt><trkpt lat="42.3429373" lon="13.3155112"><ele>737.0</ele><time>2026-05-02T15:15:53.115Z</time></trkpt><trkpt lat="42.3430083" lon="13.3154579"><ele>737.0</ele><time>2026-05-02T15:15:54.116Z</time></trkpt><trkpt lat="42.3430903" lon="13.3154129"><ele>735.6666666666666</ele><time>2026-05-02T15:15:55.115Z</time></trkpt><trkpt lat="42.3431707" lon="13.3153785"><ele>734.3333333333333</ele><time>2026-05-02T15:15:56.117Z</time></trkpt><trkpt lat="42.3432457" lon="13.3153579"><ele>733.0</ele><time>2026-05-02T15:15:57.116Z</time></trkpt><trkpt lat="42.3433259" lon="13.3153654"><ele>731.6666666666666</ele><time>2026-05-02T15:15:58.115Z</time></trkpt><trkpt lat="42.3434" lon="13.3154002"><ele>730.3333333333334</ele><time>2026-05-02T15:15:59.116Z</time></trkpt><trkpt lat="42.3434802" lon="13.3154154"><ele>729.0</ele><time>2026-05-02T15:16:00.116Z</time></trkpt><trkpt lat="42.3435644" lon="13.3154286"><ele>729.0</ele><time>2026-05-02T15:16:01.116Z</time></trkpt><trkpt lat="42.3436463" lon="13.3154461"><ele>729.0</ele><time>2026-05-02T15:16:02.115Z</time></trkpt><trkpt lat="42.3437372" lon="13.3154743"><ele>729.0</ele><time>2026-05-02T15:16:03.115Z</time></trkpt><trkpt lat="42.3438343" lon="13.3154986"><ele>729.0</ele><time>2026-05-02T15:16:04.115Z</time></trkpt><trkpt lat="42.3439283" lon="13.3155099"><ele>729.0</ele><time>2026-05-02T15:16:05.115Z</time></trkpt><trkpt lat="42.3440264" lon="13.3155106"><ele>727.25</ele><time>2026-05-02T15:16:06.115Z</time></trkpt><trkpt lat="42.3441305" lon="13.3155183"><ele>725.5</ele><time>2026-05-02T15:16:07.115Z</time></trkpt><trkpt lat="42.3442328" lon="13.3155189"><ele>723.75</ele><time>2026-05-02T15:16:08.115Z</time></trkpt><trkpt lat="42.3443547" lon="13.315515"><ele>722.0</ele><time>2026-05-02T15:16:09.115Z</time></trkpt><trkpt lat="42.3444875" lon="13.3155154"><ele>722.0</ele><time>2026-05-02T15:16:10.116Z</time></trkpt><trkpt lat="42.3445997" lon="13.3155101"><ele>722.0</ele><time>2026-05-02T15:16:11.116Z</time></trkpt><trkpt lat="42.3447156" lon="13.31551"><ele>722.0</ele><time>2026-05-02T15:16:12.116Z</time></trkpt><trkpt lat="42.3447994" lon="13.3154934"><ele>722.0</ele><time>2026-05-02T15:16:13.115Z</time></trkpt><trkpt lat="42.344896" lon="13.3154704"><ele>722.0</ele><time>2026-05-02T15:16:14.115Z</time></trkpt><trkpt lat="42.3449946" lon="13.3154401"><ele>720.8</ele><time>2026-05-02T15:16:15.116Z</time></trkpt><trkpt lat="42.3450876" lon="13.3154256"><ele>719.6</ele><time>2026-05-02T15:16:16.115Z</time></trkpt><trkpt lat="42.3451836" lon="13.3154137"><ele>718.4</ele><time>2026-05-02T15:16:17.115Z</time></trkpt><trkpt lat="42.3452734" lon="13.3153834"><ele>717.1999999999999</ele><time>2026-05-02T15:16:18.116Z</time></trkpt><trkpt lat="42.3454024" lon="13.3153616"><ele>716.0</ele><time>2026-05-02T15:16:20.115Z</time></trkpt><trkpt lat="42.3455292" lon="13.3153932"><ele>715.6666666666666</ele><time>2026-05-02T15:16:22.115Z</time></trkpt><trkpt lat="42.3456015" lon="13.3154334"><ele>715.3333333333333</ele><time>2026-05-02T15:16:23.117Z</time></trkpt><trkpt lat="42.345675" lon="13.3154756"><ele>715.0</ele><time>2026-05-02T15:16:24.116Z</time></trkpt><trkpt lat="42.34575" lon="13.3155034"><ele>714.6666666666666</ele><time>2026-05-02T15:16:25.115Z</time></trkpt><trkpt lat="42.3458187" lon="13.3155257"><ele>714.3333333333334</ele><time>2026-05-02T15:16:26.115Z</time></trkpt><trkpt lat="42.3458998" lon="13.3155533"><ele>714.0</ele><time>2026-05-02T15:16:27.115Z</time></trkpt><trkpt lat="42.3459893" lon="13.3155753"><ele>715.5</ele><time>2026-05-02T15:16:28.115Z</time></trkpt><trkpt lat="42.3460889" lon="13.3155872"><ele>717.0</ele><time>2026-05-02T15:16:29.116Z</time></trkpt><trkpt lat="42.3461987" lon="13.3156094"><ele>718.5</ele><time>2026-05-02T15:16:30.116Z</time></trkpt><trkpt lat="42.3463235" lon="13.3156245"><ele>720.0</ele><time>2026-05-02T15:16:31.116Z</time></trkpt><trkpt lat="42.3464642" lon="13.3156512"><ele>720.5</ele><time>2026-05-02T15:16:32.115Z</time></trkpt><trkpt lat="42.3465788" lon="13.3156724"><ele>721.0</ele><time>2026-05-02T15:16:33.116Z</time></trkpt><trkpt lat="42.346692" lon="13.3157008"><ele>721.5</ele><time>2026-05-02T15:16:34.115Z</time></trkpt><trkpt lat="42.346833" lon="13.3157553"><ele>722.0</ele><time>2026-05-02T15:16:36.116Z</time></trkpt><trkpt lat="42.3469076" lon="13.3158398"><ele>722.0</ele><time>2026-05-02T15:16:37.116Z</time></trkpt><trkpt lat="42.347002" lon="13.3159256"><ele>722.0</ele><time>2026-05-02T15:16:38.116Z</time></trkpt><trkpt lat="42.3470953" lon="13.3160196"><ele>722.0</ele><time>2026-05-02T15:16:39.115Z</time></trkpt><trkpt lat="42.3471843" lon="13.3161003"><ele>722.0</ele><time>2026-05-02T15:16:40.116Z</time></trkpt><trkpt lat="42.3472661" lon="13.3162025"><ele>722.0</ele><time>2026-05-02T15:16:41.116Z</time></trkpt><trkpt lat="42.3473545" lon="13.3162913"><ele>721.5</ele><time>2026-05-02T15:16:42.116Z</time></trkpt><trkpt lat="42.3474281" lon="13.316376"><ele>721.0</ele><time>2026-05-02T15:16:43.116Z</time></trkpt><trkpt lat="42.3475111" lon="13.316398"><ele>720.5</ele><time>2026-05-02T15:16:44.116Z</time></trkpt><trkpt lat="42.3475905" lon="13.3164426"><ele>720.0</ele><time>2026-05-02T15:16:45.115Z</time></trkpt><trkpt lat="42.3476769" lon="13.3164597"><ele>719.5</ele><time>2026-05-02T15:16:46.116Z</time></trkpt><trkpt lat="42.3477497" lon="13.3164773"><ele>719.0</ele><time>2026-05-02T15:16:47.116Z</time></trkpt><trkpt lat="42.3478228" lon="13.316504"><ele>719.0</ele><time>2026-05-02T15:16:48.116Z</time></trkpt><trkpt lat="42.3479066" lon="13.3165523"><ele>719.0</ele><time>2026-05-02T15:16:49.115Z</time></trkpt><trkpt lat="42.3479994" lon="13.316625"><ele>719.0</ele><time>2026-05-02T15:16:50.115Z</time></trkpt><trkpt lat="42.3480756" lon="13.3166841"><ele>719.0</ele><time>2026-05-02T15:16:51.115Z</time></trkpt><trkpt lat="42.3481532" lon="13.3167441"><ele>719.0</ele><time>2026-05-02T15:16:52.117Z</time></trkpt><trkpt lat="42.3482382" lon="13.3168129"><ele>718.6666666666666</ele><time>2026-05-02T15:16:53.116Z</time></trkpt><trkpt lat="42.3483282" lon="13.3168636"><ele>718.3333333333333</ele><time>2026-05-02T15:16:54.116Z</time></trkpt><trkpt lat="42.3483998" lon="13.3168926"><ele>718.0</ele><time>2026-05-02T15:16:55.115Z</time></trkpt><trkpt lat="42.3484751" lon="13.3169081"><ele>717.6666666666666</ele><time>2026-05-02T15:16:56.116Z</time></trkpt><trkpt lat="42.3485615" lon="13.3169166"><ele>717.3333333333334</ele><time>2026-05-02T15:16:57.115Z</time></trkpt><trkpt lat="42.348664" lon="13.3169128"><ele>717.0</ele><time>2026-05-02T15:16:58.116Z</time></trkpt><trkpt lat="42.3487634" lon="13.3169108"><ele>715.0</ele><time>2026-05-02T15:16:59.117Z</time></trkpt><trkpt lat="42.3489088" lon="13.3168997"><ele>713.0</ele><time>2026-05-02T15:17:01.115Z</time></trkpt><trkpt lat="42.3489668" lon="13.3168612"><ele>711.0</ele><time>2026-05-02T15:17:04.116Z</time></trkpt><trkpt lat="42.3489766" lon="13.3167593"><ele>709.0</ele><time>2026-05-02T15:17:06.116Z</time></trkpt><trkpt lat="42.3489703" lon="13.3166529"><ele>707.0</ele><time>2026-05-02T15:17:08.116Z</time></trkpt><trkpt lat="42.3489636" lon="13.3165625"><ele>705.0</ele><time>2026-05-02T15:17:10.115Z</time></trkpt><trkpt lat="42.3489519" lon="13.3164216"><ele>705.0</ele><time>2026-05-02T15:17:12.115Z</time></trkpt><trkpt lat="42.3489468" lon="13.3163023"><ele>705.0</ele><time>2026-05-02T15:17:14.115Z</time></trkpt><trkpt lat="42.3489077" lon="13.3163832"><ele>705.0</ele><time>2026-05-02T15:17:18.116Z</time></trkpt><trkpt lat="42.3489614" lon="13.3164687"><ele>705.0</ele><time>2026-05-02T15:17:19.116Z</time></trkpt><trkpt lat="42.348996" lon="13.3165706"><ele>705.0</ele><time>2026-05-02T15:17:20.116Z</time></trkpt><trkpt lat="42.3490449" lon="13.3166828"><ele>705.0</ele><time>2026-05-02T15:17:21.116Z</time></trkpt><trkpt lat="42.3491111" lon="13.3167901"><ele>705.0</ele><time>2026-05-02T15:17:22.116Z</time></trkpt><trkpt lat="42.3492066" lon="13.3168861"><ele>705.0</ele><time>2026-05-02T15:17:23.117Z</time></trkpt><trkpt lat="42.349321" lon="13.3169667"><ele>705.0</ele><time>2026-05-02T15:17:24.116Z</time></trkpt><trkpt lat="42.3494284" lon="13.3170417"><ele>705.0</ele><time>2026-05-02T15:17:25.115Z</time></trkpt><trkpt lat="42.3495471" lon="13.3171215"><ele>705.0</ele><time>2026-05-02T15:17:26.116Z</time></trkpt><trkpt lat="42.3496568" lon="13.3172079"><ele>705.0</ele><time>2026-05-02T15:17:27.115Z</time></trkpt><trkpt lat="42.3497607" lon="13.3173054"><ele>705.0</ele><time>2026-05-02T15:17:28.115Z</time></trkpt><trkpt lat="42.3498596" lon="13.3174171"><ele>705.0</ele><time>2026-05-02T15:17:29.115Z</time></trkpt><trkpt lat="42.3499572" lon="13.3175324"><ele>703.0</ele><time>2026-05-02T15:17:30.116Z</time></trkpt><trkpt lat="42.3500539" lon="13.3176635"><ele>701.0</ele><time>2026-05-02T15:17:31.115Z</time></trkpt><trkpt lat="42.3501533" lon="13.3178069"><ele>699.0</ele><time>2026-05-02T15:17:32.115Z</time></trkpt><trkpt lat="42.3502607" lon="13.3179541"><ele>697.0</ele><time>2026-05-02T15:17:33.115Z</time></trkpt><trkpt lat="42.3503697" lon="13.3181116"><ele>697.0</ele><time>2026-05-02T15:17:34.116Z</time></trkpt><trkpt lat="42.3504713" lon="13.3182606"><ele>697.0</ele><time>2026-05-02T15:17:35.116Z</time></trkpt><trkpt lat="42.3505682" lon="13.3184046"><ele>697.0</ele><time>2026-05-02T15:17:36.115Z</time></trkpt><trkpt lat="42.3506647" lon="13.3185407"><ele>697.0</ele><time>2026-05-02T15:17:37.116Z</time></trkpt><trkpt lat="42.3507627" lon="13.3186718"><ele>694.25</ele><time>2026-05-02T15:17:38.117Z</time></trkpt><trkpt lat="42.3508613" lon="13.3188041"><ele>691.5</ele><time>2026-05-02T15:17:39.116Z</time></trkpt><trkpt lat="42.3509546" lon="13.3189305"><ele>688.75</ele><time>2026-05-02T15:17:40.115Z</time></trkpt><trkpt lat="42.3510466" lon="13.3190591"><ele>686.0</ele><time>2026-05-02T15:17:41.115Z</time></trkpt><trkpt lat="42.3511368" lon="13.3191867"><ele>685.25</ele><time>2026-05-02T15:17:42.116Z</time></trkpt><trkpt lat="42.3512272" lon="13.3193058"><ele>684.5</ele><time>2026-05-02T15:17:43.116Z</time></trkpt><trkpt lat="42.3513145" lon="13.3194174"><ele>683.75</ele><time>2026-05-02T15:17:44.115Z</time></trkpt><trkpt lat="42.3514063" lon="13.3195169"><ele>683.0</ele><time>2026-05-02T15:17:45.116Z</time></trkpt><trkpt lat="42.351495" lon="13.3196005"><ele>683.0</ele><time>2026-05-02T15:17:46.115Z</time></trkpt><trkpt lat="42.351572" lon="13.319668"><ele>683.0</ele><time>2026-05-02T15:17:47.115Z</time></trkpt><trkpt lat="42.3516385" lon="13.3197255"><ele>683.0</ele><time>2026-05-02T15:17:48.117Z</time></trkpt><trkpt lat="42.3517084" lon="13.3197767"><ele>683.0</ele><time>2026-05-02T15:17:49.115Z</time></trkpt><trkpt lat="42.351765" lon="13.3198236"><ele>683.0</ele><time>2026-05-02T15:17:50.115Z</time></trkpt><trkpt lat="42.3518702" lon="13.3199055"><ele>683.0</ele><time>2026-05-02T15:17:52.117Z</time></trkpt><trkpt lat="42.351931" lon="13.3199577"><ele>683.0</ele><time>2026-05-02T15:17:53.116Z</time></trkpt><trkpt lat="42.3520269" lon="13.3200456"><ele>683.0</ele><time>2026-05-02T15:17:55.117Z</time></trkpt><trkpt lat="42.3520902" lon="13.3201216"><ele>683.0</ele><time>2026-05-02T15:17:57.116Z</time></trkpt><trkpt lat="42.3521679" lon="13.3201787"><ele>683.0</ele><time>2026-05-02T15:19:52.116Z</time></trkpt><trkpt lat="42.3522267" lon="13.3202266"><ele>683.0</ele><time>2026-05-02T15:20:14.115Z</time></trkpt><trkpt lat="42.3522905" lon="13.3202841"><ele>683.0</ele><time>2026-05-02T15:20:17.115Z</time></trkpt><trkpt lat="42.3523569" lon="13.3203522"><ele>682.0</ele><time>2026-05-02T15:20:19.116Z</time></trkpt><trkpt lat="42.3524102" lon="13.3203981"><ele>681.0</ele><time>2026-05-02T15:20:20.116Z</time></trkpt><trkpt lat="42.3524724" lon="13.3204549"><ele>680.0</ele><time>2026-05-02T15:20:21.115Z</time></trkpt><trkpt lat="42.3525378" lon="13.3205187"><ele>679.0</ele><time>2026-05-02T15:20:22.116Z</time></trkpt><trkpt lat="42.352603" lon="13.3205735"><ele>678.0</ele><time>2026-05-02T15:20:23.116Z</time></trkpt><trkpt lat="42.3526647" lon="13.3206297"><ele>677.0</ele><time>2026-05-02T15:20:24.115Z</time></trkpt><trkpt lat="42.3527225" lon="13.3206922"><ele>676.0</ele><time>2026-05-02T15:20:25.115Z</time></trkpt><trkpt lat="42.3528058" lon="13.3207881"><ele>676.0</ele><time>2026-05-02T15:20:27.116Z</time></trkpt><trkpt lat="42.3528487" lon="13.3208614"><ele>676.0</ele><time>2026-05-02T15:20:29.115Z</time></trkpt><trkpt lat="42.3528722" lon="13.3210216"><ele>676.0</ele><time>2026-05-02T15:20:31.117Z</time></trkpt><trkpt lat="42.3528686" lon="13.3211484"><ele>676.0</ele><time>2026-05-02T15:20:32.116Z</time></trkpt><trkpt lat="42.3528699" lon="13.321295"><ele>676.0</ele><time>2026-05-02T15:20:33.115Z</time></trkpt><trkpt lat="42.3528755" lon="13.3214574"><ele>674.5</ele><time>2026-05-02T15:20:34.115Z</time></trkpt><trkpt lat="42.3528902" lon="13.3216277"><ele>673.0</ele><time>2026-05-02T15:20:35.116Z</time></trkpt><trkpt lat="42.3529272" lon="13.3217876"><ele>671.5</ele><time>2026-05-02T15:20:36.116Z</time></trkpt><trkpt lat="42.3529766" lon="13.3219501"><ele>670.0</ele><time>2026-05-02T15:20:37.116Z</time></trkpt><trkpt lat="42.3530285" lon="13.3220994"><ele>669.0</ele><time>2026-05-02T15:20:38.116Z</time></trkpt><trkpt lat="42.3530789" lon="13.3222418"><ele>668.0</ele><time>2026-05-02T15:20:39.116Z</time></trkpt><trkpt lat="42.3531242" lon="13.3223727"><ele>667.0</ele><time>2026-05-02T15:20:40.115Z</time></trkpt><trkpt lat="42.3531653" lon="13.3224947"><ele>666.0</ele><time>2026-05-02T15:20:41.117Z</time></trkpt><trkpt lat="42.3531957" lon="13.322604"><ele>665.0</ele><time>2026-05-02T15:20:42.116Z</time></trkpt><trkpt lat="42.3532129" lon="13.322706"><ele>665.0</ele><time>2026-05-02T15:20:43.116Z</time></trkpt><trkpt lat="42.3532315" lon="13.3228163"><ele>665.0</ele><time>2026-05-02T15:20:44.115Z</time></trkpt><trkpt lat="42.3532742" lon="13.3229301"><ele>665.0</ele><time>2026-05-02T15:20:45.116Z</time></trkpt><trkpt lat="42.3533469" lon="13.3230474"><ele>665.0</ele><time>2026-05-02T15:20:46.115Z</time></trkpt><trkpt lat="42.353425" lon="13.3231933"><ele>665.0</ele><time>2026-05-02T15:20:47.116Z</time></trkpt><trkpt lat="42.3535018" lon="13.3233695"><ele>664.0</ele><time>2026-05-02T15:20:48.117Z</time></trkpt><trkpt lat="42.3535849" lon="13.3235547"><ele>663.0</ele><time>2026-05-02T15:20:49.115Z</time></trkpt><trkpt lat="42.353676" lon="13.3237482"><ele>662.0</ele><time>2026-05-02T15:20:50.115Z</time></trkpt><trkpt lat="42.3537739" lon="13.3239564"><ele>661.6666666666666</ele><time>2026-05-02T15:20:51.116Z</time></trkpt><trkpt lat="42.3538763" lon="13.3241761"><ele>661.3333333333334</ele><time>2026-05-02T15:20:52.117Z</time></trkpt><trkpt lat="42.3539795" lon="13.3243965"><ele>661.0</ele><time>2026-05-02T15:20:53.115Z</time></trkpt><trkpt lat="42.354083" lon="13.3246241"><ele>659.6666666666667</ele><time>2026-05-02T15:20:54.116Z</time></trkpt><trkpt lat="42.3541861" lon="13.324853"><ele>658.3333333333334</ele><time>2026-05-02T15:20:55.115Z</time></trkpt><trkpt lat="42.3542993" lon="13.3250772"><ele>657.0</ele><time>2026-05-02T15:20:56.115Z</time></trkpt><trkpt lat="42.3544193" lon="13.3253093"><ele>657.0</ele><time>2026-05-02T15:20:57.115Z</time></trkpt><trkpt lat="42.354543" lon="13.3255443"><ele>657.0</ele><time>2026-05-02T15:20:58.115Z</time></trkpt><trkpt lat="42.3546578" lon="13.3257575"><ele>657.0</ele><time>2026-05-02T15:20:59.115Z</time></trkpt><trkpt lat="42.3547666" lon="13.3259747"><ele>656.3333333333334</ele><time>2026-05-02T15:21:00.115Z</time></trkpt><trkpt lat="42.3548735" lon="13.3261924"><ele>655.6666666666667</ele><time>2026-05-02T15:21:01.116Z</time></trkpt><trkpt lat="42.354983" lon="13.326403"><ele>655.0</ele><time>2026-05-02T15:21:02.115Z</time></trkpt><trkpt lat="42.3550974" lon="13.3265989"><ele>655.0</ele><time>2026-05-02T15:21:03.116Z</time></trkpt><trkpt lat="42.3552175" lon="13.3267999"><ele>655.0</ele><time>2026-05-02T15:21:04.116Z</time></trkpt><trkpt lat="42.3553445" lon="13.3270018"><ele>655.0</ele><time>2026-05-02T15:21:05.115Z</time></trkpt><trkpt lat="42.3554635" lon="13.3272079"><ele>654.3333333333334</ele><time>2026-05-02T15:21:06.116Z</time></trkpt><trkpt lat="42.3555768" lon="13.3274196"><ele>653.6666666666666</ele><time>2026-05-02T15:21:07.116Z</time></trkpt><trkpt lat="42.3556814" lon="13.3276187"><ele>653.0</ele><time>2026-05-02T15:21:08.117Z</time></trkpt><trkpt lat="42.3557774" lon="13.3278022"><ele>653.0</ele><time>2026-05-02T15:21:09.116Z</time></trkpt><trkpt lat="42.3558693" lon="13.3279759"><ele>653.0</ele><time>2026-05-02T15:21:10.115Z</time></trkpt><trkpt lat="42.355962" lon="13.3281447"><ele>653.0</ele><time>2026-05-02T15:21:11.115Z</time></trkpt><trkpt lat="42.3560482" lon="13.3283053"><ele>652.75</ele><time>2026-05-02T15:21:12.116Z</time></trkpt><trkpt lat="42.3561206" lon="13.3284477"><ele>652.5</ele><time>2026-05-02T15:21:13.115Z</time></trkpt><trkpt lat="42.3561855" lon="13.3285959"><ele>652.25</ele><time>2026-05-02T15:21:14.115Z</time></trkpt><trkpt lat="42.3562306" lon="13.3287368"><ele>652.0</ele><time>2026-05-02T15:21:15.116Z</time></trkpt><trkpt lat="42.3562529" lon="13.3288918"><ele>651.5</ele><time>2026-05-02T15:21:16.116Z</time></trkpt><trkpt lat="42.3562484" lon="13.3290588"><ele>651.0</ele><time>2026-05-02T15:21:17.115Z</time></trkpt><trkpt lat="42.3562252" lon="13.3292429"><ele>650.5</ele><time>2026-05-02T15:21:18.115Z</time></trkpt><trkpt lat="42.3561909" lon="13.3294421"><ele>650.0</ele><time>2026-05-02T15:21:19.116Z</time></trkpt><trkpt lat="42.3561465" lon="13.3296602"><ele>650.6666666666666</ele><time>2026-05-02T15:21:20.116Z</time></trkpt><trkpt lat="42.3560966" lon="13.3298999"><ele>651.3333333333334</ele><time>2026-05-02T15:21:21.115Z</time></trkpt><trkpt lat="42.3560404" lon="13.3301592"><ele>652.0</ele><time>2026-05-02T15:21:22.117Z</time></trkpt><trkpt lat="42.3559873" lon="13.3304154"><ele>652.3333333333334</ele><time>2026-05-02T15:21:23.115Z</time></trkpt><trkpt lat="42.355943" lon="13.3306396"><ele>652.6666666666666</ele><time>2026-05-02T15:21:24.115Z</time></trkpt><trkpt lat="42.3558998" lon="13.3308628"><ele>653.0</ele><time>2026-05-02T15:21:25.116Z</time></trkpt><trkpt lat="42.3558804" lon="13.331086"><ele>653.0</ele><time>2026-05-02T15:21:26.116Z</time></trkpt><trkpt lat="42.3558562" lon="13.3313347"><ele>653.0</ele><time>2026-05-02T15:21:27.115Z</time></trkpt><trkpt lat="42.3558367" lon="13.3316005"><ele>653.0</ele><time>2026-05-02T15:21:28.115Z</time></trkpt><trkpt lat="42.355824" lon="13.3318682"><ele>652.6666666666666</ele><time>2026-05-02T15:21:29.115Z</time></trkpt><trkpt lat="42.3558057" lon="13.3321254"><ele>652.3333333333334</ele><time>2026-05-02T15:21:30.116Z</time></trkpt><trkpt lat="42.3557881" lon="13.3323674"><ele>652.0</ele><time>2026-05-02T15:21:31.116Z</time></trkpt><trkpt lat="42.355773" lon="13.3326016"><ele>650.6666666666667</ele><time>2026-05-02T15:21:32.115Z</time></trkpt><trkpt lat="42.3557602" lon="13.332845"><ele>649.3333333333334</ele><time>2026-05-02T15:21:33.115Z</time></trkpt><trkpt lat="42.3557432" lon="13.3331113"><ele>648.0</ele><time>2026-05-02T15:21:34.115Z</time></trkpt><trkpt lat="42.3557265" lon="13.3333501"><ele>647.6666666666666</ele><time>2026-05-02T15:21:35.117Z</time></trkpt><trkpt lat="42.3557109" lon="13.3335816"><ele>647.3333333333333</ele><time>2026-05-02T15:21:36.116Z</time></trkpt><trkpt lat="42.3556932" lon="13.3338031"><ele>647.0</ele><time>2026-05-02T15:21:37.116Z</time></trkpt><trkpt lat="42.3556813" lon="13.3340137"><ele>646.75</ele><time>2026-05-02T15:21:38.115Z</time></trkpt><trkpt lat="42.3556722" lon="13.3342171"><ele>646.5</ele><time>2026-05-02T15:21:39.116Z</time></trkpt><trkpt lat="42.355671" lon="13.3344067"><ele>646.25</ele><time>2026-05-02T15:21:40.117Z</time></trkpt><trkpt lat="42.3556861" lon="13.3345747"><ele>646.0</ele><time>2026-05-02T15:21:41.116Z</time></trkpt><trkpt lat="42.3557167" lon="13.3347322"><ele>645.1999999999999</ele><time>2026-05-02T15:21:42.115Z</time></trkpt><trkpt lat="42.3557485" lon="13.3348745"><ele>644.4</ele><time>2026-05-02T15:21:43.117Z</time></trkpt><trkpt lat="42.3557815" lon="13.3350086"><ele>643.6</ele><time>2026-05-02T15:21:44.115Z</time></trkpt><trkpt lat="42.3558041" lon="13.3351362"><ele>642.8</ele><time>2026-05-02T15:21:45.116Z</time></trkpt><trkpt lat="42.3558235" lon="13.3352631"><ele>642.0</ele><time>2026-05-02T15:21:46.116Z</time></trkpt><trkpt lat="42.3558324" lon="13.3353937"><ele>642.0</ele><time>2026-05-02T15:21:47.115Z</time></trkpt><trkpt lat="42.355826" lon="13.3355464"><ele>642.0</ele><time>2026-05-02T15:21:48.116Z</time></trkpt><trkpt lat="42.3557971" lon="13.335721"><ele>642.0</ele><time>2026-05-02T15:21:49.115Z</time></trkpt><trkpt lat="42.3557473" lon="13.3359078"><ele>642.0</ele><time>2026-05-02T15:21:50.116Z</time></trkpt><trkpt lat="42.3556848" lon="13.3361093"><ele>641.3333333333334</ele><time>2026-05-02T15:21:51.116Z</time></trkpt><trkpt lat="42.3556157" lon="13.3363153"><ele>640.6666666666667</ele><time>2026-05-02T15:21:52.116Z</time></trkpt><trkpt lat="42.3555433" lon="13.3364906"><ele>640.0</ele><time>2026-05-02T15:21:53.116Z</time></trkpt><trkpt lat="42.3554612" lon="13.3366379"><ele>640.0</ele><time>2026-05-02T15:21:54.116Z</time></trkpt><trkpt lat="42.3553615" lon="13.3367647"><ele>640.0</ele><time>2026-05-02T15:21:55.115Z</time></trkpt><trkpt lat="42.3552578" lon="13.3368847"><ele>640.0</ele><time>2026-05-02T15:21:56.115Z</time></trkpt><trkpt lat="42.3551408" lon="13.3370112"><ele>640.0</ele><time>2026-05-02T15:21:57.116Z</time></trkpt><trkpt lat="42.3550144" lon="13.3371251"><ele>639.0</ele><time>2026-05-02T15:21:58.116Z</time></trkpt><trkpt lat="42.3548859" lon="13.3372335"><ele>638.0</ele><time>2026-05-02T15:21:59.115Z</time></trkpt><trkpt lat="42.3547503" lon="13.3373373"><ele>637.0</ele><time>2026-05-02T15:22:00.115Z</time></trkpt><trkpt lat="42.3546193" lon="13.3374287"><ele>637.0</ele><time>2026-05-02T15:22:01.116Z</time></trkpt><trkpt lat="42.354492" lon="13.3375213"><ele>637.0</ele><time>2026-05-02T15:22:02.115Z</time></trkpt><trkpt lat="42.3543568" lon="13.3376117"><ele>637.0</ele><time>2026-05-02T15:22:03.117Z</time></trkpt><trkpt lat="42.3542455" lon="13.3376795"><ele>637.0</ele><time>2026-05-02T15:22:04.116Z</time></trkpt><trkpt lat="42.3541404" lon="13.3377382"><ele>637.0</ele><time>2026-05-02T15:22:05.116Z</time></trkpt><trkpt lat="42.3540471" lon="13.337785"><ele>637.0</ele><time>2026-05-02T15:22:06.115Z</time></trkpt><trkpt lat="42.3539668" lon="13.3378139"><ele>637.0</ele><time>2026-05-02T15:22:07.116Z</time></trkpt><trkpt lat="42.3538906" lon="13.3378225"><ele>637.0</ele><time>2026-05-02T15:22:08.116Z</time></trkpt><trkpt lat="42.3537887" lon="13.3377846"><ele>637.0</ele><time>2026-05-02T15:22:10.116Z</time></trkpt><trkpt lat="42.3536947" lon="13.3376842"><ele>637.5</ele><time>2026-05-02T15:22:12.115Z</time></trkpt><trkpt lat="42.3536247" lon="13.3376177"><ele>638.0</ele><time>2026-05-02T15:22:13.115Z</time></trkpt><trkpt lat="42.3535412" lon="13.3375556"><ele>638.5</ele><time>2026-05-02T15:22:14.116Z</time></trkpt><trkpt lat="42.3534518" lon="13.3375241"><ele>639.0</ele><time>2026-05-02T15:22:15.117Z</time></trkpt><trkpt lat="42.3533685" lon="13.3375353"><ele>639.5</ele><time>2026-05-02T15:22:16.116Z</time></trkpt><trkpt lat="42.3532929" lon="13.3375873"><ele>640.0</ele><time>2026-05-02T15:22:17.115Z</time></trkpt><trkpt lat="42.3532298" lon="13.3376699"><ele>640.0</ele><time>2026-05-02T15:22:18.115Z</time></trkpt><trkpt lat="42.353192" lon="13.3377682"><ele>640.0</ele><time>2026-05-02T15:22:19.115Z</time></trkpt><trkpt lat="42.3531789" lon="13.3378834"><ele>640.0</ele><time>2026-05-02T15:22:20.115Z</time></trkpt><trkpt lat="42.353184" lon="13.3379853"><ele>640.0</ele><time>2026-05-02T15:22:21.116Z</time></trkpt><trkpt lat="42.3532135" lon="13.3381214"><ele>640.0</ele><time>2026-05-02T15:22:23.115Z</time></trkpt><trkpt lat="42.3532934" lon="13.3382106"><ele>639.6666666666667</ele><time>2026-05-02T15:22:25.116Z</time></trkpt><trkpt lat="42.3533624" lon="13.3382345"><ele>639.3333333333334</ele><time>2026-05-02T15:22:26.116Z</time></trkpt><trkpt lat="42.3534422" lon="13.3382513"><ele>639.0</ele><time>2026-05-02T15:22:27.115Z</time></trkpt><trkpt lat="42.3535305" lon="13.3382748"><ele>638.6666666666666</ele><time>2026-05-02T15:22:28.115Z</time></trkpt><trkpt lat="42.3536119" lon="13.3383192"><ele>638.3333333333333</ele><time>2026-05-02T15:22:29.115Z</time></trkpt><trkpt lat="42.3536802" lon="13.3383935"><ele>638.0</ele><time>2026-05-02T15:22:30.115Z</time></trkpt><trkpt lat="42.3537344" lon="13.3384993"><ele>638.0</ele><time>2026-05-02T15:22:31.115Z</time></trkpt><trkpt lat="42.3537923" lon="13.338633"><ele>638.0</ele><time>2026-05-02T15:22:32.116Z</time></trkpt><trkpt lat="42.3538476" lon="13.3387673"><ele>638.0</ele><time>2026-05-02T15:22:33.117Z</time></trkpt><trkpt lat="42.3538908" lon="13.3388929"><ele>638.0</ele><time>2026-05-02T15:22:34.115Z</time></trkpt><trkpt lat="42.3539144" lon="13.33903"><ele>638.0</ele><time>2026-05-02T15:22:35.115Z</time></trkpt><trkpt lat="42.3539069" lon="13.3391705"><ele>637.0</ele><time>2026-05-02T15:22:36.115Z</time></trkpt><trkpt lat="42.3538691" lon="13.3393167"><ele>636.0</ele><time>2026-05-02T15:22:37.116Z</time></trkpt><trkpt lat="42.353799" lon="13.3394543"><ele>635.0</ele><time>2026-05-02T15:22:38.115Z</time></trkpt><trkpt lat="42.3537031" lon="13.3395824"><ele>634.0</ele><time>2026-05-02T15:22:39.115Z</time></trkpt><trkpt lat="42.3535894" lon="13.3397091"><ele>633.3333333333334</ele><time>2026-05-02T15:22:40.115Z</time></trkpt><trkpt lat="42.35347" lon="13.339846"><ele>632.6666666666666</ele><time>2026-05-02T15:22:41.116Z</time></trkpt><trkpt lat="42.353351" lon="13.3399936"><ele>632.0</ele><time>2026-05-02T15:22:42.115Z</time></trkpt><trkpt lat="42.3532343" lon="13.3401599"><ele>632.0</ele><time>2026-05-02T15:22:43.115Z</time></trkpt><trkpt lat="42.3531212" lon="13.3403399"><ele>632.0</ele><time>2026-05-02T15:22:44.115Z</time></trkpt><trkpt lat="42.353017" lon="13.3405301"><ele>632.0</ele><time>2026-05-02T15:22:45.115Z</time></trkpt><trkpt lat="42.352918" lon="13.3407191"><ele>631.6666666666666</ele><time>2026-05-02T15:22:46.116Z</time></trkpt><trkpt lat="42.3528209" lon="13.3409147"><ele>631.3333333333334</ele><time>2026-05-02T15:22:47.116Z</time></trkpt><trkpt lat="42.3527289" lon="13.341122"><ele>631.0</ele><time>2026-05-02T15:22:48.115Z</time></trkpt><trkpt lat="42.3526438" lon="13.3413384"><ele>631.0</ele><time>2026-05-02T15:22:49.115Z</time></trkpt><trkpt lat="42.3525689" lon="13.3415651"><ele>631.0</ele><time>2026-05-02T15:22:50.116Z</time></trkpt><trkpt lat="42.3525048" lon="13.3417992"><ele>631.0</ele><time>2026-05-02T15:22:51.116Z</time></trkpt><trkpt lat="42.3524454" lon="13.3420425"><ele>630.6666666666667</ele><time>2026-05-02T15:22:52.115Z</time></trkpt><trkpt lat="42.3523837" lon="13.3422914"><ele>630.3333333333334</ele><time>2026-05-02T15:22:53.115Z</time></trkpt><trkpt lat="42.3523201" lon="13.3425465"><ele>630.0</ele><time>2026-05-02T15:22:54.115Z</time></trkpt><trkpt lat="42.3522521" lon="13.3428083"><ele>629.6666666666666</ele><time>2026-05-02T15:22:55.115Z</time></trkpt><trkpt lat="42.3521835" lon="13.3430769"><ele>629.3333333333333</ele><time>2026-05-02T15:22:56.116Z</time></trkpt><trkpt lat="42.3521149" lon="13.3433468"><ele>629.0</ele><time>2026-05-02T15:22:57.116Z</time></trkpt><trkpt lat="42.3520486" lon="13.3436113"><ele>629.0</ele><time>2026-05-02T15:22:58.115Z</time></trkpt><trkpt lat="42.3519839" lon="13.3438703"><ele>629.0</ele><time>2026-05-02T15:22:59.115Z</time></trkpt><trkpt lat="42.3519218" lon="13.344118"><ele>629.0</ele><time>2026-05-02T15:23:00.116Z</time></trkpt><trkpt lat="42.3518586" lon="13.3443626"><ele>629.3333333333333</ele><time>2026-05-02T15:23:01.116Z</time></trkpt><trkpt lat="42.3517954" lon="13.3446049"><ele>629.6666666666666</ele><time>2026-05-02T15:23:02.117Z</time></trkpt><trkpt lat="42.3517316" lon="13.3448511"><ele>630.0</ele><time>2026-05-02T15:23:03.117Z</time></trkpt><trkpt lat="42.3516657" lon="13.3450994"><ele>630.0</ele><time>2026-05-02T15:23:04.115Z</time></trkpt><trkpt lat="42.3516043" lon="13.3453449"><ele>630.0</ele><time>2026-05-02T15:23:05.115Z</time></trkpt><trkpt lat="42.3515441" lon="13.3455915"><ele>630.0</ele><time>2026-05-02T15:23:06.117Z</time></trkpt><trkpt lat="42.351483" lon="13.3458359"><ele>630.0</ele><time>2026-05-02T15:23:07.115Z</time></trkpt><trkpt lat="42.3514227" lon="13.3460736"><ele>630.0</ele><time>2026-05-02T15:23:08.116Z</time></trkpt><trkpt lat="42.3513635" lon="13.3463037"><ele>630.0</ele><time>2026-05-02T15:23:09.117Z</time></trkpt><trkpt lat="42.3513061" lon="13.3465299"><ele>630.0</ele><time>2026-05-02T15:23:10.115Z</time></trkpt><trkpt lat="42.3512571" lon="13.3467514"><ele>630.0</ele><time>2026-05-02T15:23:11.115Z</time></trkpt><trkpt lat="42.3512168" lon="13.3469673"><ele>630.0</ele><time>2026-05-02T15:23:12.116Z</time></trkpt><trkpt lat="42.3511837" lon="13.3471881"><ele>629.6666666666666</ele><time>2026-05-02T15:23:13.115Z</time></trkpt><trkpt lat="42.3511589" lon="13.3474104"><ele>629.3333333333333</ele><time>2026-05-02T15:23:14.115Z</time></trkpt><trkpt lat="42.3511482" lon="13.3476168"><ele>629.0</ele><time>2026-05-02T15:23:15.115Z</time></trkpt><trkpt lat="42.351143" lon="13.3478035"><ele>629.0</ele><time>2026-05-02T15:23:16.115Z</time></trkpt><trkpt lat="42.3511379" lon="13.3479696"><ele>629.0</ele><time>2026-05-02T15:23:17.116Z</time></trkpt><trkpt lat="42.3511364" lon="13.3481126"><ele>629.0</ele><time>2026-05-02T15:23:18.115Z</time></trkpt><trkpt lat="42.3511306" lon="13.3482305"><ele>629.0</ele><time>2026-05-02T15:23:19.116Z</time></trkpt><trkpt lat="42.3511257" lon="13.3483161"><ele>629.0</ele><time>2026-05-02T15:23:20.115Z</time></trkpt><trkpt lat="42.3511126" lon="13.3484308"><ele>629.2</ele><time>2026-05-02T15:23:22.115Z</time></trkpt><trkpt lat="42.3510893" lon="13.3485448"><ele>629.4</ele><time>2026-05-02T15:23:37.115Z</time></trkpt><trkpt lat="42.35106" lon="13.3486686"><ele>629.6</ele><time>2026-05-02T15:23:39.115Z</time></trkpt><trkpt lat="42.3511103" lon="13.3487798"><ele>629.8</ele><time>2026-05-02T15:23:41.116Z</time></trkpt><trkpt lat="42.351244" lon="13.3487952"><ele>630.0</ele><time>2026-05-02T15:23:43.117Z</time></trkpt><trkpt lat="42.3513371" lon="13.3487953"><ele>630.5</ele><time>2026-05-02T15:23:44.115Z</time></trkpt><trkpt lat="42.3514419" lon="13.3488068"><ele>631.0</ele><time>2026-05-02T15:23:45.116Z</time></trkpt><trkpt lat="42.3515591" lon="13.3488329"><ele>631.5</ele><time>2026-05-02T15:23:46.115Z</time></trkpt><trkpt lat="42.3516789" lon="13.348868"><ele>632.0</ele><time>2026-05-02T15:23:47.115Z</time></trkpt><trkpt lat="42.3517874" lon="13.3489011"><ele>630.75</ele><time>2026-05-02T15:23:48.115Z</time></trkpt><trkpt lat="42.351912" lon="13.3489347"><ele>629.5</ele><time>2026-05-02T15:23:49.114Z</time></trkpt><trkpt lat="42.3520511" lon="13.3489841"><ele>628.25</ele><time>2026-05-02T15:23:50.114Z</time></trkpt><trkpt lat="42.3521945" lon="13.3490506"><ele>627.0</ele><time>2026-05-02T15:23:51.114Z</time></trkpt><trkpt lat="42.3523479" lon="13.3491168"><ele>627.0</ele><time>2026-05-02T15:23:52.114Z</time></trkpt><trkpt lat="42.3525114" lon="13.3491787"><ele>627.0</ele><time>2026-05-02T15:23:53.114Z</time></trkpt><trkpt lat="42.3526632" lon="13.3492339"><ele>627.0</ele><time>2026-05-02T15:23:54.114Z</time></trkpt><trkpt lat="42.3528021" lon="13.3492864"><ele>627.0</ele><time>2026-05-02T15:23:55.114Z</time></trkpt><trkpt lat="42.3529337" lon="13.3493398"><ele>627.0</ele><time>2026-05-02T15:23:56.114Z</time></trkpt><trkpt lat="42.3530743" lon="13.3493946"><ele>627.0</ele><time>2026-05-02T15:23:57.116Z</time></trkpt><trkpt lat="42.3532248" lon="13.3494469"><ele>627.0</ele><time>2026-05-02T15:23:58.115Z</time></trkpt><trkpt lat="42.3533788" lon="13.3494987"><ele>627.6666666666666</ele><time>2026-05-02T15:23:59.114Z</time></trkpt><trkpt lat="42.3535403" lon="13.3495473"><ele>628.3333333333333</ele><time>2026-05-02T15:24:00.114Z</time></trkpt><trkpt lat="42.3536945" lon="13.3495768"><ele>629.0</ele><time>2026-05-02T15:24:01.114Z</time></trkpt><trkpt lat="42.3538534" lon="13.3495942"><ele>629.6666666666666</ele><time>2026-05-02T15:24:02.114Z</time></trkpt><trkpt lat="42.3540165" lon="13.3496091"><ele>630.3333333333334</ele><time>2026-05-02T15:24:03.114Z</time></trkpt><trkpt lat="42.3541733" lon="13.3496206"><ele>631.0</ele><time>2026-05-02T15:24:04.114Z</time></trkpt><trkpt lat="42.3543233" lon="13.3496307"><ele>631.0</ele><time>2026-05-02T15:24:05.116Z</time></trkpt><trkpt lat="42.3544696" lon="13.3496448"><ele>631.0</ele><time>2026-05-02T15:24:06.115Z</time></trkpt><trkpt lat="42.3546053" lon="13.3496584"><ele>631.0</ele><time>2026-05-02T15:24:07.115Z</time></trkpt><trkpt lat="42.3547443" lon="13.3496682"><ele>631.0</ele><time>2026-05-02T15:24:08.115Z</time></trkpt><trkpt lat="42.3548835" lon="13.349677"><ele>631.0</ele><time>2026-05-02T15:24:09.114Z</time></trkpt><trkpt lat="42.3550187" lon="13.3496879"><ele>631.0</ele><time>2026-05-02T15:24:10.115Z</time></trkpt><trkpt lat="42.3551597" lon="13.3496976"><ele>631.0</ele><time>2026-05-02T15:24:11.115Z</time></trkpt><trkpt lat="42.355305" lon="13.3497069"><ele>631.0</ele><time>2026-05-02T15:24:12.116Z</time></trkpt><trkpt lat="42.3554426" lon="13.3497154"><ele>630.5</ele><time>2026-05-02T15:24:13.115Z</time></trkpt><trkpt lat="42.3555778" lon="13.3497258"><ele>630.0</ele><time>2026-05-02T15:24:14.115Z</time></trkpt><trkpt lat="42.3557036" lon="13.3497346"><ele>629.5</ele><time>2026-05-02T15:24:15.116Z</time></trkpt><trkpt lat="42.3558244" lon="13.3497411"><ele>629.0</ele><time>2026-05-02T15:24:16.114Z</time></trkpt><trkpt lat="42.35594" lon="13.3497524"><ele>629.0</ele><time>2026-05-02T15:24:17.115Z</time></trkpt><trkpt lat="42.3560554" lon="13.3497643"><ele>629.0</ele><time>2026-05-02T15:24:18.115Z</time></trkpt><trkpt lat="42.3561681" lon="13.3497724"><ele>629.0</ele><time>2026-05-02T15:24:19.114Z</time></trkpt><trkpt lat="42.3562765" lon="13.3497822"><ele>629.0</ele><time>2026-05-02T15:24:20.114Z</time></trkpt><trkpt lat="42.3563743" lon="13.3497939"><ele>629.0</ele><time>2026-05-02T15:24:21.114Z</time></trkpt><trkpt lat="42.3564694" lon="13.3498042"><ele>629.3333333333333</ele><time>2026-05-02T15:24:22.115Z</time></trkpt><trkpt lat="42.3565614" lon="13.3498184"><ele>629.6666666666666</ele><time>2026-05-02T15:24:23.115Z</time></trkpt><trkpt lat="42.3566454" lon="13.3498338"><ele>630.0</ele><time>2026-05-02T15:24:24.114Z</time></trkpt><trkpt lat="42.356713" lon="13.3498508"><ele>630.3333333333334</ele><time>2026-05-02T15:24:25.114Z</time></trkpt><trkpt lat="42.3568107" lon="13.3498921"><ele>630.6666666666667</ele><time>2026-05-02T15:24:27.115Z</time></trkpt><trkpt lat="42.3568695" lon="13.3499461"><ele>631.0</ele><time>2026-05-02T15:24:29.114Z</time></trkpt><trkpt lat="42.356923" lon="13.3500416"><ele>631.0</ele><time>2026-05-02T15:24:31.114Z</time></trkpt><trkpt lat="42.3569889" lon="13.3501601"><ele>631.0</ele><time>2026-05-02T15:24:33.114Z</time></trkpt><trkpt lat="42.3571039" lon="13.3502522"><ele>631.0</ele><time>2026-05-02T15:24:35.114Z</time></trkpt><trkpt lat="42.3571851" lon="13.3502728"><ele>631.0</ele><time>2026-05-02T15:24:36.115Z</time></trkpt><trkpt lat="42.3572782" lon="13.350284"><ele>631.0</ele><time>2026-05-02T15:24:37.114Z</time></trkpt><trkpt lat="42.3573789" lon="13.3502964"><ele>631.0</ele><time>2026-05-02T15:24:38.114Z</time></trkpt><trkpt lat="42.3574822" lon="13.3503152"><ele>631.0</ele><time>2026-05-02T15:24:39.114Z</time></trkpt><trkpt lat="42.3575809" lon="13.3503619"><ele>631.0</ele><time>2026-05-02T15:24:40.115Z</time></trkpt><trkpt lat="42.3576697" lon="13.3504304"><ele>631.0</ele><time>2026-05-02T15:24:41.115Z</time></trkpt><trkpt lat="42.357758" lon="13.350526"><ele>631.0</ele><time>2026-05-02T15:24:42.115Z</time></trkpt><trkpt lat="42.3578412" lon="13.3506206"><ele>631.0</ele><time>2026-05-02T15:24:43.115Z</time></trkpt><trkpt lat="42.3579195" lon="13.3507201"><ele>631.0</ele><time>2026-05-02T15:24:44.114Z</time></trkpt><trkpt lat="42.3580029" lon="13.3508306"><ele>631.0</ele><time>2026-05-02T15:24:45.115Z</time></trkpt><trkpt lat="42.3580896" lon="13.350949"><ele>631.0</ele><time>2026-05-02T15:24:46.114Z</time></trkpt><trkpt lat="42.3581722" lon="13.3510726"><ele>630.5</ele><time>2026-05-02T15:24:47.115Z</time></trkpt><trkpt lat="42.3582462" lon="13.3511991"><ele>630.0</ele><time>2026-05-02T15:24:48.115Z</time></trkpt><trkpt lat="42.3583157" lon="13.3513298"><ele>629.5</ele><time>2026-05-02T15:24:49.115Z</time></trkpt><trkpt lat="42.3583873" lon="13.3514665"><ele>629.0</ele><time>2026-05-02T15:24:50.114Z</time></trkpt><trkpt lat="42.3584534" lon="13.3516057"><ele>628.8</ele><time>2026-05-02T15:24:51.114Z</time></trkpt><trkpt lat="42.3585158" lon="13.3517361"><ele>628.5999999999999</ele><time>2026-05-02T15:24:52.115Z</time></trkpt><trkpt lat="42.3585765" lon="13.3518532"><ele>628.4</ele><time>2026-05-02T15:24:53.114Z</time></trkpt><trkpt lat="42.3586267" lon="13.3519536"><ele>628.1999999999999</ele><time>2026-05-02T15:24:54.114Z</time></trkpt><trkpt lat="42.3586642" lon="13.3520468"><ele>628.0</ele><time>2026-05-02T15:24:55.114Z</time></trkpt><trkpt lat="42.3586894" lon="13.352152"><ele>628.0</ele><time>2026-05-02T15:24:56.115Z</time></trkpt><trkpt lat="42.3587007" lon="13.3522736"><ele>628.0</ele><time>2026-05-02T15:24:57.114Z</time></trkpt><trkpt lat="42.3587052" lon="13.3524005"><ele>628.0</ele><time>2026-05-02T15:24:58.114Z</time></trkpt><trkpt lat="42.3587199" lon="13.3525203"><ele>628.0</ele><time>2026-05-02T15:24:59.115Z</time></trkpt><trkpt lat="42.3587591" lon="13.3526305"><ele>628.0</ele><time>2026-05-02T15:25:00.115Z</time></trkpt><trkpt lat="42.3588174" lon="13.3527439"><ele>628.5</ele><time>2026-05-02T15:25:01.114Z</time></trkpt><trkpt lat="42.3588858" lon="13.3528721"><ele>629.0</ele><time>2026-05-02T15:25:02.114Z</time></trkpt><trkpt lat="42.358942" lon="13.3530199"><ele>629.5</ele><time>2026-05-02T15:25:03.115Z</time></trkpt><trkpt lat="42.3589887" lon="13.3531742"><ele>630.0</ele><time>2026-05-02T15:25:04.114Z</time></trkpt><trkpt lat="42.3590357" lon="13.3533365"><ele>630.0</ele><time>2026-05-02T15:25:05.114Z</time></trkpt><trkpt lat="42.3590842" lon="13.3535052"><ele>630.0</ele><time>2026-05-02T15:25:06.115Z</time></trkpt><trkpt lat="42.3591351" lon="13.3536743"><ele>630.0</ele><time>2026-05-02T15:25:07.114Z</time></trkpt><trkpt lat="42.3591836" lon="13.353846"><ele>630.0</ele><time>2026-05-02T15:25:08.114Z</time></trkpt><trkpt lat="42.3592328" lon="13.3540222"><ele>629.5</ele><time>2026-05-02T15:25:09.114Z</time></trkpt><trkpt lat="42.3592833" lon="13.3542066"><ele>629.0</ele><time>2026-05-02T15:25:10.115Z</time></trkpt><trkpt lat="42.3593363" lon="13.3544033"><ele>628.5</ele><time>2026-05-02T15:25:11.114Z</time></trkpt><trkpt lat="42.3593868" lon="13.3545923"><ele>628.0</ele><time>2026-05-02T15:25:12.114Z</time></trkpt><trkpt lat="42.3594364" lon="13.3547713"><ele>628.0</ele><time>2026-05-02T15:25:13.114Z</time></trkpt><trkpt lat="42.3594878" lon="13.3549515"><ele>628.0</ele><time>2026-05-02T15:25:14.116Z</time></trkpt><trkpt lat="42.3595407" lon="13.3551351"><ele>628.0</ele><time>2026-05-02T15:25:15.114Z</time></trkpt><trkpt lat="42.3595906" lon="13.3553188"><ele>628.0</ele><time>2026-05-02T15:25:16.115Z</time></trkpt><trkpt lat="42.3596422" lon="13.3555121"><ele>627.3333333333334</ele><time>2026-05-02T15:25:17.115Z</time></trkpt><trkpt lat="42.3596943" lon="13.3557111"><ele>626.6666666666666</ele><time>2026-05-02T15:25:18.114Z</time></trkpt><trkpt lat="42.3597451" lon="13.3558996"><ele>626.0</ele><time>2026-05-02T15:25:19.115Z</time></trkpt><trkpt lat="42.3597941" lon="13.3560909"><ele>626.0</ele><time>2026-05-02T15:25:20.114Z</time></trkpt><trkpt lat="42.3598444" lon="13.3562857"><ele>626.0</ele><time>2026-05-02T15:25:21.115Z</time></trkpt><trkpt lat="42.3598908" lon="13.3564724"><ele>626.0</ele><time>2026-05-02T15:25:22.115Z</time></trkpt><trkpt lat="42.3599338" lon="13.3566538"><ele>626.0</ele><time>2026-05-02T15:25:23.114Z</time></trkpt><trkpt lat="42.3599681" lon="13.3568347"><ele>626.0</ele><time>2026-05-02T15:25:24.115Z</time></trkpt><trkpt lat="42.3599979" lon="13.3570215"><ele>626.0</ele><time>2026-05-02T15:25:25.114Z</time></trkpt><trkpt lat="42.3600178" lon="13.357206"><ele>626.0</ele><time>2026-05-02T15:25:26.115Z</time></trkpt><trkpt lat="42.3600298" lon="13.3573853"><ele>626.0</ele><time>2026-05-02T15:25:27.114Z</time></trkpt><trkpt lat="42.3600311" lon="13.3575597"><ele>626.0</ele><time>2026-05-02T15:25:28.115Z</time></trkpt><trkpt lat="42.3600274" lon="13.3577306"><ele>626.0</ele><time>2026-05-02T15:25:29.114Z</time></trkpt><trkpt lat="42.3600162" lon="13.3579127"><ele>626.0</ele><time>2026-05-02T15:25:30.114Z</time></trkpt><trkpt lat="42.359996" lon="13.3580972"><ele>626.0</ele><time>2026-05-02T15:25:31.114Z</time></trkpt><trkpt lat="42.3599756" lon="13.3582777"><ele>626.0</ele><time>2026-05-02T15:25:32.115Z</time></trkpt><trkpt lat="42.3599471" lon="13.3584641"><ele>626.0</ele><time>2026-05-02T15:25:33.114Z</time></trkpt><trkpt lat="42.3599094" lon="13.3586495"><ele>626.0</ele><time>2026-05-02T15:25:34.114Z</time></trkpt><trkpt lat="42.3598663" lon="13.3588192"><ele>626.0</ele><time>2026-05-02T15:25:35.116Z</time></trkpt><trkpt lat="42.3598241" lon="13.3589834"><ele>625.5</ele><time>2026-05-02T15:25:36.114Z</time></trkpt><trkpt lat="42.3597789" lon="13.3591453"><ele>625.0</ele><time>2026-05-02T15:25:37.115Z</time></trkpt><trkpt lat="42.35973" lon="13.3592999"><ele>624.5</ele><time>2026-05-02T15:25:38.114Z</time></trkpt><trkpt lat="42.3596837" lon="13.3594536"><ele>624.0</ele><time>2026-05-02T15:25:39.115Z</time></trkpt><trkpt lat="42.3596367" lon="13.3596086"><ele>624.75</ele><time>2026-05-02T15:25:40.115Z</time></trkpt><trkpt lat="42.3595892" lon="13.3597611"><ele>625.5</ele><time>2026-05-02T15:25:41.115Z</time></trkpt><trkpt lat="42.3595483" lon="13.3599242"><ele>626.25</ele><time>2026-05-02T15:25:42.114Z</time></trkpt><trkpt lat="42.3595029" lon="13.3601014"><ele>627.0</ele><time>2026-05-02T15:25:43.115Z</time></trkpt><trkpt lat="42.3594476" lon="13.3602754"><ele>627.0</ele><time>2026-05-02T15:25:44.116Z</time></trkpt><trkpt lat="42.359397" lon="13.3604488"><ele>627.0</ele><time>2026-05-02T15:25:45.114Z</time></trkpt><trkpt lat="42.3593435" lon="13.3606264"><ele>627.0</ele><time>2026-05-02T15:25:46.114Z</time></trkpt><trkpt lat="42.3592952" lon="13.3608042"><ele>627.0</ele><time>2026-05-02T15:25:47.115Z</time></trkpt><trkpt lat="42.359247" lon="13.3609896"><ele>627.25</ele><time>2026-05-02T15:25:48.115Z</time></trkpt><trkpt lat="42.3591962" lon="13.3611832"><ele>627.5</ele><time>2026-05-02T15:25:49.114Z</time></trkpt><trkpt lat="42.3591449" lon="13.361364"><ele>627.75</ele><time>2026-05-02T15:25:50.115Z</time></trkpt><trkpt lat="42.3590963" lon="13.3615299"><ele>628.0</ele><time>2026-05-02T15:25:51.114Z</time></trkpt><trkpt lat="42.359048" lon="13.3616832"><ele>627.6</ele><time>2026-05-02T15:25:52.114Z</time></trkpt><trkpt lat="42.3590059" lon="13.3618185"><ele>627.1999999999999</ele><time>2026-05-02T15:25:53.115Z</time></trkpt><trkpt lat="42.3589641" lon="13.3619469"><ele>626.8</ele><time>2026-05-02T15:25:54.115Z</time></trkpt><trkpt lat="42.3589241" lon="13.3620777"><ele>626.4</ele><time>2026-05-02T15:25:55.114Z</time></trkpt><trkpt lat="42.3588858" lon="13.3622124"><ele>626.0</ele><time>2026-05-02T15:25:56.114Z</time></trkpt><trkpt lat="42.3588598" lon="13.36232"><ele>626.0</ele><time>2026-05-02T15:25:57.114Z</time></trkpt><trkpt lat="42.3588265" lon="13.3624284"><ele>626.0</ele><time>2026-05-02T15:25:58.114Z</time></trkpt><trkpt lat="42.3587945" lon="13.3625355"><ele>626.0</ele><time>2026-05-02T15:25:59.114Z</time></trkpt><trkpt lat="42.3587607" lon="13.3626397"><ele>626.0</ele><time>2026-05-02T15:26:00.115Z</time></trkpt><trkpt lat="42.3587266" lon="13.3627499"><ele>626.0</ele><time>2026-05-02T15:26:01.114Z</time></trkpt><trkpt lat="42.3586914" lon="13.362869"><ele>626.0</ele><time>2026-05-02T15:26:02.116Z</time></trkpt><trkpt lat="42.3586574" lon="13.3629916"><ele>626.4</ele><time>2026-05-02T15:26:03.115Z</time></trkpt><trkpt lat="42.3586252" lon="13.3631021"><ele>626.8</ele><time>2026-05-02T15:26:04.115Z</time></trkpt><trkpt lat="42.3585893" lon="13.3632218"><ele>627.1999999999999</ele><time>2026-05-02T15:26:05.114Z</time></trkpt><trkpt lat="42.3585486" lon="13.3633524"><ele>627.6</ele><time>2026-05-02T15:26:06.114Z</time></trkpt><trkpt lat="42.3585055" lon="13.3634921"><ele>628.0</ele><time>2026-05-02T15:26:07.115Z</time></trkpt><trkpt lat="42.3584645" lon="13.3636289"><ele>628.0</ele><time>2026-05-02T15:26:08.114Z</time></trkpt><trkpt lat="42.3584292" lon="13.3637639"><ele>628.0</ele><time>2026-05-02T15:26:09.114Z</time></trkpt><trkpt lat="42.3583992" lon="13.3638959"><ele>628.0</ele><time>2026-05-02T15:26:10.116Z</time></trkpt><trkpt lat="42.358371" lon="13.3640231"><ele>628.0</ele><time>2026-05-02T15:26:11.114Z</time></trkpt><trkpt lat="42.3583439" lon="13.3641381"><ele>628.0</ele><time>2026-05-02T15:26:12.114Z</time></trkpt><trkpt lat="42.3583169" lon="13.364253"><ele>628.1666666666667</ele><time>2026-05-02T15:26:13.114Z</time></trkpt><trkpt lat="42.3582905" lon="13.3643666"><ele>628.3333333333334</ele><time>2026-05-02T15:26:14.114Z</time></trkpt><trkpt lat="42.3582674" lon="13.3644841"><ele>628.5</ele><time>2026-05-02T15:26:15.116Z</time></trkpt><trkpt lat="42.3582505" lon="13.3646075"><ele>628.6666666666666</ele><time>2026-05-02T15:26:16.115Z</time></trkpt><trkpt lat="42.3582362" lon="13.3647307"><ele>628.8333333333333</ele><time>2026-05-02T15:26:17.114Z</time></trkpt><trkpt lat="42.3582241" lon="13.3648469"><ele>629.0</ele><time>2026-05-02T15:26:18.115Z</time></trkpt><trkpt lat="42.358215" lon="13.3649635"><ele>629.0</ele><time>2026-05-02T15:26:19.114Z</time></trkpt><trkpt lat="42.3582049" lon="13.365071"><ele>629.0</ele><time>2026-05-02T15:26:20.115Z</time></trkpt><trkpt lat="42.3581966" lon="13.3651731"><ele>629.0</ele><time>2026-05-02T15:26:21.114Z</time></trkpt><trkpt lat="42.358194" lon="13.3652738"><ele>629.0</ele><time>2026-05-02T15:26:22.115Z</time></trkpt><trkpt lat="42.358197" lon="13.3653855"><ele>629.0</ele><time>2026-05-02T15:26:23.115Z</time></trkpt><trkpt lat="42.3582002" lon="13.365497"><ele>629.0</ele><time>2026-05-02T15:26:24.115Z</time></trkpt><trkpt lat="42.3582099" lon="13.3656175"><ele>628.6</ele><time>2026-05-02T15:26:25.114Z</time></trkpt><trkpt lat="42.3582243" lon="13.365736"><ele>628.2</ele><time>2026-05-02T15:26:26.114Z</time></trkpt><trkpt lat="42.358247" lon="13.3658539"><ele>627.8000000000001</ele><time>2026-05-02T15:26:27.114Z</time></trkpt><trkpt lat="42.3582763" lon="13.365976"><ele>627.4</ele><time>2026-05-02T15:26:28.114Z</time></trkpt><trkpt lat="42.3583091" lon="13.3661057"><ele>627.0</ele><time>2026-05-02T15:26:29.114Z</time></trkpt><trkpt lat="42.3583523" lon="13.3662327"><ele>627.2</ele><time>2026-05-02T15:26:30.115Z</time></trkpt><trkpt lat="42.3583973" lon="13.366362"><ele>627.4000000000001</ele><time>2026-05-02T15:26:31.116Z</time></trkpt><trkpt lat="42.3584492" lon="13.3664837"><ele>627.5999999999999</ele><time>2026-05-02T15:26:32.115Z</time></trkpt><trkpt lat="42.3585086" lon="13.3666067"><ele>627.8</ele><time>2026-05-02T15:26:33.115Z</time></trkpt><trkpt lat="42.3585665" lon="13.3667277"><ele>628.0</ele><time>2026-05-02T15:26:34.114Z</time></trkpt><trkpt lat="42.3586228" lon="13.3668477"><ele>628.0</ele><time>2026-05-02T15:26:35.115Z</time></trkpt><trkpt lat="42.3586755" lon="13.3669635"><ele>628.0</ele><time>2026-05-02T15:26:36.115Z</time></trkpt><trkpt lat="42.3587251" lon="13.367074"><ele>628.0</ele><time>2026-05-02T15:26:37.114Z</time></trkpt><trkpt lat="42.3587696" lon="13.3671838"><ele>628.0</ele><time>2026-05-02T15:26:38.114Z</time></trkpt><trkpt lat="42.3588108" lon="13.3672895"><ele>628.0</ele><time>2026-05-02T15:26:39.115Z</time></trkpt><trkpt lat="42.3588501" lon="13.3673903"><ele>628.1666666666667</ele><time>2026-05-02T15:26:40.115Z</time></trkpt><trkpt lat="42.3588845" lon="13.3674814"><ele>628.3333333333334</ele><time>2026-05-02T15:26:41.115Z</time></trkpt><trkpt lat="42.3589455" lon="13.3676097"><ele>628.5</ele><time>2026-05-02T15:26:43.115Z</time></trkpt><trkpt lat="42.3589712" lon="13.3676916"><ele>628.6666666666666</ele><time>2026-05-02T15:26:44.115Z</time></trkpt><trkpt lat="42.3589883" lon="13.3677752"><ele>628.8333333333333</ele><time>2026-05-02T15:26:45.114Z</time></trkpt><trkpt lat="42.3590025" lon="13.3679384"><ele>629.0</ele><time>2026-05-02T15:26:47.114Z</time></trkpt><trkpt lat="42.3590272" lon="13.3680862"><ele>629.0</ele><time>2026-05-02T15:26:49.114Z</time></trkpt><trkpt lat="42.3590523" lon="13.3681731"><ele>629.0</ele><time>2026-05-02T15:26:50.114Z</time></trkpt><trkpt lat="42.3590792" lon="13.3682802"><ele>629.0</ele><time>2026-05-02T15:26:51.115Z</time></trkpt><trkpt lat="42.3591055" lon="13.3684053"><ele>629.0</ele><time>2026-05-02T15:26:52.114Z</time></trkpt><trkpt lat="42.3591315" lon="13.3685436"><ele>629.0</ele><time>2026-05-02T15:26:53.114Z</time></trkpt><trkpt lat="42.359157" lon="13.3686807"><ele>629.0</ele><time>2026-05-02T15:26:54.114Z</time></trkpt><trkpt lat="42.3591788" lon="13.3688022"><ele>629.0</ele><time>2026-05-02T15:26:55.115Z</time></trkpt><trkpt lat="42.3591982" lon="13.368909"><ele>629.0</ele><time>2026-05-02T15:26:56.114Z</time></trkpt><trkpt lat="42.3592136" lon="13.3690186"><ele>629.0</ele><time>2026-05-02T15:26:57.115Z</time></trkpt><trkpt lat="42.3592327" lon="13.3691331"><ele>629.0</ele><time>2026-05-02T15:26:58.115Z</time></trkpt><trkpt lat="42.3592505" lon="13.3692487"><ele>629.0</ele><time>2026-05-02T15:26:59.115Z</time></trkpt><trkpt lat="42.3592676" lon="13.3693644"><ele>629.2</ele><time>2026-05-02T15:27:00.115Z</time></trkpt><trkpt lat="42.359285" lon="13.3694848"><ele>629.4</ele><time>2026-05-02T15:27:01.115Z</time></trkpt><trkpt lat="42.3593027" lon="13.3696145"><ele>629.6</ele><time>2026-05-02T15:27:02.114Z</time></trkpt><trkpt lat="42.3593169" lon="13.3697489"><ele>629.8</ele><time>2026-05-02T15:27:03.115Z</time></trkpt><trkpt lat="42.3593338" lon="13.3698703"><ele>630.0</ele><time>2026-05-02T15:27:04.114Z</time></trkpt><trkpt lat="42.3593509" lon="13.3699838"><ele>630.4</ele><time>2026-05-02T15:27:05.115Z</time></trkpt><trkpt lat="42.3593704" lon="13.3700994"><ele>630.8</ele><time>2026-05-02T15:27:06.114Z</time></trkpt><trkpt lat="42.3593893" lon="13.3702231"><ele>631.2</ele><time>2026-05-02T15:27:07.115Z</time></trkpt><trkpt lat="42.3594076" lon="13.3703475"><ele>631.6</ele><time>2026-05-02T15:27:08.114Z</time></trkpt><trkpt lat="42.3594262" lon="13.370472"><ele>632.0</ele><time>2026-05-02T15:27:09.115Z</time></trkpt><trkpt lat="42.3594452" lon="13.3705971"><ele>633.0</ele><time>2026-05-02T15:27:10.115Z</time></trkpt><trkpt lat="42.359467" lon="13.3707252"><ele>634.0</ele><time>2026-05-02T15:27:11.114Z</time></trkpt><trkpt lat="42.3594866" lon="13.3708558"><ele>635.0</ele><time>2026-05-02T15:27:12.115Z</time></trkpt><trkpt lat="42.3595033" lon="13.3709947"><ele>636.0</ele><time>2026-05-02T15:27:13.115Z</time></trkpt><trkpt lat="42.3595241" lon="13.3711371"><ele>637.0</ele><time>2026-05-02T15:27:14.115Z</time></trkpt><trkpt lat="42.3595446" lon="13.371282"><ele>637.2</ele><time>2026-05-02T15:27:15.114Z</time></trkpt><trkpt lat="42.3595661" lon="13.3714228"><ele>637.4000000000001</ele><time>2026-05-02T15:27:16.114Z</time></trkpt><trkpt lat="42.3595896" lon="13.3715655"><ele>637.5999999999999</ele><time>2026-05-02T15:27:17.115Z</time></trkpt><trkpt lat="42.3596134" lon="13.3717093"><ele>637.8</ele><time>2026-05-02T15:27:18.115Z</time></trkpt><trkpt lat="42.359635" lon="13.371844"><ele>638.0</ele><time>2026-05-02T15:27:19.115Z</time></trkpt><trkpt lat="42.3596546" lon="13.3719727"><ele>638.0</ele><time>2026-05-02T15:27:20.114Z</time></trkpt><trkpt lat="42.3596721" lon="13.3720907"><ele>638.0</ele><time>2026-05-02T15:27:21.115Z</time></trkpt><trkpt lat="42.3596882" lon="13.3722031"><ele>638.0</ele><time>2026-05-02T15:27:22.115Z</time></trkpt><trkpt lat="42.3597059" lon="13.3723245"><ele>638.0</ele><time>2026-05-02T15:27:23.115Z</time></trkpt><trkpt lat="42.3597243" lon="13.3724517"><ele>638.0</ele><time>2026-05-02T15:27:24.114Z</time></trkpt><trkpt lat="42.3597438" lon="13.3725848"><ele>638.5</ele><time>2026-05-02T15:27:25.115Z</time></trkpt><trkpt lat="42.3597636" lon="13.3727074"><ele>639.0</ele><time>2026-05-02T15:27:26.114Z</time></trkpt><trkpt lat="42.3597839" lon="13.3728174"><ele>639.5</ele><time>2026-05-02T15:27:27.114Z</time></trkpt><trkpt lat="42.359799" lon="13.3729253"><ele>640.0</ele><time>2026-05-02T15:27:28.114Z</time></trkpt><trkpt lat="42.3598129" lon="13.3730289"><ele>640.5</ele><time>2026-05-02T15:27:29.114Z</time></trkpt><trkpt lat="42.3598282" lon="13.3731395"><ele>641.0</ele><time>2026-05-02T15:27:30.116Z</time></trkpt><trkpt lat="42.3598444" lon="13.3732505"><ele>641.5999999999999</ele><time>2026-05-02T15:27:31.114Z</time></trkpt><trkpt lat="42.3598584" lon="13.3733503"><ele>642.2</ele><time>2026-05-02T15:27:32.114Z</time></trkpt><trkpt lat="42.3598741" lon="13.3734497"><ele>642.8</ele><time>2026-05-02T15:27:33.116Z</time></trkpt><trkpt lat="42.3598995" lon="13.3735941"><ele>643.4000000000001</ele><time>2026-05-02T15:27:35.114Z</time></trkpt><trkpt lat="42.3599178" lon="13.3737221"><ele>644.0</ele><time>2026-05-02T15:27:37.115Z</time></trkpt><trkpt lat="42.3599416" lon="13.3738961"><ele>644.2</ele><time>2026-05-02T15:27:39.115Z</time></trkpt><trkpt lat="42.3599585" lon="13.3740083"><ele>644.4000000000001</ele><time>2026-05-02T15:27:40.114Z</time></trkpt><trkpt lat="42.3599764" lon="13.3741401"><ele>644.6</ele><time>2026-05-02T15:27:41.114Z</time></trkpt><trkpt lat="42.3599958" lon="13.3742801"><ele>644.8</ele><time>2026-05-02T15:27:42.115Z</time></trkpt><trkpt lat="42.3600152" lon="13.3744151"><ele>645.0</ele><time>2026-05-02T15:27:43.116Z</time></trkpt><trkpt lat="42.3600324" lon="13.3745493"><ele>645.0</ele><time>2026-05-02T15:27:44.114Z</time></trkpt><trkpt lat="42.3600526" lon="13.3746754"><ele>645.0</ele><time>2026-05-02T15:27:45.114Z</time></trkpt><trkpt lat="42.3600679" lon="13.3747884"><ele>645.0</ele><time>2026-05-02T15:27:46.115Z</time></trkpt><trkpt lat="42.3600817" lon="13.3748937"><ele>645.0</ele><time>2026-05-02T15:27:47.115Z</time></trkpt><trkpt lat="42.3600955" lon="13.3749892"><ele>645.0</ele><time>2026-05-02T15:27:48.115Z</time></trkpt><trkpt lat="42.3601095" lon="13.375074"><ele>645.0</ele><time>2026-05-02T15:27:49.115Z</time></trkpt><trkpt lat="42.3601279" lon="13.3752309"><ele>645.2</ele><time>2026-05-02T15:27:51.114Z</time></trkpt><trkpt lat="42.3601481" lon="13.3753818"><ele>645.4</ele><time>2026-05-02T15:27:53.114Z</time></trkpt><trkpt lat="42.3601623" lon="13.3754763"><ele>645.5999999999999</ele><time>2026-05-02T15:27:54.116Z</time></trkpt><trkpt lat="42.3601794" lon="13.3755842"><ele>645.8</ele><time>2026-05-02T15:27:55.115Z</time></trkpt><trkpt lat="42.3601967" lon="13.3757049"><ele>646.0</ele><time>2026-05-02T15:27:56.114Z</time></trkpt><trkpt lat="42.3602136" lon="13.3758289"><ele>646.4</ele><time>2026-05-02T15:27:57.114Z</time></trkpt><trkpt lat="42.3602274" lon="13.3759479"><ele>646.8</ele><time>2026-05-02T15:27:58.115Z</time></trkpt><trkpt lat="42.3602415" lon="13.3760644"><ele>647.1999999999999</ele><time>2026-05-02T15:27:59.114Z</time></trkpt><trkpt lat="42.3602621" lon="13.3761877"><ele>647.5999999999999</ele><time>2026-05-02T15:28:00.115Z</time></trkpt><trkpt lat="42.3602837" lon="13.3763135"><ele>648.0</ele><time>2026-05-02T15:28:01.115Z</time></trkpt><trkpt lat="42.3603034" lon="13.3764414"><ele>648.3333333333334</ele><time>2026-05-02T15:28:02.115Z</time></trkpt><trkpt lat="42.3603197" lon="13.3765739"><ele>648.6666666666666</ele><time>2026-05-02T15:28:03.115Z</time></trkpt><trkpt lat="42.3603304" lon="13.3766993"><ele>649.0</ele><time>2026-05-02T15:28:04.115Z</time></trkpt><trkpt lat="42.3603376" lon="13.3768161"><ele>649.3333333333333</ele><time>2026-05-02T15:28:05.114Z</time></trkpt><trkpt lat="42.3603487" lon="13.3769241"><ele>649.6666666666666</ele><time>2026-05-02T15:28:06.115Z</time></trkpt><trkpt lat="42.3603636" lon="13.3770237"><ele>650.0</ele><time>2026-05-02T15:28:07.116Z</time></trkpt><trkpt lat="42.3603749" lon="13.3771237"><ele>650.0</ele><time>2026-05-02T15:28:08.115Z</time></trkpt><trkpt lat="42.3603836" lon="13.3772199"><ele>650.0</ele><time>2026-05-02T15:28:09.115Z</time></trkpt><trkpt lat="42.3603893" lon="13.3773146"><ele>650.0</ele><time>2026-05-02T15:28:10.114Z</time></trkpt><trkpt lat="42.360392" lon="13.3774047"><ele>650.0</ele><time>2026-05-02T15:28:11.115Z</time></trkpt><trkpt lat="42.3603938" lon="13.3775632"><ele>650.0</ele><time>2026-05-02T15:28:13.114Z</time></trkpt><trkpt lat="42.3603884" lon="13.3777073"><ele>650.0</ele><time>2026-05-02T15:28:15.116Z</time></trkpt><trkpt lat="42.3603877" lon="13.3778363"><ele>650.0</ele><time>2026-05-02T15:28:17.115Z</time></trkpt><trkpt lat="42.3603822" lon="13.3779486"><ele>650.0</ele><time>2026-05-02T15:28:19.114Z</time></trkpt><trkpt lat="42.3603774" lon="13.378048"><ele>650.0</ele><time>2026-05-02T15:28:21.114Z</time></trkpt><trkpt lat="42.3603761" lon="13.3781472"><ele>650.0</ele><time>2026-05-02T15:28:23.115Z</time></trkpt><trkpt lat="42.3603612" lon="13.3782871"><ele>650.0</ele><time>2026-05-02T15:28:25.114Z</time></trkpt><trkpt lat="42.360331" lon="13.3784594"><ele>650.1666666666666</ele><time>2026-05-02T15:28:27.115Z</time></trkpt><trkpt lat="42.360312" lon="13.3785586"><ele>650.3333333333333</ele><time>2026-05-02T15:28:28.114Z</time></trkpt><trkpt lat="42.3602879" lon="13.3786662"><ele>650.5</ele><time>2026-05-02T15:28:29.114Z</time></trkpt><trkpt lat="42.3602624" lon="13.3787792"><ele>650.6666666666666</ele><time>2026-05-02T15:28:30.115Z</time></trkpt><trkpt lat="42.3602312" lon="13.3788984"><ele>650.8333333333334</ele><time>2026-05-02T15:28:31.114Z</time></trkpt><trkpt lat="42.3601967" lon="13.3790155"><ele>651.0</ele><time>2026-05-02T15:28:32.114Z</time></trkpt><trkpt lat="42.3601611" lon="13.3791215"><ele>651.1666666666666</ele><time>2026-05-02T15:28:33.115Z</time></trkpt><trkpt lat="42.3601281" lon="13.3792201"><ele>651.3333333333334</ele><time>2026-05-02T15:28:34.115Z</time></trkpt><trkpt lat="42.3600993" lon="13.3792972"><ele>651.5</ele><time>2026-05-02T15:28:35.115Z</time></trkpt><trkpt lat="42.3600473" lon="13.3794151"><ele>651.6666666666667</ele><time>2026-05-02T15:28:37.114Z</time></trkpt><trkpt lat="42.3600061" lon="13.3795041"><ele>651.8333333333334</ele><time>2026-05-02T15:28:39.114Z</time></trkpt><trkpt lat="42.3599447" lon="13.3795666"><ele>652.0</ele><time>2026-05-02T15:28:41.115Z</time></trkpt><trkpt lat="42.3598754" lon="13.3796565"><ele>651.8</ele><time>2026-05-02T15:28:43.114Z</time></trkpt><trkpt lat="42.3598447" lon="13.3797925"><ele>651.6</ele><time>2026-05-02T15:28:45.114Z</time></trkpt><trkpt lat="42.359847" lon="13.3798816"><ele>651.4</ele><time>2026-05-02T15:28:46.114Z</time></trkpt><trkpt lat="42.3598505" lon="13.3799678"><ele>651.1999999999999</ele><time>2026-05-02T15:28:47.115Z</time></trkpt><trkpt lat="42.3598322" lon="13.3801176"><ele>651.0</ele><time>2026-05-02T15:28:49.115Z</time></trkpt><trkpt lat="42.3597774" lon="13.3802903"><ele>651.0</ele><time>2026-05-02T15:28:51.116Z</time></trkpt><trkpt lat="42.3597373" lon="13.3803929"><ele>651.0</ele><time>2026-05-02T15:28:52.115Z</time></trkpt><trkpt lat="42.3596886" lon="13.3805068"><ele>651.0</ele><time>2026-05-02T15:28:53.115Z</time></trkpt><trkpt lat="42.3596336" lon="13.3806273"><ele>651.0</ele><time>2026-05-02T15:28:54.115Z</time></trkpt><trkpt lat="42.3595764" lon="13.3807553"><ele>651.0</ele><time>2026-05-02T15:28:55.115Z</time></trkpt><trkpt lat="42.3595178" lon="13.3808876"><ele>650.8</ele><time>2026-05-02T15:28:56.115Z</time></trkpt><trkpt lat="42.3594622" lon="13.3810133"><ele>650.5999999999999</ele><time>2026-05-02T15:28:57.115Z</time></trkpt><trkpt lat="42.3594107" lon="13.3811337"><ele>650.4</ele><time>2026-05-02T15:28:58.115Z</time></trkpt><trkpt lat="42.3593611" lon="13.3812555"><ele>650.2</ele><time>2026-05-02T15:28:59.115Z</time></trkpt><trkpt lat="42.3593103" lon="13.381377"><ele>650.0</ele><time>2026-05-02T15:29:00.115Z</time></trkpt><trkpt lat="42.3592594" lon="13.3814917"><ele>649.8</ele><time>2026-05-02T15:29:01.114Z</time></trkpt><trkpt lat="42.3592133" lon="13.3816023"><ele>649.6</ele><time>2026-05-02T15:29:02.114Z</time></trkpt><trkpt lat="42.3591672" lon="13.3817129"><ele>649.4000000000001</ele><time>2026-05-02T15:29:03.116Z</time></trkpt><trkpt lat="42.3591158" lon="13.3818392"><ele>649.2</ele><time>2026-05-02T15:29:04.114Z</time></trkpt><trkpt lat="42.3590563" lon="13.381968"><ele>649.0</ele><time>2026-05-02T15:29:05.116Z</time></trkpt><trkpt lat="42.3589932" lon="13.3820978"><ele>649.5</ele><time>2026-05-02T15:29:06.115Z</time></trkpt><trkpt lat="42.3589288" lon="13.382232"><ele>650.0</ele><time>2026-05-02T15:29:07.114Z</time></trkpt><trkpt lat="42.3588606" lon="13.382374"><ele>650.5</ele><time>2026-05-02T15:29:08.115Z</time></trkpt><trkpt lat="42.3587878" lon="13.3825241"><ele>651.0</ele><time>2026-05-02T15:29:09.114Z</time></trkpt><trkpt lat="42.3587148" lon="13.3826823"><ele>651.0</ele><time>2026-05-02T15:29:10.115Z</time></trkpt><trkpt lat="42.3586398" lon="13.3828437"><ele>651.0</ele><time>2026-05-02T15:29:11.115Z</time></trkpt><trkpt lat="42.3585649" lon="13.3830065"><ele>651.0</ele><time>2026-05-02T15:29:12.115Z</time></trkpt><trkpt lat="42.3584904" lon="13.3831743"><ele>651.0</ele><time>2026-05-02T15:29:13.115Z</time></trkpt><trkpt lat="42.3584139" lon="13.3833449"><ele>650.75</ele><time>2026-05-02T15:29:14.115Z</time></trkpt><trkpt lat="42.3583405" lon="13.3835041"><ele>650.5</ele><time>2026-05-02T15:29:15.114Z</time></trkpt><trkpt lat="42.3582732" lon="13.3836467"><ele>650.25</ele><time>2026-05-02T15:29:16.115Z</time></trkpt><trkpt lat="42.3582056" lon="13.3837925"><ele>650.0</ele><time>2026-05-02T15:29:17.114Z</time></trkpt><trkpt lat="42.3581372" lon="13.3839409"><ele>650.0</ele><time>2026-05-02T15:29:18.114Z</time></trkpt><trkpt lat="42.3580703" lon="13.3840883"><ele>650.0</ele><time>2026-05-02T15:29:19.115Z</time></trkpt><trkpt lat="42.3580113" lon="13.384226"><ele>650.0</ele><time>2026-05-02T15:29:20.114Z</time></trkpt><trkpt lat="42.3579586" lon="13.3843642"><ele>650.0</ele><time>2026-05-02T15:29:21.115Z</time></trkpt><trkpt lat="42.3579107" lon="13.3845157"><ele>649.8</ele><time>2026-05-02T15:29:22.114Z</time></trkpt><trkpt lat="42.357867" lon="13.3846674"><ele>649.6</ele><time>2026-05-02T15:29:23.116Z</time></trkpt><trkpt lat="42.3578276" lon="13.3848062"><ele>649.4000000000001</ele><time>2026-05-02T15:29:24.115Z</time></trkpt><trkpt lat="42.3577896" lon="13.384927"><ele>649.2</ele><time>2026-05-02T15:29:25.114Z</time></trkpt><trkpt lat="42.3577484" lon="13.3850374"><ele>649.0</ele><time>2026-05-02T15:29:26.116Z</time></trkpt><trkpt lat="42.3577" lon="13.3851477"><ele>649.0</ele><time>2026-05-02T15:29:27.115Z</time></trkpt><trkpt lat="42.3576426" lon="13.3852449"><ele>649.0</ele><time>2026-05-02T15:29:28.115Z</time></trkpt><trkpt lat="42.3575839" lon="13.3853373"><ele>649.0</ele><time>2026-05-02T15:29:29.116Z</time></trkpt><trkpt lat="42.3575223" lon="13.3854353"><ele>649.0</ele><time>2026-05-02T15:29:30.115Z</time></trkpt><trkpt lat="42.3574583" lon="13.3855439"><ele>649.0</ele><time>2026-05-02T15:29:31.114Z</time></trkpt><trkpt lat="42.3573891" lon="13.3856593"><ele>649.0</ele><time>2026-05-02T15:29:32.115Z</time></trkpt><trkpt lat="42.357313" lon="13.3857793"><ele>649.0</ele><time>2026-05-02T15:29:33.114Z</time></trkpt><trkpt lat="42.3572301" lon="13.3858965"><ele>649.0</ele><time>2026-05-02T15:29:34.114Z</time></trkpt><trkpt lat="42.3571393" lon="13.3860036"><ele>649.0</ele><time>2026-05-02T15:29:35.114Z</time></trkpt><trkpt lat="42.3570492" lon="13.3861081"><ele>648.8000000000001</ele><time>2026-05-02T15:29:36.116Z</time></trkpt><trkpt lat="42.3569654" lon="13.3862166"><ele>648.6</ele><time>2026-05-02T15:29:37.114Z</time></trkpt><trkpt lat="42.3568922" lon="13.3863285"><ele>648.4</ele><time>2026-05-02T15:29:38.115Z</time></trkpt><trkpt lat="42.356827" lon="13.3864456"><ele>648.2</ele><time>2026-05-02T15:29:39.114Z</time></trkpt><trkpt lat="42.3567679" lon="13.3865575"><ele>648.0</ele><time>2026-05-02T15:29:40.115Z</time></trkpt><trkpt lat="42.356709" lon="13.3866592"><ele>648.0</ele><time>2026-05-02T15:29:41.115Z</time></trkpt><trkpt lat="42.3566532" lon="13.3867545"><ele>648.0</ele><time>2026-05-02T15:29:42.114Z</time></trkpt><trkpt lat="42.3566033" lon="13.3868453"><ele>648.0</ele><time>2026-05-02T15:29:43.114Z</time></trkpt><trkpt lat="42.3565558" lon="13.3869366"><ele>648.0</ele><time>2026-05-02T15:29:44.116Z</time></trkpt><trkpt lat="42.3565072" lon="13.3870339"><ele>648.0</ele><time>2026-05-02T15:29:45.114Z</time></trkpt><trkpt lat="42.3564528" lon="13.387136"><ele>648.0</ele><time>2026-05-02T15:29:46.114Z</time></trkpt><trkpt lat="42.3563993" lon="13.3872378"><ele>647.6666666666666</ele><time>2026-05-02T15:29:47.114Z</time></trkpt><trkpt lat="42.3563454" lon="13.3873291"><ele>647.3333333333334</ele><time>2026-05-02T15:29:48.114Z</time></trkpt><trkpt lat="42.3562932" lon="13.3874198"><ele>647.0</ele><time>2026-05-02T15:29:49.115Z</time></trkpt><trkpt lat="42.3562427" lon="13.3875106"><ele>646.6666666666667</ele><time>2026-05-02T15:29:50.115Z</time></trkpt><trkpt lat="42.356192" lon="13.3875984"><ele>646.3333333333334</ele><time>2026-05-02T15:29:51.115Z</time></trkpt><trkpt lat="42.3561378" lon="13.3876913"><ele>646.0</ele><time>2026-05-02T15:29:52.115Z</time></trkpt><trkpt lat="42.3560712" lon="13.3877924"><ele>646.0</ele><time>2026-05-02T15:29:53.115Z</time></trkpt><trkpt lat="42.3560019" lon="13.387892"><ele>646.0</ele><time>2026-05-02T15:29:54.114Z</time></trkpt><trkpt lat="42.3559329" lon="13.3879962"><ele>646.0</ele><time>2026-05-02T15:29:55.114Z</time></trkpt><trkpt lat="42.3558648" lon="13.3880808"><ele>646.0</ele><time>2026-05-02T15:29:56.115Z</time></trkpt><trkpt lat="42.3557971" lon="13.3881446"><ele>646.0</ele><time>2026-05-02T15:29:57.114Z</time></trkpt><trkpt lat="42.3557358" lon="13.3881894"><ele>646.0</ele><time>2026-05-02T15:29:58.115Z</time></trkpt><trkpt lat="42.3556701" lon="13.3882262"><ele>647.0</ele><time>2026-05-02T15:29:59.114Z</time></trkpt><trkpt lat="42.3556034" lon="13.3882613"><ele>648.0</ele><time>2026-05-02T15:30:00.113Z</time></trkpt><trkpt lat="42.3555461" lon="13.3883047"><ele>649.0</ele><time>2026-05-02T15:30:01.114Z</time></trkpt><trkpt lat="42.3554939" lon="13.3884415"><ele>650.0</ele><time>2026-05-02T15:30:03.113Z</time></trkpt><trkpt lat="42.3555264" lon="13.3885841"><ele>651.0</ele><time>2026-05-02T15:30:05.113Z</time></trkpt><trkpt lat="42.3556243" lon="13.3887075"><ele>651.1999999999999</ele><time>2026-05-02T15:30:07.113Z</time></trkpt><trkpt lat="42.3556825" lon="13.3887756"><ele>651.4</ele><time>2026-05-02T15:30:08.114Z</time></trkpt><trkpt lat="42.355743" lon="13.3888546"><ele>651.6</ele><time>2026-05-02T15:30:09.115Z</time></trkpt><trkpt lat="42.3558028" lon="13.3889457"><ele>651.8</ele><time>2026-05-02T15:30:10.114Z</time></trkpt><trkpt lat="42.3558714" lon="13.3890525"><ele>652.0</ele><time>2026-05-02T15:30:11.114Z</time></trkpt><trkpt lat="42.3559355" lon="13.3891595"><ele>652.8333333333334</ele><time>2026-05-02T15:30:12.114Z</time></trkpt><trkpt lat="42.3559953" lon="13.3892568"><ele>653.6666666666667</ele><time>2026-05-02T15:30:13.114Z</time></trkpt><trkpt lat="42.3560479" lon="13.3893452"><ele>654.5</ele><time>2026-05-02T15:30:14.115Z</time></trkpt><trkpt lat="42.3560951" lon="13.3894331"><ele>655.3333333333334</ele><time>2026-05-02T15:30:15.113Z</time></trkpt><trkpt lat="42.3561396" lon="13.389528"><ele>656.1666666666666</ele><time>2026-05-02T15:30:16.115Z</time></trkpt><trkpt lat="42.3561855" lon="13.3896307"><ele>657.0</ele><time>2026-05-02T15:30:17.113Z</time></trkpt><trkpt lat="42.3562372" lon="13.3897301"><ele>657.6</ele><time>2026-05-02T15:30:18.113Z</time></trkpt><trkpt lat="42.3562921" lon="13.3898319"><ele>658.2</ele><time>2026-05-02T15:30:19.115Z</time></trkpt><trkpt lat="42.3563521" lon="13.3899366"><ele>658.8</ele><time>2026-05-02T15:30:20.114Z</time></trkpt><trkpt lat="42.3564156" lon="13.3900336"><ele>659.4</ele><time>2026-05-02T15:30:21.113Z</time></trkpt><trkpt lat="42.3564784" lon="13.3901211"><ele>660.0</ele><time>2026-05-02T15:30:22.115Z</time></trkpt><trkpt lat="42.3565375" lon="13.390193"><ele>659.0</ele><time>2026-05-02T15:30:23.113Z</time></trkpt><trkpt lat="42.3565949" lon="13.3902603"><ele>658.0</ele><time>2026-05-02T15:30:24.114Z</time></trkpt><trkpt lat="42.3566475" lon="13.3903324"><ele>657.0</ele><time>2026-05-02T15:30:25.113Z</time></trkpt><trkpt lat="42.3566963" lon="13.3904169"><ele>656.0</ele><time>2026-05-02T15:30:26.114Z</time></trkpt><trkpt lat="42.356742" lon="13.3905109"><ele>655.0</ele><time>2026-05-02T15:30:27.114Z</time></trkpt><trkpt lat="42.3567746" lon="13.3906077"><ele>654.0</ele><time>2026-05-02T15:30:28.113Z</time></trkpt><trkpt lat="42.3567949" lon="13.3907094"><ele>654.0</ele><time>2026-05-02T15:30:29.115Z</time></trkpt><trkpt lat="42.3567884" lon="13.3908236"><ele>654.0</ele><time>2026-05-02T15:30:30.114Z</time></trkpt><trkpt lat="42.3567666" lon="13.390945"><ele>654.0</ele><time>2026-05-02T15:30:31.113Z</time></trkpt><trkpt lat="42.3567359" lon="13.3910842"><ele>654.0</ele><time>2026-05-02T15:30:32.114Z</time></trkpt><trkpt lat="42.356707" lon="13.3912388"><ele>654.0</ele><time>2026-05-02T15:30:33.113Z</time></trkpt><trkpt lat="42.3566843" lon="13.3914131"><ele>655.25</ele><time>2026-05-02T15:30:34.114Z</time></trkpt><trkpt lat="42.3566675" lon="13.3915939"><ele>656.5</ele><time>2026-05-02T15:30:35.113Z</time></trkpt><trkpt lat="42.3566613" lon="13.3917691"><ele>657.75</ele><time>2026-05-02T15:30:36.114Z</time></trkpt><trkpt lat="42.3566605" lon="13.3919393"><ele>659.0</ele><time>2026-05-02T15:30:37.113Z</time></trkpt><trkpt lat="42.3566574" lon="13.3920914"><ele>660.0</ele><time>2026-05-02T15:30:38.114Z</time></trkpt><trkpt lat="42.3566539" lon="13.3922305"><ele>661.0</ele><time>2026-05-02T15:30:39.113Z</time></trkpt><trkpt lat="42.3566507" lon="13.3923589"><ele>662.0</ele><time>2026-05-02T15:30:40.113Z</time></trkpt><trkpt lat="42.3566505" lon="13.392479"><ele>663.0</ele><time>2026-05-02T15:30:41.114Z</time></trkpt><trkpt lat="42.3566532" lon="13.3925897"><ele>664.0</ele><time>2026-05-02T15:30:42.113Z</time></trkpt><trkpt lat="42.3566565" lon="13.3926928"><ele>665.0</ele><time>2026-05-02T15:30:43.113Z</time></trkpt><trkpt lat="42.3566522" lon="13.3927915"><ele>665.0</ele><time>2026-05-02T15:30:44.114Z</time></trkpt><trkpt lat="42.3566482" lon="13.3928878"><ele>665.0</ele><time>2026-05-02T15:30:45.113Z</time></trkpt><trkpt lat="42.3566467" lon="13.3929734"><ele>665.0</ele><time>2026-05-02T15:30:46.113Z</time></trkpt><trkpt lat="42.3566431" lon="13.3931522"><ele>665.0</ele><time>2026-05-02T15:30:48.114Z</time></trkpt><trkpt lat="42.3566402" lon="13.3932552"><ele>665.0</ele><time>2026-05-02T15:30:49.114Z</time></trkpt><trkpt lat="42.3566363" lon="13.3933669"><ele>665.0</ele><time>2026-05-02T15:30:50.113Z</time></trkpt><trkpt lat="42.3566337" lon="13.3934742"><ele>665.8</ele><time>2026-05-02T15:30:51.115Z</time></trkpt><trkpt lat="42.3566372" lon="13.3935959"><ele>666.6</ele><time>2026-05-02T15:30:52.113Z</time></trkpt><trkpt lat="42.3566389" lon="13.3937365"><ele>667.4000000000001</ele><time>2026-05-02T15:30:53.115Z</time></trkpt><trkpt lat="42.3566376" lon="13.3938924"><ele>668.2</ele><time>2026-05-02T15:30:54.114Z</time></trkpt><trkpt lat="42.3566317" lon="13.3940517"><ele>669.0</ele><time>2026-05-02T15:30:55.115Z</time></trkpt><trkpt lat="42.3566246" lon="13.3942031"><ele>670.0</ele><time>2026-05-02T15:30:56.113Z</time></trkpt><trkpt lat="42.3566244" lon="13.3943382"><ele>671.0</ele><time>2026-05-02T15:30:57.114Z</time></trkpt><trkpt lat="42.3566227" lon="13.3944614"><ele>672.0</ele><time>2026-05-02T15:30:58.113Z</time></trkpt><trkpt lat="42.3566212" lon="13.3945847"><ele>673.0</ele><time>2026-05-02T15:30:59.114Z</time></trkpt><trkpt lat="42.356618" lon="13.3946987"><ele>674.0</ele><time>2026-05-02T15:31:00.115Z</time></trkpt><trkpt lat="42.3566165" lon="13.394808"><ele>675.0</ele><time>2026-05-02T15:31:01.115Z</time></trkpt><trkpt lat="42.3566121" lon="13.3949187"><ele>675.1666666666666</ele><time>2026-05-02T15:31:02.114Z</time></trkpt><trkpt lat="42.3566114" lon="13.3950287"><ele>675.3333333333334</ele><time>2026-05-02T15:31:03.115Z</time></trkpt><trkpt lat="42.3566079" lon="13.395145"><ele>675.5</ele><time>2026-05-02T15:31:04.113Z</time></trkpt><trkpt lat="42.3566081" lon="13.3952607"><ele>675.6666666666667</ele><time>2026-05-02T15:31:05.114Z</time></trkpt><trkpt lat="42.356606" lon="13.3953641"><ele>675.8333333333334</ele><time>2026-05-02T15:31:06.113Z</time></trkpt><trkpt lat="42.3566074" lon="13.3954646"><ele>676.0</ele><time>2026-05-02T15:31:07.114Z</time></trkpt><trkpt lat="42.3566077" lon="13.3955841"><ele>675.5999999999999</ele><time>2026-05-02T15:31:08.114Z</time></trkpt><trkpt lat="42.3566066" lon="13.3957209"><ele>675.2</ele><time>2026-05-02T15:31:09.113Z</time></trkpt><trkpt lat="42.3566031" lon="13.3958606"><ele>674.8</ele><time>2026-05-02T15:31:10.114Z</time></trkpt><trkpt lat="42.3565981" lon="13.396005"><ele>674.4000000000001</ele><time>2026-05-02T15:31:11.114Z</time></trkpt><trkpt lat="42.3565931" lon="13.3961547"><ele>674.0</ele><time>2026-05-02T15:31:12.114Z</time></trkpt><trkpt lat="42.3565832" lon="13.3963042"><ele>675.0</ele><time>2026-05-02T15:31:13.114Z</time></trkpt><trkpt lat="42.3565722" lon="13.396461"><ele>676.0</ele><time>2026-05-02T15:31:14.113Z</time></trkpt><trkpt lat="42.3565603" lon="13.396609"><ele>677.0</ele><time>2026-05-02T15:31:15.113Z</time></trkpt><trkpt lat="42.3565459" lon="13.3967531"><ele>678.0</ele><time>2026-05-02T15:31:16.114Z</time></trkpt><trkpt lat="42.3565335" lon="13.3968966"><ele>679.0</ele><time>2026-05-02T15:31:17.114Z</time></trkpt><trkpt lat="42.3565219" lon="13.3970461"><ele>680.8000000000001</ele><time>2026-05-02T15:31:18.114Z</time></trkpt><trkpt lat="42.3565153" lon="13.3971984"><ele>682.6</ele><time>2026-05-02T15:31:19.113Z</time></trkpt><trkpt lat="42.3565188" lon="13.3973568"><ele>684.4</ele><time>2026-05-02T15:31:20.114Z</time></trkpt><trkpt lat="42.3565295" lon="13.3975103"><ele>686.2</ele><time>2026-05-02T15:31:21.114Z</time></trkpt><trkpt lat="42.3565433" lon="13.3976483"><ele>688.0</ele><time>2026-05-02T15:31:22.113Z</time></trkpt><trkpt lat="42.3565676" lon="13.3977786"><ele>688.0</ele><time>2026-05-02T15:31:23.113Z</time></trkpt><trkpt lat="42.3566024" lon="13.3978932"><ele>688.0</ele><time>2026-05-02T15:31:24.115Z</time></trkpt><trkpt lat="42.3566471" lon="13.3979983"><ele>688.0</ele><time>2026-05-02T15:31:25.113Z</time></trkpt><trkpt lat="42.3566882" lon="13.3980936"><ele>688.0</ele><time>2026-05-02T15:31:26.114Z</time></trkpt><trkpt lat="42.356726" lon="13.3981801"><ele>688.0</ele><time>2026-05-02T15:31:27.113Z</time></trkpt><trkpt lat="42.3567633" lon="13.3982644"><ele>688.0</ele><time>2026-05-02T15:31:28.114Z</time></trkpt><trkpt lat="42.3568039" lon="13.398355"><ele>688.2</ele><time>2026-05-02T15:31:29.114Z</time></trkpt><trkpt lat="42.3568569" lon="13.398463"><ele>688.4</ele><time>2026-05-02T15:31:30.113Z</time></trkpt><trkpt lat="42.3569167" lon="13.3985899"><ele>688.6</ele><time>2026-05-02T15:31:31.113Z</time></trkpt><trkpt lat="42.3569698" lon="13.398732"><ele>688.8000000000001</ele><time>2026-05-02T15:31:32.113Z</time></trkpt><trkpt lat="42.3570074" lon="13.3988772"><ele>689.0</ele><time>2026-05-02T15:31:33.113Z</time></trkpt><trkpt lat="42.3570328" lon="13.3990194"><ele>690.0</ele><time>2026-05-02T15:31:34.115Z</time></trkpt><trkpt lat="42.3570452" lon="13.3991696"><ele>691.0</ele><time>2026-05-02T15:31:35.113Z</time></trkpt><trkpt lat="42.3570459" lon="13.3993167"><ele>692.0</ele><time>2026-05-02T15:31:36.115Z</time></trkpt><trkpt lat="42.3570478" lon="13.3994535"><ele>693.0</ele><time>2026-05-02T15:31:37.115Z</time></trkpt><trkpt lat="42.3570474" lon="13.3995754"><ele>694.0</ele><time>2026-05-02T15:31:38.114Z</time></trkpt><trkpt lat="42.3570454" lon="13.3996879"><ele>694.8571428571429</ele><time>2026-05-02T15:31:39.113Z</time></trkpt><trkpt lat="42.3570437" lon="13.3997991"><ele>695.7142857142857</ele><time>2026-05-02T15:31:40.114Z</time></trkpt><trkpt lat="42.3570449" lon="13.3999016"><ele>696.5714285714286</ele><time>2026-05-02T15:31:41.114Z</time></trkpt><trkpt lat="42.3570466" lon="13.3999908"><ele>697.4285714285714</ele><time>2026-05-02T15:31:42.113Z</time></trkpt><trkpt lat="42.3570474" lon="13.4000854"><ele>698.2857142857142</ele><time>2026-05-02T15:31:43.113Z</time></trkpt><trkpt lat="42.3570507" lon="13.4001892"><ele>699.1428571428571</ele><time>2026-05-02T15:31:44.114Z</time></trkpt><trkpt lat="42.3570528" lon="13.4002863"><ele>700.0</ele><time>2026-05-02T15:31:45.113Z</time></trkpt><trkpt lat="42.3570538" lon="13.4003943"><ele>700.8</ele><time>2026-05-02T15:31:46.114Z</time></trkpt><trkpt lat="42.3570591" lon="13.4005273"><ele>701.6</ele><time>2026-05-02T15:31:47.115Z</time></trkpt><trkpt lat="42.3570607" lon="13.4006775"><ele>702.4000000000001</ele><time>2026-05-02T15:31:48.114Z</time></trkpt><trkpt lat="42.3570564" lon="13.4008433"><ele>703.2</ele><time>2026-05-02T15:31:49.113Z</time></trkpt><trkpt lat="42.3570524" lon="13.4009958"><ele>704.0</ele><time>2026-05-02T15:31:50.113Z</time></trkpt><trkpt lat="42.3570549" lon="13.4011206"><ele>704.0</ele><time>2026-05-02T15:31:51.114Z</time></trkpt><trkpt lat="42.3570591" lon="13.4012417"><ele>704.0</ele><time>2026-05-02T15:31:52.114Z</time></trkpt><trkpt lat="42.3570689" lon="13.4013701"><ele>704.0</ele><time>2026-05-02T15:31:53.113Z</time></trkpt><trkpt lat="42.3570756" lon="13.4015"><ele>704.0</ele><time>2026-05-02T15:31:54.114Z</time></trkpt><trkpt lat="42.3570719" lon="13.4016322"><ele>704.0</ele><time>2026-05-02T15:31:55.113Z</time></trkpt><trkpt lat="42.357068" lon="13.4017676"><ele>703.8333333333333</ele><time>2026-05-02T15:31:56.114Z</time></trkpt><trkpt lat="42.3570637" lon="13.4019004"><ele>703.6666666666666</ele><time>2026-05-02T15:31:57.114Z</time></trkpt><trkpt lat="42.3570616" lon="13.4020148"><ele>703.5</ele><time>2026-05-02T15:31:58.114Z</time></trkpt><trkpt lat="42.3570634" lon="13.4021099"><ele>703.3333333333334</ele><time>2026-05-02T15:31:59.114Z</time></trkpt><trkpt lat="42.3570652" lon="13.4021968"><ele>703.1666666666667</ele><time>2026-05-02T15:32:00.113Z</time></trkpt><trkpt lat="42.3570569" lon="13.4023657"><ele>703.0</ele><time>2026-05-02T15:32:02.113Z</time></trkpt><trkpt lat="42.357059" lon="13.4024629"><ele>702.1666666666667</ele><time>2026-05-02T15:32:03.113Z</time></trkpt><trkpt lat="42.3570661" lon="13.4025694"><ele>701.3333333333334</ele><time>2026-05-02T15:32:04.113Z</time></trkpt><trkpt lat="42.3570811" lon="13.4026796"><ele>700.5</ele><time>2026-05-02T15:32:05.114Z</time></trkpt><trkpt lat="42.3570993" lon="13.4027791"><ele>699.6666666666666</ele><time>2026-05-02T15:32:06.113Z</time></trkpt><trkpt lat="42.3571224" lon="13.4028812"><ele>698.8333333333333</ele><time>2026-05-02T15:32:07.114Z</time></trkpt><trkpt lat="42.3571489" lon="13.4029848"><ele>698.0</ele><time>2026-05-02T15:32:08.113Z</time></trkpt><trkpt lat="42.3571835" lon="13.4030976"><ele>699.0</ele><time>2026-05-02T15:32:09.114Z</time></trkpt><trkpt lat="42.357236" lon="13.4032238"><ele>700.0</ele><time>2026-05-02T15:32:10.113Z</time></trkpt><trkpt lat="42.3572933" lon="13.4033657"><ele>701.0</ele><time>2026-05-02T15:32:11.114Z</time></trkpt><trkpt lat="42.3573455" lon="13.4035007"><ele>702.0</ele><time>2026-05-02T15:32:12.113Z</time></trkpt><trkpt lat="42.3573911" lon="13.4036344"><ele>703.0</ele><time>2026-05-02T15:32:13.114Z</time></trkpt><trkpt lat="42.3574373" lon="13.4037693"><ele>702.8333333333334</ele><time>2026-05-02T15:32:14.113Z</time></trkpt><trkpt lat="42.3574812" lon="13.4038922"><ele>702.6666666666667</ele><time>2026-05-02T15:32:15.114Z</time></trkpt><trkpt lat="42.3575178" lon="13.4039985"><ele>702.5</ele><time>2026-05-02T15:32:16.114Z</time></trkpt><trkpt lat="42.3575494" lon="13.4040925"><ele>702.3333333333334</ele><time>2026-05-02T15:32:17.114Z</time></trkpt><trkpt lat="42.3575798" lon="13.4041789"><ele>702.1666666666666</ele><time>2026-05-02T15:32:18.113Z</time></trkpt><trkpt lat="42.3576082" lon="13.4042728"><ele>702.0</ele><time>2026-05-02T15:32:19.113Z</time></trkpt><trkpt lat="42.3576307" lon="13.4043697"><ele>702.0</ele><time>2026-05-02T15:32:20.114Z</time></trkpt><trkpt lat="42.3576443" lon="13.4044613"><ele>702.0</ele><time>2026-05-02T15:32:21.114Z</time></trkpt><trkpt lat="42.357629" lon="13.4046334"><ele>702.0</ele><time>2026-05-02T15:32:23.114Z</time></trkpt><trkpt lat="42.3575951" lon="13.404719"><ele>702.0</ele><time>2026-05-02T15:32:24.113Z</time></trkpt><trkpt lat="42.3575408" lon="13.4047992"><ele>702.0</ele><time>2026-05-02T15:32:25.114Z</time></trkpt><trkpt lat="42.3574795" lon="13.4048618"><ele>702.0</ele><time>2026-05-02T15:32:26.114Z</time></trkpt><trkpt lat="42.3574149" lon="13.4048999"><ele>703.0</ele><time>2026-05-02T15:32:27.113Z</time></trkpt><trkpt lat="42.3573434" lon="13.4049237"><ele>704.0</ele><time>2026-05-02T15:32:28.113Z</time></trkpt><trkpt lat="42.3572654" lon="13.4049351"><ele>705.0</ele><time>2026-05-02T15:32:29.113Z</time></trkpt><trkpt lat="42.3571798" lon="13.4049465"><ele>706.0</ele><time>2026-05-02T15:32:30.113Z</time></trkpt><trkpt lat="42.3571" lon="13.4049574"><ele>707.0</ele><time>2026-05-02T15:32:31.114Z</time></trkpt><trkpt lat="42.3570342" lon="13.404962"><ele>708.0</ele><time>2026-05-02T15:32:32.113Z</time></trkpt><trkpt lat="42.3569304" lon="13.4049824"><ele>708.0</ele><time>2026-05-02T15:32:34.114Z</time></trkpt><trkpt lat="42.3568333" lon="13.405009"><ele>708.0</ele><time>2026-05-02T15:32:36.114Z</time></trkpt><trkpt lat="42.3567303" lon="13.4050574"><ele>708.0</ele><time>2026-05-02T15:32:38.113Z</time></trkpt><trkpt lat="42.3566329" lon="13.4051344"><ele>708.0</ele><time>2026-05-02T15:32:40.114Z</time></trkpt><trkpt lat="42.3565405" lon="13.4052083"><ele>708.0</ele><time>2026-05-02T15:32:42.114Z</time></trkpt><trkpt lat="42.3564785" lon="13.4052749"><ele>708.0</ele><time>2026-05-02T15:32:45.114Z</time></trkpt><trkpt lat="42.3564203" lon="13.4053288"><ele>708.0</ele><time>2026-05-02T15:32:47.114Z</time></trkpt><trkpt lat="42.3563483" lon="13.4053879"><ele>708.0</ele><time>2026-05-02T15:32:49.114Z</time></trkpt><trkpt lat="42.3562387" lon="13.4054763"><ele>708.0</ele><time>2026-05-02T15:32:51.113Z</time></trkpt><trkpt lat="42.3561809" lon="13.4055238"><ele>708.0</ele><time>2026-05-02T15:32:52.114Z</time></trkpt><trkpt lat="42.3560799" lon="13.405594"><ele>708.4285714285714</ele><time>2026-05-02T15:32:54.114Z</time></trkpt><trkpt lat="42.3559934" lon="13.4056261"><ele>708.8571428571428</ele><time>2026-05-02T15:32:56.113Z</time></trkpt><trkpt lat="42.3559256" lon="13.405626"><ele>709.2857142857142</ele><time>2026-05-02T15:32:58.113Z</time></trkpt><trkpt lat="42.3558632" lon="13.4055896"><ele>709.7142857142858</ele><time>2026-05-02T15:33:00.113Z</time></trkpt><trkpt lat="42.3558216" lon="13.4055239"><ele>710.1428571428571</ele><time>2026-05-02T15:33:01.113Z</time></trkpt><trkpt lat="42.3557843" lon="13.4054512"><ele>710.5714285714286</ele><time>2026-05-02T15:33:02.113Z</time></trkpt><trkpt lat="42.3557501" lon="13.4053673"><ele>711.0</ele><time>2026-05-02T15:33:03.113Z</time></trkpt><trkpt lat="42.3557166" lon="13.4052662"><ele>711.0</ele><time>2026-05-02T15:33:04.114Z</time></trkpt><trkpt lat="42.3556862" lon="13.4051495"><ele>711.0</ele><time>2026-05-02T15:33:05.113Z</time></trkpt><trkpt lat="42.3556591" lon="13.4050221"><ele>711.0</ele><time>2026-05-02T15:33:06.114Z</time></trkpt><trkpt lat="42.3556292" lon="13.4048873"><ele>711.0</ele><time>2026-05-02T15:33:07.114Z</time></trkpt><trkpt lat="42.355599" lon="13.404744"><ele>711.0</ele><time>2026-05-02T15:33:08.114Z</time></trkpt><trkpt lat="42.3555648" lon="13.4045995"><ele>714.8</ele><time>2026-05-02T15:33:09.113Z</time></trkpt><trkpt lat="42.3555346" lon="13.4044539"><ele>718.5999999999999</ele><time>2026-05-02T15:33:10.114Z</time></trkpt><trkpt lat="42.3555033" lon="13.4043131"><ele>722.4</ele><time>2026-05-02T15:33:11.113Z</time></trkpt><trkpt lat="42.3554717" lon="13.4041851"><ele>726.2</ele><time>2026-05-02T15:33:12.113Z</time></trkpt><trkpt lat="42.3554372" lon="13.4040532"><ele>730.0</ele><time>2026-05-02T15:33:13.113Z</time></trkpt><trkpt lat="42.3554031" lon="13.4039146"><ele>728.6</ele><time>2026-05-02T15:33:14.114Z</time></trkpt><trkpt lat="42.3553695" lon="13.4037743"><ele>727.2</ele><time>2026-05-02T15:33:15.113Z</time></trkpt><trkpt lat="42.355337" lon="13.4036267"><ele>725.8</ele><time>2026-05-02T15:33:16.114Z</time></trkpt><trkpt lat="42.3553009" lon="13.4034869"><ele>724.4</ele><time>2026-05-02T15:33:17.113Z</time></trkpt><trkpt lat="42.3552603" lon="13.4033594"><ele>723.0</ele><time>2026-05-02T15:33:18.113Z</time></trkpt><trkpt lat="42.3552161" lon="13.4032415"><ele>723.0</ele><time>2026-05-02T15:33:19.113Z</time></trkpt><trkpt lat="42.3551655" lon="13.4031328"><ele>723.0</ele><time>2026-05-02T15:33:20.113Z</time></trkpt><trkpt lat="42.3551071" lon="13.4030273"><ele>723.0</ele><time>2026-05-02T15:33:21.113Z</time></trkpt><trkpt lat="42.3550419" lon="13.4029249"><ele>723.0</ele><time>2026-05-02T15:33:22.114Z</time></trkpt><trkpt lat="42.3549736" lon="13.4028266"><ele>723.0</ele><time>2026-05-02T15:33:23.113Z</time></trkpt><trkpt lat="42.3549046" lon="13.4027373"><ele>721.8333333333334</ele><time>2026-05-02T15:33:24.113Z</time></trkpt><trkpt lat="42.3548396" lon="13.4026604"><ele>720.6666666666666</ele><time>2026-05-02T15:33:25.114Z</time></trkpt><trkpt lat="42.354782" lon="13.4025879"><ele>719.5</ele><time>2026-05-02T15:33:26.113Z</time></trkpt><trkpt lat="42.3547037" lon="13.4024997"><ele>718.3333333333333</ele><time>2026-05-02T15:33:28.113Z</time></trkpt><trkpt lat="42.354636" lon="13.4024479"><ele>717.1666666666666</ele><time>2026-05-02T15:33:32.113Z</time></trkpt><trkpt lat="42.3545846" lon="13.4023855"><ele>716.0</ele><time>2026-05-02T15:33:34.113Z</time></trkpt><trkpt lat="42.3545081" lon="13.4022937"><ele>718.0</ele><time>2026-05-02T15:33:36.114Z</time></trkpt><trkpt lat="42.3544582" lon="13.4022395"><ele>720.0</ele><time>2026-05-02T15:33:37.114Z</time></trkpt><trkpt lat="42.3544053" lon="13.4021817"><ele>722.0</ele><time>2026-05-02T15:33:38.113Z</time></trkpt><trkpt lat="42.3543516" lon="13.402103"><ele>724.0</ele><time>2026-05-02T15:33:39.114Z</time></trkpt><trkpt lat="42.3543105" lon="13.4020229"><ele>726.0</ele><time>2026-05-02T15:33:40.113Z</time></trkpt><trkpt lat="42.3542815" lon="13.4018762"><ele>728.0</ele><time>2026-05-02T15:33:42.114Z</time></trkpt><trkpt lat="42.3543005" lon="13.4017215"><ele>728.0</ele><time>2026-05-02T15:33:44.113Z</time></trkpt><trkpt lat="42.3543037" lon="13.401608"><ele>728.0</ele><time>2026-05-02T15:33:46.114Z</time></trkpt><trkpt lat="42.3543178" lon="13.4015085"><ele>728.0</ele><time>2026-05-02T15:33:48.113Z</time></trkpt><trkpt lat="42.3542921" lon="13.4014116"><ele>728.0</ele><time>2026-05-02T15:33:51.114Z</time></trkpt><trkpt lat="42.3542065" lon="13.4013679"><ele>728.0</ele><time>2026-05-02T15:33:54.114Z</time></trkpt><trkpt lat="42.3541419" lon="13.4013555"><ele>728.0</ele><time>2026-05-02T15:33:56.113Z</time></trkpt><trkpt lat="42.3540704" lon="13.4013326"><ele>728.5</ele><time>2026-05-02T15:33:58.114Z</time></trkpt><trkpt lat="42.3539811" lon="13.4012893"><ele>729.0</ele><time>2026-05-02T15:34:01.114Z</time></trkpt><trkpt lat="42.353903" lon="13.401255"><ele>729.5</ele><time>2026-05-02T15:34:04.114Z</time></trkpt><trkpt lat="42.3538274" lon="13.401215"><ele>730.0</ele><time>2026-05-02T15:34:09.114Z</time></trkpt><trkpt lat="42.3537688" lon="13.4012493"><ele>730.5</ele><time>2026-05-02T15:34:13.113Z</time></trkpt><trkpt lat="42.3537156" lon="13.4013121"><ele>731.0</ele><time>2026-05-02T15:34:15.114Z</time></trkpt><trkpt lat="42.3536662" lon="13.40138"><ele>731.5999999999999</ele><time>2026-05-02T15:34:17.113Z</time></trkpt><trkpt lat="42.3536562" lon="13.4015107"><ele>732.2</ele><time>2026-05-02T15:34:20.114Z</time></trkpt><trkpt lat="42.3536509" lon="13.4016014"><ele>732.8</ele><time>2026-05-02T15:34:22.115Z</time></trkpt><trkpt lat="42.3536785" lon="13.4017267"><ele>733.4000000000001</ele><time>2026-05-02T15:34:25.113Z</time></trkpt><trkpt lat="42.3537199" lon="13.4018332"><ele>734.0</ele><time>2026-05-02T15:34:27.113Z</time></trkpt><trkpt lat="42.3537374" lon="13.4019841"><ele>734.0</ele><time>2026-05-02T15:34:29.114Z</time></trkpt><trkpt lat="42.3537384" lon="13.4021359"><ele>734.0</ele><time>2026-05-02T15:34:31.113Z</time></trkpt><trkpt lat="42.3537339" lon="13.4022298"><ele>735.0</ele><time>2026-05-02T15:34:33.114Z</time></trkpt><trkpt lat="42.3537571" lon="13.402323"><ele>735.0</ele><time>2026-05-02T15:34:36.113Z</time></trkpt><trkpt lat="42.3538241" lon="13.4023366"><ele>735.0</ele><time>2026-05-02T15:34:40.114Z</time></trkpt></trkseg></trk></gpx>